<?xml version="1.0" encoding="UTF-8" standalone="no" ?>
<gpx xmlns="http://www.topografix.com/GPX/1/1" xmlns:xsi="http://www.w3.org/2001/XMLSchema-instance" xsi:schemaLocation="http://www.topografix.com/GPX/1/1 http://www.topografix.com/GPX/1/1/gpx.xsd" version="1.1" creator="VisuGPX - https://www.visugpx.com">
  <metadata>
    <name>PLA DE MONTCAMP depart Gesties 20 Fevrier 2022</name>
    <desc><![CDATA[Trace AlpineQuest 20/02/2022 09:35:50]]></desc>
  </metadata>
  <trk>
    <name><![CDATA[PLA DE MONTCAMP depart Gesties 20 Fevrier 2022_1]]></name>
    <trkseg>
      <trkpt lat="42.76731" lon="1.57275">
        <ele>957.879</ele>
        <time>2022-02-20T08:35:50Z</time>
      </trkpt>
      <trkpt lat="42.76731" lon="1.57275">
        <ele>958.365</ele>
        <time>2022-02-20T08:35:51Z</time>
      </trkpt>
      <trkpt lat="42.76731" lon="1.57275">
        <ele>959.927</ele>
        <time>2022-02-20T08:35:53Z</time>
      </trkpt>
      <trkpt lat="42.76729" lon="1.57275">
        <ele>960.545</ele>
        <time>2022-02-20T08:35:55Z</time>
      </trkpt>
      <trkpt lat="42.7673" lon="1.57276">
        <ele>960.694</ele>
        <time>2022-02-20T08:35:57Z</time>
      </trkpt>
      <trkpt lat="42.7673" lon="1.57276">
        <ele>962.251</ele>
        <time>2022-02-20T08:35:59Z</time>
      </trkpt>
      <trkpt lat="42.7673" lon="1.57276">
        <ele>962.463</ele>
        <time>2022-02-20T08:36:01Z</time>
      </trkpt>
      <trkpt lat="42.7673" lon="1.57276">
        <ele>962.414</ele>
        <time>2022-02-20T08:36:03Z</time>
      </trkpt>
      <trkpt lat="42.7673" lon="1.57276">
        <ele>962.462</ele>
        <time>2022-02-20T08:36:05Z</time>
      </trkpt>
      <trkpt lat="42.7673" lon="1.57276">
        <ele>962.447</ele>
        <time>2022-02-20T08:36:07Z</time>
      </trkpt>
      <trkpt lat="42.7673" lon="1.57276">
        <ele>962.489</ele>
        <time>2022-02-20T08:36:09Z</time>
      </trkpt>
      <trkpt lat="42.7673" lon="1.57276">
        <ele>962.562</ele>
        <time>2022-02-20T08:36:11Z</time>
      </trkpt>
      <trkpt lat="42.7673" lon="1.57275">
        <ele>962.787</ele>
        <time>2022-02-20T08:36:13Z</time>
      </trkpt>
      <trkpt lat="42.76731" lon="1.57275">
        <ele>962.488</ele>
        <time>2022-02-20T08:36:15Z</time>
      </trkpt>
      <trkpt lat="42.76732" lon="1.57275">
        <ele>961.662</ele>
        <time>2022-02-20T08:36:17Z</time>
      </trkpt>
      <trkpt lat="42.76733" lon="1.57274">
        <ele>960.738</ele>
        <time>2022-02-20T08:36:19Z</time>
      </trkpt>
      <trkpt lat="42.76734" lon="1.57274">
        <ele>960.439</ele>
        <time>2022-02-20T08:36:21Z</time>
      </trkpt>
      <trkpt lat="42.76736" lon="1.57274">
        <ele>960.042</ele>
        <time>2022-02-20T08:36:23Z</time>
      </trkpt>
      <trkpt lat="42.76738" lon="1.57274">
        <ele>959.587</ele>
        <time>2022-02-20T08:36:25Z</time>
      </trkpt>
      <trkpt lat="42.76739" lon="1.57273">
        <ele>959.432</ele>
        <time>2022-02-20T08:36:27Z</time>
      </trkpt>
      <trkpt lat="42.76741" lon="1.57273">
        <ele>960.399</ele>
        <time>2022-02-20T08:36:29Z</time>
      </trkpt>
      <trkpt lat="42.76743" lon="1.57273">
        <ele>959.552</ele>
        <time>2022-02-20T08:36:31Z</time>
      </trkpt>
      <trkpt lat="42.76745" lon="1.57273">
        <ele>958.838</ele>
        <time>2022-02-20T08:36:33Z</time>
      </trkpt>
      <trkpt lat="42.76747" lon="1.57272">
        <ele>958.992</ele>
        <time>2022-02-20T08:36:35Z</time>
      </trkpt>
      <trkpt lat="42.7675" lon="1.57272">
        <ele>957.985</ele>
        <time>2022-02-20T08:36:37Z</time>
      </trkpt>
      <trkpt lat="42.76752" lon="1.57271">
        <ele>957.919</ele>
        <time>2022-02-20T08:36:39Z</time>
      </trkpt>
      <trkpt lat="42.76755" lon="1.57271">
        <ele>957.463</ele>
        <time>2022-02-20T08:36:41Z</time>
      </trkpt>
      <trkpt lat="42.76757" lon="1.57271">
        <ele>958.496</ele>
        <time>2022-02-20T08:36:43Z</time>
      </trkpt>
      <trkpt lat="42.7676" lon="1.57272">
        <ele>958.303</ele>
        <time>2022-02-20T08:36:45Z</time>
      </trkpt>
      <trkpt lat="42.76761" lon="1.57274">
        <ele>958.49</ele>
        <time>2022-02-20T08:36:47Z</time>
      </trkpt>
      <trkpt lat="42.76762" lon="1.57277">
        <ele>959.04</ele>
        <time>2022-02-20T08:36:49Z</time>
      </trkpt>
      <trkpt lat="42.76762" lon="1.57279">
        <ele>958.333</ele>
        <time>2022-02-20T08:36:51Z</time>
      </trkpt>
      <trkpt lat="42.7676" lon="1.57281">
        <ele>958.31</ele>
        <time>2022-02-20T08:36:53Z</time>
      </trkpt>
      <trkpt lat="42.76758" lon="1.57283">
        <ele>957.732</ele>
        <time>2022-02-20T08:36:55Z</time>
      </trkpt>
      <trkpt lat="42.76756" lon="1.57284">
        <ele>957.064</ele>
        <time>2022-02-20T08:36:57Z</time>
      </trkpt>
      <trkpt lat="42.76754" lon="1.57285">
        <ele>957.772</ele>
        <time>2022-02-20T08:36:59Z</time>
      </trkpt>
      <trkpt lat="42.76752" lon="1.57287">
        <ele>957.689</ele>
        <time>2022-02-20T08:37:01Z</time>
      </trkpt>
      <trkpt lat="42.7675" lon="1.57287">
        <ele>958.119</ele>
        <time>2022-02-20T08:37:03Z</time>
      </trkpt>
      <trkpt lat="42.76748" lon="1.57288">
        <ele>958.661</ele>
        <time>2022-02-20T08:37:05Z</time>
      </trkpt>
      <trkpt lat="42.76746" lon="1.57289">
        <ele>958.399</ele>
        <time>2022-02-20T08:37:07Z</time>
      </trkpt>
      <trkpt lat="42.76743" lon="1.5729">
        <ele>959.342</ele>
        <time>2022-02-20T08:37:09Z</time>
      </trkpt>
      <trkpt lat="42.76741" lon="1.57291">
        <ele>958.881</ele>
        <time>2022-02-20T08:37:11Z</time>
      </trkpt>
      <trkpt lat="42.76739" lon="1.57291">
        <ele>958.918</ele>
        <time>2022-02-20T08:37:13Z</time>
      </trkpt>
      <trkpt lat="42.76736" lon="1.57291">
        <ele>958.937</ele>
        <time>2022-02-20T08:37:15Z</time>
      </trkpt>
      <trkpt lat="42.76733" lon="1.57291">
        <ele>958.742</ele>
        <time>2022-02-20T08:37:18Z</time>
      </trkpt>
      <trkpt lat="42.7673" lon="1.57291">
        <ele>959.567</ele>
        <time>2022-02-20T08:37:20Z</time>
      </trkpt>
      <trkpt lat="42.76728" lon="1.57291">
        <ele>960.132</ele>
        <time>2022-02-20T08:37:22Z</time>
      </trkpt>
      <trkpt lat="42.76725" lon="1.57292">
        <ele>959.946</ele>
        <time>2022-02-20T08:37:24Z</time>
      </trkpt>
      <trkpt lat="42.76723" lon="1.57292">
        <ele>960.601</ele>
        <time>2022-02-20T08:37:26Z</time>
      </trkpt>
      <trkpt lat="42.7672" lon="1.57292">
        <ele>960.618</ele>
        <time>2022-02-20T08:37:28Z</time>
      </trkpt>
      <trkpt lat="42.76718" lon="1.57292">
        <ele>960.179</ele>
        <time>2022-02-20T08:37:30Z</time>
      </trkpt>
      <trkpt lat="42.76716" lon="1.57292">
        <ele>960.2</ele>
        <time>2022-02-20T08:37:32Z</time>
      </trkpt>
      <trkpt lat="42.76713" lon="1.57292">
        <ele>960.822</ele>
        <time>2022-02-20T08:37:34Z</time>
      </trkpt>
      <trkpt lat="42.76711" lon="1.57291">
        <ele>960.837</ele>
        <time>2022-02-20T08:37:36Z</time>
      </trkpt>
      <trkpt lat="42.76709" lon="1.57292">
        <ele>960.897</ele>
        <time>2022-02-20T08:37:38Z</time>
      </trkpt>
      <trkpt lat="42.76707" lon="1.57291">
        <ele>960.737</ele>
        <time>2022-02-20T08:37:40Z</time>
      </trkpt>
      <trkpt lat="42.76705" lon="1.57292">
        <ele>961.06</ele>
        <time>2022-02-20T08:37:42Z</time>
      </trkpt>
      <trkpt lat="42.76702" lon="1.57292">
        <ele>961.495</ele>
        <time>2022-02-20T08:37:44Z</time>
      </trkpt>
      <trkpt lat="42.767" lon="1.57292">
        <ele>961.629</ele>
        <time>2022-02-20T08:37:46Z</time>
      </trkpt>
      <trkpt lat="42.76698" lon="1.57292">
        <ele>961.524</ele>
        <time>2022-02-20T08:37:48Z</time>
      </trkpt>
      <trkpt lat="42.76695" lon="1.57293">
        <ele>961.268</ele>
        <time>2022-02-20T08:37:50Z</time>
      </trkpt>
      <trkpt lat="42.76693" lon="1.57293">
        <ele>961.333</ele>
        <time>2022-02-20T08:37:52Z</time>
      </trkpt>
      <trkpt lat="42.76691" lon="1.57294">
        <ele>962.066</ele>
        <time>2022-02-20T08:37:54Z</time>
      </trkpt>
      <trkpt lat="42.76688" lon="1.57294">
        <ele>962.008</ele>
        <time>2022-02-20T08:37:56Z</time>
      </trkpt>
      <trkpt lat="42.76686" lon="1.57295">
        <ele>962.12</ele>
        <time>2022-02-20T08:37:58Z</time>
      </trkpt>
      <trkpt lat="42.76684" lon="1.57295">
        <ele>961.738</ele>
        <time>2022-02-20T08:38:00Z</time>
      </trkpt>
      <trkpt lat="42.76682" lon="1.57296">
        <ele>961.782</ele>
        <time>2022-02-20T08:38:02Z</time>
      </trkpt>
      <trkpt lat="42.7668" lon="1.57297">
        <ele>962.206</ele>
        <time>2022-02-20T08:38:04Z</time>
      </trkpt>
      <trkpt lat="42.76678" lon="1.57298">
        <ele>963.228</ele>
        <time>2022-02-20T08:38:06Z</time>
      </trkpt>
      <trkpt lat="42.76676" lon="1.573">
        <ele>963.184</ele>
        <time>2022-02-20T08:38:08Z</time>
      </trkpt>
      <trkpt lat="42.76673" lon="1.57301">
        <ele>964.072</ele>
        <time>2022-02-20T08:38:10Z</time>
      </trkpt>
      <trkpt lat="42.76672" lon="1.57303">
        <ele>963.914</ele>
        <time>2022-02-20T08:38:12Z</time>
      </trkpt>
      <trkpt lat="42.7667" lon="1.57304">
        <ele>963.962</ele>
        <time>2022-02-20T08:38:14Z</time>
      </trkpt>
      <trkpt lat="42.76668" lon="1.57305">
        <ele>964.416</ele>
        <time>2022-02-20T08:38:16Z</time>
      </trkpt>
      <trkpt lat="42.76666" lon="1.57306">
        <ele>964.736</ele>
        <time>2022-02-20T08:38:18Z</time>
      </trkpt>
      <trkpt lat="42.76664" lon="1.57308">
        <ele>965.094</ele>
        <time>2022-02-20T08:38:20Z</time>
      </trkpt>
      <trkpt lat="42.76662" lon="1.57309">
        <ele>965.866</ele>
        <time>2022-02-20T08:38:22Z</time>
      </trkpt>
      <trkpt lat="42.76661" lon="1.57311">
        <ele>965.888</ele>
        <time>2022-02-20T08:38:24Z</time>
      </trkpt>
      <trkpt lat="42.76659" lon="1.57313">
        <ele>966.177</ele>
        <time>2022-02-20T08:38:26Z</time>
      </trkpt>
      <trkpt lat="42.76657" lon="1.57315">
        <ele>966.074</ele>
        <time>2022-02-20T08:38:28Z</time>
      </trkpt>
      <trkpt lat="42.76656" lon="1.57317">
        <ele>966.872</ele>
        <time>2022-02-20T08:38:30Z</time>
      </trkpt>
      <trkpt lat="42.76654" lon="1.57319">
        <ele>966.174</ele>
        <time>2022-02-20T08:38:32Z</time>
      </trkpt>
      <trkpt lat="42.76653" lon="1.57322">
        <ele>965.964</ele>
        <time>2022-02-20T08:38:34Z</time>
      </trkpt>
      <trkpt lat="42.76652" lon="1.57324">
        <ele>964.602</ele>
        <time>2022-02-20T08:38:36Z</time>
      </trkpt>
      <trkpt lat="42.76652" lon="1.57327">
        <ele>962.48</ele>
        <time>2022-02-20T08:38:38Z</time>
      </trkpt>
      <trkpt lat="42.76651" lon="1.5733">
        <ele>961.943</ele>
        <time>2022-02-20T08:38:40Z</time>
      </trkpt>
      <trkpt lat="42.76651" lon="1.57333">
        <ele>962.495</ele>
        <time>2022-02-20T08:38:42Z</time>
      </trkpt>
      <trkpt lat="42.7665" lon="1.57335">
        <ele>963.57</ele>
        <time>2022-02-20T08:38:44Z</time>
      </trkpt>
      <trkpt lat="42.7665" lon="1.57338">
        <ele>963.048</ele>
        <time>2022-02-20T08:38:46Z</time>
      </trkpt>
      <trkpt lat="42.7665" lon="1.5734">
        <ele>963.117</ele>
        <time>2022-02-20T08:38:48Z</time>
      </trkpt>
      <trkpt lat="42.76649" lon="1.57343">
        <ele>964.787</ele>
        <time>2022-02-20T08:38:50Z</time>
      </trkpt>
      <trkpt lat="42.76648" lon="1.57345">
        <ele>965.749</ele>
        <time>2022-02-20T08:38:52Z</time>
      </trkpt>
      <trkpt lat="42.76648" lon="1.57347">
        <ele>967.711</ele>
        <time>2022-02-20T08:38:54Z</time>
      </trkpt>
      <trkpt lat="42.76648" lon="1.57349">
        <ele>968.8</ele>
        <time>2022-02-20T08:38:56Z</time>
      </trkpt>
      <trkpt lat="42.76649" lon="1.57352">
        <ele>970.17</ele>
        <time>2022-02-20T08:38:58Z</time>
      </trkpt>
      <trkpt lat="42.76649" lon="1.57355">
        <ele>971.767</ele>
        <time>2022-02-20T08:39:00Z</time>
      </trkpt>
      <trkpt lat="42.7665" lon="1.57357">
        <ele>972.382</ele>
        <time>2022-02-20T08:39:02Z</time>
      </trkpt>
      <trkpt lat="42.7665" lon="1.5736">
        <ele>973.073</ele>
        <time>2022-02-20T08:39:04Z</time>
      </trkpt>
      <trkpt lat="42.76651" lon="1.57361">
        <ele>973.342</ele>
        <time>2022-02-20T08:39:06Z</time>
      </trkpt>
      <trkpt lat="42.76651" lon="1.57363">
        <ele>973.124</ele>
        <time>2022-02-20T08:39:08Z</time>
      </trkpt>
      <trkpt lat="42.76653" lon="1.57364">
        <ele>972.486</ele>
        <time>2022-02-20T08:39:10Z</time>
      </trkpt>
      <trkpt lat="42.76654" lon="1.57366">
        <ele>972.113</ele>
        <time>2022-02-20T08:39:12Z</time>
      </trkpt>
      <trkpt lat="42.76655" lon="1.57368">
        <ele>971.883</ele>
        <time>2022-02-20T08:39:14Z</time>
      </trkpt>
      <trkpt lat="42.76656" lon="1.5737">
        <ele>972.282</ele>
        <time>2022-02-20T08:39:16Z</time>
      </trkpt>
      <trkpt lat="42.76658" lon="1.57371">
        <ele>971.741</ele>
        <time>2022-02-20T08:39:18Z</time>
      </trkpt>
      <trkpt lat="42.76659" lon="1.57372">
        <ele>973.035</ele>
        <time>2022-02-20T08:39:20Z</time>
      </trkpt>
      <trkpt lat="42.7666" lon="1.57374">
        <ele>972.998</ele>
        <time>2022-02-20T08:39:22Z</time>
      </trkpt>
      <trkpt lat="42.76662" lon="1.57375">
        <ele>973.349</ele>
        <time>2022-02-20T08:39:24Z</time>
      </trkpt>
      <trkpt lat="42.76663" lon="1.57377">
        <ele>973.986</ele>
        <time>2022-02-20T08:39:26Z</time>
      </trkpt>
      <trkpt lat="42.76664" lon="1.57378">
        <ele>975.781</ele>
        <time>2022-02-20T08:39:28Z</time>
      </trkpt>
      <trkpt lat="42.76666" lon="1.5738">
        <ele>975.696</ele>
        <time>2022-02-20T08:39:30Z</time>
      </trkpt>
      <trkpt lat="42.76667" lon="1.57381">
        <ele>976.16</ele>
        <time>2022-02-20T08:39:32Z</time>
      </trkpt>
      <trkpt lat="42.76668" lon="1.57382">
        <ele>976.299</ele>
        <time>2022-02-20T08:39:34Z</time>
      </trkpt>
      <trkpt lat="42.76669" lon="1.57384">
        <ele>975.824</ele>
        <time>2022-02-20T08:39:36Z</time>
      </trkpt>
      <trkpt lat="42.7667" lon="1.57386">
        <ele>976.49</ele>
        <time>2022-02-20T08:39:38Z</time>
      </trkpt>
      <trkpt lat="42.76671" lon="1.57387">
        <ele>976.83</ele>
        <time>2022-02-20T08:39:40Z</time>
      </trkpt>
      <trkpt lat="42.76673" lon="1.57388">
        <ele>977.302</ele>
        <time>2022-02-20T08:39:42Z</time>
      </trkpt>
      <trkpt lat="42.76674" lon="1.5739">
        <ele>977.625</ele>
        <time>2022-02-20T08:39:44Z</time>
      </trkpt>
      <trkpt lat="42.76675" lon="1.57392">
        <ele>978.589</ele>
        <time>2022-02-20T08:39:46Z</time>
      </trkpt>
      <trkpt lat="42.76675" lon="1.57394">
        <ele>979.554</ele>
        <time>2022-02-20T08:39:48Z</time>
      </trkpt>
      <trkpt lat="42.76676" lon="1.57396">
        <ele>980.987</ele>
        <time>2022-02-20T08:39:50Z</time>
      </trkpt>
      <trkpt lat="42.76677" lon="1.57398">
        <ele>981.046</ele>
        <time>2022-02-20T08:39:52Z</time>
      </trkpt>
      <trkpt lat="42.76677" lon="1.574">
        <ele>980.996</ele>
        <time>2022-02-20T08:39:54Z</time>
      </trkpt>
      <trkpt lat="42.76678" lon="1.57402">
        <ele>980.707</ele>
        <time>2022-02-20T08:39:56Z</time>
      </trkpt>
      <trkpt lat="42.76678" lon="1.57404">
        <ele>981.08</ele>
        <time>2022-02-20T08:39:58Z</time>
      </trkpt>
      <trkpt lat="42.76678" lon="1.57406">
        <ele>981.623</ele>
        <time>2022-02-20T08:40:00Z</time>
      </trkpt>
      <trkpt lat="42.76678" lon="1.57408">
        <ele>979.729</ele>
        <time>2022-02-20T08:40:02Z</time>
      </trkpt>
      <trkpt lat="42.76678" lon="1.5741">
        <ele>979.961</ele>
        <time>2022-02-20T08:40:04Z</time>
      </trkpt>
      <trkpt lat="42.76678" lon="1.57412">
        <ele>979.95</ele>
        <time>2022-02-20T08:40:06Z</time>
      </trkpt>
      <trkpt lat="42.76679" lon="1.57414">
        <ele>980.648</ele>
        <time>2022-02-20T08:40:08Z</time>
      </trkpt>
      <trkpt lat="42.76679" lon="1.57416">
        <ele>981.667</ele>
        <time>2022-02-20T08:40:10Z</time>
      </trkpt>
      <trkpt lat="42.7668" lon="1.57418">
        <ele>982.419</ele>
        <time>2022-02-20T08:40:12Z</time>
      </trkpt>
      <trkpt lat="42.7668" lon="1.5742">
        <ele>983.374</ele>
        <time>2022-02-20T08:40:14Z</time>
      </trkpt>
      <trkpt lat="42.76681" lon="1.57422">
        <ele>983.806</ele>
        <time>2022-02-20T08:40:16Z</time>
      </trkpt>
      <trkpt lat="42.76681" lon="1.57424">
        <ele>983.899</ele>
        <time>2022-02-20T08:40:18Z</time>
      </trkpt>
      <trkpt lat="42.76681" lon="1.57426">
        <ele>985.137</ele>
        <time>2022-02-20T08:40:20Z</time>
      </trkpt>
      <trkpt lat="42.76682" lon="1.57428">
        <ele>986.092</ele>
        <time>2022-02-20T08:40:22Z</time>
      </trkpt>
      <trkpt lat="42.76683" lon="1.5743">
        <ele>986.038</ele>
        <time>2022-02-20T08:40:24Z</time>
      </trkpt>
      <trkpt lat="42.76684" lon="1.57431">
        <ele>986.491</ele>
        <time>2022-02-20T08:40:26Z</time>
      </trkpt>
      <trkpt lat="42.76685" lon="1.57433">
        <ele>987.28</ele>
        <time>2022-02-20T08:40:28Z</time>
      </trkpt>
      <trkpt lat="42.76686" lon="1.57435">
        <ele>987.498</ele>
        <time>2022-02-20T08:40:30Z</time>
      </trkpt>
      <trkpt lat="42.76686" lon="1.57437">
        <ele>987.552</ele>
        <time>2022-02-20T08:40:32Z</time>
      </trkpt>
      <trkpt lat="42.76687" lon="1.57439">
        <ele>987.058</ele>
        <time>2022-02-20T08:40:34Z</time>
      </trkpt>
      <trkpt lat="42.76688" lon="1.5744">
        <ele>988.143</ele>
        <time>2022-02-20T08:40:36Z</time>
      </trkpt>
      <trkpt lat="42.76689" lon="1.57442">
        <ele>988.886</ele>
        <time>2022-02-20T08:40:38Z</time>
      </trkpt>
      <trkpt lat="42.76689" lon="1.57443">
        <ele>989.272</ele>
        <time>2022-02-20T08:40:40Z</time>
      </trkpt>
      <trkpt lat="42.7669" lon="1.57444">
        <ele>989.244</ele>
        <time>2022-02-20T08:40:42Z</time>
      </trkpt>
      <trkpt lat="42.76691" lon="1.57446">
        <ele>988.505</ele>
        <time>2022-02-20T08:40:44Z</time>
      </trkpt>
      <trkpt lat="42.76692" lon="1.57447">
        <ele>988.765</ele>
        <time>2022-02-20T08:40:46Z</time>
      </trkpt>
      <trkpt lat="42.76693" lon="1.57449">
        <ele>989.359</ele>
        <time>2022-02-20T08:40:48Z</time>
      </trkpt>
      <trkpt lat="42.76694" lon="1.57449">
        <ele>989.008</ele>
        <time>2022-02-20T08:40:50Z</time>
      </trkpt>
      <trkpt lat="42.76695" lon="1.5745">
        <ele>989.906</ele>
        <time>2022-02-20T08:40:52Z</time>
      </trkpt>
      <trkpt lat="42.76697" lon="1.57452">
        <ele>990.529</ele>
        <time>2022-02-20T08:40:54Z</time>
      </trkpt>
      <trkpt lat="42.76698" lon="1.57453">
        <ele>991.855</ele>
        <time>2022-02-20T08:40:56Z</time>
      </trkpt>
      <trkpt lat="42.76698" lon="1.57454">
        <ele>991.789</ele>
        <time>2022-02-20T08:40:58Z</time>
      </trkpt>
      <trkpt lat="42.76699" lon="1.57455">
        <ele>992.747</ele>
        <time>2022-02-20T08:41:00Z</time>
      </trkpt>
      <trkpt lat="42.767" lon="1.57456">
        <ele>992.531</ele>
        <time>2022-02-20T08:41:02Z</time>
      </trkpt>
      <trkpt lat="42.767" lon="1.57457">
        <ele>992.918</ele>
        <time>2022-02-20T08:41:04Z</time>
      </trkpt>
      <trkpt lat="42.76701" lon="1.57458">
        <ele>992.591</ele>
        <time>2022-02-20T08:41:06Z</time>
      </trkpt>
      <trkpt lat="42.76702" lon="1.5746">
        <ele>992.227</ele>
        <time>2022-02-20T08:41:08Z</time>
      </trkpt>
      <trkpt lat="42.76703" lon="1.57461">
        <ele>994.567</ele>
        <time>2022-02-20T08:41:10Z</time>
      </trkpt>
      <trkpt lat="42.76704" lon="1.57462">
        <ele>995.287</ele>
        <time>2022-02-20T08:41:12Z</time>
      </trkpt>
      <trkpt lat="42.76704" lon="1.57464">
        <ele>996.343</ele>
        <time>2022-02-20T08:41:14Z</time>
      </trkpt>
      <trkpt lat="42.76704" lon="1.57466">
        <ele>995.302</ele>
        <time>2022-02-20T08:41:16Z</time>
      </trkpt>
      <trkpt lat="42.76704" lon="1.57465">
        <ele>997.146</ele>
        <time>2022-02-20T08:41:18Z</time>
      </trkpt>
      <trkpt lat="42.76704" lon="1.57464">
        <ele>997.15</ele>
        <time>2022-02-20T08:41:20Z</time>
      </trkpt>
      <trkpt lat="42.76704" lon="1.57464">
        <ele>997.151</ele>
        <time>2022-02-20T08:41:22Z</time>
      </trkpt>
      <trkpt lat="42.76704" lon="1.57464">
        <ele>997.169</ele>
        <time>2022-02-20T08:41:24Z</time>
      </trkpt>
      <trkpt lat="42.76704" lon="1.57466">
        <ele>997.177</ele>
        <time>2022-02-20T08:41:26Z</time>
      </trkpt>
      <trkpt lat="42.76704" lon="1.57466">
        <ele>997.291</ele>
        <time>2022-02-20T08:41:28Z</time>
      </trkpt>
      <trkpt lat="42.76703" lon="1.57466">
        <ele>996.684</ele>
        <time>2022-02-20T08:41:30Z</time>
      </trkpt>
      <trkpt lat="42.76703" lon="1.57468">
        <ele>996.356</ele>
        <time>2022-02-20T08:41:32Z</time>
      </trkpt>
      <trkpt lat="42.76702" lon="1.5747">
        <ele>996.457</ele>
        <time>2022-02-20T08:41:34Z</time>
      </trkpt>
      <trkpt lat="42.76702" lon="1.5747">
        <ele>997.144</ele>
        <time>2022-02-20T08:41:36Z</time>
      </trkpt>
      <trkpt lat="42.76701" lon="1.57472">
        <ele>997.487</ele>
        <time>2022-02-20T08:41:38Z</time>
      </trkpt>
      <trkpt lat="42.76701" lon="1.57474">
        <ele>996.655</ele>
        <time>2022-02-20T08:41:40Z</time>
      </trkpt>
      <trkpt lat="42.76702" lon="1.57475">
        <ele>996.592</ele>
        <time>2022-02-20T08:41:42Z</time>
      </trkpt>
      <trkpt lat="42.76702" lon="1.57476">
        <ele>997.466</ele>
        <time>2022-02-20T08:41:44Z</time>
      </trkpt>
      <trkpt lat="42.76703" lon="1.57477">
        <ele>997.381</ele>
        <time>2022-02-20T08:41:46Z</time>
      </trkpt>
      <trkpt lat="42.76703" lon="1.57478">
        <ele>998.08</ele>
        <time>2022-02-20T08:41:48Z</time>
      </trkpt>
      <trkpt lat="42.76703" lon="1.57479">
        <ele>1000.288</ele>
        <time>2022-02-20T08:41:50Z</time>
      </trkpt>
      <trkpt lat="42.76703" lon="1.5748">
        <ele>1001.317</ele>
        <time>2022-02-20T08:41:52Z</time>
      </trkpt>
      <trkpt lat="42.76702" lon="1.57479">
        <ele>1004.042</ele>
        <time>2022-02-20T08:41:54Z</time>
      </trkpt>
      <trkpt lat="42.76702" lon="1.57477">
        <ele>1006.635</ele>
        <time>2022-02-20T08:41:56Z</time>
      </trkpt>
      <trkpt lat="42.76703" lon="1.57477">
        <ele>1005.702</ele>
        <time>2022-02-20T08:41:58Z</time>
      </trkpt>
      <trkpt lat="42.76704" lon="1.57478">
        <ele>1006.295</ele>
        <time>2022-02-20T08:42:00Z</time>
      </trkpt>
      <trkpt lat="42.76705" lon="1.57478">
        <ele>1005.743</ele>
        <time>2022-02-20T08:42:02Z</time>
      </trkpt>
      <trkpt lat="42.76706" lon="1.57478">
        <ele>1006.594</ele>
        <time>2022-02-20T08:42:04Z</time>
      </trkpt>
      <trkpt lat="42.76707" lon="1.57478">
        <ele>1007.674</ele>
        <time>2022-02-20T08:42:06Z</time>
      </trkpt>
      <trkpt lat="42.76708" lon="1.57478">
        <ele>1007.12</ele>
        <time>2022-02-20T08:42:08Z</time>
      </trkpt>
      <trkpt lat="42.76709" lon="1.57478">
        <ele>1007.534</ele>
        <time>2022-02-20T08:42:10Z</time>
      </trkpt>
      <trkpt lat="42.76711" lon="1.57479">
        <ele>1008.958</ele>
        <time>2022-02-20T08:42:12Z</time>
      </trkpt>
      <trkpt lat="42.76711" lon="1.57481">
        <ele>1009.694</ele>
        <time>2022-02-20T08:42:14Z</time>
      </trkpt>
      <trkpt lat="42.76711" lon="1.57483">
        <ele>1009.772</ele>
        <time>2022-02-20T08:42:16Z</time>
      </trkpt>
      <trkpt lat="42.76712" lon="1.57485">
        <ele>1010.108</ele>
        <time>2022-02-20T08:42:18Z</time>
      </trkpt>
      <trkpt lat="42.76712" lon="1.57487">
        <ele>1010.355</ele>
        <time>2022-02-20T08:42:20Z</time>
      </trkpt>
      <trkpt lat="42.76713" lon="1.57489">
        <ele>1010.53</ele>
        <time>2022-02-20T08:42:22Z</time>
      </trkpt>
      <trkpt lat="42.76712" lon="1.57491">
        <ele>1011.78</ele>
        <time>2022-02-20T08:42:24Z</time>
      </trkpt>
      <trkpt lat="42.76712" lon="1.57492">
        <ele>1012.571</ele>
        <time>2022-02-20T08:42:26Z</time>
      </trkpt>
      <trkpt lat="42.76711" lon="1.57493">
        <ele>1014.818</ele>
        <time>2022-02-20T08:42:28Z</time>
      </trkpt>
      <trkpt lat="42.7671" lon="1.57494">
        <ele>1016.514</ele>
        <time>2022-02-20T08:42:30Z</time>
      </trkpt>
      <trkpt lat="42.7671" lon="1.57495">
        <ele>1016.419</ele>
        <time>2022-02-20T08:42:32Z</time>
      </trkpt>
      <trkpt lat="42.7671" lon="1.57497">
        <ele>1015.936</ele>
        <time>2022-02-20T08:42:34Z</time>
      </trkpt>
      <trkpt lat="42.7671" lon="1.57498">
        <ele>1016.099</ele>
        <time>2022-02-20T08:42:36Z</time>
      </trkpt>
      <trkpt lat="42.76709" lon="1.575">
        <ele>1015.586</ele>
        <time>2022-02-20T08:42:38Z</time>
      </trkpt>
      <trkpt lat="42.7671" lon="1.57502">
        <ele>1015.468</ele>
        <time>2022-02-20T08:42:40Z</time>
      </trkpt>
      <trkpt lat="42.7671" lon="1.57503">
        <ele>1015.332</ele>
        <time>2022-02-20T08:42:42Z</time>
      </trkpt>
      <trkpt lat="42.7671" lon="1.57505">
        <ele>1015.977</ele>
        <time>2022-02-20T08:42:44Z</time>
      </trkpt>
      <trkpt lat="42.7671" lon="1.57506">
        <ele>1015.42</ele>
        <time>2022-02-20T08:42:46Z</time>
      </trkpt>
      <trkpt lat="42.7671" lon="1.57507">
        <ele>1013.977</ele>
        <time>2022-02-20T08:42:48Z</time>
      </trkpt>
      <trkpt lat="42.76709" lon="1.57509">
        <ele>1015.389</ele>
        <time>2022-02-20T08:42:50Z</time>
      </trkpt>
      <trkpt lat="42.76708" lon="1.5751">
        <ele>1014.94</ele>
        <time>2022-02-20T08:42:52Z</time>
      </trkpt>
      <trkpt lat="42.76708" lon="1.57511">
        <ele>1014.879</ele>
        <time>2022-02-20T08:42:54Z</time>
      </trkpt>
      <trkpt lat="42.76708" lon="1.57512">
        <ele>1014.549</ele>
        <time>2022-02-20T08:42:56Z</time>
      </trkpt>
      <trkpt lat="42.76708" lon="1.57513">
        <ele>1015.985</ele>
        <time>2022-02-20T08:42:58Z</time>
      </trkpt>
      <trkpt lat="42.76708" lon="1.57514">
        <ele>1016.376</ele>
        <time>2022-02-20T08:43:00Z</time>
      </trkpt>
      <trkpt lat="42.76707" lon="1.57516">
        <ele>1017.07</ele>
        <time>2022-02-20T08:43:02Z</time>
      </trkpt>
      <trkpt lat="42.76706" lon="1.57517">
        <ele>1018.098</ele>
        <time>2022-02-20T08:43:04Z</time>
      </trkpt>
      <trkpt lat="42.76705" lon="1.57518">
        <ele>1017.226</ele>
        <time>2022-02-20T08:43:06Z</time>
      </trkpt>
      <trkpt lat="42.76705" lon="1.57519">
        <ele>1017.611</ele>
        <time>2022-02-20T08:43:08Z</time>
      </trkpt>
      <trkpt lat="42.76704" lon="1.57521">
        <ele>1018.051</ele>
        <time>2022-02-20T08:43:10Z</time>
      </trkpt>
      <trkpt lat="42.76704" lon="1.57521">
        <ele>1017.937</ele>
        <time>2022-02-20T08:43:12Z</time>
      </trkpt>
      <trkpt lat="42.76703" lon="1.57522">
        <ele>1018.183</ele>
        <time>2022-02-20T08:43:14Z</time>
      </trkpt>
      <trkpt lat="42.76702" lon="1.57524">
        <ele>1018.014</ele>
        <time>2022-02-20T08:43:16Z</time>
      </trkpt>
      <trkpt lat="42.76701" lon="1.57525">
        <ele>1019.675</ele>
        <time>2022-02-20T08:43:18Z</time>
      </trkpt>
      <trkpt lat="42.767" lon="1.57524">
        <ele>1021.685</ele>
        <time>2022-02-20T08:43:20Z</time>
      </trkpt>
      <trkpt lat="42.767" lon="1.57524">
        <ele>1022.064</ele>
        <time>2022-02-20T08:43:22Z</time>
      </trkpt>
      <trkpt lat="42.76699" lon="1.57524">
        <ele>1021.498</ele>
        <time>2022-02-20T08:43:24Z</time>
      </trkpt>
      <trkpt lat="42.76698" lon="1.57525">
        <ele>1022.262</ele>
        <time>2022-02-20T08:43:26Z</time>
      </trkpt>
      <trkpt lat="42.76697" lon="1.57526">
        <ele>1022.32</ele>
        <time>2022-02-20T08:43:28Z</time>
      </trkpt>
      <trkpt lat="42.76697" lon="1.57526">
        <ele>1022.575</ele>
        <time>2022-02-20T08:43:30Z</time>
      </trkpt>
      <trkpt lat="42.76696" lon="1.57526">
        <ele>1022.896</ele>
        <time>2022-02-20T08:43:32Z</time>
      </trkpt>
      <trkpt lat="42.76695" lon="1.57527">
        <ele>1021.807</ele>
        <time>2022-02-20T08:43:34Z</time>
      </trkpt>
      <trkpt lat="42.76695" lon="1.57529">
        <ele>1021.359</ele>
        <time>2022-02-20T08:43:36Z</time>
      </trkpt>
      <trkpt lat="42.76694" lon="1.57529">
        <ele>1023.06</ele>
        <time>2022-02-20T08:43:38Z</time>
      </trkpt>
      <trkpt lat="42.76693" lon="1.5753">
        <ele>1022.589</ele>
        <time>2022-02-20T08:43:40Z</time>
      </trkpt>
      <trkpt lat="42.76692" lon="1.57531">
        <ele>1022.642</ele>
        <time>2022-02-20T08:43:42Z</time>
      </trkpt>
      <trkpt lat="42.76691" lon="1.57531">
        <ele>1023.284</ele>
        <time>2022-02-20T08:43:44Z</time>
      </trkpt>
      <trkpt lat="42.7669" lon="1.57531">
        <ele>1023.134</ele>
        <time>2022-02-20T08:43:46Z</time>
      </trkpt>
      <trkpt lat="42.76689" lon="1.57531">
        <ele>1022.129</ele>
        <time>2022-02-20T08:43:48Z</time>
      </trkpt>
      <trkpt lat="42.76688" lon="1.57532">
        <ele>1023.851</ele>
        <time>2022-02-20T08:43:50Z</time>
      </trkpt>
      <trkpt lat="42.76687" lon="1.57533">
        <ele>1023.619</ele>
        <time>2022-02-20T08:43:52Z</time>
      </trkpt>
      <trkpt lat="42.76686" lon="1.57534">
        <ele>1024.258</ele>
        <time>2022-02-20T08:43:54Z</time>
      </trkpt>
      <trkpt lat="42.76685" lon="1.57535">
        <ele>1025.782</ele>
        <time>2022-02-20T08:43:56Z</time>
      </trkpt>
      <trkpt lat="42.76684" lon="1.57535">
        <ele>1026.765</ele>
        <time>2022-02-20T08:43:58Z</time>
      </trkpt>
      <trkpt lat="42.76683" lon="1.57536">
        <ele>1027.152</ele>
        <time>2022-02-20T08:44:00Z</time>
      </trkpt>
      <trkpt lat="42.76682" lon="1.57537">
        <ele>1027.071</ele>
        <time>2022-02-20T08:44:02Z</time>
      </trkpt>
      <trkpt lat="42.76682" lon="1.57538">
        <ele>1027.144</ele>
        <time>2022-02-20T08:44:04Z</time>
      </trkpt>
      <trkpt lat="42.76681" lon="1.5754">
        <ele>1027.668</ele>
        <time>2022-02-20T08:44:06Z</time>
      </trkpt>
      <trkpt lat="42.76681" lon="1.57541">
        <ele>1028.799</ele>
        <time>2022-02-20T08:44:08Z</time>
      </trkpt>
      <trkpt lat="42.7668" lon="1.57542">
        <ele>1028.495</ele>
        <time>2022-02-20T08:44:10Z</time>
      </trkpt>
      <trkpt lat="42.76679" lon="1.57543">
        <ele>1029.4</ele>
        <time>2022-02-20T08:44:12Z</time>
      </trkpt>
      <trkpt lat="42.7668" lon="1.57544">
        <ele>1029.811</ele>
        <time>2022-02-20T08:44:14Z</time>
      </trkpt>
      <trkpt lat="42.76679" lon="1.57545">
        <ele>1030.227</ele>
        <time>2022-02-20T08:44:16Z</time>
      </trkpt>
      <trkpt lat="42.76677" lon="1.57544">
        <ele>1030.902</ele>
        <time>2022-02-20T08:44:18Z</time>
      </trkpt>
      <trkpt lat="42.76676" lon="1.57545">
        <ele>1030.576</ele>
        <time>2022-02-20T08:44:20Z</time>
      </trkpt>
      <trkpt lat="42.76675" lon="1.57546">
        <ele>1029.74</ele>
        <time>2022-02-20T08:44:22Z</time>
      </trkpt>
      <trkpt lat="42.76674" lon="1.57547">
        <ele>1028.69</ele>
        <time>2022-02-20T08:44:24Z</time>
      </trkpt>
      <trkpt lat="42.76673" lon="1.57548">
        <ele>1028.697</ele>
        <time>2022-02-20T08:44:26Z</time>
      </trkpt>
      <trkpt lat="42.76672" lon="1.57548">
        <ele>1028.951</ele>
        <time>2022-02-20T08:44:28Z</time>
      </trkpt>
      <trkpt lat="42.7667" lon="1.57548">
        <ele>1029.471</ele>
        <time>2022-02-20T08:44:30Z</time>
      </trkpt>
      <trkpt lat="42.76669" lon="1.57549">
        <ele>1028.111</ele>
        <time>2022-02-20T08:44:32Z</time>
      </trkpt>
      <trkpt lat="42.76669" lon="1.5755">
        <ele>1028.395</ele>
        <time>2022-02-20T08:44:34Z</time>
      </trkpt>
      <trkpt lat="42.76668" lon="1.5755">
        <ele>1028.802</ele>
        <time>2022-02-20T08:44:36Z</time>
      </trkpt>
      <trkpt lat="42.76667" lon="1.57551">
        <ele>1028.628</ele>
        <time>2022-02-20T08:44:38Z</time>
      </trkpt>
      <trkpt lat="42.76666" lon="1.57553">
        <ele>1028.998</ele>
        <time>2022-02-20T08:44:40Z</time>
      </trkpt>
      <trkpt lat="42.76666" lon="1.57554">
        <ele>1030.184</ele>
        <time>2022-02-20T08:44:42Z</time>
      </trkpt>
      <trkpt lat="42.76665" lon="1.57556">
        <ele>1030.348</ele>
        <time>2022-02-20T08:44:44Z</time>
      </trkpt>
      <trkpt lat="42.76664" lon="1.57557">
        <ele>1030.633</ele>
        <time>2022-02-20T08:44:46Z</time>
      </trkpt>
      <trkpt lat="42.76664" lon="1.57558">
        <ele>1030.669</ele>
        <time>2022-02-20T08:44:48Z</time>
      </trkpt>
      <trkpt lat="42.76664" lon="1.57559">
        <ele>1030.679</ele>
        <time>2022-02-20T08:44:50Z</time>
      </trkpt>
      <trkpt lat="42.76662" lon="1.5756">
        <ele>1032.541</ele>
        <time>2022-02-20T08:44:52Z</time>
      </trkpt>
      <trkpt lat="42.76662" lon="1.57561">
        <ele>1032.159</ele>
        <time>2022-02-20T08:44:54Z</time>
      </trkpt>
      <trkpt lat="42.76662" lon="1.57562">
        <ele>1032.783</ele>
        <time>2022-02-20T08:44:56Z</time>
      </trkpt>
      <trkpt lat="42.76661" lon="1.57563">
        <ele>1033.401</ele>
        <time>2022-02-20T08:44:58Z</time>
      </trkpt>
      <trkpt lat="42.76661" lon="1.57564">
        <ele>1034.232</ele>
        <time>2022-02-20T08:45:00Z</time>
      </trkpt>
      <trkpt lat="42.7666" lon="1.57565">
        <ele>1033.886</ele>
        <time>2022-02-20T08:45:02Z</time>
      </trkpt>
      <trkpt lat="42.7666" lon="1.57567">
        <ele>1034.537</ele>
        <time>2022-02-20T08:45:04Z</time>
      </trkpt>
      <trkpt lat="42.7666" lon="1.57567">
        <ele>1035.883</ele>
        <time>2022-02-20T08:45:06Z</time>
      </trkpt>
      <trkpt lat="42.76659" lon="1.57568">
        <ele>1037.832</ele>
        <time>2022-02-20T08:45:08Z</time>
      </trkpt>
      <trkpt lat="42.76658" lon="1.57569">
        <ele>1037.381</ele>
        <time>2022-02-20T08:45:10Z</time>
      </trkpt>
      <trkpt lat="42.76658" lon="1.57571">
        <ele>1036.477</ele>
        <time>2022-02-20T08:45:12Z</time>
      </trkpt>
      <trkpt lat="42.76658" lon="1.57572">
        <ele>1035.48</ele>
        <time>2022-02-20T08:45:14Z</time>
      </trkpt>
      <trkpt lat="42.76658" lon="1.57574">
        <ele>1036.079</ele>
        <time>2022-02-20T08:45:16Z</time>
      </trkpt>
      <trkpt lat="42.76657" lon="1.57575">
        <ele>1036.271</ele>
        <time>2022-02-20T08:45:18Z</time>
      </trkpt>
      <trkpt lat="42.76656" lon="1.57576">
        <ele>1036.41</ele>
        <time>2022-02-20T08:45:20Z</time>
      </trkpt>
      <trkpt lat="42.76656" lon="1.57577">
        <ele>1035.345</ele>
        <time>2022-02-20T08:45:22Z</time>
      </trkpt>
      <trkpt lat="42.76655" lon="1.57578">
        <ele>1035.93</ele>
        <time>2022-02-20T08:45:24Z</time>
      </trkpt>
      <trkpt lat="42.76655" lon="1.5758">
        <ele>1036.145</ele>
        <time>2022-02-20T08:45:26Z</time>
      </trkpt>
      <trkpt lat="42.76655" lon="1.57581">
        <ele>1037.274</ele>
        <time>2022-02-20T08:45:28Z</time>
      </trkpt>
      <trkpt lat="42.76654" lon="1.57583">
        <ele>1036.872</ele>
        <time>2022-02-20T08:45:30Z</time>
      </trkpt>
      <trkpt lat="42.76653" lon="1.57584">
        <ele>1037.709</ele>
        <time>2022-02-20T08:45:32Z</time>
      </trkpt>
      <trkpt lat="42.76652" lon="1.57585">
        <ele>1039.163</ele>
        <time>2022-02-20T08:45:34Z</time>
      </trkpt>
      <trkpt lat="42.76651" lon="1.57586">
        <ele>1040.533</ele>
        <time>2022-02-20T08:45:36Z</time>
      </trkpt>
      <trkpt lat="42.7665" lon="1.57587">
        <ele>1040.61</ele>
        <time>2022-02-20T08:45:38Z</time>
      </trkpt>
      <trkpt lat="42.76649" lon="1.57587">
        <ele>1041.205</ele>
        <time>2022-02-20T08:45:40Z</time>
      </trkpt>
      <trkpt lat="42.76648" lon="1.57586">
        <ele>1041.687</ele>
        <time>2022-02-20T08:45:42Z</time>
      </trkpt>
      <trkpt lat="42.76647" lon="1.57585">
        <ele>1042.329</ele>
        <time>2022-02-20T08:45:44Z</time>
      </trkpt>
      <trkpt lat="42.76646" lon="1.57584">
        <ele>1042.965</ele>
        <time>2022-02-20T08:45:46Z</time>
      </trkpt>
      <trkpt lat="42.76645" lon="1.57584">
        <ele>1043.887</ele>
        <time>2022-02-20T08:45:48Z</time>
      </trkpt>
      <trkpt lat="42.76644" lon="1.57585">
        <ele>1044.118</ele>
        <time>2022-02-20T08:45:50Z</time>
      </trkpt>
      <trkpt lat="42.76643" lon="1.57586">
        <ele>1043.375</ele>
        <time>2022-02-20T08:45:52Z</time>
      </trkpt>
      <trkpt lat="42.76642" lon="1.57587">
        <ele>1045.209</ele>
        <time>2022-02-20T08:45:54Z</time>
      </trkpt>
      <trkpt lat="42.76641" lon="1.57587">
        <ele>1046.248</ele>
        <time>2022-02-20T08:45:56Z</time>
      </trkpt>
      <trkpt lat="42.76641" lon="1.57588">
        <ele>1045.889</ele>
        <time>2022-02-20T08:45:58Z</time>
      </trkpt>
      <trkpt lat="42.7664" lon="1.57589">
        <ele>1046.88</ele>
        <time>2022-02-20T08:46:00Z</time>
      </trkpt>
      <trkpt lat="42.7664" lon="1.5759">
        <ele>1046.356</ele>
        <time>2022-02-20T08:46:02Z</time>
      </trkpt>
      <trkpt lat="42.76639" lon="1.57591">
        <ele>1047.643</ele>
        <time>2022-02-20T08:46:04Z</time>
      </trkpt>
      <trkpt lat="42.76638" lon="1.57592">
        <ele>1048.705</ele>
        <time>2022-02-20T08:46:06Z</time>
      </trkpt>
      <trkpt lat="42.76638" lon="1.57593">
        <ele>1048.825</ele>
        <time>2022-02-20T08:46:08Z</time>
      </trkpt>
      <trkpt lat="42.76638" lon="1.57595">
        <ele>1048.721</ele>
        <time>2022-02-20T08:46:10Z</time>
      </trkpt>
      <trkpt lat="42.76637" lon="1.57596">
        <ele>1048.32</ele>
        <time>2022-02-20T08:46:12Z</time>
      </trkpt>
      <trkpt lat="42.76637" lon="1.57596">
        <ele>1049.838</ele>
        <time>2022-02-20T08:46:14Z</time>
      </trkpt>
      <trkpt lat="42.76636" lon="1.57597">
        <ele>1050.458</ele>
        <time>2022-02-20T08:46:16Z</time>
      </trkpt>
      <trkpt lat="42.76635" lon="1.57597">
        <ele>1050.352</ele>
        <time>2022-02-20T08:46:18Z</time>
      </trkpt>
      <trkpt lat="42.76633" lon="1.57596">
        <ele>1052.316</ele>
        <time>2022-02-20T08:46:20Z</time>
      </trkpt>
      <trkpt lat="42.76632" lon="1.57596">
        <ele>1051.948</ele>
        <time>2022-02-20T08:46:22Z</time>
      </trkpt>
      <trkpt lat="42.76631" lon="1.57597">
        <ele>1052.312</ele>
        <time>2022-02-20T08:46:24Z</time>
      </trkpt>
      <trkpt lat="42.76631" lon="1.57597">
        <ele>1052.017</ele>
        <time>2022-02-20T08:46:26Z</time>
      </trkpt>
      <trkpt lat="42.76632" lon="1.57598">
        <ele>1051.994</ele>
        <time>2022-02-20T08:46:28Z</time>
      </trkpt>
      <trkpt lat="42.76632" lon="1.57598">
        <ele>1052.599</ele>
        <time>2022-02-20T08:46:30Z</time>
      </trkpt>
      <trkpt lat="42.76633" lon="1.57598">
        <ele>1053.363</ele>
        <time>2022-02-20T08:46:32Z</time>
      </trkpt>
      <trkpt lat="42.76633" lon="1.57599">
        <ele>1053.465</ele>
        <time>2022-02-20T08:46:34Z</time>
      </trkpt>
      <trkpt lat="42.76633" lon="1.57599">
        <ele>1053.062</ele>
        <time>2022-02-20T08:46:36Z</time>
      </trkpt>
      <trkpt lat="42.76634" lon="1.576">
        <ele>1053.48</ele>
        <time>2022-02-20T08:46:38Z</time>
      </trkpt>
      <trkpt lat="42.76635" lon="1.57601">
        <ele>1052.892</ele>
        <time>2022-02-20T08:46:40Z</time>
      </trkpt>
      <trkpt lat="42.76636" lon="1.57602">
        <ele>1053.583</ele>
        <time>2022-02-20T08:46:42Z</time>
      </trkpt>
      <trkpt lat="42.76636" lon="1.57604">
        <ele>1054.62</ele>
        <time>2022-02-20T08:46:44Z</time>
      </trkpt>
      <trkpt lat="42.76636" lon="1.57605">
        <ele>1056.581</ele>
        <time>2022-02-20T08:46:46Z</time>
      </trkpt>
      <trkpt lat="42.76636" lon="1.57607">
        <ele>1055.7</ele>
        <time>2022-02-20T08:46:48Z</time>
      </trkpt>
      <trkpt lat="42.76636" lon="1.57609">
        <ele>1055.56</ele>
        <time>2022-02-20T08:46:50Z</time>
      </trkpt>
      <trkpt lat="42.76635" lon="1.57609">
        <ele>1057.08</ele>
        <time>2022-02-20T08:46:52Z</time>
      </trkpt>
      <trkpt lat="42.76635" lon="1.5761">
        <ele>1057.892</ele>
        <time>2022-02-20T08:46:54Z</time>
      </trkpt>
      <trkpt lat="42.76635" lon="1.57611">
        <ele>1057.042</ele>
        <time>2022-02-20T08:46:56Z</time>
      </trkpt>
      <trkpt lat="42.76634" lon="1.57611">
        <ele>1057.375</ele>
        <time>2022-02-20T08:46:58Z</time>
      </trkpt>
      <trkpt lat="42.76634" lon="1.57613">
        <ele>1058.168</ele>
        <time>2022-02-20T08:47:00Z</time>
      </trkpt>
      <trkpt lat="42.76634" lon="1.57614">
        <ele>1058.634</ele>
        <time>2022-02-20T08:47:02Z</time>
      </trkpt>
      <trkpt lat="42.76634" lon="1.57616">
        <ele>1057.771</ele>
        <time>2022-02-20T08:47:04Z</time>
      </trkpt>
      <trkpt lat="42.76635" lon="1.57616">
        <ele>1057.291</ele>
        <time>2022-02-20T08:47:06Z</time>
      </trkpt>
      <trkpt lat="42.76634" lon="1.57617">
        <ele>1059.401</ele>
        <time>2022-02-20T08:47:08Z</time>
      </trkpt>
      <trkpt lat="42.76634" lon="1.57619">
        <ele>1059.506</ele>
        <time>2022-02-20T08:47:10Z</time>
      </trkpt>
      <trkpt lat="42.76634" lon="1.5762">
        <ele>1059.487</ele>
        <time>2022-02-20T08:47:12Z</time>
      </trkpt>
      <trkpt lat="42.76633" lon="1.5762">
        <ele>1060.124</ele>
        <time>2022-02-20T08:47:14Z</time>
      </trkpt>
      <trkpt lat="42.76632" lon="1.5762">
        <ele>1062.239</ele>
        <time>2022-02-20T08:47:16Z</time>
      </trkpt>
      <trkpt lat="42.76632" lon="1.57622">
        <ele>1062.44</ele>
        <time>2022-02-20T08:47:18Z</time>
      </trkpt>
      <trkpt lat="42.76632" lon="1.57623">
        <ele>1062.656</ele>
        <time>2022-02-20T08:47:20Z</time>
      </trkpt>
      <trkpt lat="42.76632" lon="1.57624">
        <ele>1062.909</ele>
        <time>2022-02-20T08:47:22Z</time>
      </trkpt>
      <trkpt lat="42.76633" lon="1.57625">
        <ele>1062.79</ele>
        <time>2022-02-20T08:47:24Z</time>
      </trkpt>
      <trkpt lat="42.76633" lon="1.57626">
        <ele>1064.709</ele>
        <time>2022-02-20T08:47:26Z</time>
      </trkpt>
      <trkpt lat="42.76633" lon="1.57627">
        <ele>1064.789</ele>
        <time>2022-02-20T08:47:28Z</time>
      </trkpt>
      <trkpt lat="42.76633" lon="1.57628">
        <ele>1066.327</ele>
        <time>2022-02-20T08:47:30Z</time>
      </trkpt>
      <trkpt lat="42.76635" lon="1.57629">
        <ele>1066.593</ele>
        <time>2022-02-20T08:47:32Z</time>
      </trkpt>
      <trkpt lat="42.76635" lon="1.5763">
        <ele>1066.237</ele>
        <time>2022-02-20T08:47:34Z</time>
      </trkpt>
      <trkpt lat="42.76635" lon="1.57632">
        <ele>1065.689</ele>
        <time>2022-02-20T08:47:36Z</time>
      </trkpt>
      <trkpt lat="42.76635" lon="1.57633">
        <ele>1065.636</ele>
        <time>2022-02-20T08:47:38Z</time>
      </trkpt>
      <trkpt lat="42.76634" lon="1.57635">
        <ele>1065.809</ele>
        <time>2022-02-20T08:47:40Z</time>
      </trkpt>
      <trkpt lat="42.76633" lon="1.57636">
        <ele>1066.655</ele>
        <time>2022-02-20T08:47:42Z</time>
      </trkpt>
      <trkpt lat="42.76632" lon="1.57637">
        <ele>1067.957</ele>
        <time>2022-02-20T08:47:44Z</time>
      </trkpt>
      <trkpt lat="42.76631" lon="1.57638">
        <ele>1068.856</ele>
        <time>2022-02-20T08:47:46Z</time>
      </trkpt>
      <trkpt lat="42.7663" lon="1.57639">
        <ele>1069.418</ele>
        <time>2022-02-20T08:47:48Z</time>
      </trkpt>
      <trkpt lat="42.76629" lon="1.5764">
        <ele>1069.456</ele>
        <time>2022-02-20T08:47:50Z</time>
      </trkpt>
      <trkpt lat="42.76629" lon="1.57641">
        <ele>1069.337</ele>
        <time>2022-02-20T08:47:52Z</time>
      </trkpt>
      <trkpt lat="42.76628" lon="1.57642">
        <ele>1069.382</ele>
        <time>2022-02-20T08:47:54Z</time>
      </trkpt>
      <trkpt lat="42.76627" lon="1.57643">
        <ele>1068.772</ele>
        <time>2022-02-20T08:47:56Z</time>
      </trkpt>
      <trkpt lat="42.76627" lon="1.57645">
        <ele>1068.46</ele>
        <time>2022-02-20T08:47:58Z</time>
      </trkpt>
      <trkpt lat="42.76627" lon="1.57647">
        <ele>1066.953</ele>
        <time>2022-02-20T08:48:00Z</time>
      </trkpt>
      <trkpt lat="42.76627" lon="1.57648">
        <ele>1066.306</ele>
        <time>2022-02-20T08:48:02Z</time>
      </trkpt>
      <trkpt lat="42.76627" lon="1.57649">
        <ele>1066.678</ele>
        <time>2022-02-20T08:48:04Z</time>
      </trkpt>
      <trkpt lat="42.76626" lon="1.57652">
        <ele>1067.771</ele>
        <time>2022-02-20T08:48:07Z</time>
      </trkpt>
      <trkpt lat="42.76626" lon="1.57653">
        <ele>1069.923</ele>
        <time>2022-02-20T08:48:09Z</time>
      </trkpt>
      <trkpt lat="42.76626" lon="1.57655">
        <ele>1070.932</ele>
        <time>2022-02-20T08:48:11Z</time>
      </trkpt>
      <trkpt lat="42.76626" lon="1.57656">
        <ele>1070.31</ele>
        <time>2022-02-20T08:48:13Z</time>
      </trkpt>
      <trkpt lat="42.76627" lon="1.57658">
        <ele>1070.593</ele>
        <time>2022-02-20T08:48:15Z</time>
      </trkpt>
      <trkpt lat="42.76627" lon="1.57658">
        <ele>1070.57</ele>
        <time>2022-02-20T08:48:17Z</time>
      </trkpt>
      <trkpt lat="42.76627" lon="1.5766">
        <ele>1071.078</ele>
        <time>2022-02-20T08:48:19Z</time>
      </trkpt>
      <trkpt lat="42.76626" lon="1.57661">
        <ele>1070.622</ele>
        <time>2022-02-20T08:48:21Z</time>
      </trkpt>
      <trkpt lat="42.76626" lon="1.57662">
        <ele>1070.161</ele>
        <time>2022-02-20T08:48:23Z</time>
      </trkpt>
      <trkpt lat="42.76626" lon="1.57664">
        <ele>1071.387</ele>
        <time>2022-02-20T08:48:25Z</time>
      </trkpt>
      <trkpt lat="42.76626" lon="1.57665">
        <ele>1071.903</ele>
        <time>2022-02-20T08:48:27Z</time>
      </trkpt>
      <trkpt lat="42.76626" lon="1.57667">
        <ele>1072.361</ele>
        <time>2022-02-20T08:48:29Z</time>
      </trkpt>
      <trkpt lat="42.76626" lon="1.57669">
        <ele>1070.962</ele>
        <time>2022-02-20T08:48:31Z</time>
      </trkpt>
      <trkpt lat="42.76626" lon="1.57671">
        <ele>1071.982</ele>
        <time>2022-02-20T08:48:33Z</time>
      </trkpt>
      <trkpt lat="42.76627" lon="1.57672">
        <ele>1071.488</ele>
        <time>2022-02-20T08:48:35Z</time>
      </trkpt>
      <trkpt lat="42.76626" lon="1.57674">
        <ele>1071.49</ele>
        <time>2022-02-20T08:48:37Z</time>
      </trkpt>
      <trkpt lat="42.76626" lon="1.57675">
        <ele>1071.947</ele>
        <time>2022-02-20T08:48:39Z</time>
      </trkpt>
      <trkpt lat="42.76626" lon="1.57676">
        <ele>1072.855</ele>
        <time>2022-02-20T08:48:41Z</time>
      </trkpt>
      <trkpt lat="42.76626" lon="1.57678">
        <ele>1073.202</ele>
        <time>2022-02-20T08:48:43Z</time>
      </trkpt>
      <trkpt lat="42.76626" lon="1.57679">
        <ele>1072.601</ele>
        <time>2022-02-20T08:48:45Z</time>
      </trkpt>
      <trkpt lat="42.76626" lon="1.5768">
        <ele>1071.654</ele>
        <time>2022-02-20T08:48:47Z</time>
      </trkpt>
      <trkpt lat="42.76625" lon="1.57682">
        <ele>1072.528</ele>
        <time>2022-02-20T08:48:49Z</time>
      </trkpt>
      <trkpt lat="42.76624" lon="1.57683">
        <ele>1073.091</ele>
        <time>2022-02-20T08:48:51Z</time>
      </trkpt>
      <trkpt lat="42.76623" lon="1.57684">
        <ele>1073.316</ele>
        <time>2022-02-20T08:48:53Z</time>
      </trkpt>
      <trkpt lat="42.76623" lon="1.57686">
        <ele>1074.156</ele>
        <time>2022-02-20T08:48:55Z</time>
      </trkpt>
      <trkpt lat="42.76622" lon="1.57688">
        <ele>1075.658</ele>
        <time>2022-02-20T08:48:57Z</time>
      </trkpt>
      <trkpt lat="42.76623" lon="1.5769">
        <ele>1077.009</ele>
        <time>2022-02-20T08:48:59Z</time>
      </trkpt>
      <trkpt lat="42.76622" lon="1.57692">
        <ele>1077.751</ele>
        <time>2022-02-20T08:49:01Z</time>
      </trkpt>
      <trkpt lat="42.76622" lon="1.57693">
        <ele>1078.092</ele>
        <time>2022-02-20T08:49:03Z</time>
      </trkpt>
      <trkpt lat="42.76621" lon="1.57695">
        <ele>1078.793</ele>
        <time>2022-02-20T08:49:05Z</time>
      </trkpt>
      <trkpt lat="42.76621" lon="1.57696">
        <ele>1079.185</ele>
        <time>2022-02-20T08:49:07Z</time>
      </trkpt>
      <trkpt lat="42.76621" lon="1.57697">
        <ele>1079.939</ele>
        <time>2022-02-20T08:49:09Z</time>
      </trkpt>
      <trkpt lat="42.7662" lon="1.57699">
        <ele>1080.426</ele>
        <time>2022-02-20T08:49:12Z</time>
      </trkpt>
      <trkpt lat="42.76619" lon="1.577">
        <ele>1080.255</ele>
        <time>2022-02-20T08:49:14Z</time>
      </trkpt>
      <trkpt lat="42.76619" lon="1.57702">
        <ele>1080.8</ele>
        <time>2022-02-20T08:49:16Z</time>
      </trkpt>
      <trkpt lat="42.76619" lon="1.57702">
        <ele>1081.169</ele>
        <time>2022-02-20T08:49:18Z</time>
      </trkpt>
      <trkpt lat="42.76618" lon="1.57702">
        <ele>1082.107</ele>
        <time>2022-02-20T08:49:20Z</time>
      </trkpt>
      <trkpt lat="42.76616" lon="1.57702">
        <ele>1083.31</ele>
        <time>2022-02-20T08:49:22Z</time>
      </trkpt>
      <trkpt lat="42.76615" lon="1.57701">
        <ele>1084.386</ele>
        <time>2022-02-20T08:49:24Z</time>
      </trkpt>
      <trkpt lat="42.76614" lon="1.57701">
        <ele>1085.331</ele>
        <time>2022-02-20T08:49:26Z</time>
      </trkpt>
      <trkpt lat="42.76612" lon="1.57701">
        <ele>1086.69</ele>
        <time>2022-02-20T08:49:28Z</time>
      </trkpt>
      <trkpt lat="42.76612" lon="1.57703">
        <ele>1086.51</ele>
        <time>2022-02-20T08:49:30Z</time>
      </trkpt>
      <trkpt lat="42.76612" lon="1.57704">
        <ele>1086.493</ele>
        <time>2022-02-20T08:49:32Z</time>
      </trkpt>
      <trkpt lat="42.76611" lon="1.57706">
        <ele>1086.117</ele>
        <time>2022-02-20T08:49:34Z</time>
      </trkpt>
      <trkpt lat="42.76611" lon="1.57708">
        <ele>1085.094</ele>
        <time>2022-02-20T08:49:36Z</time>
      </trkpt>
      <trkpt lat="42.7661" lon="1.57709">
        <ele>1084.845</ele>
        <time>2022-02-20T08:49:38Z</time>
      </trkpt>
      <trkpt lat="42.76609" lon="1.5771">
        <ele>1085.618</ele>
        <time>2022-02-20T08:49:40Z</time>
      </trkpt>
      <trkpt lat="42.76609" lon="1.57712">
        <ele>1085.889</ele>
        <time>2022-02-20T08:49:42Z</time>
      </trkpt>
      <trkpt lat="42.76608" lon="1.57713">
        <ele>1084.695</ele>
        <time>2022-02-20T08:49:44Z</time>
      </trkpt>
      <trkpt lat="42.76609" lon="1.57714">
        <ele>1083.123</ele>
        <time>2022-02-20T08:49:46Z</time>
      </trkpt>
      <trkpt lat="42.76607" lon="1.57715">
        <ele>1083.037</ele>
        <time>2022-02-20T08:49:48Z</time>
      </trkpt>
      <trkpt lat="42.76606" lon="1.57716">
        <ele>1084.3</ele>
        <time>2022-02-20T08:49:50Z</time>
      </trkpt>
      <trkpt lat="42.76605" lon="1.57717">
        <ele>1083.828</ele>
        <time>2022-02-20T08:49:52Z</time>
      </trkpt>
      <trkpt lat="42.76604" lon="1.57718">
        <ele>1083.024</ele>
        <time>2022-02-20T08:49:54Z</time>
      </trkpt>
      <trkpt lat="42.76603" lon="1.57719">
        <ele>1083.316</ele>
        <time>2022-02-20T08:49:56Z</time>
      </trkpt>
      <trkpt lat="42.76601" lon="1.57719">
        <ele>1084.113</ele>
        <time>2022-02-20T08:49:58Z</time>
      </trkpt>
      <trkpt lat="42.76599" lon="1.57719">
        <ele>1085.485</ele>
        <time>2022-02-20T08:50:00Z</time>
      </trkpt>
      <trkpt lat="42.76598" lon="1.5772">
        <ele>1084.63</ele>
        <time>2022-02-20T08:50:02Z</time>
      </trkpt>
      <trkpt lat="42.76597" lon="1.57722">
        <ele>1083.578</ele>
        <time>2022-02-20T08:50:04Z</time>
      </trkpt>
      <trkpt lat="42.76596" lon="1.57724">
        <ele>1083.268</ele>
        <time>2022-02-20T08:50:06Z</time>
      </trkpt>
      <trkpt lat="42.76595" lon="1.57725">
        <ele>1083.278</ele>
        <time>2022-02-20T08:50:08Z</time>
      </trkpt>
      <trkpt lat="42.76594" lon="1.57726">
        <ele>1082.759</ele>
        <time>2022-02-20T08:50:10Z</time>
      </trkpt>
      <trkpt lat="42.76593" lon="1.57727">
        <ele>1081.982</ele>
        <time>2022-02-20T08:50:12Z</time>
      </trkpt>
      <trkpt lat="42.76592" lon="1.57728">
        <ele>1082.44</ele>
        <time>2022-02-20T08:50:14Z</time>
      </trkpt>
      <trkpt lat="42.76591" lon="1.57729">
        <ele>1082.399</ele>
        <time>2022-02-20T08:50:16Z</time>
      </trkpt>
      <trkpt lat="42.7659" lon="1.5773">
        <ele>1081.291</ele>
        <time>2022-02-20T08:50:18Z</time>
      </trkpt>
      <trkpt lat="42.76589" lon="1.57731">
        <ele>1081.124</ele>
        <time>2022-02-20T08:50:20Z</time>
      </trkpt>
      <trkpt lat="42.76588" lon="1.57732">
        <ele>1081.237</ele>
        <time>2022-02-20T08:50:22Z</time>
      </trkpt>
      <trkpt lat="42.76587" lon="1.57733">
        <ele>1080.382</ele>
        <time>2022-02-20T08:50:24Z</time>
      </trkpt>
      <trkpt lat="42.76585" lon="1.57732">
        <ele>1080.85</ele>
        <time>2022-02-20T08:50:26Z</time>
      </trkpt>
      <trkpt lat="42.76584" lon="1.57732">
        <ele>1080.782</ele>
        <time>2022-02-20T08:50:28Z</time>
      </trkpt>
      <trkpt lat="42.76583" lon="1.57731">
        <ele>1080.901</ele>
        <time>2022-02-20T08:50:30Z</time>
      </trkpt>
      <trkpt lat="42.76581" lon="1.57731">
        <ele>1081.399</ele>
        <time>2022-02-20T08:50:32Z</time>
      </trkpt>
      <trkpt lat="42.7658" lon="1.5773">
        <ele>1081.916</ele>
        <time>2022-02-20T08:50:34Z</time>
      </trkpt>
      <trkpt lat="42.76579" lon="1.5773">
        <ele>1082.031</ele>
        <time>2022-02-20T08:50:36Z</time>
      </trkpt>
      <trkpt lat="42.76578" lon="1.5773">
        <ele>1081.735</ele>
        <time>2022-02-20T08:50:38Z</time>
      </trkpt>
      <trkpt lat="42.76577" lon="1.5773">
        <ele>1082.654</ele>
        <time>2022-02-20T08:50:40Z</time>
      </trkpt>
      <trkpt lat="42.76575" lon="1.5773">
        <ele>1082.458</ele>
        <time>2022-02-20T08:50:42Z</time>
      </trkpt>
      <trkpt lat="42.76574" lon="1.57731">
        <ele>1083.589</ele>
        <time>2022-02-20T08:50:44Z</time>
      </trkpt>
      <trkpt lat="42.76573" lon="1.57732">
        <ele>1085.352</ele>
        <time>2022-02-20T08:50:46Z</time>
      </trkpt>
      <trkpt lat="42.76571" lon="1.57733">
        <ele>1086.054</ele>
        <time>2022-02-20T08:50:48Z</time>
      </trkpt>
      <trkpt lat="42.76569" lon="1.57733">
        <ele>1086.182</ele>
        <time>2022-02-20T08:50:50Z</time>
      </trkpt>
      <trkpt lat="42.76568" lon="1.57734">
        <ele>1087.219</ele>
        <time>2022-02-20T08:50:52Z</time>
      </trkpt>
      <trkpt lat="42.76566" lon="1.57733">
        <ele>1089.026</ele>
        <time>2022-02-20T08:50:54Z</time>
      </trkpt>
      <trkpt lat="42.76565" lon="1.57734">
        <ele>1090.306</ele>
        <time>2022-02-20T08:50:56Z</time>
      </trkpt>
      <trkpt lat="42.76564" lon="1.57735">
        <ele>1089.931</ele>
        <time>2022-02-20T08:50:58Z</time>
      </trkpt>
      <trkpt lat="42.76562" lon="1.57735">
        <ele>1090.022</ele>
        <time>2022-02-20T08:51:00Z</time>
      </trkpt>
      <trkpt lat="42.76561" lon="1.57735">
        <ele>1090.025</ele>
        <time>2022-02-20T08:51:02Z</time>
      </trkpt>
      <trkpt lat="42.7656" lon="1.57736">
        <ele>1090.321</ele>
        <time>2022-02-20T08:51:04Z</time>
      </trkpt>
      <trkpt lat="42.76559" lon="1.57736">
        <ele>1089.893</ele>
        <time>2022-02-20T08:51:06Z</time>
      </trkpt>
      <trkpt lat="42.76557" lon="1.57737">
        <ele>1090.43</ele>
        <time>2022-02-20T08:51:08Z</time>
      </trkpt>
      <trkpt lat="42.76556" lon="1.57738">
        <ele>1091.275</ele>
        <time>2022-02-20T08:51:10Z</time>
      </trkpt>
      <trkpt lat="42.76555" lon="1.57739">
        <ele>1091.507</ele>
        <time>2022-02-20T08:51:12Z</time>
      </trkpt>
      <trkpt lat="42.76554" lon="1.5774">
        <ele>1090.636</ele>
        <time>2022-02-20T08:51:14Z</time>
      </trkpt>
      <trkpt lat="42.76553" lon="1.5774">
        <ele>1090.803</ele>
        <time>2022-02-20T08:51:16Z</time>
      </trkpt>
      <trkpt lat="42.76552" lon="1.5774">
        <ele>1090.366</ele>
        <time>2022-02-20T08:51:18Z</time>
      </trkpt>
      <trkpt lat="42.7655" lon="1.57739">
        <ele>1091.563</ele>
        <time>2022-02-20T08:51:20Z</time>
      </trkpt>
      <trkpt lat="42.76549" lon="1.57739">
        <ele>1092.315</ele>
        <time>2022-02-20T08:51:22Z</time>
      </trkpt>
      <trkpt lat="42.76547" lon="1.57739">
        <ele>1092.487</ele>
        <time>2022-02-20T08:51:24Z</time>
      </trkpt>
      <trkpt lat="42.76547" lon="1.57739">
        <ele>1091.157</ele>
        <time>2022-02-20T08:51:26Z</time>
      </trkpt>
      <trkpt lat="42.76545" lon="1.57741">
        <ele>1092.18</ele>
        <time>2022-02-20T08:51:28Z</time>
      </trkpt>
      <trkpt lat="42.76544" lon="1.57743">
        <ele>1092.68</ele>
        <time>2022-02-20T08:51:30Z</time>
      </trkpt>
      <trkpt lat="42.76543" lon="1.57744">
        <ele>1093.581</ele>
        <time>2022-02-20T08:51:32Z</time>
      </trkpt>
      <trkpt lat="42.76543" lon="1.57745">
        <ele>1093.596</ele>
        <time>2022-02-20T08:51:34Z</time>
      </trkpt>
      <trkpt lat="42.76542" lon="1.57746">
        <ele>1093.031</ele>
        <time>2022-02-20T08:51:36Z</time>
      </trkpt>
      <trkpt lat="42.76542" lon="1.57747">
        <ele>1091.852</ele>
        <time>2022-02-20T08:51:38Z</time>
      </trkpt>
      <trkpt lat="42.76542" lon="1.57747">
        <ele>1091.027</ele>
        <time>2022-02-20T08:51:40Z</time>
      </trkpt>
      <trkpt lat="42.76541" lon="1.57748">
        <ele>1090.453</ele>
        <time>2022-02-20T08:51:42Z</time>
      </trkpt>
      <trkpt lat="42.7654" lon="1.57748">
        <ele>1089.32</ele>
        <time>2022-02-20T08:51:44Z</time>
      </trkpt>
      <trkpt lat="42.7654" lon="1.5775">
        <ele>1090.627</ele>
        <time>2022-02-20T08:51:46Z</time>
      </trkpt>
      <trkpt lat="42.7654" lon="1.57752">
        <ele>1091.333</ele>
        <time>2022-02-20T08:51:48Z</time>
      </trkpt>
      <trkpt lat="42.76539" lon="1.57753">
        <ele>1091.998</ele>
        <time>2022-02-20T08:51:50Z</time>
      </trkpt>
      <trkpt lat="42.76539" lon="1.57755">
        <ele>1092.601</ele>
        <time>2022-02-20T08:51:52Z</time>
      </trkpt>
      <trkpt lat="42.76539" lon="1.57757">
        <ele>1093.641</ele>
        <time>2022-02-20T08:51:54Z</time>
      </trkpt>
      <trkpt lat="42.76539" lon="1.57758">
        <ele>1094.333</ele>
        <time>2022-02-20T08:51:56Z</time>
      </trkpt>
      <trkpt lat="42.76538" lon="1.5776">
        <ele>1094.035</ele>
        <time>2022-02-20T08:51:58Z</time>
      </trkpt>
      <trkpt lat="42.76539" lon="1.57761">
        <ele>1092.291</ele>
        <time>2022-02-20T08:52:00Z</time>
      </trkpt>
      <trkpt lat="42.76539" lon="1.57762">
        <ele>1091.308</ele>
        <time>2022-02-20T08:52:02Z</time>
      </trkpt>
      <trkpt lat="42.76538" lon="1.57765">
        <ele>1092.048</ele>
        <time>2022-02-20T08:52:04Z</time>
      </trkpt>
      <trkpt lat="42.76538" lon="1.57767">
        <ele>1093.36</ele>
        <time>2022-02-20T08:52:06Z</time>
      </trkpt>
      <trkpt lat="42.76538" lon="1.57768">
        <ele>1093.564</ele>
        <time>2022-02-20T08:52:08Z</time>
      </trkpt>
      <trkpt lat="42.76537" lon="1.57769">
        <ele>1093.46</ele>
        <time>2022-02-20T08:52:10Z</time>
      </trkpt>
      <trkpt lat="42.76537" lon="1.5777">
        <ele>1092.401</ele>
        <time>2022-02-20T08:52:12Z</time>
      </trkpt>
      <trkpt lat="42.76536" lon="1.57771">
        <ele>1093.355</ele>
        <time>2022-02-20T08:52:14Z</time>
      </trkpt>
      <trkpt lat="42.76536" lon="1.57773">
        <ele>1092.697</ele>
        <time>2022-02-20T08:52:16Z</time>
      </trkpt>
      <trkpt lat="42.76537" lon="1.57773">
        <ele>1095.621</ele>
        <time>2022-02-20T08:52:18Z</time>
      </trkpt>
      <trkpt lat="42.76537" lon="1.57773">
        <ele>1096.426</ele>
        <time>2022-02-20T08:52:20Z</time>
      </trkpt>
      <trkpt lat="42.76537" lon="1.57773">
        <ele>1096.464</ele>
        <time>2022-02-20T08:52:22Z</time>
      </trkpt>
      <trkpt lat="42.76537" lon="1.57773">
        <ele>1096.483</ele>
        <time>2022-02-20T08:52:24Z</time>
      </trkpt>
      <trkpt lat="42.76537" lon="1.57773">
        <ele>1096.498</ele>
        <time>2022-02-20T08:52:26Z</time>
      </trkpt>
      <trkpt lat="42.76537" lon="1.57773">
        <ele>1096.525</ele>
        <time>2022-02-20T08:52:28Z</time>
      </trkpt>
      <trkpt lat="42.76537" lon="1.57773">
        <ele>1096.543</ele>
        <time>2022-02-20T08:52:30Z</time>
      </trkpt>
      <trkpt lat="42.76537" lon="1.57773">
        <ele>1096.773</ele>
        <time>2022-02-20T08:52:32Z</time>
      </trkpt>
      <trkpt lat="42.76537" lon="1.57773">
        <ele>1098.213</ele>
        <time>2022-02-20T08:52:34Z</time>
      </trkpt>
      <trkpt lat="42.76537" lon="1.57773">
        <ele>1098.212</ele>
        <time>2022-02-20T08:52:36Z</time>
      </trkpt>
      <trkpt lat="42.76537" lon="1.57773">
        <ele>1098.223</ele>
        <time>2022-02-20T08:52:38Z</time>
      </trkpt>
      <trkpt lat="42.76536" lon="1.57773">
        <ele>1098.811</ele>
        <time>2022-02-20T08:52:40Z</time>
      </trkpt>
      <trkpt lat="42.76536" lon="1.57774">
        <ele>1099.771</ele>
        <time>2022-02-20T08:52:42Z</time>
      </trkpt>
      <trkpt lat="42.76536" lon="1.57775">
        <ele>1100.045</ele>
        <time>2022-02-20T08:52:44Z</time>
      </trkpt>
      <trkpt lat="42.76535" lon="1.57777">
        <ele>1101.407</ele>
        <time>2022-02-20T08:52:46Z</time>
      </trkpt>
      <trkpt lat="42.76535" lon="1.57779">
        <ele>1101.793</ele>
        <time>2022-02-20T08:52:48Z</time>
      </trkpt>
      <trkpt lat="42.76535" lon="1.57779">
        <ele>1101.597</ele>
        <time>2022-02-20T08:52:50Z</time>
      </trkpt>
      <trkpt lat="42.76535" lon="1.5778">
        <ele>1102.459</ele>
        <time>2022-02-20T08:52:52Z</time>
      </trkpt>
      <trkpt lat="42.76535" lon="1.57781">
        <ele>1103.299</ele>
        <time>2022-02-20T08:52:54Z</time>
      </trkpt>
      <trkpt lat="42.76536" lon="1.57782">
        <ele>1103.522</ele>
        <time>2022-02-20T08:52:56Z</time>
      </trkpt>
      <trkpt lat="42.76536" lon="1.57784">
        <ele>1103.999</ele>
        <time>2022-02-20T08:52:58Z</time>
      </trkpt>
      <trkpt lat="42.76536" lon="1.57785">
        <ele>1104.209</ele>
        <time>2022-02-20T08:53:00Z</time>
      </trkpt>
      <trkpt lat="42.76537" lon="1.57786">
        <ele>1104.048</ele>
        <time>2022-02-20T08:53:02Z</time>
      </trkpt>
      <trkpt lat="42.76538" lon="1.57787">
        <ele>1105.574</ele>
        <time>2022-02-20T08:53:04Z</time>
      </trkpt>
      <trkpt lat="42.76539" lon="1.57787">
        <ele>1106.098</ele>
        <time>2022-02-20T08:53:06Z</time>
      </trkpt>
      <trkpt lat="42.7654" lon="1.57788">
        <ele>1105.845</ele>
        <time>2022-02-20T08:53:08Z</time>
      </trkpt>
      <trkpt lat="42.7654" lon="1.57789">
        <ele>1106.814</ele>
        <time>2022-02-20T08:53:10Z</time>
      </trkpt>
      <trkpt lat="42.76542" lon="1.57788">
        <ele>1109.612</ele>
        <time>2022-02-20T08:53:12Z</time>
      </trkpt>
      <trkpt lat="42.76542" lon="1.57789">
        <ele>1110.898</ele>
        <time>2022-02-20T08:53:14Z</time>
      </trkpt>
      <trkpt lat="42.76542" lon="1.5779">
        <ele>1112.92</ele>
        <time>2022-02-20T08:53:16Z</time>
      </trkpt>
      <trkpt lat="42.76543" lon="1.5779">
        <ele>1112.23</ele>
        <time>2022-02-20T08:53:18Z</time>
      </trkpt>
      <trkpt lat="42.76543" lon="1.57791">
        <ele>1111.217</ele>
        <time>2022-02-20T08:53:20Z</time>
      </trkpt>
      <trkpt lat="42.76544" lon="1.57792">
        <ele>1110.79</ele>
        <time>2022-02-20T08:53:22Z</time>
      </trkpt>
      <trkpt lat="42.76544" lon="1.57793">
        <ele>1112.062</ele>
        <time>2022-02-20T08:53:24Z</time>
      </trkpt>
      <trkpt lat="42.76544" lon="1.57794">
        <ele>1112.771</ele>
        <time>2022-02-20T08:53:26Z</time>
      </trkpt>
      <trkpt lat="42.76544" lon="1.57795">
        <ele>1113.221</ele>
        <time>2022-02-20T08:53:28Z</time>
      </trkpt>
      <trkpt lat="42.76545" lon="1.57796">
        <ele>1114.581</ele>
        <time>2022-02-20T08:53:30Z</time>
      </trkpt>
      <trkpt lat="42.76546" lon="1.57797">
        <ele>1115.944</ele>
        <time>2022-02-20T08:53:32Z</time>
      </trkpt>
      <trkpt lat="42.76547" lon="1.57797">
        <ele>1116.251</ele>
        <time>2022-02-20T08:53:34Z</time>
      </trkpt>
      <trkpt lat="42.76548" lon="1.57797">
        <ele>1115.257</ele>
        <time>2022-02-20T08:53:36Z</time>
      </trkpt>
      <trkpt lat="42.76548" lon="1.57797">
        <ele>1116.487</ele>
        <time>2022-02-20T08:53:38Z</time>
      </trkpt>
      <trkpt lat="42.76547" lon="1.57798">
        <ele>1117.301</ele>
        <time>2022-02-20T08:53:40Z</time>
      </trkpt>
      <trkpt lat="42.76547" lon="1.578">
        <ele>1116.117</ele>
        <time>2022-02-20T08:53:42Z</time>
      </trkpt>
      <trkpt lat="42.76546" lon="1.57801">
        <ele>1116.847</ele>
        <time>2022-02-20T08:53:44Z</time>
      </trkpt>
      <trkpt lat="42.76546" lon="1.57802">
        <ele>1115.622</ele>
        <time>2022-02-20T08:53:46Z</time>
      </trkpt>
      <trkpt lat="42.76545" lon="1.57803">
        <ele>1115.393</ele>
        <time>2022-02-20T08:53:48Z</time>
      </trkpt>
      <trkpt lat="42.76543" lon="1.57804">
        <ele>1115.214</ele>
        <time>2022-02-20T08:53:50Z</time>
      </trkpt>
      <trkpt lat="42.76542" lon="1.57805">
        <ele>1115.718</ele>
        <time>2022-02-20T08:53:52Z</time>
      </trkpt>
      <trkpt lat="42.76542" lon="1.57807">
        <ele>1115.498</ele>
        <time>2022-02-20T08:53:54Z</time>
      </trkpt>
      <trkpt lat="42.76541" lon="1.57808">
        <ele>1116.393</ele>
        <time>2022-02-20T08:53:56Z</time>
      </trkpt>
      <trkpt lat="42.7654" lon="1.5781">
        <ele>1117.61</ele>
        <time>2022-02-20T08:53:58Z</time>
      </trkpt>
      <trkpt lat="42.76539" lon="1.57812">
        <ele>1116.931</ele>
        <time>2022-02-20T08:54:00Z</time>
      </trkpt>
      <trkpt lat="42.7654" lon="1.57813">
        <ele>1114.903</ele>
        <time>2022-02-20T08:54:02Z</time>
      </trkpt>
      <trkpt lat="42.76539" lon="1.57815">
        <ele>1114.479</ele>
        <time>2022-02-20T08:54:04Z</time>
      </trkpt>
      <trkpt lat="42.76538" lon="1.57816">
        <ele>1114.89</ele>
        <time>2022-02-20T08:54:06Z</time>
      </trkpt>
      <trkpt lat="42.76538" lon="1.57817">
        <ele>1115.158</ele>
        <time>2022-02-20T08:54:08Z</time>
      </trkpt>
      <trkpt lat="42.76538" lon="1.57819">
        <ele>1116.268</ele>
        <time>2022-02-20T08:54:10Z</time>
      </trkpt>
      <trkpt lat="42.76538" lon="1.57819">
        <ele>1117.856</ele>
        <time>2022-02-20T08:54:12Z</time>
      </trkpt>
      <trkpt lat="42.76538" lon="1.57819">
        <ele>1118.681</ele>
        <time>2022-02-20T08:54:14Z</time>
      </trkpt>
      <trkpt lat="42.76539" lon="1.57819">
        <ele>1119.401</ele>
        <time>2022-02-20T08:54:16Z</time>
      </trkpt>
      <trkpt lat="42.7654" lon="1.57821">
        <ele>1120.322</ele>
        <time>2022-02-20T08:54:18Z</time>
      </trkpt>
      <trkpt lat="42.76541" lon="1.57821">
        <ele>1120.802</ele>
        <time>2022-02-20T08:54:20Z</time>
      </trkpt>
      <trkpt lat="42.76542" lon="1.57822">
        <ele>1121.642</ele>
        <time>2022-02-20T08:54:22Z</time>
      </trkpt>
      <trkpt lat="42.76542" lon="1.57822">
        <ele>1122.088</ele>
        <time>2022-02-20T08:54:24Z</time>
      </trkpt>
      <trkpt lat="42.76543" lon="1.57823">
        <ele>1123.365</ele>
        <time>2022-02-20T08:54:26Z</time>
      </trkpt>
      <trkpt lat="42.76544" lon="1.57825">
        <ele>1123.455</ele>
        <time>2022-02-20T08:54:28Z</time>
      </trkpt>
      <trkpt lat="42.76544" lon="1.57827">
        <ele>1123.053</ele>
        <time>2022-02-20T08:54:30Z</time>
      </trkpt>
      <trkpt lat="42.76544" lon="1.57828">
        <ele>1122.765</ele>
        <time>2022-02-20T08:54:32Z</time>
      </trkpt>
      <trkpt lat="42.76544" lon="1.57829">
        <ele>1122.839</ele>
        <time>2022-02-20T08:54:34Z</time>
      </trkpt>
      <trkpt lat="42.76544" lon="1.5783">
        <ele>1122.858</ele>
        <time>2022-02-20T08:54:36Z</time>
      </trkpt>
      <trkpt lat="42.76544" lon="1.57832">
        <ele>1122.29</ele>
        <time>2022-02-20T08:54:38Z</time>
      </trkpt>
      <trkpt lat="42.76544" lon="1.57834">
        <ele>1123.368</ele>
        <time>2022-02-20T08:54:40Z</time>
      </trkpt>
      <trkpt lat="42.76545" lon="1.57836">
        <ele>1123.768</ele>
        <time>2022-02-20T08:54:42Z</time>
      </trkpt>
      <trkpt lat="42.76546" lon="1.57837">
        <ele>1123.346</ele>
        <time>2022-02-20T08:54:44Z</time>
      </trkpt>
      <trkpt lat="42.76546" lon="1.57838">
        <ele>1123.155</ele>
        <time>2022-02-20T08:54:46Z</time>
      </trkpt>
      <trkpt lat="42.76547" lon="1.5784">
        <ele>1123.119</ele>
        <time>2022-02-20T08:54:48Z</time>
      </trkpt>
      <trkpt lat="42.76547" lon="1.57841">
        <ele>1122.301</ele>
        <time>2022-02-20T08:54:50Z</time>
      </trkpt>
      <trkpt lat="42.76547" lon="1.57842">
        <ele>1122.321</ele>
        <time>2022-02-20T08:54:52Z</time>
      </trkpt>
      <trkpt lat="42.76547" lon="1.57842">
        <ele>1122.138</ele>
        <time>2022-02-20T08:54:54Z</time>
      </trkpt>
      <trkpt lat="42.76547" lon="1.57843">
        <ele>1122.765</ele>
        <time>2022-02-20T08:54:56Z</time>
      </trkpt>
      <trkpt lat="42.76548" lon="1.57845">
        <ele>1122.826</ele>
        <time>2022-02-20T08:54:58Z</time>
      </trkpt>
      <trkpt lat="42.76549" lon="1.57846">
        <ele>1122.644</ele>
        <time>2022-02-20T08:55:00Z</time>
      </trkpt>
      <trkpt lat="42.76549" lon="1.57848">
        <ele>1122.274</ele>
        <time>2022-02-20T08:55:02Z</time>
      </trkpt>
      <trkpt lat="42.76549" lon="1.57849">
        <ele>1122.888</ele>
        <time>2022-02-20T08:55:03Z</time>
      </trkpt>
      <trkpt lat="42.7655" lon="1.5785">
        <ele>1122.551</ele>
        <time>2022-02-20T08:55:06Z</time>
      </trkpt>
      <trkpt lat="42.7655" lon="1.5785">
        <ele>1123.169</ele>
        <time>2022-02-20T08:55:08Z</time>
      </trkpt>
      <trkpt lat="42.7655" lon="1.57852">
        <ele>1123.663</ele>
        <time>2022-02-20T08:55:10Z</time>
      </trkpt>
      <trkpt lat="42.7655" lon="1.57854">
        <ele>1124.417</ele>
        <time>2022-02-20T08:55:12Z</time>
      </trkpt>
      <trkpt lat="42.76551" lon="1.57854">
        <ele>1123.297</ele>
        <time>2022-02-20T08:55:14Z</time>
      </trkpt>
      <trkpt lat="42.76552" lon="1.57855">
        <ele>1124.446</ele>
        <time>2022-02-20T08:55:16Z</time>
      </trkpt>
      <trkpt lat="42.76552" lon="1.57856">
        <ele>1125.567</ele>
        <time>2022-02-20T08:55:18Z</time>
      </trkpt>
      <trkpt lat="42.76553" lon="1.57857">
        <ele>1126.145</ele>
        <time>2022-02-20T08:55:20Z</time>
      </trkpt>
      <trkpt lat="42.76554" lon="1.57857">
        <ele>1126.038</ele>
        <time>2022-02-20T08:55:22Z</time>
      </trkpt>
      <trkpt lat="42.76555" lon="1.57859">
        <ele>1125.859</ele>
        <time>2022-02-20T08:55:24Z</time>
      </trkpt>
      <trkpt lat="42.76555" lon="1.5786">
        <ele>1125.468</ele>
        <time>2022-02-20T08:55:26Z</time>
      </trkpt>
      <trkpt lat="42.76555" lon="1.57862">
        <ele>1125.962</ele>
        <time>2022-02-20T08:55:28Z</time>
      </trkpt>
      <trkpt lat="42.76555" lon="1.57863">
        <ele>1126.334</ele>
        <time>2022-02-20T08:55:30Z</time>
      </trkpt>
      <trkpt lat="42.76556" lon="1.57864">
        <ele>1127.653</ele>
        <time>2022-02-20T08:55:32Z</time>
      </trkpt>
      <trkpt lat="42.76556" lon="1.57867">
        <ele>1127.298</ele>
        <time>2022-02-20T08:55:34Z</time>
      </trkpt>
      <trkpt lat="42.76557" lon="1.57868">
        <ele>1127.004</ele>
        <time>2022-02-20T08:55:36Z</time>
      </trkpt>
      <trkpt lat="42.76557" lon="1.5787">
        <ele>1126.701</ele>
        <time>2022-02-20T08:55:38Z</time>
      </trkpt>
      <trkpt lat="42.76557" lon="1.57872">
        <ele>1127.995</ele>
        <time>2022-02-20T08:55:40Z</time>
      </trkpt>
      <trkpt lat="42.76557" lon="1.57874">
        <ele>1127.81</ele>
        <time>2022-02-20T08:55:42Z</time>
      </trkpt>
      <trkpt lat="42.76558" lon="1.57875">
        <ele>1128.616</ele>
        <time>2022-02-20T08:55:44Z</time>
      </trkpt>
      <trkpt lat="42.76558" lon="1.57876">
        <ele>1127.366</ele>
        <time>2022-02-20T08:55:46Z</time>
      </trkpt>
      <trkpt lat="42.76559" lon="1.57878">
        <ele>1126.25</ele>
        <time>2022-02-20T08:55:48Z</time>
      </trkpt>
      <trkpt lat="42.76559" lon="1.57879">
        <ele>1125.417</ele>
        <time>2022-02-20T08:55:50Z</time>
      </trkpt>
      <trkpt lat="42.76559" lon="1.57881">
        <ele>1125.887</ele>
        <time>2022-02-20T08:55:52Z</time>
      </trkpt>
      <trkpt lat="42.76559" lon="1.57883">
        <ele>1127.218</ele>
        <time>2022-02-20T08:55:54Z</time>
      </trkpt>
      <trkpt lat="42.76559" lon="1.57884">
        <ele>1128.413</ele>
        <time>2022-02-20T08:55:56Z</time>
      </trkpt>
      <trkpt lat="42.76559" lon="1.57886">
        <ele>1127.337</ele>
        <time>2022-02-20T08:55:58Z</time>
      </trkpt>
      <trkpt lat="42.7656" lon="1.57887">
        <ele>1127.367</ele>
        <time>2022-02-20T08:56:00Z</time>
      </trkpt>
      <trkpt lat="42.76559" lon="1.57889">
        <ele>1127.295</ele>
        <time>2022-02-20T08:56:02Z</time>
      </trkpt>
      <trkpt lat="42.76559" lon="1.5789">
        <ele>1127.84</ele>
        <time>2022-02-20T08:56:04Z</time>
      </trkpt>
      <trkpt lat="42.76559" lon="1.57892">
        <ele>1127.385</ele>
        <time>2022-02-20T08:56:06Z</time>
      </trkpt>
      <trkpt lat="42.76559" lon="1.57893">
        <ele>1129.066</ele>
        <time>2022-02-20T08:56:08Z</time>
      </trkpt>
      <trkpt lat="42.76559" lon="1.57894">
        <ele>1128.955</ele>
        <time>2022-02-20T08:56:10Z</time>
      </trkpt>
      <trkpt lat="42.76559" lon="1.57896">
        <ele>1129.31</ele>
        <time>2022-02-20T08:56:12Z</time>
      </trkpt>
      <trkpt lat="42.76559" lon="1.57898">
        <ele>1130.252</ele>
        <time>2022-02-20T08:56:14Z</time>
      </trkpt>
      <trkpt lat="42.76559" lon="1.57899">
        <ele>1131.538</ele>
        <time>2022-02-20T08:56:16Z</time>
      </trkpt>
      <trkpt lat="42.76559" lon="1.579">
        <ele>1131.609</ele>
        <time>2022-02-20T08:56:18Z</time>
      </trkpt>
      <trkpt lat="42.76558" lon="1.57901">
        <ele>1131.356</ele>
        <time>2022-02-20T08:56:20Z</time>
      </trkpt>
      <trkpt lat="42.76558" lon="1.57902">
        <ele>1130.645</ele>
        <time>2022-02-20T08:56:22Z</time>
      </trkpt>
      <trkpt lat="42.76557" lon="1.57903">
        <ele>1131.74</ele>
        <time>2022-02-20T08:56:24Z</time>
      </trkpt>
      <trkpt lat="42.76556" lon="1.57904">
        <ele>1133.628</ele>
        <time>2022-02-20T08:56:26Z</time>
      </trkpt>
      <trkpt lat="42.76556" lon="1.57904">
        <ele>1132.825</ele>
        <time>2022-02-20T08:56:28Z</time>
      </trkpt>
      <trkpt lat="42.76556" lon="1.57905">
        <ele>1132.707</ele>
        <time>2022-02-20T08:56:30Z</time>
      </trkpt>
      <trkpt lat="42.76555" lon="1.57906">
        <ele>1133.833</ele>
        <time>2022-02-20T08:56:32Z</time>
      </trkpt>
      <trkpt lat="42.76555" lon="1.57907">
        <ele>1134.082</ele>
        <time>2022-02-20T08:56:34Z</time>
      </trkpt>
      <trkpt lat="42.76555" lon="1.57907">
        <ele>1134.079</ele>
        <time>2022-02-20T08:56:36Z</time>
      </trkpt>
      <trkpt lat="42.76555" lon="1.57908">
        <ele>1134.038</ele>
        <time>2022-02-20T08:56:38Z</time>
      </trkpt>
      <trkpt lat="42.76554" lon="1.57908">
        <ele>1133.78</ele>
        <time>2022-02-20T08:56:40Z</time>
      </trkpt>
      <trkpt lat="42.76553" lon="1.5791">
        <ele>1134.193</ele>
        <time>2022-02-20T08:56:42Z</time>
      </trkpt>
      <trkpt lat="42.76551" lon="1.5791">
        <ele>1134.765</ele>
        <time>2022-02-20T08:56:44Z</time>
      </trkpt>
      <trkpt lat="42.7655" lon="1.57913">
        <ele>1135.462</ele>
        <time>2022-02-20T08:56:46Z</time>
      </trkpt>
      <trkpt lat="42.7655" lon="1.57915">
        <ele>1135.329</ele>
        <time>2022-02-20T08:56:48Z</time>
      </trkpt>
      <trkpt lat="42.7655" lon="1.57917">
        <ele>1134.816</ele>
        <time>2022-02-20T08:56:50Z</time>
      </trkpt>
      <trkpt lat="42.76551" lon="1.57918">
        <ele>1135.635</ele>
        <time>2022-02-20T08:56:52Z</time>
      </trkpt>
      <trkpt lat="42.76551" lon="1.57919">
        <ele>1137.701</ele>
        <time>2022-02-20T08:56:54Z</time>
      </trkpt>
      <trkpt lat="42.76551" lon="1.57921">
        <ele>1138.402</ele>
        <time>2022-02-20T08:56:56Z</time>
      </trkpt>
      <trkpt lat="42.76552" lon="1.57922">
        <ele>1140.029</ele>
        <time>2022-02-20T08:56:58Z</time>
      </trkpt>
      <trkpt lat="42.76553" lon="1.57924">
        <ele>1140.462</ele>
        <time>2022-02-20T08:57:00Z</time>
      </trkpt>
      <trkpt lat="42.76554" lon="1.57925">
        <ele>1139.668</ele>
        <time>2022-02-20T08:57:02Z</time>
      </trkpt>
      <trkpt lat="42.76554" lon="1.57925">
        <ele>1140.343</ele>
        <time>2022-02-20T08:57:04Z</time>
      </trkpt>
      <trkpt lat="42.76555" lon="1.57926">
        <ele>1140.927</ele>
        <time>2022-02-20T08:57:06Z</time>
      </trkpt>
      <trkpt lat="42.76556" lon="1.57927">
        <ele>1143.049</ele>
        <time>2022-02-20T08:57:08Z</time>
      </trkpt>
      <trkpt lat="42.76557" lon="1.57928">
        <ele>1144.718</ele>
        <time>2022-02-20T08:57:10Z</time>
      </trkpt>
      <trkpt lat="42.76558" lon="1.57928">
        <ele>1145.941</ele>
        <time>2022-02-20T08:57:12Z</time>
      </trkpt>
      <trkpt lat="42.76558" lon="1.57929">
        <ele>1145.856</ele>
        <time>2022-02-20T08:57:14Z</time>
      </trkpt>
      <trkpt lat="42.76559" lon="1.57929">
        <ele>1145.858</ele>
        <time>2022-02-20T08:57:16Z</time>
      </trkpt>
      <trkpt lat="42.76559" lon="1.5793">
        <ele>1146.244</ele>
        <time>2022-02-20T08:57:18Z</time>
      </trkpt>
      <trkpt lat="42.7656" lon="1.57932">
        <ele>1147.017</ele>
        <time>2022-02-20T08:57:20Z</time>
      </trkpt>
      <trkpt lat="42.7656" lon="1.57934">
        <ele>1147.854</ele>
        <time>2022-02-20T08:57:22Z</time>
      </trkpt>
      <trkpt lat="42.76559" lon="1.57936">
        <ele>1148.526</ele>
        <time>2022-02-20T08:57:24Z</time>
      </trkpt>
      <trkpt lat="42.76559" lon="1.57937">
        <ele>1149.011</ele>
        <time>2022-02-20T08:57:26Z</time>
      </trkpt>
      <trkpt lat="42.76559" lon="1.57939">
        <ele>1150.374</ele>
        <time>2022-02-20T08:57:28Z</time>
      </trkpt>
      <trkpt lat="42.76559" lon="1.57941">
        <ele>1151.847</ele>
        <time>2022-02-20T08:57:30Z</time>
      </trkpt>
      <trkpt lat="42.7656" lon="1.57941">
        <ele>1153.463</ele>
        <time>2022-02-20T08:57:32Z</time>
      </trkpt>
      <trkpt lat="42.7656" lon="1.57943">
        <ele>1154.081</ele>
        <time>2022-02-20T08:57:34Z</time>
      </trkpt>
      <trkpt lat="42.7656" lon="1.57945">
        <ele>1154.079</ele>
        <time>2022-02-20T08:57:36Z</time>
      </trkpt>
      <trkpt lat="42.7656" lon="1.57946">
        <ele>1154.895</ele>
        <time>2022-02-20T08:57:38Z</time>
      </trkpt>
      <trkpt lat="42.7656" lon="1.57947">
        <ele>1155.473</ele>
        <time>2022-02-20T08:57:40Z</time>
      </trkpt>
      <trkpt lat="42.7656" lon="1.57949">
        <ele>1156.997</ele>
        <time>2022-02-20T08:57:42Z</time>
      </trkpt>
      <trkpt lat="42.7656" lon="1.5795">
        <ele>1156.403</ele>
        <time>2022-02-20T08:57:44Z</time>
      </trkpt>
      <trkpt lat="42.76559" lon="1.57951">
        <ele>1156.428</ele>
        <time>2022-02-20T08:57:46Z</time>
      </trkpt>
      <trkpt lat="42.76558" lon="1.57953">
        <ele>1156.059</ele>
        <time>2022-02-20T08:57:48Z</time>
      </trkpt>
      <trkpt lat="42.76557" lon="1.57955">
        <ele>1154.572</ele>
        <time>2022-02-20T08:57:50Z</time>
      </trkpt>
      <trkpt lat="42.76557" lon="1.57956">
        <ele>1154.356</ele>
        <time>2022-02-20T08:57:52Z</time>
      </trkpt>
      <trkpt lat="42.76556" lon="1.57957">
        <ele>1153.745</ele>
        <time>2022-02-20T08:57:54Z</time>
      </trkpt>
      <trkpt lat="42.76556" lon="1.57958">
        <ele>1153.357</ele>
        <time>2022-02-20T08:57:56Z</time>
      </trkpt>
      <trkpt lat="42.76555" lon="1.57959">
        <ele>1152.924</ele>
        <time>2022-02-20T08:57:58Z</time>
      </trkpt>
      <trkpt lat="42.76555" lon="1.57961">
        <ele>1151.011</ele>
        <time>2022-02-20T08:58:00Z</time>
      </trkpt>
      <trkpt lat="42.76555" lon="1.57962">
        <ele>1150.296</ele>
        <time>2022-02-20T08:58:02Z</time>
      </trkpt>
      <trkpt lat="42.76555" lon="1.57963">
        <ele>1149.268</ele>
        <time>2022-02-20T08:58:04Z</time>
      </trkpt>
      <trkpt lat="42.76555" lon="1.57965">
        <ele>1149.859</ele>
        <time>2022-02-20T08:58:06Z</time>
      </trkpt>
      <trkpt lat="42.76555" lon="1.57966">
        <ele>1148.619</ele>
        <time>2022-02-20T08:58:08Z</time>
      </trkpt>
      <trkpt lat="42.76555" lon="1.57967">
        <ele>1147.495</ele>
        <time>2022-02-20T08:58:10Z</time>
      </trkpt>
      <trkpt lat="42.76554" lon="1.57968">
        <ele>1147.931</ele>
        <time>2022-02-20T08:58:12Z</time>
      </trkpt>
      <trkpt lat="42.76554" lon="1.5797">
        <ele>1148.54</ele>
        <time>2022-02-20T08:58:14Z</time>
      </trkpt>
      <trkpt lat="42.76554" lon="1.57972">
        <ele>1146.901</ele>
        <time>2022-02-20T08:58:16Z</time>
      </trkpt>
      <trkpt lat="42.76554" lon="1.57974">
        <ele>1145.764</ele>
        <time>2022-02-20T08:58:18Z</time>
      </trkpt>
      <trkpt lat="42.76554" lon="1.57975">
        <ele>1145.095</ele>
        <time>2022-02-20T08:58:20Z</time>
      </trkpt>
      <trkpt lat="42.76552" lon="1.57976">
        <ele>1148.08</ele>
        <time>2022-02-20T08:58:22Z</time>
      </trkpt>
      <trkpt lat="42.76552" lon="1.57979">
        <ele>1147.761</ele>
        <time>2022-02-20T08:58:24Z</time>
      </trkpt>
      <trkpt lat="42.76551" lon="1.5798">
        <ele>1148.818</ele>
        <time>2022-02-20T08:58:26Z</time>
      </trkpt>
      <trkpt lat="42.76551" lon="1.57982">
        <ele>1149.378</ele>
        <time>2022-02-20T08:58:28Z</time>
      </trkpt>
      <trkpt lat="42.7655" lon="1.57984">
        <ele>1150.639</ele>
        <time>2022-02-20T08:58:30Z</time>
      </trkpt>
      <trkpt lat="42.7655" lon="1.57986">
        <ele>1152.039</ele>
        <time>2022-02-20T08:58:32Z</time>
      </trkpt>
      <trkpt lat="42.76549" lon="1.57987">
        <ele>1150.499</ele>
        <time>2022-02-20T08:58:34Z</time>
      </trkpt>
      <trkpt lat="42.76549" lon="1.57989">
        <ele>1149.668</ele>
        <time>2022-02-20T08:58:36Z</time>
      </trkpt>
      <trkpt lat="42.76548" lon="1.5799">
        <ele>1150.04</ele>
        <time>2022-02-20T08:58:38Z</time>
      </trkpt>
      <trkpt lat="42.76547" lon="1.57991">
        <ele>1150.809</ele>
        <time>2022-02-20T08:58:40Z</time>
      </trkpt>
      <trkpt lat="42.76546" lon="1.57992">
        <ele>1151.002</ele>
        <time>2022-02-20T08:58:42Z</time>
      </trkpt>
      <trkpt lat="42.76545" lon="1.57992">
        <ele>1151.554</ele>
        <time>2022-02-20T08:58:44Z</time>
      </trkpt>
      <trkpt lat="42.76544" lon="1.57993">
        <ele>1152.497</ele>
        <time>2022-02-20T08:58:46Z</time>
      </trkpt>
      <trkpt lat="42.76542" lon="1.57993">
        <ele>1152.568</ele>
        <time>2022-02-20T08:58:48Z</time>
      </trkpt>
      <trkpt lat="42.76541" lon="1.57994">
        <ele>1153.026</ele>
        <time>2022-02-20T08:58:50Z</time>
      </trkpt>
      <trkpt lat="42.7654" lon="1.57994">
        <ele>1154.349</ele>
        <time>2022-02-20T08:58:52Z</time>
      </trkpt>
      <trkpt lat="42.76539" lon="1.57995">
        <ele>1154.687</ele>
        <time>2022-02-20T08:58:54Z</time>
      </trkpt>
      <trkpt lat="42.76539" lon="1.57995">
        <ele>1155.208</ele>
        <time>2022-02-20T08:58:56Z</time>
      </trkpt>
      <trkpt lat="42.76538" lon="1.57997">
        <ele>1155.453</ele>
        <time>2022-02-20T08:58:58Z</time>
      </trkpt>
      <trkpt lat="42.76538" lon="1.57998">
        <ele>1155.826</ele>
        <time>2022-02-20T08:59:00Z</time>
      </trkpt>
      <trkpt lat="42.76537" lon="1.58">
        <ele>1156.455</ele>
        <time>2022-02-20T08:59:02Z</time>
      </trkpt>
      <trkpt lat="42.76537" lon="1.58002">
        <ele>1157.128</ele>
        <time>2022-02-20T08:59:04Z</time>
      </trkpt>
      <trkpt lat="42.76537" lon="1.58003">
        <ele>1156.962</ele>
        <time>2022-02-20T08:59:06Z</time>
      </trkpt>
      <trkpt lat="42.76536" lon="1.58004">
        <ele>1156.931</ele>
        <time>2022-02-20T08:59:08Z</time>
      </trkpt>
      <trkpt lat="42.76537" lon="1.58005">
        <ele>1157.168</ele>
        <time>2022-02-20T08:59:10Z</time>
      </trkpt>
      <trkpt lat="42.76538" lon="1.58007">
        <ele>1155.654</ele>
        <time>2022-02-20T08:59:12Z</time>
      </trkpt>
      <trkpt lat="42.76538" lon="1.58009">
        <ele>1155.034</ele>
        <time>2022-02-20T08:59:14Z</time>
      </trkpt>
      <trkpt lat="42.76538" lon="1.5801">
        <ele>1156.914</ele>
        <time>2022-02-20T08:59:16Z</time>
      </trkpt>
      <trkpt lat="42.76537" lon="1.58011">
        <ele>1156.8</ele>
        <time>2022-02-20T08:59:18Z</time>
      </trkpt>
      <trkpt lat="42.76537" lon="1.58012">
        <ele>1155.944</ele>
        <time>2022-02-20T08:59:20Z</time>
      </trkpt>
      <trkpt lat="42.76537" lon="1.58013">
        <ele>1156.045</ele>
        <time>2022-02-20T08:59:22Z</time>
      </trkpt>
      <trkpt lat="42.76537" lon="1.58015">
        <ele>1156.226</ele>
        <time>2022-02-20T08:59:24Z</time>
      </trkpt>
      <trkpt lat="42.76537" lon="1.58016">
        <ele>1157.72</ele>
        <time>2022-02-20T08:59:26Z</time>
      </trkpt>
      <trkpt lat="42.76536" lon="1.58017">
        <ele>1156.639</ele>
        <time>2022-02-20T08:59:28Z</time>
      </trkpt>
      <trkpt lat="42.76536" lon="1.58018">
        <ele>1156.447</ele>
        <time>2022-02-20T08:59:30Z</time>
      </trkpt>
      <trkpt lat="42.76535" lon="1.5802">
        <ele>1157.497</ele>
        <time>2022-02-20T08:59:32Z</time>
      </trkpt>
      <trkpt lat="42.76535" lon="1.58021">
        <ele>1157.532</ele>
        <time>2022-02-20T08:59:34Z</time>
      </trkpt>
      <trkpt lat="42.76535" lon="1.58022">
        <ele>1157.362</ele>
        <time>2022-02-20T08:59:36Z</time>
      </trkpt>
      <trkpt lat="42.76535" lon="1.58024">
        <ele>1155.76</ele>
        <time>2022-02-20T08:59:38Z</time>
      </trkpt>
      <trkpt lat="42.76535" lon="1.58025">
        <ele>1154.753</ele>
        <time>2022-02-20T08:59:40Z</time>
      </trkpt>
      <trkpt lat="42.76535" lon="1.58026">
        <ele>1154.817</ele>
        <time>2022-02-20T08:59:42Z</time>
      </trkpt>
      <trkpt lat="42.76535" lon="1.58027">
        <ele>1155.576</ele>
        <time>2022-02-20T08:59:44Z</time>
      </trkpt>
      <trkpt lat="42.76536" lon="1.58029">
        <ele>1156.845</ele>
        <time>2022-02-20T08:59:46Z</time>
      </trkpt>
      <trkpt lat="42.76535" lon="1.58029">
        <ele>1157.08</ele>
        <time>2022-02-20T08:59:48Z</time>
      </trkpt>
      <trkpt lat="42.76535" lon="1.58032">
        <ele>1156.69</ele>
        <time>2022-02-20T08:59:50Z</time>
      </trkpt>
      <trkpt lat="42.76535" lon="1.58033">
        <ele>1156.76</ele>
        <time>2022-02-20T08:59:52Z</time>
      </trkpt>
      <trkpt lat="42.76535" lon="1.58035">
        <ele>1157.055</ele>
        <time>2022-02-20T08:59:54Z</time>
      </trkpt>
      <trkpt lat="42.76535" lon="1.58037">
        <ele>1157.292</ele>
        <time>2022-02-20T08:59:56Z</time>
      </trkpt>
      <trkpt lat="42.76535" lon="1.58037">
        <ele>1158.005</ele>
        <time>2022-02-20T08:59:58Z</time>
      </trkpt>
      <trkpt lat="42.76535" lon="1.58039">
        <ele>1159.18</ele>
        <time>2022-02-20T09:00:00Z</time>
      </trkpt>
      <trkpt lat="42.76535" lon="1.5804">
        <ele>1158.775</ele>
        <time>2022-02-20T09:00:02Z</time>
      </trkpt>
      <trkpt lat="42.76535" lon="1.58042">
        <ele>1158.83</ele>
        <time>2022-02-20T09:00:04Z</time>
      </trkpt>
      <trkpt lat="42.76534" lon="1.58044">
        <ele>1159.527</ele>
        <time>2022-02-20T09:00:06Z</time>
      </trkpt>
      <trkpt lat="42.76534" lon="1.58046">
        <ele>1159.476</ele>
        <time>2022-02-20T09:00:08Z</time>
      </trkpt>
      <trkpt lat="42.76534" lon="1.58047">
        <ele>1160.454</ele>
        <time>2022-02-20T09:00:10Z</time>
      </trkpt>
      <trkpt lat="42.76534" lon="1.58049">
        <ele>1161.764</ele>
        <time>2022-02-20T09:00:12Z</time>
      </trkpt>
      <trkpt lat="42.76535" lon="1.5805">
        <ele>1161.831</ele>
        <time>2022-02-20T09:00:14Z</time>
      </trkpt>
      <trkpt lat="42.76536" lon="1.58052">
        <ele>1163.895</ele>
        <time>2022-02-20T09:00:16Z</time>
      </trkpt>
      <trkpt lat="42.76536" lon="1.58053">
        <ele>1165.079</ele>
        <time>2022-02-20T09:00:18Z</time>
      </trkpt>
      <trkpt lat="42.76536" lon="1.58055">
        <ele>1166.007</ele>
        <time>2022-02-20T09:00:20Z</time>
      </trkpt>
      <trkpt lat="42.76537" lon="1.58055">
        <ele>1167.598</ele>
        <time>2022-02-20T09:00:22Z</time>
      </trkpt>
      <trkpt lat="42.76537" lon="1.58057">
        <ele>1168.324</ele>
        <time>2022-02-20T09:00:24Z</time>
      </trkpt>
      <trkpt lat="42.76537" lon="1.58058">
        <ele>1169.42</ele>
        <time>2022-02-20T09:00:26Z</time>
      </trkpt>
      <trkpt lat="42.76539" lon="1.58058">
        <ele>1170.895</ele>
        <time>2022-02-20T09:00:28Z</time>
      </trkpt>
      <trkpt lat="42.76539" lon="1.58059">
        <ele>1171.553</ele>
        <time>2022-02-20T09:00:30Z</time>
      </trkpt>
      <trkpt lat="42.7654" lon="1.58059">
        <ele>1172.343</ele>
        <time>2022-02-20T09:00:32Z</time>
      </trkpt>
      <trkpt lat="42.7654" lon="1.58059">
        <ele>1172.448</ele>
        <time>2022-02-20T09:00:34Z</time>
      </trkpt>
      <trkpt lat="42.7654" lon="1.5806">
        <ele>1172.28</ele>
        <time>2022-02-20T09:00:36Z</time>
      </trkpt>
      <trkpt lat="42.7654" lon="1.58061">
        <ele>1172.586</ele>
        <time>2022-02-20T09:00:38Z</time>
      </trkpt>
      <trkpt lat="42.7654" lon="1.58062">
        <ele>1173.579</ele>
        <time>2022-02-20T09:00:40Z</time>
      </trkpt>
      <trkpt lat="42.76541" lon="1.58063">
        <ele>1174.298</ele>
        <time>2022-02-20T09:00:42Z</time>
      </trkpt>
      <trkpt lat="42.76541" lon="1.58065">
        <ele>1175.91</ele>
        <time>2022-02-20T09:00:44Z</time>
      </trkpt>
      <trkpt lat="42.76541" lon="1.58067">
        <ele>1176.63</ele>
        <time>2022-02-20T09:00:46Z</time>
      </trkpt>
      <trkpt lat="42.7654" lon="1.58069">
        <ele>1176.835</ele>
        <time>2022-02-20T09:00:48Z</time>
      </trkpt>
      <trkpt lat="42.7654" lon="1.5807">
        <ele>1178.091</ele>
        <time>2022-02-20T09:00:50Z</time>
      </trkpt>
      <trkpt lat="42.76541" lon="1.58072">
        <ele>1179.036</ele>
        <time>2022-02-20T09:00:52Z</time>
      </trkpt>
      <trkpt lat="42.76541" lon="1.58073">
        <ele>1180.412</ele>
        <time>2022-02-20T09:00:54Z</time>
      </trkpt>
      <trkpt lat="42.76542" lon="1.58075">
        <ele>1182.888</ele>
        <time>2022-02-20T09:00:56Z</time>
      </trkpt>
      <trkpt lat="42.76542" lon="1.58075">
        <ele>1184.301</ele>
        <time>2022-02-20T09:00:58Z</time>
      </trkpt>
      <trkpt lat="42.76543" lon="1.58076">
        <ele>1184.784</ele>
        <time>2022-02-20T09:01:00Z</time>
      </trkpt>
      <trkpt lat="42.76544" lon="1.58077">
        <ele>1186.014</ele>
        <time>2022-02-20T09:01:02Z</time>
      </trkpt>
      <trkpt lat="42.76544" lon="1.58077">
        <ele>1185.466</ele>
        <time>2022-02-20T09:01:04Z</time>
      </trkpt>
      <trkpt lat="42.76543" lon="1.58079">
        <ele>1185.525</ele>
        <time>2022-02-20T09:01:06Z</time>
      </trkpt>
      <trkpt lat="42.76544" lon="1.58079">
        <ele>1186.741</ele>
        <time>2022-02-20T09:01:08Z</time>
      </trkpt>
      <trkpt lat="42.76544" lon="1.5808">
        <ele>1188.155</ele>
        <time>2022-02-20T09:01:10Z</time>
      </trkpt>
      <trkpt lat="42.76545" lon="1.58081">
        <ele>1188.745</ele>
        <time>2022-02-20T09:01:12Z</time>
      </trkpt>
      <trkpt lat="42.76545" lon="1.58082">
        <ele>1190.977</ele>
        <time>2022-02-20T09:01:14Z</time>
      </trkpt>
      <trkpt lat="42.76545" lon="1.58082">
        <ele>1192.994</ele>
        <time>2022-02-20T09:01:16Z</time>
      </trkpt>
      <trkpt lat="42.76546" lon="1.58082">
        <ele>1194.048</ele>
        <time>2022-02-20T09:01:18Z</time>
      </trkpt>
      <trkpt lat="42.76545" lon="1.58083">
        <ele>1193.986</ele>
        <time>2022-02-20T09:01:20Z</time>
      </trkpt>
      <trkpt lat="42.76544" lon="1.58084">
        <ele>1191.726</ele>
        <time>2022-02-20T09:01:22Z</time>
      </trkpt>
      <trkpt lat="42.76542" lon="1.58085">
        <ele>1189.063</ele>
        <time>2022-02-20T09:01:24Z</time>
      </trkpt>
      <trkpt lat="42.76542" lon="1.58087">
        <ele>1187.521</ele>
        <time>2022-02-20T09:01:26Z</time>
      </trkpt>
      <trkpt lat="42.76542" lon="1.58089">
        <ele>1188.041</ele>
        <time>2022-02-20T09:01:28Z</time>
      </trkpt>
      <trkpt lat="42.76542" lon="1.5809">
        <ele>1188.536</ele>
        <time>2022-02-20T09:01:30Z</time>
      </trkpt>
      <trkpt lat="42.76543" lon="1.58091">
        <ele>1189.134</ele>
        <time>2022-02-20T09:01:32Z</time>
      </trkpt>
      <trkpt lat="42.76544" lon="1.58093">
        <ele>1190.157</ele>
        <time>2022-02-20T09:01:34Z</time>
      </trkpt>
      <trkpt lat="42.76545" lon="1.58094">
        <ele>1191.12</ele>
        <time>2022-02-20T09:01:36Z</time>
      </trkpt>
      <trkpt lat="42.76546" lon="1.58095">
        <ele>1192.623</ele>
        <time>2022-02-20T09:01:38Z</time>
      </trkpt>
      <trkpt lat="42.76547" lon="1.58097">
        <ele>1194.11</ele>
        <time>2022-02-20T09:01:40Z</time>
      </trkpt>
      <trkpt lat="42.76547" lon="1.58097">
        <ele>1194.587</ele>
        <time>2022-02-20T09:01:42Z</time>
      </trkpt>
      <trkpt lat="42.76548" lon="1.58098">
        <ele>1193.321</ele>
        <time>2022-02-20T09:01:44Z</time>
      </trkpt>
      <trkpt lat="42.76548" lon="1.58099">
        <ele>1192.637</ele>
        <time>2022-02-20T09:01:46Z</time>
      </trkpt>
      <trkpt lat="42.76549" lon="1.58099">
        <ele>1192.035</ele>
        <time>2022-02-20T09:01:48Z</time>
      </trkpt>
      <trkpt lat="42.76548" lon="1.58101">
        <ele>1191.571</ele>
        <time>2022-02-20T09:01:50Z</time>
      </trkpt>
      <trkpt lat="42.76549" lon="1.58101">
        <ele>1193.186</ele>
        <time>2022-02-20T09:01:52Z</time>
      </trkpt>
      <trkpt lat="42.76549" lon="1.58102">
        <ele>1192.703</ele>
        <time>2022-02-20T09:01:54Z</time>
      </trkpt>
      <trkpt lat="42.7655" lon="1.58103">
        <ele>1192.869</ele>
        <time>2022-02-20T09:01:56Z</time>
      </trkpt>
      <trkpt lat="42.7655" lon="1.58104">
        <ele>1192.208</ele>
        <time>2022-02-20T09:01:58Z</time>
      </trkpt>
      <trkpt lat="42.7655" lon="1.58105">
        <ele>1192.919</ele>
        <time>2022-02-20T09:02:00Z</time>
      </trkpt>
      <trkpt lat="42.76551" lon="1.58106">
        <ele>1194.114</ele>
        <time>2022-02-20T09:02:02Z</time>
      </trkpt>
      <trkpt lat="42.76551" lon="1.58107">
        <ele>1194.383</ele>
        <time>2022-02-20T09:02:04Z</time>
      </trkpt>
      <trkpt lat="42.76551" lon="1.58109">
        <ele>1194.553</ele>
        <time>2022-02-20T09:02:06Z</time>
      </trkpt>
      <trkpt lat="42.76551" lon="1.58111">
        <ele>1195.4</ele>
        <time>2022-02-20T09:02:08Z</time>
      </trkpt>
      <trkpt lat="42.7655" lon="1.58113">
        <ele>1193.478</ele>
        <time>2022-02-20T09:02:10Z</time>
      </trkpt>
      <trkpt lat="42.76551" lon="1.58114">
        <ele>1193.812</ele>
        <time>2022-02-20T09:02:12Z</time>
      </trkpt>
      <trkpt lat="42.76551" lon="1.58115">
        <ele>1193.75</ele>
        <time>2022-02-20T09:02:14Z</time>
      </trkpt>
      <trkpt lat="42.76551" lon="1.58114">
        <ele>1193.805</ele>
        <time>2022-02-20T09:02:16Z</time>
      </trkpt>
      <trkpt lat="42.76552" lon="1.58114">
        <ele>1193.807</ele>
        <time>2022-02-20T09:02:18Z</time>
      </trkpt>
      <trkpt lat="42.76552" lon="1.58114">
        <ele>1193.818</ele>
        <time>2022-02-20T09:02:20Z</time>
      </trkpt>
      <trkpt lat="42.76551" lon="1.58114">
        <ele>1193.711</ele>
        <time>2022-02-20T09:02:22Z</time>
      </trkpt>
      <trkpt lat="42.76552" lon="1.58116">
        <ele>1194.207</ele>
        <time>2022-02-20T09:02:24Z</time>
      </trkpt>
      <trkpt lat="42.76552" lon="1.58118">
        <ele>1194.668</ele>
        <time>2022-02-20T09:02:26Z</time>
      </trkpt>
      <trkpt lat="42.76552" lon="1.58119">
        <ele>1196.536</ele>
        <time>2022-02-20T09:02:28Z</time>
      </trkpt>
      <trkpt lat="42.76552" lon="1.58119">
        <ele>1198.159</ele>
        <time>2022-02-20T09:02:30Z</time>
      </trkpt>
      <trkpt lat="42.76552" lon="1.5812">
        <ele>1200.15</ele>
        <time>2022-02-20T09:02:32Z</time>
      </trkpt>
      <trkpt lat="42.76552" lon="1.58121">
        <ele>1199.667</ele>
        <time>2022-02-20T09:02:34Z</time>
      </trkpt>
      <trkpt lat="42.76551" lon="1.58121">
        <ele>1199.888</ele>
        <time>2022-02-20T09:02:36Z</time>
      </trkpt>
      <trkpt lat="42.76551" lon="1.58122">
        <ele>1200.746</ele>
        <time>2022-02-20T09:02:38Z</time>
      </trkpt>
      <trkpt lat="42.76551" lon="1.58122">
        <ele>1201.865</ele>
        <time>2022-02-20T09:02:40Z</time>
      </trkpt>
      <trkpt lat="42.76551" lon="1.58123">
        <ele>1202.049</ele>
        <time>2022-02-20T09:02:42Z</time>
      </trkpt>
      <trkpt lat="42.76551" lon="1.58125">
        <ele>1201.975</ele>
        <time>2022-02-20T09:02:44Z</time>
      </trkpt>
      <trkpt lat="42.7655" lon="1.58126">
        <ele>1202.382</ele>
        <time>2022-02-20T09:02:46Z</time>
      </trkpt>
      <trkpt lat="42.76551" lon="1.58126">
        <ele>1205</ele>
        <time>2022-02-20T09:02:48Z</time>
      </trkpt>
      <trkpt lat="42.76549" lon="1.58128">
        <ele>1204.436</ele>
        <time>2022-02-20T09:02:50Z</time>
      </trkpt>
      <trkpt lat="42.7655" lon="1.5813">
        <ele>1203.331</ele>
        <time>2022-02-20T09:02:52Z</time>
      </trkpt>
      <trkpt lat="42.76549" lon="1.58131">
        <ele>1202.429</ele>
        <time>2022-02-20T09:02:54Z</time>
      </trkpt>
      <trkpt lat="42.76548" lon="1.58133">
        <ele>1202.957</ele>
        <time>2022-02-20T09:02:56Z</time>
      </trkpt>
      <trkpt lat="42.76548" lon="1.58133">
        <ele>1203.681</ele>
        <time>2022-02-20T09:02:57Z</time>
      </trkpt>
      <trkpt lat="42.76548" lon="1.58134">
        <ele>1204.998</ele>
        <time>2022-02-20T09:03:00Z</time>
      </trkpt>
      <trkpt lat="42.76549" lon="1.58135">
        <ele>1206.234</ele>
        <time>2022-02-20T09:03:02Z</time>
      </trkpt>
      <trkpt lat="42.76549" lon="1.58135">
        <ele>1207.739</ele>
        <time>2022-02-20T09:03:04Z</time>
      </trkpt>
      <trkpt lat="42.76549" lon="1.58136">
        <ele>1209.498</ele>
        <time>2022-02-20T09:03:06Z</time>
      </trkpt>
      <trkpt lat="42.76549" lon="1.58137">
        <ele>1211.041</ele>
        <time>2022-02-20T09:03:08Z</time>
      </trkpt>
      <trkpt lat="42.76549" lon="1.58138">
        <ele>1211.79</ele>
        <time>2022-02-20T09:03:10Z</time>
      </trkpt>
      <trkpt lat="42.76549" lon="1.5814">
        <ele>1211.392</ele>
        <time>2022-02-20T09:03:12Z</time>
      </trkpt>
      <trkpt lat="42.76549" lon="1.58141">
        <ele>1210.649</ele>
        <time>2022-02-20T09:03:14Z</time>
      </trkpt>
      <trkpt lat="42.76548" lon="1.58142">
        <ele>1209.019</ele>
        <time>2022-02-20T09:03:16Z</time>
      </trkpt>
      <trkpt lat="42.76548" lon="1.58144">
        <ele>1209.512</ele>
        <time>2022-02-20T09:03:18Z</time>
      </trkpt>
      <trkpt lat="42.76548" lon="1.58146">
        <ele>1208.745</ele>
        <time>2022-02-20T09:03:20Z</time>
      </trkpt>
      <trkpt lat="42.76548" lon="1.58147">
        <ele>1211.051</ele>
        <time>2022-02-20T09:03:22Z</time>
      </trkpt>
      <trkpt lat="42.76546" lon="1.58148">
        <ele>1208.988</ele>
        <time>2022-02-20T09:03:24Z</time>
      </trkpt>
      <trkpt lat="42.76545" lon="1.58149">
        <ele>1206.336</ele>
        <time>2022-02-20T09:03:26Z</time>
      </trkpt>
      <trkpt lat="42.76544" lon="1.58149">
        <ele>1206.007</ele>
        <time>2022-02-20T09:03:28Z</time>
      </trkpt>
      <trkpt lat="42.76543" lon="1.5815">
        <ele>1206.228</ele>
        <time>2022-02-20T09:03:30Z</time>
      </trkpt>
      <trkpt lat="42.76542" lon="1.58152">
        <ele>1205.367</ele>
        <time>2022-02-20T09:03:32Z</time>
      </trkpt>
      <trkpt lat="42.76542" lon="1.58154">
        <ele>1204.792</ele>
        <time>2022-02-20T09:03:34Z</time>
      </trkpt>
      <trkpt lat="42.76542" lon="1.58155">
        <ele>1207.818</ele>
        <time>2022-02-20T09:03:36Z</time>
      </trkpt>
      <trkpt lat="42.76543" lon="1.58156">
        <ele>1211.005</ele>
        <time>2022-02-20T09:03:38Z</time>
      </trkpt>
      <trkpt lat="42.76543" lon="1.58157">
        <ele>1212.596</ele>
        <time>2022-02-20T09:03:40Z</time>
      </trkpt>
      <trkpt lat="42.76543" lon="1.58159">
        <ele>1213.981</ele>
        <time>2022-02-20T09:03:42Z</time>
      </trkpt>
      <trkpt lat="42.76544" lon="1.58161">
        <ele>1213.691</ele>
        <time>2022-02-20T09:03:44Z</time>
      </trkpt>
      <trkpt lat="42.76543" lon="1.58162">
        <ele>1214.4</ele>
        <time>2022-02-20T09:03:46Z</time>
      </trkpt>
      <trkpt lat="42.76542" lon="1.58164">
        <ele>1213.547</ele>
        <time>2022-02-20T09:03:48Z</time>
      </trkpt>
      <trkpt lat="42.76541" lon="1.58163">
        <ele>1213.335</ele>
        <time>2022-02-20T09:03:50Z</time>
      </trkpt>
      <trkpt lat="42.7654" lon="1.58164">
        <ele>1212.798</ele>
        <time>2022-02-20T09:03:52Z</time>
      </trkpt>
      <trkpt lat="42.7654" lon="1.58165">
        <ele>1211.397</ele>
        <time>2022-02-20T09:03:54Z</time>
      </trkpt>
      <trkpt lat="42.76539" lon="1.58165">
        <ele>1211.272</ele>
        <time>2022-02-20T09:03:56Z</time>
      </trkpt>
      <trkpt lat="42.76538" lon="1.58165">
        <ele>1211.433</ele>
        <time>2022-02-20T09:03:58Z</time>
      </trkpt>
      <trkpt lat="42.76535" lon="1.58167">
        <ele>1210.058</ele>
        <time>2022-02-20T09:04:00Z</time>
      </trkpt>
      <trkpt lat="42.76533" lon="1.5817">
        <ele>1209.397</ele>
        <time>2022-02-20T09:04:02Z</time>
      </trkpt>
      <trkpt lat="42.76532" lon="1.58171">
        <ele>1207.825</ele>
        <time>2022-02-20T09:04:04Z</time>
      </trkpt>
      <trkpt lat="42.7653" lon="1.58172">
        <ele>1207.781</ele>
        <time>2022-02-20T09:04:06Z</time>
      </trkpt>
      <trkpt lat="42.76528" lon="1.58174">
        <ele>1206.099</ele>
        <time>2022-02-20T09:04:08Z</time>
      </trkpt>
      <trkpt lat="42.76527" lon="1.58175">
        <ele>1204.815</ele>
        <time>2022-02-20T09:04:10Z</time>
      </trkpt>
      <trkpt lat="42.76527" lon="1.58175">
        <ele>1204.856</ele>
        <time>2022-02-20T09:04:12Z</time>
      </trkpt>
      <trkpt lat="42.76526" lon="1.58174">
        <ele>1204.553</ele>
        <time>2022-02-20T09:04:14Z</time>
      </trkpt>
      <trkpt lat="42.76526" lon="1.58174">
        <ele>1204.551</ele>
        <time>2022-02-20T09:04:16Z</time>
      </trkpt>
      <trkpt lat="42.76526" lon="1.58174">
        <ele>1204.672</ele>
        <time>2022-02-20T09:04:18Z</time>
      </trkpt>
      <trkpt lat="42.76525" lon="1.58173">
        <ele>1204.472</ele>
        <time>2022-02-20T09:04:20Z</time>
      </trkpt>
      <trkpt lat="42.76525" lon="1.58174">
        <ele>1203.315</ele>
        <time>2022-02-20T09:04:22Z</time>
      </trkpt>
      <trkpt lat="42.76523" lon="1.58175">
        <ele>1204.474</ele>
        <time>2022-02-20T09:04:24Z</time>
      </trkpt>
      <trkpt lat="42.76522" lon="1.58175">
        <ele>1204.479</ele>
        <time>2022-02-20T09:04:26Z</time>
      </trkpt>
      <trkpt lat="42.76522" lon="1.58176">
        <ele>1204.672</ele>
        <time>2022-02-20T09:04:28Z</time>
      </trkpt>
      <trkpt lat="42.76521" lon="1.58176">
        <ele>1204.811</ele>
        <time>2022-02-20T09:04:30Z</time>
      </trkpt>
      <trkpt lat="42.76521" lon="1.58177">
        <ele>1203.992</ele>
        <time>2022-02-20T09:04:32Z</time>
      </trkpt>
      <trkpt lat="42.76521" lon="1.58176">
        <ele>1204.418</ele>
        <time>2022-02-20T09:04:34Z</time>
      </trkpt>
      <trkpt lat="42.76521" lon="1.58176">
        <ele>1204.425</ele>
        <time>2022-02-20T09:04:35Z</time>
      </trkpt>
      <trkpt lat="42.76521" lon="1.58176">
        <ele>1204.435</ele>
        <time>2022-02-20T09:04:38Z</time>
      </trkpt>
      <trkpt lat="42.76521" lon="1.58176">
        <ele>1204.445</ele>
        <time>2022-02-20T09:04:40Z</time>
      </trkpt>
      <trkpt lat="42.76521" lon="1.58176">
        <ele>1204.456</ele>
        <time>2022-02-20T09:04:42Z</time>
      </trkpt>
      <trkpt lat="42.76521" lon="1.58176">
        <ele>1204.465</ele>
        <time>2022-02-20T09:04:44Z</time>
      </trkpt>
      <trkpt lat="42.7652" lon="1.58176">
        <ele>1204.658</ele>
        <time>2022-02-20T09:04:46Z</time>
      </trkpt>
      <trkpt lat="42.7652" lon="1.58176">
        <ele>1204.73</ele>
        <time>2022-02-20T09:04:48Z</time>
      </trkpt>
      <trkpt lat="42.7652" lon="1.58176">
        <ele>1204.743</ele>
        <time>2022-02-20T09:04:50Z</time>
      </trkpt>
      <trkpt lat="42.76519" lon="1.58176">
        <ele>1204.623</ele>
        <time>2022-02-20T09:04:52Z</time>
      </trkpt>
      <trkpt lat="42.76518" lon="1.58181">
        <ele>1205.073</ele>
        <time>2022-02-20T09:04:54Z</time>
      </trkpt>
      <trkpt lat="42.76521" lon="1.58184">
        <ele>1208.059</ele>
        <time>2022-02-20T09:04:56Z</time>
      </trkpt>
      <trkpt lat="42.76524" lon="1.58184">
        <ele>1212.218</ele>
        <time>2022-02-20T09:04:58Z</time>
      </trkpt>
      <trkpt lat="42.76525" lon="1.58183">
        <ele>1215.826</ele>
        <time>2022-02-20T09:05:00Z</time>
      </trkpt>
      <trkpt lat="42.76526" lon="1.58183">
        <ele>1219.28</ele>
        <time>2022-02-20T09:05:02Z</time>
      </trkpt>
      <trkpt lat="42.76528" lon="1.58182">
        <ele>1220.661</ele>
        <time>2022-02-20T09:05:04Z</time>
      </trkpt>
      <trkpt lat="42.76528" lon="1.5818">
        <ele>1222.425</ele>
        <time>2022-02-20T09:05:06Z</time>
      </trkpt>
      <trkpt lat="42.76528" lon="1.58182">
        <ele>1221.857</ele>
        <time>2022-02-20T09:05:08Z</time>
      </trkpt>
      <trkpt lat="42.76527" lon="1.58183">
        <ele>1219.112</ele>
        <time>2022-02-20T09:05:10Z</time>
      </trkpt>
      <trkpt lat="42.76525" lon="1.58185">
        <ele>1216.482</ele>
        <time>2022-02-20T09:05:12Z</time>
      </trkpt>
      <trkpt lat="42.76523" lon="1.58186">
        <ele>1214.71</ele>
        <time>2022-02-20T09:05:14Z</time>
      </trkpt>
      <trkpt lat="42.76521" lon="1.58186">
        <ele>1214.49</ele>
        <time>2022-02-20T09:05:16Z</time>
      </trkpt>
      <trkpt lat="42.7652" lon="1.58187">
        <ele>1214.83</ele>
        <time>2022-02-20T09:05:18Z</time>
      </trkpt>
      <trkpt lat="42.7652" lon="1.58189">
        <ele>1214.841</ele>
        <time>2022-02-20T09:05:20Z</time>
      </trkpt>
      <trkpt lat="42.7652" lon="1.5819">
        <ele>1215.374</ele>
        <time>2022-02-20T09:05:22Z</time>
      </trkpt>
      <trkpt lat="42.7652" lon="1.58191">
        <ele>1216.667</ele>
        <time>2022-02-20T09:05:24Z</time>
      </trkpt>
      <trkpt lat="42.76521" lon="1.58192">
        <ele>1217.862</ele>
        <time>2022-02-20T09:05:26Z</time>
      </trkpt>
      <trkpt lat="42.7652" lon="1.58193">
        <ele>1218.955</ele>
        <time>2022-02-20T09:05:28Z</time>
      </trkpt>
      <trkpt lat="42.76521" lon="1.58194">
        <ele>1221.105</ele>
        <time>2022-02-20T09:05:30Z</time>
      </trkpt>
      <trkpt lat="42.76521" lon="1.58194">
        <ele>1223.211</ele>
        <time>2022-02-20T09:05:32Z</time>
      </trkpt>
      <trkpt lat="42.76521" lon="1.58195">
        <ele>1222.5</ele>
        <time>2022-02-20T09:05:34Z</time>
      </trkpt>
      <trkpt lat="42.76521" lon="1.58196">
        <ele>1224</ele>
        <time>2022-02-20T09:05:36Z</time>
      </trkpt>
      <trkpt lat="42.76522" lon="1.58196">
        <ele>1224.001</ele>
        <time>2022-02-20T09:05:38Z</time>
      </trkpt>
      <trkpt lat="42.76522" lon="1.58196">
        <ele>1225.939</ele>
        <time>2022-02-20T09:05:40Z</time>
      </trkpt>
      <trkpt lat="42.76522" lon="1.58196">
        <ele>1226.505</ele>
        <time>2022-02-20T09:05:42Z</time>
      </trkpt>
      <trkpt lat="42.76523" lon="1.58197">
        <ele>1225.891</ele>
        <time>2022-02-20T09:05:44Z</time>
      </trkpt>
      <trkpt lat="42.76524" lon="1.58199">
        <ele>1226.351</ele>
        <time>2022-02-20T09:05:46Z</time>
      </trkpt>
      <trkpt lat="42.76523" lon="1.582">
        <ele>1225.055</ele>
        <time>2022-02-20T09:05:48Z</time>
      </trkpt>
      <trkpt lat="42.76523" lon="1.58202">
        <ele>1222.67</ele>
        <time>2022-02-20T09:05:50Z</time>
      </trkpt>
      <trkpt lat="42.76523" lon="1.58202">
        <ele>1223.416</ele>
        <time>2022-02-20T09:05:52Z</time>
      </trkpt>
      <trkpt lat="42.76523" lon="1.58203">
        <ele>1222.444</ele>
        <time>2022-02-20T09:05:54Z</time>
      </trkpt>
      <trkpt lat="42.76523" lon="1.58205">
        <ele>1221.325</ele>
        <time>2022-02-20T09:05:56Z</time>
      </trkpt>
      <trkpt lat="42.76523" lon="1.58206">
        <ele>1221.738</ele>
        <time>2022-02-20T09:05:58Z</time>
      </trkpt>
      <trkpt lat="42.76524" lon="1.58207">
        <ele>1221.192</ele>
        <time>2022-02-20T09:06:00Z</time>
      </trkpt>
      <trkpt lat="42.76524" lon="1.58209">
        <ele>1220.228</ele>
        <time>2022-02-20T09:06:02Z</time>
      </trkpt>
      <trkpt lat="42.76524" lon="1.5821">
        <ele>1219.704</ele>
        <time>2022-02-20T09:06:04Z</time>
      </trkpt>
      <trkpt lat="42.76523" lon="1.58211">
        <ele>1221.72</ele>
        <time>2022-02-20T09:06:06Z</time>
      </trkpt>
      <trkpt lat="42.76524" lon="1.58212">
        <ele>1222.798</ele>
        <time>2022-02-20T09:06:08Z</time>
      </trkpt>
      <trkpt lat="42.76524" lon="1.58213">
        <ele>1224.466</ele>
        <time>2022-02-20T09:06:10Z</time>
      </trkpt>
      <trkpt lat="42.76525" lon="1.58214">
        <ele>1225.627</ele>
        <time>2022-02-20T09:06:12Z</time>
      </trkpt>
      <trkpt lat="42.76525" lon="1.58215">
        <ele>1226.21</ele>
        <time>2022-02-20T09:06:14Z</time>
      </trkpt>
      <trkpt lat="42.76525" lon="1.58216">
        <ele>1228.015</ele>
        <time>2022-02-20T09:06:16Z</time>
      </trkpt>
      <trkpt lat="42.76526" lon="1.58216">
        <ele>1230.194</ele>
        <time>2022-02-20T09:06:18Z</time>
      </trkpt>
      <trkpt lat="42.76526" lon="1.58217">
        <ele>1231.059</ele>
        <time>2022-02-20T09:06:20Z</time>
      </trkpt>
      <trkpt lat="42.76526" lon="1.58218">
        <ele>1231.867</ele>
        <time>2022-02-20T09:06:22Z</time>
      </trkpt>
      <trkpt lat="42.76526" lon="1.58219">
        <ele>1234.868</ele>
        <time>2022-02-20T09:06:24Z</time>
      </trkpt>
      <trkpt lat="42.76527" lon="1.5822">
        <ele>1237.07</ele>
        <time>2022-02-20T09:06:26Z</time>
      </trkpt>
      <trkpt lat="42.76528" lon="1.58221">
        <ele>1237.979</ele>
        <time>2022-02-20T09:06:28Z</time>
      </trkpt>
      <trkpt lat="42.76528" lon="1.58222">
        <ele>1237.655</ele>
        <time>2022-02-20T09:06:30Z</time>
      </trkpt>
      <trkpt lat="42.76527" lon="1.58223">
        <ele>1233.658</ele>
        <time>2022-02-20T09:06:32Z</time>
      </trkpt>
      <trkpt lat="42.76526" lon="1.58224">
        <ele>1232.945</ele>
        <time>2022-02-20T09:06:34Z</time>
      </trkpt>
      <trkpt lat="42.76526" lon="1.58225">
        <ele>1232.354</ele>
        <time>2022-02-20T09:06:36Z</time>
      </trkpt>
      <trkpt lat="42.76526" lon="1.58226">
        <ele>1233.151</ele>
        <time>2022-02-20T09:06:38Z</time>
      </trkpt>
      <trkpt lat="42.76525" lon="1.58228">
        <ele>1232.857</ele>
        <time>2022-02-20T09:06:40Z</time>
      </trkpt>
      <trkpt lat="42.76526" lon="1.58229">
        <ele>1233.397</ele>
        <time>2022-02-20T09:06:42Z</time>
      </trkpt>
      <trkpt lat="42.76526" lon="1.5823">
        <ele>1235.447</ele>
        <time>2022-02-20T09:06:44Z</time>
      </trkpt>
      <trkpt lat="42.76526" lon="1.58231">
        <ele>1236.153</ele>
        <time>2022-02-20T09:06:46Z</time>
      </trkpt>
      <trkpt lat="42.76527" lon="1.58232">
        <ele>1236.682</ele>
        <time>2022-02-20T09:06:48Z</time>
      </trkpt>
      <trkpt lat="42.76527" lon="1.58233">
        <ele>1237.704</ele>
        <time>2022-02-20T09:06:50Z</time>
      </trkpt>
      <trkpt lat="42.76528" lon="1.58234">
        <ele>1238.195</ele>
        <time>2022-02-20T09:06:52Z</time>
      </trkpt>
      <trkpt lat="42.76528" lon="1.58235">
        <ele>1238.754</ele>
        <time>2022-02-20T09:06:54Z</time>
      </trkpt>
      <trkpt lat="42.76529" lon="1.58236">
        <ele>1240.39</ele>
        <time>2022-02-20T09:06:56Z</time>
      </trkpt>
      <trkpt lat="42.76529" lon="1.58237">
        <ele>1241.383</ele>
        <time>2022-02-20T09:06:58Z</time>
      </trkpt>
      <trkpt lat="42.76529" lon="1.58239">
        <ele>1242.681</ele>
        <time>2022-02-20T09:07:00Z</time>
      </trkpt>
      <trkpt lat="42.7653" lon="1.5824">
        <ele>1242.837</ele>
        <time>2022-02-20T09:07:02Z</time>
      </trkpt>
      <trkpt lat="42.7653" lon="1.58241">
        <ele>1244.306</ele>
        <time>2022-02-20T09:07:04Z</time>
      </trkpt>
      <trkpt lat="42.7653" lon="1.58242">
        <ele>1244.879</ele>
        <time>2022-02-20T09:07:06Z</time>
      </trkpt>
      <trkpt lat="42.7653" lon="1.58244">
        <ele>1242.969</ele>
        <time>2022-02-20T09:07:08Z</time>
      </trkpt>
      <trkpt lat="42.76529" lon="1.58245">
        <ele>1241.753</ele>
        <time>2022-02-20T09:07:10Z</time>
      </trkpt>
      <trkpt lat="42.76529" lon="1.58246">
        <ele>1243.057</ele>
        <time>2022-02-20T09:07:12Z</time>
      </trkpt>
      <trkpt lat="42.76529" lon="1.58247">
        <ele>1242.188</ele>
        <time>2022-02-20T09:07:14Z</time>
      </trkpt>
      <trkpt lat="42.7653" lon="1.58248">
        <ele>1242.395</ele>
        <time>2022-02-20T09:07:16Z</time>
      </trkpt>
      <trkpt lat="42.7653" lon="1.58249">
        <ele>1242.679</ele>
        <time>2022-02-20T09:07:18Z</time>
      </trkpt>
      <trkpt lat="42.76531" lon="1.58249">
        <ele>1244.842</ele>
        <time>2022-02-20T09:07:20Z</time>
      </trkpt>
      <trkpt lat="42.76531" lon="1.5825">
        <ele>1245.698</ele>
        <time>2022-02-20T09:07:22Z</time>
      </trkpt>
      <trkpt lat="42.76531" lon="1.58251">
        <ele>1247.066</ele>
        <time>2022-02-20T09:07:24Z</time>
      </trkpt>
      <trkpt lat="42.76531" lon="1.58253">
        <ele>1246.465</ele>
        <time>2022-02-20T09:07:26Z</time>
      </trkpt>
      <trkpt lat="42.7653" lon="1.58255">
        <ele>1243.796</ele>
        <time>2022-02-20T09:07:28Z</time>
      </trkpt>
      <trkpt lat="42.76529" lon="1.58256">
        <ele>1242.265</ele>
        <time>2022-02-20T09:07:30Z</time>
      </trkpt>
      <trkpt lat="42.7653" lon="1.58257">
        <ele>1244.659</ele>
        <time>2022-02-20T09:07:32Z</time>
      </trkpt>
      <trkpt lat="42.76529" lon="1.58259">
        <ele>1243.433</ele>
        <time>2022-02-20T09:07:34Z</time>
      </trkpt>
      <trkpt lat="42.76529" lon="1.58261">
        <ele>1241.063</ele>
        <time>2022-02-20T09:07:36Z</time>
      </trkpt>
      <trkpt lat="42.76529" lon="1.58263">
        <ele>1239.611</ele>
        <time>2022-02-20T09:07:38Z</time>
      </trkpt>
      <trkpt lat="42.76529" lon="1.58264">
        <ele>1239.914</ele>
        <time>2022-02-20T09:07:40Z</time>
      </trkpt>
      <trkpt lat="42.76528" lon="1.58266">
        <ele>1239.957</ele>
        <time>2022-02-20T09:07:42Z</time>
      </trkpt>
      <trkpt lat="42.76528" lon="1.58267">
        <ele>1238.555</ele>
        <time>2022-02-20T09:07:44Z</time>
      </trkpt>
      <trkpt lat="42.76528" lon="1.58269">
        <ele>1238.582</ele>
        <time>2022-02-20T09:07:46Z</time>
      </trkpt>
      <trkpt lat="42.76528" lon="1.5827">
        <ele>1239.89</ele>
        <time>2022-02-20T09:07:48Z</time>
      </trkpt>
      <trkpt lat="42.76528" lon="1.58272">
        <ele>1239.664</ele>
        <time>2022-02-20T09:07:50Z</time>
      </trkpt>
      <trkpt lat="42.76528" lon="1.58274">
        <ele>1240.074</ele>
        <time>2022-02-20T09:07:52Z</time>
      </trkpt>
      <trkpt lat="42.76527" lon="1.58275">
        <ele>1238.961</ele>
        <time>2022-02-20T09:07:54Z</time>
      </trkpt>
      <trkpt lat="42.76527" lon="1.58276">
        <ele>1238.355</ele>
        <time>2022-02-20T09:07:56Z</time>
      </trkpt>
      <trkpt lat="42.76528" lon="1.58277">
        <ele>1238.449</ele>
        <time>2022-02-20T09:07:58Z</time>
      </trkpt>
      <trkpt lat="42.76528" lon="1.58279">
        <ele>1237.417</ele>
        <time>2022-02-20T09:08:00Z</time>
      </trkpt>
      <trkpt lat="42.76527" lon="1.58281">
        <ele>1239.279</ele>
        <time>2022-02-20T09:08:02Z</time>
      </trkpt>
      <trkpt lat="42.76527" lon="1.58283">
        <ele>1239.941</ele>
        <time>2022-02-20T09:08:04Z</time>
      </trkpt>
      <trkpt lat="42.76527" lon="1.58285">
        <ele>1240.184</ele>
        <time>2022-02-20T09:08:06Z</time>
      </trkpt>
      <trkpt lat="42.76527" lon="1.58287">
        <ele>1241.769</ele>
        <time>2022-02-20T09:08:08Z</time>
      </trkpt>
      <trkpt lat="42.76526" lon="1.58289">
        <ele>1241.94</ele>
        <time>2022-02-20T09:08:10Z</time>
      </trkpt>
      <trkpt lat="42.76526" lon="1.5829">
        <ele>1243.62</ele>
        <time>2022-02-20T09:08:12Z</time>
      </trkpt>
      <trkpt lat="42.76526" lon="1.58293">
        <ele>1245.399</ele>
        <time>2022-02-20T09:08:14Z</time>
      </trkpt>
      <trkpt lat="42.76526" lon="1.58296">
        <ele>1246.795</ele>
        <time>2022-02-20T09:08:16Z</time>
      </trkpt>
      <trkpt lat="42.76526" lon="1.58298">
        <ele>1245.746</ele>
        <time>2022-02-20T09:08:18Z</time>
      </trkpt>
      <trkpt lat="42.76525" lon="1.583">
        <ele>1244.911</ele>
        <time>2022-02-20T09:08:20Z</time>
      </trkpt>
      <trkpt lat="42.76524" lon="1.58301">
        <ele>1245.243</ele>
        <time>2022-02-20T09:08:22Z</time>
      </trkpt>
      <trkpt lat="42.76524" lon="1.58302">
        <ele>1247.485</ele>
        <time>2022-02-20T09:08:24Z</time>
      </trkpt>
      <trkpt lat="42.76523" lon="1.58304">
        <ele>1247.01</ele>
        <time>2022-02-20T09:08:26Z</time>
      </trkpt>
      <trkpt lat="42.76522" lon="1.58304">
        <ele>1245.9</ele>
        <time>2022-02-20T09:08:28Z</time>
      </trkpt>
      <trkpt lat="42.76521" lon="1.58305">
        <ele>1245.499</ele>
        <time>2022-02-20T09:08:30Z</time>
      </trkpt>
      <trkpt lat="42.76519" lon="1.58307">
        <ele>1243.542</ele>
        <time>2022-02-20T09:08:32Z</time>
      </trkpt>
      <trkpt lat="42.76518" lon="1.58309">
        <ele>1241.703</ele>
        <time>2022-02-20T09:08:34Z</time>
      </trkpt>
      <trkpt lat="42.76518" lon="1.58312">
        <ele>1243.102</ele>
        <time>2022-02-20T09:08:36Z</time>
      </trkpt>
      <trkpt lat="42.76517" lon="1.58313">
        <ele>1245.561</ele>
        <time>2022-02-20T09:08:38Z</time>
      </trkpt>
      <trkpt lat="42.76517" lon="1.58315">
        <ele>1241.856</ele>
        <time>2022-02-20T09:08:40Z</time>
      </trkpt>
      <trkpt lat="42.76515" lon="1.58316">
        <ele>1241.612</ele>
        <time>2022-02-20T09:08:42Z</time>
      </trkpt>
      <trkpt lat="42.76516" lon="1.58318">
        <ele>1241.327</ele>
        <time>2022-02-20T09:08:44Z</time>
      </trkpt>
      <trkpt lat="42.76516" lon="1.58319">
        <ele>1240.782</ele>
        <time>2022-02-20T09:08:46Z</time>
      </trkpt>
      <trkpt lat="42.76516" lon="1.5832">
        <ele>1241.604</ele>
        <time>2022-02-20T09:08:48Z</time>
      </trkpt>
      <trkpt lat="42.76516" lon="1.58321">
        <ele>1241.551</ele>
        <time>2022-02-20T09:08:50Z</time>
      </trkpt>
      <trkpt lat="42.76516" lon="1.58322">
        <ele>1241.756</ele>
        <time>2022-02-20T09:08:52Z</time>
      </trkpt>
      <trkpt lat="42.76515" lon="1.58324">
        <ele>1242.266</ele>
        <time>2022-02-20T09:08:54Z</time>
      </trkpt>
      <trkpt lat="42.76515" lon="1.58325">
        <ele>1243.099</ele>
        <time>2022-02-20T09:08:56Z</time>
      </trkpt>
      <trkpt lat="42.76515" lon="1.58326">
        <ele>1243.418</ele>
        <time>2022-02-20T09:08:58Z</time>
      </trkpt>
      <trkpt lat="42.76514" lon="1.58328">
        <ele>1242.789</ele>
        <time>2022-02-20T09:09:00Z</time>
      </trkpt>
      <trkpt lat="42.76515" lon="1.58329">
        <ele>1244.644</ele>
        <time>2022-02-20T09:09:02Z</time>
      </trkpt>
      <trkpt lat="42.76515" lon="1.58331">
        <ele>1244.981</ele>
        <time>2022-02-20T09:09:04Z</time>
      </trkpt>
      <trkpt lat="42.76515" lon="1.58332">
        <ele>1243.956</ele>
        <time>2022-02-20T09:09:06Z</time>
      </trkpt>
      <trkpt lat="42.76514" lon="1.58333">
        <ele>1241.35</ele>
        <time>2022-02-20T09:09:08Z</time>
      </trkpt>
      <trkpt lat="42.76514" lon="1.58333">
        <ele>1240.897</ele>
        <time>2022-02-20T09:09:10Z</time>
      </trkpt>
      <trkpt lat="42.76513" lon="1.58335">
        <ele>1241.024</ele>
        <time>2022-02-20T09:09:12Z</time>
      </trkpt>
      <trkpt lat="42.76513" lon="1.58336">
        <ele>1239.06</ele>
        <time>2022-02-20T09:09:14Z</time>
      </trkpt>
      <trkpt lat="42.76513" lon="1.58338">
        <ele>1238.704</ele>
        <time>2022-02-20T09:09:16Z</time>
      </trkpt>
      <trkpt lat="42.76513" lon="1.58338">
        <ele>1238.959</ele>
        <time>2022-02-20T09:09:18Z</time>
      </trkpt>
      <trkpt lat="42.76513" lon="1.58339">
        <ele>1239.255</ele>
        <time>2022-02-20T09:09:20Z</time>
      </trkpt>
      <trkpt lat="42.76512" lon="1.58341">
        <ele>1239.177</ele>
        <time>2022-02-20T09:09:22Z</time>
      </trkpt>
      <trkpt lat="42.76511" lon="1.58343">
        <ele>1237.873</ele>
        <time>2022-02-20T09:09:24Z</time>
      </trkpt>
      <trkpt lat="42.76511" lon="1.58346">
        <ele>1236.734</ele>
        <time>2022-02-20T09:09:26Z</time>
      </trkpt>
      <trkpt lat="42.7651" lon="1.58347">
        <ele>1236.418</ele>
        <time>2022-02-20T09:09:28Z</time>
      </trkpt>
      <trkpt lat="42.7651" lon="1.58348">
        <ele>1239.017</ele>
        <time>2022-02-20T09:09:30Z</time>
      </trkpt>
      <trkpt lat="42.7651" lon="1.58349">
        <ele>1239.07</ele>
        <time>2022-02-20T09:09:32Z</time>
      </trkpt>
      <trkpt lat="42.7651" lon="1.58351">
        <ele>1240.527</ele>
        <time>2022-02-20T09:09:34Z</time>
      </trkpt>
      <trkpt lat="42.76509" lon="1.58353">
        <ele>1240.505</ele>
        <time>2022-02-20T09:09:36Z</time>
      </trkpt>
      <trkpt lat="42.76509" lon="1.58355">
        <ele>1241.068</ele>
        <time>2022-02-20T09:09:38Z</time>
      </trkpt>
      <trkpt lat="42.7651" lon="1.58356">
        <ele>1242.868</ele>
        <time>2022-02-20T09:09:40Z</time>
      </trkpt>
      <trkpt lat="42.76509" lon="1.58358">
        <ele>1242.424</ele>
        <time>2022-02-20T09:09:42Z</time>
      </trkpt>
      <trkpt lat="42.7651" lon="1.5836">
        <ele>1242.423</ele>
        <time>2022-02-20T09:09:44Z</time>
      </trkpt>
      <trkpt lat="42.7651" lon="1.58362">
        <ele>1243.425</ele>
        <time>2022-02-20T09:09:46Z</time>
      </trkpt>
      <trkpt lat="42.76509" lon="1.58362">
        <ele>1244.213</ele>
        <time>2022-02-20T09:09:48Z</time>
      </trkpt>
      <trkpt lat="42.76508" lon="1.58364">
        <ele>1244.651</ele>
        <time>2022-02-20T09:09:50Z</time>
      </trkpt>
      <trkpt lat="42.76508" lon="1.58366">
        <ele>1245.122</ele>
        <time>2022-02-20T09:09:52Z</time>
      </trkpt>
      <trkpt lat="42.76507" lon="1.58367">
        <ele>1245.572</ele>
        <time>2022-02-20T09:09:54Z</time>
      </trkpt>
      <trkpt lat="42.76506" lon="1.5837">
        <ele>1245.502</ele>
        <time>2022-02-20T09:09:56Z</time>
      </trkpt>
      <trkpt lat="42.76506" lon="1.58372">
        <ele>1244.789</ele>
        <time>2022-02-20T09:09:58Z</time>
      </trkpt>
      <trkpt lat="42.76506" lon="1.58374">
        <ele>1243.675</ele>
        <time>2022-02-20T09:10:00Z</time>
      </trkpt>
      <trkpt lat="42.76506" lon="1.58375">
        <ele>1243.742</ele>
        <time>2022-02-20T09:10:02Z</time>
      </trkpt>
      <trkpt lat="42.76507" lon="1.58377">
        <ele>1243.289</ele>
        <time>2022-02-20T09:10:05Z</time>
      </trkpt>
      <trkpt lat="42.76506" lon="1.58378">
        <ele>1241.621</ele>
        <time>2022-02-20T09:10:07Z</time>
      </trkpt>
      <trkpt lat="42.76506" lon="1.58379">
        <ele>1239.26</ele>
        <time>2022-02-20T09:10:09Z</time>
      </trkpt>
      <trkpt lat="42.76507" lon="1.5838">
        <ele>1237.299</ele>
        <time>2022-02-20T09:10:11Z</time>
      </trkpt>
      <trkpt lat="42.76507" lon="1.58381">
        <ele>1236.435</ele>
        <time>2022-02-20T09:10:13Z</time>
      </trkpt>
      <trkpt lat="42.76507" lon="1.58383">
        <ele>1234.268</ele>
        <time>2022-02-20T09:10:15Z</time>
      </trkpt>
      <trkpt lat="42.76508" lon="1.58385">
        <ele>1233.477</ele>
        <time>2022-02-20T09:10:17Z</time>
      </trkpt>
      <trkpt lat="42.76508" lon="1.58385">
        <ele>1233.762</ele>
        <time>2022-02-20T09:10:19Z</time>
      </trkpt>
      <trkpt lat="42.76508" lon="1.58386">
        <ele>1231.908</ele>
        <time>2022-02-20T09:10:21Z</time>
      </trkpt>
      <trkpt lat="42.76509" lon="1.58388">
        <ele>1230.266</ele>
        <time>2022-02-20T09:10:23Z</time>
      </trkpt>
      <trkpt lat="42.76509" lon="1.58389">
        <ele>1228.611</ele>
        <time>2022-02-20T09:10:25Z</time>
      </trkpt>
      <trkpt lat="42.76509" lon="1.58391">
        <ele>1229.171</ele>
        <time>2022-02-20T09:10:27Z</time>
      </trkpt>
      <trkpt lat="42.76509" lon="1.58393">
        <ele>1229.394</ele>
        <time>2022-02-20T09:10:29Z</time>
      </trkpt>
      <trkpt lat="42.76509" lon="1.58394">
        <ele>1231.555</ele>
        <time>2022-02-20T09:10:31Z</time>
      </trkpt>
      <trkpt lat="42.76508" lon="1.58395">
        <ele>1232.717</ele>
        <time>2022-02-20T09:10:33Z</time>
      </trkpt>
      <trkpt lat="42.76508" lon="1.58396">
        <ele>1231.105</ele>
        <time>2022-02-20T09:10:35Z</time>
      </trkpt>
      <trkpt lat="42.76507" lon="1.58398">
        <ele>1231.918</ele>
        <time>2022-02-20T09:10:37Z</time>
      </trkpt>
      <trkpt lat="42.76507" lon="1.58399">
        <ele>1230.51</ele>
        <time>2022-02-20T09:10:39Z</time>
      </trkpt>
      <trkpt lat="42.76506" lon="1.584">
        <ele>1230.124</ele>
        <time>2022-02-20T09:10:41Z</time>
      </trkpt>
      <trkpt lat="42.76506" lon="1.58402">
        <ele>1231.471</ele>
        <time>2022-02-20T09:10:43Z</time>
      </trkpt>
      <trkpt lat="42.76505" lon="1.58402">
        <ele>1231.577</ele>
        <time>2022-02-20T09:10:45Z</time>
      </trkpt>
      <trkpt lat="42.76505" lon="1.58404">
        <ele>1233</ele>
        <time>2022-02-20T09:10:47Z</time>
      </trkpt>
      <trkpt lat="42.76505" lon="1.58407">
        <ele>1233.458</ele>
        <time>2022-02-20T09:10:49Z</time>
      </trkpt>
      <trkpt lat="42.76505" lon="1.58409">
        <ele>1232.918</ele>
        <time>2022-02-20T09:10:51Z</time>
      </trkpt>
      <trkpt lat="42.76504" lon="1.58412">
        <ele>1232.107</ele>
        <time>2022-02-20T09:10:53Z</time>
      </trkpt>
      <trkpt lat="42.76505" lon="1.58414">
        <ele>1232.1</ele>
        <time>2022-02-20T09:10:55Z</time>
      </trkpt>
      <trkpt lat="42.76504" lon="1.58416">
        <ele>1231.621</ele>
        <time>2022-02-20T09:10:57Z</time>
      </trkpt>
      <trkpt lat="42.76504" lon="1.58418">
        <ele>1229.195</ele>
        <time>2022-02-20T09:10:59Z</time>
      </trkpt>
      <trkpt lat="42.76504" lon="1.5842">
        <ele>1229.145</ele>
        <time>2022-02-20T09:11:01Z</time>
      </trkpt>
      <trkpt lat="42.76504" lon="1.58422">
        <ele>1227.063</ele>
        <time>2022-02-20T09:11:03Z</time>
      </trkpt>
      <trkpt lat="42.76504" lon="1.58424">
        <ele>1225.862</ele>
        <time>2022-02-20T09:11:05Z</time>
      </trkpt>
      <trkpt lat="42.76504" lon="1.58425">
        <ele>1226.467</ele>
        <time>2022-02-20T09:11:07Z</time>
      </trkpt>
      <trkpt lat="42.76503" lon="1.58427">
        <ele>1226.728</ele>
        <time>2022-02-20T09:11:09Z</time>
      </trkpt>
      <trkpt lat="42.76503" lon="1.58429">
        <ele>1227.258</ele>
        <time>2022-02-20T09:11:11Z</time>
      </trkpt>
      <trkpt lat="42.76503" lon="1.5843">
        <ele>1226.578</ele>
        <time>2022-02-20T09:11:13Z</time>
      </trkpt>
      <trkpt lat="42.76503" lon="1.58431">
        <ele>1226.828</ele>
        <time>2022-02-20T09:11:15Z</time>
      </trkpt>
      <trkpt lat="42.76502" lon="1.58433">
        <ele>1227.482</ele>
        <time>2022-02-20T09:11:17Z</time>
      </trkpt>
      <trkpt lat="42.76502" lon="1.58435">
        <ele>1226.398</ele>
        <time>2022-02-20T09:11:19Z</time>
      </trkpt>
      <trkpt lat="42.76501" lon="1.58436">
        <ele>1226.823</ele>
        <time>2022-02-20T09:11:21Z</time>
      </trkpt>
      <trkpt lat="42.76501" lon="1.58438">
        <ele>1225.05</ele>
        <time>2022-02-20T09:11:23Z</time>
      </trkpt>
      <trkpt lat="42.76501" lon="1.5844">
        <ele>1223.258</ele>
        <time>2022-02-20T09:11:25Z</time>
      </trkpt>
      <trkpt lat="42.765" lon="1.58441">
        <ele>1221.648</ele>
        <time>2022-02-20T09:11:27Z</time>
      </trkpt>
      <trkpt lat="42.76499" lon="1.58443">
        <ele>1220.338</ele>
        <time>2022-02-20T09:11:29Z</time>
      </trkpt>
      <trkpt lat="42.76499" lon="1.58444">
        <ele>1220.563</ele>
        <time>2022-02-20T09:11:31Z</time>
      </trkpt>
      <trkpt lat="42.76498" lon="1.58444">
        <ele>1220.744</ele>
        <time>2022-02-20T09:11:33Z</time>
      </trkpt>
      <trkpt lat="42.76497" lon="1.58445">
        <ele>1220.828</ele>
        <time>2022-02-20T09:11:35Z</time>
      </trkpt>
      <trkpt lat="42.76498" lon="1.58448">
        <ele>1219.517</ele>
        <time>2022-02-20T09:11:37Z</time>
      </trkpt>
      <trkpt lat="42.76497" lon="1.58449">
        <ele>1219.003</ele>
        <time>2022-02-20T09:11:39Z</time>
      </trkpt>
      <trkpt lat="42.76497" lon="1.5845">
        <ele>1216.809</ele>
        <time>2022-02-20T09:11:41Z</time>
      </trkpt>
      <trkpt lat="42.76497" lon="1.5845">
        <ele>1215.864</ele>
        <time>2022-02-20T09:11:43Z</time>
      </trkpt>
      <trkpt lat="42.76497" lon="1.5845">
        <ele>1215.874</ele>
        <time>2022-02-20T09:11:45Z</time>
      </trkpt>
      <trkpt lat="42.76497" lon="1.5845">
        <ele>1215.91</ele>
        <time>2022-02-20T09:11:47Z</time>
      </trkpt>
      <trkpt lat="42.76497" lon="1.5845">
        <ele>1215.963</ele>
        <time>2022-02-20T09:11:49Z</time>
      </trkpt>
      <trkpt lat="42.76497" lon="1.5845">
        <ele>1215.996</ele>
        <time>2022-02-20T09:11:51Z</time>
      </trkpt>
      <trkpt lat="42.76497" lon="1.5845">
        <ele>1215.993</ele>
        <time>2022-02-20T09:11:53Z</time>
      </trkpt>
      <trkpt lat="42.76497" lon="1.5845">
        <ele>1215.998</ele>
        <time>2022-02-20T09:11:55Z</time>
      </trkpt>
      <trkpt lat="42.76497" lon="1.5845">
        <ele>1216.063</ele>
        <time>2022-02-20T09:11:57Z</time>
      </trkpt>
      <trkpt lat="42.76497" lon="1.5845">
        <ele>1216.072</ele>
        <time>2022-02-20T09:11:59Z</time>
      </trkpt>
      <trkpt lat="42.76497" lon="1.5845">
        <ele>1216.084</ele>
        <time>2022-02-20T09:12:01Z</time>
      </trkpt>
      <trkpt lat="42.76497" lon="1.5845">
        <ele>1216.106</ele>
        <time>2022-02-20T09:12:03Z</time>
      </trkpt>
      <trkpt lat="42.76497" lon="1.5845">
        <ele>1216.124</ele>
        <time>2022-02-20T09:12:05Z</time>
      </trkpt>
      <trkpt lat="42.76497" lon="1.5845">
        <ele>1216.138</ele>
        <time>2022-02-20T09:12:07Z</time>
      </trkpt>
      <trkpt lat="42.76497" lon="1.5845">
        <ele>1216.159</ele>
        <time>2022-02-20T09:12:09Z</time>
      </trkpt>
      <trkpt lat="42.76497" lon="1.5845">
        <ele>1216.198</ele>
        <time>2022-02-20T09:12:11Z</time>
      </trkpt>
      <trkpt lat="42.76497" lon="1.5845">
        <ele>1216.251</ele>
        <time>2022-02-20T09:12:13Z</time>
      </trkpt>
      <trkpt lat="42.76497" lon="1.5845">
        <ele>1216.31</ele>
        <time>2022-02-20T09:12:15Z</time>
      </trkpt>
      <trkpt lat="42.76497" lon="1.5845">
        <ele>1216.348</ele>
        <time>2022-02-20T09:12:17Z</time>
      </trkpt>
      <trkpt lat="42.76497" lon="1.58451">
        <ele>1216.98</ele>
        <time>2022-02-20T09:12:19Z</time>
      </trkpt>
      <trkpt lat="42.76496" lon="1.58451">
        <ele>1217.487</ele>
        <time>2022-02-20T09:12:21Z</time>
      </trkpt>
      <trkpt lat="42.76496" lon="1.58451">
        <ele>1217.635</ele>
        <time>2022-02-20T09:12:23Z</time>
      </trkpt>
      <trkpt lat="42.76496" lon="1.58451">
        <ele>1217.781</ele>
        <time>2022-02-20T09:12:25Z</time>
      </trkpt>
      <trkpt lat="42.76496" lon="1.58451">
        <ele>1217.827</ele>
        <time>2022-02-20T09:12:27Z</time>
      </trkpt>
      <trkpt lat="42.76496" lon="1.58451">
        <ele>1217.871</ele>
        <time>2022-02-20T09:12:29Z</time>
      </trkpt>
      <trkpt lat="42.76496" lon="1.58451">
        <ele>1218.012</ele>
        <time>2022-02-20T09:12:31Z</time>
      </trkpt>
      <trkpt lat="42.76496" lon="1.58451">
        <ele>1218.132</ele>
        <time>2022-02-20T09:12:33Z</time>
      </trkpt>
      <trkpt lat="42.76496" lon="1.58451">
        <ele>1218.243</ele>
        <time>2022-02-20T09:12:35Z</time>
      </trkpt>
      <trkpt lat="42.76495" lon="1.58451">
        <ele>1218.35</ele>
        <time>2022-02-20T09:12:37Z</time>
      </trkpt>
      <trkpt lat="42.76495" lon="1.58452">
        <ele>1218.441</ele>
        <time>2022-02-20T09:12:39Z</time>
      </trkpt>
      <trkpt lat="42.76495" lon="1.58452">
        <ele>1218.518</ele>
        <time>2022-02-20T09:12:41Z</time>
      </trkpt>
      <trkpt lat="42.76495" lon="1.58452">
        <ele>1218.584</ele>
        <time>2022-02-20T09:12:43Z</time>
      </trkpt>
      <trkpt lat="42.76495" lon="1.58452">
        <ele>1218.675</ele>
        <time>2022-02-20T09:12:45Z</time>
      </trkpt>
      <trkpt lat="42.76495" lon="1.58452">
        <ele>1218.779</ele>
        <time>2022-02-20T09:12:47Z</time>
      </trkpt>
      <trkpt lat="42.76495" lon="1.58452">
        <ele>1218.92</ele>
        <time>2022-02-20T09:12:49Z</time>
      </trkpt>
      <trkpt lat="42.76495" lon="1.58452">
        <ele>1219.051</ele>
        <time>2022-02-20T09:12:51Z</time>
      </trkpt>
      <trkpt lat="42.76494" lon="1.58452">
        <ele>1219.687</ele>
        <time>2022-02-20T09:12:53Z</time>
      </trkpt>
      <trkpt lat="42.76494" lon="1.58452">
        <ele>1219.787</ele>
        <time>2022-02-20T09:12:55Z</time>
      </trkpt>
      <trkpt lat="42.76494" lon="1.58452">
        <ele>1219.906</ele>
        <time>2022-02-20T09:12:57Z</time>
      </trkpt>
      <trkpt lat="42.76493" lon="1.58452">
        <ele>1221.726</ele>
        <time>2022-02-20T09:12:59Z</time>
      </trkpt>
      <trkpt lat="42.76492" lon="1.58454">
        <ele>1222.572</ele>
        <time>2022-02-20T09:13:01Z</time>
      </trkpt>
      <trkpt lat="42.76492" lon="1.58455">
        <ele>1222.977</ele>
        <time>2022-02-20T09:13:03Z</time>
      </trkpt>
      <trkpt lat="42.76491" lon="1.58457">
        <ele>1224.997</ele>
        <time>2022-02-20T09:13:05Z</time>
      </trkpt>
      <trkpt lat="42.7649" lon="1.58457">
        <ele>1225.221</ele>
        <time>2022-02-20T09:13:07Z</time>
      </trkpt>
      <trkpt lat="42.7649" lon="1.58457">
        <ele>1225.405</ele>
        <time>2022-02-20T09:13:09Z</time>
      </trkpt>
      <trkpt lat="42.7649" lon="1.58457">
        <ele>1225.995</ele>
        <time>2022-02-20T09:13:11Z</time>
      </trkpt>
      <trkpt lat="42.76489" lon="1.58458">
        <ele>1226.854</ele>
        <time>2022-02-20T09:13:13Z</time>
      </trkpt>
      <trkpt lat="42.76489" lon="1.58458">
        <ele>1226.945</ele>
        <time>2022-02-20T09:13:15Z</time>
      </trkpt>
      <trkpt lat="42.76489" lon="1.58458">
        <ele>1227.045</ele>
        <time>2022-02-20T09:13:17Z</time>
      </trkpt>
      <trkpt lat="42.76489" lon="1.58458">
        <ele>1227.104</ele>
        <time>2022-02-20T09:13:19Z</time>
      </trkpt>
      <trkpt lat="42.76489" lon="1.58458">
        <ele>1227.217</ele>
        <time>2022-02-20T09:13:21Z</time>
      </trkpt>
      <trkpt lat="42.76489" lon="1.58458">
        <ele>1227.351</ele>
        <time>2022-02-20T09:13:23Z</time>
      </trkpt>
      <trkpt lat="42.76488" lon="1.58459">
        <ele>1228.379</ele>
        <time>2022-02-20T09:13:25Z</time>
      </trkpt>
      <trkpt lat="42.76488" lon="1.58459">
        <ele>1228.461</ele>
        <time>2022-02-20T09:13:27Z</time>
      </trkpt>
      <trkpt lat="42.76488" lon="1.58459">
        <ele>1228.491</ele>
        <time>2022-02-20T09:13:29Z</time>
      </trkpt>
      <trkpt lat="42.76488" lon="1.58459">
        <ele>1228.519</ele>
        <time>2022-02-20T09:13:31Z</time>
      </trkpt>
      <trkpt lat="42.76488" lon="1.58459">
        <ele>1228.596</ele>
        <time>2022-02-20T09:13:33Z</time>
      </trkpt>
      <trkpt lat="42.76488" lon="1.58459">
        <ele>1228.741</ele>
        <time>2022-02-20T09:13:35Z</time>
      </trkpt>
      <trkpt lat="42.76488" lon="1.58459">
        <ele>1228.853</ele>
        <time>2022-02-20T09:13:37Z</time>
      </trkpt>
      <trkpt lat="42.76488" lon="1.58459">
        <ele>1228.912</ele>
        <time>2022-02-20T09:13:39Z</time>
      </trkpt>
      <trkpt lat="42.76487" lon="1.58459">
        <ele>1228.979</ele>
        <time>2022-02-20T09:13:41Z</time>
      </trkpt>
      <trkpt lat="42.76487" lon="1.58459">
        <ele>1229.068</ele>
        <time>2022-02-20T09:13:43Z</time>
      </trkpt>
      <trkpt lat="42.76487" lon="1.58459">
        <ele>1229.152</ele>
        <time>2022-02-20T09:13:45Z</time>
      </trkpt>
      <trkpt lat="42.76487" lon="1.58459">
        <ele>1229.197</ele>
        <time>2022-02-20T09:13:47Z</time>
      </trkpt>
      <trkpt lat="42.76487" lon="1.58459">
        <ele>1229.234</ele>
        <time>2022-02-20T09:13:49Z</time>
      </trkpt>
      <trkpt lat="42.76487" lon="1.58459">
        <ele>1229.284</ele>
        <time>2022-02-20T09:13:51Z</time>
      </trkpt>
      <trkpt lat="42.76487" lon="1.58459">
        <ele>1229.34</ele>
        <time>2022-02-20T09:13:53Z</time>
      </trkpt>
      <trkpt lat="42.76487" lon="1.58459">
        <ele>1229.464</ele>
        <time>2022-02-20T09:13:55Z</time>
      </trkpt>
      <trkpt lat="42.76487" lon="1.58459">
        <ele>1229.524</ele>
        <time>2022-02-20T09:13:57Z</time>
      </trkpt>
      <trkpt lat="42.76487" lon="1.58459">
        <ele>1229.549</ele>
        <time>2022-02-20T09:13:59Z</time>
      </trkpt>
      <trkpt lat="42.76487" lon="1.58459">
        <ele>1229.566</ele>
        <time>2022-02-20T09:14:01Z</time>
      </trkpt>
      <trkpt lat="42.76487" lon="1.58459">
        <ele>1229.591</ele>
        <time>2022-02-20T09:14:03Z</time>
      </trkpt>
      <trkpt lat="42.76487" lon="1.58459">
        <ele>1229.619</ele>
        <time>2022-02-20T09:14:05Z</time>
      </trkpt>
      <trkpt lat="42.76487" lon="1.58459">
        <ele>1229.655</ele>
        <time>2022-02-20T09:14:07Z</time>
      </trkpt>
      <trkpt lat="42.76487" lon="1.58459">
        <ele>1229.784</ele>
        <time>2022-02-20T09:14:09Z</time>
      </trkpt>
      <trkpt lat="42.76487" lon="1.58459">
        <ele>1229.928</ele>
        <time>2022-02-20T09:14:11Z</time>
      </trkpt>
      <trkpt lat="42.76487" lon="1.58459">
        <ele>1229.969</ele>
        <time>2022-02-20T09:14:13Z</time>
      </trkpt>
      <trkpt lat="42.76487" lon="1.58459">
        <ele>1230.022</ele>
        <time>2022-02-20T09:14:15Z</time>
      </trkpt>
      <trkpt lat="42.76487" lon="1.58459">
        <ele>1230.072</ele>
        <time>2022-02-20T09:14:17Z</time>
      </trkpt>
      <trkpt lat="42.76486" lon="1.58459">
        <ele>1230.136</ele>
        <time>2022-02-20T09:14:19Z</time>
      </trkpt>
      <trkpt lat="42.76486" lon="1.58459">
        <ele>1230.208</ele>
        <time>2022-02-20T09:14:21Z</time>
      </trkpt>
      <trkpt lat="42.76486" lon="1.58459">
        <ele>1230.285</ele>
        <time>2022-02-20T09:14:23Z</time>
      </trkpt>
      <trkpt lat="42.76486" lon="1.58459">
        <ele>1230.299</ele>
        <time>2022-02-20T09:14:25Z</time>
      </trkpt>
      <trkpt lat="42.76486" lon="1.58459">
        <ele>1230.321</ele>
        <time>2022-02-20T09:14:27Z</time>
      </trkpt>
      <trkpt lat="42.76486" lon="1.58459">
        <ele>1230.418</ele>
        <time>2022-02-20T09:14:29Z</time>
      </trkpt>
      <trkpt lat="42.76486" lon="1.58459">
        <ele>1230.56</ele>
        <time>2022-02-20T09:14:31Z</time>
      </trkpt>
      <trkpt lat="42.76486" lon="1.58459">
        <ele>1230.718</ele>
        <time>2022-02-20T09:14:33Z</time>
      </trkpt>
      <trkpt lat="42.76486" lon="1.5846">
        <ele>1230.792</ele>
        <time>2022-02-20T09:14:35Z</time>
      </trkpt>
      <trkpt lat="42.76486" lon="1.5846">
        <ele>1230.86</ele>
        <time>2022-02-20T09:14:37Z</time>
      </trkpt>
      <trkpt lat="42.76486" lon="1.5846">
        <ele>1230.899</ele>
        <time>2022-02-20T09:14:39Z</time>
      </trkpt>
      <trkpt lat="42.76486" lon="1.5846">
        <ele>1230.919</ele>
        <time>2022-02-20T09:14:41Z</time>
      </trkpt>
      <trkpt lat="42.76486" lon="1.5846">
        <ele>1230.964</ele>
        <time>2022-02-20T09:14:43Z</time>
      </trkpt>
      <trkpt lat="42.76486" lon="1.5846">
        <ele>1230.998</ele>
        <time>2022-02-20T09:14:45Z</time>
      </trkpt>
      <trkpt lat="42.76486" lon="1.5846">
        <ele>1231.109</ele>
        <time>2022-02-20T09:14:47Z</time>
      </trkpt>
      <trkpt lat="42.76485" lon="1.5846">
        <ele>1232.641</ele>
        <time>2022-02-20T09:14:49Z</time>
      </trkpt>
      <trkpt lat="42.76485" lon="1.58461">
        <ele>1233.337</ele>
        <time>2022-02-20T09:14:51Z</time>
      </trkpt>
      <trkpt lat="42.76485" lon="1.58461">
        <ele>1233.571</ele>
        <time>2022-02-20T09:14:53Z</time>
      </trkpt>
      <trkpt lat="42.76483" lon="1.58462">
        <ele>1233.195</ele>
        <time>2022-02-20T09:14:55Z</time>
      </trkpt>
      <trkpt lat="42.76482" lon="1.58464">
        <ele>1234.239</ele>
        <time>2022-02-20T09:14:57Z</time>
      </trkpt>
      <trkpt lat="42.76481" lon="1.58467">
        <ele>1234.007</ele>
        <time>2022-02-20T09:14:59Z</time>
      </trkpt>
      <trkpt lat="42.7648" lon="1.58469">
        <ele>1234.419</ele>
        <time>2022-02-20T09:15:01Z</time>
      </trkpt>
      <trkpt lat="42.76479" lon="1.58471">
        <ele>1235.078</ele>
        <time>2022-02-20T09:15:03Z</time>
      </trkpt>
      <trkpt lat="42.76479" lon="1.58473">
        <ele>1234.71</ele>
        <time>2022-02-20T09:15:05Z</time>
      </trkpt>
      <trkpt lat="42.76479" lon="1.58476">
        <ele>1234.557</ele>
        <time>2022-02-20T09:15:07Z</time>
      </trkpt>
      <trkpt lat="42.76478" lon="1.58477">
        <ele>1235.317</ele>
        <time>2022-02-20T09:15:09Z</time>
      </trkpt>
      <trkpt lat="42.76477" lon="1.58479">
        <ele>1236.267</ele>
        <time>2022-02-20T09:15:11Z</time>
      </trkpt>
      <trkpt lat="42.76476" lon="1.58481">
        <ele>1237.446</ele>
        <time>2022-02-20T09:15:13Z</time>
      </trkpt>
      <trkpt lat="42.76475" lon="1.58483">
        <ele>1237.001</ele>
        <time>2022-02-20T09:15:15Z</time>
      </trkpt>
      <trkpt lat="42.76473" lon="1.58485">
        <ele>1237.472</ele>
        <time>2022-02-20T09:15:17Z</time>
      </trkpt>
      <trkpt lat="42.76471" lon="1.58487">
        <ele>1238.663</ele>
        <time>2022-02-20T09:15:19Z</time>
      </trkpt>
      <trkpt lat="42.7647" lon="1.58489">
        <ele>1238.85</ele>
        <time>2022-02-20T09:15:21Z</time>
      </trkpt>
      <trkpt lat="42.76468" lon="1.58491">
        <ele>1238.909</ele>
        <time>2022-02-20T09:15:23Z</time>
      </trkpt>
      <trkpt lat="42.76467" lon="1.58492">
        <ele>1239.423</ele>
        <time>2022-02-20T09:15:25Z</time>
      </trkpt>
      <trkpt lat="42.76465" lon="1.58493">
        <ele>1240.636</ele>
        <time>2022-02-20T09:15:27Z</time>
      </trkpt>
      <trkpt lat="42.76463" lon="1.58492">
        <ele>1241.942</ele>
        <time>2022-02-20T09:15:29Z</time>
      </trkpt>
      <trkpt lat="42.76461" lon="1.58494">
        <ele>1244.366</ele>
        <time>2022-02-20T09:15:31Z</time>
      </trkpt>
      <trkpt lat="42.76459" lon="1.58496">
        <ele>1247.461</ele>
        <time>2022-02-20T09:15:33Z</time>
      </trkpt>
      <trkpt lat="42.76457" lon="1.58497">
        <ele>1248.646</ele>
        <time>2022-02-20T09:15:35Z</time>
      </trkpt>
      <trkpt lat="42.76456" lon="1.58499">
        <ele>1251.031</ele>
        <time>2022-02-20T09:15:37Z</time>
      </trkpt>
      <trkpt lat="42.76454" lon="1.58501">
        <ele>1252.617</ele>
        <time>2022-02-20T09:15:39Z</time>
      </trkpt>
      <trkpt lat="42.76452" lon="1.58503">
        <ele>1253.835</ele>
        <time>2022-02-20T09:15:41Z</time>
      </trkpt>
      <trkpt lat="42.76451" lon="1.58505">
        <ele>1254.384</ele>
        <time>2022-02-20T09:15:43Z</time>
      </trkpt>
      <trkpt lat="42.7645" lon="1.58508">
        <ele>1255.529</ele>
        <time>2022-02-20T09:15:45Z</time>
      </trkpt>
      <trkpt lat="42.76448" lon="1.58509">
        <ele>1255.909</ele>
        <time>2022-02-20T09:15:47Z</time>
      </trkpt>
      <trkpt lat="42.76446" lon="1.5851">
        <ele>1257.735</ele>
        <time>2022-02-20T09:15:49Z</time>
      </trkpt>
      <trkpt lat="42.76444" lon="1.5851">
        <ele>1258.099</ele>
        <time>2022-02-20T09:15:51Z</time>
      </trkpt>
      <trkpt lat="42.76443" lon="1.58511">
        <ele>1258.402</ele>
        <time>2022-02-20T09:15:53Z</time>
      </trkpt>
      <trkpt lat="42.76442" lon="1.58513">
        <ele>1259.033</ele>
        <time>2022-02-20T09:15:55Z</time>
      </trkpt>
      <trkpt lat="42.7644" lon="1.58515">
        <ele>1261.335</ele>
        <time>2022-02-20T09:15:57Z</time>
      </trkpt>
      <trkpt lat="42.76438" lon="1.58516">
        <ele>1261.899</ele>
        <time>2022-02-20T09:15:59Z</time>
      </trkpt>
      <trkpt lat="42.76436" lon="1.58516">
        <ele>1262.502</ele>
        <time>2022-02-20T09:16:01Z</time>
      </trkpt>
      <trkpt lat="42.76435" lon="1.58517">
        <ele>1263.505</ele>
        <time>2022-02-20T09:16:03Z</time>
      </trkpt>
      <trkpt lat="42.76433" lon="1.58519">
        <ele>1264.69</ele>
        <time>2022-02-20T09:16:05Z</time>
      </trkpt>
      <trkpt lat="42.76431" lon="1.5852">
        <ele>1265.166</ele>
        <time>2022-02-20T09:16:07Z</time>
      </trkpt>
      <trkpt lat="42.76429" lon="1.58521">
        <ele>1266.559</ele>
        <time>2022-02-20T09:16:09Z</time>
      </trkpt>
      <trkpt lat="42.76427" lon="1.58522">
        <ele>1268.118</ele>
        <time>2022-02-20T09:16:11Z</time>
      </trkpt>
      <trkpt lat="42.76425" lon="1.58523">
        <ele>1268.092</ele>
        <time>2022-02-20T09:16:13Z</time>
      </trkpt>
      <trkpt lat="42.76424" lon="1.58524">
        <ele>1268.124</ele>
        <time>2022-02-20T09:16:15Z</time>
      </trkpt>
      <trkpt lat="42.76422" lon="1.58526">
        <ele>1269.862</ele>
        <time>2022-02-20T09:16:17Z</time>
      </trkpt>
      <trkpt lat="42.7642" lon="1.58526">
        <ele>1271.352</ele>
        <time>2022-02-20T09:16:19Z</time>
      </trkpt>
      <trkpt lat="42.76418" lon="1.58527">
        <ele>1271.783</ele>
        <time>2022-02-20T09:16:21Z</time>
      </trkpt>
      <trkpt lat="42.76416" lon="1.58527">
        <ele>1273.423</ele>
        <time>2022-02-20T09:16:23Z</time>
      </trkpt>
      <trkpt lat="42.76415" lon="1.58528">
        <ele>1273.989</ele>
        <time>2022-02-20T09:16:25Z</time>
      </trkpt>
      <trkpt lat="42.76413" lon="1.58529">
        <ele>1274.784</ele>
        <time>2022-02-20T09:16:27Z</time>
      </trkpt>
      <trkpt lat="42.76412" lon="1.5853">
        <ele>1275.941</ele>
        <time>2022-02-20T09:16:29Z</time>
      </trkpt>
      <trkpt lat="42.76411" lon="1.58531">
        <ele>1276.248</ele>
        <time>2022-02-20T09:16:31Z</time>
      </trkpt>
      <trkpt lat="42.76409" lon="1.58532">
        <ele>1276.902</ele>
        <time>2022-02-20T09:16:33Z</time>
      </trkpt>
      <trkpt lat="42.76407" lon="1.58534">
        <ele>1278.078</ele>
        <time>2022-02-20T09:16:35Z</time>
      </trkpt>
      <trkpt lat="42.76405" lon="1.58534">
        <ele>1279.128</ele>
        <time>2022-02-20T09:16:37Z</time>
      </trkpt>
      <trkpt lat="42.76404" lon="1.58535">
        <ele>1278.462</ele>
        <time>2022-02-20T09:16:39Z</time>
      </trkpt>
      <trkpt lat="42.76403" lon="1.58537">
        <ele>1279.31</ele>
        <time>2022-02-20T09:16:41Z</time>
      </trkpt>
      <trkpt lat="42.76402" lon="1.58538">
        <ele>1278.801</ele>
        <time>2022-02-20T09:16:43Z</time>
      </trkpt>
      <trkpt lat="42.76402" lon="1.58539">
        <ele>1278.04</ele>
        <time>2022-02-20T09:16:45Z</time>
      </trkpt>
      <trkpt lat="42.764" lon="1.5854">
        <ele>1278.619</ele>
        <time>2022-02-20T09:16:47Z</time>
      </trkpt>
      <trkpt lat="42.76399" lon="1.58541">
        <ele>1279.531</ele>
        <time>2022-02-20T09:16:49Z</time>
      </trkpt>
      <trkpt lat="42.76398" lon="1.58542">
        <ele>1280.862</ele>
        <time>2022-02-20T09:16:51Z</time>
      </trkpt>
      <trkpt lat="42.76397" lon="1.58542">
        <ele>1280.915</ele>
        <time>2022-02-20T09:16:53Z</time>
      </trkpt>
      <trkpt lat="42.76396" lon="1.58543">
        <ele>1281.248</ele>
        <time>2022-02-20T09:16:55Z</time>
      </trkpt>
      <trkpt lat="42.76394" lon="1.58545">
        <ele>1281.993</ele>
        <time>2022-02-20T09:16:57Z</time>
      </trkpt>
      <trkpt lat="42.76393" lon="1.58546">
        <ele>1281.498</ele>
        <time>2022-02-20T09:16:59Z</time>
      </trkpt>
      <trkpt lat="42.76391" lon="1.58547">
        <ele>1282.303</ele>
        <time>2022-02-20T09:17:01Z</time>
      </trkpt>
      <trkpt lat="42.7639" lon="1.58547">
        <ele>1282.18</ele>
        <time>2022-02-20T09:17:03Z</time>
      </trkpt>
      <trkpt lat="42.76389" lon="1.58549">
        <ele>1282.696</ele>
        <time>2022-02-20T09:17:05Z</time>
      </trkpt>
      <trkpt lat="42.76388" lon="1.5855">
        <ele>1284.464</ele>
        <time>2022-02-20T09:17:08Z</time>
      </trkpt>
      <trkpt lat="42.76387" lon="1.58551">
        <ele>1285.322</ele>
        <time>2022-02-20T09:17:10Z</time>
      </trkpt>
      <trkpt lat="42.76385" lon="1.58552">
        <ele>1286.258</ele>
        <time>2022-02-20T09:17:12Z</time>
      </trkpt>
      <trkpt lat="42.76384" lon="1.58553">
        <ele>1287.108</ele>
        <time>2022-02-20T09:17:14Z</time>
      </trkpt>
      <trkpt lat="42.76383" lon="1.58554">
        <ele>1287.018</ele>
        <time>2022-02-20T09:17:16Z</time>
      </trkpt>
      <trkpt lat="42.76382" lon="1.58554">
        <ele>1288.231</ele>
        <time>2022-02-20T09:17:18Z</time>
      </trkpt>
      <trkpt lat="42.76381" lon="1.58556">
        <ele>1287.925</ele>
        <time>2022-02-20T09:17:20Z</time>
      </trkpt>
      <trkpt lat="42.7638" lon="1.58557">
        <ele>1288.804</ele>
        <time>2022-02-20T09:17:22Z</time>
      </trkpt>
      <trkpt lat="42.76379" lon="1.58557">
        <ele>1288.648</ele>
        <time>2022-02-20T09:17:24Z</time>
      </trkpt>
      <trkpt lat="42.7638" lon="1.58557">
        <ele>1288.651</ele>
        <time>2022-02-20T09:17:26Z</time>
      </trkpt>
      <trkpt lat="42.7638" lon="1.58557">
        <ele>1288.248</ele>
        <time>2022-02-20T09:17:28Z</time>
      </trkpt>
      <trkpt lat="42.7638" lon="1.58558">
        <ele>1289.455</ele>
        <time>2022-02-20T09:17:30Z</time>
      </trkpt>
      <trkpt lat="42.76379" lon="1.58558">
        <ele>1289.954</ele>
        <time>2022-02-20T09:17:32Z</time>
      </trkpt>
      <trkpt lat="42.76377" lon="1.58559">
        <ele>1290.085</ele>
        <time>2022-02-20T09:17:34Z</time>
      </trkpt>
      <trkpt lat="42.76377" lon="1.58561">
        <ele>1289.622</ele>
        <time>2022-02-20T09:17:36Z</time>
      </trkpt>
      <trkpt lat="42.76376" lon="1.58562">
        <ele>1289.847</ele>
        <time>2022-02-20T09:17:38Z</time>
      </trkpt>
      <trkpt lat="42.76375" lon="1.58562">
        <ele>1290.248</ele>
        <time>2022-02-20T09:17:40Z</time>
      </trkpt>
      <trkpt lat="42.76373" lon="1.58563">
        <ele>1290.558</ele>
        <time>2022-02-20T09:17:42Z</time>
      </trkpt>
      <trkpt lat="42.76372" lon="1.58564">
        <ele>1291.652</ele>
        <time>2022-02-20T09:17:44Z</time>
      </trkpt>
      <trkpt lat="42.76371" lon="1.58563">
        <ele>1292.46</ele>
        <time>2022-02-20T09:17:46Z</time>
      </trkpt>
      <trkpt lat="42.7637" lon="1.58563">
        <ele>1293.671</ele>
        <time>2022-02-20T09:17:48Z</time>
      </trkpt>
      <trkpt lat="42.76369" lon="1.58564">
        <ele>1293.001</ele>
        <time>2022-02-20T09:17:50Z</time>
      </trkpt>
      <trkpt lat="42.76368" lon="1.58564">
        <ele>1293.748</ele>
        <time>2022-02-20T09:17:52Z</time>
      </trkpt>
      <trkpt lat="42.76366" lon="1.58564">
        <ele>1294.08</ele>
        <time>2022-02-20T09:17:54Z</time>
      </trkpt>
      <trkpt lat="42.76365" lon="1.58565">
        <ele>1295.312</ele>
        <time>2022-02-20T09:17:56Z</time>
      </trkpt>
      <trkpt lat="42.76364" lon="1.58567">
        <ele>1296.819</ele>
        <time>2022-02-20T09:17:58Z</time>
      </trkpt>
      <trkpt lat="42.76363" lon="1.58567">
        <ele>1297.34</ele>
        <time>2022-02-20T09:18:00Z</time>
      </trkpt>
      <trkpt lat="42.76362" lon="1.58568">
        <ele>1297.248</ele>
        <time>2022-02-20T09:18:02Z</time>
      </trkpt>
      <trkpt lat="42.76361" lon="1.5857">
        <ele>1297.598</ele>
        <time>2022-02-20T09:18:04Z</time>
      </trkpt>
      <trkpt lat="42.7636" lon="1.58571">
        <ele>1297.482</ele>
        <time>2022-02-20T09:18:06Z</time>
      </trkpt>
      <trkpt lat="42.76359" lon="1.58571">
        <ele>1297.676</ele>
        <time>2022-02-20T09:18:08Z</time>
      </trkpt>
      <trkpt lat="42.76358" lon="1.58571">
        <ele>1297.849</ele>
        <time>2022-02-20T09:18:10Z</time>
      </trkpt>
      <trkpt lat="42.76357" lon="1.58572">
        <ele>1297.638</ele>
        <time>2022-02-20T09:18:12Z</time>
      </trkpt>
      <trkpt lat="42.76355" lon="1.58572">
        <ele>1297.923</ele>
        <time>2022-02-20T09:18:14Z</time>
      </trkpt>
      <trkpt lat="42.76354" lon="1.58572">
        <ele>1298.74</ele>
        <time>2022-02-20T09:18:16Z</time>
      </trkpt>
      <trkpt lat="42.76352" lon="1.58572">
        <ele>1299.504</ele>
        <time>2022-02-20T09:18:18Z</time>
      </trkpt>
      <trkpt lat="42.76352" lon="1.58574">
        <ele>1298.511</ele>
        <time>2022-02-20T09:18:20Z</time>
      </trkpt>
      <trkpt lat="42.76351" lon="1.58574">
        <ele>1299.613</ele>
        <time>2022-02-20T09:18:22Z</time>
      </trkpt>
      <trkpt lat="42.7635" lon="1.58574">
        <ele>1300.388</ele>
        <time>2022-02-20T09:18:24Z</time>
      </trkpt>
      <trkpt lat="42.76349" lon="1.58575">
        <ele>1300.838</ele>
        <time>2022-02-20T09:18:26Z</time>
      </trkpt>
      <trkpt lat="42.76348" lon="1.58575">
        <ele>1301.221</ele>
        <time>2022-02-20T09:18:28Z</time>
      </trkpt>
      <trkpt lat="42.76347" lon="1.58575">
        <ele>1301.805</ele>
        <time>2022-02-20T09:18:30Z</time>
      </trkpt>
      <trkpt lat="42.76346" lon="1.58575">
        <ele>1302.397</ele>
        <time>2022-02-20T09:18:32Z</time>
      </trkpt>
      <trkpt lat="42.76344" lon="1.58575">
        <ele>1302.671</ele>
        <time>2022-02-20T09:18:34Z</time>
      </trkpt>
      <trkpt lat="42.76343" lon="1.58574">
        <ele>1303.203</ele>
        <time>2022-02-20T09:18:36Z</time>
      </trkpt>
      <trkpt lat="42.76342" lon="1.58573">
        <ele>1303.98</ele>
        <time>2022-02-20T09:18:38Z</time>
      </trkpt>
      <trkpt lat="42.76341" lon="1.58574">
        <ele>1303.168</ele>
        <time>2022-02-20T09:18:40Z</time>
      </trkpt>
      <trkpt lat="42.76341" lon="1.58576">
        <ele>1302.028</ele>
        <time>2022-02-20T09:18:42Z</time>
      </trkpt>
      <trkpt lat="42.7634" lon="1.58577">
        <ele>1301.998</ele>
        <time>2022-02-20T09:18:44Z</time>
      </trkpt>
      <trkpt lat="42.76339" lon="1.58577">
        <ele>1302.054</ele>
        <time>2022-02-20T09:18:46Z</time>
      </trkpt>
      <trkpt lat="42.76338" lon="1.58577">
        <ele>1301.398</ele>
        <time>2022-02-20T09:18:48Z</time>
      </trkpt>
      <trkpt lat="42.76337" lon="1.58577">
        <ele>1301.935</ele>
        <time>2022-02-20T09:18:50Z</time>
      </trkpt>
      <trkpt lat="42.76336" lon="1.58578">
        <ele>1303.091</ele>
        <time>2022-02-20T09:18:52Z</time>
      </trkpt>
      <trkpt lat="42.76334" lon="1.58577">
        <ele>1303.711</ele>
        <time>2022-02-20T09:18:54Z</time>
      </trkpt>
      <trkpt lat="42.76334" lon="1.58577">
        <ele>1304.118</ele>
        <time>2022-02-20T09:18:56Z</time>
      </trkpt>
      <trkpt lat="42.76333" lon="1.58576">
        <ele>1305.308</ele>
        <time>2022-02-20T09:18:58Z</time>
      </trkpt>
      <trkpt lat="42.76331" lon="1.58574">
        <ele>1306.401</ele>
        <time>2022-02-20T09:19:00Z</time>
      </trkpt>
      <trkpt lat="42.76329" lon="1.58574">
        <ele>1307.438</ele>
        <time>2022-02-20T09:19:02Z</time>
      </trkpt>
      <trkpt lat="42.76328" lon="1.58574">
        <ele>1307.577</ele>
        <time>2022-02-20T09:19:04Z</time>
      </trkpt>
      <trkpt lat="42.76327" lon="1.58574">
        <ele>1307.562</ele>
        <time>2022-02-20T09:19:06Z</time>
      </trkpt>
      <trkpt lat="42.76326" lon="1.58575">
        <ele>1308.362</ele>
        <time>2022-02-20T09:19:08Z</time>
      </trkpt>
      <trkpt lat="42.76325" lon="1.58576">
        <ele>1307.548</ele>
        <time>2022-02-20T09:19:10Z</time>
      </trkpt>
      <trkpt lat="42.76324" lon="1.58577">
        <ele>1307.258</ele>
        <time>2022-02-20T09:19:12Z</time>
      </trkpt>
      <trkpt lat="42.76324" lon="1.58578">
        <ele>1307.185</ele>
        <time>2022-02-20T09:19:14Z</time>
      </trkpt>
      <trkpt lat="42.76323" lon="1.58578">
        <ele>1308.103</ele>
        <time>2022-02-20T09:19:16Z</time>
      </trkpt>
      <trkpt lat="42.76322" lon="1.58579">
        <ele>1307.443</ele>
        <time>2022-02-20T09:19:18Z</time>
      </trkpt>
      <trkpt lat="42.76322" lon="1.5858">
        <ele>1307.428</ele>
        <time>2022-02-20T09:19:20Z</time>
      </trkpt>
      <trkpt lat="42.76321" lon="1.5858">
        <ele>1308.49</ele>
        <time>2022-02-20T09:19:22Z</time>
      </trkpt>
      <trkpt lat="42.7632" lon="1.5858">
        <ele>1308.837</ele>
        <time>2022-02-20T09:19:24Z</time>
      </trkpt>
      <trkpt lat="42.76318" lon="1.58582">
        <ele>1308.339</ele>
        <time>2022-02-20T09:19:26Z</time>
      </trkpt>
      <trkpt lat="42.76317" lon="1.58582">
        <ele>1308.445</ele>
        <time>2022-02-20T09:19:28Z</time>
      </trkpt>
      <trkpt lat="42.76316" lon="1.58582">
        <ele>1308.802</ele>
        <time>2022-02-20T09:19:30Z</time>
      </trkpt>
      <trkpt lat="42.76315" lon="1.58583">
        <ele>1309.564</ele>
        <time>2022-02-20T09:19:32Z</time>
      </trkpt>
      <trkpt lat="42.76314" lon="1.58583">
        <ele>1310.332</ele>
        <time>2022-02-20T09:19:34Z</time>
      </trkpt>
      <trkpt lat="42.76313" lon="1.58584">
        <ele>1309.524</ele>
        <time>2022-02-20T09:19:36Z</time>
      </trkpt>
      <trkpt lat="42.76312" lon="1.58584">
        <ele>1310.903</ele>
        <time>2022-02-20T09:19:38Z</time>
      </trkpt>
      <trkpt lat="42.76311" lon="1.58584">
        <ele>1310.657</ele>
        <time>2022-02-20T09:19:40Z</time>
      </trkpt>
      <trkpt lat="42.7631" lon="1.58584">
        <ele>1311.198</ele>
        <time>2022-02-20T09:19:42Z</time>
      </trkpt>
      <trkpt lat="42.76309" lon="1.58584">
        <ele>1311.231</ele>
        <time>2022-02-20T09:19:44Z</time>
      </trkpt>
      <trkpt lat="42.76308" lon="1.58583">
        <ele>1311.65</ele>
        <time>2022-02-20T09:19:46Z</time>
      </trkpt>
      <trkpt lat="42.76307" lon="1.58583">
        <ele>1312.262</ele>
        <time>2022-02-20T09:19:48Z</time>
      </trkpt>
      <trkpt lat="42.76306" lon="1.58583">
        <ele>1312.401</ele>
        <time>2022-02-20T09:19:50Z</time>
      </trkpt>
      <trkpt lat="42.76305" lon="1.58584">
        <ele>1312.295</ele>
        <time>2022-02-20T09:19:52Z</time>
      </trkpt>
      <trkpt lat="42.76303" lon="1.58584">
        <ele>1312.618</ele>
        <time>2022-02-20T09:19:54Z</time>
      </trkpt>
      <trkpt lat="42.76302" lon="1.58586">
        <ele>1312.957</ele>
        <time>2022-02-20T09:19:56Z</time>
      </trkpt>
      <trkpt lat="42.76303" lon="1.58587">
        <ele>1315.711</ele>
        <time>2022-02-20T09:19:58Z</time>
      </trkpt>
      <trkpt lat="42.76304" lon="1.58588">
        <ele>1313.199</ele>
        <time>2022-02-20T09:20:00Z</time>
      </trkpt>
      <trkpt lat="42.76305" lon="1.5859">
        <ele>1312.816</ele>
        <time>2022-02-20T09:20:02Z</time>
      </trkpt>
      <trkpt lat="42.76306" lon="1.58591">
        <ele>1312.442</ele>
        <time>2022-02-20T09:20:04Z</time>
      </trkpt>
      <trkpt lat="42.76306" lon="1.58592">
        <ele>1313.335</ele>
        <time>2022-02-20T09:20:06Z</time>
      </trkpt>
      <trkpt lat="42.76307" lon="1.58593">
        <ele>1313.156</ele>
        <time>2022-02-20T09:20:08Z</time>
      </trkpt>
      <trkpt lat="42.76308" lon="1.58593">
        <ele>1314.547</ele>
        <time>2022-02-20T09:20:10Z</time>
      </trkpt>
      <trkpt lat="42.76309" lon="1.58594">
        <ele>1315.887</ele>
        <time>2022-02-20T09:20:12Z</time>
      </trkpt>
      <trkpt lat="42.76308" lon="1.58595">
        <ele>1315.784</ele>
        <time>2022-02-20T09:20:14Z</time>
      </trkpt>
      <trkpt lat="42.76309" lon="1.58596">
        <ele>1315.434</ele>
        <time>2022-02-20T09:20:16Z</time>
      </trkpt>
      <trkpt lat="42.76309" lon="1.58597">
        <ele>1315.974</ele>
        <time>2022-02-20T09:20:18Z</time>
      </trkpt>
      <trkpt lat="42.7631" lon="1.58598">
        <ele>1317.258</ele>
        <time>2022-02-20T09:20:20Z</time>
      </trkpt>
      <trkpt lat="42.7631" lon="1.58599">
        <ele>1317.055</ele>
        <time>2022-02-20T09:20:22Z</time>
      </trkpt>
      <trkpt lat="42.7631" lon="1.58601">
        <ele>1317.256</ele>
        <time>2022-02-20T09:20:24Z</time>
      </trkpt>
      <trkpt lat="42.7631" lon="1.58603">
        <ele>1316.946</ele>
        <time>2022-02-20T09:20:26Z</time>
      </trkpt>
      <trkpt lat="42.7631" lon="1.58604">
        <ele>1317.321</ele>
        <time>2022-02-20T09:20:28Z</time>
      </trkpt>
      <trkpt lat="42.7631" lon="1.58606">
        <ele>1317.315</ele>
        <time>2022-02-20T09:20:30Z</time>
      </trkpt>
      <trkpt lat="42.76311" lon="1.58608">
        <ele>1317.998</ele>
        <time>2022-02-20T09:20:32Z</time>
      </trkpt>
      <trkpt lat="42.76312" lon="1.58609">
        <ele>1318.127</ele>
        <time>2022-02-20T09:20:34Z</time>
      </trkpt>
      <trkpt lat="42.76312" lon="1.5861">
        <ele>1317.197</ele>
        <time>2022-02-20T09:20:36Z</time>
      </trkpt>
      <trkpt lat="42.76312" lon="1.58612">
        <ele>1318.148</ele>
        <time>2022-02-20T09:20:38Z</time>
      </trkpt>
      <trkpt lat="42.76313" lon="1.58613">
        <ele>1319.596</ele>
        <time>2022-02-20T09:20:40Z</time>
      </trkpt>
      <trkpt lat="42.76314" lon="1.58614">
        <ele>1319.737</ele>
        <time>2022-02-20T09:20:42Z</time>
      </trkpt>
      <trkpt lat="42.76314" lon="1.58615">
        <ele>1319.202</ele>
        <time>2022-02-20T09:20:44Z</time>
      </trkpt>
      <trkpt lat="42.76315" lon="1.58616">
        <ele>1318.769</ele>
        <time>2022-02-20T09:20:46Z</time>
      </trkpt>
      <trkpt lat="42.76316" lon="1.58618">
        <ele>1319.284</ele>
        <time>2022-02-20T09:20:48Z</time>
      </trkpt>
      <trkpt lat="42.76317" lon="1.58618">
        <ele>1319.92</ele>
        <time>2022-02-20T09:20:50Z</time>
      </trkpt>
      <trkpt lat="42.76318" lon="1.58618">
        <ele>1321.427</ele>
        <time>2022-02-20T09:20:52Z</time>
      </trkpt>
      <trkpt lat="42.76318" lon="1.58618">
        <ele>1321.238</ele>
        <time>2022-02-20T09:20:54Z</time>
      </trkpt>
      <trkpt lat="42.76319" lon="1.58618">
        <ele>1323.154</ele>
        <time>2022-02-20T09:20:56Z</time>
      </trkpt>
      <trkpt lat="42.76319" lon="1.58619">
        <ele>1323.703</ele>
        <time>2022-02-20T09:20:58Z</time>
      </trkpt>
      <trkpt lat="42.76321" lon="1.5862">
        <ele>1323.986</ele>
        <time>2022-02-20T09:21:00Z</time>
      </trkpt>
      <trkpt lat="42.76322" lon="1.58621">
        <ele>1325.405</ele>
        <time>2022-02-20T09:21:02Z</time>
      </trkpt>
      <trkpt lat="42.76323" lon="1.58622">
        <ele>1325.741</ele>
        <time>2022-02-20T09:21:04Z</time>
      </trkpt>
      <trkpt lat="42.76324" lon="1.58623">
        <ele>1326.89</ele>
        <time>2022-02-20T09:21:06Z</time>
      </trkpt>
      <trkpt lat="42.76325" lon="1.58625">
        <ele>1325.262</ele>
        <time>2022-02-20T09:21:08Z</time>
      </trkpt>
      <trkpt lat="42.76325" lon="1.58627">
        <ele>1323.865</ele>
        <time>2022-02-20T09:21:10Z</time>
      </trkpt>
      <trkpt lat="42.76325" lon="1.58628">
        <ele>1323.472</ele>
        <time>2022-02-20T09:21:12Z</time>
      </trkpt>
      <trkpt lat="42.76324" lon="1.5863">
        <ele>1322.542</ele>
        <time>2022-02-20T09:21:14Z</time>
      </trkpt>
      <trkpt lat="42.76325" lon="1.58632">
        <ele>1322.918</ele>
        <time>2022-02-20T09:21:16Z</time>
      </trkpt>
      <trkpt lat="42.76327" lon="1.58633">
        <ele>1323.204</ele>
        <time>2022-02-20T09:21:18Z</time>
      </trkpt>
      <trkpt lat="42.76327" lon="1.58635">
        <ele>1323.332</ele>
        <time>2022-02-20T09:21:20Z</time>
      </trkpt>
      <trkpt lat="42.76329" lon="1.58636">
        <ele>1324.298</ele>
        <time>2022-02-20T09:21:22Z</time>
      </trkpt>
      <trkpt lat="42.7633" lon="1.58638">
        <ele>1323.789</ele>
        <time>2022-02-20T09:21:24Z</time>
      </trkpt>
      <trkpt lat="42.76331" lon="1.5864">
        <ele>1324.152</ele>
        <time>2022-02-20T09:21:26Z</time>
      </trkpt>
      <trkpt lat="42.76332" lon="1.5864">
        <ele>1324.853</ele>
        <time>2022-02-20T09:21:28Z</time>
      </trkpt>
      <trkpt lat="42.76333" lon="1.58642">
        <ele>1325.003</ele>
        <time>2022-02-20T09:21:30Z</time>
      </trkpt>
      <trkpt lat="42.76333" lon="1.58644">
        <ele>1323.77</ele>
        <time>2022-02-20T09:21:32Z</time>
      </trkpt>
      <trkpt lat="42.76332" lon="1.58644">
        <ele>1323.79</ele>
        <time>2022-02-20T09:21:34Z</time>
      </trkpt>
      <trkpt lat="42.76332" lon="1.58644">
        <ele>1324.12</ele>
        <time>2022-02-20T09:21:36Z</time>
      </trkpt>
      <trkpt lat="42.76331" lon="1.58644">
        <ele>1324.664</ele>
        <time>2022-02-20T09:21:38Z</time>
      </trkpt>
      <trkpt lat="42.76331" lon="1.58644">
        <ele>1325.13</ele>
        <time>2022-02-20T09:21:40Z</time>
      </trkpt>
      <trkpt lat="42.7633" lon="1.58644">
        <ele>1324.724</ele>
        <time>2022-02-20T09:21:42Z</time>
      </trkpt>
      <trkpt lat="42.7633" lon="1.58644">
        <ele>1325.625</ele>
        <time>2022-02-20T09:21:44Z</time>
      </trkpt>
      <trkpt lat="42.7633" lon="1.58644">
        <ele>1324.719</ele>
        <time>2022-02-20T09:21:46Z</time>
      </trkpt>
      <trkpt lat="42.76331" lon="1.58644">
        <ele>1323.522</ele>
        <time>2022-02-20T09:21:48Z</time>
      </trkpt>
      <trkpt lat="42.76331" lon="1.58646">
        <ele>1322.087</ele>
        <time>2022-02-20T09:21:50Z</time>
      </trkpt>
      <trkpt lat="42.76332" lon="1.58647">
        <ele>1321.704</ele>
        <time>2022-02-20T09:21:52Z</time>
      </trkpt>
      <trkpt lat="42.76334" lon="1.58649">
        <ele>1322.481</ele>
        <time>2022-02-20T09:21:54Z</time>
      </trkpt>
      <trkpt lat="42.76335" lon="1.58651">
        <ele>1321.153</ele>
        <time>2022-02-20T09:21:56Z</time>
      </trkpt>
      <trkpt lat="42.76337" lon="1.58652">
        <ele>1322.377</ele>
        <time>2022-02-20T09:21:58Z</time>
      </trkpt>
      <trkpt lat="42.76338" lon="1.58653">
        <ele>1322.742</ele>
        <time>2022-02-20T09:22:00Z</time>
      </trkpt>
      <trkpt lat="42.7634" lon="1.58654">
        <ele>1324.761</ele>
        <time>2022-02-20T09:22:02Z</time>
      </trkpt>
      <trkpt lat="42.76342" lon="1.58655">
        <ele>1324.818</ele>
        <time>2022-02-20T09:22:04Z</time>
      </trkpt>
      <trkpt lat="42.76344" lon="1.58657">
        <ele>1326.237</ele>
        <time>2022-02-20T09:22:06Z</time>
      </trkpt>
      <trkpt lat="42.76346" lon="1.58659">
        <ele>1328.294</ele>
        <time>2022-02-20T09:22:08Z</time>
      </trkpt>
      <trkpt lat="42.76348" lon="1.58659">
        <ele>1329.064</ele>
        <time>2022-02-20T09:22:10Z</time>
      </trkpt>
      <trkpt lat="42.76349" lon="1.5866">
        <ele>1329.998</ele>
        <time>2022-02-20T09:22:12Z</time>
      </trkpt>
      <trkpt lat="42.76351" lon="1.5866">
        <ele>1329.728</ele>
        <time>2022-02-20T09:22:14Z</time>
      </trkpt>
      <trkpt lat="42.76352" lon="1.58661">
        <ele>1330.359</ele>
        <time>2022-02-20T09:22:16Z</time>
      </trkpt>
      <trkpt lat="42.76354" lon="1.58662">
        <ele>1330.926</ele>
        <time>2022-02-20T09:22:18Z</time>
      </trkpt>
      <trkpt lat="42.76355" lon="1.58662">
        <ele>1332.066</ele>
        <time>2022-02-20T09:22:20Z</time>
      </trkpt>
      <trkpt lat="42.76356" lon="1.58663">
        <ele>1333.103</ele>
        <time>2022-02-20T09:22:22Z</time>
      </trkpt>
      <trkpt lat="42.76358" lon="1.58663">
        <ele>1334.459</ele>
        <time>2022-02-20T09:22:24Z</time>
      </trkpt>
      <trkpt lat="42.7636" lon="1.58664">
        <ele>1334.894</ele>
        <time>2022-02-20T09:22:26Z</time>
      </trkpt>
      <trkpt lat="42.76362" lon="1.58665">
        <ele>1334.839</ele>
        <time>2022-02-20T09:22:28Z</time>
      </trkpt>
      <trkpt lat="42.76364" lon="1.58666">
        <ele>1337.129</ele>
        <time>2022-02-20T09:22:30Z</time>
      </trkpt>
      <trkpt lat="42.76365" lon="1.58666">
        <ele>1337.687</ele>
        <time>2022-02-20T09:22:32Z</time>
      </trkpt>
      <trkpt lat="42.76367" lon="1.58667">
        <ele>1338.222</ele>
        <time>2022-02-20T09:22:34Z</time>
      </trkpt>
      <trkpt lat="42.76368" lon="1.58668">
        <ele>1338.622</ele>
        <time>2022-02-20T09:22:36Z</time>
      </trkpt>
      <trkpt lat="42.7637" lon="1.5867">
        <ele>1338.594</ele>
        <time>2022-02-20T09:22:38Z</time>
      </trkpt>
      <trkpt lat="42.76371" lon="1.58672">
        <ele>1338.241</ele>
        <time>2022-02-20T09:22:40Z</time>
      </trkpt>
      <trkpt lat="42.76372" lon="1.58673">
        <ele>1337.574</ele>
        <time>2022-02-20T09:22:42Z</time>
      </trkpt>
      <trkpt lat="42.76373" lon="1.58674">
        <ele>1338.115</ele>
        <time>2022-02-20T09:22:44Z</time>
      </trkpt>
      <trkpt lat="42.76374" lon="1.58675">
        <ele>1337.956</ele>
        <time>2022-02-20T09:22:46Z</time>
      </trkpt>
      <trkpt lat="42.76375" lon="1.58677">
        <ele>1337.34</ele>
        <time>2022-02-20T09:22:48Z</time>
      </trkpt>
      <trkpt lat="42.76377" lon="1.58679">
        <ele>1338.282</ele>
        <time>2022-02-20T09:22:50Z</time>
      </trkpt>
      <trkpt lat="42.76377" lon="1.58681">
        <ele>1337.339</ele>
        <time>2022-02-20T09:22:52Z</time>
      </trkpt>
      <trkpt lat="42.76377" lon="1.58682">
        <ele>1335.924</ele>
        <time>2022-02-20T09:22:54Z</time>
      </trkpt>
      <trkpt lat="42.76379" lon="1.58683">
        <ele>1336.319</ele>
        <time>2022-02-20T09:22:56Z</time>
      </trkpt>
      <trkpt lat="42.76379" lon="1.58684">
        <ele>1335.682</ele>
        <time>2022-02-20T09:22:58Z</time>
      </trkpt>
      <trkpt lat="42.7638" lon="1.58685">
        <ele>1334.3</ele>
        <time>2022-02-20T09:23:00Z</time>
      </trkpt>
      <trkpt lat="42.7638" lon="1.58686">
        <ele>1334.47</ele>
        <time>2022-02-20T09:23:02Z</time>
      </trkpt>
      <trkpt lat="42.76381" lon="1.58687">
        <ele>1334.034</ele>
        <time>2022-02-20T09:23:04Z</time>
      </trkpt>
      <trkpt lat="42.76382" lon="1.58688">
        <ele>1334.072</ele>
        <time>2022-02-20T09:23:06Z</time>
      </trkpt>
      <trkpt lat="42.76383" lon="1.58689">
        <ele>1333.715</ele>
        <time>2022-02-20T09:23:08Z</time>
      </trkpt>
      <trkpt lat="42.76384" lon="1.5869">
        <ele>1334.238</ele>
        <time>2022-02-20T09:23:10Z</time>
      </trkpt>
      <trkpt lat="42.76385" lon="1.58691">
        <ele>1334.75</ele>
        <time>2022-02-20T09:23:12Z</time>
      </trkpt>
      <trkpt lat="42.76386" lon="1.58692">
        <ele>1335.356</ele>
        <time>2022-02-20T09:23:14Z</time>
      </trkpt>
      <trkpt lat="42.76387" lon="1.58692">
        <ele>1335.097</ele>
        <time>2022-02-20T09:23:16Z</time>
      </trkpt>
      <trkpt lat="42.76388" lon="1.58694">
        <ele>1336.723</ele>
        <time>2022-02-20T09:23:18Z</time>
      </trkpt>
      <trkpt lat="42.76389" lon="1.58695">
        <ele>1337.073</ele>
        <time>2022-02-20T09:23:20Z</time>
      </trkpt>
      <trkpt lat="42.7639" lon="1.58695">
        <ele>1337.137</ele>
        <time>2022-02-20T09:23:22Z</time>
      </trkpt>
      <trkpt lat="42.76391" lon="1.58696">
        <ele>1338.655</ele>
        <time>2022-02-20T09:23:24Z</time>
      </trkpt>
      <trkpt lat="42.76392" lon="1.58696">
        <ele>1339.652</ele>
        <time>2022-02-20T09:23:26Z</time>
      </trkpt>
      <trkpt lat="42.76394" lon="1.58696">
        <ele>1340.871</ele>
        <time>2022-02-20T09:23:28Z</time>
      </trkpt>
      <trkpt lat="42.76394" lon="1.58698">
        <ele>1340.378</ele>
        <time>2022-02-20T09:23:30Z</time>
      </trkpt>
      <trkpt lat="42.76395" lon="1.587">
        <ele>1341.203</ele>
        <time>2022-02-20T09:23:32Z</time>
      </trkpt>
      <trkpt lat="42.76396" lon="1.58701">
        <ele>1341.386</ele>
        <time>2022-02-20T09:23:34Z</time>
      </trkpt>
      <trkpt lat="42.76397" lon="1.58702">
        <ele>1340.977</ele>
        <time>2022-02-20T09:23:36Z</time>
      </trkpt>
      <trkpt lat="42.76398" lon="1.58704">
        <ele>1343.425</ele>
        <time>2022-02-20T09:23:38Z</time>
      </trkpt>
      <trkpt lat="42.764" lon="1.58704">
        <ele>1344.667</ele>
        <time>2022-02-20T09:23:40Z</time>
      </trkpt>
      <trkpt lat="42.764" lon="1.58706">
        <ele>1344.884</ele>
        <time>2022-02-20T09:23:42Z</time>
      </trkpt>
      <trkpt lat="42.76402" lon="1.58706">
        <ele>1347.479</ele>
        <time>2022-02-20T09:23:44Z</time>
      </trkpt>
      <trkpt lat="42.76403" lon="1.58706">
        <ele>1346.863</ele>
        <time>2022-02-20T09:23:46Z</time>
      </trkpt>
      <trkpt lat="42.76404" lon="1.58707">
        <ele>1347.645</ele>
        <time>2022-02-20T09:23:48Z</time>
      </trkpt>
      <trkpt lat="42.76406" lon="1.58708">
        <ele>1348.144</ele>
        <time>2022-02-20T09:23:50Z</time>
      </trkpt>
      <trkpt lat="42.76407" lon="1.58709">
        <ele>1348.247</ele>
        <time>2022-02-20T09:23:52Z</time>
      </trkpt>
      <trkpt lat="42.76408" lon="1.5871">
        <ele>1349.096</ele>
        <time>2022-02-20T09:23:54Z</time>
      </trkpt>
      <trkpt lat="42.76409" lon="1.58711">
        <ele>1349.053</ele>
        <time>2022-02-20T09:23:56Z</time>
      </trkpt>
      <trkpt lat="42.7641" lon="1.58712">
        <ele>1350.639</ele>
        <time>2022-02-20T09:23:58Z</time>
      </trkpt>
      <trkpt lat="42.7641" lon="1.58714">
        <ele>1349.462</ele>
        <time>2022-02-20T09:24:00Z</time>
      </trkpt>
      <trkpt lat="42.76411" lon="1.58715">
        <ele>1350.29</ele>
        <time>2022-02-20T09:24:02Z</time>
      </trkpt>
      <trkpt lat="42.76412" lon="1.58716">
        <ele>1350.919</ele>
        <time>2022-02-20T09:24:04Z</time>
      </trkpt>
      <trkpt lat="42.76413" lon="1.58717">
        <ele>1351.625</ele>
        <time>2022-02-20T09:24:06Z</time>
      </trkpt>
      <trkpt lat="42.76414" lon="1.58717">
        <ele>1352.642</ele>
        <time>2022-02-20T09:24:08Z</time>
      </trkpt>
      <trkpt lat="42.76414" lon="1.58718">
        <ele>1352.818</ele>
        <time>2022-02-20T09:24:10Z</time>
      </trkpt>
      <trkpt lat="42.76416" lon="1.58719">
        <ele>1354.538</ele>
        <time>2022-02-20T09:24:12Z</time>
      </trkpt>
      <trkpt lat="42.76417" lon="1.5872">
        <ele>1354.595</ele>
        <time>2022-02-20T09:24:14Z</time>
      </trkpt>
      <trkpt lat="42.76418" lon="1.58721">
        <ele>1354.431</ele>
        <time>2022-02-20T09:24:16Z</time>
      </trkpt>
      <trkpt lat="42.76419" lon="1.58722">
        <ele>1354.443</ele>
        <time>2022-02-20T09:24:18Z</time>
      </trkpt>
      <trkpt lat="42.76421" lon="1.58724">
        <ele>1353.893</ele>
        <time>2022-02-20T09:24:20Z</time>
      </trkpt>
      <trkpt lat="42.76421" lon="1.58725">
        <ele>1353.785</ele>
        <time>2022-02-20T09:24:22Z</time>
      </trkpt>
      <trkpt lat="42.76422" lon="1.58726">
        <ele>1354.502</ele>
        <time>2022-02-20T09:24:24Z</time>
      </trkpt>
      <trkpt lat="42.76423" lon="1.58728">
        <ele>1354.847</ele>
        <time>2022-02-20T09:24:26Z</time>
      </trkpt>
      <trkpt lat="42.76425" lon="1.58729">
        <ele>1355.85</ele>
        <time>2022-02-20T09:24:28Z</time>
      </trkpt>
      <trkpt lat="42.76426" lon="1.5873">
        <ele>1356.541</ele>
        <time>2022-02-20T09:24:30Z</time>
      </trkpt>
      <trkpt lat="42.76427" lon="1.58731">
        <ele>1356.968</ele>
        <time>2022-02-20T09:24:32Z</time>
      </trkpt>
      <trkpt lat="42.76428" lon="1.58732">
        <ele>1356.989</ele>
        <time>2022-02-20T09:24:34Z</time>
      </trkpt>
      <trkpt lat="42.76429" lon="1.58734">
        <ele>1357.668</ele>
        <time>2022-02-20T09:24:36Z</time>
      </trkpt>
      <trkpt lat="42.7643" lon="1.58735">
        <ele>1358.456</ele>
        <time>2022-02-20T09:24:38Z</time>
      </trkpt>
      <trkpt lat="42.76431" lon="1.58735">
        <ele>1359.151</ele>
        <time>2022-02-20T09:24:40Z</time>
      </trkpt>
      <trkpt lat="42.76431" lon="1.58735">
        <ele>1358.37</ele>
        <time>2022-02-20T09:24:42Z</time>
      </trkpt>
      <trkpt lat="42.76431" lon="1.58735">
        <ele>1358.369</ele>
        <time>2022-02-20T09:24:44Z</time>
      </trkpt>
      <trkpt lat="42.76431" lon="1.58735">
        <ele>1358.37</ele>
        <time>2022-02-20T09:24:46Z</time>
      </trkpt>
      <trkpt lat="42.76431" lon="1.58735">
        <ele>1358.364</ele>
        <time>2022-02-20T09:24:48Z</time>
      </trkpt>
      <trkpt lat="42.76431" lon="1.58735">
        <ele>1358.362</ele>
        <time>2022-02-20T09:24:50Z</time>
      </trkpt>
      <trkpt lat="42.76431" lon="1.58735">
        <ele>1358.338</ele>
        <time>2022-02-20T09:24:52Z</time>
      </trkpt>
      <trkpt lat="42.76433" lon="1.58737">
        <ele>1359.78</ele>
        <time>2022-02-20T09:24:54Z</time>
      </trkpt>
      <trkpt lat="42.76434" lon="1.58737">
        <ele>1359.489</ele>
        <time>2022-02-20T09:24:56Z</time>
      </trkpt>
      <trkpt lat="42.76435" lon="1.58739">
        <ele>1360.253</ele>
        <time>2022-02-20T09:24:58Z</time>
      </trkpt>
      <trkpt lat="42.76436" lon="1.5874">
        <ele>1361.157</ele>
        <time>2022-02-20T09:25:00Z</time>
      </trkpt>
      <trkpt lat="42.76438" lon="1.58741">
        <ele>1361.137</ele>
        <time>2022-02-20T09:25:02Z</time>
      </trkpt>
      <trkpt lat="42.76439" lon="1.58743">
        <ele>1361.282</ele>
        <time>2022-02-20T09:25:04Z</time>
      </trkpt>
      <trkpt lat="42.7644" lon="1.58744">
        <ele>1361.181</ele>
        <time>2022-02-20T09:25:06Z</time>
      </trkpt>
      <trkpt lat="42.76441" lon="1.58745">
        <ele>1362.623</ele>
        <time>2022-02-20T09:25:08Z</time>
      </trkpt>
      <trkpt lat="42.76443" lon="1.58746">
        <ele>1362.582</ele>
        <time>2022-02-20T09:25:10Z</time>
      </trkpt>
      <trkpt lat="42.76444" lon="1.58747">
        <ele>1363.681</ele>
        <time>2022-02-20T09:25:12Z</time>
      </trkpt>
      <trkpt lat="42.76445" lon="1.58748">
        <ele>1363.395</ele>
        <time>2022-02-20T09:25:14Z</time>
      </trkpt>
      <trkpt lat="42.76446" lon="1.58749">
        <ele>1363.262</ele>
        <time>2022-02-20T09:25:16Z</time>
      </trkpt>
      <trkpt lat="42.76447" lon="1.5875">
        <ele>1363.463</ele>
        <time>2022-02-20T09:25:18Z</time>
      </trkpt>
      <trkpt lat="42.76448" lon="1.58752">
        <ele>1363.392</ele>
        <time>2022-02-20T09:25:20Z</time>
      </trkpt>
      <trkpt lat="42.76449" lon="1.58753">
        <ele>1363.697</ele>
        <time>2022-02-20T09:25:22Z</time>
      </trkpt>
      <trkpt lat="42.7645" lon="1.58754">
        <ele>1363.553</ele>
        <time>2022-02-20T09:25:24Z</time>
      </trkpt>
      <trkpt lat="42.76451" lon="1.58755">
        <ele>1363.858</ele>
        <time>2022-02-20T09:25:26Z</time>
      </trkpt>
      <trkpt lat="42.76452" lon="1.58757">
        <ele>1364.617</ele>
        <time>2022-02-20T09:25:28Z</time>
      </trkpt>
      <trkpt lat="42.76453" lon="1.58758">
        <ele>1364.61</ele>
        <time>2022-02-20T09:25:30Z</time>
      </trkpt>
      <trkpt lat="42.76454" lon="1.5876">
        <ele>1365.287</ele>
        <time>2022-02-20T09:25:32Z</time>
      </trkpt>
      <trkpt lat="42.76455" lon="1.58761">
        <ele>1365.008</ele>
        <time>2022-02-20T09:25:34Z</time>
      </trkpt>
      <trkpt lat="42.76455" lon="1.58762">
        <ele>1364.236</ele>
        <time>2022-02-20T09:25:36Z</time>
      </trkpt>
      <trkpt lat="42.76456" lon="1.58764">
        <ele>1363.737</ele>
        <time>2022-02-20T09:25:38Z</time>
      </trkpt>
      <trkpt lat="42.76457" lon="1.58765">
        <ele>1365.209</ele>
        <time>2022-02-20T09:25:40Z</time>
      </trkpt>
      <trkpt lat="42.76458" lon="1.58766">
        <ele>1364.898</ele>
        <time>2022-02-20T09:25:41Z</time>
      </trkpt>
      <trkpt lat="42.76459" lon="1.58767">
        <ele>1364.541</ele>
        <time>2022-02-20T09:25:44Z</time>
      </trkpt>
      <trkpt lat="42.76461" lon="1.58769">
        <ele>1366.436</ele>
        <time>2022-02-20T09:25:47Z</time>
      </trkpt>
      <trkpt lat="42.76462" lon="1.58771">
        <ele>1367.264</ele>
        <time>2022-02-20T09:25:49Z</time>
      </trkpt>
      <trkpt lat="42.76463" lon="1.58772">
        <ele>1367.305</ele>
        <time>2022-02-20T09:25:51Z</time>
      </trkpt>
      <trkpt lat="42.76464" lon="1.58773">
        <ele>1368.928</ele>
        <time>2022-02-20T09:25:53Z</time>
      </trkpt>
      <trkpt lat="42.76465" lon="1.58775">
        <ele>1370.356</ele>
        <time>2022-02-20T09:25:55Z</time>
      </trkpt>
      <trkpt lat="42.76466" lon="1.58776">
        <ele>1371.232</ele>
        <time>2022-02-20T09:25:57Z</time>
      </trkpt>
      <trkpt lat="42.76466" lon="1.58778">
        <ele>1371.163</ele>
        <time>2022-02-20T09:25:59Z</time>
      </trkpt>
      <trkpt lat="42.76467" lon="1.58779">
        <ele>1371.84</ele>
        <time>2022-02-20T09:26:01Z</time>
      </trkpt>
      <trkpt lat="42.76468" lon="1.58781">
        <ele>1373.39</ele>
        <time>2022-02-20T09:26:03Z</time>
      </trkpt>
      <trkpt lat="42.76469" lon="1.58782">
        <ele>1373.69</ele>
        <time>2022-02-20T09:26:05Z</time>
      </trkpt>
      <trkpt lat="42.7647" lon="1.58783">
        <ele>1374.525</ele>
        <time>2022-02-20T09:26:07Z</time>
      </trkpt>
      <trkpt lat="42.7647" lon="1.58784">
        <ele>1375.03</ele>
        <time>2022-02-20T09:26:09Z</time>
      </trkpt>
      <trkpt lat="42.7647" lon="1.58784">
        <ele>1375.07</ele>
        <time>2022-02-20T09:26:11Z</time>
      </trkpt>
      <trkpt lat="42.7647" lon="1.58784">
        <ele>1375.082</ele>
        <time>2022-02-20T09:26:13Z</time>
      </trkpt>
      <trkpt lat="42.7647" lon="1.58784">
        <ele>1375.089</ele>
        <time>2022-02-20T09:26:15Z</time>
      </trkpt>
      <trkpt lat="42.7647" lon="1.58784">
        <ele>1375.089</ele>
        <time>2022-02-20T09:26:17Z</time>
      </trkpt>
      <trkpt lat="42.7647" lon="1.58784">
        <ele>1375.088</ele>
        <time>2022-02-20T09:26:19Z</time>
      </trkpt>
      <trkpt lat="42.7647" lon="1.58784">
        <ele>1375.083</ele>
        <time>2022-02-20T09:26:21Z</time>
      </trkpt>
      <trkpt lat="42.7647" lon="1.58784">
        <ele>1375.056</ele>
        <time>2022-02-20T09:26:23Z</time>
      </trkpt>
      <trkpt lat="42.7647" lon="1.58784">
        <ele>1375.045</ele>
        <time>2022-02-20T09:26:25Z</time>
      </trkpt>
      <trkpt lat="42.7647" lon="1.58784">
        <ele>1375.037</ele>
        <time>2022-02-20T09:26:27Z</time>
      </trkpt>
      <trkpt lat="42.7647" lon="1.58784">
        <ele>1374.686</ele>
        <time>2022-02-20T09:26:29Z</time>
      </trkpt>
      <trkpt lat="42.7647" lon="1.58785">
        <ele>1373.064</ele>
        <time>2022-02-20T09:26:31Z</time>
      </trkpt>
      <trkpt lat="42.76471" lon="1.58787">
        <ele>1373.141</ele>
        <time>2022-02-20T09:26:33Z</time>
      </trkpt>
      <trkpt lat="42.76471" lon="1.58787">
        <ele>1373.139</ele>
        <time>2022-02-20T09:26:35Z</time>
      </trkpt>
      <trkpt lat="42.76471" lon="1.58787">
        <ele>1373.142</ele>
        <time>2022-02-20T09:26:37Z</time>
      </trkpt>
      <trkpt lat="42.76472" lon="1.58787">
        <ele>1373.134</ele>
        <time>2022-02-20T09:26:39Z</time>
      </trkpt>
      <trkpt lat="42.76472" lon="1.58787">
        <ele>1373.13</ele>
        <time>2022-02-20T09:26:41Z</time>
      </trkpt>
      <trkpt lat="42.76472" lon="1.58787">
        <ele>1373.127</ele>
        <time>2022-02-20T09:26:43Z</time>
      </trkpt>
      <trkpt lat="42.76472" lon="1.58787">
        <ele>1373.124</ele>
        <time>2022-02-20T09:26:45Z</time>
      </trkpt>
      <trkpt lat="42.76472" lon="1.58787">
        <ele>1373.124</ele>
        <time>2022-02-20T09:26:47Z</time>
      </trkpt>
      <trkpt lat="42.76472" lon="1.58787">
        <ele>1373.122</ele>
        <time>2022-02-20T09:26:49Z</time>
      </trkpt>
      <trkpt lat="42.76472" lon="1.58787">
        <ele>1373.117</ele>
        <time>2022-02-20T09:26:51Z</time>
      </trkpt>
      <trkpt lat="42.76472" lon="1.58787">
        <ele>1373.118</ele>
        <time>2022-02-20T09:26:53Z</time>
      </trkpt>
      <trkpt lat="42.76472" lon="1.58787">
        <ele>1373.12</ele>
        <time>2022-02-20T09:26:55Z</time>
      </trkpt>
      <trkpt lat="42.76472" lon="1.58787">
        <ele>1373.105</ele>
        <time>2022-02-20T09:26:57Z</time>
      </trkpt>
      <trkpt lat="42.76472" lon="1.58787">
        <ele>1373.102</ele>
        <time>2022-02-20T09:26:59Z</time>
      </trkpt>
      <trkpt lat="42.76472" lon="1.58787">
        <ele>1373.103</ele>
        <time>2022-02-20T09:27:01Z</time>
      </trkpt>
      <trkpt lat="42.76472" lon="1.58787">
        <ele>1373.104</ele>
        <time>2022-02-20T09:27:03Z</time>
      </trkpt>
      <trkpt lat="42.76472" lon="1.58787">
        <ele>1373.106</ele>
        <time>2022-02-20T09:27:05Z</time>
      </trkpt>
      <trkpt lat="42.76472" lon="1.58787">
        <ele>1373.108</ele>
        <time>2022-02-20T09:27:07Z</time>
      </trkpt>
      <trkpt lat="42.76472" lon="1.58787">
        <ele>1372.984</ele>
        <time>2022-02-20T09:27:09Z</time>
      </trkpt>
      <trkpt lat="42.76472" lon="1.58787">
        <ele>1372.984</ele>
        <time>2022-02-20T09:27:11Z</time>
      </trkpt>
      <trkpt lat="42.76472" lon="1.58787">
        <ele>1372.766</ele>
        <time>2022-02-20T09:27:13Z</time>
      </trkpt>
      <trkpt lat="42.76472" lon="1.58787">
        <ele>1372.774</ele>
        <time>2022-02-20T09:27:15Z</time>
      </trkpt>
      <trkpt lat="42.76472" lon="1.58787">
        <ele>1373.124</ele>
        <time>2022-02-20T09:27:17Z</time>
      </trkpt>
      <trkpt lat="42.76473" lon="1.58787">
        <ele>1374.396</ele>
        <time>2022-02-20T09:27:19Z</time>
      </trkpt>
      <trkpt lat="42.76473" lon="1.58789">
        <ele>1373.089</ele>
        <time>2022-02-20T09:27:21Z</time>
      </trkpt>
      <trkpt lat="42.76474" lon="1.5879">
        <ele>1373.887</ele>
        <time>2022-02-20T09:27:23Z</time>
      </trkpt>
      <trkpt lat="42.76475" lon="1.58791">
        <ele>1374.724</ele>
        <time>2022-02-20T09:27:25Z</time>
      </trkpt>
      <trkpt lat="42.76476" lon="1.58792">
        <ele>1375.058</ele>
        <time>2022-02-20T09:27:27Z</time>
      </trkpt>
      <trkpt lat="42.76476" lon="1.58794">
        <ele>1375.439</ele>
        <time>2022-02-20T09:27:29Z</time>
      </trkpt>
      <trkpt lat="42.76477" lon="1.58795">
        <ele>1375.998</ele>
        <time>2022-02-20T09:27:31Z</time>
      </trkpt>
      <trkpt lat="42.76478" lon="1.58797">
        <ele>1376.958</ele>
        <time>2022-02-20T09:27:33Z</time>
      </trkpt>
      <trkpt lat="42.76478" lon="1.58799">
        <ele>1377.897</ele>
        <time>2022-02-20T09:27:35Z</time>
      </trkpt>
      <trkpt lat="42.76479" lon="1.58801">
        <ele>1378.641</ele>
        <time>2022-02-20T09:27:37Z</time>
      </trkpt>
      <trkpt lat="42.7648" lon="1.58802">
        <ele>1379.236</ele>
        <time>2022-02-20T09:27:39Z</time>
      </trkpt>
      <trkpt lat="42.76481" lon="1.58804">
        <ele>1381.607</ele>
        <time>2022-02-20T09:27:41Z</time>
      </trkpt>
      <trkpt lat="42.76482" lon="1.58806">
        <ele>1381.23</ele>
        <time>2022-02-20T09:27:43Z</time>
      </trkpt>
      <trkpt lat="42.76482" lon="1.58808">
        <ele>1380.951</ele>
        <time>2022-02-20T09:27:45Z</time>
      </trkpt>
      <trkpt lat="42.76483" lon="1.5881">
        <ele>1380.659</ele>
        <time>2022-02-20T09:27:47Z</time>
      </trkpt>
      <trkpt lat="42.76483" lon="1.58811">
        <ele>1381.142</ele>
        <time>2022-02-20T09:27:49Z</time>
      </trkpt>
      <trkpt lat="42.76484" lon="1.58813">
        <ele>1379.997</ele>
        <time>2022-02-20T09:27:51Z</time>
      </trkpt>
      <trkpt lat="42.76484" lon="1.58815">
        <ele>1379.618</ele>
        <time>2022-02-20T09:27:53Z</time>
      </trkpt>
      <trkpt lat="42.76484" lon="1.58817">
        <ele>1379.295</ele>
        <time>2022-02-20T09:27:55Z</time>
      </trkpt>
      <trkpt lat="42.76485" lon="1.58819">
        <ele>1379.053</ele>
        <time>2022-02-20T09:27:57Z</time>
      </trkpt>
      <trkpt lat="42.76485" lon="1.58821">
        <ele>1378.584</ele>
        <time>2022-02-20T09:27:59Z</time>
      </trkpt>
      <trkpt lat="42.76486" lon="1.58823">
        <ele>1378.908</ele>
        <time>2022-02-20T09:28:01Z</time>
      </trkpt>
      <trkpt lat="42.76486" lon="1.58825">
        <ele>1379.563</ele>
        <time>2022-02-20T09:28:03Z</time>
      </trkpt>
      <trkpt lat="42.76487" lon="1.58826">
        <ele>1379.828</ele>
        <time>2022-02-20T09:28:05Z</time>
      </trkpt>
      <trkpt lat="42.76487" lon="1.58828">
        <ele>1379.831</ele>
        <time>2022-02-20T09:28:07Z</time>
      </trkpt>
      <trkpt lat="42.76487" lon="1.5883">
        <ele>1379.674</ele>
        <time>2022-02-20T09:28:09Z</time>
      </trkpt>
      <trkpt lat="42.76488" lon="1.58831">
        <ele>1380.263</ele>
        <time>2022-02-20T09:28:11Z</time>
      </trkpt>
      <trkpt lat="42.76488" lon="1.58833">
        <ele>1380.343</ele>
        <time>2022-02-20T09:28:13Z</time>
      </trkpt>
      <trkpt lat="42.76488" lon="1.58834">
        <ele>1380.365</ele>
        <time>2022-02-20T09:28:15Z</time>
      </trkpt>
      <trkpt lat="42.76488" lon="1.58836">
        <ele>1379.371</ele>
        <time>2022-02-20T09:28:17Z</time>
      </trkpt>
      <trkpt lat="42.76488" lon="1.58838">
        <ele>1379.783</ele>
        <time>2022-02-20T09:28:19Z</time>
      </trkpt>
      <trkpt lat="42.76489" lon="1.58839">
        <ele>1380.289</ele>
        <time>2022-02-20T09:28:21Z</time>
      </trkpt>
      <trkpt lat="42.76489" lon="1.58841">
        <ele>1379.914</ele>
        <time>2022-02-20T09:28:23Z</time>
      </trkpt>
      <trkpt lat="42.7649" lon="1.58842">
        <ele>1380.197</ele>
        <time>2022-02-20T09:28:25Z</time>
      </trkpt>
      <trkpt lat="42.7649" lon="1.58844">
        <ele>1379.769</ele>
        <time>2022-02-20T09:28:27Z</time>
      </trkpt>
      <trkpt lat="42.76491" lon="1.58845">
        <ele>1381.426</ele>
        <time>2022-02-20T09:28:29Z</time>
      </trkpt>
      <trkpt lat="42.76492" lon="1.58846">
        <ele>1381.577</ele>
        <time>2022-02-20T09:28:31Z</time>
      </trkpt>
      <trkpt lat="42.76493" lon="1.58848">
        <ele>1381.99</ele>
        <time>2022-02-20T09:28:33Z</time>
      </trkpt>
      <trkpt lat="42.76493" lon="1.58849">
        <ele>1382.851</ele>
        <time>2022-02-20T09:28:35Z</time>
      </trkpt>
      <trkpt lat="42.76494" lon="1.58851">
        <ele>1383.902</ele>
        <time>2022-02-20T09:28:37Z</time>
      </trkpt>
      <trkpt lat="42.76494" lon="1.58852">
        <ele>1384.065</ele>
        <time>2022-02-20T09:28:39Z</time>
      </trkpt>
      <trkpt lat="42.76494" lon="1.58854">
        <ele>1384.17</ele>
        <time>2022-02-20T09:28:41Z</time>
      </trkpt>
      <trkpt lat="42.76494" lon="1.58855">
        <ele>1384.776</ele>
        <time>2022-02-20T09:28:43Z</time>
      </trkpt>
      <trkpt lat="42.76494" lon="1.58857">
        <ele>1386.363</ele>
        <time>2022-02-20T09:28:45Z</time>
      </trkpt>
      <trkpt lat="42.76494" lon="1.58858">
        <ele>1386.761</ele>
        <time>2022-02-20T09:28:47Z</time>
      </trkpt>
      <trkpt lat="42.76493" lon="1.5886">
        <ele>1385.96</ele>
        <time>2022-02-20T09:28:49Z</time>
      </trkpt>
      <trkpt lat="42.76493" lon="1.58862">
        <ele>1385.782</ele>
        <time>2022-02-20T09:28:51Z</time>
      </trkpt>
      <trkpt lat="42.76493" lon="1.58864">
        <ele>1385.649</ele>
        <time>2022-02-20T09:28:53Z</time>
      </trkpt>
      <trkpt lat="42.76493" lon="1.58866">
        <ele>1385.18</ele>
        <time>2022-02-20T09:28:55Z</time>
      </trkpt>
      <trkpt lat="42.76493" lon="1.58867">
        <ele>1384.304</ele>
        <time>2022-02-20T09:28:57Z</time>
      </trkpt>
      <trkpt lat="42.76493" lon="1.58869">
        <ele>1384.493</ele>
        <time>2022-02-20T09:28:59Z</time>
      </trkpt>
      <trkpt lat="42.76492" lon="1.58871">
        <ele>1384.365</ele>
        <time>2022-02-20T09:29:01Z</time>
      </trkpt>
      <trkpt lat="42.76492" lon="1.58873">
        <ele>1384.023</ele>
        <time>2022-02-20T09:29:03Z</time>
      </trkpt>
      <trkpt lat="42.76492" lon="1.58874">
        <ele>1384.088</ele>
        <time>2022-02-20T09:29:05Z</time>
      </trkpt>
      <trkpt lat="42.76492" lon="1.58876">
        <ele>1384.07</ele>
        <time>2022-02-20T09:29:07Z</time>
      </trkpt>
      <trkpt lat="42.76491" lon="1.58876">
        <ele>1382.804</ele>
        <time>2022-02-20T09:29:09Z</time>
      </trkpt>
      <trkpt lat="42.7649" lon="1.58877">
        <ele>1382.701</ele>
        <time>2022-02-20T09:29:11Z</time>
      </trkpt>
      <trkpt lat="42.76489" lon="1.58877">
        <ele>1382.192</ele>
        <time>2022-02-20T09:29:13Z</time>
      </trkpt>
      <trkpt lat="42.76488" lon="1.58879">
        <ele>1381.851</ele>
        <time>2022-02-20T09:29:15Z</time>
      </trkpt>
      <trkpt lat="42.76487" lon="1.58879">
        <ele>1380.931</ele>
        <time>2022-02-20T09:29:17Z</time>
      </trkpt>
      <trkpt lat="42.76486" lon="1.5888">
        <ele>1381.563</ele>
        <time>2022-02-20T09:29:19Z</time>
      </trkpt>
      <trkpt lat="42.76485" lon="1.58881">
        <ele>1381.763</ele>
        <time>2022-02-20T09:29:21Z</time>
      </trkpt>
      <trkpt lat="42.76485" lon="1.58882">
        <ele>1381.977</ele>
        <time>2022-02-20T09:29:23Z</time>
      </trkpt>
      <trkpt lat="42.76485" lon="1.58884">
        <ele>1382.421</ele>
        <time>2022-02-20T09:29:25Z</time>
      </trkpt>
      <trkpt lat="42.76485" lon="1.58885">
        <ele>1382.292</ele>
        <time>2022-02-20T09:29:27Z</time>
      </trkpt>
      <trkpt lat="42.76486" lon="1.58886">
        <ele>1382.403</ele>
        <time>2022-02-20T09:29:29Z</time>
      </trkpt>
      <trkpt lat="42.76485" lon="1.58888">
        <ele>1382.674</ele>
        <time>2022-02-20T09:29:31Z</time>
      </trkpt>
      <trkpt lat="42.76485" lon="1.58889">
        <ele>1382.736</ele>
        <time>2022-02-20T09:29:33Z</time>
      </trkpt>
      <trkpt lat="42.76485" lon="1.5889">
        <ele>1383.02</ele>
        <time>2022-02-20T09:29:35Z</time>
      </trkpt>
      <trkpt lat="42.76485" lon="1.58891">
        <ele>1382.86</ele>
        <time>2022-02-20T09:29:37Z</time>
      </trkpt>
      <trkpt lat="42.76485" lon="1.58893">
        <ele>1383.457</ele>
        <time>2022-02-20T09:29:39Z</time>
      </trkpt>
      <trkpt lat="42.76485" lon="1.58894">
        <ele>1384.063</ele>
        <time>2022-02-20T09:29:41Z</time>
      </trkpt>
      <trkpt lat="42.76485" lon="1.58895">
        <ele>1384.758</ele>
        <time>2022-02-20T09:29:43Z</time>
      </trkpt>
      <trkpt lat="42.76485" lon="1.58897">
        <ele>1384.438</ele>
        <time>2022-02-20T09:29:45Z</time>
      </trkpt>
      <trkpt lat="42.76486" lon="1.58898">
        <ele>1385.149</ele>
        <time>2022-02-20T09:29:47Z</time>
      </trkpt>
      <trkpt lat="42.76486" lon="1.589">
        <ele>1386.053</ele>
        <time>2022-02-20T09:29:49Z</time>
      </trkpt>
      <trkpt lat="42.76486" lon="1.58901">
        <ele>1385.841</ele>
        <time>2022-02-20T09:29:51Z</time>
      </trkpt>
      <trkpt lat="42.76486" lon="1.58903">
        <ele>1386.956</ele>
        <time>2022-02-20T09:29:53Z</time>
      </trkpt>
      <trkpt lat="42.76486" lon="1.58904">
        <ele>1386.358</ele>
        <time>2022-02-20T09:29:55Z</time>
      </trkpt>
      <trkpt lat="42.76486" lon="1.58905">
        <ele>1385.954</ele>
        <time>2022-02-20T09:29:57Z</time>
      </trkpt>
      <trkpt lat="42.76486" lon="1.58906">
        <ele>1385.836</ele>
        <time>2022-02-20T09:29:59Z</time>
      </trkpt>
      <trkpt lat="42.76485" lon="1.58908">
        <ele>1386.289</ele>
        <time>2022-02-20T09:30:01Z</time>
      </trkpt>
      <trkpt lat="42.76485" lon="1.58909">
        <ele>1385.332</ele>
        <time>2022-02-20T09:30:03Z</time>
      </trkpt>
      <trkpt lat="42.76484" lon="1.5891">
        <ele>1385.41</ele>
        <time>2022-02-20T09:30:05Z</time>
      </trkpt>
      <trkpt lat="42.76484" lon="1.58911">
        <ele>1385.894</ele>
        <time>2022-02-20T09:30:07Z</time>
      </trkpt>
      <trkpt lat="42.76484" lon="1.58913">
        <ele>1385.933</ele>
        <time>2022-02-20T09:30:09Z</time>
      </trkpt>
      <trkpt lat="42.76484" lon="1.58914">
        <ele>1385.768</ele>
        <time>2022-02-20T09:30:11Z</time>
      </trkpt>
      <trkpt lat="42.76485" lon="1.58915">
        <ele>1386.027</ele>
        <time>2022-02-20T09:30:13Z</time>
      </trkpt>
      <trkpt lat="42.76486" lon="1.58916">
        <ele>1385.374</ele>
        <time>2022-02-20T09:30:15Z</time>
      </trkpt>
      <trkpt lat="42.76486" lon="1.58917">
        <ele>1385.357</ele>
        <time>2022-02-20T09:30:17Z</time>
      </trkpt>
      <trkpt lat="42.76487" lon="1.58918">
        <ele>1385.598</ele>
        <time>2022-02-20T09:30:19Z</time>
      </trkpt>
      <trkpt lat="42.76487" lon="1.58919">
        <ele>1386.128</ele>
        <time>2022-02-20T09:30:21Z</time>
      </trkpt>
      <trkpt lat="42.76487" lon="1.58921">
        <ele>1386.118</ele>
        <time>2022-02-20T09:30:23Z</time>
      </trkpt>
      <trkpt lat="42.76487" lon="1.58922">
        <ele>1385.915</ele>
        <time>2022-02-20T09:30:25Z</time>
      </trkpt>
      <trkpt lat="42.76487" lon="1.58924">
        <ele>1385.317</ele>
        <time>2022-02-20T09:30:27Z</time>
      </trkpt>
      <trkpt lat="42.76488" lon="1.58925">
        <ele>1385.389</ele>
        <time>2022-02-20T09:30:29Z</time>
      </trkpt>
      <trkpt lat="42.76488" lon="1.58926">
        <ele>1385.269</ele>
        <time>2022-02-20T09:30:31Z</time>
      </trkpt>
      <trkpt lat="42.76489" lon="1.58927">
        <ele>1385.748</ele>
        <time>2022-02-20T09:30:33Z</time>
      </trkpt>
      <trkpt lat="42.7649" lon="1.58928">
        <ele>1385.582</ele>
        <time>2022-02-20T09:30:35Z</time>
      </trkpt>
      <trkpt lat="42.7649" lon="1.58929">
        <ele>1386.055</ele>
        <time>2022-02-20T09:30:37Z</time>
      </trkpt>
      <trkpt lat="42.76491" lon="1.5893">
        <ele>1386.476</ele>
        <time>2022-02-20T09:30:39Z</time>
      </trkpt>
      <trkpt lat="42.76491" lon="1.58932">
        <ele>1386.599</ele>
        <time>2022-02-20T09:30:41Z</time>
      </trkpt>
      <trkpt lat="42.76491" lon="1.58933">
        <ele>1387.291</ele>
        <time>2022-02-20T09:30:43Z</time>
      </trkpt>
      <trkpt lat="42.76491" lon="1.58935">
        <ele>1387.493</ele>
        <time>2022-02-20T09:30:45Z</time>
      </trkpt>
      <trkpt lat="42.76491" lon="1.58936">
        <ele>1388.116</ele>
        <time>2022-02-20T09:30:47Z</time>
      </trkpt>
      <trkpt lat="42.76491" lon="1.58937">
        <ele>1388.263</ele>
        <time>2022-02-20T09:30:49Z</time>
      </trkpt>
      <trkpt lat="42.76492" lon="1.58938">
        <ele>1387.803</ele>
        <time>2022-02-20T09:30:51Z</time>
      </trkpt>
      <trkpt lat="42.76492" lon="1.58939">
        <ele>1388.141</ele>
        <time>2022-02-20T09:30:53Z</time>
      </trkpt>
      <trkpt lat="42.76493" lon="1.58941">
        <ele>1388.4</ele>
        <time>2022-02-20T09:30:55Z</time>
      </trkpt>
      <trkpt lat="42.76493" lon="1.58942">
        <ele>1388.761</ele>
        <time>2022-02-20T09:30:57Z</time>
      </trkpt>
      <trkpt lat="42.76494" lon="1.58944">
        <ele>1389.608</ele>
        <time>2022-02-20T09:30:59Z</time>
      </trkpt>
      <trkpt lat="42.76494" lon="1.58945">
        <ele>1389.618</ele>
        <time>2022-02-20T09:31:01Z</time>
      </trkpt>
      <trkpt lat="42.76495" lon="1.58946">
        <ele>1389.376</ele>
        <time>2022-02-20T09:31:03Z</time>
      </trkpt>
      <trkpt lat="42.76496" lon="1.58948">
        <ele>1389.499</ele>
        <time>2022-02-20T09:31:05Z</time>
      </trkpt>
      <trkpt lat="42.76496" lon="1.58949">
        <ele>1390.061</ele>
        <time>2022-02-20T09:31:07Z</time>
      </trkpt>
      <trkpt lat="42.76495" lon="1.5895">
        <ele>1390.528</ele>
        <time>2022-02-20T09:31:09Z</time>
      </trkpt>
      <trkpt lat="42.76495" lon="1.58951">
        <ele>1389.834</ele>
        <time>2022-02-20T09:31:11Z</time>
      </trkpt>
      <trkpt lat="42.76495" lon="1.58953">
        <ele>1389.825</ele>
        <time>2022-02-20T09:31:13Z</time>
      </trkpt>
      <trkpt lat="42.76495" lon="1.58955">
        <ele>1390.097</ele>
        <time>2022-02-20T09:31:15Z</time>
      </trkpt>
      <trkpt lat="42.76494" lon="1.58955">
        <ele>1388.947</ele>
        <time>2022-02-20T09:31:17Z</time>
      </trkpt>
      <trkpt lat="42.76492" lon="1.58955">
        <ele>1389.064</ele>
        <time>2022-02-20T09:31:19Z</time>
      </trkpt>
      <trkpt lat="42.76491" lon="1.58956">
        <ele>1388.737</ele>
        <time>2022-02-20T09:31:21Z</time>
      </trkpt>
      <trkpt lat="42.7649" lon="1.58957">
        <ele>1387.648</ele>
        <time>2022-02-20T09:31:23Z</time>
      </trkpt>
      <trkpt lat="42.76489" lon="1.58958">
        <ele>1387.392</ele>
        <time>2022-02-20T09:31:25Z</time>
      </trkpt>
      <trkpt lat="42.76488" lon="1.58959">
        <ele>1387.67</ele>
        <time>2022-02-20T09:31:27Z</time>
      </trkpt>
      <trkpt lat="42.76488" lon="1.58961">
        <ele>1388.536</ele>
        <time>2022-02-20T09:31:29Z</time>
      </trkpt>
      <trkpt lat="42.76488" lon="1.58961">
        <ele>1388.421</ele>
        <time>2022-02-20T09:31:31Z</time>
      </trkpt>
      <trkpt lat="42.76488" lon="1.58961">
        <ele>1388.421</ele>
        <time>2022-02-20T09:31:33Z</time>
      </trkpt>
      <trkpt lat="42.76488" lon="1.5896">
        <ele>1388.509</ele>
        <time>2022-02-20T09:31:35Z</time>
      </trkpt>
      <trkpt lat="42.76488" lon="1.5896">
        <ele>1389.103</ele>
        <time>2022-02-20T09:31:37Z</time>
      </trkpt>
      <trkpt lat="42.76488" lon="1.5896">
        <ele>1389.101</ele>
        <time>2022-02-20T09:31:39Z</time>
      </trkpt>
      <trkpt lat="42.76488" lon="1.5896">
        <ele>1389.103</ele>
        <time>2022-02-20T09:31:41Z</time>
      </trkpt>
      <trkpt lat="42.76488" lon="1.5896">
        <ele>1389.1</ele>
        <time>2022-02-20T09:31:43Z</time>
      </trkpt>
      <trkpt lat="42.76488" lon="1.5896">
        <ele>1389.09</ele>
        <time>2022-02-20T09:31:45Z</time>
      </trkpt>
      <trkpt lat="42.76488" lon="1.5896">
        <ele>1389.084</ele>
        <time>2022-02-20T09:31:47Z</time>
      </trkpt>
      <trkpt lat="42.76488" lon="1.5896">
        <ele>1389.078</ele>
        <time>2022-02-20T09:31:49Z</time>
      </trkpt>
      <trkpt lat="42.76488" lon="1.5896">
        <ele>1389.077</ele>
        <time>2022-02-20T09:31:51Z</time>
      </trkpt>
      <trkpt lat="42.76488" lon="1.5896">
        <ele>1389.076</ele>
        <time>2022-02-20T09:31:53Z</time>
      </trkpt>
      <trkpt lat="42.76488" lon="1.5896">
        <ele>1389.084</ele>
        <time>2022-02-20T09:31:55Z</time>
      </trkpt>
      <trkpt lat="42.76488" lon="1.5896">
        <ele>1389.09</ele>
        <time>2022-02-20T09:31:57Z</time>
      </trkpt>
      <trkpt lat="42.76488" lon="1.5896">
        <ele>1389.448</ele>
        <time>2022-02-20T09:31:59Z</time>
      </trkpt>
      <trkpt lat="42.76488" lon="1.5896">
        <ele>1389.443</ele>
        <time>2022-02-20T09:32:01Z</time>
      </trkpt>
      <trkpt lat="42.76488" lon="1.5896">
        <ele>1389.449</ele>
        <time>2022-02-20T09:32:03Z</time>
      </trkpt>
      <trkpt lat="42.76488" lon="1.5896">
        <ele>1389.455</ele>
        <time>2022-02-20T09:32:05Z</time>
      </trkpt>
      <trkpt lat="42.76488" lon="1.5896">
        <ele>1389.459</ele>
        <time>2022-02-20T09:32:07Z</time>
      </trkpt>
      <trkpt lat="42.76488" lon="1.5896">
        <ele>1389.453</ele>
        <time>2022-02-20T09:32:09Z</time>
      </trkpt>
      <trkpt lat="42.76488" lon="1.5896">
        <ele>1389.457</ele>
        <time>2022-02-20T09:32:11Z</time>
      </trkpt>
      <trkpt lat="42.76488" lon="1.5896">
        <ele>1389.465</ele>
        <time>2022-02-20T09:32:13Z</time>
      </trkpt>
      <trkpt lat="42.76488" lon="1.5896">
        <ele>1389.468</ele>
        <time>2022-02-20T09:32:15Z</time>
      </trkpt>
      <trkpt lat="42.76488" lon="1.5896">
        <ele>1389.471</ele>
        <time>2022-02-20T09:32:17Z</time>
      </trkpt>
      <trkpt lat="42.76488" lon="1.5896">
        <ele>1389.476</ele>
        <time>2022-02-20T09:32:19Z</time>
      </trkpt>
      <trkpt lat="42.76488" lon="1.5896">
        <ele>1389.479</ele>
        <time>2022-02-20T09:32:21Z</time>
      </trkpt>
      <trkpt lat="42.76488" lon="1.5896">
        <ele>1389.479</ele>
        <time>2022-02-20T09:32:23Z</time>
      </trkpt>
      <trkpt lat="42.76488" lon="1.5896">
        <ele>1389.481</ele>
        <time>2022-02-20T09:32:25Z</time>
      </trkpt>
      <trkpt lat="42.76488" lon="1.5896">
        <ele>1389.479</ele>
        <time>2022-02-20T09:32:27Z</time>
      </trkpt>
      <trkpt lat="42.76488" lon="1.5896">
        <ele>1389.476</ele>
        <time>2022-02-20T09:32:29Z</time>
      </trkpt>
      <trkpt lat="42.76488" lon="1.5896">
        <ele>1389.48</ele>
        <time>2022-02-20T09:32:32Z</time>
      </trkpt>
      <trkpt lat="42.76488" lon="1.5896">
        <ele>1389.484</ele>
        <time>2022-02-20T09:32:34Z</time>
      </trkpt>
      <trkpt lat="42.76488" lon="1.5896">
        <ele>1389.484</ele>
        <time>2022-02-20T09:32:36Z</time>
      </trkpt>
      <trkpt lat="42.76488" lon="1.5896">
        <ele>1389.482</ele>
        <time>2022-02-20T09:32:38Z</time>
      </trkpt>
      <trkpt lat="42.76488" lon="1.5896">
        <ele>1389.493</ele>
        <time>2022-02-20T09:32:40Z</time>
      </trkpt>
      <trkpt lat="42.76488" lon="1.5896">
        <ele>1389.5</ele>
        <time>2022-02-20T09:32:42Z</time>
      </trkpt>
      <trkpt lat="42.76488" lon="1.5896">
        <ele>1389.511</ele>
        <time>2022-02-20T09:32:44Z</time>
      </trkpt>
      <trkpt lat="42.76488" lon="1.5896">
        <ele>1389.515</ele>
        <time>2022-02-20T09:32:46Z</time>
      </trkpt>
      <trkpt lat="42.76488" lon="1.5896">
        <ele>1389.517</ele>
        <time>2022-02-20T09:32:48Z</time>
      </trkpt>
      <trkpt lat="42.76488" lon="1.5896">
        <ele>1389.519</ele>
        <time>2022-02-20T09:32:50Z</time>
      </trkpt>
      <trkpt lat="42.76488" lon="1.5896">
        <ele>1389.516</ele>
        <time>2022-02-20T09:32:52Z</time>
      </trkpt>
      <trkpt lat="42.76488" lon="1.5896">
        <ele>1389.514</ele>
        <time>2022-02-20T09:32:54Z</time>
      </trkpt>
      <trkpt lat="42.76488" lon="1.5896">
        <ele>1389.511</ele>
        <time>2022-02-20T09:32:56Z</time>
      </trkpt>
      <trkpt lat="42.76488" lon="1.5896">
        <ele>1389.512</ele>
        <time>2022-02-20T09:32:58Z</time>
      </trkpt>
      <trkpt lat="42.76488" lon="1.5896">
        <ele>1389.52</ele>
        <time>2022-02-20T09:33:00Z</time>
      </trkpt>
      <trkpt lat="42.76488" lon="1.5896">
        <ele>1389.514</ele>
        <time>2022-02-20T09:33:02Z</time>
      </trkpt>
      <trkpt lat="42.76488" lon="1.5896">
        <ele>1389.512</ele>
        <time>2022-02-20T09:33:04Z</time>
      </trkpt>
      <trkpt lat="42.76488" lon="1.5896">
        <ele>1389.514</ele>
        <time>2022-02-20T09:33:06Z</time>
      </trkpt>
      <trkpt lat="42.76488" lon="1.5896">
        <ele>1389.53</ele>
        <time>2022-02-20T09:33:08Z</time>
      </trkpt>
      <trkpt lat="42.76488" lon="1.58961">
        <ele>1389.549</ele>
        <time>2022-02-20T09:33:10Z</time>
      </trkpt>
      <trkpt lat="42.76488" lon="1.58961">
        <ele>1389.56</ele>
        <time>2022-02-20T09:33:12Z</time>
      </trkpt>
      <trkpt lat="42.76488" lon="1.5896">
        <ele>1389.325</ele>
        <time>2022-02-20T09:33:14Z</time>
      </trkpt>
      <trkpt lat="42.76488" lon="1.5896">
        <ele>1389.328</ele>
        <time>2022-02-20T09:33:16Z</time>
      </trkpt>
      <trkpt lat="42.76488" lon="1.5896">
        <ele>1389.323</ele>
        <time>2022-02-20T09:33:18Z</time>
      </trkpt>
      <trkpt lat="42.76488" lon="1.5896">
        <ele>1389.323</ele>
        <time>2022-02-20T09:33:20Z</time>
      </trkpt>
      <trkpt lat="42.76488" lon="1.5896">
        <ele>1389.323</ele>
        <time>2022-02-20T09:33:22Z</time>
      </trkpt>
      <trkpt lat="42.76488" lon="1.58961">
        <ele>1389.323</ele>
        <time>2022-02-20T09:33:24Z</time>
      </trkpt>
      <trkpt lat="42.76488" lon="1.58961">
        <ele>1389.696</ele>
        <time>2022-02-20T09:33:26Z</time>
      </trkpt>
      <trkpt lat="42.76488" lon="1.58961">
        <ele>1390.017</ele>
        <time>2022-02-20T09:33:28Z</time>
      </trkpt>
      <trkpt lat="42.76488" lon="1.58961">
        <ele>1389.982</ele>
        <time>2022-02-20T09:33:30Z</time>
      </trkpt>
      <trkpt lat="42.76488" lon="1.58961">
        <ele>1389.977</ele>
        <time>2022-02-20T09:33:32Z</time>
      </trkpt>
      <trkpt lat="42.76488" lon="1.58961">
        <ele>1389.974</ele>
        <time>2022-02-20T09:33:34Z</time>
      </trkpt>
      <trkpt lat="42.76488" lon="1.58961">
        <ele>1389.977</ele>
        <time>2022-02-20T09:33:36Z</time>
      </trkpt>
      <trkpt lat="42.76488" lon="1.58961">
        <ele>1389.976</ele>
        <time>2022-02-20T09:33:38Z</time>
      </trkpt>
      <trkpt lat="42.76488" lon="1.58961">
        <ele>1389.981</ele>
        <time>2022-02-20T09:33:40Z</time>
      </trkpt>
      <trkpt lat="42.76488" lon="1.58961">
        <ele>1389.984</ele>
        <time>2022-02-20T09:33:42Z</time>
      </trkpt>
      <trkpt lat="42.76488" lon="1.58961">
        <ele>1389.894</ele>
        <time>2022-02-20T09:33:44Z</time>
      </trkpt>
      <trkpt lat="42.76488" lon="1.58961">
        <ele>1389.895</ele>
        <time>2022-02-20T09:33:46Z</time>
      </trkpt>
      <trkpt lat="42.76488" lon="1.58961">
        <ele>1389.887</ele>
        <time>2022-02-20T09:33:48Z</time>
      </trkpt>
      <trkpt lat="42.76488" lon="1.58961">
        <ele>1389.725</ele>
        <time>2022-02-20T09:33:50Z</time>
      </trkpt>
      <trkpt lat="42.76488" lon="1.58961">
        <ele>1389.732</ele>
        <time>2022-02-20T09:33:52Z</time>
      </trkpt>
      <trkpt lat="42.76488" lon="1.58961">
        <ele>1389.734</ele>
        <time>2022-02-20T09:33:54Z</time>
      </trkpt>
      <trkpt lat="42.76488" lon="1.58961">
        <ele>1389.628</ele>
        <time>2022-02-20T09:33:56Z</time>
      </trkpt>
      <trkpt lat="42.76487" lon="1.58962">
        <ele>1389.383</ele>
        <time>2022-02-20T09:33:58Z</time>
      </trkpt>
      <trkpt lat="42.76486" lon="1.58964">
        <ele>1389.179</ele>
        <time>2022-02-20T09:34:00Z</time>
      </trkpt>
      <trkpt lat="42.76485" lon="1.58965">
        <ele>1389</ele>
        <time>2022-02-20T09:34:02Z</time>
      </trkpt>
      <trkpt lat="42.76484" lon="1.58966">
        <ele>1388.942</ele>
        <time>2022-02-20T09:34:04Z</time>
      </trkpt>
      <trkpt lat="42.76483" lon="1.58967">
        <ele>1389.127</ele>
        <time>2022-02-20T09:34:06Z</time>
      </trkpt>
      <trkpt lat="42.76483" lon="1.58969">
        <ele>1388.987</ele>
        <time>2022-02-20T09:34:08Z</time>
      </trkpt>
      <trkpt lat="42.76482" lon="1.5897">
        <ele>1388.922</ele>
        <time>2022-02-20T09:34:10Z</time>
      </trkpt>
      <trkpt lat="42.76483" lon="1.58972">
        <ele>1388.631</ele>
        <time>2022-02-20T09:34:12Z</time>
      </trkpt>
      <trkpt lat="42.76483" lon="1.58974">
        <ele>1389.438</ele>
        <time>2022-02-20T09:34:14Z</time>
      </trkpt>
      <trkpt lat="42.76484" lon="1.58976">
        <ele>1390.083</ele>
        <time>2022-02-20T09:34:16Z</time>
      </trkpt>
      <trkpt lat="42.76484" lon="1.58978">
        <ele>1390.593</ele>
        <time>2022-02-20T09:34:18Z</time>
      </trkpt>
      <trkpt lat="42.76484" lon="1.5898">
        <ele>1391.164</ele>
        <time>2022-02-20T09:34:20Z</time>
      </trkpt>
      <trkpt lat="42.76485" lon="1.58982">
        <ele>1391.971</ele>
        <time>2022-02-20T09:34:22Z</time>
      </trkpt>
      <trkpt lat="42.76485" lon="1.58984">
        <ele>1392.155</ele>
        <time>2022-02-20T09:34:25Z</time>
      </trkpt>
      <trkpt lat="42.76486" lon="1.58986">
        <ele>1392.87</ele>
        <time>2022-02-20T09:34:27Z</time>
      </trkpt>
      <trkpt lat="42.76486" lon="1.58987">
        <ele>1393.099</ele>
        <time>2022-02-20T09:34:29Z</time>
      </trkpt>
      <trkpt lat="42.76486" lon="1.58989">
        <ele>1392.728</ele>
        <time>2022-02-20T09:34:31Z</time>
      </trkpt>
      <trkpt lat="42.76487" lon="1.5899">
        <ele>1393.064</ele>
        <time>2022-02-20T09:34:33Z</time>
      </trkpt>
      <trkpt lat="42.76487" lon="1.58992">
        <ele>1393.425</ele>
        <time>2022-02-20T09:34:35Z</time>
      </trkpt>
      <trkpt lat="42.76487" lon="1.58992">
        <ele>1394.043</ele>
        <time>2022-02-20T09:34:37Z</time>
      </trkpt>
      <trkpt lat="42.76488" lon="1.58992">
        <ele>1394.499</ele>
        <time>2022-02-20T09:34:39Z</time>
      </trkpt>
      <trkpt lat="42.76488" lon="1.58992">
        <ele>1395.452</ele>
        <time>2022-02-20T09:34:41Z</time>
      </trkpt>
      <trkpt lat="42.76489" lon="1.58992">
        <ele>1395.657</ele>
        <time>2022-02-20T09:34:43Z</time>
      </trkpt>
      <trkpt lat="42.76489" lon="1.58992">
        <ele>1395.658</ele>
        <time>2022-02-20T09:34:45Z</time>
      </trkpt>
      <trkpt lat="42.76489" lon="1.58992">
        <ele>1395.649</ele>
        <time>2022-02-20T09:34:47Z</time>
      </trkpt>
      <trkpt lat="42.76489" lon="1.58992">
        <ele>1395.642</ele>
        <time>2022-02-20T09:34:49Z</time>
      </trkpt>
      <trkpt lat="42.76489" lon="1.58992">
        <ele>1395.68</ele>
        <time>2022-02-20T09:34:51Z</time>
      </trkpt>
      <trkpt lat="42.76489" lon="1.58991">
        <ele>1395.898</ele>
        <time>2022-02-20T09:34:53Z</time>
      </trkpt>
      <trkpt lat="42.76488" lon="1.5899">
        <ele>1396.274</ele>
        <time>2022-02-20T09:34:55Z</time>
      </trkpt>
      <trkpt lat="42.76488" lon="1.5899">
        <ele>1395.844</ele>
        <time>2022-02-20T09:34:57Z</time>
      </trkpt>
      <trkpt lat="42.76488" lon="1.58992">
        <ele>1394.994</ele>
        <time>2022-02-20T09:34:59Z</time>
      </trkpt>
      <trkpt lat="42.76487" lon="1.58994">
        <ele>1394.534</ele>
        <time>2022-02-20T09:35:01Z</time>
      </trkpt>
      <trkpt lat="42.76487" lon="1.58996">
        <ele>1394.252</ele>
        <time>2022-02-20T09:35:03Z</time>
      </trkpt>
      <trkpt lat="42.76487" lon="1.58998">
        <ele>1394.241</ele>
        <time>2022-02-20T09:35:05Z</time>
      </trkpt>
      <trkpt lat="42.76486" lon="1.58999">
        <ele>1393.979</ele>
        <time>2022-02-20T09:35:07Z</time>
      </trkpt>
      <trkpt lat="42.76485" lon="1.59001">
        <ele>1393.781</ele>
        <time>2022-02-20T09:35:09Z</time>
      </trkpt>
      <trkpt lat="42.76485" lon="1.59003">
        <ele>1393.931</ele>
        <time>2022-02-20T09:35:11Z</time>
      </trkpt>
      <trkpt lat="42.76484" lon="1.59004">
        <ele>1393.585</ele>
        <time>2022-02-20T09:35:13Z</time>
      </trkpt>
      <trkpt lat="42.76484" lon="1.59006">
        <ele>1393.599</ele>
        <time>2022-02-20T09:35:15Z</time>
      </trkpt>
      <trkpt lat="42.76484" lon="1.59007">
        <ele>1393.654</ele>
        <time>2022-02-20T09:35:17Z</time>
      </trkpt>
      <trkpt lat="42.76483" lon="1.59008">
        <ele>1393.762</ele>
        <time>2022-02-20T09:35:19Z</time>
      </trkpt>
      <trkpt lat="42.76483" lon="1.59008">
        <ele>1393.766</ele>
        <time>2022-02-20T09:35:21Z</time>
      </trkpt>
      <trkpt lat="42.76483" lon="1.59008">
        <ele>1393.768</ele>
        <time>2022-02-20T09:35:23Z</time>
      </trkpt>
      <trkpt lat="42.76483" lon="1.59008">
        <ele>1393.764</ele>
        <time>2022-02-20T09:35:25Z</time>
      </trkpt>
      <trkpt lat="42.76483" lon="1.59008">
        <ele>1393.763</ele>
        <time>2022-02-20T09:35:27Z</time>
      </trkpt>
      <trkpt lat="42.76483" lon="1.59008">
        <ele>1393.759</ele>
        <time>2022-02-20T09:35:29Z</time>
      </trkpt>
      <trkpt lat="42.76483" lon="1.59008">
        <ele>1393.755</ele>
        <time>2022-02-20T09:35:31Z</time>
      </trkpt>
      <trkpt lat="42.76483" lon="1.59008">
        <ele>1393.755</ele>
        <time>2022-02-20T09:35:33Z</time>
      </trkpt>
      <trkpt lat="42.76483" lon="1.59008">
        <ele>1393.752</ele>
        <time>2022-02-20T09:35:35Z</time>
      </trkpt>
      <trkpt lat="42.76483" lon="1.59008">
        <ele>1393.75</ele>
        <time>2022-02-20T09:35:37Z</time>
      </trkpt>
      <trkpt lat="42.76483" lon="1.59008">
        <ele>1393.755</ele>
        <time>2022-02-20T09:35:39Z</time>
      </trkpt>
      <trkpt lat="42.76483" lon="1.59008">
        <ele>1393.754</ele>
        <time>2022-02-20T09:35:41Z</time>
      </trkpt>
      <trkpt lat="42.76483" lon="1.59008">
        <ele>1393.756</ele>
        <time>2022-02-20T09:35:43Z</time>
      </trkpt>
      <trkpt lat="42.76483" lon="1.59008">
        <ele>1393.75</ele>
        <time>2022-02-20T09:35:45Z</time>
      </trkpt>
      <trkpt lat="42.76483" lon="1.59008">
        <ele>1393.65</ele>
        <time>2022-02-20T09:35:47Z</time>
      </trkpt>
      <trkpt lat="42.76483" lon="1.59008">
        <ele>1393.612</ele>
        <time>2022-02-20T09:35:49Z</time>
      </trkpt>
      <trkpt lat="42.76483" lon="1.59008">
        <ele>1393.613</ele>
        <time>2022-02-20T09:35:51Z</time>
      </trkpt>
      <trkpt lat="42.76483" lon="1.59008">
        <ele>1393.613</ele>
        <time>2022-02-20T09:35:53Z</time>
      </trkpt>
      <trkpt lat="42.76483" lon="1.59008">
        <ele>1393.49</ele>
        <time>2022-02-20T09:35:55Z</time>
      </trkpt>
      <trkpt lat="42.76484" lon="1.59008">
        <ele>1393.331</ele>
        <time>2022-02-20T09:35:57Z</time>
      </trkpt>
      <trkpt lat="42.76484" lon="1.59008">
        <ele>1393.322</ele>
        <time>2022-02-20T09:35:59Z</time>
      </trkpt>
      <trkpt lat="42.76484" lon="1.59008">
        <ele>1393.326</ele>
        <time>2022-02-20T09:36:01Z</time>
      </trkpt>
      <trkpt lat="42.76484" lon="1.59008">
        <ele>1393.321</ele>
        <time>2022-02-20T09:36:03Z</time>
      </trkpt>
      <trkpt lat="42.76484" lon="1.59008">
        <ele>1393.32</ele>
        <time>2022-02-20T09:36:05Z</time>
      </trkpt>
      <trkpt lat="42.76484" lon="1.59008">
        <ele>1393.31</ele>
        <time>2022-02-20T09:36:07Z</time>
      </trkpt>
      <trkpt lat="42.76484" lon="1.59008">
        <ele>1393.308</ele>
        <time>2022-02-20T09:36:09Z</time>
      </trkpt>
      <trkpt lat="42.76484" lon="1.59008">
        <ele>1393.609</ele>
        <time>2022-02-20T09:36:11Z</time>
      </trkpt>
      <trkpt lat="42.76484" lon="1.59007">
        <ele>1393.076</ele>
        <time>2022-02-20T09:36:13Z</time>
      </trkpt>
      <trkpt lat="42.76484" lon="1.59007">
        <ele>1393.129</ele>
        <time>2022-02-20T09:36:15Z</time>
      </trkpt>
      <trkpt lat="42.76484" lon="1.59007">
        <ele>1393.131</ele>
        <time>2022-02-20T09:36:17Z</time>
      </trkpt>
      <trkpt lat="42.76484" lon="1.59007">
        <ele>1393.127</ele>
        <time>2022-02-20T09:36:19Z</time>
      </trkpt>
      <trkpt lat="42.76484" lon="1.59007">
        <ele>1393.13</ele>
        <time>2022-02-20T09:36:21Z</time>
      </trkpt>
      <trkpt lat="42.76484" lon="1.59007">
        <ele>1393.136</ele>
        <time>2022-02-20T09:36:23Z</time>
      </trkpt>
      <trkpt lat="42.76484" lon="1.59007">
        <ele>1393.14</ele>
        <time>2022-02-20T09:36:25Z</time>
      </trkpt>
      <trkpt lat="42.76484" lon="1.59007">
        <ele>1393.144</ele>
        <time>2022-02-20T09:36:27Z</time>
      </trkpt>
      <trkpt lat="42.76484" lon="1.59007">
        <ele>1392.95</ele>
        <time>2022-02-20T09:36:29Z</time>
      </trkpt>
      <trkpt lat="42.76484" lon="1.59007">
        <ele>1392.951</ele>
        <time>2022-02-20T09:36:31Z</time>
      </trkpt>
      <trkpt lat="42.76484" lon="1.59007">
        <ele>1392.953</ele>
        <time>2022-02-20T09:36:33Z</time>
      </trkpt>
      <trkpt lat="42.76484" lon="1.59007">
        <ele>1392.953</ele>
        <time>2022-02-20T09:36:35Z</time>
      </trkpt>
      <trkpt lat="42.76484" lon="1.59007">
        <ele>1393.231</ele>
        <time>2022-02-20T09:36:37Z</time>
      </trkpt>
      <trkpt lat="42.76484" lon="1.59007">
        <ele>1393.239</ele>
        <time>2022-02-20T09:36:39Z</time>
      </trkpt>
      <trkpt lat="42.76484" lon="1.59007">
        <ele>1393.243</ele>
        <time>2022-02-20T09:36:41Z</time>
      </trkpt>
      <trkpt lat="42.76484" lon="1.59007">
        <ele>1393.25</ele>
        <time>2022-02-20T09:36:43Z</time>
      </trkpt>
      <trkpt lat="42.76484" lon="1.59007">
        <ele>1393.252</ele>
        <time>2022-02-20T09:36:45Z</time>
      </trkpt>
      <trkpt lat="42.76484" lon="1.59007">
        <ele>1393.246</ele>
        <time>2022-02-20T09:36:47Z</time>
      </trkpt>
      <trkpt lat="42.76484" lon="1.59007">
        <ele>1393.242</ele>
        <time>2022-02-20T09:36:49Z</time>
      </trkpt>
      <trkpt lat="42.76484" lon="1.59007">
        <ele>1393.24</ele>
        <time>2022-02-20T09:36:51Z</time>
      </trkpt>
      <trkpt lat="42.76484" lon="1.59007">
        <ele>1393.24</ele>
        <time>2022-02-20T09:36:53Z</time>
      </trkpt>
      <trkpt lat="42.76484" lon="1.59007">
        <ele>1393.092</ele>
        <time>2022-02-20T09:36:55Z</time>
      </trkpt>
      <trkpt lat="42.76484" lon="1.59007">
        <ele>1393.096</ele>
        <time>2022-02-20T09:36:57Z</time>
      </trkpt>
      <trkpt lat="42.76484" lon="1.59007">
        <ele>1393.094</ele>
        <time>2022-02-20T09:36:59Z</time>
      </trkpt>
      <trkpt lat="42.76484" lon="1.59007">
        <ele>1393.089</ele>
        <time>2022-02-20T09:37:01Z</time>
      </trkpt>
      <trkpt lat="42.76484" lon="1.59007">
        <ele>1393.092</ele>
        <time>2022-02-20T09:37:03Z</time>
      </trkpt>
      <trkpt lat="42.76483" lon="1.59007">
        <ele>1392.957</ele>
        <time>2022-02-20T09:37:05Z</time>
      </trkpt>
      <trkpt lat="42.76483" lon="1.59006">
        <ele>1392.768</ele>
        <time>2022-02-20T09:37:07Z</time>
      </trkpt>
      <trkpt lat="42.76483" lon="1.59006">
        <ele>1392.754</ele>
        <time>2022-02-20T09:37:09Z</time>
      </trkpt>
      <trkpt lat="42.76483" lon="1.59006">
        <ele>1392.358</ele>
        <time>2022-02-20T09:37:11Z</time>
      </trkpt>
      <trkpt lat="42.76483" lon="1.59006">
        <ele>1392.666</ele>
        <time>2022-02-20T09:37:13Z</time>
      </trkpt>
      <trkpt lat="42.76483" lon="1.59006">
        <ele>1392.665</ele>
        <time>2022-02-20T09:37:15Z</time>
      </trkpt>
      <trkpt lat="42.76483" lon="1.59006">
        <ele>1392.664</ele>
        <time>2022-02-20T09:37:17Z</time>
      </trkpt>
      <trkpt lat="42.76483" lon="1.59006">
        <ele>1392.671</ele>
        <time>2022-02-20T09:37:19Z</time>
      </trkpt>
      <trkpt lat="42.76483" lon="1.59006">
        <ele>1392.671</ele>
        <time>2022-02-20T09:37:21Z</time>
      </trkpt>
      <trkpt lat="42.76483" lon="1.59006">
        <ele>1392.67</ele>
        <time>2022-02-20T09:37:23Z</time>
      </trkpt>
      <trkpt lat="42.76483" lon="1.59006">
        <ele>1392.671</ele>
        <time>2022-02-20T09:37:25Z</time>
      </trkpt>
      <trkpt lat="42.76483" lon="1.59006">
        <ele>1392.669</ele>
        <time>2022-02-20T09:37:27Z</time>
      </trkpt>
      <trkpt lat="42.76483" lon="1.59006">
        <ele>1392.671</ele>
        <time>2022-02-20T09:37:29Z</time>
      </trkpt>
      <trkpt lat="42.76483" lon="1.59006">
        <ele>1392.669</ele>
        <time>2022-02-20T09:37:31Z</time>
      </trkpt>
      <trkpt lat="42.76483" lon="1.59006">
        <ele>1392.67</ele>
        <time>2022-02-20T09:37:33Z</time>
      </trkpt>
      <trkpt lat="42.76483" lon="1.59006">
        <ele>1392.668</ele>
        <time>2022-02-20T09:37:35Z</time>
      </trkpt>
      <trkpt lat="42.76483" lon="1.59006">
        <ele>1392.669</ele>
        <time>2022-02-20T09:37:37Z</time>
      </trkpt>
      <trkpt lat="42.76483" lon="1.59006">
        <ele>1392.837</ele>
        <time>2022-02-20T09:37:39Z</time>
      </trkpt>
      <trkpt lat="42.76483" lon="1.59006">
        <ele>1392.841</ele>
        <time>2022-02-20T09:37:41Z</time>
      </trkpt>
      <trkpt lat="42.76483" lon="1.59006">
        <ele>1392.844</ele>
        <time>2022-02-20T09:37:43Z</time>
      </trkpt>
      <trkpt lat="42.76483" lon="1.59006">
        <ele>1392.845</ele>
        <time>2022-02-20T09:37:45Z</time>
      </trkpt>
      <trkpt lat="42.76483" lon="1.59006">
        <ele>1392.85</ele>
        <time>2022-02-20T09:37:47Z</time>
      </trkpt>
      <trkpt lat="42.76483" lon="1.59006">
        <ele>1392.86</ele>
        <time>2022-02-20T09:37:49Z</time>
      </trkpt>
      <trkpt lat="42.76483" lon="1.59006">
        <ele>1393.043</ele>
        <time>2022-02-20T09:37:51Z</time>
      </trkpt>
      <trkpt lat="42.76483" lon="1.59006">
        <ele>1393.062</ele>
        <time>2022-02-20T09:37:53Z</time>
      </trkpt>
      <trkpt lat="42.76483" lon="1.59007">
        <ele>1393.029</ele>
        <time>2022-02-20T09:37:55Z</time>
      </trkpt>
      <trkpt lat="42.76483" lon="1.59007">
        <ele>1392.818</ele>
        <time>2022-02-20T09:37:57Z</time>
      </trkpt>
      <trkpt lat="42.76483" lon="1.59006">
        <ele>1392.685</ele>
        <time>2022-02-20T09:37:59Z</time>
      </trkpt>
      <trkpt lat="42.76483" lon="1.59006">
        <ele>1392.728</ele>
        <time>2022-02-20T09:38:01Z</time>
      </trkpt>
      <trkpt lat="42.76483" lon="1.59006">
        <ele>1392.727</ele>
        <time>2022-02-20T09:38:03Z</time>
      </trkpt>
      <trkpt lat="42.76483" lon="1.59006">
        <ele>1392.726</ele>
        <time>2022-02-20T09:38:05Z</time>
      </trkpt>
      <trkpt lat="42.76483" lon="1.59006">
        <ele>1392.726</ele>
        <time>2022-02-20T09:38:07Z</time>
      </trkpt>
      <trkpt lat="42.76483" lon="1.59006">
        <ele>1392.724</ele>
        <time>2022-02-20T09:38:09Z</time>
      </trkpt>
      <trkpt lat="42.76483" lon="1.59006">
        <ele>1392.724</ele>
        <time>2022-02-20T09:38:11Z</time>
      </trkpt>
      <trkpt lat="42.76483" lon="1.59006">
        <ele>1392.724</ele>
        <time>2022-02-20T09:38:13Z</time>
      </trkpt>
      <trkpt lat="42.76483" lon="1.59006">
        <ele>1392.725</ele>
        <time>2022-02-20T09:38:15Z</time>
      </trkpt>
      <trkpt lat="42.76483" lon="1.59006">
        <ele>1392.726</ele>
        <time>2022-02-20T09:38:17Z</time>
      </trkpt>
      <trkpt lat="42.76483" lon="1.59006">
        <ele>1392.725</ele>
        <time>2022-02-20T09:38:19Z</time>
      </trkpt>
      <trkpt lat="42.76483" lon="1.59006">
        <ele>1392.794</ele>
        <time>2022-02-20T09:38:21Z</time>
      </trkpt>
      <trkpt lat="42.76483" lon="1.59006">
        <ele>1392.237</ele>
        <time>2022-02-20T09:38:23Z</time>
      </trkpt>
      <trkpt lat="42.76483" lon="1.59007">
        <ele>1392.299</ele>
        <time>2022-02-20T09:38:25Z</time>
      </trkpt>
      <trkpt lat="42.76483" lon="1.59007">
        <ele>1392.288</ele>
        <time>2022-02-20T09:38:27Z</time>
      </trkpt>
      <trkpt lat="42.76483" lon="1.59007">
        <ele>1392.29</ele>
        <time>2022-02-20T09:38:29Z</time>
      </trkpt>
      <trkpt lat="42.76483" lon="1.59007">
        <ele>1392.293</ele>
        <time>2022-02-20T09:38:31Z</time>
      </trkpt>
      <trkpt lat="42.76483" lon="1.59007">
        <ele>1392.595</ele>
        <time>2022-02-20T09:38:33Z</time>
      </trkpt>
      <trkpt lat="42.76483" lon="1.59006">
        <ele>1392.541</ele>
        <time>2022-02-20T09:38:35Z</time>
      </trkpt>
      <trkpt lat="42.76483" lon="1.59006">
        <ele>1391.921</ele>
        <time>2022-02-20T09:38:37Z</time>
      </trkpt>
      <trkpt lat="42.76483" lon="1.59006">
        <ele>1391.911</ele>
        <time>2022-02-20T09:38:39Z</time>
      </trkpt>
      <trkpt lat="42.76483" lon="1.59006">
        <ele>1392.322</ele>
        <time>2022-02-20T09:38:41Z</time>
      </trkpt>
      <trkpt lat="42.76483" lon="1.59006">
        <ele>1392.324</ele>
        <time>2022-02-20T09:38:43Z</time>
      </trkpt>
      <trkpt lat="42.76483" lon="1.59006">
        <ele>1392.322</ele>
        <time>2022-02-20T09:38:45Z</time>
      </trkpt>
      <trkpt lat="42.76483" lon="1.59006">
        <ele>1392.333</ele>
        <time>2022-02-20T09:38:47Z</time>
      </trkpt>
      <trkpt lat="42.76483" lon="1.59006">
        <ele>1392.349</ele>
        <time>2022-02-20T09:38:49Z</time>
      </trkpt>
      <trkpt lat="42.76483" lon="1.59006">
        <ele>1392.359</ele>
        <time>2022-02-20T09:38:51Z</time>
      </trkpt>
      <trkpt lat="42.76483" lon="1.59006">
        <ele>1392.369</ele>
        <time>2022-02-20T09:38:53Z</time>
      </trkpt>
      <trkpt lat="42.76483" lon="1.59006">
        <ele>1392.373</ele>
        <time>2022-02-20T09:38:55Z</time>
      </trkpt>
      <trkpt lat="42.76483" lon="1.59006">
        <ele>1392.373</ele>
        <time>2022-02-20T09:38:57Z</time>
      </trkpt>
      <trkpt lat="42.76483" lon="1.59006">
        <ele>1392.37</ele>
        <time>2022-02-20T09:38:59Z</time>
      </trkpt>
      <trkpt lat="42.76483" lon="1.59006">
        <ele>1392.802</ele>
        <time>2022-02-20T09:39:01Z</time>
      </trkpt>
      <trkpt lat="42.76483" lon="1.59006">
        <ele>1392.815</ele>
        <time>2022-02-20T09:39:03Z</time>
      </trkpt>
      <trkpt lat="42.76483" lon="1.59006">
        <ele>1392.833</ele>
        <time>2022-02-20T09:39:05Z</time>
      </trkpt>
      <trkpt lat="42.76483" lon="1.59006">
        <ele>1392.837</ele>
        <time>2022-02-20T09:39:07Z</time>
      </trkpt>
      <trkpt lat="42.76483" lon="1.59006">
        <ele>1392.846</ele>
        <time>2022-02-20T09:39:09Z</time>
      </trkpt>
      <trkpt lat="42.76483" lon="1.59006">
        <ele>1392.851</ele>
        <time>2022-02-20T09:39:11Z</time>
      </trkpt>
      <trkpt lat="42.76483" lon="1.59006">
        <ele>1392.851</ele>
        <time>2022-02-20T09:39:13Z</time>
      </trkpt>
      <trkpt lat="42.76483" lon="1.59007">
        <ele>1392.844</ele>
        <time>2022-02-20T09:39:15Z</time>
      </trkpt>
      <trkpt lat="42.76483" lon="1.59006">
        <ele>1392.901</ele>
        <time>2022-02-20T09:39:17Z</time>
      </trkpt>
      <trkpt lat="42.76483" lon="1.59007">
        <ele>1393.226</ele>
        <time>2022-02-20T09:39:19Z</time>
      </trkpt>
      <trkpt lat="42.76483" lon="1.59007">
        <ele>1393.356</ele>
        <time>2022-02-20T09:39:21Z</time>
      </trkpt>
      <trkpt lat="42.76483" lon="1.59007">
        <ele>1393.555</ele>
        <time>2022-02-20T09:39:23Z</time>
      </trkpt>
      <trkpt lat="42.76483" lon="1.59007">
        <ele>1393.554</ele>
        <time>2022-02-20T09:39:25Z</time>
      </trkpt>
      <trkpt lat="42.76483" lon="1.59007">
        <ele>1393.813</ele>
        <time>2022-02-20T09:39:27Z</time>
      </trkpt>
      <trkpt lat="42.76483" lon="1.59007">
        <ele>1393.819</ele>
        <time>2022-02-20T09:39:29Z</time>
      </trkpt>
      <trkpt lat="42.76483" lon="1.59007">
        <ele>1393.823</ele>
        <time>2022-02-20T09:39:31Z</time>
      </trkpt>
      <trkpt lat="42.76483" lon="1.59007">
        <ele>1393.832</ele>
        <time>2022-02-20T09:39:33Z</time>
      </trkpt>
      <trkpt lat="42.76483" lon="1.59007">
        <ele>1393.843</ele>
        <time>2022-02-20T09:39:35Z</time>
      </trkpt>
      <trkpt lat="42.76483" lon="1.59007">
        <ele>1393.846</ele>
        <time>2022-02-20T09:39:37Z</time>
      </trkpt>
      <trkpt lat="42.76483" lon="1.59007">
        <ele>1393.85</ele>
        <time>2022-02-20T09:39:39Z</time>
      </trkpt>
      <trkpt lat="42.76483" lon="1.59007">
        <ele>1393.852</ele>
        <time>2022-02-20T09:39:41Z</time>
      </trkpt>
      <trkpt lat="42.76483" lon="1.59007">
        <ele>1393.857</ele>
        <time>2022-02-20T09:39:43Z</time>
      </trkpt>
      <trkpt lat="42.76483" lon="1.59007">
        <ele>1393.86</ele>
        <time>2022-02-20T09:39:45Z</time>
      </trkpt>
      <trkpt lat="42.76483" lon="1.59007">
        <ele>1393.856</ele>
        <time>2022-02-20T09:39:47Z</time>
      </trkpt>
      <trkpt lat="42.76483" lon="1.59007">
        <ele>1393.855</ele>
        <time>2022-02-20T09:39:49Z</time>
      </trkpt>
      <trkpt lat="42.76483" lon="1.59007">
        <ele>1393.857</ele>
        <time>2022-02-20T09:39:51Z</time>
      </trkpt>
      <trkpt lat="42.76483" lon="1.59007">
        <ele>1393.857</ele>
        <time>2022-02-20T09:39:53Z</time>
      </trkpt>
      <trkpt lat="42.76483" lon="1.59007">
        <ele>1393.855</ele>
        <time>2022-02-20T09:39:55Z</time>
      </trkpt>
      <trkpt lat="42.76483" lon="1.59007">
        <ele>1393.846</ele>
        <time>2022-02-20T09:39:57Z</time>
      </trkpt>
      <trkpt lat="42.76483" lon="1.59007">
        <ele>1393.85</ele>
        <time>2022-02-20T09:39:59Z</time>
      </trkpt>
      <trkpt lat="42.76483" lon="1.59007">
        <ele>1393.845</ele>
        <time>2022-02-20T09:40:01Z</time>
      </trkpt>
      <trkpt lat="42.76483" lon="1.59007">
        <ele>1393.848</ele>
        <time>2022-02-20T09:40:03Z</time>
      </trkpt>
      <trkpt lat="42.76482" lon="1.59007">
        <ele>1393.798</ele>
        <time>2022-02-20T09:40:05Z</time>
      </trkpt>
      <trkpt lat="42.76483" lon="1.59008">
        <ele>1393.728</ele>
        <time>2022-02-20T09:40:07Z</time>
      </trkpt>
      <trkpt lat="42.76483" lon="1.59008">
        <ele>1393.726</ele>
        <time>2022-02-20T09:40:09Z</time>
      </trkpt>
      <trkpt lat="42.76483" lon="1.59008">
        <ele>1393.72</ele>
        <time>2022-02-20T09:40:11Z</time>
      </trkpt>
      <trkpt lat="42.76483" lon="1.59008">
        <ele>1393.717</ele>
        <time>2022-02-20T09:40:13Z</time>
      </trkpt>
      <trkpt lat="42.76483" lon="1.59008">
        <ele>1393.721</ele>
        <time>2022-02-20T09:40:15Z</time>
      </trkpt>
      <trkpt lat="42.76483" lon="1.59008">
        <ele>1393.723</ele>
        <time>2022-02-20T09:40:17Z</time>
      </trkpt>
      <trkpt lat="42.76483" lon="1.59008">
        <ele>1393.727</ele>
        <time>2022-02-20T09:40:19Z</time>
      </trkpt>
      <trkpt lat="42.76483" lon="1.59008">
        <ele>1393.736</ele>
        <time>2022-02-20T09:40:21Z</time>
      </trkpt>
      <trkpt lat="42.76483" lon="1.59008">
        <ele>1393.748</ele>
        <time>2022-02-20T09:40:23Z</time>
      </trkpt>
      <trkpt lat="42.76483" lon="1.59008">
        <ele>1393.756</ele>
        <time>2022-02-20T09:40:25Z</time>
      </trkpt>
      <trkpt lat="42.76483" lon="1.59008">
        <ele>1393.762</ele>
        <time>2022-02-20T09:40:27Z</time>
      </trkpt>
      <trkpt lat="42.76482" lon="1.59008">
        <ele>1393.762</ele>
        <time>2022-02-20T09:40:29Z</time>
      </trkpt>
      <trkpt lat="42.76482" lon="1.59008">
        <ele>1394.076</ele>
        <time>2022-02-20T09:40:31Z</time>
      </trkpt>
      <trkpt lat="42.76483" lon="1.59008">
        <ele>1394.317</ele>
        <time>2022-02-20T09:40:33Z</time>
      </trkpt>
      <trkpt lat="42.76483" lon="1.59008">
        <ele>1394.315</ele>
        <time>2022-02-20T09:40:35Z</time>
      </trkpt>
      <trkpt lat="42.76483" lon="1.59008">
        <ele>1394.315</ele>
        <time>2022-02-20T09:40:37Z</time>
      </trkpt>
      <trkpt lat="42.76483" lon="1.59008">
        <ele>1394.32</ele>
        <time>2022-02-20T09:40:39Z</time>
      </trkpt>
      <trkpt lat="42.76483" lon="1.59008">
        <ele>1394.322</ele>
        <time>2022-02-20T09:40:41Z</time>
      </trkpt>
      <trkpt lat="42.76483" lon="1.59008">
        <ele>1394.324</ele>
        <time>2022-02-20T09:40:43Z</time>
      </trkpt>
      <trkpt lat="42.76483" lon="1.59008">
        <ele>1394.324</ele>
        <time>2022-02-20T09:40:45Z</time>
      </trkpt>
      <trkpt lat="42.76483" lon="1.59008">
        <ele>1394.333</ele>
        <time>2022-02-20T09:40:47Z</time>
      </trkpt>
      <trkpt lat="42.76483" lon="1.59008">
        <ele>1394.339</ele>
        <time>2022-02-20T09:40:49Z</time>
      </trkpt>
      <trkpt lat="42.76483" lon="1.59008">
        <ele>1394.338</ele>
        <time>2022-02-20T09:40:51Z</time>
      </trkpt>
      <trkpt lat="42.76483" lon="1.59008">
        <ele>1394.345</ele>
        <time>2022-02-20T09:40:53Z</time>
      </trkpt>
      <trkpt lat="42.76483" lon="1.59008">
        <ele>1394.35</ele>
        <time>2022-02-20T09:40:55Z</time>
      </trkpt>
      <trkpt lat="42.76483" lon="1.59008">
        <ele>1394.358</ele>
        <time>2022-02-20T09:40:57Z</time>
      </trkpt>
      <trkpt lat="42.76483" lon="1.59008">
        <ele>1394.371</ele>
        <time>2022-02-20T09:40:59Z</time>
      </trkpt>
      <trkpt lat="42.76483" lon="1.59008">
        <ele>1394.378</ele>
        <time>2022-02-20T09:41:01Z</time>
      </trkpt>
      <trkpt lat="42.76483" lon="1.59008">
        <ele>1394.386</ele>
        <time>2022-02-20T09:41:03Z</time>
      </trkpt>
      <trkpt lat="42.76483" lon="1.59008">
        <ele>1394.388</ele>
        <time>2022-02-20T09:41:05Z</time>
      </trkpt>
      <trkpt lat="42.76483" lon="1.59008">
        <ele>1394.397</ele>
        <time>2022-02-20T09:41:07Z</time>
      </trkpt>
      <trkpt lat="42.76483" lon="1.59009">
        <ele>1394.889</ele>
        <time>2022-02-20T09:41:09Z</time>
      </trkpt>
      <trkpt lat="42.76483" lon="1.59008">
        <ele>1395.334</ele>
        <time>2022-02-20T09:41:11Z</time>
      </trkpt>
      <trkpt lat="42.76484" lon="1.59008">
        <ele>1395.307</ele>
        <time>2022-02-20T09:41:13Z</time>
      </trkpt>
      <trkpt lat="42.76484" lon="1.59008">
        <ele>1395.543</ele>
        <time>2022-02-20T09:41:15Z</time>
      </trkpt>
      <trkpt lat="42.76484" lon="1.59008">
        <ele>1395.55</ele>
        <time>2022-02-20T09:41:17Z</time>
      </trkpt>
      <trkpt lat="42.76484" lon="1.59008">
        <ele>1395.559</ele>
        <time>2022-02-20T09:41:19Z</time>
      </trkpt>
      <trkpt lat="42.76484" lon="1.59008">
        <ele>1395.565</ele>
        <time>2022-02-20T09:41:21Z</time>
      </trkpt>
      <trkpt lat="42.76483" lon="1.59009">
        <ele>1396.568</ele>
        <time>2022-02-20T09:41:23Z</time>
      </trkpt>
      <trkpt lat="42.76483" lon="1.59008">
        <ele>1397.517</ele>
        <time>2022-02-20T09:41:25Z</time>
      </trkpt>
      <trkpt lat="42.76481" lon="1.59006">
        <ele>1397.075</ele>
        <time>2022-02-20T09:41:27Z</time>
      </trkpt>
      <trkpt lat="42.7648" lon="1.59004">
        <ele>1396.44</ele>
        <time>2022-02-20T09:41:29Z</time>
      </trkpt>
      <trkpt lat="42.76479" lon="1.59001">
        <ele>1395.948</ele>
        <time>2022-02-20T09:41:31Z</time>
      </trkpt>
      <trkpt lat="42.76478" lon="1.58998">
        <ele>1395.252</ele>
        <time>2022-02-20T09:41:33Z</time>
      </trkpt>
      <trkpt lat="42.76477" lon="1.58995">
        <ele>1395.196</ele>
        <time>2022-02-20T09:41:35Z</time>
      </trkpt>
      <trkpt lat="42.76475" lon="1.58993">
        <ele>1394.656</ele>
        <time>2022-02-20T09:41:37Z</time>
      </trkpt>
      <trkpt lat="42.76474" lon="1.58991">
        <ele>1395.255</ele>
        <time>2022-02-20T09:41:39Z</time>
      </trkpt>
      <trkpt lat="42.76473" lon="1.58988">
        <ele>1395.401</ele>
        <time>2022-02-20T09:41:41Z</time>
      </trkpt>
      <trkpt lat="42.76472" lon="1.58986">
        <ele>1394.923</ele>
        <time>2022-02-20T09:41:43Z</time>
      </trkpt>
      <trkpt lat="42.7647" lon="1.58984">
        <ele>1394.437</ele>
        <time>2022-02-20T09:41:45Z</time>
      </trkpt>
      <trkpt lat="42.76469" lon="1.58982">
        <ele>1394.254</ele>
        <time>2022-02-20T09:41:47Z</time>
      </trkpt>
      <trkpt lat="42.76467" lon="1.5898">
        <ele>1393.998</ele>
        <time>2022-02-20T09:41:49Z</time>
      </trkpt>
      <trkpt lat="42.76466" lon="1.58978">
        <ele>1395.002</ele>
        <time>2022-02-20T09:41:51Z</time>
      </trkpt>
      <trkpt lat="42.76466" lon="1.58975">
        <ele>1395.389</ele>
        <time>2022-02-20T09:41:53Z</time>
      </trkpt>
      <trkpt lat="42.76465" lon="1.58973">
        <ele>1395.991</ele>
        <time>2022-02-20T09:41:55Z</time>
      </trkpt>
      <trkpt lat="42.76464" lon="1.58971">
        <ele>1396.192</ele>
        <time>2022-02-20T09:41:57Z</time>
      </trkpt>
      <trkpt lat="42.76463" lon="1.58969">
        <ele>1396.022</ele>
        <time>2022-02-20T09:41:59Z</time>
      </trkpt>
      <trkpt lat="42.76461" lon="1.58967">
        <ele>1395.17</ele>
        <time>2022-02-20T09:42:01Z</time>
      </trkpt>
      <trkpt lat="42.76461" lon="1.58964">
        <ele>1395.782</ele>
        <time>2022-02-20T09:42:03Z</time>
      </trkpt>
      <trkpt lat="42.76459" lon="1.58963">
        <ele>1395.729</ele>
        <time>2022-02-20T09:42:05Z</time>
      </trkpt>
      <trkpt lat="42.76458" lon="1.58961">
        <ele>1394.92</ele>
        <time>2022-02-20T09:42:07Z</time>
      </trkpt>
      <trkpt lat="42.76457" lon="1.58959">
        <ele>1394.949</ele>
        <time>2022-02-20T09:42:09Z</time>
      </trkpt>
      <trkpt lat="42.76456" lon="1.58958">
        <ele>1394.465</ele>
        <time>2022-02-20T09:42:11Z</time>
      </trkpt>
      <trkpt lat="42.76455" lon="1.58956">
        <ele>1393.277</ele>
        <time>2022-02-20T09:42:13Z</time>
      </trkpt>
      <trkpt lat="42.76454" lon="1.58953">
        <ele>1393.259</ele>
        <time>2022-02-20T09:42:15Z</time>
      </trkpt>
      <trkpt lat="42.76453" lon="1.58951">
        <ele>1393.001</ele>
        <time>2022-02-20T09:42:17Z</time>
      </trkpt>
      <trkpt lat="42.76452" lon="1.58949">
        <ele>1392.045</ele>
        <time>2022-02-20T09:42:19Z</time>
      </trkpt>
      <trkpt lat="42.76452" lon="1.58946">
        <ele>1395.282</ele>
        <time>2022-02-20T09:42:21Z</time>
      </trkpt>
      <trkpt lat="42.76452" lon="1.58943">
        <ele>1397.196</ele>
        <time>2022-02-20T09:42:23Z</time>
      </trkpt>
      <trkpt lat="42.76451" lon="1.5894">
        <ele>1397.2</ele>
        <time>2022-02-20T09:42:25Z</time>
      </trkpt>
      <trkpt lat="42.76451" lon="1.58937">
        <ele>1397.787</ele>
        <time>2022-02-20T09:42:27Z</time>
      </trkpt>
      <trkpt lat="42.76451" lon="1.58936">
        <ele>1397.736</ele>
        <time>2022-02-20T09:42:29Z</time>
      </trkpt>
      <trkpt lat="42.76451" lon="1.58934">
        <ele>1398.41</ele>
        <time>2022-02-20T09:42:31Z</time>
      </trkpt>
      <trkpt lat="42.7645" lon="1.58932">
        <ele>1397.352</ele>
        <time>2022-02-20T09:42:33Z</time>
      </trkpt>
      <trkpt lat="42.76449" lon="1.58931">
        <ele>1397.155</ele>
        <time>2022-02-20T09:42:35Z</time>
      </trkpt>
      <trkpt lat="42.76448" lon="1.58929">
        <ele>1397.868</ele>
        <time>2022-02-20T09:42:37Z</time>
      </trkpt>
      <trkpt lat="42.76448" lon="1.58927">
        <ele>1398.235</ele>
        <time>2022-02-20T09:42:39Z</time>
      </trkpt>
      <trkpt lat="42.76447" lon="1.58926">
        <ele>1398.28</ele>
        <time>2022-02-20T09:42:41Z</time>
      </trkpt>
      <trkpt lat="42.76446" lon="1.58925">
        <ele>1398.599</ele>
        <time>2022-02-20T09:42:43Z</time>
      </trkpt>
      <trkpt lat="42.76445" lon="1.58924">
        <ele>1399.102</ele>
        <time>2022-02-20T09:42:46Z</time>
      </trkpt>
      <trkpt lat="42.76444" lon="1.58922">
        <ele>1400.592</ele>
        <time>2022-02-20T09:42:48Z</time>
      </trkpt>
      <trkpt lat="42.76444" lon="1.58921">
        <ele>1401.906</ele>
        <time>2022-02-20T09:42:50Z</time>
      </trkpt>
      <trkpt lat="42.76443" lon="1.58921">
        <ele>1401.796</ele>
        <time>2022-02-20T09:42:52Z</time>
      </trkpt>
      <trkpt lat="42.76443" lon="1.5892">
        <ele>1402.266</ele>
        <time>2022-02-20T09:42:54Z</time>
      </trkpt>
      <trkpt lat="42.76442" lon="1.58919">
        <ele>1402.476</ele>
        <time>2022-02-20T09:42:56Z</time>
      </trkpt>
      <trkpt lat="42.76441" lon="1.58918">
        <ele>1401.751</ele>
        <time>2022-02-20T09:42:58Z</time>
      </trkpt>
      <trkpt lat="42.7644" lon="1.58917">
        <ele>1402.18</ele>
        <time>2022-02-20T09:43:00Z</time>
      </trkpt>
      <trkpt lat="42.7644" lon="1.58916">
        <ele>1403.487</ele>
        <time>2022-02-20T09:43:02Z</time>
      </trkpt>
      <trkpt lat="42.76439" lon="1.58914">
        <ele>1403.998</ele>
        <time>2022-02-20T09:43:04Z</time>
      </trkpt>
      <trkpt lat="42.76438" lon="1.58913">
        <ele>1404.701</ele>
        <time>2022-02-20T09:43:06Z</time>
      </trkpt>
      <trkpt lat="42.76438" lon="1.58911">
        <ele>1405.696</ele>
        <time>2022-02-20T09:43:08Z</time>
      </trkpt>
      <trkpt lat="42.76437" lon="1.58911">
        <ele>1405.164</ele>
        <time>2022-02-20T09:43:10Z</time>
      </trkpt>
      <trkpt lat="42.76436" lon="1.58909">
        <ele>1404.868</ele>
        <time>2022-02-20T09:43:12Z</time>
      </trkpt>
      <trkpt lat="42.76436" lon="1.58908">
        <ele>1406.049</ele>
        <time>2022-02-20T09:43:14Z</time>
      </trkpt>
      <trkpt lat="42.76436" lon="1.58906">
        <ele>1405.991</ele>
        <time>2022-02-20T09:43:16Z</time>
      </trkpt>
      <trkpt lat="42.76436" lon="1.58905">
        <ele>1406.252</ele>
        <time>2022-02-20T09:43:18Z</time>
      </trkpt>
      <trkpt lat="42.76435" lon="1.58903">
        <ele>1405.514</ele>
        <time>2022-02-20T09:43:20Z</time>
      </trkpt>
      <trkpt lat="42.76435" lon="1.58902">
        <ele>1405.21</ele>
        <time>2022-02-20T09:43:22Z</time>
      </trkpt>
      <trkpt lat="42.76434" lon="1.589">
        <ele>1406.368</ele>
        <time>2022-02-20T09:43:24Z</time>
      </trkpt>
      <trkpt lat="42.76434" lon="1.58898">
        <ele>1406.677</ele>
        <time>2022-02-20T09:43:26Z</time>
      </trkpt>
      <trkpt lat="42.76433" lon="1.58897">
        <ele>1407.722</ele>
        <time>2022-02-20T09:43:28Z</time>
      </trkpt>
      <trkpt lat="42.76431" lon="1.58896">
        <ele>1407.881</ele>
        <time>2022-02-20T09:43:30Z</time>
      </trkpt>
      <trkpt lat="42.7643" lon="1.58895">
        <ele>1406.982</ele>
        <time>2022-02-20T09:43:32Z</time>
      </trkpt>
      <trkpt lat="42.76429" lon="1.58894">
        <ele>1406.205</ele>
        <time>2022-02-20T09:43:34Z</time>
      </trkpt>
      <trkpt lat="42.76428" lon="1.58893">
        <ele>1405.084</ele>
        <time>2022-02-20T09:43:36Z</time>
      </trkpt>
      <trkpt lat="42.76427" lon="1.58892">
        <ele>1405.358</ele>
        <time>2022-02-20T09:43:38Z</time>
      </trkpt>
      <trkpt lat="42.76425" lon="1.58891">
        <ele>1405.259</ele>
        <time>2022-02-20T09:43:40Z</time>
      </trkpt>
      <trkpt lat="42.76424" lon="1.5889">
        <ele>1405.596</ele>
        <time>2022-02-20T09:43:42Z</time>
      </trkpt>
      <trkpt lat="42.76422" lon="1.58889">
        <ele>1406.856</ele>
        <time>2022-02-20T09:43:44Z</time>
      </trkpt>
      <trkpt lat="42.7642" lon="1.58888">
        <ele>1405.972</ele>
        <time>2022-02-20T09:43:46Z</time>
      </trkpt>
      <trkpt lat="42.76419" lon="1.58887">
        <ele>1404.806</ele>
        <time>2022-02-20T09:43:48Z</time>
      </trkpt>
      <trkpt lat="42.76418" lon="1.58886">
        <ele>1404.9</ele>
        <time>2022-02-20T09:43:50Z</time>
      </trkpt>
      <trkpt lat="42.76416" lon="1.58885">
        <ele>1404.575</ele>
        <time>2022-02-20T09:43:52Z</time>
      </trkpt>
      <trkpt lat="42.76415" lon="1.58885">
        <ele>1403.443</ele>
        <time>2022-02-20T09:43:54Z</time>
      </trkpt>
      <trkpt lat="42.76414" lon="1.58885">
        <ele>1403.334</ele>
        <time>2022-02-20T09:43:56Z</time>
      </trkpt>
      <trkpt lat="42.76413" lon="1.58884">
        <ele>1403.214</ele>
        <time>2022-02-20T09:43:58Z</time>
      </trkpt>
      <trkpt lat="42.76411" lon="1.58884">
        <ele>1402.915</ele>
        <time>2022-02-20T09:44:00Z</time>
      </trkpt>
      <trkpt lat="42.7641" lon="1.58883">
        <ele>1401.968</ele>
        <time>2022-02-20T09:44:02Z</time>
      </trkpt>
      <trkpt lat="42.76408" lon="1.58883">
        <ele>1401.127</ele>
        <time>2022-02-20T09:44:04Z</time>
      </trkpt>
      <trkpt lat="42.76407" lon="1.58881">
        <ele>1400.864</ele>
        <time>2022-02-20T09:44:06Z</time>
      </trkpt>
      <trkpt lat="42.76405" lon="1.5888">
        <ele>1402.344</ele>
        <time>2022-02-20T09:44:08Z</time>
      </trkpt>
      <trkpt lat="42.76404" lon="1.5888">
        <ele>1402.507</ele>
        <time>2022-02-20T09:44:10Z</time>
      </trkpt>
      <trkpt lat="42.76403" lon="1.58878">
        <ele>1402.25</ele>
        <time>2022-02-20T09:44:12Z</time>
      </trkpt>
      <trkpt lat="42.76401" lon="1.58877">
        <ele>1401.684</ele>
        <time>2022-02-20T09:44:14Z</time>
      </trkpt>
      <trkpt lat="42.764" lon="1.58877">
        <ele>1401.094</ele>
        <time>2022-02-20T09:44:16Z</time>
      </trkpt>
      <trkpt lat="42.76398" lon="1.58876">
        <ele>1400.526</ele>
        <time>2022-02-20T09:44:18Z</time>
      </trkpt>
      <trkpt lat="42.76396" lon="1.58876">
        <ele>1400.101</ele>
        <time>2022-02-20T09:44:20Z</time>
      </trkpt>
      <trkpt lat="42.76395" lon="1.58875">
        <ele>1400.359</ele>
        <time>2022-02-20T09:44:22Z</time>
      </trkpt>
      <trkpt lat="42.76394" lon="1.58875">
        <ele>1401.631</ele>
        <time>2022-02-20T09:44:24Z</time>
      </trkpt>
      <trkpt lat="42.76392" lon="1.58874">
        <ele>1401.427</ele>
        <time>2022-02-20T09:44:26Z</time>
      </trkpt>
      <trkpt lat="42.76391" lon="1.58873">
        <ele>1401.405</ele>
        <time>2022-02-20T09:44:28Z</time>
      </trkpt>
      <trkpt lat="42.76389" lon="1.58872">
        <ele>1403.287</ele>
        <time>2022-02-20T09:44:30Z</time>
      </trkpt>
      <trkpt lat="42.76388" lon="1.58871">
        <ele>1403.589</ele>
        <time>2022-02-20T09:44:32Z</time>
      </trkpt>
      <trkpt lat="42.76386" lon="1.58869">
        <ele>1403.334</ele>
        <time>2022-02-20T09:44:34Z</time>
      </trkpt>
      <trkpt lat="42.76384" lon="1.58867">
        <ele>1404.652</ele>
        <time>2022-02-20T09:44:36Z</time>
      </trkpt>
      <trkpt lat="42.76382" lon="1.58866">
        <ele>1405.071</ele>
        <time>2022-02-20T09:44:38Z</time>
      </trkpt>
      <trkpt lat="42.76381" lon="1.58865">
        <ele>1406.288</ele>
        <time>2022-02-20T09:44:40Z</time>
      </trkpt>
      <trkpt lat="42.76379" lon="1.58865">
        <ele>1406.181</ele>
        <time>2022-02-20T09:44:42Z</time>
      </trkpt>
      <trkpt lat="42.76378" lon="1.58865">
        <ele>1405.498</ele>
        <time>2022-02-20T09:44:44Z</time>
      </trkpt>
      <trkpt lat="42.76376" lon="1.58863">
        <ele>1406.356</ele>
        <time>2022-02-20T09:44:46Z</time>
      </trkpt>
      <trkpt lat="42.76375" lon="1.58861">
        <ele>1406.99</ele>
        <time>2022-02-20T09:44:48Z</time>
      </trkpt>
      <trkpt lat="42.76373" lon="1.5886">
        <ele>1406.773</ele>
        <time>2022-02-20T09:44:50Z</time>
      </trkpt>
      <trkpt lat="42.76372" lon="1.5886">
        <ele>1406.868</ele>
        <time>2022-02-20T09:44:52Z</time>
      </trkpt>
      <trkpt lat="42.7637" lon="1.58859">
        <ele>1407.221</ele>
        <time>2022-02-20T09:44:54Z</time>
      </trkpt>
      <trkpt lat="42.76369" lon="1.58858">
        <ele>1407.184</ele>
        <time>2022-02-20T09:44:56Z</time>
      </trkpt>
      <trkpt lat="42.76367" lon="1.58857">
        <ele>1407.079</ele>
        <time>2022-02-20T09:44:58Z</time>
      </trkpt>
      <trkpt lat="42.76366" lon="1.58856">
        <ele>1407.665</ele>
        <time>2022-02-20T09:45:00Z</time>
      </trkpt>
      <trkpt lat="42.76365" lon="1.58855">
        <ele>1407.083</ele>
        <time>2022-02-20T09:45:02Z</time>
      </trkpt>
      <trkpt lat="42.76364" lon="1.58855">
        <ele>1407.116</ele>
        <time>2022-02-20T09:45:04Z</time>
      </trkpt>
      <trkpt lat="42.76362" lon="1.58854">
        <ele>1408.721</ele>
        <time>2022-02-20T09:45:06Z</time>
      </trkpt>
      <trkpt lat="42.7636" lon="1.58853">
        <ele>1410.262</ele>
        <time>2022-02-20T09:45:08Z</time>
      </trkpt>
      <trkpt lat="42.76359" lon="1.58853">
        <ele>1410.363</ele>
        <time>2022-02-20T09:45:10Z</time>
      </trkpt>
      <trkpt lat="42.76357" lon="1.58853">
        <ele>1410.594</ele>
        <time>2022-02-20T09:45:12Z</time>
      </trkpt>
      <trkpt lat="42.76356" lon="1.58852">
        <ele>1410.149</ele>
        <time>2022-02-20T09:45:14Z</time>
      </trkpt>
      <trkpt lat="42.76354" lon="1.58851">
        <ele>1409.684</ele>
        <time>2022-02-20T09:45:16Z</time>
      </trkpt>
      <trkpt lat="42.76353" lon="1.58851">
        <ele>1410.878</ele>
        <time>2022-02-20T09:45:18Z</time>
      </trkpt>
      <trkpt lat="42.76351" lon="1.5885">
        <ele>1411.279</ele>
        <time>2022-02-20T09:45:20Z</time>
      </trkpt>
      <trkpt lat="42.7635" lon="1.5885">
        <ele>1411.477</ele>
        <time>2022-02-20T09:45:22Z</time>
      </trkpt>
      <trkpt lat="42.76349" lon="1.58848">
        <ele>1410.516</ele>
        <time>2022-02-20T09:45:24Z</time>
      </trkpt>
      <trkpt lat="42.76347" lon="1.58848">
        <ele>1411.369</ele>
        <time>2022-02-20T09:45:26Z</time>
      </trkpt>
      <trkpt lat="42.76346" lon="1.58847">
        <ele>1410.755</ele>
        <time>2022-02-20T09:45:28Z</time>
      </trkpt>
      <trkpt lat="42.76345" lon="1.58847">
        <ele>1410.905</ele>
        <time>2022-02-20T09:45:30Z</time>
      </trkpt>
      <trkpt lat="42.76343" lon="1.58846">
        <ele>1410.329</ele>
        <time>2022-02-20T09:45:32Z</time>
      </trkpt>
      <trkpt lat="42.76342" lon="1.58846">
        <ele>1410.672</ele>
        <time>2022-02-20T09:45:34Z</time>
      </trkpt>
      <trkpt lat="42.7634" lon="1.58845">
        <ele>1410.194</ele>
        <time>2022-02-20T09:45:36Z</time>
      </trkpt>
      <trkpt lat="42.76339" lon="1.58845">
        <ele>1410.957</ele>
        <time>2022-02-20T09:45:38Z</time>
      </trkpt>
      <trkpt lat="42.76338" lon="1.58845">
        <ele>1411.113</ele>
        <time>2022-02-20T09:45:40Z</time>
      </trkpt>
      <trkpt lat="42.76336" lon="1.58844">
        <ele>1412.513</ele>
        <time>2022-02-20T09:45:42Z</time>
      </trkpt>
      <trkpt lat="42.76335" lon="1.58844">
        <ele>1411.718</ele>
        <time>2022-02-20T09:45:44Z</time>
      </trkpt>
      <trkpt lat="42.76333" lon="1.58844">
        <ele>1413.06</ele>
        <time>2022-02-20T09:45:46Z</time>
      </trkpt>
      <trkpt lat="42.76332" lon="1.58843">
        <ele>1412.777</ele>
        <time>2022-02-20T09:45:48Z</time>
      </trkpt>
      <trkpt lat="42.7633" lon="1.58843">
        <ele>1411.286</ele>
        <time>2022-02-20T09:45:50Z</time>
      </trkpt>
      <trkpt lat="42.76329" lon="1.58843">
        <ele>1409.918</ele>
        <time>2022-02-20T09:45:52Z</time>
      </trkpt>
      <trkpt lat="42.76328" lon="1.58842">
        <ele>1408.785</ele>
        <time>2022-02-20T09:45:54Z</time>
      </trkpt>
      <trkpt lat="42.76327" lon="1.58842">
        <ele>1409.653</ele>
        <time>2022-02-20T09:45:56Z</time>
      </trkpt>
      <trkpt lat="42.76325" lon="1.58842">
        <ele>1410.031</ele>
        <time>2022-02-20T09:45:58Z</time>
      </trkpt>
      <trkpt lat="42.76324" lon="1.58842">
        <ele>1410.387</ele>
        <time>2022-02-20T09:46:00Z</time>
      </trkpt>
      <trkpt lat="42.76323" lon="1.58841">
        <ele>1411.494</ele>
        <time>2022-02-20T09:46:02Z</time>
      </trkpt>
      <trkpt lat="42.76321" lon="1.58841">
        <ele>1411.358</ele>
        <time>2022-02-20T09:46:04Z</time>
      </trkpt>
      <trkpt lat="42.7632" lon="1.58841">
        <ele>1411.853</ele>
        <time>2022-02-20T09:46:06Z</time>
      </trkpt>
      <trkpt lat="42.76319" lon="1.58841">
        <ele>1411.739</ele>
        <time>2022-02-20T09:46:08Z</time>
      </trkpt>
      <trkpt lat="42.76317" lon="1.5884">
        <ele>1412.159</ele>
        <time>2022-02-20T09:46:10Z</time>
      </trkpt>
      <trkpt lat="42.76316" lon="1.5884">
        <ele>1412.14</ele>
        <time>2022-02-20T09:46:12Z</time>
      </trkpt>
      <trkpt lat="42.76315" lon="1.5884">
        <ele>1411.949</ele>
        <time>2022-02-20T09:46:14Z</time>
      </trkpt>
      <trkpt lat="42.76314" lon="1.5884">
        <ele>1411.833</ele>
        <time>2022-02-20T09:46:16Z</time>
      </trkpt>
      <trkpt lat="42.76312" lon="1.5884">
        <ele>1412.626</ele>
        <time>2022-02-20T09:46:18Z</time>
      </trkpt>
      <trkpt lat="42.76311" lon="1.5884">
        <ele>1413.753</ele>
        <time>2022-02-20T09:46:20Z</time>
      </trkpt>
      <trkpt lat="42.76309" lon="1.5884">
        <ele>1414.174</ele>
        <time>2022-02-20T09:46:22Z</time>
      </trkpt>
      <trkpt lat="42.76308" lon="1.5884">
        <ele>1413.358</ele>
        <time>2022-02-20T09:46:24Z</time>
      </trkpt>
      <trkpt lat="42.76307" lon="1.58841">
        <ele>1413.452</ele>
        <time>2022-02-20T09:46:26Z</time>
      </trkpt>
      <trkpt lat="42.76306" lon="1.58841">
        <ele>1413.907</ele>
        <time>2022-02-20T09:46:28Z</time>
      </trkpt>
      <trkpt lat="42.76305" lon="1.58842">
        <ele>1414.757</ele>
        <time>2022-02-20T09:46:30Z</time>
      </trkpt>
      <trkpt lat="42.76304" lon="1.58842">
        <ele>1414.928</ele>
        <time>2022-02-20T09:46:32Z</time>
      </trkpt>
      <trkpt lat="42.76302" lon="1.58841">
        <ele>1416.264</ele>
        <time>2022-02-20T09:46:34Z</time>
      </trkpt>
      <trkpt lat="42.76301" lon="1.58841">
        <ele>1416.181</ele>
        <time>2022-02-20T09:46:36Z</time>
      </trkpt>
      <trkpt lat="42.76299" lon="1.58841">
        <ele>1417.107</ele>
        <time>2022-02-20T09:46:38Z</time>
      </trkpt>
      <trkpt lat="42.76298" lon="1.58841">
        <ele>1417.764</ele>
        <time>2022-02-20T09:46:40Z</time>
      </trkpt>
      <trkpt lat="42.76296" lon="1.5884">
        <ele>1417.549</ele>
        <time>2022-02-20T09:46:42Z</time>
      </trkpt>
      <trkpt lat="42.76295" lon="1.5884">
        <ele>1417</ele>
        <time>2022-02-20T09:46:44Z</time>
      </trkpt>
      <trkpt lat="42.76294" lon="1.5884">
        <ele>1416.551</ele>
        <time>2022-02-20T09:46:46Z</time>
      </trkpt>
      <trkpt lat="42.76292" lon="1.5884">
        <ele>1415.039</ele>
        <time>2022-02-20T09:46:48Z</time>
      </trkpt>
      <trkpt lat="42.76291" lon="1.5884">
        <ele>1414.333</ele>
        <time>2022-02-20T09:46:50Z</time>
      </trkpt>
      <trkpt lat="42.7629" lon="1.5884">
        <ele>1414.546</ele>
        <time>2022-02-20T09:46:52Z</time>
      </trkpt>
      <trkpt lat="42.76288" lon="1.5884">
        <ele>1414.512</ele>
        <time>2022-02-20T09:46:54Z</time>
      </trkpt>
      <trkpt lat="42.76287" lon="1.5884">
        <ele>1414.029</ele>
        <time>2022-02-20T09:46:56Z</time>
      </trkpt>
      <trkpt lat="42.76286" lon="1.5884">
        <ele>1414.451</ele>
        <time>2022-02-20T09:46:58Z</time>
      </trkpt>
      <trkpt lat="42.76284" lon="1.5884">
        <ele>1415.074</ele>
        <time>2022-02-20T09:47:00Z</time>
      </trkpt>
      <trkpt lat="42.76283" lon="1.5884">
        <ele>1414.048</ele>
        <time>2022-02-20T09:47:02Z</time>
      </trkpt>
      <trkpt lat="42.76282" lon="1.58839">
        <ele>1413.407</ele>
        <time>2022-02-20T09:47:04Z</time>
      </trkpt>
      <trkpt lat="42.7628" lon="1.58839">
        <ele>1413.926</ele>
        <time>2022-02-20T09:47:06Z</time>
      </trkpt>
      <trkpt lat="42.76278" lon="1.58838">
        <ele>1415.222</ele>
        <time>2022-02-20T09:47:08Z</time>
      </trkpt>
      <trkpt lat="42.76277" lon="1.58837">
        <ele>1416.469</ele>
        <time>2022-02-20T09:47:10Z</time>
      </trkpt>
      <trkpt lat="42.76275" lon="1.58836">
        <ele>1416.933</ele>
        <time>2022-02-20T09:47:12Z</time>
      </trkpt>
      <trkpt lat="42.76274" lon="1.58836">
        <ele>1416.332</ele>
        <time>2022-02-20T09:47:14Z</time>
      </trkpt>
      <trkpt lat="42.76272" lon="1.58836">
        <ele>1417.291</ele>
        <time>2022-02-20T09:47:16Z</time>
      </trkpt>
      <trkpt lat="42.7627" lon="1.58836">
        <ele>1417.369</ele>
        <time>2022-02-20T09:47:18Z</time>
      </trkpt>
      <trkpt lat="42.76269" lon="1.58836">
        <ele>1417.079</ele>
        <time>2022-02-20T09:47:20Z</time>
      </trkpt>
      <trkpt lat="42.76267" lon="1.58836">
        <ele>1417.605</ele>
        <time>2022-02-20T09:47:22Z</time>
      </trkpt>
      <trkpt lat="42.76265" lon="1.58835">
        <ele>1417.588</ele>
        <time>2022-02-20T09:47:24Z</time>
      </trkpt>
      <trkpt lat="42.76264" lon="1.58835">
        <ele>1416.991</ele>
        <time>2022-02-20T09:47:26Z</time>
      </trkpt>
      <trkpt lat="42.76262" lon="1.58834">
        <ele>1418.293</ele>
        <time>2022-02-20T09:47:28Z</time>
      </trkpt>
      <trkpt lat="42.7626" lon="1.58833">
        <ele>1418.558</ele>
        <time>2022-02-20T09:47:30Z</time>
      </trkpt>
      <trkpt lat="42.76259" lon="1.58833">
        <ele>1419.508</ele>
        <time>2022-02-20T09:47:32Z</time>
      </trkpt>
      <trkpt lat="42.76257" lon="1.58832">
        <ele>1419.572</ele>
        <time>2022-02-20T09:47:34Z</time>
      </trkpt>
      <trkpt lat="42.76256" lon="1.58831">
        <ele>1421.177</ele>
        <time>2022-02-20T09:47:36Z</time>
      </trkpt>
      <trkpt lat="42.76254" lon="1.58831">
        <ele>1420.618</ele>
        <time>2022-02-20T09:47:38Z</time>
      </trkpt>
      <trkpt lat="42.76253" lon="1.58832">
        <ele>1420.048</ele>
        <time>2022-02-20T09:47:40Z</time>
      </trkpt>
      <trkpt lat="42.76252" lon="1.58832">
        <ele>1419.905</ele>
        <time>2022-02-20T09:47:42Z</time>
      </trkpt>
      <trkpt lat="42.7625" lon="1.58832">
        <ele>1420.623</ele>
        <time>2022-02-20T09:47:44Z</time>
      </trkpt>
      <trkpt lat="42.76249" lon="1.58832">
        <ele>1419.683</ele>
        <time>2022-02-20T09:47:46Z</time>
      </trkpt>
      <trkpt lat="42.76247" lon="1.58832">
        <ele>1419.701</ele>
        <time>2022-02-20T09:47:48Z</time>
      </trkpt>
      <trkpt lat="42.76247" lon="1.58831">
        <ele>1419.662</ele>
        <time>2022-02-20T09:47:50Z</time>
      </trkpt>
      <trkpt lat="42.76245" lon="1.58831">
        <ele>1419.961</ele>
        <time>2022-02-20T09:47:52Z</time>
      </trkpt>
      <trkpt lat="42.76244" lon="1.58831">
        <ele>1419.547</ele>
        <time>2022-02-20T09:47:54Z</time>
      </trkpt>
      <trkpt lat="42.76243" lon="1.5883">
        <ele>1420.19</ele>
        <time>2022-02-20T09:47:56Z</time>
      </trkpt>
      <trkpt lat="42.76242" lon="1.58829">
        <ele>1420.693</ele>
        <time>2022-02-20T09:47:58Z</time>
      </trkpt>
      <trkpt lat="42.7624" lon="1.58828">
        <ele>1420.699</ele>
        <time>2022-02-20T09:48:00Z</time>
      </trkpt>
      <trkpt lat="42.76239" lon="1.58828">
        <ele>1420.591</ele>
        <time>2022-02-20T09:48:02Z</time>
      </trkpt>
      <trkpt lat="42.76238" lon="1.58828">
        <ele>1421.158</ele>
        <time>2022-02-20T09:48:04Z</time>
      </trkpt>
      <trkpt lat="42.76237" lon="1.58828">
        <ele>1421.037</ele>
        <time>2022-02-20T09:48:06Z</time>
      </trkpt>
      <trkpt lat="42.76236" lon="1.58827">
        <ele>1421.482</ele>
        <time>2022-02-20T09:48:08Z</time>
      </trkpt>
      <trkpt lat="42.76235" lon="1.58827">
        <ele>1421.27</ele>
        <time>2022-02-20T09:48:10Z</time>
      </trkpt>
      <trkpt lat="42.76234" lon="1.58826">
        <ele>1421.713</ele>
        <time>2022-02-20T09:48:12Z</time>
      </trkpt>
      <trkpt lat="42.76232" lon="1.58826">
        <ele>1421.537</ele>
        <time>2022-02-20T09:48:14Z</time>
      </trkpt>
      <trkpt lat="42.76231" lon="1.58826">
        <ele>1421.804</ele>
        <time>2022-02-20T09:48:16Z</time>
      </trkpt>
      <trkpt lat="42.7623" lon="1.58826">
        <ele>1422.419</ele>
        <time>2022-02-20T09:48:18Z</time>
      </trkpt>
      <trkpt lat="42.76228" lon="1.58825">
        <ele>1423.185</ele>
        <time>2022-02-20T09:48:20Z</time>
      </trkpt>
      <trkpt lat="42.76227" lon="1.58825">
        <ele>1424.752</ele>
        <time>2022-02-20T09:48:22Z</time>
      </trkpt>
      <trkpt lat="42.76225" lon="1.58825">
        <ele>1425.112</ele>
        <time>2022-02-20T09:48:24Z</time>
      </trkpt>
      <trkpt lat="42.76224" lon="1.58825">
        <ele>1424.824</ele>
        <time>2022-02-20T09:48:26Z</time>
      </trkpt>
      <trkpt lat="42.76223" lon="1.58825">
        <ele>1424.428</ele>
        <time>2022-02-20T09:48:28Z</time>
      </trkpt>
      <trkpt lat="42.76222" lon="1.58824">
        <ele>1424.034</ele>
        <time>2022-02-20T09:48:30Z</time>
      </trkpt>
      <trkpt lat="42.7622" lon="1.58824">
        <ele>1424.086</ele>
        <time>2022-02-20T09:48:32Z</time>
      </trkpt>
      <trkpt lat="42.76219" lon="1.58824">
        <ele>1424.631</ele>
        <time>2022-02-20T09:48:34Z</time>
      </trkpt>
      <trkpt lat="42.76218" lon="1.58823">
        <ele>1425.222</ele>
        <time>2022-02-20T09:48:36Z</time>
      </trkpt>
      <trkpt lat="42.76217" lon="1.58822">
        <ele>1424.277</ele>
        <time>2022-02-20T09:48:38Z</time>
      </trkpt>
      <trkpt lat="42.76215" lon="1.58822">
        <ele>1424.243</ele>
        <time>2022-02-20T09:48:40Z</time>
      </trkpt>
      <trkpt lat="42.76214" lon="1.58823">
        <ele>1424.194</ele>
        <time>2022-02-20T09:48:42Z</time>
      </trkpt>
      <trkpt lat="42.76213" lon="1.58823">
        <ele>1424.808</ele>
        <time>2022-02-20T09:48:44Z</time>
      </trkpt>
      <trkpt lat="42.76212" lon="1.58823">
        <ele>1425.685</ele>
        <time>2022-02-20T09:48:46Z</time>
      </trkpt>
      <trkpt lat="42.76211" lon="1.58823">
        <ele>1426.081</ele>
        <time>2022-02-20T09:48:48Z</time>
      </trkpt>
      <trkpt lat="42.7621" lon="1.58822">
        <ele>1426.467</ele>
        <time>2022-02-20T09:48:50Z</time>
      </trkpt>
      <trkpt lat="42.76209" lon="1.58822">
        <ele>1426.195</ele>
        <time>2022-02-20T09:48:52Z</time>
      </trkpt>
      <trkpt lat="42.76208" lon="1.58822">
        <ele>1425.94</ele>
        <time>2022-02-20T09:48:54Z</time>
      </trkpt>
      <trkpt lat="42.76206" lon="1.58821">
        <ele>1425.89</ele>
        <time>2022-02-20T09:48:56Z</time>
      </trkpt>
      <trkpt lat="42.76205" lon="1.58821">
        <ele>1426.786</ele>
        <time>2022-02-20T09:48:58Z</time>
      </trkpt>
      <trkpt lat="42.76204" lon="1.5882">
        <ele>1427.48</ele>
        <time>2022-02-20T09:49:00Z</time>
      </trkpt>
      <trkpt lat="42.76203" lon="1.5882">
        <ele>1428.864</ele>
        <time>2022-02-20T09:49:02Z</time>
      </trkpt>
      <trkpt lat="42.76202" lon="1.58819">
        <ele>1428.442</ele>
        <time>2022-02-20T09:49:04Z</time>
      </trkpt>
      <trkpt lat="42.762" lon="1.58819">
        <ele>1429.778</ele>
        <time>2022-02-20T09:49:06Z</time>
      </trkpt>
      <trkpt lat="42.76199" lon="1.58819">
        <ele>1430.158</ele>
        <time>2022-02-20T09:49:08Z</time>
      </trkpt>
      <trkpt lat="42.76198" lon="1.5882">
        <ele>1430.176</ele>
        <time>2022-02-20T09:49:10Z</time>
      </trkpt>
      <trkpt lat="42.76197" lon="1.5882">
        <ele>1431.283</ele>
        <time>2022-02-20T09:49:12Z</time>
      </trkpt>
      <trkpt lat="42.76195" lon="1.5882">
        <ele>1431.591</ele>
        <time>2022-02-20T09:49:14Z</time>
      </trkpt>
      <trkpt lat="42.76194" lon="1.58821">
        <ele>1431.452</ele>
        <time>2022-02-20T09:49:16Z</time>
      </trkpt>
      <trkpt lat="42.76193" lon="1.58821">
        <ele>1432.248</ele>
        <time>2022-02-20T09:49:18Z</time>
      </trkpt>
      <trkpt lat="42.76192" lon="1.58821">
        <ele>1432.612</ele>
        <time>2022-02-20T09:49:20Z</time>
      </trkpt>
      <trkpt lat="42.7619" lon="1.58821">
        <ele>1432.456</ele>
        <time>2022-02-20T09:49:22Z</time>
      </trkpt>
      <trkpt lat="42.76189" lon="1.58821">
        <ele>1432.47</ele>
        <time>2022-02-20T09:49:24Z</time>
      </trkpt>
      <trkpt lat="42.76188" lon="1.58821">
        <ele>1432.752</ele>
        <time>2022-02-20T09:49:26Z</time>
      </trkpt>
      <trkpt lat="42.76186" lon="1.58821">
        <ele>1432.083</ele>
        <time>2022-02-20T09:49:28Z</time>
      </trkpt>
      <trkpt lat="42.76185" lon="1.58822">
        <ele>1432.434</ele>
        <time>2022-02-20T09:49:30Z</time>
      </trkpt>
      <trkpt lat="42.76183" lon="1.58822">
        <ele>1433.176</ele>
        <time>2022-02-20T09:49:32Z</time>
      </trkpt>
      <trkpt lat="42.76182" lon="1.58823">
        <ele>1432.594</ele>
        <time>2022-02-20T09:49:34Z</time>
      </trkpt>
      <trkpt lat="42.7618" lon="1.58823">
        <ele>1431.579</ele>
        <time>2022-02-20T09:49:36Z</time>
      </trkpt>
      <trkpt lat="42.76179" lon="1.58824">
        <ele>1431.483</ele>
        <time>2022-02-20T09:49:38Z</time>
      </trkpt>
      <trkpt lat="42.76178" lon="1.58825">
        <ele>1431.33</ele>
        <time>2022-02-20T09:49:40Z</time>
      </trkpt>
      <trkpt lat="42.76176" lon="1.58826">
        <ele>1431.575</ele>
        <time>2022-02-20T09:49:42Z</time>
      </trkpt>
      <trkpt lat="42.76175" lon="1.58826">
        <ele>1431.377</ele>
        <time>2022-02-20T09:49:44Z</time>
      </trkpt>
      <trkpt lat="42.76173" lon="1.58827">
        <ele>1431.395</ele>
        <time>2022-02-20T09:49:46Z</time>
      </trkpt>
      <trkpt lat="42.76173" lon="1.58828">
        <ele>1432.06</ele>
        <time>2022-02-20T09:49:48Z</time>
      </trkpt>
      <trkpt lat="42.76173" lon="1.58828">
        <ele>1432.059</ele>
        <time>2022-02-20T09:49:50Z</time>
      </trkpt>
      <trkpt lat="42.76173" lon="1.58828">
        <ele>1432.054</ele>
        <time>2022-02-20T09:49:52Z</time>
      </trkpt>
      <trkpt lat="42.76173" lon="1.58828">
        <ele>1432.045</ele>
        <time>2022-02-20T09:49:54Z</time>
      </trkpt>
      <trkpt lat="42.76173" lon="1.58828">
        <ele>1432.047</ele>
        <time>2022-02-20T09:49:56Z</time>
      </trkpt>
      <trkpt lat="42.76173" lon="1.58828">
        <ele>1432.052</ele>
        <time>2022-02-20T09:49:58Z</time>
      </trkpt>
      <trkpt lat="42.76173" lon="1.58828">
        <ele>1432.054</ele>
        <time>2022-02-20T09:50:00Z</time>
      </trkpt>
      <trkpt lat="42.76173" lon="1.58828">
        <ele>1432.06</ele>
        <time>2022-02-20T09:50:02Z</time>
      </trkpt>
      <trkpt lat="42.76173" lon="1.58828">
        <ele>1432.064</ele>
        <time>2022-02-20T09:50:04Z</time>
      </trkpt>
      <trkpt lat="42.76173" lon="1.58828">
        <ele>1432.065</ele>
        <time>2022-02-20T09:50:06Z</time>
      </trkpt>
      <trkpt lat="42.76172" lon="1.58828">
        <ele>1432.672</ele>
        <time>2022-02-20T09:50:08Z</time>
      </trkpt>
      <trkpt lat="42.7617" lon="1.58829">
        <ele>1433.457</ele>
        <time>2022-02-20T09:50:10Z</time>
      </trkpt>
      <trkpt lat="42.76168" lon="1.58829">
        <ele>1433.766</ele>
        <time>2022-02-20T09:50:12Z</time>
      </trkpt>
      <trkpt lat="42.76166" lon="1.5883">
        <ele>1434.613</ele>
        <time>2022-02-20T09:50:14Z</time>
      </trkpt>
      <trkpt lat="42.76164" lon="1.5883">
        <ele>1433.851</ele>
        <time>2022-02-20T09:50:16Z</time>
      </trkpt>
      <trkpt lat="42.76162" lon="1.58831">
        <ele>1433.823</ele>
        <time>2022-02-20T09:50:18Z</time>
      </trkpt>
      <trkpt lat="42.7616" lon="1.58831">
        <ele>1433.223</ele>
        <time>2022-02-20T09:50:20Z</time>
      </trkpt>
      <trkpt lat="42.76158" lon="1.58832">
        <ele>1431.827</ele>
        <time>2022-02-20T09:50:22Z</time>
      </trkpt>
      <trkpt lat="42.76156" lon="1.58833">
        <ele>1432.479</ele>
        <time>2022-02-20T09:50:24Z</time>
      </trkpt>
      <trkpt lat="42.76154" lon="1.58834">
        <ele>1432.126</ele>
        <time>2022-02-20T09:50:26Z</time>
      </trkpt>
      <trkpt lat="42.76153" lon="1.58835">
        <ele>1432.498</ele>
        <time>2022-02-20T09:50:28Z</time>
      </trkpt>
      <trkpt lat="42.76151" lon="1.58835">
        <ele>1432.194</ele>
        <time>2022-02-20T09:50:30Z</time>
      </trkpt>
      <trkpt lat="42.76149" lon="1.58836">
        <ele>1432.574</ele>
        <time>2022-02-20T09:50:32Z</time>
      </trkpt>
      <trkpt lat="42.76148" lon="1.58837">
        <ele>1431.874</ele>
        <time>2022-02-20T09:50:34Z</time>
      </trkpt>
      <trkpt lat="42.76146" lon="1.58838">
        <ele>1431.936</ele>
        <time>2022-02-20T09:50:36Z</time>
      </trkpt>
      <trkpt lat="42.76145" lon="1.58839">
        <ele>1432.843</ele>
        <time>2022-02-20T09:50:38Z</time>
      </trkpt>
      <trkpt lat="42.76143" lon="1.58839">
        <ele>1432.658</ele>
        <time>2022-02-20T09:50:40Z</time>
      </trkpt>
      <trkpt lat="42.76141" lon="1.5884">
        <ele>1432.128</ele>
        <time>2022-02-20T09:50:42Z</time>
      </trkpt>
      <trkpt lat="42.7614" lon="1.5884">
        <ele>1433.649</ele>
        <time>2022-02-20T09:50:44Z</time>
      </trkpt>
      <trkpt lat="42.76139" lon="1.58841">
        <ele>1434.398</ele>
        <time>2022-02-20T09:50:46Z</time>
      </trkpt>
      <trkpt lat="42.76138" lon="1.58841">
        <ele>1434.753</ele>
        <time>2022-02-20T09:50:48Z</time>
      </trkpt>
      <trkpt lat="42.76136" lon="1.58842">
        <ele>1435.015</ele>
        <time>2022-02-20T09:50:50Z</time>
      </trkpt>
      <trkpt lat="42.76135" lon="1.58843">
        <ele>1435.829</ele>
        <time>2022-02-20T09:50:52Z</time>
      </trkpt>
      <trkpt lat="42.76133" lon="1.58843">
        <ele>1436.062</ele>
        <time>2022-02-20T09:50:54Z</time>
      </trkpt>
      <trkpt lat="42.76131" lon="1.58843">
        <ele>1436.008</ele>
        <time>2022-02-20T09:50:56Z</time>
      </trkpt>
      <trkpt lat="42.7613" lon="1.58844">
        <ele>1436.272</ele>
        <time>2022-02-20T09:50:58Z</time>
      </trkpt>
      <trkpt lat="42.76129" lon="1.58845">
        <ele>1436.969</ele>
        <time>2022-02-20T09:51:00Z</time>
      </trkpt>
      <trkpt lat="42.76127" lon="1.58846">
        <ele>1436.957</ele>
        <time>2022-02-20T09:51:02Z</time>
      </trkpt>
      <trkpt lat="42.76126" lon="1.58846">
        <ele>1437.333</ele>
        <time>2022-02-20T09:51:04Z</time>
      </trkpt>
      <trkpt lat="42.76124" lon="1.58847">
        <ele>1437.561</ele>
        <time>2022-02-20T09:51:06Z</time>
      </trkpt>
      <trkpt lat="42.76122" lon="1.58846">
        <ele>1437.765</ele>
        <time>2022-02-20T09:51:08Z</time>
      </trkpt>
      <trkpt lat="42.7612" lon="1.58847">
        <ele>1437.649</ele>
        <time>2022-02-20T09:51:10Z</time>
      </trkpt>
      <trkpt lat="42.76118" lon="1.58847">
        <ele>1438.643</ele>
        <time>2022-02-20T09:51:12Z</time>
      </trkpt>
      <trkpt lat="42.76117" lon="1.58847">
        <ele>1439.159</ele>
        <time>2022-02-20T09:51:14Z</time>
      </trkpt>
      <trkpt lat="42.76115" lon="1.58847">
        <ele>1437.987</ele>
        <time>2022-02-20T09:51:16Z</time>
      </trkpt>
      <trkpt lat="42.76113" lon="1.58847">
        <ele>1438.109</ele>
        <time>2022-02-20T09:51:18Z</time>
      </trkpt>
      <trkpt lat="42.76111" lon="1.58848">
        <ele>1436.771</ele>
        <time>2022-02-20T09:51:20Z</time>
      </trkpt>
      <trkpt lat="42.76109" lon="1.58848">
        <ele>1436.566</ele>
        <time>2022-02-20T09:51:22Z</time>
      </trkpt>
      <trkpt lat="42.76108" lon="1.58849">
        <ele>1436.574</ele>
        <time>2022-02-20T09:51:24Z</time>
      </trkpt>
      <trkpt lat="42.76107" lon="1.58849">
        <ele>1436.767</ele>
        <time>2022-02-20T09:51:26Z</time>
      </trkpt>
      <trkpt lat="42.76105" lon="1.5885">
        <ele>1437.507</ele>
        <time>2022-02-20T09:51:28Z</time>
      </trkpt>
      <trkpt lat="42.76103" lon="1.58851">
        <ele>1438.176</ele>
        <time>2022-02-20T09:51:30Z</time>
      </trkpt>
      <trkpt lat="42.76101" lon="1.58851">
        <ele>1437.77</ele>
        <time>2022-02-20T09:51:32Z</time>
      </trkpt>
      <trkpt lat="42.761" lon="1.58852">
        <ele>1438.073</ele>
        <time>2022-02-20T09:51:34Z</time>
      </trkpt>
      <trkpt lat="42.76098" lon="1.58854">
        <ele>1438.456</ele>
        <time>2022-02-20T09:51:36Z</time>
      </trkpt>
      <trkpt lat="42.76097" lon="1.58855">
        <ele>1437.933</ele>
        <time>2022-02-20T09:51:38Z</time>
      </trkpt>
      <trkpt lat="42.76095" lon="1.58855">
        <ele>1438.78</ele>
        <time>2022-02-20T09:51:40Z</time>
      </trkpt>
      <trkpt lat="42.76094" lon="1.58855">
        <ele>1438.497</ele>
        <time>2022-02-20T09:51:42Z</time>
      </trkpt>
      <trkpt lat="42.76093" lon="1.58855">
        <ele>1436.888</ele>
        <time>2022-02-20T09:51:44Z</time>
      </trkpt>
      <trkpt lat="42.76092" lon="1.58856">
        <ele>1436.674</ele>
        <time>2022-02-20T09:51:46Z</time>
      </trkpt>
      <trkpt lat="42.76091" lon="1.58857">
        <ele>1436.893</ele>
        <time>2022-02-20T09:51:48Z</time>
      </trkpt>
      <trkpt lat="42.7609" lon="1.58857">
        <ele>1437.995</ele>
        <time>2022-02-20T09:51:50Z</time>
      </trkpt>
      <trkpt lat="42.7609" lon="1.58857">
        <ele>1438.008</ele>
        <time>2022-02-20T09:51:52Z</time>
      </trkpt>
      <trkpt lat="42.7609" lon="1.58857">
        <ele>1438.004</ele>
        <time>2022-02-20T09:51:54Z</time>
      </trkpt>
      <trkpt lat="42.7609" lon="1.58857">
        <ele>1438.01</ele>
        <time>2022-02-20T09:51:56Z</time>
      </trkpt>
      <trkpt lat="42.7609" lon="1.58857">
        <ele>1438.032</ele>
        <time>2022-02-20T09:51:58Z</time>
      </trkpt>
      <trkpt lat="42.7609" lon="1.58857">
        <ele>1437.98</ele>
        <time>2022-02-20T09:52:00Z</time>
      </trkpt>
      <trkpt lat="42.76089" lon="1.58858">
        <ele>1438.676</ele>
        <time>2022-02-20T09:52:02Z</time>
      </trkpt>
      <trkpt lat="42.76089" lon="1.58859">
        <ele>1438.645</ele>
        <time>2022-02-20T09:52:04Z</time>
      </trkpt>
      <trkpt lat="42.76089" lon="1.58859">
        <ele>1438.41</ele>
        <time>2022-02-20T09:52:06Z</time>
      </trkpt>
      <trkpt lat="42.76089" lon="1.58859">
        <ele>1438.402</ele>
        <time>2022-02-20T09:52:08Z</time>
      </trkpt>
      <trkpt lat="42.76089" lon="1.58859">
        <ele>1438.401</ele>
        <time>2022-02-20T09:52:10Z</time>
      </trkpt>
      <trkpt lat="42.76089" lon="1.58859">
        <ele>1438.533</ele>
        <time>2022-02-20T09:52:12Z</time>
      </trkpt>
      <trkpt lat="42.76089" lon="1.58859">
        <ele>1438.542</ele>
        <time>2022-02-20T09:52:14Z</time>
      </trkpt>
      <trkpt lat="42.76089" lon="1.58859">
        <ele>1438.566</ele>
        <time>2022-02-20T09:52:16Z</time>
      </trkpt>
      <trkpt lat="42.76089" lon="1.58859">
        <ele>1438.579</ele>
        <time>2022-02-20T09:52:18Z</time>
      </trkpt>
      <trkpt lat="42.76089" lon="1.58859">
        <ele>1438.593</ele>
        <time>2022-02-20T09:52:20Z</time>
      </trkpt>
      <trkpt lat="42.76089" lon="1.58859">
        <ele>1438.598</ele>
        <time>2022-02-20T09:52:22Z</time>
      </trkpt>
      <trkpt lat="42.76089" lon="1.58859">
        <ele>1438.607</ele>
        <time>2022-02-20T09:52:24Z</time>
      </trkpt>
      <trkpt lat="42.76089" lon="1.58859">
        <ele>1438.608</ele>
        <time>2022-02-20T09:52:26Z</time>
      </trkpt>
      <trkpt lat="42.76089" lon="1.58859">
        <ele>1438.611</ele>
        <time>2022-02-20T09:52:28Z</time>
      </trkpt>
      <trkpt lat="42.76089" lon="1.58859">
        <ele>1438.624</ele>
        <time>2022-02-20T09:52:30Z</time>
      </trkpt>
      <trkpt lat="42.76089" lon="1.58859">
        <ele>1438.638</ele>
        <time>2022-02-20T09:52:32Z</time>
      </trkpt>
      <trkpt lat="42.76089" lon="1.58859">
        <ele>1438.64</ele>
        <time>2022-02-20T09:52:34Z</time>
      </trkpt>
      <trkpt lat="42.76089" lon="1.58859">
        <ele>1438.583</ele>
        <time>2022-02-20T09:52:36Z</time>
      </trkpt>
      <trkpt lat="42.76089" lon="1.58859">
        <ele>1439.705</ele>
        <time>2022-02-20T09:52:38Z</time>
      </trkpt>
      <trkpt lat="42.76089" lon="1.58859">
        <ele>1439.712</ele>
        <time>2022-02-20T09:52:40Z</time>
      </trkpt>
      <trkpt lat="42.76089" lon="1.58859">
        <ele>1439.715</ele>
        <time>2022-02-20T09:52:42Z</time>
      </trkpt>
      <trkpt lat="42.76089" lon="1.58859">
        <ele>1439.714</ele>
        <time>2022-02-20T09:52:44Z</time>
      </trkpt>
      <trkpt lat="42.76089" lon="1.58859">
        <ele>1439.726</ele>
        <time>2022-02-20T09:52:46Z</time>
      </trkpt>
      <trkpt lat="42.76089" lon="1.58858">
        <ele>1440.247</ele>
        <time>2022-02-20T09:52:48Z</time>
      </trkpt>
      <trkpt lat="42.76089" lon="1.58859">
        <ele>1440.254</ele>
        <time>2022-02-20T09:52:50Z</time>
      </trkpt>
      <trkpt lat="42.76089" lon="1.58859">
        <ele>1440.374</ele>
        <time>2022-02-20T09:52:52Z</time>
      </trkpt>
      <trkpt lat="42.76089" lon="1.58859">
        <ele>1440.37</ele>
        <time>2022-02-20T09:52:54Z</time>
      </trkpt>
      <trkpt lat="42.76088" lon="1.58859">
        <ele>1440.966</ele>
        <time>2022-02-20T09:52:56Z</time>
      </trkpt>
      <trkpt lat="42.76088" lon="1.5886">
        <ele>1440.922</ele>
        <time>2022-02-20T09:52:58Z</time>
      </trkpt>
      <trkpt lat="42.76088" lon="1.58861">
        <ele>1441.297</ele>
        <time>2022-02-20T09:53:00Z</time>
      </trkpt>
      <trkpt lat="42.7609" lon="1.58861">
        <ele>1441.206</ele>
        <time>2022-02-20T09:53:02Z</time>
      </trkpt>
      <trkpt lat="42.76091" lon="1.58862">
        <ele>1442.565</ele>
        <time>2022-02-20T09:53:04Z</time>
      </trkpt>
      <trkpt lat="42.76091" lon="1.58863">
        <ele>1442.761</ele>
        <time>2022-02-20T09:53:06Z</time>
      </trkpt>
      <trkpt lat="42.76091" lon="1.58864">
        <ele>1443.949</ele>
        <time>2022-02-20T09:53:08Z</time>
      </trkpt>
      <trkpt lat="42.7609" lon="1.58865">
        <ele>1444.197</ele>
        <time>2022-02-20T09:53:10Z</time>
      </trkpt>
      <trkpt lat="42.76089" lon="1.58866">
        <ele>1444.136</ele>
        <time>2022-02-20T09:53:12Z</time>
      </trkpt>
      <trkpt lat="42.76088" lon="1.58867">
        <ele>1443.734</ele>
        <time>2022-02-20T09:53:14Z</time>
      </trkpt>
      <trkpt lat="42.76088" lon="1.58868">
        <ele>1443.762</ele>
        <time>2022-02-20T09:53:16Z</time>
      </trkpt>
      <trkpt lat="42.76087" lon="1.58869">
        <ele>1444.435</ele>
        <time>2022-02-20T09:53:18Z</time>
      </trkpt>
      <trkpt lat="42.76087" lon="1.5887">
        <ele>1445.919</ele>
        <time>2022-02-20T09:53:20Z</time>
      </trkpt>
      <trkpt lat="42.76086" lon="1.58871">
        <ele>1446.498</ele>
        <time>2022-02-20T09:53:22Z</time>
      </trkpt>
      <trkpt lat="42.76086" lon="1.58872">
        <ele>1446.912</ele>
        <time>2022-02-20T09:53:24Z</time>
      </trkpt>
      <trkpt lat="42.76086" lon="1.58874">
        <ele>1446.67</ele>
        <time>2022-02-20T09:53:26Z</time>
      </trkpt>
      <trkpt lat="42.76086" lon="1.58874">
        <ele>1446.7</ele>
        <time>2022-02-20T09:53:28Z</time>
      </trkpt>
      <trkpt lat="42.76086" lon="1.58875">
        <ele>1446.96</ele>
        <time>2022-02-20T09:53:30Z</time>
      </trkpt>
      <trkpt lat="42.76086" lon="1.58875">
        <ele>1446.98</ele>
        <time>2022-02-20T09:53:32Z</time>
      </trkpt>
      <trkpt lat="42.76086" lon="1.58875">
        <ele>1446.982</ele>
        <time>2022-02-20T09:53:34Z</time>
      </trkpt>
      <trkpt lat="42.76086" lon="1.58876">
        <ele>1447.399</ele>
        <time>2022-02-20T09:53:36Z</time>
      </trkpt>
      <trkpt lat="42.76086" lon="1.58877">
        <ele>1447.48</ele>
        <time>2022-02-20T09:53:38Z</time>
      </trkpt>
      <trkpt lat="42.76086" lon="1.58878">
        <ele>1446.019</ele>
        <time>2022-02-20T09:53:40Z</time>
      </trkpt>
      <trkpt lat="42.76085" lon="1.5888">
        <ele>1447.239</ele>
        <time>2022-02-20T09:53:42Z</time>
      </trkpt>
      <trkpt lat="42.76086" lon="1.58881">
        <ele>1447.737</ele>
        <time>2022-02-20T09:53:44Z</time>
      </trkpt>
      <trkpt lat="42.76086" lon="1.5888">
        <ele>1449.296</ele>
        <time>2022-02-20T09:53:46Z</time>
      </trkpt>
      <trkpt lat="42.76087" lon="1.5888">
        <ele>1449.518</ele>
        <time>2022-02-20T09:53:48Z</time>
      </trkpt>
      <trkpt lat="42.76086" lon="1.5888">
        <ele>1449.448</ele>
        <time>2022-02-20T09:53:50Z</time>
      </trkpt>
      <trkpt lat="42.76087" lon="1.5888">
        <ele>1449.465</ele>
        <time>2022-02-20T09:53:52Z</time>
      </trkpt>
      <trkpt lat="42.76087" lon="1.58881">
        <ele>1449.727</ele>
        <time>2022-02-20T09:53:54Z</time>
      </trkpt>
      <trkpt lat="42.76087" lon="1.58882">
        <ele>1449.83</ele>
        <time>2022-02-20T09:53:56Z</time>
      </trkpt>
      <trkpt lat="42.76087" lon="1.58882">
        <ele>1449.579</ele>
        <time>2022-02-20T09:53:58Z</time>
      </trkpt>
      <trkpt lat="42.76086" lon="1.58883">
        <ele>1449.869</ele>
        <time>2022-02-20T09:54:00Z</time>
      </trkpt>
      <trkpt lat="42.76086" lon="1.58884">
        <ele>1449.534</ele>
        <time>2022-02-20T09:54:02Z</time>
      </trkpt>
      <trkpt lat="42.76086" lon="1.58885">
        <ele>1449.634</ele>
        <time>2022-02-20T09:54:04Z</time>
      </trkpt>
      <trkpt lat="42.76086" lon="1.58885">
        <ele>1449.375</ele>
        <time>2022-02-20T09:54:06Z</time>
      </trkpt>
      <trkpt lat="42.76085" lon="1.58885">
        <ele>1449.393</ele>
        <time>2022-02-20T09:54:08Z</time>
      </trkpt>
      <trkpt lat="42.76085" lon="1.58885">
        <ele>1449.398</ele>
        <time>2022-02-20T09:54:10Z</time>
      </trkpt>
      <trkpt lat="42.76085" lon="1.58886">
        <ele>1449.659</ele>
        <time>2022-02-20T09:54:12Z</time>
      </trkpt>
      <trkpt lat="42.76085" lon="1.58887">
        <ele>1450.579</ele>
        <time>2022-02-20T09:54:14Z</time>
      </trkpt>
      <trkpt lat="42.76084" lon="1.58888">
        <ele>1450.695</ele>
        <time>2022-02-20T09:54:16Z</time>
      </trkpt>
      <trkpt lat="42.76084" lon="1.5889">
        <ele>1451.432</ele>
        <time>2022-02-20T09:54:18Z</time>
      </trkpt>
      <trkpt lat="42.76084" lon="1.5889">
        <ele>1451.753</ele>
        <time>2022-02-20T09:54:20Z</time>
      </trkpt>
      <trkpt lat="42.76084" lon="1.5889">
        <ele>1451.604</ele>
        <time>2022-02-20T09:54:22Z</time>
      </trkpt>
      <trkpt lat="42.76084" lon="1.58891">
        <ele>1452.008</ele>
        <time>2022-02-20T09:54:24Z</time>
      </trkpt>
      <trkpt lat="42.76085" lon="1.58891">
        <ele>1453.327</ele>
        <time>2022-02-20T09:54:26Z</time>
      </trkpt>
      <trkpt lat="42.76085" lon="1.58891">
        <ele>1453.286</ele>
        <time>2022-02-20T09:54:28Z</time>
      </trkpt>
      <trkpt lat="42.76085" lon="1.58891">
        <ele>1452.898</ele>
        <time>2022-02-20T09:54:30Z</time>
      </trkpt>
      <trkpt lat="42.76085" lon="1.58891">
        <ele>1452.959</ele>
        <time>2022-02-20T09:54:32Z</time>
      </trkpt>
      <trkpt lat="42.76085" lon="1.58891">
        <ele>1454.147</ele>
        <time>2022-02-20T09:54:34Z</time>
      </trkpt>
      <trkpt lat="42.76085" lon="1.58891">
        <ele>1454.332</ele>
        <time>2022-02-20T09:54:36Z</time>
      </trkpt>
      <trkpt lat="42.76085" lon="1.58891">
        <ele>1453.904</ele>
        <time>2022-02-20T09:54:38Z</time>
      </trkpt>
      <trkpt lat="42.76085" lon="1.58891">
        <ele>1453.82</ele>
        <time>2022-02-20T09:54:40Z</time>
      </trkpt>
      <trkpt lat="42.76085" lon="1.58891">
        <ele>1453.76</ele>
        <time>2022-02-20T09:54:42Z</time>
      </trkpt>
      <trkpt lat="42.76085" lon="1.58891">
        <ele>1453.853</ele>
        <time>2022-02-20T09:54:44Z</time>
      </trkpt>
      <trkpt lat="42.76085" lon="1.58892">
        <ele>1454.061</ele>
        <time>2022-02-20T09:54:46Z</time>
      </trkpt>
      <trkpt lat="42.76085" lon="1.58892">
        <ele>1453.965</ele>
        <time>2022-02-20T09:54:48Z</time>
      </trkpt>
      <trkpt lat="42.76086" lon="1.58893">
        <ele>1455.242</ele>
        <time>2022-02-20T09:54:50Z</time>
      </trkpt>
      <trkpt lat="42.76087" lon="1.58894">
        <ele>1455.557</ele>
        <time>2022-02-20T09:54:52Z</time>
      </trkpt>
      <trkpt lat="42.76088" lon="1.58895">
        <ele>1456.174</ele>
        <time>2022-02-20T09:54:54Z</time>
      </trkpt>
      <trkpt lat="42.76088" lon="1.58895">
        <ele>1456.178</ele>
        <time>2022-02-20T09:54:56Z</time>
      </trkpt>
      <trkpt lat="42.76088" lon="1.58896">
        <ele>1456.449</ele>
        <time>2022-02-20T09:54:58Z</time>
      </trkpt>
      <trkpt lat="42.76088" lon="1.58896">
        <ele>1457.137</ele>
        <time>2022-02-20T09:55:00Z</time>
      </trkpt>
      <trkpt lat="42.76089" lon="1.58898">
        <ele>1456.799</ele>
        <time>2022-02-20T09:55:02Z</time>
      </trkpt>
      <trkpt lat="42.76089" lon="1.58899">
        <ele>1456.8</ele>
        <time>2022-02-20T09:55:04Z</time>
      </trkpt>
      <trkpt lat="42.76089" lon="1.589">
        <ele>1457.645</ele>
        <time>2022-02-20T09:55:06Z</time>
      </trkpt>
      <trkpt lat="42.76089" lon="1.58899">
        <ele>1457.621</ele>
        <time>2022-02-20T09:55:08Z</time>
      </trkpt>
      <trkpt lat="42.76089" lon="1.58901">
        <ele>1457.677</ele>
        <time>2022-02-20T09:55:10Z</time>
      </trkpt>
      <trkpt lat="42.76089" lon="1.58902">
        <ele>1457.632</ele>
        <time>2022-02-20T09:55:12Z</time>
      </trkpt>
      <trkpt lat="42.76089" lon="1.58902">
        <ele>1457.642</ele>
        <time>2022-02-20T09:55:14Z</time>
      </trkpt>
      <trkpt lat="42.76089" lon="1.58903">
        <ele>1458.352</ele>
        <time>2022-02-20T09:55:16Z</time>
      </trkpt>
      <trkpt lat="42.76089" lon="1.58904">
        <ele>1458.408</ele>
        <time>2022-02-20T09:55:18Z</time>
      </trkpt>
      <trkpt lat="42.76089" lon="1.58904">
        <ele>1458.293</ele>
        <time>2022-02-20T09:55:20Z</time>
      </trkpt>
      <trkpt lat="42.7609" lon="1.58905">
        <ele>1458.873</ele>
        <time>2022-02-20T09:55:22Z</time>
      </trkpt>
      <trkpt lat="42.7609" lon="1.58906">
        <ele>1459.578</ele>
        <time>2022-02-20T09:55:24Z</time>
      </trkpt>
      <trkpt lat="42.76089" lon="1.58907">
        <ele>1458.809</ele>
        <time>2022-02-20T09:55:26Z</time>
      </trkpt>
      <trkpt lat="42.76088" lon="1.58908">
        <ele>1458.205</ele>
        <time>2022-02-20T09:55:28Z</time>
      </trkpt>
      <trkpt lat="42.76088" lon="1.58909">
        <ele>1458.187</ele>
        <time>2022-02-20T09:55:30Z</time>
      </trkpt>
      <trkpt lat="42.76088" lon="1.5891">
        <ele>1458.508</ele>
        <time>2022-02-20T09:55:32Z</time>
      </trkpt>
      <trkpt lat="42.76088" lon="1.58911">
        <ele>1460.257</ele>
        <time>2022-02-20T09:55:34Z</time>
      </trkpt>
      <trkpt lat="42.76089" lon="1.58912">
        <ele>1460.918</ele>
        <time>2022-02-20T09:55:36Z</time>
      </trkpt>
      <trkpt lat="42.76089" lon="1.58913">
        <ele>1461.573</ele>
        <time>2022-02-20T09:55:38Z</time>
      </trkpt>
      <trkpt lat="42.76089" lon="1.58914">
        <ele>1461.665</ele>
        <time>2022-02-20T09:55:40Z</time>
      </trkpt>
      <trkpt lat="42.76089" lon="1.58915">
        <ele>1463.745</ele>
        <time>2022-02-20T09:55:42Z</time>
      </trkpt>
      <trkpt lat="42.76089" lon="1.58916">
        <ele>1463.881</ele>
        <time>2022-02-20T09:55:44Z</time>
      </trkpt>
      <trkpt lat="42.76088" lon="1.58916">
        <ele>1463.619</ele>
        <time>2022-02-20T09:55:46Z</time>
      </trkpt>
      <trkpt lat="42.76088" lon="1.58917">
        <ele>1464.552</ele>
        <time>2022-02-20T09:55:48Z</time>
      </trkpt>
      <trkpt lat="42.76088" lon="1.58918">
        <ele>1465.349</ele>
        <time>2022-02-20T09:55:50Z</time>
      </trkpt>
      <trkpt lat="42.76088" lon="1.58918">
        <ele>1465.627</ele>
        <time>2022-02-20T09:55:52Z</time>
      </trkpt>
      <trkpt lat="42.76088" lon="1.58918">
        <ele>1465.63</ele>
        <time>2022-02-20T09:55:54Z</time>
      </trkpt>
      <trkpt lat="42.76088" lon="1.58918">
        <ele>1465.64</ele>
        <time>2022-02-20T09:55:56Z</time>
      </trkpt>
      <trkpt lat="42.76088" lon="1.58918">
        <ele>1465.962</ele>
        <time>2022-02-20T09:55:58Z</time>
      </trkpt>
      <trkpt lat="42.76088" lon="1.5892">
        <ele>1466.999</ele>
        <time>2022-02-20T09:56:00Z</time>
      </trkpt>
      <trkpt lat="42.76088" lon="1.58921">
        <ele>1466.551</ele>
        <time>2022-02-20T09:56:02Z</time>
      </trkpt>
      <trkpt lat="42.76087" lon="1.58922">
        <ele>1466.526</ele>
        <time>2022-02-20T09:56:04Z</time>
      </trkpt>
      <trkpt lat="42.76087" lon="1.58923">
        <ele>1465.8</ele>
        <time>2022-02-20T09:56:06Z</time>
      </trkpt>
      <trkpt lat="42.76087" lon="1.58923">
        <ele>1465.864</ele>
        <time>2022-02-20T09:56:08Z</time>
      </trkpt>
      <trkpt lat="42.76086" lon="1.58924">
        <ele>1465.508</ele>
        <time>2022-02-20T09:56:10Z</time>
      </trkpt>
      <trkpt lat="42.76087" lon="1.58925">
        <ele>1465.078</ele>
        <time>2022-02-20T09:56:12Z</time>
      </trkpt>
      <trkpt lat="42.76087" lon="1.58926">
        <ele>1465.492</ele>
        <time>2022-02-20T09:56:14Z</time>
      </trkpt>
      <trkpt lat="42.76088" lon="1.58927">
        <ele>1465.991</ele>
        <time>2022-02-20T09:56:16Z</time>
      </trkpt>
      <trkpt lat="42.76088" lon="1.58928">
        <ele>1466.069</ele>
        <time>2022-02-20T09:56:18Z</time>
      </trkpt>
      <trkpt lat="42.76087" lon="1.58929">
        <ele>1465.273</ele>
        <time>2022-02-20T09:56:20Z</time>
      </trkpt>
      <trkpt lat="42.76087" lon="1.5893">
        <ele>1465.066</ele>
        <time>2022-02-20T09:56:22Z</time>
      </trkpt>
      <trkpt lat="42.76088" lon="1.58931">
        <ele>1466.478</ele>
        <time>2022-02-20T09:56:24Z</time>
      </trkpt>
      <trkpt lat="42.76088" lon="1.58932">
        <ele>1468.038</ele>
        <time>2022-02-20T09:56:26Z</time>
      </trkpt>
      <trkpt lat="42.76088" lon="1.58933">
        <ele>1469.183</ele>
        <time>2022-02-20T09:56:28Z</time>
      </trkpt>
      <trkpt lat="42.76087" lon="1.58934">
        <ele>1468.581</ele>
        <time>2022-02-20T09:56:30Z</time>
      </trkpt>
      <trkpt lat="42.76088" lon="1.58935">
        <ele>1468.919</ele>
        <time>2022-02-20T09:56:32Z</time>
      </trkpt>
      <trkpt lat="42.76088" lon="1.58934">
        <ele>1468.935</ele>
        <time>2022-02-20T09:56:34Z</time>
      </trkpt>
      <trkpt lat="42.76088" lon="1.58935">
        <ele>1469.632</ele>
        <time>2022-02-20T09:56:36Z</time>
      </trkpt>
      <trkpt lat="42.76088" lon="1.58935">
        <ele>1470.227</ele>
        <time>2022-02-20T09:56:38Z</time>
      </trkpt>
      <trkpt lat="42.76088" lon="1.58937">
        <ele>1470.825</ele>
        <time>2022-02-20T09:56:40Z</time>
      </trkpt>
      <trkpt lat="42.76089" lon="1.58937">
        <ele>1471.278</ele>
        <time>2022-02-20T09:56:42Z</time>
      </trkpt>
      <trkpt lat="42.76089" lon="1.58938">
        <ele>1471.877</ele>
        <time>2022-02-20T09:56:44Z</time>
      </trkpt>
      <trkpt lat="42.76089" lon="1.58938">
        <ele>1471.16</ele>
        <time>2022-02-20T09:56:46Z</time>
      </trkpt>
      <trkpt lat="42.76089" lon="1.58939">
        <ele>1470.875</ele>
        <time>2022-02-20T09:56:48Z</time>
      </trkpt>
      <trkpt lat="42.76089" lon="1.58939">
        <ele>1470.91</ele>
        <time>2022-02-20T09:56:50Z</time>
      </trkpt>
      <trkpt lat="42.76089" lon="1.58939">
        <ele>1471.727</ele>
        <time>2022-02-20T09:56:52Z</time>
      </trkpt>
      <trkpt lat="42.76089" lon="1.5894">
        <ele>1471.142</ele>
        <time>2022-02-20T09:56:54Z</time>
      </trkpt>
      <trkpt lat="42.76089" lon="1.5894">
        <ele>1471.429</ele>
        <time>2022-02-20T09:56:56Z</time>
      </trkpt>
      <trkpt lat="42.76089" lon="1.5894">
        <ele>1471.585</ele>
        <time>2022-02-20T09:56:58Z</time>
      </trkpt>
      <trkpt lat="42.76089" lon="1.5894">
        <ele>1471.595</ele>
        <time>2022-02-20T09:57:00Z</time>
      </trkpt>
      <trkpt lat="42.76089" lon="1.58941">
        <ele>1471.749</ele>
        <time>2022-02-20T09:57:02Z</time>
      </trkpt>
      <trkpt lat="42.76088" lon="1.58941">
        <ele>1472.864</ele>
        <time>2022-02-20T09:57:04Z</time>
      </trkpt>
      <trkpt lat="42.76088" lon="1.58941">
        <ele>1473.206</ele>
        <time>2022-02-20T09:57:06Z</time>
      </trkpt>
      <trkpt lat="42.76088" lon="1.58941">
        <ele>1472.926</ele>
        <time>2022-02-20T09:57:08Z</time>
      </trkpt>
      <trkpt lat="42.76088" lon="1.58941">
        <ele>1472.924</ele>
        <time>2022-02-20T09:57:10Z</time>
      </trkpt>
      <trkpt lat="42.76087" lon="1.58941">
        <ele>1472.27</ele>
        <time>2022-02-20T09:57:12Z</time>
      </trkpt>
      <trkpt lat="42.76087" lon="1.58942">
        <ele>1472.602</ele>
        <time>2022-02-20T09:57:14Z</time>
      </trkpt>
      <trkpt lat="42.76086" lon="1.58943">
        <ele>1471.987</ele>
        <time>2022-02-20T09:57:16Z</time>
      </trkpt>
      <trkpt lat="42.76086" lon="1.58943">
        <ele>1471.977</ele>
        <time>2022-02-20T09:57:18Z</time>
      </trkpt>
      <trkpt lat="42.76086" lon="1.58943">
        <ele>1471.988</ele>
        <time>2022-02-20T09:57:20Z</time>
      </trkpt>
      <trkpt lat="42.76086" lon="1.58943">
        <ele>1471.996</ele>
        <time>2022-02-20T09:57:22Z</time>
      </trkpt>
      <trkpt lat="42.76086" lon="1.58943">
        <ele>1472.34</ele>
        <time>2022-02-20T09:57:24Z</time>
      </trkpt>
      <trkpt lat="42.76086" lon="1.58945">
        <ele>1472.281</ele>
        <time>2022-02-20T09:57:26Z</time>
      </trkpt>
      <trkpt lat="42.76086" lon="1.58945">
        <ele>1472.262</ele>
        <time>2022-02-20T09:57:28Z</time>
      </trkpt>
      <trkpt lat="42.76086" lon="1.58945">
        <ele>1472.27</ele>
        <time>2022-02-20T09:57:30Z</time>
      </trkpt>
      <trkpt lat="42.76086" lon="1.58945">
        <ele>1472.273</ele>
        <time>2022-02-20T09:57:32Z</time>
      </trkpt>
      <trkpt lat="42.76086" lon="1.58945">
        <ele>1472.274</ele>
        <time>2022-02-20T09:57:34Z</time>
      </trkpt>
      <trkpt lat="42.76086" lon="1.58945">
        <ele>1472.286</ele>
        <time>2022-02-20T09:57:36Z</time>
      </trkpt>
      <trkpt lat="42.76086" lon="1.58945">
        <ele>1472.281</ele>
        <time>2022-02-20T09:57:38Z</time>
      </trkpt>
      <trkpt lat="42.76086" lon="1.58945">
        <ele>1472.689</ele>
        <time>2022-02-20T09:57:40Z</time>
      </trkpt>
      <trkpt lat="42.76086" lon="1.58945">
        <ele>1472.761</ele>
        <time>2022-02-20T09:57:42Z</time>
      </trkpt>
      <trkpt lat="42.76086" lon="1.58945">
        <ele>1472.764</ele>
        <time>2022-02-20T09:57:44Z</time>
      </trkpt>
      <trkpt lat="42.76086" lon="1.58945">
        <ele>1472.76</ele>
        <time>2022-02-20T09:57:46Z</time>
      </trkpt>
      <trkpt lat="42.76086" lon="1.58945">
        <ele>1472.765</ele>
        <time>2022-02-20T09:57:48Z</time>
      </trkpt>
      <trkpt lat="42.76086" lon="1.58945">
        <ele>1472.766</ele>
        <time>2022-02-20T09:57:50Z</time>
      </trkpt>
      <trkpt lat="42.76086" lon="1.58945">
        <ele>1472.777</ele>
        <time>2022-02-20T09:57:52Z</time>
      </trkpt>
      <trkpt lat="42.76086" lon="1.58945">
        <ele>1472.771</ele>
        <time>2022-02-20T09:57:54Z</time>
      </trkpt>
      <trkpt lat="42.76086" lon="1.58946">
        <ele>1473.99</ele>
        <time>2022-02-20T09:57:56Z</time>
      </trkpt>
      <trkpt lat="42.76087" lon="1.58945">
        <ele>1473.884</ele>
        <time>2022-02-20T09:57:58Z</time>
      </trkpt>
      <trkpt lat="42.76088" lon="1.58944">
        <ele>1474.359</ele>
        <time>2022-02-20T09:58:00Z</time>
      </trkpt>
      <trkpt lat="42.76089" lon="1.58945">
        <ele>1474.437</ele>
        <time>2022-02-20T09:58:02Z</time>
      </trkpt>
      <trkpt lat="42.76089" lon="1.58945">
        <ele>1474.436</ele>
        <time>2022-02-20T09:58:04Z</time>
      </trkpt>
      <trkpt lat="42.76089" lon="1.58945">
        <ele>1474.447</ele>
        <time>2022-02-20T09:58:06Z</time>
      </trkpt>
      <trkpt lat="42.76088" lon="1.58944">
        <ele>1474.204</ele>
        <time>2022-02-20T09:58:08Z</time>
      </trkpt>
      <trkpt lat="42.76088" lon="1.58944">
        <ele>1474.204</ele>
        <time>2022-02-20T09:58:10Z</time>
      </trkpt>
      <trkpt lat="42.76088" lon="1.58945">
        <ele>1474.899</ele>
        <time>2022-02-20T09:58:12Z</time>
      </trkpt>
      <trkpt lat="42.76088" lon="1.58946">
        <ele>1475.089</ele>
        <time>2022-02-20T09:58:14Z</time>
      </trkpt>
      <trkpt lat="42.76088" lon="1.58947">
        <ele>1475.026</ele>
        <time>2022-02-20T09:58:16Z</time>
      </trkpt>
      <trkpt lat="42.76087" lon="1.58949">
        <ele>1475.175</ele>
        <time>2022-02-20T09:58:18Z</time>
      </trkpt>
      <trkpt lat="42.76086" lon="1.58951">
        <ele>1475.161</ele>
        <time>2022-02-20T09:58:20Z</time>
      </trkpt>
      <trkpt lat="42.76086" lon="1.58952">
        <ele>1475.439</ele>
        <time>2022-02-20T09:58:22Z</time>
      </trkpt>
      <trkpt lat="42.76086" lon="1.58953">
        <ele>1476.292</ele>
        <time>2022-02-20T09:58:24Z</time>
      </trkpt>
      <trkpt lat="42.76087" lon="1.58954">
        <ele>1478.314</ele>
        <time>2022-02-20T09:58:26Z</time>
      </trkpt>
      <trkpt lat="42.76088" lon="1.58955">
        <ele>1478.757</ele>
        <time>2022-02-20T09:58:28Z</time>
      </trkpt>
      <trkpt lat="42.76089" lon="1.58956">
        <ele>1479.423</ele>
        <time>2022-02-20T09:58:30Z</time>
      </trkpt>
      <trkpt lat="42.76089" lon="1.58957">
        <ele>1479.721</ele>
        <time>2022-02-20T09:58:32Z</time>
      </trkpt>
      <trkpt lat="42.76089" lon="1.58958">
        <ele>1479.789</ele>
        <time>2022-02-20T09:58:34Z</time>
      </trkpt>
      <trkpt lat="42.76089" lon="1.58958">
        <ele>1481.848</ele>
        <time>2022-02-20T09:58:36Z</time>
      </trkpt>
      <trkpt lat="42.76089" lon="1.58959">
        <ele>1481.96</ele>
        <time>2022-02-20T09:58:38Z</time>
      </trkpt>
      <trkpt lat="42.76088" lon="1.58959">
        <ele>1482.382</ele>
        <time>2022-02-20T09:58:40Z</time>
      </trkpt>
      <trkpt lat="42.76088" lon="1.5896">
        <ele>1484.012</ele>
        <time>2022-02-20T09:58:42Z</time>
      </trkpt>
      <trkpt lat="42.76089" lon="1.58961">
        <ele>1485.248</ele>
        <time>2022-02-20T09:58:44Z</time>
      </trkpt>
      <trkpt lat="42.76089" lon="1.58961">
        <ele>1484.872</ele>
        <time>2022-02-20T09:58:46Z</time>
      </trkpt>
      <trkpt lat="42.76089" lon="1.58961">
        <ele>1484.878</ele>
        <time>2022-02-20T09:58:48Z</time>
      </trkpt>
      <trkpt lat="42.76089" lon="1.58961">
        <ele>1484.879</ele>
        <time>2022-02-20T09:58:50Z</time>
      </trkpt>
      <trkpt lat="42.76089" lon="1.58961">
        <ele>1484.297</ele>
        <time>2022-02-20T09:58:52Z</time>
      </trkpt>
      <trkpt lat="42.76089" lon="1.58962">
        <ele>1484.558</ele>
        <time>2022-02-20T09:58:54Z</time>
      </trkpt>
      <trkpt lat="42.76089" lon="1.58963">
        <ele>1484.199</ele>
        <time>2022-02-20T09:58:56Z</time>
      </trkpt>
      <trkpt lat="42.76089" lon="1.58965">
        <ele>1483.944</ele>
        <time>2022-02-20T09:58:58Z</time>
      </trkpt>
      <trkpt lat="42.76089" lon="1.58966">
        <ele>1484.195</ele>
        <time>2022-02-20T09:59:00Z</time>
      </trkpt>
      <trkpt lat="42.76089" lon="1.58966">
        <ele>1484.807</ele>
        <time>2022-02-20T09:59:02Z</time>
      </trkpt>
      <trkpt lat="42.7609" lon="1.58967">
        <ele>1485.896</ele>
        <time>2022-02-20T09:59:04Z</time>
      </trkpt>
      <trkpt lat="42.7609" lon="1.58967">
        <ele>1485.173</ele>
        <time>2022-02-20T09:59:06Z</time>
      </trkpt>
      <trkpt lat="42.76091" lon="1.58967">
        <ele>1484.517</ele>
        <time>2022-02-20T09:59:08Z</time>
      </trkpt>
      <trkpt lat="42.76091" lon="1.58967">
        <ele>1484.308</ele>
        <time>2022-02-20T09:59:10Z</time>
      </trkpt>
      <trkpt lat="42.76092" lon="1.58967">
        <ele>1484.445</ele>
        <time>2022-02-20T09:59:12Z</time>
      </trkpt>
      <trkpt lat="42.76093" lon="1.58967">
        <ele>1485.444</ele>
        <time>2022-02-20T09:59:14Z</time>
      </trkpt>
      <trkpt lat="42.76094" lon="1.58968">
        <ele>1485.379</ele>
        <time>2022-02-20T09:59:16Z</time>
      </trkpt>
      <trkpt lat="42.76095" lon="1.58969">
        <ele>1485.726</ele>
        <time>2022-02-20T09:59:18Z</time>
      </trkpt>
      <trkpt lat="42.76094" lon="1.58969">
        <ele>1484.679</ele>
        <time>2022-02-20T09:59:20Z</time>
      </trkpt>
      <trkpt lat="42.76094" lon="1.58969">
        <ele>1484.677</ele>
        <time>2022-02-20T09:59:22Z</time>
      </trkpt>
      <trkpt lat="42.76094" lon="1.58969">
        <ele>1484.675</ele>
        <time>2022-02-20T09:59:24Z</time>
      </trkpt>
      <trkpt lat="42.76094" lon="1.58969">
        <ele>1484.746</ele>
        <time>2022-02-20T09:59:26Z</time>
      </trkpt>
      <trkpt lat="42.76095" lon="1.5897">
        <ele>1485.229</ele>
        <time>2022-02-20T09:59:28Z</time>
      </trkpt>
      <trkpt lat="42.76096" lon="1.58971">
        <ele>1484.962</ele>
        <time>2022-02-20T09:59:30Z</time>
      </trkpt>
      <trkpt lat="42.76095" lon="1.58972">
        <ele>1485.037</ele>
        <time>2022-02-20T09:59:32Z</time>
      </trkpt>
      <trkpt lat="42.76094" lon="1.58973">
        <ele>1484.989</ele>
        <time>2022-02-20T09:59:34Z</time>
      </trkpt>
      <trkpt lat="42.76094" lon="1.58973">
        <ele>1485.113</ele>
        <time>2022-02-20T09:59:36Z</time>
      </trkpt>
      <trkpt lat="42.76093" lon="1.58974">
        <ele>1485.13</ele>
        <time>2022-02-20T09:59:38Z</time>
      </trkpt>
      <trkpt lat="42.76093" lon="1.58974">
        <ele>1485.651</ele>
        <time>2022-02-20T09:59:40Z</time>
      </trkpt>
      <trkpt lat="42.76093" lon="1.58974">
        <ele>1485.646</ele>
        <time>2022-02-20T09:59:42Z</time>
      </trkpt>
      <trkpt lat="42.76093" lon="1.58974">
        <ele>1485.643</ele>
        <time>2022-02-20T09:59:44Z</time>
      </trkpt>
      <trkpt lat="42.76093" lon="1.58974">
        <ele>1485.636</ele>
        <time>2022-02-20T09:59:46Z</time>
      </trkpt>
      <trkpt lat="42.76093" lon="1.58974">
        <ele>1485.629</ele>
        <time>2022-02-20T09:59:48Z</time>
      </trkpt>
      <trkpt lat="42.76093" lon="1.58974">
        <ele>1485.634</ele>
        <time>2022-02-20T09:59:50Z</time>
      </trkpt>
      <trkpt lat="42.76093" lon="1.58974">
        <ele>1485.637</ele>
        <time>2022-02-20T09:59:52Z</time>
      </trkpt>
      <trkpt lat="42.76093" lon="1.58974">
        <ele>1485.647</ele>
        <time>2022-02-20T09:59:54Z</time>
      </trkpt>
      <trkpt lat="42.76093" lon="1.58974">
        <ele>1485.654</ele>
        <time>2022-02-20T09:59:56Z</time>
      </trkpt>
      <trkpt lat="42.76093" lon="1.58974">
        <ele>1485.662</ele>
        <time>2022-02-20T09:59:58Z</time>
      </trkpt>
      <trkpt lat="42.76093" lon="1.58974">
        <ele>1486.085</ele>
        <time>2022-02-20T10:00:00Z</time>
      </trkpt>
      <trkpt lat="42.76093" lon="1.58975">
        <ele>1486.546</ele>
        <time>2022-02-20T10:00:02Z</time>
      </trkpt>
      <trkpt lat="42.76092" lon="1.58975">
        <ele>1486.664</ele>
        <time>2022-02-20T10:00:04Z</time>
      </trkpt>
      <trkpt lat="42.76092" lon="1.58975">
        <ele>1486.665</ele>
        <time>2022-02-20T10:00:06Z</time>
      </trkpt>
      <trkpt lat="42.76092" lon="1.58975">
        <ele>1486.67</ele>
        <time>2022-02-20T10:00:08Z</time>
      </trkpt>
      <trkpt lat="42.76092" lon="1.58975">
        <ele>1486.677</ele>
        <time>2022-02-20T10:00:10Z</time>
      </trkpt>
      <trkpt lat="42.76092" lon="1.58975">
        <ele>1486.568</ele>
        <time>2022-02-20T10:00:12Z</time>
      </trkpt>
      <trkpt lat="42.76092" lon="1.58976">
        <ele>1487.03</ele>
        <time>2022-02-20T10:00:14Z</time>
      </trkpt>
      <trkpt lat="42.76093" lon="1.58978">
        <ele>1486.881</ele>
        <time>2022-02-20T10:00:16Z</time>
      </trkpt>
      <trkpt lat="42.76093" lon="1.58979">
        <ele>1486.534</ele>
        <time>2022-02-20T10:00:18Z</time>
      </trkpt>
      <trkpt lat="42.76093" lon="1.58979">
        <ele>1487.69</ele>
        <time>2022-02-20T10:00:20Z</time>
      </trkpt>
      <trkpt lat="42.76093" lon="1.58979">
        <ele>1487.71</ele>
        <time>2022-02-20T10:00:22Z</time>
      </trkpt>
      <trkpt lat="42.76093" lon="1.58979">
        <ele>1487.722</ele>
        <time>2022-02-20T10:00:24Z</time>
      </trkpt>
      <trkpt lat="42.76093" lon="1.58979">
        <ele>1487.738</ele>
        <time>2022-02-20T10:00:26Z</time>
      </trkpt>
      <trkpt lat="42.76093" lon="1.5898">
        <ele>1488.179</ele>
        <time>2022-02-20T10:00:28Z</time>
      </trkpt>
      <trkpt lat="42.76094" lon="1.5898">
        <ele>1488.811</ele>
        <time>2022-02-20T10:00:30Z</time>
      </trkpt>
      <trkpt lat="42.76095" lon="1.58981">
        <ele>1489.575</ele>
        <time>2022-02-20T10:00:32Z</time>
      </trkpt>
      <trkpt lat="42.76095" lon="1.58982">
        <ele>1489.933</ele>
        <time>2022-02-20T10:00:34Z</time>
      </trkpt>
      <trkpt lat="42.76095" lon="1.58982">
        <ele>1489.938</ele>
        <time>2022-02-20T10:00:36Z</time>
      </trkpt>
      <trkpt lat="42.76095" lon="1.58982">
        <ele>1489.94</ele>
        <time>2022-02-20T10:00:38Z</time>
      </trkpt>
      <trkpt lat="42.76095" lon="1.58982">
        <ele>1489.941</ele>
        <time>2022-02-20T10:00:40Z</time>
      </trkpt>
      <trkpt lat="42.76095" lon="1.58982">
        <ele>1488.791</ele>
        <time>2022-02-20T10:00:42Z</time>
      </trkpt>
      <trkpt lat="42.76094" lon="1.58983">
        <ele>1488.686</ele>
        <time>2022-02-20T10:00:44Z</time>
      </trkpt>
      <trkpt lat="42.76094" lon="1.58984">
        <ele>1488.181</ele>
        <time>2022-02-20T10:00:46Z</time>
      </trkpt>
      <trkpt lat="42.76093" lon="1.58984">
        <ele>1488.031</ele>
        <time>2022-02-20T10:00:48Z</time>
      </trkpt>
      <trkpt lat="42.76093" lon="1.58985">
        <ele>1488.804</ele>
        <time>2022-02-20T10:00:50Z</time>
      </trkpt>
      <trkpt lat="42.76093" lon="1.58985">
        <ele>1488.805</ele>
        <time>2022-02-20T10:00:52Z</time>
      </trkpt>
      <trkpt lat="42.76093" lon="1.58985">
        <ele>1488.804</ele>
        <time>2022-02-20T10:00:54Z</time>
      </trkpt>
      <trkpt lat="42.76093" lon="1.58985">
        <ele>1488.582</ele>
        <time>2022-02-20T10:00:56Z</time>
      </trkpt>
      <trkpt lat="42.76093" lon="1.58985">
        <ele>1488.632</ele>
        <time>2022-02-20T10:00:58Z</time>
      </trkpt>
      <trkpt lat="42.76093" lon="1.58986">
        <ele>1489.421</ele>
        <time>2022-02-20T10:01:00Z</time>
      </trkpt>
      <trkpt lat="42.76093" lon="1.58986">
        <ele>1489.418</ele>
        <time>2022-02-20T10:01:02Z</time>
      </trkpt>
      <trkpt lat="42.76093" lon="1.58986">
        <ele>1489.42</ele>
        <time>2022-02-20T10:01:04Z</time>
      </trkpt>
      <trkpt lat="42.76093" lon="1.58986">
        <ele>1489.417</ele>
        <time>2022-02-20T10:01:06Z</time>
      </trkpt>
      <trkpt lat="42.76093" lon="1.58986">
        <ele>1489.416</ele>
        <time>2022-02-20T10:01:08Z</time>
      </trkpt>
      <trkpt lat="42.76094" lon="1.58985">
        <ele>1491.113</ele>
        <time>2022-02-20T10:01:10Z</time>
      </trkpt>
      <trkpt lat="42.76094" lon="1.58985">
        <ele>1491.071</ele>
        <time>2022-02-20T10:01:12Z</time>
      </trkpt>
      <trkpt lat="42.76093" lon="1.58985">
        <ele>1491.073</ele>
        <time>2022-02-20T10:01:14Z</time>
      </trkpt>
      <trkpt lat="42.76093" lon="1.58985">
        <ele>1491.698</ele>
        <time>2022-02-20T10:01:16Z</time>
      </trkpt>
      <trkpt lat="42.76093" lon="1.58985">
        <ele>1491.698</ele>
        <time>2022-02-20T10:01:18Z</time>
      </trkpt>
      <trkpt lat="42.76093" lon="1.58985">
        <ele>1491.699</ele>
        <time>2022-02-20T10:01:20Z</time>
      </trkpt>
      <trkpt lat="42.76093" lon="1.58985">
        <ele>1491.703</ele>
        <time>2022-02-20T10:01:22Z</time>
      </trkpt>
      <trkpt lat="42.76093" lon="1.58985">
        <ele>1491.706</ele>
        <time>2022-02-20T10:01:24Z</time>
      </trkpt>
      <trkpt lat="42.76093" lon="1.58985">
        <ele>1491.708</ele>
        <time>2022-02-20T10:01:26Z</time>
      </trkpt>
      <trkpt lat="42.76093" lon="1.58985">
        <ele>1491.709</ele>
        <time>2022-02-20T10:01:28Z</time>
      </trkpt>
      <trkpt lat="42.76093" lon="1.58986">
        <ele>1491.268</ele>
        <time>2022-02-20T10:01:30Z</time>
      </trkpt>
      <trkpt lat="42.76092" lon="1.58987">
        <ele>1491.755</ele>
        <time>2022-02-20T10:01:32Z</time>
      </trkpt>
      <trkpt lat="42.76092" lon="1.58989">
        <ele>1492.68</ele>
        <time>2022-02-20T10:01:34Z</time>
      </trkpt>
      <trkpt lat="42.76091" lon="1.5899">
        <ele>1492.562</ele>
        <time>2022-02-20T10:01:36Z</time>
      </trkpt>
      <trkpt lat="42.76092" lon="1.58991">
        <ele>1493.511</ele>
        <time>2022-02-20T10:01:38Z</time>
      </trkpt>
      <trkpt lat="42.76091" lon="1.58992">
        <ele>1493.548</ele>
        <time>2022-02-20T10:01:40Z</time>
      </trkpt>
      <trkpt lat="42.76091" lon="1.58993">
        <ele>1495.519</ele>
        <time>2022-02-20T10:01:42Z</time>
      </trkpt>
      <trkpt lat="42.76091" lon="1.58994">
        <ele>1495.073</ele>
        <time>2022-02-20T10:01:44Z</time>
      </trkpt>
      <trkpt lat="42.7609" lon="1.58995">
        <ele>1495.949</ele>
        <time>2022-02-20T10:01:46Z</time>
      </trkpt>
      <trkpt lat="42.7609" lon="1.58995">
        <ele>1496.44</ele>
        <time>2022-02-20T10:01:48Z</time>
      </trkpt>
      <trkpt lat="42.7609" lon="1.58996">
        <ele>1497.516</ele>
        <time>2022-02-20T10:01:50Z</time>
      </trkpt>
      <trkpt lat="42.76091" lon="1.58997">
        <ele>1498.189</ele>
        <time>2022-02-20T10:01:52Z</time>
      </trkpt>
      <trkpt lat="42.7609" lon="1.58998">
        <ele>1498.581</ele>
        <time>2022-02-20T10:01:54Z</time>
      </trkpt>
      <trkpt lat="42.76089" lon="1.58999">
        <ele>1498.929</ele>
        <time>2022-02-20T10:01:56Z</time>
      </trkpt>
      <trkpt lat="42.76089" lon="1.59">
        <ele>1498.925</ele>
        <time>2022-02-20T10:01:58Z</time>
      </trkpt>
      <trkpt lat="42.76088" lon="1.59001">
        <ele>1499.195</ele>
        <time>2022-02-20T10:02:00Z</time>
      </trkpt>
      <trkpt lat="42.76088" lon="1.59002">
        <ele>1497.962</ele>
        <time>2022-02-20T10:02:02Z</time>
      </trkpt>
      <trkpt lat="42.76087" lon="1.59003">
        <ele>1498.205</ele>
        <time>2022-02-20T10:02:04Z</time>
      </trkpt>
      <trkpt lat="42.76087" lon="1.59004">
        <ele>1497.729</ele>
        <time>2022-02-20T10:02:06Z</time>
      </trkpt>
      <trkpt lat="42.76087" lon="1.59005">
        <ele>1498.059</ele>
        <time>2022-02-20T10:02:08Z</time>
      </trkpt>
      <trkpt lat="42.76087" lon="1.59005">
        <ele>1498.327</ele>
        <time>2022-02-20T10:02:10Z</time>
      </trkpt>
      <trkpt lat="42.76087" lon="1.59005">
        <ele>1498.334</ele>
        <time>2022-02-20T10:02:12Z</time>
      </trkpt>
      <trkpt lat="42.76087" lon="1.59005">
        <ele>1498.343</ele>
        <time>2022-02-20T10:02:14Z</time>
      </trkpt>
      <trkpt lat="42.76087" lon="1.59005">
        <ele>1498.358</ele>
        <time>2022-02-20T10:02:16Z</time>
      </trkpt>
      <trkpt lat="42.76087" lon="1.59005">
        <ele>1498.355</ele>
        <time>2022-02-20T10:02:18Z</time>
      </trkpt>
      <trkpt lat="42.76087" lon="1.59005">
        <ele>1498.359</ele>
        <time>2022-02-20T10:02:20Z</time>
      </trkpt>
      <trkpt lat="42.76087" lon="1.59005">
        <ele>1498.353</ele>
        <time>2022-02-20T10:02:22Z</time>
      </trkpt>
      <trkpt lat="42.76087" lon="1.59005">
        <ele>1498.358</ele>
        <time>2022-02-20T10:02:24Z</time>
      </trkpt>
      <trkpt lat="42.76087" lon="1.59005">
        <ele>1498.361</ele>
        <time>2022-02-20T10:02:26Z</time>
      </trkpt>
      <trkpt lat="42.76087" lon="1.59005">
        <ele>1498.365</ele>
        <time>2022-02-20T10:02:28Z</time>
      </trkpt>
      <trkpt lat="42.76087" lon="1.59005">
        <ele>1498.365</ele>
        <time>2022-02-20T10:02:30Z</time>
      </trkpt>
      <trkpt lat="42.76087" lon="1.59005">
        <ele>1498.365</ele>
        <time>2022-02-20T10:02:32Z</time>
      </trkpt>
      <trkpt lat="42.76087" lon="1.59006">
        <ele>1498.314</ele>
        <time>2022-02-20T10:02:34Z</time>
      </trkpt>
      <trkpt lat="42.76087" lon="1.59006">
        <ele>1498.344</ele>
        <time>2022-02-20T10:02:36Z</time>
      </trkpt>
      <trkpt lat="42.76087" lon="1.59006">
        <ele>1498.352</ele>
        <time>2022-02-20T10:02:38Z</time>
      </trkpt>
      <trkpt lat="42.76087" lon="1.59006">
        <ele>1498.906</ele>
        <time>2022-02-20T10:02:40Z</time>
      </trkpt>
      <trkpt lat="42.76087" lon="1.59006">
        <ele>1499.029</ele>
        <time>2022-02-20T10:02:42Z</time>
      </trkpt>
      <trkpt lat="42.76087" lon="1.59006">
        <ele>1498.117</ele>
        <time>2022-02-20T10:02:44Z</time>
      </trkpt>
      <trkpt lat="42.76087" lon="1.59006">
        <ele>1498.039</ele>
        <time>2022-02-20T10:02:46Z</time>
      </trkpt>
      <trkpt lat="42.76087" lon="1.59006">
        <ele>1498.3</ele>
        <time>2022-02-20T10:02:48Z</time>
      </trkpt>
      <trkpt lat="42.76087" lon="1.59006">
        <ele>1498.285</ele>
        <time>2022-02-20T10:02:50Z</time>
      </trkpt>
      <trkpt lat="42.76087" lon="1.59006">
        <ele>1498.291</ele>
        <time>2022-02-20T10:02:52Z</time>
      </trkpt>
      <trkpt lat="42.76087" lon="1.59006">
        <ele>1498.605</ele>
        <time>2022-02-20T10:02:54Z</time>
      </trkpt>
      <trkpt lat="42.76087" lon="1.59007">
        <ele>1498.909</ele>
        <time>2022-02-20T10:02:56Z</time>
      </trkpt>
      <trkpt lat="42.76086" lon="1.59007">
        <ele>1499.106</ele>
        <time>2022-02-20T10:02:58Z</time>
      </trkpt>
      <trkpt lat="42.76086" lon="1.59008">
        <ele>1500.581</ele>
        <time>2022-02-20T10:03:00Z</time>
      </trkpt>
      <trkpt lat="42.76086" lon="1.59009">
        <ele>1500.681</ele>
        <time>2022-02-20T10:03:02Z</time>
      </trkpt>
      <trkpt lat="42.76087" lon="1.5901">
        <ele>1501.073</ele>
        <time>2022-02-20T10:03:04Z</time>
      </trkpt>
      <trkpt lat="42.76086" lon="1.59011">
        <ele>1500.974</ele>
        <time>2022-02-20T10:03:06Z</time>
      </trkpt>
      <trkpt lat="42.76085" lon="1.59013">
        <ele>1501.945</ele>
        <time>2022-02-20T10:03:08Z</time>
      </trkpt>
      <trkpt lat="42.76085" lon="1.59014">
        <ele>1501.918</ele>
        <time>2022-02-20T10:03:10Z</time>
      </trkpt>
      <trkpt lat="42.76085" lon="1.59015">
        <ele>1502.335</ele>
        <time>2022-02-20T10:03:12Z</time>
      </trkpt>
      <trkpt lat="42.76085" lon="1.59016">
        <ele>1503.088</ele>
        <time>2022-02-20T10:03:14Z</time>
      </trkpt>
      <trkpt lat="42.76085" lon="1.59017">
        <ele>1502.747</ele>
        <time>2022-02-20T10:03:16Z</time>
      </trkpt>
      <trkpt lat="42.76085" lon="1.59018">
        <ele>1504.586</ele>
        <time>2022-02-20T10:03:18Z</time>
      </trkpt>
      <trkpt lat="42.76085" lon="1.5902">
        <ele>1505.716</ele>
        <time>2022-02-20T10:03:20Z</time>
      </trkpt>
      <trkpt lat="42.76085" lon="1.5902">
        <ele>1504.684</ele>
        <time>2022-02-20T10:03:22Z</time>
      </trkpt>
      <trkpt lat="42.76085" lon="1.59021">
        <ele>1504.315</ele>
        <time>2022-02-20T10:03:24Z</time>
      </trkpt>
      <trkpt lat="42.76085" lon="1.59021">
        <ele>1503.999</ele>
        <time>2022-02-20T10:03:26Z</time>
      </trkpt>
      <trkpt lat="42.76084" lon="1.59021">
        <ele>1503.498</ele>
        <time>2022-02-20T10:03:28Z</time>
      </trkpt>
      <trkpt lat="42.76084" lon="1.59021">
        <ele>1502.802</ele>
        <time>2022-02-20T10:03:30Z</time>
      </trkpt>
      <trkpt lat="42.76082" lon="1.59022">
        <ele>1502.337</ele>
        <time>2022-02-20T10:03:32Z</time>
      </trkpt>
      <trkpt lat="42.76082" lon="1.59021">
        <ele>1501.658</ele>
        <time>2022-02-20T10:03:34Z</time>
      </trkpt>
      <trkpt lat="42.76082" lon="1.59021">
        <ele>1501.654</ele>
        <time>2022-02-20T10:03:36Z</time>
      </trkpt>
      <trkpt lat="42.76081" lon="1.59022">
        <ele>1501.758</ele>
        <time>2022-02-20T10:03:38Z</time>
      </trkpt>
      <trkpt lat="42.76081" lon="1.59022">
        <ele>1501.758</ele>
        <time>2022-02-20T10:03:40Z</time>
      </trkpt>
      <trkpt lat="42.76081" lon="1.59022">
        <ele>1501.753</ele>
        <time>2022-02-20T10:03:42Z</time>
      </trkpt>
      <trkpt lat="42.76081" lon="1.59022">
        <ele>1501.746</ele>
        <time>2022-02-20T10:03:44Z</time>
      </trkpt>
      <trkpt lat="42.76081" lon="1.59023">
        <ele>1501.618</ele>
        <time>2022-02-20T10:03:46Z</time>
      </trkpt>
      <trkpt lat="42.76081" lon="1.59023">
        <ele>1501.428</ele>
        <time>2022-02-20T10:03:48Z</time>
      </trkpt>
      <trkpt lat="42.76081" lon="1.59024">
        <ele>1501.977</ele>
        <time>2022-02-20T10:03:50Z</time>
      </trkpt>
      <trkpt lat="42.76081" lon="1.59025">
        <ele>1502.349</ele>
        <time>2022-02-20T10:03:52Z</time>
      </trkpt>
      <trkpt lat="42.7608" lon="1.59026">
        <ele>1502.796</ele>
        <time>2022-02-20T10:03:54Z</time>
      </trkpt>
      <trkpt lat="42.7608" lon="1.59026">
        <ele>1501.863</ele>
        <time>2022-02-20T10:03:56Z</time>
      </trkpt>
      <trkpt lat="42.7608" lon="1.59027">
        <ele>1503.746</ele>
        <time>2022-02-20T10:03:58Z</time>
      </trkpt>
      <trkpt lat="42.7608" lon="1.59027">
        <ele>1503.621</ele>
        <time>2022-02-20T10:04:00Z</time>
      </trkpt>
      <trkpt lat="42.7608" lon="1.59027">
        <ele>1503.608</ele>
        <time>2022-02-20T10:04:02Z</time>
      </trkpt>
      <trkpt lat="42.7608" lon="1.59027">
        <ele>1503.608</ele>
        <time>2022-02-20T10:04:04Z</time>
      </trkpt>
      <trkpt lat="42.7608" lon="1.59027">
        <ele>1503.661</ele>
        <time>2022-02-20T10:04:06Z</time>
      </trkpt>
      <trkpt lat="42.7608" lon="1.59027">
        <ele>1503.741</ele>
        <time>2022-02-20T10:04:08Z</time>
      </trkpt>
      <trkpt lat="42.7608" lon="1.59027">
        <ele>1503.552</ele>
        <time>2022-02-20T10:04:10Z</time>
      </trkpt>
      <trkpt lat="42.76079" lon="1.59027">
        <ele>1503.599</ele>
        <time>2022-02-20T10:04:12Z</time>
      </trkpt>
      <trkpt lat="42.76078" lon="1.59027">
        <ele>1504.08</ele>
        <time>2022-02-20T10:04:14Z</time>
      </trkpt>
      <trkpt lat="42.76078" lon="1.59027">
        <ele>1502.975</ele>
        <time>2022-02-20T10:04:16Z</time>
      </trkpt>
      <trkpt lat="42.76078" lon="1.59028">
        <ele>1502.778</ele>
        <time>2022-02-20T10:04:18Z</time>
      </trkpt>
      <trkpt lat="42.76077" lon="1.59028">
        <ele>1503.427</ele>
        <time>2022-02-20T10:04:20Z</time>
      </trkpt>
      <trkpt lat="42.76076" lon="1.59029">
        <ele>1503.519</ele>
        <time>2022-02-20T10:04:22Z</time>
      </trkpt>
      <trkpt lat="42.76076" lon="1.59029">
        <ele>1504.24</ele>
        <time>2022-02-20T10:04:24Z</time>
      </trkpt>
      <trkpt lat="42.76075" lon="1.5903">
        <ele>1504.449</ele>
        <time>2022-02-20T10:04:26Z</time>
      </trkpt>
      <trkpt lat="42.76074" lon="1.5903">
        <ele>1503.433</ele>
        <time>2022-02-20T10:04:28Z</time>
      </trkpt>
      <trkpt lat="42.76073" lon="1.5903">
        <ele>1504.26</ele>
        <time>2022-02-20T10:04:30Z</time>
      </trkpt>
      <trkpt lat="42.76072" lon="1.5903">
        <ele>1505.625</ele>
        <time>2022-02-20T10:04:32Z</time>
      </trkpt>
      <trkpt lat="42.76073" lon="1.59029">
        <ele>1505.294</ele>
        <time>2022-02-20T10:04:34Z</time>
      </trkpt>
      <trkpt lat="42.76073" lon="1.59029">
        <ele>1505.303</ele>
        <time>2022-02-20T10:04:36Z</time>
      </trkpt>
      <trkpt lat="42.76073" lon="1.5903">
        <ele>1506.16</ele>
        <time>2022-02-20T10:04:38Z</time>
      </trkpt>
      <trkpt lat="42.76072" lon="1.5903">
        <ele>1506.253</ele>
        <time>2022-02-20T10:04:40Z</time>
      </trkpt>
      <trkpt lat="42.76071" lon="1.5903">
        <ele>1506.363</ele>
        <time>2022-02-20T10:04:42Z</time>
      </trkpt>
      <trkpt lat="42.76071" lon="1.59031">
        <ele>1506.891</ele>
        <time>2022-02-20T10:04:44Z</time>
      </trkpt>
      <trkpt lat="42.76071" lon="1.59032">
        <ele>1506.615</ele>
        <time>2022-02-20T10:04:46Z</time>
      </trkpt>
      <trkpt lat="42.76071" lon="1.59033">
        <ele>1507.619</ele>
        <time>2022-02-20T10:04:48Z</time>
      </trkpt>
      <trkpt lat="42.7607" lon="1.59033">
        <ele>1507.704</ele>
        <time>2022-02-20T10:04:50Z</time>
      </trkpt>
      <trkpt lat="42.76069" lon="1.59033">
        <ele>1507.458</ele>
        <time>2022-02-20T10:04:52Z</time>
      </trkpt>
      <trkpt lat="42.76068" lon="1.59033">
        <ele>1507.321</ele>
        <time>2022-02-20T10:04:54Z</time>
      </trkpt>
      <trkpt lat="42.76069" lon="1.59033">
        <ele>1507.808</ele>
        <time>2022-02-20T10:04:56Z</time>
      </trkpt>
      <trkpt lat="42.76069" lon="1.59034">
        <ele>1508.126</ele>
        <time>2022-02-20T10:04:58Z</time>
      </trkpt>
      <trkpt lat="42.76069" lon="1.59035">
        <ele>1508.564</ele>
        <time>2022-02-20T10:05:00Z</time>
      </trkpt>
      <trkpt lat="42.76068" lon="1.59035">
        <ele>1510.075</ele>
        <time>2022-02-20T10:05:02Z</time>
      </trkpt>
      <trkpt lat="42.76068" lon="1.59036">
        <ele>1510.526</ele>
        <time>2022-02-20T10:05:04Z</time>
      </trkpt>
      <trkpt lat="42.76068" lon="1.59036">
        <ele>1509.985</ele>
        <time>2022-02-20T10:05:06Z</time>
      </trkpt>
      <trkpt lat="42.76068" lon="1.59036">
        <ele>1509.972</ele>
        <time>2022-02-20T10:05:08Z</time>
      </trkpt>
      <trkpt lat="42.76068" lon="1.59036">
        <ele>1509.975</ele>
        <time>2022-02-20T10:05:10Z</time>
      </trkpt>
      <trkpt lat="42.76068" lon="1.59037">
        <ele>1510.096</ele>
        <time>2022-02-20T10:05:12Z</time>
      </trkpt>
      <trkpt lat="42.76067" lon="1.59038">
        <ele>1511.08</ele>
        <time>2022-02-20T10:05:14Z</time>
      </trkpt>
      <trkpt lat="42.76067" lon="1.59039">
        <ele>1511.502</ele>
        <time>2022-02-20T10:05:16Z</time>
      </trkpt>
      <trkpt lat="42.76068" lon="1.5904">
        <ele>1512.211</ele>
        <time>2022-02-20T10:05:18Z</time>
      </trkpt>
      <trkpt lat="42.76068" lon="1.59041">
        <ele>1512.638</ele>
        <time>2022-02-20T10:05:20Z</time>
      </trkpt>
      <trkpt lat="42.76067" lon="1.59043">
        <ele>1512.914</ele>
        <time>2022-02-20T10:05:22Z</time>
      </trkpt>
      <trkpt lat="42.76068" lon="1.59043">
        <ele>1512.798</ele>
        <time>2022-02-20T10:05:24Z</time>
      </trkpt>
      <trkpt lat="42.76068" lon="1.59043">
        <ele>1512.717</ele>
        <time>2022-02-20T10:05:26Z</time>
      </trkpt>
      <trkpt lat="42.76068" lon="1.59043">
        <ele>1512.724</ele>
        <time>2022-02-20T10:05:28Z</time>
      </trkpt>
      <trkpt lat="42.76068" lon="1.59043">
        <ele>1512.733</ele>
        <time>2022-02-20T10:05:30Z</time>
      </trkpt>
      <trkpt lat="42.76068" lon="1.59043">
        <ele>1512.732</ele>
        <time>2022-02-20T10:05:32Z</time>
      </trkpt>
      <trkpt lat="42.76068" lon="1.59043">
        <ele>1512.738</ele>
        <time>2022-02-20T10:05:34Z</time>
      </trkpt>
      <trkpt lat="42.76068" lon="1.59043">
        <ele>1512.745</ele>
        <time>2022-02-20T10:05:36Z</time>
      </trkpt>
      <trkpt lat="42.76068" lon="1.59044">
        <ele>1513.786</ele>
        <time>2022-02-20T10:05:38Z</time>
      </trkpt>
      <trkpt lat="42.76068" lon="1.59044">
        <ele>1514.095</ele>
        <time>2022-02-20T10:05:40Z</time>
      </trkpt>
      <trkpt lat="42.76068" lon="1.59044">
        <ele>1514.062</ele>
        <time>2022-02-20T10:05:42Z</time>
      </trkpt>
      <trkpt lat="42.76069" lon="1.59045">
        <ele>1514.312</ele>
        <time>2022-02-20T10:05:44Z</time>
      </trkpt>
      <trkpt lat="42.76069" lon="1.59046">
        <ele>1514.611</ele>
        <time>2022-02-20T10:05:46Z</time>
      </trkpt>
      <trkpt lat="42.76069" lon="1.59048">
        <ele>1516.003</ele>
        <time>2022-02-20T10:05:48Z</time>
      </trkpt>
      <trkpt lat="42.76069" lon="1.59049">
        <ele>1517.269</ele>
        <time>2022-02-20T10:05:50Z</time>
      </trkpt>
      <trkpt lat="42.76069" lon="1.59049">
        <ele>1517.404</ele>
        <time>2022-02-20T10:05:52Z</time>
      </trkpt>
      <trkpt lat="42.76068" lon="1.59051">
        <ele>1517.011</ele>
        <time>2022-02-20T10:05:54Z</time>
      </trkpt>
      <trkpt lat="42.76068" lon="1.59052">
        <ele>1516.558</ele>
        <time>2022-02-20T10:05:56Z</time>
      </trkpt>
      <trkpt lat="42.76067" lon="1.59053">
        <ele>1516.583</ele>
        <time>2022-02-20T10:05:58Z</time>
      </trkpt>
      <trkpt lat="42.76066" lon="1.59053">
        <ele>1516.513</ele>
        <time>2022-02-20T10:06:00Z</time>
      </trkpt>
      <trkpt lat="42.76065" lon="1.59053">
        <ele>1516.335</ele>
        <time>2022-02-20T10:06:02Z</time>
      </trkpt>
      <trkpt lat="42.76065" lon="1.59054">
        <ele>1516.493</ele>
        <time>2022-02-20T10:06:04Z</time>
      </trkpt>
      <trkpt lat="42.76064" lon="1.59055">
        <ele>1517.398</ele>
        <time>2022-02-20T10:06:06Z</time>
      </trkpt>
      <trkpt lat="42.76064" lon="1.59055">
        <ele>1517.006</ele>
        <time>2022-02-20T10:06:08Z</time>
      </trkpt>
      <trkpt lat="42.76063" lon="1.59057">
        <ele>1517.253</ele>
        <time>2022-02-20T10:06:10Z</time>
      </trkpt>
      <trkpt lat="42.76062" lon="1.59058">
        <ele>1517.651</ele>
        <time>2022-02-20T10:06:12Z</time>
      </trkpt>
      <trkpt lat="42.76062" lon="1.59059">
        <ele>1518.134</ele>
        <time>2022-02-20T10:06:14Z</time>
      </trkpt>
      <trkpt lat="42.76062" lon="1.5906">
        <ele>1519.059</ele>
        <time>2022-02-20T10:06:16Z</time>
      </trkpt>
      <trkpt lat="42.76062" lon="1.59061">
        <ele>1518.999</ele>
        <time>2022-02-20T10:06:18Z</time>
      </trkpt>
      <trkpt lat="42.76061" lon="1.59062">
        <ele>1519.881</ele>
        <time>2022-02-20T10:06:20Z</time>
      </trkpt>
      <trkpt lat="42.76061" lon="1.59063">
        <ele>1520.262</ele>
        <time>2022-02-20T10:06:22Z</time>
      </trkpt>
      <trkpt lat="42.7606" lon="1.59063">
        <ele>1520.423</ele>
        <time>2022-02-20T10:06:24Z</time>
      </trkpt>
      <trkpt lat="42.7606" lon="1.59063">
        <ele>1520.787</ele>
        <time>2022-02-20T10:06:26Z</time>
      </trkpt>
      <trkpt lat="42.7606" lon="1.59063">
        <ele>1520.936</ele>
        <time>2022-02-20T10:06:28Z</time>
      </trkpt>
      <trkpt lat="42.7606" lon="1.59064">
        <ele>1520.854</ele>
        <time>2022-02-20T10:06:30Z</time>
      </trkpt>
      <trkpt lat="42.7606" lon="1.59064">
        <ele>1520.853</ele>
        <time>2022-02-20T10:06:32Z</time>
      </trkpt>
      <trkpt lat="42.7606" lon="1.59064">
        <ele>1521.097</ele>
        <time>2022-02-20T10:06:34Z</time>
      </trkpt>
      <trkpt lat="42.76059" lon="1.59065">
        <ele>1520.726</ele>
        <time>2022-02-20T10:06:36Z</time>
      </trkpt>
      <trkpt lat="42.76059" lon="1.59066">
        <ele>1521.641</ele>
        <time>2022-02-20T10:06:38Z</time>
      </trkpt>
      <trkpt lat="42.76059" lon="1.59068">
        <ele>1521.229</ele>
        <time>2022-02-20T10:06:40Z</time>
      </trkpt>
      <trkpt lat="42.76059" lon="1.59069">
        <ele>1521.564</ele>
        <time>2022-02-20T10:06:42Z</time>
      </trkpt>
      <trkpt lat="42.76059" lon="1.5907">
        <ele>1522.624</ele>
        <time>2022-02-20T10:06:44Z</time>
      </trkpt>
      <trkpt lat="42.7606" lon="1.59072">
        <ele>1523.828</ele>
        <time>2022-02-20T10:06:46Z</time>
      </trkpt>
      <trkpt lat="42.76059" lon="1.59073">
        <ele>1524.587</ele>
        <time>2022-02-20T10:06:48Z</time>
      </trkpt>
      <trkpt lat="42.76059" lon="1.59073">
        <ele>1524.895</ele>
        <time>2022-02-20T10:06:50Z</time>
      </trkpt>
      <trkpt lat="42.76059" lon="1.59073">
        <ele>1524.913</ele>
        <time>2022-02-20T10:06:52Z</time>
      </trkpt>
      <trkpt lat="42.76059" lon="1.59073">
        <ele>1524.911</ele>
        <time>2022-02-20T10:06:54Z</time>
      </trkpt>
      <trkpt lat="42.76059" lon="1.59073">
        <ele>1524.904</ele>
        <time>2022-02-20T10:06:56Z</time>
      </trkpt>
      <trkpt lat="42.76059" lon="1.59073">
        <ele>1524.901</ele>
        <time>2022-02-20T10:06:58Z</time>
      </trkpt>
      <trkpt lat="42.76059" lon="1.59073">
        <ele>1524.9</ele>
        <time>2022-02-20T10:07:00Z</time>
      </trkpt>
      <trkpt lat="42.76059" lon="1.59073">
        <ele>1524.896</ele>
        <time>2022-02-20T10:07:02Z</time>
      </trkpt>
      <trkpt lat="42.76059" lon="1.59073">
        <ele>1525.119</ele>
        <time>2022-02-20T10:07:04Z</time>
      </trkpt>
      <trkpt lat="42.76059" lon="1.59074">
        <ele>1525.336</ele>
        <time>2022-02-20T10:07:06Z</time>
      </trkpt>
      <trkpt lat="42.76059" lon="1.59075">
        <ele>1525.85</ele>
        <time>2022-02-20T10:07:08Z</time>
      </trkpt>
      <trkpt lat="42.76059" lon="1.59075">
        <ele>1524.354</ele>
        <time>2022-02-20T10:07:10Z</time>
      </trkpt>
      <trkpt lat="42.76058" lon="1.59074">
        <ele>1524.348</ele>
        <time>2022-02-20T10:07:12Z</time>
      </trkpt>
      <trkpt lat="42.76058" lon="1.59074">
        <ele>1524.555</ele>
        <time>2022-02-20T10:07:14Z</time>
      </trkpt>
      <trkpt lat="42.76058" lon="1.59074">
        <ele>1524.568</ele>
        <time>2022-02-20T10:07:16Z</time>
      </trkpt>
      <trkpt lat="42.76058" lon="1.59074">
        <ele>1524.573</ele>
        <time>2022-02-20T10:07:18Z</time>
      </trkpt>
      <trkpt lat="42.76058" lon="1.59074">
        <ele>1524.587</ele>
        <time>2022-02-20T10:07:20Z</time>
      </trkpt>
      <trkpt lat="42.76058" lon="1.59074">
        <ele>1524.595</ele>
        <time>2022-02-20T10:07:22Z</time>
      </trkpt>
      <trkpt lat="42.76058" lon="1.59074">
        <ele>1524.316</ele>
        <time>2022-02-20T10:07:24Z</time>
      </trkpt>
      <trkpt lat="42.76057" lon="1.59076">
        <ele>1524.869</ele>
        <time>2022-02-20T10:07:26Z</time>
      </trkpt>
      <trkpt lat="42.76057" lon="1.59076">
        <ele>1524.745</ele>
        <time>2022-02-20T10:07:28Z</time>
      </trkpt>
      <trkpt lat="42.76057" lon="1.59077">
        <ele>1524.518</ele>
        <time>2022-02-20T10:07:30Z</time>
      </trkpt>
      <trkpt lat="42.76057" lon="1.59076">
        <ele>1524.4</ele>
        <time>2022-02-20T10:07:32Z</time>
      </trkpt>
      <trkpt lat="42.76056" lon="1.59077">
        <ele>1524.717</ele>
        <time>2022-02-20T10:07:34Z</time>
      </trkpt>
      <trkpt lat="42.76057" lon="1.59078">
        <ele>1524.16</ele>
        <time>2022-02-20T10:07:36Z</time>
      </trkpt>
      <trkpt lat="42.76057" lon="1.59079">
        <ele>1524.728</ele>
        <time>2022-02-20T10:07:38Z</time>
      </trkpt>
      <trkpt lat="42.76056" lon="1.5908">
        <ele>1525.396</ele>
        <time>2022-02-20T10:07:40Z</time>
      </trkpt>
      <trkpt lat="42.76055" lon="1.59081">
        <ele>1525.901</ele>
        <time>2022-02-20T10:07:42Z</time>
      </trkpt>
      <trkpt lat="42.76054" lon="1.59081">
        <ele>1525.44</ele>
        <time>2022-02-20T10:07:44Z</time>
      </trkpt>
      <trkpt lat="42.76054" lon="1.59082">
        <ele>1526.671</ele>
        <time>2022-02-20T10:07:46Z</time>
      </trkpt>
      <trkpt lat="42.76053" lon="1.59083">
        <ele>1528.026</ele>
        <time>2022-02-20T10:07:48Z</time>
      </trkpt>
      <trkpt lat="42.76052" lon="1.59083">
        <ele>1529.315</ele>
        <time>2022-02-20T10:07:50Z</time>
      </trkpt>
      <trkpt lat="42.76052" lon="1.59083">
        <ele>1529.492</ele>
        <time>2022-02-20T10:07:52Z</time>
      </trkpt>
      <trkpt lat="42.76052" lon="1.59083">
        <ele>1529.5</ele>
        <time>2022-02-20T10:07:54Z</time>
      </trkpt>
      <trkpt lat="42.76052" lon="1.59083">
        <ele>1529.501</ele>
        <time>2022-02-20T10:07:56Z</time>
      </trkpt>
      <trkpt lat="42.76052" lon="1.59083">
        <ele>1529.477</ele>
        <time>2022-02-20T10:07:58Z</time>
      </trkpt>
      <trkpt lat="42.76052" lon="1.59083">
        <ele>1529.53</ele>
        <time>2022-02-20T10:08:00Z</time>
      </trkpt>
      <trkpt lat="42.76052" lon="1.59083">
        <ele>1529.533</ele>
        <time>2022-02-20T10:08:02Z</time>
      </trkpt>
      <trkpt lat="42.76052" lon="1.59083">
        <ele>1529.594</ele>
        <time>2022-02-20T10:08:04Z</time>
      </trkpt>
      <trkpt lat="42.76052" lon="1.59084">
        <ele>1529.24</ele>
        <time>2022-02-20T10:08:06Z</time>
      </trkpt>
      <trkpt lat="42.76052" lon="1.59083">
        <ele>1528.723</ele>
        <time>2022-02-20T10:08:08Z</time>
      </trkpt>
      <trkpt lat="42.76052" lon="1.59084">
        <ele>1529.184</ele>
        <time>2022-02-20T10:08:10Z</time>
      </trkpt>
      <trkpt lat="42.76052" lon="1.59083">
        <ele>1529.214</ele>
        <time>2022-02-20T10:08:12Z</time>
      </trkpt>
      <trkpt lat="42.76052" lon="1.59083">
        <ele>1529.239</ele>
        <time>2022-02-20T10:08:14Z</time>
      </trkpt>
      <trkpt lat="42.76052" lon="1.59083">
        <ele>1529.249</ele>
        <time>2022-02-20T10:08:16Z</time>
      </trkpt>
      <trkpt lat="42.76052" lon="1.59083">
        <ele>1529.146</ele>
        <time>2022-02-20T10:08:18Z</time>
      </trkpt>
      <trkpt lat="42.76052" lon="1.59083">
        <ele>1529.012</ele>
        <time>2022-02-20T10:08:20Z</time>
      </trkpt>
      <trkpt lat="42.76052" lon="1.59083">
        <ele>1529.217</ele>
        <time>2022-02-20T10:08:22Z</time>
      </trkpt>
      <trkpt lat="42.76053" lon="1.59084">
        <ele>1529.918</ele>
        <time>2022-02-20T10:08:24Z</time>
      </trkpt>
      <trkpt lat="42.76053" lon="1.59085">
        <ele>1529.676</ele>
        <time>2022-02-20T10:08:26Z</time>
      </trkpt>
      <trkpt lat="42.76053" lon="1.59087">
        <ele>1530.677</ele>
        <time>2022-02-20T10:08:28Z</time>
      </trkpt>
      <trkpt lat="42.76052" lon="1.59089">
        <ele>1531.432</ele>
        <time>2022-02-20T10:08:30Z</time>
      </trkpt>
      <trkpt lat="42.76052" lon="1.5909">
        <ele>1531.453</ele>
        <time>2022-02-20T10:08:32Z</time>
      </trkpt>
      <trkpt lat="42.76052" lon="1.59091">
        <ele>1532.114</ele>
        <time>2022-02-20T10:08:34Z</time>
      </trkpt>
      <trkpt lat="42.76052" lon="1.59092">
        <ele>1532.249</ele>
        <time>2022-02-20T10:08:36Z</time>
      </trkpt>
      <trkpt lat="42.76052" lon="1.59093">
        <ele>1533.679</ele>
        <time>2022-02-20T10:08:38Z</time>
      </trkpt>
      <trkpt lat="42.76053" lon="1.59094">
        <ele>1534.904</ele>
        <time>2022-02-20T10:08:40Z</time>
      </trkpt>
      <trkpt lat="42.76054" lon="1.59095">
        <ele>1534.581</ele>
        <time>2022-02-20T10:08:42Z</time>
      </trkpt>
      <trkpt lat="42.76054" lon="1.59096">
        <ele>1536.131</ele>
        <time>2022-02-20T10:08:44Z</time>
      </trkpt>
      <trkpt lat="42.76054" lon="1.59097">
        <ele>1536.384</ele>
        <time>2022-02-20T10:08:46Z</time>
      </trkpt>
      <trkpt lat="42.76054" lon="1.59098">
        <ele>1535.797</ele>
        <time>2022-02-20T10:08:48Z</time>
      </trkpt>
      <trkpt lat="42.76054" lon="1.59099">
        <ele>1536.677</ele>
        <time>2022-02-20T10:08:50Z</time>
      </trkpt>
      <trkpt lat="42.76054" lon="1.591">
        <ele>1536.653</ele>
        <time>2022-02-20T10:08:52Z</time>
      </trkpt>
      <trkpt lat="42.76053" lon="1.59102">
        <ele>1536.688</ele>
        <time>2022-02-20T10:08:54Z</time>
      </trkpt>
      <trkpt lat="42.76053" lon="1.59103">
        <ele>1536.515</ele>
        <time>2022-02-20T10:08:56Z</time>
      </trkpt>
      <trkpt lat="42.76053" lon="1.59104">
        <ele>1536.294</ele>
        <time>2022-02-20T10:08:58Z</time>
      </trkpt>
      <trkpt lat="42.76053" lon="1.59105">
        <ele>1536.477</ele>
        <time>2022-02-20T10:09:00Z</time>
      </trkpt>
      <trkpt lat="42.76053" lon="1.59105">
        <ele>1536.67</ele>
        <time>2022-02-20T10:09:02Z</time>
      </trkpt>
      <trkpt lat="42.76053" lon="1.59106">
        <ele>1536.95</ele>
        <time>2022-02-20T10:09:04Z</time>
      </trkpt>
      <trkpt lat="42.76053" lon="1.59106">
        <ele>1537.486</ele>
        <time>2022-02-20T10:09:06Z</time>
      </trkpt>
      <trkpt lat="42.76052" lon="1.59107">
        <ele>1537.145</ele>
        <time>2022-02-20T10:09:08Z</time>
      </trkpt>
      <trkpt lat="42.76052" lon="1.59108">
        <ele>1537.134</ele>
        <time>2022-02-20T10:09:10Z</time>
      </trkpt>
      <trkpt lat="42.76052" lon="1.5911">
        <ele>1538.326</ele>
        <time>2022-02-20T10:09:12Z</time>
      </trkpt>
      <trkpt lat="42.76052" lon="1.59111">
        <ele>1538.123</ele>
        <time>2022-02-20T10:09:14Z</time>
      </trkpt>
      <trkpt lat="42.76052" lon="1.59111">
        <ele>1538.218</ele>
        <time>2022-02-20T10:09:16Z</time>
      </trkpt>
      <trkpt lat="42.76052" lon="1.59111">
        <ele>1538.232</ele>
        <time>2022-02-20T10:09:18Z</time>
      </trkpt>
      <trkpt lat="42.76052" lon="1.59111">
        <ele>1538.248</ele>
        <time>2022-02-20T10:09:20Z</time>
      </trkpt>
      <trkpt lat="42.76052" lon="1.59111">
        <ele>1538.105</ele>
        <time>2022-02-20T10:09:22Z</time>
      </trkpt>
      <trkpt lat="42.76052" lon="1.59111">
        <ele>1538.107</ele>
        <time>2022-02-20T10:09:24Z</time>
      </trkpt>
      <trkpt lat="42.76052" lon="1.59111">
        <ele>1538.118</ele>
        <time>2022-02-20T10:09:26Z</time>
      </trkpt>
      <trkpt lat="42.76052" lon="1.59111">
        <ele>1538.12</ele>
        <time>2022-02-20T10:09:28Z</time>
      </trkpt>
      <trkpt lat="42.76052" lon="1.59111">
        <ele>1538.297</ele>
        <time>2022-02-20T10:09:30Z</time>
      </trkpt>
      <trkpt lat="42.76051" lon="1.59111">
        <ele>1537.856</ele>
        <time>2022-02-20T10:09:32Z</time>
      </trkpt>
      <trkpt lat="42.76051" lon="1.59112">
        <ele>1537.757</ele>
        <time>2022-02-20T10:09:34Z</time>
      </trkpt>
      <trkpt lat="42.7605" lon="1.59113">
        <ele>1537.916</ele>
        <time>2022-02-20T10:09:36Z</time>
      </trkpt>
      <trkpt lat="42.76049" lon="1.59114">
        <ele>1537.547</ele>
        <time>2022-02-20T10:09:38Z</time>
      </trkpt>
      <trkpt lat="42.76048" lon="1.59115">
        <ele>1536.344</ele>
        <time>2022-02-20T10:09:40Z</time>
      </trkpt>
      <trkpt lat="42.76048" lon="1.59115">
        <ele>1536.37</ele>
        <time>2022-02-20T10:09:42Z</time>
      </trkpt>
      <trkpt lat="42.76048" lon="1.59115">
        <ele>1536.379</ele>
        <time>2022-02-20T10:09:44Z</time>
      </trkpt>
      <trkpt lat="42.76048" lon="1.59115">
        <ele>1536.382</ele>
        <time>2022-02-20T10:09:46Z</time>
      </trkpt>
      <trkpt lat="42.76048" lon="1.59116">
        <ele>1537.194</ele>
        <time>2022-02-20T10:09:48Z</time>
      </trkpt>
      <trkpt lat="42.76047" lon="1.59117">
        <ele>1537.698</ele>
        <time>2022-02-20T10:09:50Z</time>
      </trkpt>
      <trkpt lat="42.76047" lon="1.59118">
        <ele>1538.157</ele>
        <time>2022-02-20T10:09:52Z</time>
      </trkpt>
      <trkpt lat="42.76047" lon="1.59119">
        <ele>1539.192</ele>
        <time>2022-02-20T10:09:54Z</time>
      </trkpt>
      <trkpt lat="42.76047" lon="1.59121">
        <ele>1539.488</ele>
        <time>2022-02-20T10:09:56Z</time>
      </trkpt>
      <trkpt lat="42.76047" lon="1.59122">
        <ele>1540.003</ele>
        <time>2022-02-20T10:09:58Z</time>
      </trkpt>
      <trkpt lat="42.76046" lon="1.59123">
        <ele>1540.378</ele>
        <time>2022-02-20T10:10:00Z</time>
      </trkpt>
      <trkpt lat="42.76045" lon="1.59122">
        <ele>1542.098</ele>
        <time>2022-02-20T10:10:02Z</time>
      </trkpt>
      <trkpt lat="42.76045" lon="1.59122">
        <ele>1542.183</ele>
        <time>2022-02-20T10:10:04Z</time>
      </trkpt>
      <trkpt lat="42.76044" lon="1.59121">
        <ele>1542.2</ele>
        <time>2022-02-20T10:10:06Z</time>
      </trkpt>
      <trkpt lat="42.76043" lon="1.59121">
        <ele>1541.938</ele>
        <time>2022-02-20T10:10:08Z</time>
      </trkpt>
      <trkpt lat="42.76042" lon="1.5912">
        <ele>1541.813</ele>
        <time>2022-02-20T10:10:10Z</time>
      </trkpt>
      <trkpt lat="42.76041" lon="1.5912">
        <ele>1542.492</ele>
        <time>2022-02-20T10:10:12Z</time>
      </trkpt>
      <trkpt lat="42.76041" lon="1.5912">
        <ele>1543.38</ele>
        <time>2022-02-20T10:10:14Z</time>
      </trkpt>
      <trkpt lat="42.7604" lon="1.59119">
        <ele>1543.914</ele>
        <time>2022-02-20T10:10:16Z</time>
      </trkpt>
      <trkpt lat="42.76039" lon="1.59118">
        <ele>1544.248</ele>
        <time>2022-02-20T10:10:18Z</time>
      </trkpt>
      <trkpt lat="42.76039" lon="1.59119">
        <ele>1542.529</ele>
        <time>2022-02-20T10:10:20Z</time>
      </trkpt>
      <trkpt lat="42.76038" lon="1.59118">
        <ele>1542.263</ele>
        <time>2022-02-20T10:10:22Z</time>
      </trkpt>
      <trkpt lat="42.76038" lon="1.59118">
        <ele>1543.785</ele>
        <time>2022-02-20T10:10:24Z</time>
      </trkpt>
      <trkpt lat="42.76038" lon="1.59117">
        <ele>1544.498</ele>
        <time>2022-02-20T10:10:26Z</time>
      </trkpt>
      <trkpt lat="42.76037" lon="1.59116">
        <ele>1545.018</ele>
        <time>2022-02-20T10:10:28Z</time>
      </trkpt>
      <trkpt lat="42.76036" lon="1.59116">
        <ele>1544.143</ele>
        <time>2022-02-20T10:10:30Z</time>
      </trkpt>
      <trkpt lat="42.76035" lon="1.59116">
        <ele>1546.17</ele>
        <time>2022-02-20T10:10:32Z</time>
      </trkpt>
      <trkpt lat="42.76035" lon="1.59117">
        <ele>1545.677</ele>
        <time>2022-02-20T10:10:34Z</time>
      </trkpt>
      <trkpt lat="42.76034" lon="1.59118">
        <ele>1544.803</ele>
        <time>2022-02-20T10:10:36Z</time>
      </trkpt>
      <trkpt lat="42.76034" lon="1.59119">
        <ele>1544.97</ele>
        <time>2022-02-20T10:10:38Z</time>
      </trkpt>
      <trkpt lat="42.76033" lon="1.5912">
        <ele>1545.057</ele>
        <time>2022-02-20T10:10:40Z</time>
      </trkpt>
      <trkpt lat="42.76032" lon="1.5912">
        <ele>1545.195</ele>
        <time>2022-02-20T10:10:42Z</time>
      </trkpt>
      <trkpt lat="42.76031" lon="1.59121">
        <ele>1544.735</ele>
        <time>2022-02-20T10:10:44Z</time>
      </trkpt>
      <trkpt lat="42.76032" lon="1.59121">
        <ele>1543.664</ele>
        <time>2022-02-20T10:10:46Z</time>
      </trkpt>
      <trkpt lat="42.76032" lon="1.59122">
        <ele>1542.929</ele>
        <time>2022-02-20T10:10:48Z</time>
      </trkpt>
      <trkpt lat="42.76032" lon="1.59122">
        <ele>1542.354</ele>
        <time>2022-02-20T10:10:50Z</time>
      </trkpt>
      <trkpt lat="42.76031" lon="1.59122">
        <ele>1542.596</ele>
        <time>2022-02-20T10:10:52Z</time>
      </trkpt>
      <trkpt lat="42.7603" lon="1.59123">
        <ele>1543.943</ele>
        <time>2022-02-20T10:10:54Z</time>
      </trkpt>
      <trkpt lat="42.76029" lon="1.59123">
        <ele>1544.705</ele>
        <time>2022-02-20T10:10:56Z</time>
      </trkpt>
      <trkpt lat="42.76028" lon="1.59123">
        <ele>1545.288</ele>
        <time>2022-02-20T10:10:58Z</time>
      </trkpt>
      <trkpt lat="42.76028" lon="1.59123">
        <ele>1545.163</ele>
        <time>2022-02-20T10:11:00Z</time>
      </trkpt>
      <trkpt lat="42.76028" lon="1.59123">
        <ele>1545.164</ele>
        <time>2022-02-20T10:11:02Z</time>
      </trkpt>
      <trkpt lat="42.76027" lon="1.59123">
        <ele>1545.258</ele>
        <time>2022-02-20T10:11:04Z</time>
      </trkpt>
      <trkpt lat="42.76026" lon="1.59123">
        <ele>1546.603</ele>
        <time>2022-02-20T10:11:06Z</time>
      </trkpt>
      <trkpt lat="42.76025" lon="1.59123">
        <ele>1546.181</ele>
        <time>2022-02-20T10:11:08Z</time>
      </trkpt>
      <trkpt lat="42.76023" lon="1.59123">
        <ele>1547.448</ele>
        <time>2022-02-20T10:11:10Z</time>
      </trkpt>
      <trkpt lat="42.76022" lon="1.59123">
        <ele>1547.554</ele>
        <time>2022-02-20T10:11:12Z</time>
      </trkpt>
      <trkpt lat="42.76023" lon="1.59123">
        <ele>1546.348</ele>
        <time>2022-02-20T10:11:14Z</time>
      </trkpt>
      <trkpt lat="42.76023" lon="1.59123">
        <ele>1546.34</ele>
        <time>2022-02-20T10:11:16Z</time>
      </trkpt>
      <trkpt lat="42.76023" lon="1.59123">
        <ele>1546.163</ele>
        <time>2022-02-20T10:11:18Z</time>
      </trkpt>
      <trkpt lat="42.76023" lon="1.59124">
        <ele>1546.6</ele>
        <time>2022-02-20T10:11:20Z</time>
      </trkpt>
      <trkpt lat="42.76022" lon="1.59125">
        <ele>1546.526</ele>
        <time>2022-02-20T10:11:22Z</time>
      </trkpt>
      <trkpt lat="42.76021" lon="1.59125">
        <ele>1546.274</ele>
        <time>2022-02-20T10:11:24Z</time>
      </trkpt>
      <trkpt lat="42.7602" lon="1.59125">
        <ele>1546.798</ele>
        <time>2022-02-20T10:11:26Z</time>
      </trkpt>
      <trkpt lat="42.76019" lon="1.59125">
        <ele>1545.699</ele>
        <time>2022-02-20T10:11:28Z</time>
      </trkpt>
      <trkpt lat="42.76018" lon="1.59126">
        <ele>1546.98</ele>
        <time>2022-02-20T10:11:30Z</time>
      </trkpt>
      <trkpt lat="42.76017" lon="1.59127">
        <ele>1547.459</ele>
        <time>2022-02-20T10:11:32Z</time>
      </trkpt>
      <trkpt lat="42.76017" lon="1.59128">
        <ele>1545.886</ele>
        <time>2022-02-20T10:11:34Z</time>
      </trkpt>
      <trkpt lat="42.76016" lon="1.59128">
        <ele>1546.503</ele>
        <time>2022-02-20T10:11:36Z</time>
      </trkpt>
      <trkpt lat="42.76015" lon="1.59129">
        <ele>1547.815</ele>
        <time>2022-02-20T10:11:38Z</time>
      </trkpt>
      <trkpt lat="42.76014" lon="1.59129">
        <ele>1548.146</ele>
        <time>2022-02-20T10:11:40Z</time>
      </trkpt>
      <trkpt lat="42.76013" lon="1.5913">
        <ele>1548.857</ele>
        <time>2022-02-20T10:11:42Z</time>
      </trkpt>
      <trkpt lat="42.76013" lon="1.5913">
        <ele>1550.174</ele>
        <time>2022-02-20T10:11:44Z</time>
      </trkpt>
      <trkpt lat="42.76012" lon="1.5913">
        <ele>1549.588</ele>
        <time>2022-02-20T10:11:46Z</time>
      </trkpt>
      <trkpt lat="42.76011" lon="1.5913">
        <ele>1549.614</ele>
        <time>2022-02-20T10:11:48Z</time>
      </trkpt>
      <trkpt lat="42.7601" lon="1.5913">
        <ele>1550.29</ele>
        <time>2022-02-20T10:11:50Z</time>
      </trkpt>
      <trkpt lat="42.76009" lon="1.5913">
        <ele>1551.391</ele>
        <time>2022-02-20T10:11:52Z</time>
      </trkpt>
      <trkpt lat="42.76008" lon="1.59131">
        <ele>1550.847</ele>
        <time>2022-02-20T10:11:54Z</time>
      </trkpt>
      <trkpt lat="42.76007" lon="1.59131">
        <ele>1552.006</ele>
        <time>2022-02-20T10:11:56Z</time>
      </trkpt>
      <trkpt lat="42.76007" lon="1.59132">
        <ele>1552.116</ele>
        <time>2022-02-20T10:11:58Z</time>
      </trkpt>
      <trkpt lat="42.76006" lon="1.59132">
        <ele>1554.071</ele>
        <time>2022-02-20T10:12:00Z</time>
      </trkpt>
      <trkpt lat="42.76005" lon="1.59133">
        <ele>1555.279</ele>
        <time>2022-02-20T10:12:02Z</time>
      </trkpt>
      <trkpt lat="42.76004" lon="1.59133">
        <ele>1557.373</ele>
        <time>2022-02-20T10:12:04Z</time>
      </trkpt>
      <trkpt lat="42.76004" lon="1.59133">
        <ele>1557.391</ele>
        <time>2022-02-20T10:12:06Z</time>
      </trkpt>
      <trkpt lat="42.76005" lon="1.59133">
        <ele>1557.39</ele>
        <time>2022-02-20T10:12:08Z</time>
      </trkpt>
      <trkpt lat="42.76005" lon="1.59133">
        <ele>1557.385</ele>
        <time>2022-02-20T10:12:10Z</time>
      </trkpt>
      <trkpt lat="42.76004" lon="1.59133">
        <ele>1557.669</ele>
        <time>2022-02-20T10:12:12Z</time>
      </trkpt>
      <trkpt lat="42.76004" lon="1.59133">
        <ele>1557.663</ele>
        <time>2022-02-20T10:12:14Z</time>
      </trkpt>
      <trkpt lat="42.76003" lon="1.59132">
        <ele>1558.971</ele>
        <time>2022-02-20T10:12:16Z</time>
      </trkpt>
      <trkpt lat="42.76002" lon="1.59132">
        <ele>1559.802</ele>
        <time>2022-02-20T10:12:18Z</time>
      </trkpt>
      <trkpt lat="42.76001" lon="1.59132">
        <ele>1559.34</ele>
        <time>2022-02-20T10:12:20Z</time>
      </trkpt>
      <trkpt lat="42.76001" lon="1.59133">
        <ele>1558.72</ele>
        <time>2022-02-20T10:12:22Z</time>
      </trkpt>
      <trkpt lat="42.76" lon="1.59133">
        <ele>1558.371</ele>
        <time>2022-02-20T10:12:24Z</time>
      </trkpt>
      <trkpt lat="42.75999" lon="1.59132">
        <ele>1559.108</ele>
        <time>2022-02-20T10:12:26Z</time>
      </trkpt>
      <trkpt lat="42.75999" lon="1.59131">
        <ele>1558.354</ele>
        <time>2022-02-20T10:12:28Z</time>
      </trkpt>
      <trkpt lat="42.75999" lon="1.59131">
        <ele>1558.41</ele>
        <time>2022-02-20T10:12:30Z</time>
      </trkpt>
      <trkpt lat="42.75999" lon="1.59131">
        <ele>1558.413</ele>
        <time>2022-02-20T10:12:32Z</time>
      </trkpt>
      <trkpt lat="42.75999" lon="1.59131">
        <ele>1558.42</ele>
        <time>2022-02-20T10:12:34Z</time>
      </trkpt>
      <trkpt lat="42.75999" lon="1.59131">
        <ele>1558.422</ele>
        <time>2022-02-20T10:12:36Z</time>
      </trkpt>
      <trkpt lat="42.75998" lon="1.59131">
        <ele>1558.74</ele>
        <time>2022-02-20T10:12:38Z</time>
      </trkpt>
      <trkpt lat="42.75998" lon="1.59131">
        <ele>1559.538</ele>
        <time>2022-02-20T10:12:40Z</time>
      </trkpt>
      <trkpt lat="42.75997" lon="1.59131">
        <ele>1559.587</ele>
        <time>2022-02-20T10:12:42Z</time>
      </trkpt>
      <trkpt lat="42.75996" lon="1.5913">
        <ele>1560.496</ele>
        <time>2022-02-20T10:12:44Z</time>
      </trkpt>
      <trkpt lat="42.75995" lon="1.59129">
        <ele>1560.368</ele>
        <time>2022-02-20T10:12:46Z</time>
      </trkpt>
      <trkpt lat="42.75995" lon="1.59129">
        <ele>1560.644</ele>
        <time>2022-02-20T10:12:48Z</time>
      </trkpt>
      <trkpt lat="42.75994" lon="1.59129">
        <ele>1560.18</ele>
        <time>2022-02-20T10:12:50Z</time>
      </trkpt>
      <trkpt lat="42.75994" lon="1.59129">
        <ele>1560.335</ele>
        <time>2022-02-20T10:12:52Z</time>
      </trkpt>
      <trkpt lat="42.75994" lon="1.59129">
        <ele>1560.325</ele>
        <time>2022-02-20T10:12:54Z</time>
      </trkpt>
      <trkpt lat="42.75993" lon="1.59129">
        <ele>1560.601</ele>
        <time>2022-02-20T10:12:56Z</time>
      </trkpt>
      <trkpt lat="42.75992" lon="1.59129">
        <ele>1561.431</ele>
        <time>2022-02-20T10:12:58Z</time>
      </trkpt>
      <trkpt lat="42.75991" lon="1.59128">
        <ele>1561.471</ele>
        <time>2022-02-20T10:13:00Z</time>
      </trkpt>
      <trkpt lat="42.7599" lon="1.59128">
        <ele>1561.037</ele>
        <time>2022-02-20T10:13:02Z</time>
      </trkpt>
      <trkpt lat="42.75989" lon="1.5913">
        <ele>1560.603</ele>
        <time>2022-02-20T10:13:04Z</time>
      </trkpt>
      <trkpt lat="42.75989" lon="1.5913">
        <ele>1560.513</ele>
        <time>2022-02-20T10:13:06Z</time>
      </trkpt>
      <trkpt lat="42.75989" lon="1.59131">
        <ele>1560.624</ele>
        <time>2022-02-20T10:13:08Z</time>
      </trkpt>
      <trkpt lat="42.75989" lon="1.59133">
        <ele>1561.029</ele>
        <time>2022-02-20T10:13:10Z</time>
      </trkpt>
      <trkpt lat="42.75988" lon="1.59133">
        <ele>1561.1</ele>
        <time>2022-02-20T10:13:12Z</time>
      </trkpt>
      <trkpt lat="42.75988" lon="1.59133">
        <ele>1561.516</ele>
        <time>2022-02-20T10:13:14Z</time>
      </trkpt>
      <trkpt lat="42.75988" lon="1.59134">
        <ele>1561.469</ele>
        <time>2022-02-20T10:13:16Z</time>
      </trkpt>
      <trkpt lat="42.75988" lon="1.59133">
        <ele>1560.969</ele>
        <time>2022-02-20T10:13:18Z</time>
      </trkpt>
      <trkpt lat="42.75987" lon="1.59133">
        <ele>1561.195</ele>
        <time>2022-02-20T10:13:20Z</time>
      </trkpt>
      <trkpt lat="42.75987" lon="1.59133">
        <ele>1561.713</ele>
        <time>2022-02-20T10:13:22Z</time>
      </trkpt>
      <trkpt lat="42.75987" lon="1.59133">
        <ele>1562.783</ele>
        <time>2022-02-20T10:13:24Z</time>
      </trkpt>
      <trkpt lat="42.75986" lon="1.59133">
        <ele>1563.132</ele>
        <time>2022-02-20T10:13:26Z</time>
      </trkpt>
      <trkpt lat="42.75986" lon="1.59133">
        <ele>1563.206</ele>
        <time>2022-02-20T10:13:28Z</time>
      </trkpt>
      <trkpt lat="42.75986" lon="1.59133">
        <ele>1563.564</ele>
        <time>2022-02-20T10:13:30Z</time>
      </trkpt>
      <trkpt lat="42.75986" lon="1.59133">
        <ele>1564.264</ele>
        <time>2022-02-20T10:13:32Z</time>
      </trkpt>
      <trkpt lat="42.75985" lon="1.59133">
        <ele>1564.063</ele>
        <time>2022-02-20T10:13:34Z</time>
      </trkpt>
      <trkpt lat="42.75984" lon="1.59133">
        <ele>1563.801</ele>
        <time>2022-02-20T10:13:36Z</time>
      </trkpt>
      <trkpt lat="42.75982" lon="1.59133">
        <ele>1562.775</ele>
        <time>2022-02-20T10:13:38Z</time>
      </trkpt>
      <trkpt lat="42.75981" lon="1.59134">
        <ele>1563.353</ele>
        <time>2022-02-20T10:13:40Z</time>
      </trkpt>
      <trkpt lat="42.75982" lon="1.59134">
        <ele>1562.468</ele>
        <time>2022-02-20T10:13:42Z</time>
      </trkpt>
      <trkpt lat="42.75982" lon="1.59134">
        <ele>1562.905</ele>
        <time>2022-02-20T10:13:44Z</time>
      </trkpt>
      <trkpt lat="42.75982" lon="1.59134">
        <ele>1563.331</ele>
        <time>2022-02-20T10:13:46Z</time>
      </trkpt>
      <trkpt lat="42.75981" lon="1.59134">
        <ele>1563.939</ele>
        <time>2022-02-20T10:13:48Z</time>
      </trkpt>
      <trkpt lat="42.7598" lon="1.59135">
        <ele>1564.119</ele>
        <time>2022-02-20T10:13:50Z</time>
      </trkpt>
      <trkpt lat="42.7598" lon="1.59135">
        <ele>1565.783</ele>
        <time>2022-02-20T10:13:52Z</time>
      </trkpt>
      <trkpt lat="42.75979" lon="1.59136">
        <ele>1566.191</ele>
        <time>2022-02-20T10:13:54Z</time>
      </trkpt>
      <trkpt lat="42.75979" lon="1.59136">
        <ele>1567.844</ele>
        <time>2022-02-20T10:13:56Z</time>
      </trkpt>
      <trkpt lat="42.75978" lon="1.59136">
        <ele>1569.229</ele>
        <time>2022-02-20T10:13:58Z</time>
      </trkpt>
      <trkpt lat="42.75978" lon="1.59136">
        <ele>1569.946</ele>
        <time>2022-02-20T10:14:00Z</time>
      </trkpt>
      <trkpt lat="42.75977" lon="1.59136">
        <ele>1570.238</ele>
        <time>2022-02-20T10:14:02Z</time>
      </trkpt>
      <trkpt lat="42.75977" lon="1.59138">
        <ele>1570.899</ele>
        <time>2022-02-20T10:14:04Z</time>
      </trkpt>
      <trkpt lat="42.75978" lon="1.59138">
        <ele>1570.66</ele>
        <time>2022-02-20T10:14:06Z</time>
      </trkpt>
      <trkpt lat="42.75977" lon="1.59139">
        <ele>1570.731</ele>
        <time>2022-02-20T10:14:08Z</time>
      </trkpt>
      <trkpt lat="42.75977" lon="1.59139">
        <ele>1570.822</ele>
        <time>2022-02-20T10:14:10Z</time>
      </trkpt>
      <trkpt lat="42.75977" lon="1.59139">
        <ele>1570.74</ele>
        <time>2022-02-20T10:14:12Z</time>
      </trkpt>
      <trkpt lat="42.75976" lon="1.5914">
        <ele>1570.737</ele>
        <time>2022-02-20T10:14:14Z</time>
      </trkpt>
      <trkpt lat="42.75976" lon="1.5914">
        <ele>1571.464</ele>
        <time>2022-02-20T10:14:16Z</time>
      </trkpt>
      <trkpt lat="42.75975" lon="1.59141">
        <ele>1571.282</ele>
        <time>2022-02-20T10:14:18Z</time>
      </trkpt>
      <trkpt lat="42.75975" lon="1.59141">
        <ele>1573.585</ele>
        <time>2022-02-20T10:14:20Z</time>
      </trkpt>
      <trkpt lat="42.75975" lon="1.59142">
        <ele>1574.792</ele>
        <time>2022-02-20T10:14:22Z</time>
      </trkpt>
      <trkpt lat="42.75975" lon="1.59143">
        <ele>1574.489</ele>
        <time>2022-02-20T10:14:24Z</time>
      </trkpt>
      <trkpt lat="42.75975" lon="1.59144">
        <ele>1575.404</ele>
        <time>2022-02-20T10:14:26Z</time>
      </trkpt>
      <trkpt lat="42.75975" lon="1.59145">
        <ele>1574.734</ele>
        <time>2022-02-20T10:14:28Z</time>
      </trkpt>
      <trkpt lat="42.75974" lon="1.59145">
        <ele>1575.283</ele>
        <time>2022-02-20T10:14:30Z</time>
      </trkpt>
      <trkpt lat="42.75974" lon="1.59147">
        <ele>1575.02</ele>
        <time>2022-02-20T10:14:32Z</time>
      </trkpt>
      <trkpt lat="42.75973" lon="1.59148">
        <ele>1574.817</ele>
        <time>2022-02-20T10:14:34Z</time>
      </trkpt>
      <trkpt lat="42.75972" lon="1.59147">
        <ele>1575.699</ele>
        <time>2022-02-20T10:14:36Z</time>
      </trkpt>
      <trkpt lat="42.75971" lon="1.59146">
        <ele>1575.629</ele>
        <time>2022-02-20T10:14:38Z</time>
      </trkpt>
      <trkpt lat="42.75971" lon="1.59146">
        <ele>1575.633</ele>
        <time>2022-02-20T10:14:40Z</time>
      </trkpt>
      <trkpt lat="42.75971" lon="1.59146">
        <ele>1575.442</ele>
        <time>2022-02-20T10:14:42Z</time>
      </trkpt>
      <trkpt lat="42.75971" lon="1.59146">
        <ele>1575.945</ele>
        <time>2022-02-20T10:14:44Z</time>
      </trkpt>
      <trkpt lat="42.7597" lon="1.59146">
        <ele>1576.068</ele>
        <time>2022-02-20T10:14:46Z</time>
      </trkpt>
      <trkpt lat="42.75969" lon="1.59146">
        <ele>1575.654</ele>
        <time>2022-02-20T10:14:48Z</time>
      </trkpt>
      <trkpt lat="42.75968" lon="1.59146">
        <ele>1575.846</ele>
        <time>2022-02-20T10:14:50Z</time>
      </trkpt>
      <trkpt lat="42.75968" lon="1.59146">
        <ele>1576.396</ele>
        <time>2022-02-20T10:14:52Z</time>
      </trkpt>
      <trkpt lat="42.75968" lon="1.59147">
        <ele>1578.417</ele>
        <time>2022-02-20T10:14:54Z</time>
      </trkpt>
      <trkpt lat="42.75968" lon="1.59147">
        <ele>1578.362</ele>
        <time>2022-02-20T10:14:56Z</time>
      </trkpt>
      <trkpt lat="42.75967" lon="1.59149">
        <ele>1578.873</ele>
        <time>2022-02-20T10:14:58Z</time>
      </trkpt>
      <trkpt lat="42.75966" lon="1.59149">
        <ele>1578.81</ele>
        <time>2022-02-20T10:15:00Z</time>
      </trkpt>
      <trkpt lat="42.75967" lon="1.59148">
        <ele>1579.758</ele>
        <time>2022-02-20T10:15:02Z</time>
      </trkpt>
      <trkpt lat="42.75966" lon="1.59148">
        <ele>1580.779</ele>
        <time>2022-02-20T10:15:04Z</time>
      </trkpt>
      <trkpt lat="42.75965" lon="1.59148">
        <ele>1581.168</ele>
        <time>2022-02-20T10:15:06Z</time>
      </trkpt>
      <trkpt lat="42.75965" lon="1.59148">
        <ele>1581.592</ele>
        <time>2022-02-20T10:15:08Z</time>
      </trkpt>
      <trkpt lat="42.75963" lon="1.59147">
        <ele>1581.388</ele>
        <time>2022-02-20T10:15:10Z</time>
      </trkpt>
      <trkpt lat="42.75963" lon="1.59148">
        <ele>1580.246</ele>
        <time>2022-02-20T10:15:12Z</time>
      </trkpt>
      <trkpt lat="42.75963" lon="1.59148">
        <ele>1580.254</ele>
        <time>2022-02-20T10:15:14Z</time>
      </trkpt>
      <trkpt lat="42.75963" lon="1.59148">
        <ele>1580.263</ele>
        <time>2022-02-20T10:15:16Z</time>
      </trkpt>
      <trkpt lat="42.75963" lon="1.59148">
        <ele>1581.613</ele>
        <time>2022-02-20T10:15:18Z</time>
      </trkpt>
      <trkpt lat="42.75962" lon="1.59148">
        <ele>1581.812</ele>
        <time>2022-02-20T10:15:20Z</time>
      </trkpt>
      <trkpt lat="42.75962" lon="1.59148">
        <ele>1581.341</ele>
        <time>2022-02-20T10:15:22Z</time>
      </trkpt>
      <trkpt lat="42.75962" lon="1.59148">
        <ele>1581.342</ele>
        <time>2022-02-20T10:15:24Z</time>
      </trkpt>
      <trkpt lat="42.75962" lon="1.59148">
        <ele>1581.34</ele>
        <time>2022-02-20T10:15:26Z</time>
      </trkpt>
      <trkpt lat="42.75962" lon="1.59148">
        <ele>1581.339</ele>
        <time>2022-02-20T10:15:28Z</time>
      </trkpt>
      <trkpt lat="42.75962" lon="1.59148">
        <ele>1581.34</ele>
        <time>2022-02-20T10:15:30Z</time>
      </trkpt>
      <trkpt lat="42.75962" lon="1.59148">
        <ele>1581.35</ele>
        <time>2022-02-20T10:15:32Z</time>
      </trkpt>
      <trkpt lat="42.75961" lon="1.59148">
        <ele>1581.117</ele>
        <time>2022-02-20T10:15:34Z</time>
      </trkpt>
      <trkpt lat="42.75961" lon="1.59148">
        <ele>1581.49</ele>
        <time>2022-02-20T10:15:36Z</time>
      </trkpt>
      <trkpt lat="42.75961" lon="1.59148">
        <ele>1581.693</ele>
        <time>2022-02-20T10:15:38Z</time>
      </trkpt>
      <trkpt lat="42.75961" lon="1.59148">
        <ele>1581.724</ele>
        <time>2022-02-20T10:15:40Z</time>
      </trkpt>
      <trkpt lat="42.75961" lon="1.59148">
        <ele>1581.731</ele>
        <time>2022-02-20T10:15:42Z</time>
      </trkpt>
      <trkpt lat="42.75961" lon="1.59148">
        <ele>1581.734</ele>
        <time>2022-02-20T10:15:44Z</time>
      </trkpt>
      <trkpt lat="42.75961" lon="1.59148">
        <ele>1581.748</ele>
        <time>2022-02-20T10:15:46Z</time>
      </trkpt>
      <trkpt lat="42.75961" lon="1.59148">
        <ele>1581.747</ele>
        <time>2022-02-20T10:15:48Z</time>
      </trkpt>
      <trkpt lat="42.75961" lon="1.59148">
        <ele>1581.586</ele>
        <time>2022-02-20T10:15:50Z</time>
      </trkpt>
      <trkpt lat="42.7596" lon="1.59149">
        <ele>1581.021</ele>
        <time>2022-02-20T10:15:52Z</time>
      </trkpt>
      <trkpt lat="42.75959" lon="1.59149">
        <ele>1580.935</ele>
        <time>2022-02-20T10:15:54Z</time>
      </trkpt>
      <trkpt lat="42.75959" lon="1.59148">
        <ele>1580.936</ele>
        <time>2022-02-20T10:15:56Z</time>
      </trkpt>
      <trkpt lat="42.75959" lon="1.59148">
        <ele>1580.936</ele>
        <time>2022-02-20T10:15:58Z</time>
      </trkpt>
      <trkpt lat="42.75959" lon="1.59148">
        <ele>1580.938</ele>
        <time>2022-02-20T10:16:00Z</time>
      </trkpt>
      <trkpt lat="42.75959" lon="1.59148">
        <ele>1580.937</ele>
        <time>2022-02-20T10:16:02Z</time>
      </trkpt>
      <trkpt lat="42.75959" lon="1.59148">
        <ele>1580.94</ele>
        <time>2022-02-20T10:16:04Z</time>
      </trkpt>
      <trkpt lat="42.75959" lon="1.59148">
        <ele>1580.855</ele>
        <time>2022-02-20T10:16:06Z</time>
      </trkpt>
      <trkpt lat="42.75959" lon="1.59148">
        <ele>1581.56</ele>
        <time>2022-02-20T10:16:08Z</time>
      </trkpt>
      <trkpt lat="42.75958" lon="1.59149">
        <ele>1581.794</ele>
        <time>2022-02-20T10:16:10Z</time>
      </trkpt>
      <trkpt lat="42.75957" lon="1.59149">
        <ele>1582.146</ele>
        <time>2022-02-20T10:16:12Z</time>
      </trkpt>
      <trkpt lat="42.75956" lon="1.59148">
        <ele>1582.524</ele>
        <time>2022-02-20T10:16:14Z</time>
      </trkpt>
      <trkpt lat="42.75955" lon="1.59149">
        <ele>1583.429</ele>
        <time>2022-02-20T10:16:16Z</time>
      </trkpt>
      <trkpt lat="42.75954" lon="1.5915">
        <ele>1583.754</ele>
        <time>2022-02-20T10:16:18Z</time>
      </trkpt>
      <trkpt lat="42.75953" lon="1.5915">
        <ele>1584.168</ele>
        <time>2022-02-20T10:16:20Z</time>
      </trkpt>
      <trkpt lat="42.75952" lon="1.5915">
        <ele>1584.153</ele>
        <time>2022-02-20T10:16:22Z</time>
      </trkpt>
      <trkpt lat="42.75951" lon="1.59151">
        <ele>1584.279</ele>
        <time>2022-02-20T10:16:24Z</time>
      </trkpt>
      <trkpt lat="42.75951" lon="1.59152">
        <ele>1584.911</ele>
        <time>2022-02-20T10:16:26Z</time>
      </trkpt>
      <trkpt lat="42.75951" lon="1.59154">
        <ele>1584.838</ele>
        <time>2022-02-20T10:16:28Z</time>
      </trkpt>
      <trkpt lat="42.7595" lon="1.59154">
        <ele>1585.536</ele>
        <time>2022-02-20T10:16:30Z</time>
      </trkpt>
      <trkpt lat="42.75949" lon="1.59155">
        <ele>1585.785</ele>
        <time>2022-02-20T10:16:32Z</time>
      </trkpt>
      <trkpt lat="42.75949" lon="1.59155">
        <ele>1585.751</ele>
        <time>2022-02-20T10:16:34Z</time>
      </trkpt>
      <trkpt lat="42.75948" lon="1.59156">
        <ele>1586.389</ele>
        <time>2022-02-20T10:16:36Z</time>
      </trkpt>
      <trkpt lat="42.75946" lon="1.59157">
        <ele>1586.661</ele>
        <time>2022-02-20T10:16:38Z</time>
      </trkpt>
      <trkpt lat="42.75945" lon="1.59158">
        <ele>1586.853</ele>
        <time>2022-02-20T10:16:40Z</time>
      </trkpt>
      <trkpt lat="42.75944" lon="1.59159">
        <ele>1586.299</ele>
        <time>2022-02-20T10:16:42Z</time>
      </trkpt>
      <trkpt lat="42.75943" lon="1.59161">
        <ele>1586.571</ele>
        <time>2022-02-20T10:16:44Z</time>
      </trkpt>
      <trkpt lat="42.75941" lon="1.59162">
        <ele>1587.322</ele>
        <time>2022-02-20T10:16:46Z</time>
      </trkpt>
      <trkpt lat="42.75941" lon="1.59163">
        <ele>1587.695</ele>
        <time>2022-02-20T10:16:48Z</time>
      </trkpt>
      <trkpt lat="42.75939" lon="1.59164">
        <ele>1587.059</ele>
        <time>2022-02-20T10:16:50Z</time>
      </trkpt>
      <trkpt lat="42.75938" lon="1.59165">
        <ele>1586.646</ele>
        <time>2022-02-20T10:16:52Z</time>
      </trkpt>
      <trkpt lat="42.75937" lon="1.59166">
        <ele>1586.772</ele>
        <time>2022-02-20T10:16:54Z</time>
      </trkpt>
      <trkpt lat="42.75936" lon="1.59167">
        <ele>1587.643</ele>
        <time>2022-02-20T10:16:56Z</time>
      </trkpt>
      <trkpt lat="42.75935" lon="1.59167">
        <ele>1587.306</ele>
        <time>2022-02-20T10:16:58Z</time>
      </trkpt>
      <trkpt lat="42.75933" lon="1.59168">
        <ele>1586.815</ele>
        <time>2022-02-20T10:17:00Z</time>
      </trkpt>
      <trkpt lat="42.75932" lon="1.59169">
        <ele>1586.445</ele>
        <time>2022-02-20T10:17:02Z</time>
      </trkpt>
      <trkpt lat="42.7593" lon="1.5917">
        <ele>1585.336</ele>
        <time>2022-02-20T10:17:04Z</time>
      </trkpt>
      <trkpt lat="42.75929" lon="1.5917">
        <ele>1585.341</ele>
        <time>2022-02-20T10:17:06Z</time>
      </trkpt>
      <trkpt lat="42.75927" lon="1.59171">
        <ele>1586.276</ele>
        <time>2022-02-20T10:17:08Z</time>
      </trkpt>
      <trkpt lat="42.75926" lon="1.59172">
        <ele>1587.535</ele>
        <time>2022-02-20T10:17:10Z</time>
      </trkpt>
      <trkpt lat="42.75925" lon="1.59173">
        <ele>1588.073</ele>
        <time>2022-02-20T10:17:12Z</time>
      </trkpt>
      <trkpt lat="42.75924" lon="1.59174">
        <ele>1589.059</ele>
        <time>2022-02-20T10:17:14Z</time>
      </trkpt>
      <trkpt lat="42.75923" lon="1.59176">
        <ele>1590.185</ele>
        <time>2022-02-20T10:17:16Z</time>
      </trkpt>
      <trkpt lat="42.75921" lon="1.59176">
        <ele>1589.479</ele>
        <time>2022-02-20T10:17:18Z</time>
      </trkpt>
      <trkpt lat="42.7592" lon="1.59177">
        <ele>1588.396</ele>
        <time>2022-02-20T10:17:20Z</time>
      </trkpt>
      <trkpt lat="42.75919" lon="1.59178">
        <ele>1587.527</ele>
        <time>2022-02-20T10:17:22Z</time>
      </trkpt>
      <trkpt lat="42.75917" lon="1.59179">
        <ele>1587.92</ele>
        <time>2022-02-20T10:17:24Z</time>
      </trkpt>
      <trkpt lat="42.75917" lon="1.5918">
        <ele>1588.628</ele>
        <time>2022-02-20T10:17:26Z</time>
      </trkpt>
      <trkpt lat="42.75916" lon="1.59181">
        <ele>1588.509</ele>
        <time>2022-02-20T10:17:28Z</time>
      </trkpt>
      <trkpt lat="42.75915" lon="1.59181">
        <ele>1589.21</ele>
        <time>2022-02-20T10:17:30Z</time>
      </trkpt>
      <trkpt lat="42.75914" lon="1.59181">
        <ele>1589.649</ele>
        <time>2022-02-20T10:17:32Z</time>
      </trkpt>
      <trkpt lat="42.75913" lon="1.59181">
        <ele>1589.869</ele>
        <time>2022-02-20T10:17:34Z</time>
      </trkpt>
      <trkpt lat="42.75912" lon="1.59181">
        <ele>1590.95</ele>
        <time>2022-02-20T10:17:36Z</time>
      </trkpt>
      <trkpt lat="42.75911" lon="1.5918">
        <ele>1591.453</ele>
        <time>2022-02-20T10:17:38Z</time>
      </trkpt>
      <trkpt lat="42.75911" lon="1.5918">
        <ele>1591.598</ele>
        <time>2022-02-20T10:17:40Z</time>
      </trkpt>
      <trkpt lat="42.7591" lon="1.5918">
        <ele>1592.6</ele>
        <time>2022-02-20T10:17:42Z</time>
      </trkpt>
      <trkpt lat="42.7591" lon="1.5918">
        <ele>1593.084</ele>
        <time>2022-02-20T10:17:44Z</time>
      </trkpt>
      <trkpt lat="42.75909" lon="1.59181">
        <ele>1593.337</ele>
        <time>2022-02-20T10:17:46Z</time>
      </trkpt>
      <trkpt lat="42.75908" lon="1.59182">
        <ele>1593.123</ele>
        <time>2022-02-20T10:17:48Z</time>
      </trkpt>
      <trkpt lat="42.75907" lon="1.59182">
        <ele>1593.094</ele>
        <time>2022-02-20T10:17:50Z</time>
      </trkpt>
      <trkpt lat="42.75907" lon="1.59183">
        <ele>1593.695</ele>
        <time>2022-02-20T10:17:52Z</time>
      </trkpt>
      <trkpt lat="42.75906" lon="1.59183">
        <ele>1593.692</ele>
        <time>2022-02-20T10:17:54Z</time>
      </trkpt>
      <trkpt lat="42.75905" lon="1.59184">
        <ele>1593.831</ele>
        <time>2022-02-20T10:17:56Z</time>
      </trkpt>
      <trkpt lat="42.75905" lon="1.59184">
        <ele>1594.592</ele>
        <time>2022-02-20T10:17:58Z</time>
      </trkpt>
      <trkpt lat="42.75904" lon="1.59185">
        <ele>1594.973</ele>
        <time>2022-02-20T10:18:00Z</time>
      </trkpt>
      <trkpt lat="42.75904" lon="1.59186">
        <ele>1595.151</ele>
        <time>2022-02-20T10:18:02Z</time>
      </trkpt>
      <trkpt lat="42.75903" lon="1.59187">
        <ele>1594.986</ele>
        <time>2022-02-20T10:18:04Z</time>
      </trkpt>
      <trkpt lat="42.75903" lon="1.59188">
        <ele>1595.133</ele>
        <time>2022-02-20T10:18:06Z</time>
      </trkpt>
      <trkpt lat="42.75903" lon="1.59188">
        <ele>1595.954</ele>
        <time>2022-02-20T10:18:08Z</time>
      </trkpt>
      <trkpt lat="42.75902" lon="1.59189">
        <ele>1595.71</ele>
        <time>2022-02-20T10:18:10Z</time>
      </trkpt>
      <trkpt lat="42.75902" lon="1.5919">
        <ele>1595.984</ele>
        <time>2022-02-20T10:18:12Z</time>
      </trkpt>
      <trkpt lat="42.75902" lon="1.59191">
        <ele>1596.143</ele>
        <time>2022-02-20T10:18:14Z</time>
      </trkpt>
      <trkpt lat="42.75902" lon="1.59192">
        <ele>1596.204</ele>
        <time>2022-02-20T10:18:16Z</time>
      </trkpt>
      <trkpt lat="42.75901" lon="1.59193">
        <ele>1596.527</ele>
        <time>2022-02-20T10:18:18Z</time>
      </trkpt>
      <trkpt lat="42.759" lon="1.59193">
        <ele>1597.071</ele>
        <time>2022-02-20T10:18:20Z</time>
      </trkpt>
      <trkpt lat="42.759" lon="1.59193">
        <ele>1597.145</ele>
        <time>2022-02-20T10:18:22Z</time>
      </trkpt>
      <trkpt lat="42.75899" lon="1.59194">
        <ele>1597.867</ele>
        <time>2022-02-20T10:18:24Z</time>
      </trkpt>
      <trkpt lat="42.75899" lon="1.59195">
        <ele>1597.906</ele>
        <time>2022-02-20T10:18:26Z</time>
      </trkpt>
      <trkpt lat="42.75899" lon="1.59195">
        <ele>1597.901</ele>
        <time>2022-02-20T10:18:28Z</time>
      </trkpt>
      <trkpt lat="42.75898" lon="1.59196">
        <ele>1597.235</ele>
        <time>2022-02-20T10:18:30Z</time>
      </trkpt>
      <trkpt lat="42.75898" lon="1.59196">
        <ele>1597.311</ele>
        <time>2022-02-20T10:18:32Z</time>
      </trkpt>
      <trkpt lat="42.75897" lon="1.59197">
        <ele>1597.825</ele>
        <time>2022-02-20T10:18:34Z</time>
      </trkpt>
      <trkpt lat="42.75897" lon="1.59197">
        <ele>1597.704</ele>
        <time>2022-02-20T10:18:36Z</time>
      </trkpt>
      <trkpt lat="42.75896" lon="1.59197">
        <ele>1598.05</ele>
        <time>2022-02-20T10:18:38Z</time>
      </trkpt>
      <trkpt lat="42.75896" lon="1.59198">
        <ele>1598.099</ele>
        <time>2022-02-20T10:18:40Z</time>
      </trkpt>
      <trkpt lat="42.75895" lon="1.59198">
        <ele>1598.351</ele>
        <time>2022-02-20T10:18:42Z</time>
      </trkpt>
      <trkpt lat="42.75894" lon="1.59199">
        <ele>1598.688</ele>
        <time>2022-02-20T10:18:44Z</time>
      </trkpt>
      <trkpt lat="42.75893" lon="1.59199">
        <ele>1598.757</ele>
        <time>2022-02-20T10:18:46Z</time>
      </trkpt>
      <trkpt lat="42.75893" lon="1.59199">
        <ele>1598.858</ele>
        <time>2022-02-20T10:18:48Z</time>
      </trkpt>
      <trkpt lat="42.75893" lon="1.59199">
        <ele>1598.825</ele>
        <time>2022-02-20T10:18:50Z</time>
      </trkpt>
      <trkpt lat="42.75892" lon="1.59199">
        <ele>1598.748</ele>
        <time>2022-02-20T10:18:52Z</time>
      </trkpt>
      <trkpt lat="42.75891" lon="1.592">
        <ele>1598.617</ele>
        <time>2022-02-20T10:18:54Z</time>
      </trkpt>
      <trkpt lat="42.7589" lon="1.592">
        <ele>1599.33</ele>
        <time>2022-02-20T10:18:56Z</time>
      </trkpt>
      <trkpt lat="42.7589" lon="1.592">
        <ele>1600.168</ele>
        <time>2022-02-20T10:18:58Z</time>
      </trkpt>
      <trkpt lat="42.75889" lon="1.59201">
        <ele>1600.942</ele>
        <time>2022-02-20T10:19:00Z</time>
      </trkpt>
      <trkpt lat="42.75888" lon="1.59201">
        <ele>1601.188</ele>
        <time>2022-02-20T10:19:02Z</time>
      </trkpt>
      <trkpt lat="42.75888" lon="1.59202">
        <ele>1601.779</ele>
        <time>2022-02-20T10:19:04Z</time>
      </trkpt>
      <trkpt lat="42.75887" lon="1.59203">
        <ele>1601.529</ele>
        <time>2022-02-20T10:19:06Z</time>
      </trkpt>
      <trkpt lat="42.75887" lon="1.59203">
        <ele>1601.547</ele>
        <time>2022-02-20T10:19:08Z</time>
      </trkpt>
      <trkpt lat="42.75887" lon="1.59203">
        <ele>1601.546</ele>
        <time>2022-02-20T10:19:10Z</time>
      </trkpt>
      <trkpt lat="42.75887" lon="1.59203">
        <ele>1601.72</ele>
        <time>2022-02-20T10:19:12Z</time>
      </trkpt>
      <trkpt lat="42.75886" lon="1.59204">
        <ele>1602.358</ele>
        <time>2022-02-20T10:19:14Z</time>
      </trkpt>
      <trkpt lat="42.75885" lon="1.59205">
        <ele>1602.741</ele>
        <time>2022-02-20T10:19:16Z</time>
      </trkpt>
      <trkpt lat="42.75884" lon="1.59205">
        <ele>1603.457</ele>
        <time>2022-02-20T10:19:18Z</time>
      </trkpt>
      <trkpt lat="42.75883" lon="1.59205">
        <ele>1603.528</ele>
        <time>2022-02-20T10:19:20Z</time>
      </trkpt>
      <trkpt lat="42.75882" lon="1.59206">
        <ele>1604.579</ele>
        <time>2022-02-20T10:19:22Z</time>
      </trkpt>
      <trkpt lat="42.75882" lon="1.59207">
        <ele>1604.716</ele>
        <time>2022-02-20T10:19:24Z</time>
      </trkpt>
      <trkpt lat="42.75881" lon="1.59207">
        <ele>1605.7</ele>
        <time>2022-02-20T10:19:26Z</time>
      </trkpt>
      <trkpt lat="42.75881" lon="1.59208">
        <ele>1605.852</ele>
        <time>2022-02-20T10:19:28Z</time>
      </trkpt>
      <trkpt lat="42.7588" lon="1.59209">
        <ele>1606.285</ele>
        <time>2022-02-20T10:19:30Z</time>
      </trkpt>
      <trkpt lat="42.75879" lon="1.59209">
        <ele>1605.471</ele>
        <time>2022-02-20T10:19:32Z</time>
      </trkpt>
      <trkpt lat="42.75879" lon="1.59209">
        <ele>1605.235</ele>
        <time>2022-02-20T10:19:34Z</time>
      </trkpt>
      <trkpt lat="42.75879" lon="1.59209">
        <ele>1605.336</ele>
        <time>2022-02-20T10:19:36Z</time>
      </trkpt>
      <trkpt lat="42.75878" lon="1.5921">
        <ele>1605.517</ele>
        <time>2022-02-20T10:19:38Z</time>
      </trkpt>
      <trkpt lat="42.75877" lon="1.59211">
        <ele>1605.924</ele>
        <time>2022-02-20T10:19:40Z</time>
      </trkpt>
      <trkpt lat="42.75876" lon="1.59212">
        <ele>1606.528</ele>
        <time>2022-02-20T10:19:42Z</time>
      </trkpt>
      <trkpt lat="42.75875" lon="1.59213">
        <ele>1606.885</ele>
        <time>2022-02-20T10:19:44Z</time>
      </trkpt>
      <trkpt lat="42.75874" lon="1.59214">
        <ele>1607.499</ele>
        <time>2022-02-20T10:19:46Z</time>
      </trkpt>
      <trkpt lat="42.75874" lon="1.59214">
        <ele>1607.873</ele>
        <time>2022-02-20T10:19:48Z</time>
      </trkpt>
      <trkpt lat="42.75873" lon="1.59215">
        <ele>1607.923</ele>
        <time>2022-02-20T10:19:50Z</time>
      </trkpt>
      <trkpt lat="42.75872" lon="1.59216">
        <ele>1607.485</ele>
        <time>2022-02-20T10:19:52Z</time>
      </trkpt>
      <trkpt lat="42.75872" lon="1.59217">
        <ele>1607.452</ele>
        <time>2022-02-20T10:19:54Z</time>
      </trkpt>
      <trkpt lat="42.75871" lon="1.59218">
        <ele>1607.451</ele>
        <time>2022-02-20T10:19:56Z</time>
      </trkpt>
      <trkpt lat="42.7587" lon="1.5922">
        <ele>1608.65</ele>
        <time>2022-02-20T10:19:58Z</time>
      </trkpt>
      <trkpt lat="42.7587" lon="1.5922">
        <ele>1609.23</ele>
        <time>2022-02-20T10:20:00Z</time>
      </trkpt>
      <trkpt lat="42.75869" lon="1.59221">
        <ele>1610.139</ele>
        <time>2022-02-20T10:20:02Z</time>
      </trkpt>
      <trkpt lat="42.75869" lon="1.59221">
        <ele>1610.57</ele>
        <time>2022-02-20T10:20:04Z</time>
      </trkpt>
      <trkpt lat="42.75868" lon="1.59222">
        <ele>1611.807</ele>
        <time>2022-02-20T10:20:06Z</time>
      </trkpt>
      <trkpt lat="42.75868" lon="1.59223">
        <ele>1612.05</ele>
        <time>2022-02-20T10:20:08Z</time>
      </trkpt>
      <trkpt lat="42.75867" lon="1.59224">
        <ele>1612.842</ele>
        <time>2022-02-20T10:20:10Z</time>
      </trkpt>
      <trkpt lat="42.75866" lon="1.59225">
        <ele>1612.837</ele>
        <time>2022-02-20T10:20:12Z</time>
      </trkpt>
      <trkpt lat="42.75865" lon="1.59225">
        <ele>1613.34</ele>
        <time>2022-02-20T10:20:14Z</time>
      </trkpt>
      <trkpt lat="42.75865" lon="1.59226">
        <ele>1613.233</ele>
        <time>2022-02-20T10:20:16Z</time>
      </trkpt>
      <trkpt lat="42.75864" lon="1.59227">
        <ele>1613.387</ele>
        <time>2022-02-20T10:20:18Z</time>
      </trkpt>
      <trkpt lat="42.75863" lon="1.59229">
        <ele>1613.358</ele>
        <time>2022-02-20T10:20:20Z</time>
      </trkpt>
      <trkpt lat="42.75863" lon="1.5923">
        <ele>1613.193</ele>
        <time>2022-02-20T10:20:22Z</time>
      </trkpt>
      <trkpt lat="42.75862" lon="1.59231">
        <ele>1613.122</ele>
        <time>2022-02-20T10:20:24Z</time>
      </trkpt>
      <trkpt lat="42.75861" lon="1.59231">
        <ele>1612.941</ele>
        <time>2022-02-20T10:20:26Z</time>
      </trkpt>
      <trkpt lat="42.7586" lon="1.59232">
        <ele>1613.174</ele>
        <time>2022-02-20T10:20:28Z</time>
      </trkpt>
      <trkpt lat="42.7586" lon="1.59232">
        <ele>1612.71</ele>
        <time>2022-02-20T10:20:30Z</time>
      </trkpt>
      <trkpt lat="42.75859" lon="1.59232">
        <ele>1613.371</ele>
        <time>2022-02-20T10:20:32Z</time>
      </trkpt>
      <trkpt lat="42.75858" lon="1.59233">
        <ele>1614.448</ele>
        <time>2022-02-20T10:20:34Z</time>
      </trkpt>
      <trkpt lat="42.75857" lon="1.59233">
        <ele>1614.711</ele>
        <time>2022-02-20T10:20:36Z</time>
      </trkpt>
      <trkpt lat="42.75856" lon="1.59234">
        <ele>1615.029</ele>
        <time>2022-02-20T10:20:38Z</time>
      </trkpt>
      <trkpt lat="42.75855" lon="1.59234">
        <ele>1616.469</ele>
        <time>2022-02-20T10:20:40Z</time>
      </trkpt>
      <trkpt lat="42.75855" lon="1.59234">
        <ele>1616.403</ele>
        <time>2022-02-20T10:20:42Z</time>
      </trkpt>
      <trkpt lat="42.75854" lon="1.59235">
        <ele>1616.962</ele>
        <time>2022-02-20T10:20:44Z</time>
      </trkpt>
      <trkpt lat="42.75853" lon="1.59235">
        <ele>1617.526</ele>
        <time>2022-02-20T10:20:46Z</time>
      </trkpt>
      <trkpt lat="42.75852" lon="1.59236">
        <ele>1617.887</ele>
        <time>2022-02-20T10:20:48Z</time>
      </trkpt>
      <trkpt lat="42.75852" lon="1.59237">
        <ele>1617.998</ele>
        <time>2022-02-20T10:20:50Z</time>
      </trkpt>
      <trkpt lat="42.75851" lon="1.59238">
        <ele>1618.308</ele>
        <time>2022-02-20T10:20:52Z</time>
      </trkpt>
      <trkpt lat="42.7585" lon="1.59239">
        <ele>1618.133</ele>
        <time>2022-02-20T10:20:54Z</time>
      </trkpt>
      <trkpt lat="42.75849" lon="1.5924">
        <ele>1618.414</ele>
        <time>2022-02-20T10:20:56Z</time>
      </trkpt>
      <trkpt lat="42.75848" lon="1.59241">
        <ele>1618.512</ele>
        <time>2022-02-20T10:20:58Z</time>
      </trkpt>
      <trkpt lat="42.75847" lon="1.59242">
        <ele>1618.633</ele>
        <time>2022-02-20T10:21:00Z</time>
      </trkpt>
      <trkpt lat="42.75846" lon="1.59243">
        <ele>1618.717</ele>
        <time>2022-02-20T10:21:02Z</time>
      </trkpt>
      <trkpt lat="42.75846" lon="1.59244">
        <ele>1618.114</ele>
        <time>2022-02-20T10:21:04Z</time>
      </trkpt>
      <trkpt lat="42.75845" lon="1.59245">
        <ele>1618.753</ele>
        <time>2022-02-20T10:21:06Z</time>
      </trkpt>
      <trkpt lat="42.75844" lon="1.59246">
        <ele>1618.789</ele>
        <time>2022-02-20T10:21:08Z</time>
      </trkpt>
      <trkpt lat="42.75844" lon="1.59247">
        <ele>1618.746</ele>
        <time>2022-02-20T10:21:10Z</time>
      </trkpt>
      <trkpt lat="42.75843" lon="1.59248">
        <ele>1618.976</ele>
        <time>2022-02-20T10:21:12Z</time>
      </trkpt>
      <trkpt lat="42.75843" lon="1.59248">
        <ele>1619.018</ele>
        <time>2022-02-20T10:21:14Z</time>
      </trkpt>
      <trkpt lat="42.75843" lon="1.59248">
        <ele>1619.024</ele>
        <time>2022-02-20T10:21:16Z</time>
      </trkpt>
      <trkpt lat="42.75843" lon="1.59249">
        <ele>1618.781</ele>
        <time>2022-02-20T10:21:18Z</time>
      </trkpt>
      <trkpt lat="42.75842" lon="1.5925">
        <ele>1618.657</ele>
        <time>2022-02-20T10:21:20Z</time>
      </trkpt>
      <trkpt lat="42.75842" lon="1.59252">
        <ele>1618.718</ele>
        <time>2022-02-20T10:21:22Z</time>
      </trkpt>
      <trkpt lat="42.75842" lon="1.59253">
        <ele>1618.983</ele>
        <time>2022-02-20T10:21:24Z</time>
      </trkpt>
      <trkpt lat="42.75842" lon="1.59254">
        <ele>1619.311</ele>
        <time>2022-02-20T10:21:26Z</time>
      </trkpt>
      <trkpt lat="42.75842" lon="1.59255">
        <ele>1619.585</ele>
        <time>2022-02-20T10:21:28Z</time>
      </trkpt>
      <trkpt lat="42.75841" lon="1.59257">
        <ele>1619.841</ele>
        <time>2022-02-20T10:21:30Z</time>
      </trkpt>
      <trkpt lat="42.7584" lon="1.59257">
        <ele>1619.405</ele>
        <time>2022-02-20T10:21:32Z</time>
      </trkpt>
      <trkpt lat="42.75839" lon="1.59259">
        <ele>1619.725</ele>
        <time>2022-02-20T10:21:34Z</time>
      </trkpt>
      <trkpt lat="42.75839" lon="1.59259">
        <ele>1619.828</ele>
        <time>2022-02-20T10:21:36Z</time>
      </trkpt>
      <trkpt lat="42.75839" lon="1.59261">
        <ele>1620.231</ele>
        <time>2022-02-20T10:21:38Z</time>
      </trkpt>
      <trkpt lat="42.75838" lon="1.59262">
        <ele>1620.766</ele>
        <time>2022-02-20T10:21:40Z</time>
      </trkpt>
      <trkpt lat="42.75838" lon="1.59263">
        <ele>1622.027</ele>
        <time>2022-02-20T10:21:42Z</time>
      </trkpt>
      <trkpt lat="42.75837" lon="1.59264">
        <ele>1621.91</ele>
        <time>2022-02-20T10:21:44Z</time>
      </trkpt>
      <trkpt lat="42.75837" lon="1.59265">
        <ele>1623.027</ele>
        <time>2022-02-20T10:21:46Z</time>
      </trkpt>
      <trkpt lat="42.75836" lon="1.59266">
        <ele>1623.833</ele>
        <time>2022-02-20T10:21:48Z</time>
      </trkpt>
      <trkpt lat="42.75836" lon="1.59267">
        <ele>1623.867</ele>
        <time>2022-02-20T10:21:50Z</time>
      </trkpt>
      <trkpt lat="42.75835" lon="1.59268">
        <ele>1624.22</ele>
        <time>2022-02-20T10:21:52Z</time>
      </trkpt>
      <trkpt lat="42.75834" lon="1.59269">
        <ele>1624.585</ele>
        <time>2022-02-20T10:21:54Z</time>
      </trkpt>
      <trkpt lat="42.75834" lon="1.5927">
        <ele>1624.537</ele>
        <time>2022-02-20T10:21:56Z</time>
      </trkpt>
      <trkpt lat="42.75833" lon="1.59271">
        <ele>1624.639</ele>
        <time>2022-02-20T10:21:58Z</time>
      </trkpt>
      <trkpt lat="42.75832" lon="1.59272">
        <ele>1624.569</ele>
        <time>2022-02-20T10:22:00Z</time>
      </trkpt>
      <trkpt lat="42.75832" lon="1.59274">
        <ele>1624.343</ele>
        <time>2022-02-20T10:22:02Z</time>
      </trkpt>
      <trkpt lat="42.75831" lon="1.59275">
        <ele>1625.572</ele>
        <time>2022-02-20T10:22:04Z</time>
      </trkpt>
      <trkpt lat="42.75831" lon="1.59277">
        <ele>1626.347</ele>
        <time>2022-02-20T10:22:06Z</time>
      </trkpt>
      <trkpt lat="42.75831" lon="1.59277">
        <ele>1626.381</ele>
        <time>2022-02-20T10:22:08Z</time>
      </trkpt>
      <trkpt lat="42.75831" lon="1.59279">
        <ele>1626.359</ele>
        <time>2022-02-20T10:22:10Z</time>
      </trkpt>
      <trkpt lat="42.75831" lon="1.5928">
        <ele>1626.158</ele>
        <time>2022-02-20T10:22:12Z</time>
      </trkpt>
      <trkpt lat="42.75831" lon="1.59282">
        <ele>1625.988</ele>
        <time>2022-02-20T10:22:14Z</time>
      </trkpt>
      <trkpt lat="42.7583" lon="1.59283">
        <ele>1626.522</ele>
        <time>2022-02-20T10:22:16Z</time>
      </trkpt>
      <trkpt lat="42.7583" lon="1.59284">
        <ele>1627.194</ele>
        <time>2022-02-20T10:22:18Z</time>
      </trkpt>
      <trkpt lat="42.7583" lon="1.59285">
        <ele>1627.27</ele>
        <time>2022-02-20T10:22:20Z</time>
      </trkpt>
      <trkpt lat="42.7583" lon="1.59286">
        <ele>1627.046</ele>
        <time>2022-02-20T10:22:22Z</time>
      </trkpt>
      <trkpt lat="42.75829" lon="1.59288">
        <ele>1627.299</ele>
        <time>2022-02-20T10:22:24Z</time>
      </trkpt>
      <trkpt lat="42.75829" lon="1.59289">
        <ele>1627.662</ele>
        <time>2022-02-20T10:22:26Z</time>
      </trkpt>
      <trkpt lat="42.75829" lon="1.59291">
        <ele>1628.192</ele>
        <time>2022-02-20T10:22:28Z</time>
      </trkpt>
      <trkpt lat="42.75828" lon="1.59292">
        <ele>1628.374</ele>
        <time>2022-02-20T10:22:30Z</time>
      </trkpt>
      <trkpt lat="42.75828" lon="1.59293">
        <ele>1628.304</ele>
        <time>2022-02-20T10:22:32Z</time>
      </trkpt>
      <trkpt lat="42.75828" lon="1.59295">
        <ele>1628.847</ele>
        <time>2022-02-20T10:22:34Z</time>
      </trkpt>
      <trkpt lat="42.75827" lon="1.59296">
        <ele>1629.42</ele>
        <time>2022-02-20T10:22:36Z</time>
      </trkpt>
      <trkpt lat="42.75827" lon="1.59296">
        <ele>1629.432</ele>
        <time>2022-02-20T10:22:38Z</time>
      </trkpt>
      <trkpt lat="42.75826" lon="1.59297">
        <ele>1628.832</ele>
        <time>2022-02-20T10:22:40Z</time>
      </trkpt>
      <trkpt lat="42.75826" lon="1.59299">
        <ele>1629.68</ele>
        <time>2022-02-20T10:22:42Z</time>
      </trkpt>
      <trkpt lat="42.75825" lon="1.593">
        <ele>1629.753</ele>
        <time>2022-02-20T10:22:44Z</time>
      </trkpt>
      <trkpt lat="42.75825" lon="1.59302">
        <ele>1630.661</ele>
        <time>2022-02-20T10:22:46Z</time>
      </trkpt>
      <trkpt lat="42.75824" lon="1.59303">
        <ele>1630.576</ele>
        <time>2022-02-20T10:22:48Z</time>
      </trkpt>
      <trkpt lat="42.75824" lon="1.59305">
        <ele>1631.093</ele>
        <time>2022-02-20T10:22:50Z</time>
      </trkpt>
      <trkpt lat="42.75823" lon="1.59306">
        <ele>1630.762</ele>
        <time>2022-02-20T10:22:52Z</time>
      </trkpt>
      <trkpt lat="42.75822" lon="1.59307">
        <ele>1630.602</ele>
        <time>2022-02-20T10:22:54Z</time>
      </trkpt>
      <trkpt lat="42.75822" lon="1.59309">
        <ele>1630.808</ele>
        <time>2022-02-20T10:22:56Z</time>
      </trkpt>
      <trkpt lat="42.75821" lon="1.5931">
        <ele>1631.669</ele>
        <time>2022-02-20T10:22:58Z</time>
      </trkpt>
      <trkpt lat="42.7582" lon="1.59311">
        <ele>1631.445</ele>
        <time>2022-02-20T10:23:00Z</time>
      </trkpt>
      <trkpt lat="42.75819" lon="1.59312">
        <ele>1631.313</ele>
        <time>2022-02-20T10:23:02Z</time>
      </trkpt>
      <trkpt lat="42.75819" lon="1.59314">
        <ele>1631.504</ele>
        <time>2022-02-20T10:23:04Z</time>
      </trkpt>
      <trkpt lat="42.75818" lon="1.59315">
        <ele>1631.695</ele>
        <time>2022-02-20T10:23:06Z</time>
      </trkpt>
      <trkpt lat="42.75817" lon="1.59316">
        <ele>1631.206</ele>
        <time>2022-02-20T10:23:08Z</time>
      </trkpt>
      <trkpt lat="42.75816" lon="1.59317">
        <ele>1631.08</ele>
        <time>2022-02-20T10:23:10Z</time>
      </trkpt>
      <trkpt lat="42.75816" lon="1.59318">
        <ele>1631.844</ele>
        <time>2022-02-20T10:23:12Z</time>
      </trkpt>
      <trkpt lat="42.75816" lon="1.59319">
        <ele>1632.526</ele>
        <time>2022-02-20T10:23:14Z</time>
      </trkpt>
      <trkpt lat="42.75815" lon="1.59319">
        <ele>1632.264</ele>
        <time>2022-02-20T10:23:16Z</time>
      </trkpt>
      <trkpt lat="42.75814" lon="1.59319">
        <ele>1632.866</ele>
        <time>2022-02-20T10:23:18Z</time>
      </trkpt>
      <trkpt lat="42.75813" lon="1.5932">
        <ele>1633.202</ele>
        <time>2022-02-20T10:23:20Z</time>
      </trkpt>
      <trkpt lat="42.75812" lon="1.5932">
        <ele>1633.992</ele>
        <time>2022-02-20T10:23:22Z</time>
      </trkpt>
      <trkpt lat="42.75811" lon="1.59321">
        <ele>1634.34</ele>
        <time>2022-02-20T10:23:24Z</time>
      </trkpt>
      <trkpt lat="42.75811" lon="1.59321">
        <ele>1634.641</ele>
        <time>2022-02-20T10:23:26Z</time>
      </trkpt>
      <trkpt lat="42.75811" lon="1.59321">
        <ele>1634.785</ele>
        <time>2022-02-20T10:23:28Z</time>
      </trkpt>
      <trkpt lat="42.7581" lon="1.59323">
        <ele>1635.541</ele>
        <time>2022-02-20T10:23:30Z</time>
      </trkpt>
      <trkpt lat="42.75809" lon="1.59324">
        <ele>1635.471</ele>
        <time>2022-02-20T10:23:32Z</time>
      </trkpt>
      <trkpt lat="42.75809" lon="1.59325">
        <ele>1635.3</ele>
        <time>2022-02-20T10:23:34Z</time>
      </trkpt>
      <trkpt lat="42.75808" lon="1.59326">
        <ele>1635.602</ele>
        <time>2022-02-20T10:23:36Z</time>
      </trkpt>
      <trkpt lat="42.75808" lon="1.59327">
        <ele>1635.708</ele>
        <time>2022-02-20T10:23:38Z</time>
      </trkpt>
      <trkpt lat="42.75808" lon="1.59328">
        <ele>1635.713</ele>
        <time>2022-02-20T10:23:40Z</time>
      </trkpt>
      <trkpt lat="42.75807" lon="1.59329">
        <ele>1636.12</ele>
        <time>2022-02-20T10:23:42Z</time>
      </trkpt>
      <trkpt lat="42.75807" lon="1.5933">
        <ele>1636.508</ele>
        <time>2022-02-20T10:23:44Z</time>
      </trkpt>
      <trkpt lat="42.75806" lon="1.59331">
        <ele>1637.165</ele>
        <time>2022-02-20T10:23:46Z</time>
      </trkpt>
      <trkpt lat="42.75805" lon="1.59332">
        <ele>1637.44</ele>
        <time>2022-02-20T10:23:48Z</time>
      </trkpt>
      <trkpt lat="42.75805" lon="1.59333">
        <ele>1637.804</ele>
        <time>2022-02-20T10:23:50Z</time>
      </trkpt>
      <trkpt lat="42.75804" lon="1.59334">
        <ele>1638.213</ele>
        <time>2022-02-20T10:23:52Z</time>
      </trkpt>
      <trkpt lat="42.75804" lon="1.59335">
        <ele>1638.789</ele>
        <time>2022-02-20T10:23:54Z</time>
      </trkpt>
      <trkpt lat="42.75803" lon="1.59336">
        <ele>1639.002</ele>
        <time>2022-02-20T10:23:56Z</time>
      </trkpt>
      <trkpt lat="42.75803" lon="1.59336">
        <ele>1639.067</ele>
        <time>2022-02-20T10:23:58Z</time>
      </trkpt>
      <trkpt lat="42.75802" lon="1.59338">
        <ele>1639.106</ele>
        <time>2022-02-20T10:24:00Z</time>
      </trkpt>
      <trkpt lat="42.75801" lon="1.59339">
        <ele>1639.786</ele>
        <time>2022-02-20T10:24:02Z</time>
      </trkpt>
      <trkpt lat="42.758" lon="1.5934">
        <ele>1640.512</ele>
        <time>2022-02-20T10:24:04Z</time>
      </trkpt>
      <trkpt lat="42.75799" lon="1.59341">
        <ele>1641.044</ele>
        <time>2022-02-20T10:24:06Z</time>
      </trkpt>
      <trkpt lat="42.75798" lon="1.59342">
        <ele>1641.162</ele>
        <time>2022-02-20T10:24:08Z</time>
      </trkpt>
      <trkpt lat="42.75798" lon="1.59344">
        <ele>1641.366</ele>
        <time>2022-02-20T10:24:10Z</time>
      </trkpt>
      <trkpt lat="42.75797" lon="1.59345">
        <ele>1641.979</ele>
        <time>2022-02-20T10:24:12Z</time>
      </trkpt>
      <trkpt lat="42.75796" lon="1.59346">
        <ele>1642.687</ele>
        <time>2022-02-20T10:24:14Z</time>
      </trkpt>
      <trkpt lat="42.75795" lon="1.59347">
        <ele>1643.657</ele>
        <time>2022-02-20T10:24:16Z</time>
      </trkpt>
      <trkpt lat="42.75794" lon="1.59348">
        <ele>1643.987</ele>
        <time>2022-02-20T10:24:18Z</time>
      </trkpt>
      <trkpt lat="42.75794" lon="1.59349">
        <ele>1644.416</ele>
        <time>2022-02-20T10:24:20Z</time>
      </trkpt>
      <trkpt lat="42.75793" lon="1.59351">
        <ele>1644.989</ele>
        <time>2022-02-20T10:24:22Z</time>
      </trkpt>
      <trkpt lat="42.75793" lon="1.59351">
        <ele>1644.747</ele>
        <time>2022-02-20T10:24:24Z</time>
      </trkpt>
      <trkpt lat="42.75793" lon="1.5935">
        <ele>1645.176</ele>
        <time>2022-02-20T10:24:26Z</time>
      </trkpt>
      <trkpt lat="42.75792" lon="1.59351">
        <ele>1645.039</ele>
        <time>2022-02-20T10:24:28Z</time>
      </trkpt>
      <trkpt lat="42.75792" lon="1.59352">
        <ele>1645.406</ele>
        <time>2022-02-20T10:24:30Z</time>
      </trkpt>
      <trkpt lat="42.75791" lon="1.59353">
        <ele>1645.218</ele>
        <time>2022-02-20T10:24:32Z</time>
      </trkpt>
      <trkpt lat="42.7579" lon="1.59354">
        <ele>1645.092</ele>
        <time>2022-02-20T10:24:34Z</time>
      </trkpt>
      <trkpt lat="42.75788" lon="1.59356">
        <ele>1644.664</ele>
        <time>2022-02-20T10:24:36Z</time>
      </trkpt>
      <trkpt lat="42.75787" lon="1.59357">
        <ele>1644.83</ele>
        <time>2022-02-20T10:24:38Z</time>
      </trkpt>
      <trkpt lat="42.75787" lon="1.59359">
        <ele>1644.604</ele>
        <time>2022-02-20T10:24:40Z</time>
      </trkpt>
      <trkpt lat="42.75786" lon="1.5936">
        <ele>1644.859</ele>
        <time>2022-02-20T10:24:42Z</time>
      </trkpt>
      <trkpt lat="42.75785" lon="1.59361">
        <ele>1645.455</ele>
        <time>2022-02-20T10:24:44Z</time>
      </trkpt>
      <trkpt lat="42.75784" lon="1.59363">
        <ele>1645.353</ele>
        <time>2022-02-20T10:24:46Z</time>
      </trkpt>
      <trkpt lat="42.75783" lon="1.59364">
        <ele>1645.248</ele>
        <time>2022-02-20T10:24:48Z</time>
      </trkpt>
      <trkpt lat="42.75782" lon="1.59365">
        <ele>1644.423</ele>
        <time>2022-02-20T10:24:50Z</time>
      </trkpt>
      <trkpt lat="42.75782" lon="1.59366">
        <ele>1644.983</ele>
        <time>2022-02-20T10:24:52Z</time>
      </trkpt>
      <trkpt lat="42.75781" lon="1.59367">
        <ele>1645.358</ele>
        <time>2022-02-20T10:24:54Z</time>
      </trkpt>
      <trkpt lat="42.7578" lon="1.59368">
        <ele>1644.851</ele>
        <time>2022-02-20T10:24:56Z</time>
      </trkpt>
      <trkpt lat="42.75779" lon="1.5937">
        <ele>1644.707</ele>
        <time>2022-02-20T10:24:58Z</time>
      </trkpt>
      <trkpt lat="42.75778" lon="1.59371">
        <ele>1644.519</ele>
        <time>2022-02-20T10:25:00Z</time>
      </trkpt>
      <trkpt lat="42.75777" lon="1.59372">
        <ele>1644.892</ele>
        <time>2022-02-20T10:25:02Z</time>
      </trkpt>
      <trkpt lat="42.75776" lon="1.59373">
        <ele>1645.672</ele>
        <time>2022-02-20T10:25:04Z</time>
      </trkpt>
      <trkpt lat="42.75776" lon="1.59374">
        <ele>1646.153</ele>
        <time>2022-02-20T10:25:06Z</time>
      </trkpt>
      <trkpt lat="42.75775" lon="1.59376">
        <ele>1646.496</ele>
        <time>2022-02-20T10:25:08Z</time>
      </trkpt>
      <trkpt lat="42.75774" lon="1.59377">
        <ele>1646.646</ele>
        <time>2022-02-20T10:25:10Z</time>
      </trkpt>
      <trkpt lat="42.75773" lon="1.59378">
        <ele>1646.929</ele>
        <time>2022-02-20T10:25:12Z</time>
      </trkpt>
      <trkpt lat="42.75772" lon="1.5938">
        <ele>1646.875</ele>
        <time>2022-02-20T10:25:14Z</time>
      </trkpt>
      <trkpt lat="42.75772" lon="1.59381">
        <ele>1646.966</ele>
        <time>2022-02-20T10:25:16Z</time>
      </trkpt>
      <trkpt lat="42.75771" lon="1.59383">
        <ele>1647.281</ele>
        <time>2022-02-20T10:25:18Z</time>
      </trkpt>
      <trkpt lat="42.7577" lon="1.59385">
        <ele>1646.765</ele>
        <time>2022-02-20T10:25:20Z</time>
      </trkpt>
      <trkpt lat="42.75769" lon="1.59386">
        <ele>1646.79</ele>
        <time>2022-02-20T10:25:22Z</time>
      </trkpt>
      <trkpt lat="42.75768" lon="1.59388">
        <ele>1646.833</ele>
        <time>2022-02-20T10:25:24Z</time>
      </trkpt>
      <trkpt lat="42.75767" lon="1.59389">
        <ele>1647.053</ele>
        <time>2022-02-20T10:25:26Z</time>
      </trkpt>
      <trkpt lat="42.75766" lon="1.5939">
        <ele>1646.913</ele>
        <time>2022-02-20T10:25:28Z</time>
      </trkpt>
      <trkpt lat="42.75765" lon="1.59391">
        <ele>1647.246</ele>
        <time>2022-02-20T10:25:30Z</time>
      </trkpt>
      <trkpt lat="42.75764" lon="1.59393">
        <ele>1647.706</ele>
        <time>2022-02-20T10:25:32Z</time>
      </trkpt>
      <trkpt lat="42.75763" lon="1.59394">
        <ele>1647.808</ele>
        <time>2022-02-20T10:25:34Z</time>
      </trkpt>
      <trkpt lat="42.75761" lon="1.59396">
        <ele>1647.941</ele>
        <time>2022-02-20T10:25:36Z</time>
      </trkpt>
      <trkpt lat="42.7576" lon="1.59397">
        <ele>1647.881</ele>
        <time>2022-02-20T10:25:38Z</time>
      </trkpt>
      <trkpt lat="42.75759" lon="1.59398">
        <ele>1648.158</ele>
        <time>2022-02-20T10:25:40Z</time>
      </trkpt>
      <trkpt lat="42.75758" lon="1.59399">
        <ele>1648.225</ele>
        <time>2022-02-20T10:25:42Z</time>
      </trkpt>
      <trkpt lat="42.75757" lon="1.594">
        <ele>1648.257</ele>
        <time>2022-02-20T10:25:44Z</time>
      </trkpt>
      <trkpt lat="42.75756" lon="1.59402">
        <ele>1647.981</ele>
        <time>2022-02-20T10:25:46Z</time>
      </trkpt>
      <trkpt lat="42.75755" lon="1.59403">
        <ele>1648.051</ele>
        <time>2022-02-20T10:25:48Z</time>
      </trkpt>
      <trkpt lat="42.75755" lon="1.59404">
        <ele>1648.365</ele>
        <time>2022-02-20T10:25:50Z</time>
      </trkpt>
      <trkpt lat="42.75753" lon="1.59406">
        <ele>1648.503</ele>
        <time>2022-02-20T10:25:52Z</time>
      </trkpt>
      <trkpt lat="42.75752" lon="1.59407">
        <ele>1648.736</ele>
        <time>2022-02-20T10:25:54Z</time>
      </trkpt>
      <trkpt lat="42.75752" lon="1.59408">
        <ele>1649.252</ele>
        <time>2022-02-20T10:25:56Z</time>
      </trkpt>
      <trkpt lat="42.75752" lon="1.59408">
        <ele>1649.263</ele>
        <time>2022-02-20T10:25:58Z</time>
      </trkpt>
      <trkpt lat="42.75752" lon="1.59408">
        <ele>1649.267</ele>
        <time>2022-02-20T10:26:00Z</time>
      </trkpt>
      <trkpt lat="42.75752" lon="1.59408">
        <ele>1649.269</ele>
        <time>2022-02-20T10:26:02Z</time>
      </trkpt>
      <trkpt lat="42.75752" lon="1.59408">
        <ele>1649.268</ele>
        <time>2022-02-20T10:26:04Z</time>
      </trkpt>
      <trkpt lat="42.75752" lon="1.59408">
        <ele>1649.155</ele>
        <time>2022-02-20T10:26:06Z</time>
      </trkpt>
      <trkpt lat="42.75751" lon="1.59407">
        <ele>1648.953</ele>
        <time>2022-02-20T10:26:08Z</time>
      </trkpt>
      <trkpt lat="42.75751" lon="1.59407">
        <ele>1649.383</ele>
        <time>2022-02-20T10:26:10Z</time>
      </trkpt>
      <trkpt lat="42.75751" lon="1.59407">
        <ele>1649.385</ele>
        <time>2022-02-20T10:26:12Z</time>
      </trkpt>
      <trkpt lat="42.75751" lon="1.59407">
        <ele>1649.384</ele>
        <time>2022-02-20T10:26:14Z</time>
      </trkpt>
      <trkpt lat="42.75751" lon="1.59407">
        <ele>1649.38</ele>
        <time>2022-02-20T10:26:16Z</time>
      </trkpt>
      <trkpt lat="42.75751" lon="1.59407">
        <ele>1649.376</ele>
        <time>2022-02-20T10:26:18Z</time>
      </trkpt>
      <trkpt lat="42.75751" lon="1.59407">
        <ele>1649.377</ele>
        <time>2022-02-20T10:26:20Z</time>
      </trkpt>
      <trkpt lat="42.75751" lon="1.59407">
        <ele>1649.378</ele>
        <time>2022-02-20T10:26:22Z</time>
      </trkpt>
      <trkpt lat="42.75751" lon="1.59407">
        <ele>1649.38</ele>
        <time>2022-02-20T10:26:24Z</time>
      </trkpt>
      <trkpt lat="42.75751" lon="1.59407">
        <ele>1649.379</ele>
        <time>2022-02-20T10:26:26Z</time>
      </trkpt>
      <trkpt lat="42.75751" lon="1.59407">
        <ele>1649.381</ele>
        <time>2022-02-20T10:26:28Z</time>
      </trkpt>
      <trkpt lat="42.75751" lon="1.59407">
        <ele>1649.376</ele>
        <time>2022-02-20T10:26:30Z</time>
      </trkpt>
      <trkpt lat="42.75751" lon="1.59407">
        <ele>1649.374</ele>
        <time>2022-02-20T10:26:32Z</time>
      </trkpt>
      <trkpt lat="42.75751" lon="1.59407">
        <ele>1649.305</ele>
        <time>2022-02-20T10:26:34Z</time>
      </trkpt>
      <trkpt lat="42.75751" lon="1.59407">
        <ele>1649.314</ele>
        <time>2022-02-20T10:26:36Z</time>
      </trkpt>
      <trkpt lat="42.75751" lon="1.59407">
        <ele>1649.316</ele>
        <time>2022-02-20T10:26:38Z</time>
      </trkpt>
      <trkpt lat="42.75751" lon="1.59407">
        <ele>1649.376</ele>
        <time>2022-02-20T10:26:40Z</time>
      </trkpt>
      <trkpt lat="42.75751" lon="1.59407">
        <ele>1649.371</ele>
        <time>2022-02-20T10:26:42Z</time>
      </trkpt>
      <trkpt lat="42.75751" lon="1.59407">
        <ele>1649.373</ele>
        <time>2022-02-20T10:26:44Z</time>
      </trkpt>
      <trkpt lat="42.75751" lon="1.59407">
        <ele>1649.369</ele>
        <time>2022-02-20T10:26:46Z</time>
      </trkpt>
      <trkpt lat="42.75751" lon="1.59407">
        <ele>1649.375</ele>
        <time>2022-02-20T10:26:48Z</time>
      </trkpt>
      <trkpt lat="42.75751" lon="1.59407">
        <ele>1649.372</ele>
        <time>2022-02-20T10:26:50Z</time>
      </trkpt>
      <trkpt lat="42.75751" lon="1.59407">
        <ele>1649.37</ele>
        <time>2022-02-20T10:26:52Z</time>
      </trkpt>
      <trkpt lat="42.7575" lon="1.59407">
        <ele>1650.009</ele>
        <time>2022-02-20T10:26:54Z</time>
      </trkpt>
      <trkpt lat="42.7575" lon="1.59407">
        <ele>1650.03</ele>
        <time>2022-02-20T10:26:56Z</time>
      </trkpt>
      <trkpt lat="42.7575" lon="1.59407">
        <ele>1650.125</ele>
        <time>2022-02-20T10:26:58Z</time>
      </trkpt>
      <trkpt lat="42.75751" lon="1.59407">
        <ele>1650.67</ele>
        <time>2022-02-20T10:27:01Z</time>
      </trkpt>
      <trkpt lat="42.75751" lon="1.59407">
        <ele>1650.671</ele>
        <time>2022-02-20T10:27:03Z</time>
      </trkpt>
      <trkpt lat="42.75751" lon="1.59407">
        <ele>1650.548</ele>
        <time>2022-02-20T10:27:05Z</time>
      </trkpt>
      <trkpt lat="42.75751" lon="1.59407">
        <ele>1649.953</ele>
        <time>2022-02-20T10:27:07Z</time>
      </trkpt>
      <trkpt lat="42.75752" lon="1.59408">
        <ele>1650.309</ele>
        <time>2022-02-20T10:27:09Z</time>
      </trkpt>
      <trkpt lat="42.75752" lon="1.59409">
        <ele>1650.367</ele>
        <time>2022-02-20T10:27:11Z</time>
      </trkpt>
      <trkpt lat="42.75752" lon="1.59411">
        <ele>1650.995</ele>
        <time>2022-02-20T10:27:13Z</time>
      </trkpt>
      <trkpt lat="42.75752" lon="1.59412">
        <ele>1651.05</ele>
        <time>2022-02-20T10:27:15Z</time>
      </trkpt>
      <trkpt lat="42.75752" lon="1.59412">
        <ele>1651.358</ele>
        <time>2022-02-20T10:27:17Z</time>
      </trkpt>
      <trkpt lat="42.75752" lon="1.59412">
        <ele>1651.568</ele>
        <time>2022-02-20T10:27:19Z</time>
      </trkpt>
      <trkpt lat="42.75752" lon="1.59412">
        <ele>1651.567</ele>
        <time>2022-02-20T10:27:21Z</time>
      </trkpt>
      <trkpt lat="42.75752" lon="1.59412">
        <ele>1651.565</ele>
        <time>2022-02-20T10:27:23Z</time>
      </trkpt>
      <trkpt lat="42.75752" lon="1.59412">
        <ele>1651.564</ele>
        <time>2022-02-20T10:27:25Z</time>
      </trkpt>
      <trkpt lat="42.75752" lon="1.59412">
        <ele>1651.56</ele>
        <time>2022-02-20T10:27:27Z</time>
      </trkpt>
      <trkpt lat="42.75752" lon="1.59412">
        <ele>1651.567</ele>
        <time>2022-02-20T10:27:29Z</time>
      </trkpt>
      <trkpt lat="42.75752" lon="1.59412">
        <ele>1651.569</ele>
        <time>2022-02-20T10:27:31Z</time>
      </trkpt>
      <trkpt lat="42.75752" lon="1.59412">
        <ele>1651.568</ele>
        <time>2022-02-20T10:27:33Z</time>
      </trkpt>
      <trkpt lat="42.75752" lon="1.59412">
        <ele>1651.57</ele>
        <time>2022-02-20T10:27:35Z</time>
      </trkpt>
      <trkpt lat="42.75752" lon="1.59412">
        <ele>1651.571</ele>
        <time>2022-02-20T10:27:37Z</time>
      </trkpt>
      <trkpt lat="42.75752" lon="1.59412">
        <ele>1651.576</ele>
        <time>2022-02-20T10:27:39Z</time>
      </trkpt>
      <trkpt lat="42.75752" lon="1.59412">
        <ele>1651.576</ele>
        <time>2022-02-20T10:27:41Z</time>
      </trkpt>
      <trkpt lat="42.75752" lon="1.59412">
        <ele>1651.58</ele>
        <time>2022-02-20T10:27:43Z</time>
      </trkpt>
      <trkpt lat="42.75752" lon="1.59412">
        <ele>1651.583</ele>
        <time>2022-02-20T10:27:45Z</time>
      </trkpt>
      <trkpt lat="42.75752" lon="1.59412">
        <ele>1651.578</ele>
        <time>2022-02-20T10:27:47Z</time>
      </trkpt>
      <trkpt lat="42.75752" lon="1.59412">
        <ele>1651.583</ele>
        <time>2022-02-20T10:27:49Z</time>
      </trkpt>
      <trkpt lat="42.75752" lon="1.59412">
        <ele>1651.582</ele>
        <time>2022-02-20T10:27:51Z</time>
      </trkpt>
      <trkpt lat="42.75752" lon="1.59412">
        <ele>1651.584</ele>
        <time>2022-02-20T10:27:53Z</time>
      </trkpt>
      <trkpt lat="42.75752" lon="1.59412">
        <ele>1651.584</ele>
        <time>2022-02-20T10:27:55Z</time>
      </trkpt>
      <trkpt lat="42.75752" lon="1.59412">
        <ele>1651.581</ele>
        <time>2022-02-20T10:27:57Z</time>
      </trkpt>
      <trkpt lat="42.75752" lon="1.59412">
        <ele>1651.578</ele>
        <time>2022-02-20T10:27:59Z</time>
      </trkpt>
      <trkpt lat="42.75752" lon="1.59412">
        <ele>1651.581</ele>
        <time>2022-02-20T10:28:01Z</time>
      </trkpt>
      <trkpt lat="42.75752" lon="1.59412">
        <ele>1651.586</ele>
        <time>2022-02-20T10:28:03Z</time>
      </trkpt>
      <trkpt lat="42.75752" lon="1.59412">
        <ele>1651.581</ele>
        <time>2022-02-20T10:28:05Z</time>
      </trkpt>
      <trkpt lat="42.75752" lon="1.59412">
        <ele>1651.581</ele>
        <time>2022-02-20T10:28:07Z</time>
      </trkpt>
      <trkpt lat="42.75752" lon="1.59412">
        <ele>1651.584</ele>
        <time>2022-02-20T10:28:09Z</time>
      </trkpt>
      <trkpt lat="42.75752" lon="1.59412">
        <ele>1651.584</ele>
        <time>2022-02-20T10:28:11Z</time>
      </trkpt>
      <trkpt lat="42.75752" lon="1.59412">
        <ele>1651.584</ele>
        <time>2022-02-20T10:28:13Z</time>
      </trkpt>
      <trkpt lat="42.75752" lon="1.59412">
        <ele>1651.588</ele>
        <time>2022-02-20T10:28:15Z</time>
      </trkpt>
      <trkpt lat="42.75752" lon="1.59412">
        <ele>1651.59</ele>
        <time>2022-02-20T10:28:17Z</time>
      </trkpt>
      <trkpt lat="42.75752" lon="1.59412">
        <ele>1651.592</ele>
        <time>2022-02-20T10:28:19Z</time>
      </trkpt>
      <trkpt lat="42.75752" lon="1.59412">
        <ele>1651.594</ele>
        <time>2022-02-20T10:28:21Z</time>
      </trkpt>
      <trkpt lat="42.75752" lon="1.59412">
        <ele>1651.597</ele>
        <time>2022-02-20T10:28:23Z</time>
      </trkpt>
      <trkpt lat="42.75752" lon="1.59412">
        <ele>1651.575</ele>
        <time>2022-02-20T10:28:25Z</time>
      </trkpt>
      <trkpt lat="42.75752" lon="1.59412">
        <ele>1651.591</ele>
        <time>2022-02-20T10:28:27Z</time>
      </trkpt>
      <trkpt lat="42.75752" lon="1.59412">
        <ele>1651.394</ele>
        <time>2022-02-20T10:28:29Z</time>
      </trkpt>
      <trkpt lat="42.75752" lon="1.59412">
        <ele>1651.391</ele>
        <time>2022-02-20T10:28:31Z</time>
      </trkpt>
      <trkpt lat="42.75752" lon="1.59412">
        <ele>1651.572</ele>
        <time>2022-02-20T10:28:33Z</time>
      </trkpt>
      <trkpt lat="42.75752" lon="1.59412">
        <ele>1651.563</ele>
        <time>2022-02-20T10:28:35Z</time>
      </trkpt>
      <trkpt lat="42.75752" lon="1.59412">
        <ele>1651.562</ele>
        <time>2022-02-20T10:28:37Z</time>
      </trkpt>
      <trkpt lat="42.75752" lon="1.59412">
        <ele>1651.56</ele>
        <time>2022-02-20T10:28:39Z</time>
      </trkpt>
      <trkpt lat="42.75752" lon="1.59412">
        <ele>1651.559</ele>
        <time>2022-02-20T10:28:41Z</time>
      </trkpt>
      <trkpt lat="42.75752" lon="1.59412">
        <ele>1651.559</ele>
        <time>2022-02-20T10:28:43Z</time>
      </trkpt>
      <trkpt lat="42.75752" lon="1.59412">
        <ele>1651.42</ele>
        <time>2022-02-20T10:28:45Z</time>
      </trkpt>
      <trkpt lat="42.75752" lon="1.59412">
        <ele>1651.411</ele>
        <time>2022-02-20T10:28:47Z</time>
      </trkpt>
      <trkpt lat="42.75752" lon="1.59412">
        <ele>1651.405</ele>
        <time>2022-02-20T10:28:49Z</time>
      </trkpt>
      <trkpt lat="42.75752" lon="1.59412">
        <ele>1651.399</ele>
        <time>2022-02-20T10:28:51Z</time>
      </trkpt>
      <trkpt lat="42.75752" lon="1.59412">
        <ele>1651.397</ele>
        <time>2022-02-20T10:28:53Z</time>
      </trkpt>
      <trkpt lat="42.75752" lon="1.59412">
        <ele>1651.397</ele>
        <time>2022-02-20T10:28:55Z</time>
      </trkpt>
      <trkpt lat="42.75752" lon="1.59412">
        <ele>1651.393</ele>
        <time>2022-02-20T10:28:57Z</time>
      </trkpt>
      <trkpt lat="42.75752" lon="1.59412">
        <ele>1651.393</ele>
        <time>2022-02-20T10:28:59Z</time>
      </trkpt>
      <trkpt lat="42.75752" lon="1.59412">
        <ele>1651.394</ele>
        <time>2022-02-20T10:29:01Z</time>
      </trkpt>
      <trkpt lat="42.75752" lon="1.59412">
        <ele>1651.39</ele>
        <time>2022-02-20T10:29:03Z</time>
      </trkpt>
      <trkpt lat="42.75752" lon="1.59412">
        <ele>1651.19</ele>
        <time>2022-02-20T10:29:05Z</time>
      </trkpt>
      <trkpt lat="42.75752" lon="1.59413">
        <ele>1650.9</ele>
        <time>2022-02-20T10:29:07Z</time>
      </trkpt>
      <trkpt lat="42.75752" lon="1.59413">
        <ele>1650.895</ele>
        <time>2022-02-20T10:29:09Z</time>
      </trkpt>
      <trkpt lat="42.75752" lon="1.59413">
        <ele>1650.89</ele>
        <time>2022-02-20T10:29:11Z</time>
      </trkpt>
      <trkpt lat="42.75752" lon="1.59413">
        <ele>1650.888</ele>
        <time>2022-02-20T10:29:13Z</time>
      </trkpt>
      <trkpt lat="42.75752" lon="1.59413">
        <ele>1650.886</ele>
        <time>2022-02-20T10:29:15Z</time>
      </trkpt>
      <trkpt lat="42.75752" lon="1.59413">
        <ele>1650.885</ele>
        <time>2022-02-20T10:29:17Z</time>
      </trkpt>
      <trkpt lat="42.75752" lon="1.59413">
        <ele>1650.883</ele>
        <time>2022-02-20T10:29:19Z</time>
      </trkpt>
      <trkpt lat="42.75752" lon="1.59413">
        <ele>1650.881</ele>
        <time>2022-02-20T10:29:21Z</time>
      </trkpt>
      <trkpt lat="42.75752" lon="1.59413">
        <ele>1650.88</ele>
        <time>2022-02-20T10:29:23Z</time>
      </trkpt>
      <trkpt lat="42.75752" lon="1.59413">
        <ele>1650.879</ele>
        <time>2022-02-20T10:29:25Z</time>
      </trkpt>
      <trkpt lat="42.75752" lon="1.59413">
        <ele>1650.879</ele>
        <time>2022-02-20T10:29:27Z</time>
      </trkpt>
      <trkpt lat="42.75752" lon="1.59413">
        <ele>1650.876</ele>
        <time>2022-02-20T10:29:29Z</time>
      </trkpt>
      <trkpt lat="42.75752" lon="1.59413">
        <ele>1650.877</ele>
        <time>2022-02-20T10:29:31Z</time>
      </trkpt>
      <trkpt lat="42.75752" lon="1.59413">
        <ele>1650.879</ele>
        <time>2022-02-20T10:29:33Z</time>
      </trkpt>
      <trkpt lat="42.75752" lon="1.59413">
        <ele>1650.879</ele>
        <time>2022-02-20T10:29:35Z</time>
      </trkpt>
      <trkpt lat="42.75752" lon="1.59413">
        <ele>1650.88</ele>
        <time>2022-02-20T10:29:37Z</time>
      </trkpt>
      <trkpt lat="42.75752" lon="1.59413">
        <ele>1650.877</ele>
        <time>2022-02-20T10:29:39Z</time>
      </trkpt>
      <trkpt lat="42.75752" lon="1.59413">
        <ele>1650.876</ele>
        <time>2022-02-20T10:29:41Z</time>
      </trkpt>
      <trkpt lat="42.75752" lon="1.59413">
        <ele>1650.877</ele>
        <time>2022-02-20T10:29:43Z</time>
      </trkpt>
      <trkpt lat="42.75752" lon="1.59413">
        <ele>1650.872</ele>
        <time>2022-02-20T10:29:45Z</time>
      </trkpt>
      <trkpt lat="42.75752" lon="1.59413">
        <ele>1650.871</ele>
        <time>2022-02-20T10:29:47Z</time>
      </trkpt>
      <trkpt lat="42.75752" lon="1.59413">
        <ele>1650.87</ele>
        <time>2022-02-20T10:29:49Z</time>
      </trkpt>
      <trkpt lat="42.75752" lon="1.59413">
        <ele>1650.87</ele>
        <time>2022-02-20T10:29:51Z</time>
      </trkpt>
      <trkpt lat="42.75752" lon="1.59413">
        <ele>1650.87</ele>
        <time>2022-02-20T10:29:53Z</time>
      </trkpt>
      <trkpt lat="42.75752" lon="1.59413">
        <ele>1650.877</ele>
        <time>2022-02-20T10:29:55Z</time>
      </trkpt>
      <trkpt lat="42.75752" lon="1.59413">
        <ele>1650.877</ele>
        <time>2022-02-20T10:29:57Z</time>
      </trkpt>
      <trkpt lat="42.75752" lon="1.59413">
        <ele>1650.874</ele>
        <time>2022-02-20T10:29:59Z</time>
      </trkpt>
      <trkpt lat="42.75752" lon="1.59413">
        <ele>1650.872</ele>
        <time>2022-02-20T10:30:01Z</time>
      </trkpt>
      <trkpt lat="42.75752" lon="1.59413">
        <ele>1650.87</ele>
        <time>2022-02-20T10:30:03Z</time>
      </trkpt>
      <trkpt lat="42.75752" lon="1.59413">
        <ele>1650.866</ele>
        <time>2022-02-20T10:30:05Z</time>
      </trkpt>
      <trkpt lat="42.75752" lon="1.59413">
        <ele>1650.862</ele>
        <time>2022-02-20T10:30:07Z</time>
      </trkpt>
      <trkpt lat="42.75752" lon="1.59413">
        <ele>1650.862</ele>
        <time>2022-02-20T10:30:09Z</time>
      </trkpt>
      <trkpt lat="42.75752" lon="1.59413">
        <ele>1650.862</ele>
        <time>2022-02-20T10:30:11Z</time>
      </trkpt>
      <trkpt lat="42.75752" lon="1.59413">
        <ele>1650.86</ele>
        <time>2022-02-20T10:30:13Z</time>
      </trkpt>
      <trkpt lat="42.75752" lon="1.59413">
        <ele>1650.856</ele>
        <time>2022-02-20T10:30:15Z</time>
      </trkpt>
      <trkpt lat="42.75752" lon="1.59413">
        <ele>1650.853</ele>
        <time>2022-02-20T10:30:17Z</time>
      </trkpt>
      <trkpt lat="42.75752" lon="1.59413">
        <ele>1650.85</ele>
        <time>2022-02-20T10:30:19Z</time>
      </trkpt>
      <trkpt lat="42.75752" lon="1.59413">
        <ele>1650.844</ele>
        <time>2022-02-20T10:30:21Z</time>
      </trkpt>
      <trkpt lat="42.75752" lon="1.59413">
        <ele>1650.844</ele>
        <time>2022-02-20T10:30:23Z</time>
      </trkpt>
      <trkpt lat="42.75752" lon="1.59413">
        <ele>1650.841</ele>
        <time>2022-02-20T10:30:25Z</time>
      </trkpt>
      <trkpt lat="42.75752" lon="1.59413">
        <ele>1650.839</ele>
        <time>2022-02-20T10:30:27Z</time>
      </trkpt>
      <trkpt lat="42.75752" lon="1.59413">
        <ele>1650.838</ele>
        <time>2022-02-20T10:30:29Z</time>
      </trkpt>
      <trkpt lat="42.75752" lon="1.59413">
        <ele>1650.835</ele>
        <time>2022-02-20T10:30:31Z</time>
      </trkpt>
      <trkpt lat="42.75752" lon="1.59413">
        <ele>1650.833</ele>
        <time>2022-02-20T10:30:33Z</time>
      </trkpt>
      <trkpt lat="42.75752" lon="1.59413">
        <ele>1650.831</ele>
        <time>2022-02-20T10:30:35Z</time>
      </trkpt>
      <trkpt lat="42.75752" lon="1.59413">
        <ele>1650.828</ele>
        <time>2022-02-20T10:30:37Z</time>
      </trkpt>
      <trkpt lat="42.75752" lon="1.59413">
        <ele>1650.825</ele>
        <time>2022-02-20T10:30:39Z</time>
      </trkpt>
      <trkpt lat="42.75752" lon="1.59413">
        <ele>1650.822</ele>
        <time>2022-02-20T10:30:41Z</time>
      </trkpt>
      <trkpt lat="42.75752" lon="1.59413">
        <ele>1650.821</ele>
        <time>2022-02-20T10:30:43Z</time>
      </trkpt>
      <trkpt lat="42.75752" lon="1.59413">
        <ele>1650.82</ele>
        <time>2022-02-20T10:30:45Z</time>
      </trkpt>
      <trkpt lat="42.75752" lon="1.59413">
        <ele>1650.718</ele>
        <time>2022-02-20T10:30:47Z</time>
      </trkpt>
      <trkpt lat="42.75752" lon="1.59413">
        <ele>1650.721</ele>
        <time>2022-02-20T10:30:49Z</time>
      </trkpt>
      <trkpt lat="42.75752" lon="1.59413">
        <ele>1650.719</ele>
        <time>2022-02-20T10:30:51Z</time>
      </trkpt>
      <trkpt lat="42.75752" lon="1.59413">
        <ele>1650.728</ele>
        <time>2022-02-20T10:30:53Z</time>
      </trkpt>
      <trkpt lat="42.75752" lon="1.59413">
        <ele>1650.737</ele>
        <time>2022-02-20T10:30:55Z</time>
      </trkpt>
      <trkpt lat="42.75752" lon="1.59413">
        <ele>1650.719</ele>
        <time>2022-02-20T10:30:57Z</time>
      </trkpt>
      <trkpt lat="42.75751" lon="1.59414">
        <ele>1650.602</ele>
        <time>2022-02-20T10:30:59Z</time>
      </trkpt>
      <trkpt lat="42.7575" lon="1.59416">
        <ele>1650.089</ele>
        <time>2022-02-20T10:31:01Z</time>
      </trkpt>
      <trkpt lat="42.75748" lon="1.59418">
        <ele>1650.254</ele>
        <time>2022-02-20T10:31:03Z</time>
      </trkpt>
      <trkpt lat="42.75747" lon="1.59419">
        <ele>1650.097</ele>
        <time>2022-02-20T10:31:05Z</time>
      </trkpt>
      <trkpt lat="42.75746" lon="1.59421">
        <ele>1649.599</ele>
        <time>2022-02-20T10:31:07Z</time>
      </trkpt>
      <trkpt lat="42.75744" lon="1.59423">
        <ele>1649.794</ele>
        <time>2022-02-20T10:31:09Z</time>
      </trkpt>
      <trkpt lat="42.75743" lon="1.59425">
        <ele>1649.58</ele>
        <time>2022-02-20T10:31:11Z</time>
      </trkpt>
      <trkpt lat="42.75742" lon="1.59426">
        <ele>1649.234</ele>
        <time>2022-02-20T10:31:13Z</time>
      </trkpt>
      <trkpt lat="42.75741" lon="1.59428">
        <ele>1649.278</ele>
        <time>2022-02-20T10:31:15Z</time>
      </trkpt>
      <trkpt lat="42.75739" lon="1.59429">
        <ele>1649.185</ele>
        <time>2022-02-20T10:31:17Z</time>
      </trkpt>
      <trkpt lat="42.75738" lon="1.59431">
        <ele>1648.967</ele>
        <time>2022-02-20T10:31:19Z</time>
      </trkpt>
      <trkpt lat="42.75737" lon="1.59431">
        <ele>1648.663</ele>
        <time>2022-02-20T10:31:21Z</time>
      </trkpt>
      <trkpt lat="42.75735" lon="1.59432">
        <ele>1648.591</ele>
        <time>2022-02-20T10:31:23Z</time>
      </trkpt>
      <trkpt lat="42.75733" lon="1.59433">
        <ele>1648.467</ele>
        <time>2022-02-20T10:31:25Z</time>
      </trkpt>
      <trkpt lat="42.75731" lon="1.59434">
        <ele>1648.804</ele>
        <time>2022-02-20T10:31:27Z</time>
      </trkpt>
      <trkpt lat="42.75729" lon="1.59435">
        <ele>1648.504</ele>
        <time>2022-02-20T10:31:29Z</time>
      </trkpt>
      <trkpt lat="42.75728" lon="1.59436">
        <ele>1648.376</ele>
        <time>2022-02-20T10:31:31Z</time>
      </trkpt>
      <trkpt lat="42.75726" lon="1.59438">
        <ele>1648.329</ele>
        <time>2022-02-20T10:31:33Z</time>
      </trkpt>
      <trkpt lat="42.75725" lon="1.59439">
        <ele>1648.234</ele>
        <time>2022-02-20T10:31:35Z</time>
      </trkpt>
      <trkpt lat="42.75724" lon="1.59442">
        <ele>1648.228</ele>
        <time>2022-02-20T10:31:37Z</time>
      </trkpt>
      <trkpt lat="42.75722" lon="1.59443">
        <ele>1648.189</ele>
        <time>2022-02-20T10:31:39Z</time>
      </trkpt>
      <trkpt lat="42.75721" lon="1.59445">
        <ele>1648.143</ele>
        <time>2022-02-20T10:31:41Z</time>
      </trkpt>
      <trkpt lat="42.75719" lon="1.59446">
        <ele>1647.755</ele>
        <time>2022-02-20T10:31:43Z</time>
      </trkpt>
      <trkpt lat="42.75718" lon="1.59448">
        <ele>1647.528</ele>
        <time>2022-02-20T10:31:45Z</time>
      </trkpt>
      <trkpt lat="42.75716" lon="1.59449">
        <ele>1647.269</ele>
        <time>2022-02-20T10:31:47Z</time>
      </trkpt>
      <trkpt lat="42.75714" lon="1.5945">
        <ele>1646.874</ele>
        <time>2022-02-20T10:31:49Z</time>
      </trkpt>
      <trkpt lat="42.75713" lon="1.59451">
        <ele>1646.581</ele>
        <time>2022-02-20T10:31:51Z</time>
      </trkpt>
      <trkpt lat="42.75712" lon="1.59454">
        <ele>1646.879</ele>
        <time>2022-02-20T10:31:53Z</time>
      </trkpt>
      <trkpt lat="42.7571" lon="1.59456">
        <ele>1646.835</ele>
        <time>2022-02-20T10:31:55Z</time>
      </trkpt>
      <trkpt lat="42.75709" lon="1.59458">
        <ele>1647.367</ele>
        <time>2022-02-20T10:31:57Z</time>
      </trkpt>
      <trkpt lat="42.75707" lon="1.5946">
        <ele>1647.311</ele>
        <time>2022-02-20T10:31:59Z</time>
      </trkpt>
      <trkpt lat="42.75705" lon="1.59461">
        <ele>1647.802</ele>
        <time>2022-02-20T10:32:01Z</time>
      </trkpt>
      <trkpt lat="42.75703" lon="1.59462">
        <ele>1647.68</ele>
        <time>2022-02-20T10:32:03Z</time>
      </trkpt>
      <trkpt lat="42.75702" lon="1.59465">
        <ele>1647.198</ele>
        <time>2022-02-20T10:32:05Z</time>
      </trkpt>
      <trkpt lat="42.75701" lon="1.59467">
        <ele>1647.583</ele>
        <time>2022-02-20T10:32:07Z</time>
      </trkpt>
      <trkpt lat="42.757" lon="1.59469">
        <ele>1647.825</ele>
        <time>2022-02-20T10:32:09Z</time>
      </trkpt>
      <trkpt lat="42.75699" lon="1.59471">
        <ele>1647.799</ele>
        <time>2022-02-20T10:32:11Z</time>
      </trkpt>
      <trkpt lat="42.75698" lon="1.59473">
        <ele>1647.703</ele>
        <time>2022-02-20T10:32:13Z</time>
      </trkpt>
      <trkpt lat="42.75698" lon="1.59475">
        <ele>1647.879</ele>
        <time>2022-02-20T10:32:15Z</time>
      </trkpt>
      <trkpt lat="42.75697" lon="1.59476">
        <ele>1648.597</ele>
        <time>2022-02-20T10:32:17Z</time>
      </trkpt>
      <trkpt lat="42.75696" lon="1.59478">
        <ele>1649.16</ele>
        <time>2022-02-20T10:32:19Z</time>
      </trkpt>
      <trkpt lat="42.75695" lon="1.59479">
        <ele>1649.815</ele>
        <time>2022-02-20T10:32:21Z</time>
      </trkpt>
      <trkpt lat="42.75694" lon="1.59481">
        <ele>1649.609</ele>
        <time>2022-02-20T10:32:23Z</time>
      </trkpt>
      <trkpt lat="42.75694" lon="1.59483">
        <ele>1649.213</ele>
        <time>2022-02-20T10:32:25Z</time>
      </trkpt>
      <trkpt lat="42.75693" lon="1.59485">
        <ele>1649.681</ele>
        <time>2022-02-20T10:32:27Z</time>
      </trkpt>
      <trkpt lat="42.75692" lon="1.59487">
        <ele>1649.698</ele>
        <time>2022-02-20T10:32:29Z</time>
      </trkpt>
      <trkpt lat="42.75691" lon="1.59488">
        <ele>1650.326</ele>
        <time>2022-02-20T10:32:31Z</time>
      </trkpt>
      <trkpt lat="42.7569" lon="1.5949">
        <ele>1650.54</ele>
        <time>2022-02-20T10:32:33Z</time>
      </trkpt>
      <trkpt lat="42.75689" lon="1.59491">
        <ele>1650.93</ele>
        <time>2022-02-20T10:32:35Z</time>
      </trkpt>
      <trkpt lat="42.75688" lon="1.59493">
        <ele>1651.014</ele>
        <time>2022-02-20T10:32:37Z</time>
      </trkpt>
      <trkpt lat="42.75688" lon="1.59495">
        <ele>1651.094</ele>
        <time>2022-02-20T10:32:39Z</time>
      </trkpt>
      <trkpt lat="42.75687" lon="1.59496">
        <ele>1651.44</ele>
        <time>2022-02-20T10:32:41Z</time>
      </trkpt>
      <trkpt lat="42.75686" lon="1.59498">
        <ele>1651.251</ele>
        <time>2022-02-20T10:32:43Z</time>
      </trkpt>
      <trkpt lat="42.75686" lon="1.595">
        <ele>1650.906</ele>
        <time>2022-02-20T10:32:45Z</time>
      </trkpt>
      <trkpt lat="42.75685" lon="1.59501">
        <ele>1651.887</ele>
        <time>2022-02-20T10:32:47Z</time>
      </trkpt>
      <trkpt lat="42.75684" lon="1.59502">
        <ele>1652.132</ele>
        <time>2022-02-20T10:32:49Z</time>
      </trkpt>
      <trkpt lat="42.75683" lon="1.59502">
        <ele>1652.978</ele>
        <time>2022-02-20T10:32:51Z</time>
      </trkpt>
      <trkpt lat="42.75682" lon="1.59503">
        <ele>1652.989</ele>
        <time>2022-02-20T10:32:53Z</time>
      </trkpt>
      <trkpt lat="42.75681" lon="1.59504">
        <ele>1652.789</ele>
        <time>2022-02-20T10:32:55Z</time>
      </trkpt>
      <trkpt lat="42.7568" lon="1.59505">
        <ele>1653.144</ele>
        <time>2022-02-20T10:32:57Z</time>
      </trkpt>
      <trkpt lat="42.75679" lon="1.59505">
        <ele>1653.4</ele>
        <time>2022-02-20T10:32:59Z</time>
      </trkpt>
      <trkpt lat="42.75678" lon="1.59506">
        <ele>1653.522</ele>
        <time>2022-02-20T10:33:01Z</time>
      </trkpt>
      <trkpt lat="42.75677" lon="1.59508">
        <ele>1653.121</ele>
        <time>2022-02-20T10:33:03Z</time>
      </trkpt>
      <trkpt lat="42.75677" lon="1.59508">
        <ele>1653.458</ele>
        <time>2022-02-20T10:33:05Z</time>
      </trkpt>
      <trkpt lat="42.75677" lon="1.59509">
        <ele>1654.345</ele>
        <time>2022-02-20T10:33:07Z</time>
      </trkpt>
      <trkpt lat="42.75676" lon="1.5951">
        <ele>1654.343</ele>
        <time>2022-02-20T10:33:09Z</time>
      </trkpt>
      <trkpt lat="42.75675" lon="1.5951">
        <ele>1654.372</ele>
        <time>2022-02-20T10:33:11Z</time>
      </trkpt>
      <trkpt lat="42.75675" lon="1.59511">
        <ele>1654.821</ele>
        <time>2022-02-20T10:33:13Z</time>
      </trkpt>
      <trkpt lat="42.75674" lon="1.59513">
        <ele>1655.041</ele>
        <time>2022-02-20T10:33:15Z</time>
      </trkpt>
      <trkpt lat="42.75674" lon="1.59514">
        <ele>1655.253</ele>
        <time>2022-02-20T10:33:17Z</time>
      </trkpt>
      <trkpt lat="42.75673" lon="1.59515">
        <ele>1655.99</ele>
        <time>2022-02-20T10:33:19Z</time>
      </trkpt>
      <trkpt lat="42.75672" lon="1.59516">
        <ele>1656.275</ele>
        <time>2022-02-20T10:33:21Z</time>
      </trkpt>
      <trkpt lat="42.75672" lon="1.59517">
        <ele>1656.474</ele>
        <time>2022-02-20T10:33:23Z</time>
      </trkpt>
      <trkpt lat="42.75671" lon="1.59517">
        <ele>1656.877</ele>
        <time>2022-02-20T10:33:25Z</time>
      </trkpt>
      <trkpt lat="42.7567" lon="1.59518">
        <ele>1656.863</ele>
        <time>2022-02-20T10:33:27Z</time>
      </trkpt>
      <trkpt lat="42.75669" lon="1.5952">
        <ele>1657.011</ele>
        <time>2022-02-20T10:33:29Z</time>
      </trkpt>
      <trkpt lat="42.75669" lon="1.59521">
        <ele>1657.796</ele>
        <time>2022-02-20T10:33:31Z</time>
      </trkpt>
      <trkpt lat="42.75669" lon="1.59522">
        <ele>1658.336</ele>
        <time>2022-02-20T10:33:33Z</time>
      </trkpt>
      <trkpt lat="42.75668" lon="1.59523">
        <ele>1658.866</ele>
        <time>2022-02-20T10:33:35Z</time>
      </trkpt>
      <trkpt lat="42.75668" lon="1.59524">
        <ele>1659.003</ele>
        <time>2022-02-20T10:33:37Z</time>
      </trkpt>
      <trkpt lat="42.75667" lon="1.59525">
        <ele>1659.309</ele>
        <time>2022-02-20T10:33:39Z</time>
      </trkpt>
      <trkpt lat="42.75667" lon="1.59526">
        <ele>1659.669</ele>
        <time>2022-02-20T10:33:41Z</time>
      </trkpt>
      <trkpt lat="42.75667" lon="1.59527">
        <ele>1660.074</ele>
        <time>2022-02-20T10:33:43Z</time>
      </trkpt>
      <trkpt lat="42.75667" lon="1.59528">
        <ele>1660.085</ele>
        <time>2022-02-20T10:33:45Z</time>
      </trkpt>
      <trkpt lat="42.75666" lon="1.5953">
        <ele>1659.484</ele>
        <time>2022-02-20T10:33:47Z</time>
      </trkpt>
      <trkpt lat="42.75666" lon="1.59531">
        <ele>1659.489</ele>
        <time>2022-02-20T10:33:49Z</time>
      </trkpt>
      <trkpt lat="42.75666" lon="1.59532">
        <ele>1659.374</ele>
        <time>2022-02-20T10:33:51Z</time>
      </trkpt>
      <trkpt lat="42.75665" lon="1.59533">
        <ele>1659.917</ele>
        <time>2022-02-20T10:33:53Z</time>
      </trkpt>
      <trkpt lat="42.75665" lon="1.59535">
        <ele>1659.959</ele>
        <time>2022-02-20T10:33:55Z</time>
      </trkpt>
      <trkpt lat="42.75664" lon="1.59536">
        <ele>1660.34</ele>
        <time>2022-02-20T10:33:57Z</time>
      </trkpt>
      <trkpt lat="42.75663" lon="1.59538">
        <ele>1660.062</ele>
        <time>2022-02-20T10:33:59Z</time>
      </trkpt>
      <trkpt lat="42.75663" lon="1.59539">
        <ele>1660.252</ele>
        <time>2022-02-20T10:34:01Z</time>
      </trkpt>
      <trkpt lat="42.75662" lon="1.59541">
        <ele>1660.472</ele>
        <time>2022-02-20T10:34:03Z</time>
      </trkpt>
      <trkpt lat="42.75662" lon="1.59543">
        <ele>1661.01</ele>
        <time>2022-02-20T10:34:05Z</time>
      </trkpt>
      <trkpt lat="42.75662" lon="1.59545">
        <ele>1661.005</ele>
        <time>2022-02-20T10:34:07Z</time>
      </trkpt>
      <trkpt lat="42.75661" lon="1.59546">
        <ele>1660.993</ele>
        <time>2022-02-20T10:34:09Z</time>
      </trkpt>
      <trkpt lat="42.7566" lon="1.59547">
        <ele>1660.517</ele>
        <time>2022-02-20T10:34:11Z</time>
      </trkpt>
      <trkpt lat="42.75659" lon="1.59549">
        <ele>1660.783</ele>
        <time>2022-02-20T10:34:13Z</time>
      </trkpt>
      <trkpt lat="42.75659" lon="1.59551">
        <ele>1660.779</ele>
        <time>2022-02-20T10:34:15Z</time>
      </trkpt>
      <trkpt lat="42.75658" lon="1.59552">
        <ele>1660.436</ele>
        <time>2022-02-20T10:34:17Z</time>
      </trkpt>
      <trkpt lat="42.75658" lon="1.59553">
        <ele>1660.759</ele>
        <time>2022-02-20T10:34:19Z</time>
      </trkpt>
      <trkpt lat="42.75657" lon="1.59555">
        <ele>1660.836</ele>
        <time>2022-02-20T10:34:21Z</time>
      </trkpt>
      <trkpt lat="42.75656" lon="1.59557">
        <ele>1661.428</ele>
        <time>2022-02-20T10:34:23Z</time>
      </trkpt>
      <trkpt lat="42.75656" lon="1.59559">
        <ele>1661.834</ele>
        <time>2022-02-20T10:34:25Z</time>
      </trkpt>
      <trkpt lat="42.75655" lon="1.5956">
        <ele>1662.29</ele>
        <time>2022-02-20T10:34:27Z</time>
      </trkpt>
      <trkpt lat="42.75654" lon="1.59562">
        <ele>1662.405</ele>
        <time>2022-02-20T10:34:29Z</time>
      </trkpt>
      <trkpt lat="42.75654" lon="1.59563">
        <ele>1662.505</ele>
        <time>2022-02-20T10:34:31Z</time>
      </trkpt>
      <trkpt lat="42.75654" lon="1.59565">
        <ele>1662.534</ele>
        <time>2022-02-20T10:34:33Z</time>
      </trkpt>
      <trkpt lat="42.75654" lon="1.59567">
        <ele>1663.195</ele>
        <time>2022-02-20T10:34:35Z</time>
      </trkpt>
      <trkpt lat="42.75653" lon="1.59569">
        <ele>1663.26</ele>
        <time>2022-02-20T10:34:37Z</time>
      </trkpt>
      <trkpt lat="42.75653" lon="1.59571">
        <ele>1663.991</ele>
        <time>2022-02-20T10:34:39Z</time>
      </trkpt>
      <trkpt lat="42.75652" lon="1.59573">
        <ele>1664.436</ele>
        <time>2022-02-20T10:34:41Z</time>
      </trkpt>
      <trkpt lat="42.75651" lon="1.59574">
        <ele>1664.832</ele>
        <time>2022-02-20T10:34:43Z</time>
      </trkpt>
      <trkpt lat="42.75651" lon="1.59576">
        <ele>1665.49</ele>
        <time>2022-02-20T10:34:45Z</time>
      </trkpt>
      <trkpt lat="42.7565" lon="1.59578">
        <ele>1665.564</ele>
        <time>2022-02-20T10:34:47Z</time>
      </trkpt>
      <trkpt lat="42.75649" lon="1.5958">
        <ele>1666.379</ele>
        <time>2022-02-20T10:34:49Z</time>
      </trkpt>
      <trkpt lat="42.75649" lon="1.59582">
        <ele>1666.955</ele>
        <time>2022-02-20T10:34:51Z</time>
      </trkpt>
      <trkpt lat="42.75648" lon="1.59583">
        <ele>1667.589</ele>
        <time>2022-02-20T10:34:53Z</time>
      </trkpt>
      <trkpt lat="42.75648" lon="1.59585">
        <ele>1667.058</ele>
        <time>2022-02-20T10:34:55Z</time>
      </trkpt>
      <trkpt lat="42.75647" lon="1.59586">
        <ele>1667.578</ele>
        <time>2022-02-20T10:34:57Z</time>
      </trkpt>
      <trkpt lat="42.75646" lon="1.59588">
        <ele>1667.535</ele>
        <time>2022-02-20T10:34:59Z</time>
      </trkpt>
      <trkpt lat="42.75645" lon="1.59589">
        <ele>1667.328</ele>
        <time>2022-02-20T10:35:01Z</time>
      </trkpt>
      <trkpt lat="42.75645" lon="1.5959">
        <ele>1667.316</ele>
        <time>2022-02-20T10:35:03Z</time>
      </trkpt>
      <trkpt lat="42.75644" lon="1.59592">
        <ele>1666.556</ele>
        <time>2022-02-20T10:35:05Z</time>
      </trkpt>
      <trkpt lat="42.75643" lon="1.59593">
        <ele>1666.431</ele>
        <time>2022-02-20T10:35:07Z</time>
      </trkpt>
      <trkpt lat="42.75643" lon="1.59595">
        <ele>1667.169</ele>
        <time>2022-02-20T10:35:09Z</time>
      </trkpt>
      <trkpt lat="42.75643" lon="1.59596">
        <ele>1667.102</ele>
        <time>2022-02-20T10:35:11Z</time>
      </trkpt>
      <trkpt lat="42.75642" lon="1.59598">
        <ele>1667.099</ele>
        <time>2022-02-20T10:35:13Z</time>
      </trkpt>
      <trkpt lat="42.75641" lon="1.59599">
        <ele>1668.088</ele>
        <time>2022-02-20T10:35:15Z</time>
      </trkpt>
      <trkpt lat="42.7564" lon="1.596">
        <ele>1668.327</ele>
        <time>2022-02-20T10:35:17Z</time>
      </trkpt>
      <trkpt lat="42.7564" lon="1.59601">
        <ele>1668.751</ele>
        <time>2022-02-20T10:35:19Z</time>
      </trkpt>
      <trkpt lat="42.7564" lon="1.59603">
        <ele>1668.931</ele>
        <time>2022-02-20T10:35:21Z</time>
      </trkpt>
      <trkpt lat="42.75639" lon="1.59605">
        <ele>1669.272</ele>
        <time>2022-02-20T10:35:23Z</time>
      </trkpt>
      <trkpt lat="42.75639" lon="1.59607">
        <ele>1669.598</ele>
        <time>2022-02-20T10:35:25Z</time>
      </trkpt>
      <trkpt lat="42.75638" lon="1.59609">
        <ele>1670.161</ele>
        <time>2022-02-20T10:35:27Z</time>
      </trkpt>
      <trkpt lat="42.75637" lon="1.5961">
        <ele>1670.011</ele>
        <time>2022-02-20T10:35:29Z</time>
      </trkpt>
      <trkpt lat="42.75637" lon="1.59611">
        <ele>1670.546</ele>
        <time>2022-02-20T10:35:31Z</time>
      </trkpt>
      <trkpt lat="42.75636" lon="1.59613">
        <ele>1670.74</ele>
        <time>2022-02-20T10:35:33Z</time>
      </trkpt>
      <trkpt lat="42.75635" lon="1.59614">
        <ele>1670.998</ele>
        <time>2022-02-20T10:35:35Z</time>
      </trkpt>
      <trkpt lat="42.75635" lon="1.59615">
        <ele>1670.44</ele>
        <time>2022-02-20T10:35:37Z</time>
      </trkpt>
      <trkpt lat="42.75634" lon="1.59617">
        <ele>1670.499</ele>
        <time>2022-02-20T10:35:39Z</time>
      </trkpt>
      <trkpt lat="42.75633" lon="1.59618">
        <ele>1670.851</ele>
        <time>2022-02-20T10:35:41Z</time>
      </trkpt>
      <trkpt lat="42.75633" lon="1.59618">
        <ele>1670.727</ele>
        <time>2022-02-20T10:35:43Z</time>
      </trkpt>
      <trkpt lat="42.75632" lon="1.5962">
        <ele>1670.488</ele>
        <time>2022-02-20T10:35:45Z</time>
      </trkpt>
      <trkpt lat="42.75632" lon="1.59621">
        <ele>1670.923</ele>
        <time>2022-02-20T10:35:47Z</time>
      </trkpt>
      <trkpt lat="42.75632" lon="1.59623">
        <ele>1671.781</ele>
        <time>2022-02-20T10:35:49Z</time>
      </trkpt>
      <trkpt lat="42.75632" lon="1.59625">
        <ele>1671.799</ele>
        <time>2022-02-20T10:35:51Z</time>
      </trkpt>
      <trkpt lat="42.75632" lon="1.59626">
        <ele>1672.609</ele>
        <time>2022-02-20T10:35:53Z</time>
      </trkpt>
      <trkpt lat="42.75631" lon="1.59628">
        <ele>1673.564</ele>
        <time>2022-02-20T10:35:55Z</time>
      </trkpt>
      <trkpt lat="42.75631" lon="1.59629">
        <ele>1673.648</ele>
        <time>2022-02-20T10:35:57Z</time>
      </trkpt>
      <trkpt lat="42.75631" lon="1.5963">
        <ele>1674.147</ele>
        <time>2022-02-20T10:35:59Z</time>
      </trkpt>
      <trkpt lat="42.75631" lon="1.59632">
        <ele>1674.517</ele>
        <time>2022-02-20T10:36:01Z</time>
      </trkpt>
      <trkpt lat="42.75631" lon="1.59633">
        <ele>1674.719</ele>
        <time>2022-02-20T10:36:03Z</time>
      </trkpt>
      <trkpt lat="42.7563" lon="1.59633">
        <ele>1675.006</ele>
        <time>2022-02-20T10:36:05Z</time>
      </trkpt>
      <trkpt lat="42.75629" lon="1.59633">
        <ele>1675.133</ele>
        <time>2022-02-20T10:36:07Z</time>
      </trkpt>
      <trkpt lat="42.75628" lon="1.59633">
        <ele>1674.494</ele>
        <time>2022-02-20T10:36:09Z</time>
      </trkpt>
      <trkpt lat="42.75627" lon="1.59633">
        <ele>1674.341</ele>
        <time>2022-02-20T10:36:11Z</time>
      </trkpt>
      <trkpt lat="42.75626" lon="1.59633">
        <ele>1674.331</ele>
        <time>2022-02-20T10:36:13Z</time>
      </trkpt>
      <trkpt lat="42.75625" lon="1.59634">
        <ele>1675.102</ele>
        <time>2022-02-20T10:36:15Z</time>
      </trkpt>
      <trkpt lat="42.75624" lon="1.59634">
        <ele>1675.015</ele>
        <time>2022-02-20T10:36:17Z</time>
      </trkpt>
      <trkpt lat="42.75623" lon="1.59635">
        <ele>1675.481</ele>
        <time>2022-02-20T10:36:19Z</time>
      </trkpt>
      <trkpt lat="42.75622" lon="1.59635">
        <ele>1675.587</ele>
        <time>2022-02-20T10:36:21Z</time>
      </trkpt>
      <trkpt lat="42.75622" lon="1.59635">
        <ele>1675.596</ele>
        <time>2022-02-20T10:36:23Z</time>
      </trkpt>
      <trkpt lat="42.75622" lon="1.59636">
        <ele>1675.669</ele>
        <time>2022-02-20T10:36:25Z</time>
      </trkpt>
      <trkpt lat="42.75621" lon="1.59637">
        <ele>1675.899</ele>
        <time>2022-02-20T10:36:27Z</time>
      </trkpt>
      <trkpt lat="42.75621" lon="1.59639">
        <ele>1675.889</ele>
        <time>2022-02-20T10:36:29Z</time>
      </trkpt>
      <trkpt lat="42.75621" lon="1.5964">
        <ele>1675.807</ele>
        <time>2022-02-20T10:36:31Z</time>
      </trkpt>
      <trkpt lat="42.75621" lon="1.59641">
        <ele>1675.858</ele>
        <time>2022-02-20T10:36:33Z</time>
      </trkpt>
      <trkpt lat="42.75621" lon="1.59641">
        <ele>1675.836</ele>
        <time>2022-02-20T10:36:35Z</time>
      </trkpt>
      <trkpt lat="42.75621" lon="1.59641">
        <ele>1675.84</ele>
        <time>2022-02-20T10:36:37Z</time>
      </trkpt>
      <trkpt lat="42.7562" lon="1.59642">
        <ele>1676.305</ele>
        <time>2022-02-20T10:36:39Z</time>
      </trkpt>
      <trkpt lat="42.7562" lon="1.59643">
        <ele>1675.917</ele>
        <time>2022-02-20T10:36:41Z</time>
      </trkpt>
      <trkpt lat="42.7562" lon="1.59644">
        <ele>1676.414</ele>
        <time>2022-02-20T10:36:43Z</time>
      </trkpt>
      <trkpt lat="42.7562" lon="1.59646">
        <ele>1676.543</ele>
        <time>2022-02-20T10:36:45Z</time>
      </trkpt>
      <trkpt lat="42.75619" lon="1.59647">
        <ele>1676.701</ele>
        <time>2022-02-20T10:36:47Z</time>
      </trkpt>
      <trkpt lat="42.75619" lon="1.59648">
        <ele>1676.658</ele>
        <time>2022-02-20T10:36:49Z</time>
      </trkpt>
      <trkpt lat="42.75619" lon="1.59649">
        <ele>1676.852</ele>
        <time>2022-02-20T10:36:51Z</time>
      </trkpt>
      <trkpt lat="42.75619" lon="1.5965">
        <ele>1677.187</ele>
        <time>2022-02-20T10:36:53Z</time>
      </trkpt>
      <trkpt lat="42.75619" lon="1.5965">
        <ele>1677.167</ele>
        <time>2022-02-20T10:36:55Z</time>
      </trkpt>
      <trkpt lat="42.75618" lon="1.59651">
        <ele>1677.273</ele>
        <time>2022-02-20T10:36:57Z</time>
      </trkpt>
      <trkpt lat="42.75617" lon="1.59652">
        <ele>1677.692</ele>
        <time>2022-02-20T10:36:59Z</time>
      </trkpt>
      <trkpt lat="42.75616" lon="1.59653">
        <ele>1677.255</ele>
        <time>2022-02-20T10:37:01Z</time>
      </trkpt>
      <trkpt lat="42.75616" lon="1.59653">
        <ele>1677.383</ele>
        <time>2022-02-20T10:37:03Z</time>
      </trkpt>
      <trkpt lat="42.75616" lon="1.59654">
        <ele>1677.74</ele>
        <time>2022-02-20T10:37:05Z</time>
      </trkpt>
      <trkpt lat="42.75616" lon="1.59655">
        <ele>1677.593</ele>
        <time>2022-02-20T10:37:07Z</time>
      </trkpt>
      <trkpt lat="42.75616" lon="1.59657">
        <ele>1677.915</ele>
        <time>2022-02-20T10:37:09Z</time>
      </trkpt>
      <trkpt lat="42.75615" lon="1.59658">
        <ele>1678.73</ele>
        <time>2022-02-20T10:37:11Z</time>
      </trkpt>
      <trkpt lat="42.75615" lon="1.59659">
        <ele>1678.645</ele>
        <time>2022-02-20T10:37:13Z</time>
      </trkpt>
      <trkpt lat="42.75615" lon="1.59659">
        <ele>1678.843</ele>
        <time>2022-02-20T10:37:15Z</time>
      </trkpt>
      <trkpt lat="42.75614" lon="1.5966">
        <ele>1678.606</ele>
        <time>2022-02-20T10:37:17Z</time>
      </trkpt>
      <trkpt lat="42.75613" lon="1.59661">
        <ele>1678.841</ele>
        <time>2022-02-20T10:37:19Z</time>
      </trkpt>
      <trkpt lat="42.75612" lon="1.59663">
        <ele>1678.39</ele>
        <time>2022-02-20T10:37:21Z</time>
      </trkpt>
      <trkpt lat="42.75612" lon="1.59663">
        <ele>1678.295</ele>
        <time>2022-02-20T10:37:23Z</time>
      </trkpt>
      <trkpt lat="42.75612" lon="1.59663">
        <ele>1678.299</ele>
        <time>2022-02-20T10:37:25Z</time>
      </trkpt>
      <trkpt lat="42.75611" lon="1.59664">
        <ele>1679.589</ele>
        <time>2022-02-20T10:37:27Z</time>
      </trkpt>
      <trkpt lat="42.75611" lon="1.59663">
        <ele>1679.847</ele>
        <time>2022-02-20T10:37:29Z</time>
      </trkpt>
      <trkpt lat="42.75611" lon="1.59664">
        <ele>1679.973</ele>
        <time>2022-02-20T10:37:31Z</time>
      </trkpt>
      <trkpt lat="42.75612" lon="1.59664">
        <ele>1680.185</ele>
        <time>2022-02-20T10:37:33Z</time>
      </trkpt>
      <trkpt lat="42.75612" lon="1.59664">
        <ele>1680.56</ele>
        <time>2022-02-20T10:37:35Z</time>
      </trkpt>
      <trkpt lat="42.75612" lon="1.59664">
        <ele>1680.667</ele>
        <time>2022-02-20T10:37:37Z</time>
      </trkpt>
      <trkpt lat="42.75612" lon="1.59665">
        <ele>1680.68</ele>
        <time>2022-02-20T10:37:39Z</time>
      </trkpt>
      <trkpt lat="42.75612" lon="1.59665">
        <ele>1680.894</ele>
        <time>2022-02-20T10:37:41Z</time>
      </trkpt>
      <trkpt lat="42.75611" lon="1.59666">
        <ele>1681.623</ele>
        <time>2022-02-20T10:37:43Z</time>
      </trkpt>
      <trkpt lat="42.7561" lon="1.59667">
        <ele>1682.49</ele>
        <time>2022-02-20T10:37:45Z</time>
      </trkpt>
      <trkpt lat="42.75609" lon="1.59668">
        <ele>1682.232</ele>
        <time>2022-02-20T10:37:47Z</time>
      </trkpt>
      <trkpt lat="42.75608" lon="1.59669">
        <ele>1682.428</ele>
        <time>2022-02-20T10:37:49Z</time>
      </trkpt>
      <trkpt lat="42.75608" lon="1.5967">
        <ele>1682.907</ele>
        <time>2022-02-20T10:37:51Z</time>
      </trkpt>
      <trkpt lat="42.75607" lon="1.59671">
        <ele>1683.006</ele>
        <time>2022-02-20T10:37:53Z</time>
      </trkpt>
      <trkpt lat="42.75606" lon="1.59672">
        <ele>1683.82</ele>
        <time>2022-02-20T10:37:55Z</time>
      </trkpt>
      <trkpt lat="42.75606" lon="1.59673">
        <ele>1683.398</ele>
        <time>2022-02-20T10:37:57Z</time>
      </trkpt>
      <trkpt lat="42.75605" lon="1.59674">
        <ele>1683.827</ele>
        <time>2022-02-20T10:37:59Z</time>
      </trkpt>
      <trkpt lat="42.75605" lon="1.59675">
        <ele>1683.974</ele>
        <time>2022-02-20T10:38:01Z</time>
      </trkpt>
      <trkpt lat="42.75604" lon="1.59676">
        <ele>1684.058</ele>
        <time>2022-02-20T10:38:03Z</time>
      </trkpt>
      <trkpt lat="42.75604" lon="1.59677">
        <ele>1683.576</ele>
        <time>2022-02-20T10:38:05Z</time>
      </trkpt>
      <trkpt lat="42.75603" lon="1.59678">
        <ele>1683.907</ele>
        <time>2022-02-20T10:38:07Z</time>
      </trkpt>
      <trkpt lat="42.75603" lon="1.59678">
        <ele>1684.12</ele>
        <time>2022-02-20T10:38:09Z</time>
      </trkpt>
      <trkpt lat="42.75602" lon="1.59679">
        <ele>1685.008</ele>
        <time>2022-02-20T10:38:11Z</time>
      </trkpt>
      <trkpt lat="42.75601" lon="1.5968">
        <ele>1685.472</ele>
        <time>2022-02-20T10:38:13Z</time>
      </trkpt>
      <trkpt lat="42.75601" lon="1.59681">
        <ele>1685.747</ele>
        <time>2022-02-20T10:38:15Z</time>
      </trkpt>
      <trkpt lat="42.756" lon="1.59682">
        <ele>1685.944</ele>
        <time>2022-02-20T10:38:17Z</time>
      </trkpt>
      <trkpt lat="42.75599" lon="1.59683">
        <ele>1686.54</ele>
        <time>2022-02-20T10:38:19Z</time>
      </trkpt>
      <trkpt lat="42.75599" lon="1.59682">
        <ele>1686.521</ele>
        <time>2022-02-20T10:38:21Z</time>
      </trkpt>
      <trkpt lat="42.75599" lon="1.59683">
        <ele>1686.425</ele>
        <time>2022-02-20T10:38:23Z</time>
      </trkpt>
      <trkpt lat="42.75599" lon="1.59684">
        <ele>1686.979</ele>
        <time>2022-02-20T10:38:25Z</time>
      </trkpt>
      <trkpt lat="42.75598" lon="1.59686">
        <ele>1686.906</ele>
        <time>2022-02-20T10:38:27Z</time>
      </trkpt>
      <trkpt lat="42.75598" lon="1.59687">
        <ele>1686.847</ele>
        <time>2022-02-20T10:38:29Z</time>
      </trkpt>
      <trkpt lat="42.75598" lon="1.59688">
        <ele>1686.616</ele>
        <time>2022-02-20T10:38:31Z</time>
      </trkpt>
      <trkpt lat="42.75597" lon="1.5969">
        <ele>1687.092</ele>
        <time>2022-02-20T10:38:33Z</time>
      </trkpt>
      <trkpt lat="42.75597" lon="1.59691">
        <ele>1687.257</ele>
        <time>2022-02-20T10:38:35Z</time>
      </trkpt>
      <trkpt lat="42.75596" lon="1.59692">
        <ele>1687.373</ele>
        <time>2022-02-20T10:38:37Z</time>
      </trkpt>
      <trkpt lat="42.75595" lon="1.59693">
        <ele>1687.948</ele>
        <time>2022-02-20T10:38:39Z</time>
      </trkpt>
      <trkpt lat="42.75595" lon="1.59694">
        <ele>1688.895</ele>
        <time>2022-02-20T10:38:41Z</time>
      </trkpt>
      <trkpt lat="42.75594" lon="1.59695">
        <ele>1689.187</ele>
        <time>2022-02-20T10:38:43Z</time>
      </trkpt>
      <trkpt lat="42.75594" lon="1.59696">
        <ele>1689.546</ele>
        <time>2022-02-20T10:38:45Z</time>
      </trkpt>
      <trkpt lat="42.75593" lon="1.59697">
        <ele>1690.366</ele>
        <time>2022-02-20T10:38:47Z</time>
      </trkpt>
      <trkpt lat="42.75593" lon="1.59698">
        <ele>1690.082</ele>
        <time>2022-02-20T10:38:49Z</time>
      </trkpt>
      <trkpt lat="42.75593" lon="1.59698">
        <ele>1690.077</ele>
        <time>2022-02-20T10:38:51Z</time>
      </trkpt>
      <trkpt lat="42.75592" lon="1.59698">
        <ele>1690.208</ele>
        <time>2022-02-20T10:38:53Z</time>
      </trkpt>
      <trkpt lat="42.75592" lon="1.597">
        <ele>1690.677</ele>
        <time>2022-02-20T10:38:55Z</time>
      </trkpt>
      <trkpt lat="42.75591" lon="1.59701">
        <ele>1690.932</ele>
        <time>2022-02-20T10:38:57Z</time>
      </trkpt>
      <trkpt lat="42.75591" lon="1.59703">
        <ele>1691.455</ele>
        <time>2022-02-20T10:38:59Z</time>
      </trkpt>
      <trkpt lat="42.75591" lon="1.59704">
        <ele>1691.227</ele>
        <time>2022-02-20T10:39:01Z</time>
      </trkpt>
      <trkpt lat="42.75591" lon="1.59706">
        <ele>1692.013</ele>
        <time>2022-02-20T10:39:03Z</time>
      </trkpt>
      <trkpt lat="42.7559" lon="1.59707">
        <ele>1692.102</ele>
        <time>2022-02-20T10:39:05Z</time>
      </trkpt>
      <trkpt lat="42.7559" lon="1.59709">
        <ele>1691.951</ele>
        <time>2022-02-20T10:39:07Z</time>
      </trkpt>
      <trkpt lat="42.7559" lon="1.5971">
        <ele>1691.965</ele>
        <time>2022-02-20T10:39:09Z</time>
      </trkpt>
      <trkpt lat="42.7559" lon="1.59712">
        <ele>1692.549</ele>
        <time>2022-02-20T10:39:11Z</time>
      </trkpt>
      <trkpt lat="42.75589" lon="1.59712">
        <ele>1692.145</ele>
        <time>2022-02-20T10:39:13Z</time>
      </trkpt>
      <trkpt lat="42.75589" lon="1.59714">
        <ele>1692.182</ele>
        <time>2022-02-20T10:39:15Z</time>
      </trkpt>
      <trkpt lat="42.75588" lon="1.59715">
        <ele>1692.518</ele>
        <time>2022-02-20T10:39:17Z</time>
      </trkpt>
      <trkpt lat="42.75588" lon="1.59716">
        <ele>1692.426</ele>
        <time>2022-02-20T10:39:19Z</time>
      </trkpt>
      <trkpt lat="42.75588" lon="1.59718">
        <ele>1692.842</ele>
        <time>2022-02-20T10:39:21Z</time>
      </trkpt>
      <trkpt lat="42.75587" lon="1.59719">
        <ele>1693.145</ele>
        <time>2022-02-20T10:39:23Z</time>
      </trkpt>
      <trkpt lat="42.75587" lon="1.59721">
        <ele>1693.453</ele>
        <time>2022-02-20T10:39:25Z</time>
      </trkpt>
      <trkpt lat="42.75587" lon="1.59722">
        <ele>1693.661</ele>
        <time>2022-02-20T10:39:27Z</time>
      </trkpt>
      <trkpt lat="42.75586" lon="1.59724">
        <ele>1693.119</ele>
        <time>2022-02-20T10:39:29Z</time>
      </trkpt>
      <trkpt lat="42.75586" lon="1.59725">
        <ele>1693.402</ele>
        <time>2022-02-20T10:39:31Z</time>
      </trkpt>
      <trkpt lat="42.75586" lon="1.59727">
        <ele>1694.096</ele>
        <time>2022-02-20T10:39:33Z</time>
      </trkpt>
      <trkpt lat="42.75586" lon="1.59728">
        <ele>1693.711</ele>
        <time>2022-02-20T10:39:35Z</time>
      </trkpt>
      <trkpt lat="42.75586" lon="1.5973">
        <ele>1694.064</ele>
        <time>2022-02-20T10:39:37Z</time>
      </trkpt>
      <trkpt lat="42.75585" lon="1.59732">
        <ele>1693.673</ele>
        <time>2022-02-20T10:39:39Z</time>
      </trkpt>
      <trkpt lat="42.75585" lon="1.59733">
        <ele>1693.671</ele>
        <time>2022-02-20T10:39:41Z</time>
      </trkpt>
      <trkpt lat="42.75585" lon="1.59735">
        <ele>1693.644</ele>
        <time>2022-02-20T10:39:43Z</time>
      </trkpt>
      <trkpt lat="42.75584" lon="1.59736">
        <ele>1693.939</ele>
        <time>2022-02-20T10:39:45Z</time>
      </trkpt>
      <trkpt lat="42.75584" lon="1.59737">
        <ele>1695.25</ele>
        <time>2022-02-20T10:39:47Z</time>
      </trkpt>
      <trkpt lat="42.75584" lon="1.59739">
        <ele>1695.809</ele>
        <time>2022-02-20T10:39:49Z</time>
      </trkpt>
      <trkpt lat="42.75583" lon="1.5974">
        <ele>1695.465</ele>
        <time>2022-02-20T10:39:51Z</time>
      </trkpt>
      <trkpt lat="42.75583" lon="1.59742">
        <ele>1695.643</ele>
        <time>2022-02-20T10:39:53Z</time>
      </trkpt>
      <trkpt lat="42.75583" lon="1.59744">
        <ele>1695.587</ele>
        <time>2022-02-20T10:39:55Z</time>
      </trkpt>
      <trkpt lat="42.75583" lon="1.59746">
        <ele>1695.732</ele>
        <time>2022-02-20T10:39:57Z</time>
      </trkpt>
      <trkpt lat="42.75583" lon="1.59748">
        <ele>1695.487</ele>
        <time>2022-02-20T10:39:59Z</time>
      </trkpt>
      <trkpt lat="42.75583" lon="1.59749">
        <ele>1695.694</ele>
        <time>2022-02-20T10:40:01Z</time>
      </trkpt>
      <trkpt lat="42.75583" lon="1.59751">
        <ele>1696.115</ele>
        <time>2022-02-20T10:40:03Z</time>
      </trkpt>
      <trkpt lat="42.75582" lon="1.59753">
        <ele>1697.098</ele>
        <time>2022-02-20T10:40:05Z</time>
      </trkpt>
      <trkpt lat="42.75582" lon="1.59754">
        <ele>1697.409</ele>
        <time>2022-02-20T10:40:07Z</time>
      </trkpt>
      <trkpt lat="42.75581" lon="1.59756">
        <ele>1697.534</ele>
        <time>2022-02-20T10:40:09Z</time>
      </trkpt>
      <trkpt lat="42.75581" lon="1.59758">
        <ele>1697.473</ele>
        <time>2022-02-20T10:40:11Z</time>
      </trkpt>
      <trkpt lat="42.7558" lon="1.59759">
        <ele>1697.341</ele>
        <time>2022-02-20T10:40:13Z</time>
      </trkpt>
      <trkpt lat="42.75579" lon="1.59761">
        <ele>1697.631</ele>
        <time>2022-02-20T10:40:15Z</time>
      </trkpt>
      <trkpt lat="42.75579" lon="1.59762">
        <ele>1698.396</ele>
        <time>2022-02-20T10:40:17Z</time>
      </trkpt>
      <trkpt lat="42.75579" lon="1.59764">
        <ele>1698.515</ele>
        <time>2022-02-20T10:40:19Z</time>
      </trkpt>
      <trkpt lat="42.75579" lon="1.59765">
        <ele>1698.732</ele>
        <time>2022-02-20T10:40:21Z</time>
      </trkpt>
      <trkpt lat="42.75579" lon="1.59767">
        <ele>1699.029</ele>
        <time>2022-02-20T10:40:23Z</time>
      </trkpt>
      <trkpt lat="42.75579" lon="1.59769">
        <ele>1699.081</ele>
        <time>2022-02-20T10:40:25Z</time>
      </trkpt>
      <trkpt lat="42.75579" lon="1.5977">
        <ele>1699.41</ele>
        <time>2022-02-20T10:40:27Z</time>
      </trkpt>
      <trkpt lat="42.75579" lon="1.59772">
        <ele>1699.835</ele>
        <time>2022-02-20T10:40:29Z</time>
      </trkpt>
      <trkpt lat="42.75579" lon="1.59774">
        <ele>1699.835</ele>
        <time>2022-02-20T10:40:31Z</time>
      </trkpt>
      <trkpt lat="42.75579" lon="1.59775">
        <ele>1699.612</ele>
        <time>2022-02-20T10:40:33Z</time>
      </trkpt>
      <trkpt lat="42.75579" lon="1.59777">
        <ele>1699.677</ele>
        <time>2022-02-20T10:40:35Z</time>
      </trkpt>
      <trkpt lat="42.75579" lon="1.59779">
        <ele>1699.619</ele>
        <time>2022-02-20T10:40:37Z</time>
      </trkpt>
      <trkpt lat="42.75578" lon="1.5978">
        <ele>1699.994</ele>
        <time>2022-02-20T10:40:39Z</time>
      </trkpt>
      <trkpt lat="42.75578" lon="1.59782">
        <ele>1700.338</ele>
        <time>2022-02-20T10:40:41Z</time>
      </trkpt>
      <trkpt lat="42.75578" lon="1.59784">
        <ele>1700.337</ele>
        <time>2022-02-20T10:40:43Z</time>
      </trkpt>
      <trkpt lat="42.75578" lon="1.59785">
        <ele>1700.464</ele>
        <time>2022-02-20T10:40:45Z</time>
      </trkpt>
      <trkpt lat="42.75577" lon="1.59787">
        <ele>1700.874</ele>
        <time>2022-02-20T10:40:47Z</time>
      </trkpt>
      <trkpt lat="42.75577" lon="1.59789">
        <ele>1700.91</ele>
        <time>2022-02-20T10:40:49Z</time>
      </trkpt>
      <trkpt lat="42.75577" lon="1.59791">
        <ele>1700.926</ele>
        <time>2022-02-20T10:40:51Z</time>
      </trkpt>
      <trkpt lat="42.75576" lon="1.59792">
        <ele>1700.861</ele>
        <time>2022-02-20T10:40:53Z</time>
      </trkpt>
      <trkpt lat="42.75575" lon="1.59794">
        <ele>1701.506</ele>
        <time>2022-02-20T10:40:55Z</time>
      </trkpt>
      <trkpt lat="42.75575" lon="1.59795">
        <ele>1701.868</ele>
        <time>2022-02-20T10:40:57Z</time>
      </trkpt>
      <trkpt lat="42.75574" lon="1.59796">
        <ele>1701.823</ele>
        <time>2022-02-20T10:40:59Z</time>
      </trkpt>
      <trkpt lat="42.75574" lon="1.59797">
        <ele>1701.998</ele>
        <time>2022-02-20T10:41:01Z</time>
      </trkpt>
      <trkpt lat="42.75573" lon="1.59799">
        <ele>1702.047</ele>
        <time>2022-02-20T10:41:03Z</time>
      </trkpt>
      <trkpt lat="42.75573" lon="1.59801">
        <ele>1702.334</ele>
        <time>2022-02-20T10:41:05Z</time>
      </trkpt>
      <trkpt lat="42.75572" lon="1.59803">
        <ele>1702.68</ele>
        <time>2022-02-20T10:41:07Z</time>
      </trkpt>
      <trkpt lat="42.75571" lon="1.59805">
        <ele>1702.632</ele>
        <time>2022-02-20T10:41:09Z</time>
      </trkpt>
      <trkpt lat="42.7557" lon="1.59806">
        <ele>1701.756</ele>
        <time>2022-02-20T10:41:11Z</time>
      </trkpt>
      <trkpt lat="42.75569" lon="1.59808">
        <ele>1702.371</ele>
        <time>2022-02-20T10:41:13Z</time>
      </trkpt>
      <trkpt lat="42.75569" lon="1.59809">
        <ele>1702.659</ele>
        <time>2022-02-20T10:41:15Z</time>
      </trkpt>
      <trkpt lat="42.75569" lon="1.5981">
        <ele>1702.723</ele>
        <time>2022-02-20T10:41:17Z</time>
      </trkpt>
      <trkpt lat="42.75568" lon="1.59812">
        <ele>1702.736</ele>
        <time>2022-02-20T10:41:19Z</time>
      </trkpt>
      <trkpt lat="42.75568" lon="1.59813">
        <ele>1703.046</ele>
        <time>2022-02-20T10:41:21Z</time>
      </trkpt>
      <trkpt lat="42.75568" lon="1.59815">
        <ele>1702.66</ele>
        <time>2022-02-20T10:41:23Z</time>
      </trkpt>
      <trkpt lat="42.75568" lon="1.59816">
        <ele>1702.591</ele>
        <time>2022-02-20T10:41:25Z</time>
      </trkpt>
      <trkpt lat="42.75568" lon="1.59818">
        <ele>1702.682</ele>
        <time>2022-02-20T10:41:27Z</time>
      </trkpt>
      <trkpt lat="42.75567" lon="1.5982">
        <ele>1702.606</ele>
        <time>2022-02-20T10:41:29Z</time>
      </trkpt>
      <trkpt lat="42.75567" lon="1.59821">
        <ele>1702.78</ele>
        <time>2022-02-20T10:41:31Z</time>
      </trkpt>
      <trkpt lat="42.75567" lon="1.59823">
        <ele>1702.848</ele>
        <time>2022-02-20T10:41:33Z</time>
      </trkpt>
      <trkpt lat="42.75566" lon="1.59825">
        <ele>1703.101</ele>
        <time>2022-02-20T10:41:35Z</time>
      </trkpt>
      <trkpt lat="42.75566" lon="1.59827">
        <ele>1702.943</ele>
        <time>2022-02-20T10:41:37Z</time>
      </trkpt>
      <trkpt lat="42.75566" lon="1.59829">
        <ele>1703.377</ele>
        <time>2022-02-20T10:41:39Z</time>
      </trkpt>
      <trkpt lat="42.75566" lon="1.59831">
        <ele>1703.043</ele>
        <time>2022-02-20T10:41:41Z</time>
      </trkpt>
      <trkpt lat="42.75566" lon="1.59833">
        <ele>1703.211</ele>
        <time>2022-02-20T10:41:43Z</time>
      </trkpt>
      <trkpt lat="42.75565" lon="1.59834">
        <ele>1702.597</ele>
        <time>2022-02-20T10:41:45Z</time>
      </trkpt>
      <trkpt lat="42.75565" lon="1.59836">
        <ele>1702.79</ele>
        <time>2022-02-20T10:41:47Z</time>
      </trkpt>
      <trkpt lat="42.75564" lon="1.59838">
        <ele>1703.053</ele>
        <time>2022-02-20T10:41:49Z</time>
      </trkpt>
      <trkpt lat="42.75564" lon="1.59841">
        <ele>1703.19</ele>
        <time>2022-02-20T10:41:51Z</time>
      </trkpt>
      <trkpt lat="42.75564" lon="1.59842">
        <ele>1703.119</ele>
        <time>2022-02-20T10:41:53Z</time>
      </trkpt>
      <trkpt lat="42.75564" lon="1.59844">
        <ele>1703.637</ele>
        <time>2022-02-20T10:41:55Z</time>
      </trkpt>
      <trkpt lat="42.75563" lon="1.59846">
        <ele>1703.677</ele>
        <time>2022-02-20T10:41:57Z</time>
      </trkpt>
      <trkpt lat="42.75563" lon="1.59848">
        <ele>1703.987</ele>
        <time>2022-02-20T10:41:59Z</time>
      </trkpt>
      <trkpt lat="42.75562" lon="1.5985">
        <ele>1704.319</ele>
        <time>2022-02-20T10:42:01Z</time>
      </trkpt>
      <trkpt lat="42.75562" lon="1.59852">
        <ele>1704.873</ele>
        <time>2022-02-20T10:42:03Z</time>
      </trkpt>
      <trkpt lat="42.75561" lon="1.59854">
        <ele>1704.826</ele>
        <time>2022-02-20T10:42:05Z</time>
      </trkpt>
      <trkpt lat="42.75561" lon="1.59856">
        <ele>1705.419</ele>
        <time>2022-02-20T10:42:07Z</time>
      </trkpt>
      <trkpt lat="42.7556" lon="1.59858">
        <ele>1706.027</ele>
        <time>2022-02-20T10:42:09Z</time>
      </trkpt>
      <trkpt lat="42.7556" lon="1.5986">
        <ele>1706.006</ele>
        <time>2022-02-20T10:42:11Z</time>
      </trkpt>
      <trkpt lat="42.75559" lon="1.59862">
        <ele>1705.769</ele>
        <time>2022-02-20T10:42:13Z</time>
      </trkpt>
      <trkpt lat="42.75559" lon="1.59864">
        <ele>1706.088</ele>
        <time>2022-02-20T10:42:15Z</time>
      </trkpt>
      <trkpt lat="42.75558" lon="1.59866">
        <ele>1705.842</ele>
        <time>2022-02-20T10:42:17Z</time>
      </trkpt>
      <trkpt lat="42.75558" lon="1.59867">
        <ele>1706.037</ele>
        <time>2022-02-20T10:42:19Z</time>
      </trkpt>
      <trkpt lat="42.75558" lon="1.59868">
        <ele>1705.961</ele>
        <time>2022-02-20T10:42:21Z</time>
      </trkpt>
      <trkpt lat="42.75559" lon="1.59867">
        <ele>1706.635</ele>
        <time>2022-02-20T10:42:23Z</time>
      </trkpt>
      <trkpt lat="42.75558" lon="1.59868">
        <ele>1706.3</ele>
        <time>2022-02-20T10:42:25Z</time>
      </trkpt>
      <trkpt lat="42.75558" lon="1.59868">
        <ele>1706.193</ele>
        <time>2022-02-20T10:42:27Z</time>
      </trkpt>
      <trkpt lat="42.75558" lon="1.59869">
        <ele>1706.177</ele>
        <time>2022-02-20T10:42:29Z</time>
      </trkpt>
      <trkpt lat="42.75558" lon="1.5987">
        <ele>1706.393</ele>
        <time>2022-02-20T10:42:31Z</time>
      </trkpt>
      <trkpt lat="42.75558" lon="1.59873">
        <ele>1707.022</ele>
        <time>2022-02-20T10:42:33Z</time>
      </trkpt>
      <trkpt lat="42.75558" lon="1.59875">
        <ele>1707.271</ele>
        <time>2022-02-20T10:42:35Z</time>
      </trkpt>
      <trkpt lat="42.75558" lon="1.59878">
        <ele>1707.304</ele>
        <time>2022-02-20T10:42:37Z</time>
      </trkpt>
      <trkpt lat="42.75558" lon="1.5988">
        <ele>1707.582</ele>
        <time>2022-02-20T10:42:39Z</time>
      </trkpt>
      <trkpt lat="42.75557" lon="1.59882">
        <ele>1707.556</ele>
        <time>2022-02-20T10:42:41Z</time>
      </trkpt>
      <trkpt lat="42.75557" lon="1.59884">
        <ele>1707.297</ele>
        <time>2022-02-20T10:42:43Z</time>
      </trkpt>
      <trkpt lat="42.75556" lon="1.59885">
        <ele>1707.227</ele>
        <time>2022-02-20T10:42:45Z</time>
      </trkpt>
      <trkpt lat="42.75556" lon="1.59887">
        <ele>1707.088</ele>
        <time>2022-02-20T10:42:47Z</time>
      </trkpt>
      <trkpt lat="42.75555" lon="1.59889">
        <ele>1707.192</ele>
        <time>2022-02-20T10:42:49Z</time>
      </trkpt>
      <trkpt lat="42.75554" lon="1.59892">
        <ele>1707.403</ele>
        <time>2022-02-20T10:42:51Z</time>
      </trkpt>
      <trkpt lat="42.75553" lon="1.59894">
        <ele>1707.219</ele>
        <time>2022-02-20T10:42:53Z</time>
      </trkpt>
      <trkpt lat="42.75553" lon="1.59895">
        <ele>1707.814</ele>
        <time>2022-02-20T10:42:55Z</time>
      </trkpt>
      <trkpt lat="42.75552" lon="1.59895">
        <ele>1707.428</ele>
        <time>2022-02-20T10:42:57Z</time>
      </trkpt>
      <trkpt lat="42.75551" lon="1.59896">
        <ele>1707.678</ele>
        <time>2022-02-20T10:42:59Z</time>
      </trkpt>
      <trkpt lat="42.75549" lon="1.59896">
        <ele>1707.744</ele>
        <time>2022-02-20T10:43:01Z</time>
      </trkpt>
      <trkpt lat="42.75548" lon="1.59897">
        <ele>1707.286</ele>
        <time>2022-02-20T10:43:03Z</time>
      </trkpt>
      <trkpt lat="42.75548" lon="1.59898">
        <ele>1706.921</ele>
        <time>2022-02-20T10:43:05Z</time>
      </trkpt>
      <trkpt lat="42.75547" lon="1.59901">
        <ele>1706.204</ele>
        <time>2022-02-20T10:43:07Z</time>
      </trkpt>
      <trkpt lat="42.75545" lon="1.59902">
        <ele>1705.922</ele>
        <time>2022-02-20T10:43:09Z</time>
      </trkpt>
      <trkpt lat="42.75544" lon="1.59902">
        <ele>1705.823</ele>
        <time>2022-02-20T10:43:11Z</time>
      </trkpt>
      <trkpt lat="42.75542" lon="1.59903">
        <ele>1705.727</ele>
        <time>2022-02-20T10:43:13Z</time>
      </trkpt>
      <trkpt lat="42.75541" lon="1.59903">
        <ele>1705.642</ele>
        <time>2022-02-20T10:43:15Z</time>
      </trkpt>
      <trkpt lat="42.75539" lon="1.59904">
        <ele>1705.551</ele>
        <time>2022-02-20T10:43:17Z</time>
      </trkpt>
      <trkpt lat="42.75538" lon="1.59905">
        <ele>1705.287</ele>
        <time>2022-02-20T10:43:19Z</time>
      </trkpt>
      <trkpt lat="42.75537" lon="1.59906">
        <ele>1704.959</ele>
        <time>2022-02-20T10:43:21Z</time>
      </trkpt>
      <trkpt lat="42.75536" lon="1.59908">
        <ele>1704.784</ele>
        <time>2022-02-20T10:43:23Z</time>
      </trkpt>
      <trkpt lat="42.75535" lon="1.59909">
        <ele>1704.481</ele>
        <time>2022-02-20T10:43:25Z</time>
      </trkpt>
      <trkpt lat="42.75534" lon="1.5991">
        <ele>1703.869</ele>
        <time>2022-02-20T10:43:27Z</time>
      </trkpt>
      <trkpt lat="42.75534" lon="1.59911">
        <ele>1703.431</ele>
        <time>2022-02-20T10:43:29Z</time>
      </trkpt>
      <trkpt lat="42.75534" lon="1.59914">
        <ele>1703.433</ele>
        <time>2022-02-20T10:43:31Z</time>
      </trkpt>
      <trkpt lat="42.75534" lon="1.59916">
        <ele>1702.762</ele>
        <time>2022-02-20T10:43:33Z</time>
      </trkpt>
      <trkpt lat="42.75535" lon="1.59918">
        <ele>1702.533</ele>
        <time>2022-02-20T10:43:35Z</time>
      </trkpt>
      <trkpt lat="42.75536" lon="1.59919">
        <ele>1701.539</ele>
        <time>2022-02-20T10:43:37Z</time>
      </trkpt>
      <trkpt lat="42.75536" lon="1.5992">
        <ele>1701.244</ele>
        <time>2022-02-20T10:43:39Z</time>
      </trkpt>
      <trkpt lat="42.75536" lon="1.5992">
        <ele>1700.915</ele>
        <time>2022-02-20T10:43:41Z</time>
      </trkpt>
      <trkpt lat="42.75535" lon="1.59921">
        <ele>1699.963</ele>
        <time>2022-02-20T10:43:43Z</time>
      </trkpt>
      <trkpt lat="42.75535" lon="1.59922">
        <ele>1700.306</ele>
        <time>2022-02-20T10:43:45Z</time>
      </trkpt>
      <trkpt lat="42.75535" lon="1.59922">
        <ele>1700.247</ele>
        <time>2022-02-20T10:43:47Z</time>
      </trkpt>
      <trkpt lat="42.75533" lon="1.59922">
        <ele>1699.579</ele>
        <time>2022-02-20T10:43:49Z</time>
      </trkpt>
      <trkpt lat="42.75531" lon="1.59923">
        <ele>1699.383</ele>
        <time>2022-02-20T10:43:52Z</time>
      </trkpt>
      <trkpt lat="42.7553" lon="1.59924">
        <ele>1698.882</ele>
        <time>2022-02-20T10:43:54Z</time>
      </trkpt>
      <trkpt lat="42.75529" lon="1.59924">
        <ele>1698.965</ele>
        <time>2022-02-20T10:43:56Z</time>
      </trkpt>
      <trkpt lat="42.75528" lon="1.59924">
        <ele>1699.133</ele>
        <time>2022-02-20T10:43:58Z</time>
      </trkpt>
      <trkpt lat="42.75528" lon="1.59925">
        <ele>1699.286</ele>
        <time>2022-02-20T10:44:00Z</time>
      </trkpt>
      <trkpt lat="42.75528" lon="1.59926">
        <ele>1698.96</ele>
        <time>2022-02-20T10:44:02Z</time>
      </trkpt>
      <trkpt lat="42.75526" lon="1.59929">
        <ele>1700.276</ele>
        <time>2022-02-20T10:44:04Z</time>
      </trkpt>
      <trkpt lat="42.75525" lon="1.59931">
        <ele>1700.883</ele>
        <time>2022-02-20T10:44:06Z</time>
      </trkpt>
      <trkpt lat="42.75524" lon="1.59934">
        <ele>1702.439</ele>
        <time>2022-02-20T10:44:08Z</time>
      </trkpt>
      <trkpt lat="42.75524" lon="1.59936">
        <ele>1702.251</ele>
        <time>2022-02-20T10:44:10Z</time>
      </trkpt>
      <trkpt lat="42.75523" lon="1.59938">
        <ele>1702.653</ele>
        <time>2022-02-20T10:44:12Z</time>
      </trkpt>
      <trkpt lat="42.75522" lon="1.59938">
        <ele>1701.853</ele>
        <time>2022-02-20T10:44:14Z</time>
      </trkpt>
      <trkpt lat="42.75521" lon="1.59938">
        <ele>1700.251</ele>
        <time>2022-02-20T10:44:16Z</time>
      </trkpt>
      <trkpt lat="42.75519" lon="1.59939">
        <ele>1699.331</ele>
        <time>2022-02-20T10:44:18Z</time>
      </trkpt>
      <trkpt lat="42.75518" lon="1.59939">
        <ele>1698.766</ele>
        <time>2022-02-20T10:44:20Z</time>
      </trkpt>
      <trkpt lat="42.75518" lon="1.5994">
        <ele>1698.3</ele>
        <time>2022-02-20T10:44:22Z</time>
      </trkpt>
      <trkpt lat="42.75518" lon="1.5994">
        <ele>1697.41</ele>
        <time>2022-02-20T10:44:24Z</time>
      </trkpt>
      <trkpt lat="42.75517" lon="1.59941">
        <ele>1696.966</ele>
        <time>2022-02-20T10:44:26Z</time>
      </trkpt>
      <trkpt lat="42.75517" lon="1.59942">
        <ele>1695.963</ele>
        <time>2022-02-20T10:44:28Z</time>
      </trkpt>
      <trkpt lat="42.75516" lon="1.59943">
        <ele>1695.204</ele>
        <time>2022-02-20T10:44:30Z</time>
      </trkpt>
      <trkpt lat="42.75516" lon="1.59944">
        <ele>1694.97</ele>
        <time>2022-02-20T10:44:32Z</time>
      </trkpt>
      <trkpt lat="42.75515" lon="1.59944">
        <ele>1695.453</ele>
        <time>2022-02-20T10:44:34Z</time>
      </trkpt>
      <trkpt lat="42.75514" lon="1.59945">
        <ele>1694.792</ele>
        <time>2022-02-20T10:44:36Z</time>
      </trkpt>
      <trkpt lat="42.75512" lon="1.59946">
        <ele>1694.423</ele>
        <time>2022-02-20T10:44:38Z</time>
      </trkpt>
      <trkpt lat="42.75511" lon="1.59947">
        <ele>1693.912</ele>
        <time>2022-02-20T10:44:40Z</time>
      </trkpt>
      <trkpt lat="42.75511" lon="1.59948">
        <ele>1694.357</ele>
        <time>2022-02-20T10:44:42Z</time>
      </trkpt>
      <trkpt lat="42.7551" lon="1.5995">
        <ele>1694.595</ele>
        <time>2022-02-20T10:44:44Z</time>
      </trkpt>
      <trkpt lat="42.75509" lon="1.59951">
        <ele>1694.418</ele>
        <time>2022-02-20T10:44:46Z</time>
      </trkpt>
      <trkpt lat="42.75508" lon="1.59953">
        <ele>1694.622</ele>
        <time>2022-02-20T10:44:48Z</time>
      </trkpt>
      <trkpt lat="42.75507" lon="1.59953">
        <ele>1693.941</ele>
        <time>2022-02-20T10:44:50Z</time>
      </trkpt>
      <trkpt lat="42.75507" lon="1.59955">
        <ele>1693.095</ele>
        <time>2022-02-20T10:44:52Z</time>
      </trkpt>
      <trkpt lat="42.75506" lon="1.59956">
        <ele>1692.68</ele>
        <time>2022-02-20T10:44:54Z</time>
      </trkpt>
      <trkpt lat="42.75506" lon="1.59956">
        <ele>1692.588</ele>
        <time>2022-02-20T10:44:56Z</time>
      </trkpt>
      <trkpt lat="42.75506" lon="1.59956">
        <ele>1692.575</ele>
        <time>2022-02-20T10:44:58Z</time>
      </trkpt>
      <trkpt lat="42.75507" lon="1.59956">
        <ele>1692.577</ele>
        <time>2022-02-20T10:45:00Z</time>
      </trkpt>
      <trkpt lat="42.75507" lon="1.59956">
        <ele>1692.576</ele>
        <time>2022-02-20T10:45:02Z</time>
      </trkpt>
      <trkpt lat="42.75507" lon="1.59957">
        <ele>1691.968</ele>
        <time>2022-02-20T10:45:04Z</time>
      </trkpt>
      <trkpt lat="42.75507" lon="1.59958">
        <ele>1692.001</ele>
        <time>2022-02-20T10:45:06Z</time>
      </trkpt>
      <trkpt lat="42.75507" lon="1.5996">
        <ele>1691.375</ele>
        <time>2022-02-20T10:45:08Z</time>
      </trkpt>
      <trkpt lat="42.75506" lon="1.59961">
        <ele>1692.446</ele>
        <time>2022-02-20T10:45:10Z</time>
      </trkpt>
      <trkpt lat="42.75505" lon="1.59961">
        <ele>1691.768</ele>
        <time>2022-02-20T10:45:12Z</time>
      </trkpt>
      <trkpt lat="42.75506" lon="1.59962">
        <ele>1690.908</ele>
        <time>2022-02-20T10:45:14Z</time>
      </trkpt>
      <trkpt lat="42.75506" lon="1.59963">
        <ele>1690.363</ele>
        <time>2022-02-20T10:45:16Z</time>
      </trkpt>
      <trkpt lat="42.75506" lon="1.59965">
        <ele>1689.668</ele>
        <time>2022-02-20T10:45:18Z</time>
      </trkpt>
      <trkpt lat="42.75505" lon="1.59966">
        <ele>1689.022</ele>
        <time>2022-02-20T10:45:20Z</time>
      </trkpt>
      <trkpt lat="42.75504" lon="1.59968">
        <ele>1688.995</ele>
        <time>2022-02-20T10:45:22Z</time>
      </trkpt>
      <trkpt lat="42.75504" lon="1.59969">
        <ele>1689.154</ele>
        <time>2022-02-20T10:45:24Z</time>
      </trkpt>
      <trkpt lat="42.75503" lon="1.59971">
        <ele>1688.758</ele>
        <time>2022-02-20T10:45:26Z</time>
      </trkpt>
      <trkpt lat="42.75502" lon="1.59973">
        <ele>1688.659</ele>
        <time>2022-02-20T10:45:28Z</time>
      </trkpt>
      <trkpt lat="42.75501" lon="1.59975">
        <ele>1688.117</ele>
        <time>2022-02-20T10:45:30Z</time>
      </trkpt>
      <trkpt lat="42.755" lon="1.59977">
        <ele>1688.294</ele>
        <time>2022-02-20T10:45:32Z</time>
      </trkpt>
      <trkpt lat="42.75499" lon="1.59979">
        <ele>1687.42</ele>
        <time>2022-02-20T10:45:34Z</time>
      </trkpt>
      <trkpt lat="42.75498" lon="1.59981">
        <ele>1686.431</ele>
        <time>2022-02-20T10:45:36Z</time>
      </trkpt>
      <trkpt lat="42.75497" lon="1.59984">
        <ele>1686.106</ele>
        <time>2022-02-20T10:45:38Z</time>
      </trkpt>
      <trkpt lat="42.75497" lon="1.59986">
        <ele>1686.906</ele>
        <time>2022-02-20T10:45:40Z</time>
      </trkpt>
      <trkpt lat="42.75496" lon="1.59988">
        <ele>1685.796</ele>
        <time>2022-02-20T10:45:42Z</time>
      </trkpt>
      <trkpt lat="42.75495" lon="1.5999">
        <ele>1685.602</ele>
        <time>2022-02-20T10:45:44Z</time>
      </trkpt>
      <trkpt lat="42.75494" lon="1.59993">
        <ele>1684.81</ele>
        <time>2022-02-20T10:45:46Z</time>
      </trkpt>
      <trkpt lat="42.75494" lon="1.59995">
        <ele>1685.569</ele>
        <time>2022-02-20T10:45:48Z</time>
      </trkpt>
      <trkpt lat="42.75493" lon="1.59997">
        <ele>1686.484</ele>
        <time>2022-02-20T10:45:50Z</time>
      </trkpt>
      <trkpt lat="42.75492" lon="1.59999">
        <ele>1687.364</ele>
        <time>2022-02-20T10:45:52Z</time>
      </trkpt>
      <trkpt lat="42.75491" lon="1.60001">
        <ele>1687.216</ele>
        <time>2022-02-20T10:45:54Z</time>
      </trkpt>
      <trkpt lat="42.75491" lon="1.60003">
        <ele>1687.176</ele>
        <time>2022-02-20T10:45:56Z</time>
      </trkpt>
      <trkpt lat="42.75491" lon="1.60004">
        <ele>1687.318</ele>
        <time>2022-02-20T10:45:57Z</time>
      </trkpt>
      <trkpt lat="42.7549" lon="1.60006">
        <ele>1687.582</ele>
        <time>2022-02-20T10:46:00Z</time>
      </trkpt>
      <trkpt lat="42.75489" lon="1.60007">
        <ele>1687.594</ele>
        <time>2022-02-20T10:46:02Z</time>
      </trkpt>
      <trkpt lat="42.75489" lon="1.60008">
        <ele>1687.894</ele>
        <time>2022-02-20T10:46:04Z</time>
      </trkpt>
      <trkpt lat="42.75488" lon="1.6001">
        <ele>1688.359</ele>
        <time>2022-02-20T10:46:06Z</time>
      </trkpt>
      <trkpt lat="42.75488" lon="1.60011">
        <ele>1688.415</ele>
        <time>2022-02-20T10:46:08Z</time>
      </trkpt>
      <trkpt lat="42.75487" lon="1.60013">
        <ele>1688.493</ele>
        <time>2022-02-20T10:46:10Z</time>
      </trkpt>
      <trkpt lat="42.75487" lon="1.60013">
        <ele>1688.481</ele>
        <time>2022-02-20T10:46:12Z</time>
      </trkpt>
      <trkpt lat="42.75486" lon="1.60014">
        <ele>1688.635</ele>
        <time>2022-02-20T10:46:14Z</time>
      </trkpt>
      <trkpt lat="42.75487" lon="1.60014">
        <ele>1688.406</ele>
        <time>2022-02-20T10:46:16Z</time>
      </trkpt>
      <trkpt lat="42.75486" lon="1.60015">
        <ele>1688.805</ele>
        <time>2022-02-20T10:46:18Z</time>
      </trkpt>
      <trkpt lat="42.75486" lon="1.60015">
        <ele>1688.776</ele>
        <time>2022-02-20T10:46:20Z</time>
      </trkpt>
      <trkpt lat="42.75486" lon="1.60015">
        <ele>1688.769</ele>
        <time>2022-02-20T10:46:22Z</time>
      </trkpt>
      <trkpt lat="42.75487" lon="1.60015">
        <ele>1688.886</ele>
        <time>2022-02-20T10:46:24Z</time>
      </trkpt>
      <trkpt lat="42.75487" lon="1.60015">
        <ele>1689.571</ele>
        <time>2022-02-20T10:46:26Z</time>
      </trkpt>
      <trkpt lat="42.75487" lon="1.60015">
        <ele>1689.57</ele>
        <time>2022-02-20T10:46:28Z</time>
      </trkpt>
      <trkpt lat="42.75487" lon="1.60015">
        <ele>1689.56</ele>
        <time>2022-02-20T10:46:30Z</time>
      </trkpt>
      <trkpt lat="42.75486" lon="1.60016">
        <ele>1689.285</ele>
        <time>2022-02-20T10:46:32Z</time>
      </trkpt>
      <trkpt lat="42.75486" lon="1.60016">
        <ele>1689.259</ele>
        <time>2022-02-20T10:46:34Z</time>
      </trkpt>
      <trkpt lat="42.75486" lon="1.60016">
        <ele>1689.258</ele>
        <time>2022-02-20T10:46:36Z</time>
      </trkpt>
      <trkpt lat="42.75486" lon="1.60016">
        <ele>1689.251</ele>
        <time>2022-02-20T10:46:38Z</time>
      </trkpt>
      <trkpt lat="42.75486" lon="1.60016">
        <ele>1689.254</ele>
        <time>2022-02-20T10:46:40Z</time>
      </trkpt>
      <trkpt lat="42.75486" lon="1.60016">
        <ele>1689.255</ele>
        <time>2022-02-20T10:46:42Z</time>
      </trkpt>
      <trkpt lat="42.75487" lon="1.60017">
        <ele>1689.356</ele>
        <time>2022-02-20T10:46:44Z</time>
      </trkpt>
      <trkpt lat="42.75487" lon="1.60018">
        <ele>1689.76</ele>
        <time>2022-02-20T10:46:46Z</time>
      </trkpt>
      <trkpt lat="42.75487" lon="1.60019">
        <ele>1688.875</ele>
        <time>2022-02-20T10:46:48Z</time>
      </trkpt>
      <trkpt lat="42.75487" lon="1.6002">
        <ele>1689.201</ele>
        <time>2022-02-20T10:46:50Z</time>
      </trkpt>
      <trkpt lat="42.75487" lon="1.60022">
        <ele>1688.638</ele>
        <time>2022-02-20T10:46:52Z</time>
      </trkpt>
      <trkpt lat="42.75487" lon="1.60024">
        <ele>1688.657</ele>
        <time>2022-02-20T10:46:54Z</time>
      </trkpt>
      <trkpt lat="42.75487" lon="1.60026">
        <ele>1688.49</ele>
        <time>2022-02-20T10:46:56Z</time>
      </trkpt>
      <trkpt lat="42.75486" lon="1.60027">
        <ele>1688.068</ele>
        <time>2022-02-20T10:46:58Z</time>
      </trkpt>
      <trkpt lat="42.75485" lon="1.60029">
        <ele>1688.532</ele>
        <time>2022-02-20T10:47:00Z</time>
      </trkpt>
      <trkpt lat="42.75485" lon="1.6003">
        <ele>1688.79</ele>
        <time>2022-02-20T10:47:02Z</time>
      </trkpt>
      <trkpt lat="42.75486" lon="1.60032">
        <ele>1688.354</ele>
        <time>2022-02-20T10:47:04Z</time>
      </trkpt>
      <trkpt lat="42.75486" lon="1.60033">
        <ele>1688.427</ele>
        <time>2022-02-20T10:47:06Z</time>
      </trkpt>
      <trkpt lat="42.75486" lon="1.60035">
        <ele>1687.246</ele>
        <time>2022-02-20T10:47:08Z</time>
      </trkpt>
      <trkpt lat="42.75485" lon="1.60037">
        <ele>1687.152</ele>
        <time>2022-02-20T10:47:10Z</time>
      </trkpt>
      <trkpt lat="42.75485" lon="1.60039">
        <ele>1687.518</ele>
        <time>2022-02-20T10:47:12Z</time>
      </trkpt>
      <trkpt lat="42.75485" lon="1.60041">
        <ele>1688.059</ele>
        <time>2022-02-20T10:47:14Z</time>
      </trkpt>
      <trkpt lat="42.75485" lon="1.60043">
        <ele>1688.972</ele>
        <time>2022-02-20T10:47:16Z</time>
      </trkpt>
      <trkpt lat="42.75485" lon="1.60045">
        <ele>1688.791</ele>
        <time>2022-02-20T10:47:18Z</time>
      </trkpt>
      <trkpt lat="42.75485" lon="1.60047">
        <ele>1689.579</ele>
        <time>2022-02-20T10:47:20Z</time>
      </trkpt>
      <trkpt lat="42.75484" lon="1.60049">
        <ele>1689.806</ele>
        <time>2022-02-20T10:47:22Z</time>
      </trkpt>
      <trkpt lat="42.75484" lon="1.60051">
        <ele>1689.41</ele>
        <time>2022-02-20T10:47:24Z</time>
      </trkpt>
      <trkpt lat="42.75483" lon="1.60054">
        <ele>1689.436</ele>
        <time>2022-02-20T10:47:26Z</time>
      </trkpt>
      <trkpt lat="42.75483" lon="1.60056">
        <ele>1689.429</ele>
        <time>2022-02-20T10:47:28Z</time>
      </trkpt>
      <trkpt lat="42.75483" lon="1.60057">
        <ele>1690.517</ele>
        <time>2022-02-20T10:47:30Z</time>
      </trkpt>
      <trkpt lat="42.75482" lon="1.60059">
        <ele>1690.44</ele>
        <time>2022-02-20T10:47:32Z</time>
      </trkpt>
      <trkpt lat="42.75482" lon="1.60061">
        <ele>1690.733</ele>
        <time>2022-02-20T10:47:34Z</time>
      </trkpt>
      <trkpt lat="42.75482" lon="1.60063">
        <ele>1691.234</ele>
        <time>2022-02-20T10:47:36Z</time>
      </trkpt>
      <trkpt lat="42.75482" lon="1.60065">
        <ele>1691.704</ele>
        <time>2022-02-20T10:47:38Z</time>
      </trkpt>
      <trkpt lat="42.75481" lon="1.60067">
        <ele>1692.58</ele>
        <time>2022-02-20T10:47:40Z</time>
      </trkpt>
      <trkpt lat="42.7548" lon="1.60068">
        <ele>1693.071</ele>
        <time>2022-02-20T10:47:42Z</time>
      </trkpt>
      <trkpt lat="42.7548" lon="1.60069">
        <ele>1693.253</ele>
        <time>2022-02-20T10:47:44Z</time>
      </trkpt>
      <trkpt lat="42.75479" lon="1.60071">
        <ele>1693.478</ele>
        <time>2022-02-20T10:47:46Z</time>
      </trkpt>
      <trkpt lat="42.75478" lon="1.60073">
        <ele>1693.139</ele>
        <time>2022-02-20T10:47:48Z</time>
      </trkpt>
      <trkpt lat="42.75478" lon="1.60075">
        <ele>1692.724</ele>
        <time>2022-02-20T10:47:50Z</time>
      </trkpt>
      <trkpt lat="42.75478" lon="1.60076">
        <ele>1692.979</ele>
        <time>2022-02-20T10:47:52Z</time>
      </trkpt>
      <trkpt lat="42.75478" lon="1.60078">
        <ele>1693.45</ele>
        <time>2022-02-20T10:47:54Z</time>
      </trkpt>
      <trkpt lat="42.75478" lon="1.6008">
        <ele>1693.797</ele>
        <time>2022-02-20T10:47:56Z</time>
      </trkpt>
      <trkpt lat="42.75477" lon="1.60081">
        <ele>1693.749</ele>
        <time>2022-02-20T10:47:58Z</time>
      </trkpt>
      <trkpt lat="42.75477" lon="1.60083">
        <ele>1694.026</ele>
        <time>2022-02-20T10:48:00Z</time>
      </trkpt>
      <trkpt lat="42.75476" lon="1.60084">
        <ele>1694.154</ele>
        <time>2022-02-20T10:48:02Z</time>
      </trkpt>
      <trkpt lat="42.75476" lon="1.60086">
        <ele>1693.542</ele>
        <time>2022-02-20T10:48:04Z</time>
      </trkpt>
      <trkpt lat="42.75475" lon="1.60088">
        <ele>1693.665</ele>
        <time>2022-02-20T10:48:06Z</time>
      </trkpt>
      <trkpt lat="42.75475" lon="1.60089">
        <ele>1694.261</ele>
        <time>2022-02-20T10:48:08Z</time>
      </trkpt>
      <trkpt lat="42.75475" lon="1.60091">
        <ele>1695.203</ele>
        <time>2022-02-20T10:48:10Z</time>
      </trkpt>
      <trkpt lat="42.75475" lon="1.60093">
        <ele>1695.446</ele>
        <time>2022-02-20T10:48:12Z</time>
      </trkpt>
      <trkpt lat="42.75475" lon="1.60094">
        <ele>1695.949</ele>
        <time>2022-02-20T10:48:14Z</time>
      </trkpt>
      <trkpt lat="42.75474" lon="1.60097">
        <ele>1696.61</ele>
        <time>2022-02-20T10:48:16Z</time>
      </trkpt>
      <trkpt lat="42.75474" lon="1.60098">
        <ele>1697.063</ele>
        <time>2022-02-20T10:48:18Z</time>
      </trkpt>
      <trkpt lat="42.75474" lon="1.601">
        <ele>1697.142</ele>
        <time>2022-02-20T10:48:20Z</time>
      </trkpt>
      <trkpt lat="42.75474" lon="1.60102">
        <ele>1697.774</ele>
        <time>2022-02-20T10:48:22Z</time>
      </trkpt>
      <trkpt lat="42.75474" lon="1.60104">
        <ele>1697.996</ele>
        <time>2022-02-20T10:48:24Z</time>
      </trkpt>
      <trkpt lat="42.75473" lon="1.60105">
        <ele>1698.129</ele>
        <time>2022-02-20T10:48:26Z</time>
      </trkpt>
      <trkpt lat="42.75473" lon="1.60107">
        <ele>1698.401</ele>
        <time>2022-02-20T10:48:28Z</time>
      </trkpt>
      <trkpt lat="42.75473" lon="1.60109">
        <ele>1698.129</ele>
        <time>2022-02-20T10:48:30Z</time>
      </trkpt>
      <trkpt lat="42.75473" lon="1.6011">
        <ele>1698.336</ele>
        <time>2022-02-20T10:48:32Z</time>
      </trkpt>
      <trkpt lat="42.75472" lon="1.60111">
        <ele>1697.729</ele>
        <time>2022-02-20T10:48:34Z</time>
      </trkpt>
      <trkpt lat="42.75472" lon="1.60113">
        <ele>1697.831</ele>
        <time>2022-02-20T10:48:36Z</time>
      </trkpt>
      <trkpt lat="42.75472" lon="1.60114">
        <ele>1697.794</ele>
        <time>2022-02-20T10:48:38Z</time>
      </trkpt>
      <trkpt lat="42.75471" lon="1.60116">
        <ele>1698.003</ele>
        <time>2022-02-20T10:48:40Z</time>
      </trkpt>
      <trkpt lat="42.75471" lon="1.60117">
        <ele>1698.2</ele>
        <time>2022-02-20T10:48:42Z</time>
      </trkpt>
      <trkpt lat="42.75471" lon="1.60118">
        <ele>1698.549</ele>
        <time>2022-02-20T10:48:44Z</time>
      </trkpt>
      <trkpt lat="42.75471" lon="1.6012">
        <ele>1698.433</ele>
        <time>2022-02-20T10:48:46Z</time>
      </trkpt>
      <trkpt lat="42.7547" lon="1.60122">
        <ele>1698.493</ele>
        <time>2022-02-20T10:48:48Z</time>
      </trkpt>
      <trkpt lat="42.7547" lon="1.60123">
        <ele>1699.278</ele>
        <time>2022-02-20T10:48:50Z</time>
      </trkpt>
      <trkpt lat="42.7547" lon="1.60124">
        <ele>1698.868</ele>
        <time>2022-02-20T10:48:52Z</time>
      </trkpt>
      <trkpt lat="42.75469" lon="1.60126">
        <ele>1698.688</ele>
        <time>2022-02-20T10:48:54Z</time>
      </trkpt>
      <trkpt lat="42.75469" lon="1.60128">
        <ele>1698.399</ele>
        <time>2022-02-20T10:48:56Z</time>
      </trkpt>
      <trkpt lat="42.75469" lon="1.60129">
        <ele>1698.373</ele>
        <time>2022-02-20T10:48:58Z</time>
      </trkpt>
      <trkpt lat="42.75469" lon="1.60131">
        <ele>1698.046</ele>
        <time>2022-02-20T10:49:00Z</time>
      </trkpt>
      <trkpt lat="42.75469" lon="1.60132">
        <ele>1697.767</ele>
        <time>2022-02-20T10:49:02Z</time>
      </trkpt>
      <trkpt lat="42.75468" lon="1.60133">
        <ele>1697.837</ele>
        <time>2022-02-20T10:49:04Z</time>
      </trkpt>
      <trkpt lat="42.75468" lon="1.60135">
        <ele>1697.211</ele>
        <time>2022-02-20T10:49:06Z</time>
      </trkpt>
      <trkpt lat="42.75468" lon="1.60136">
        <ele>1697.572</ele>
        <time>2022-02-20T10:49:08Z</time>
      </trkpt>
      <trkpt lat="42.75468" lon="1.60139">
        <ele>1696.836</ele>
        <time>2022-02-20T10:49:10Z</time>
      </trkpt>
      <trkpt lat="42.75468" lon="1.6014">
        <ele>1696.792</ele>
        <time>2022-02-20T10:49:12Z</time>
      </trkpt>
      <trkpt lat="42.75468" lon="1.60142">
        <ele>1696.12</ele>
        <time>2022-02-20T10:49:14Z</time>
      </trkpt>
      <trkpt lat="42.75468" lon="1.60143">
        <ele>1696.14</ele>
        <time>2022-02-20T10:49:16Z</time>
      </trkpt>
      <trkpt lat="42.75468" lon="1.60145">
        <ele>1695.8</ele>
        <time>2022-02-20T10:49:18Z</time>
      </trkpt>
      <trkpt lat="42.75469" lon="1.60147">
        <ele>1695.633</ele>
        <time>2022-02-20T10:49:20Z</time>
      </trkpt>
      <trkpt lat="42.75469" lon="1.60149">
        <ele>1695.96</ele>
        <time>2022-02-20T10:49:22Z</time>
      </trkpt>
      <trkpt lat="42.75468" lon="1.6015">
        <ele>1695.569</ele>
        <time>2022-02-20T10:49:24Z</time>
      </trkpt>
      <trkpt lat="42.75468" lon="1.60152">
        <ele>1696.121</ele>
        <time>2022-02-20T10:49:26Z</time>
      </trkpt>
      <trkpt lat="42.75467" lon="1.60154">
        <ele>1695.643</ele>
        <time>2022-02-20T10:49:28Z</time>
      </trkpt>
      <trkpt lat="42.75467" lon="1.60156">
        <ele>1696.04</ele>
        <time>2022-02-20T10:49:30Z</time>
      </trkpt>
      <trkpt lat="42.75467" lon="1.60158">
        <ele>1695.562</ele>
        <time>2022-02-20T10:49:32Z</time>
      </trkpt>
      <trkpt lat="42.75467" lon="1.6016">
        <ele>1695.511</ele>
        <time>2022-02-20T10:49:34Z</time>
      </trkpt>
      <trkpt lat="42.75466" lon="1.60163">
        <ele>1695.602</ele>
        <time>2022-02-20T10:49:36Z</time>
      </trkpt>
      <trkpt lat="42.75466" lon="1.60165">
        <ele>1696.861</ele>
        <time>2022-02-20T10:49:38Z</time>
      </trkpt>
      <trkpt lat="42.75465" lon="1.60167">
        <ele>1697.274</ele>
        <time>2022-02-20T10:49:40Z</time>
      </trkpt>
      <trkpt lat="42.75464" lon="1.60169">
        <ele>1696.969</ele>
        <time>2022-02-20T10:49:42Z</time>
      </trkpt>
      <trkpt lat="42.75463" lon="1.60171">
        <ele>1697.583</ele>
        <time>2022-02-20T10:49:44Z</time>
      </trkpt>
      <trkpt lat="42.75463" lon="1.60172">
        <ele>1697.59</ele>
        <time>2022-02-20T10:49:46Z</time>
      </trkpt>
      <trkpt lat="42.75463" lon="1.60174">
        <ele>1697.959</ele>
        <time>2022-02-20T10:49:48Z</time>
      </trkpt>
      <trkpt lat="42.75462" lon="1.60176">
        <ele>1698.621</ele>
        <time>2022-02-20T10:49:50Z</time>
      </trkpt>
      <trkpt lat="42.75462" lon="1.60178">
        <ele>1698.838</ele>
        <time>2022-02-20T10:49:52Z</time>
      </trkpt>
      <trkpt lat="42.75462" lon="1.60181">
        <ele>1699.241</ele>
        <time>2022-02-20T10:49:54Z</time>
      </trkpt>
      <trkpt lat="42.75462" lon="1.60183">
        <ele>1699.476</ele>
        <time>2022-02-20T10:49:56Z</time>
      </trkpt>
      <trkpt lat="42.75462" lon="1.60184">
        <ele>1699.676</ele>
        <time>2022-02-20T10:49:58Z</time>
      </trkpt>
      <trkpt lat="42.75462" lon="1.60186">
        <ele>1699.319</ele>
        <time>2022-02-20T10:50:00Z</time>
      </trkpt>
      <trkpt lat="42.75461" lon="1.60188">
        <ele>1699.175</ele>
        <time>2022-02-20T10:50:02Z</time>
      </trkpt>
      <trkpt lat="42.75461" lon="1.6019">
        <ele>1699.702</ele>
        <time>2022-02-20T10:50:04Z</time>
      </trkpt>
      <trkpt lat="42.75461" lon="1.60191">
        <ele>1700.479</ele>
        <time>2022-02-20T10:50:06Z</time>
      </trkpt>
      <trkpt lat="42.75461" lon="1.60192">
        <ele>1700.523</ele>
        <time>2022-02-20T10:50:07Z</time>
      </trkpt>
      <trkpt lat="42.7546" lon="1.60195">
        <ele>1701.206</ele>
        <time>2022-02-20T10:50:10Z</time>
      </trkpt>
      <trkpt lat="42.75459" lon="1.60197">
        <ele>1701.215</ele>
        <time>2022-02-20T10:50:12Z</time>
      </trkpt>
      <trkpt lat="42.75459" lon="1.60199">
        <ele>1701.448</ele>
        <time>2022-02-20T10:50:14Z</time>
      </trkpt>
      <trkpt lat="42.75458" lon="1.602">
        <ele>1701.396</ele>
        <time>2022-02-20T10:50:16Z</time>
      </trkpt>
      <trkpt lat="42.75458" lon="1.60202">
        <ele>1701.82</ele>
        <time>2022-02-20T10:50:18Z</time>
      </trkpt>
      <trkpt lat="42.75458" lon="1.60204">
        <ele>1702.552</ele>
        <time>2022-02-20T10:50:20Z</time>
      </trkpt>
      <trkpt lat="42.75457" lon="1.60206">
        <ele>1703.36</ele>
        <time>2022-02-20T10:50:22Z</time>
      </trkpt>
      <trkpt lat="42.75456" lon="1.60208">
        <ele>1703.082</ele>
        <time>2022-02-20T10:50:24Z</time>
      </trkpt>
      <trkpt lat="42.75456" lon="1.60209">
        <ele>1702.983</ele>
        <time>2022-02-20T10:50:26Z</time>
      </trkpt>
      <trkpt lat="42.75455" lon="1.60211">
        <ele>1703.322</ele>
        <time>2022-02-20T10:50:28Z</time>
      </trkpt>
      <trkpt lat="42.75454" lon="1.60212">
        <ele>1703.655</ele>
        <time>2022-02-20T10:50:30Z</time>
      </trkpt>
      <trkpt lat="42.75454" lon="1.60214">
        <ele>1704.657</ele>
        <time>2022-02-20T10:50:32Z</time>
      </trkpt>
      <trkpt lat="42.75454" lon="1.60215">
        <ele>1705.067</ele>
        <time>2022-02-20T10:50:34Z</time>
      </trkpt>
      <trkpt lat="42.75453" lon="1.60218">
        <ele>1705.361</ele>
        <time>2022-02-20T10:50:36Z</time>
      </trkpt>
      <trkpt lat="42.75453" lon="1.60219">
        <ele>1705.828</ele>
        <time>2022-02-20T10:50:38Z</time>
      </trkpt>
      <trkpt lat="42.75452" lon="1.60221">
        <ele>1706.279</ele>
        <time>2022-02-20T10:50:40Z</time>
      </trkpt>
      <trkpt lat="42.75452" lon="1.60223">
        <ele>1706.463</ele>
        <time>2022-02-20T10:50:42Z</time>
      </trkpt>
      <trkpt lat="42.75451" lon="1.60224">
        <ele>1707.389</ele>
        <time>2022-02-20T10:50:44Z</time>
      </trkpt>
      <trkpt lat="42.7545" lon="1.60226">
        <ele>1707.308</ele>
        <time>2022-02-20T10:50:46Z</time>
      </trkpt>
      <trkpt lat="42.7545" lon="1.60227">
        <ele>1708.194</ele>
        <time>2022-02-20T10:50:48Z</time>
      </trkpt>
      <trkpt lat="42.7545" lon="1.60227">
        <ele>1708.111</ele>
        <time>2022-02-20T10:50:50Z</time>
      </trkpt>
      <trkpt lat="42.7545" lon="1.60227">
        <ele>1708.112</ele>
        <time>2022-02-20T10:50:52Z</time>
      </trkpt>
      <trkpt lat="42.7545" lon="1.60227">
        <ele>1708.203</ele>
        <time>2022-02-20T10:50:54Z</time>
      </trkpt>
      <trkpt lat="42.7545" lon="1.60227">
        <ele>1708.191</ele>
        <time>2022-02-20T10:50:56Z</time>
      </trkpt>
      <trkpt lat="42.75449" lon="1.60228">
        <ele>1708.385</ele>
        <time>2022-02-20T10:50:58Z</time>
      </trkpt>
      <trkpt lat="42.75449" lon="1.60229">
        <ele>1708.513</ele>
        <time>2022-02-20T10:51:00Z</time>
      </trkpt>
      <trkpt lat="42.7545" lon="1.60229">
        <ele>1708.452</ele>
        <time>2022-02-20T10:51:02Z</time>
      </trkpt>
      <trkpt lat="42.7545" lon="1.60229">
        <ele>1708.45</ele>
        <time>2022-02-20T10:51:04Z</time>
      </trkpt>
      <trkpt lat="42.7545" lon="1.60229">
        <ele>1708.447</ele>
        <time>2022-02-20T10:51:06Z</time>
      </trkpt>
      <trkpt lat="42.7545" lon="1.60229">
        <ele>1708.532</ele>
        <time>2022-02-20T10:51:08Z</time>
      </trkpt>
      <trkpt lat="42.75449" lon="1.6023">
        <ele>1709.721</ele>
        <time>2022-02-20T10:51:10Z</time>
      </trkpt>
      <trkpt lat="42.75449" lon="1.60231">
        <ele>1709.534</ele>
        <time>2022-02-20T10:51:12Z</time>
      </trkpt>
      <trkpt lat="42.75449" lon="1.60232">
        <ele>1709.674</ele>
        <time>2022-02-20T10:51:14Z</time>
      </trkpt>
      <trkpt lat="42.75449" lon="1.60233">
        <ele>1709.456</ele>
        <time>2022-02-20T10:51:16Z</time>
      </trkpt>
      <trkpt lat="42.75448" lon="1.60235">
        <ele>1710.365</ele>
        <time>2022-02-20T10:51:18Z</time>
      </trkpt>
      <trkpt lat="42.75448" lon="1.60236">
        <ele>1710.758</ele>
        <time>2022-02-20T10:51:20Z</time>
      </trkpt>
      <trkpt lat="42.75447" lon="1.60237">
        <ele>1710.776</ele>
        <time>2022-02-20T10:51:22Z</time>
      </trkpt>
      <trkpt lat="42.75447" lon="1.60238">
        <ele>1711.241</ele>
        <time>2022-02-20T10:51:24Z</time>
      </trkpt>
      <trkpt lat="42.75447" lon="1.60239">
        <ele>1711.35</ele>
        <time>2022-02-20T10:51:26Z</time>
      </trkpt>
      <trkpt lat="42.75446" lon="1.6024">
        <ele>1710.847</ele>
        <time>2022-02-20T10:51:28Z</time>
      </trkpt>
      <trkpt lat="42.75445" lon="1.60242">
        <ele>1712.002</ele>
        <time>2022-02-20T10:51:30Z</time>
      </trkpt>
      <trkpt lat="42.75445" lon="1.60242">
        <ele>1711.53</ele>
        <time>2022-02-20T10:51:32Z</time>
      </trkpt>
      <trkpt lat="42.75445" lon="1.60243">
        <ele>1712.269</ele>
        <time>2022-02-20T10:51:34Z</time>
      </trkpt>
      <trkpt lat="42.75445" lon="1.60244">
        <ele>1712.581</ele>
        <time>2022-02-20T10:51:36Z</time>
      </trkpt>
      <trkpt lat="42.75444" lon="1.60245">
        <ele>1713.657</ele>
        <time>2022-02-20T10:51:38Z</time>
      </trkpt>
      <trkpt lat="42.75444" lon="1.60245">
        <ele>1713.641</ele>
        <time>2022-02-20T10:51:40Z</time>
      </trkpt>
      <trkpt lat="42.75444" lon="1.60247">
        <ele>1713.95</ele>
        <time>2022-02-20T10:51:42Z</time>
      </trkpt>
      <trkpt lat="42.75443" lon="1.60248">
        <ele>1714.642</ele>
        <time>2022-02-20T10:51:44Z</time>
      </trkpt>
      <trkpt lat="42.75443" lon="1.60249">
        <ele>1715.354</ele>
        <time>2022-02-20T10:51:46Z</time>
      </trkpt>
      <trkpt lat="42.75442" lon="1.60251">
        <ele>1715.542</ele>
        <time>2022-02-20T10:51:48Z</time>
      </trkpt>
      <trkpt lat="42.75442" lon="1.60252">
        <ele>1715.683</ele>
        <time>2022-02-20T10:51:50Z</time>
      </trkpt>
      <trkpt lat="42.75442" lon="1.60253">
        <ele>1715.239</ele>
        <time>2022-02-20T10:51:52Z</time>
      </trkpt>
      <trkpt lat="42.75442" lon="1.60254">
        <ele>1715.605</ele>
        <time>2022-02-20T10:51:54Z</time>
      </trkpt>
      <trkpt lat="42.75442" lon="1.60255">
        <ele>1715.968</ele>
        <time>2022-02-20T10:51:56Z</time>
      </trkpt>
      <trkpt lat="42.75442" lon="1.60257">
        <ele>1716.085</ele>
        <time>2022-02-20T10:51:58Z</time>
      </trkpt>
      <trkpt lat="42.75441" lon="1.60258">
        <ele>1717.072</ele>
        <time>2022-02-20T10:52:00Z</time>
      </trkpt>
      <trkpt lat="42.75441" lon="1.60259">
        <ele>1717.276</ele>
        <time>2022-02-20T10:52:02Z</time>
      </trkpt>
      <trkpt lat="42.75441" lon="1.6026">
        <ele>1717.232</ele>
        <time>2022-02-20T10:52:04Z</time>
      </trkpt>
      <trkpt lat="42.75441" lon="1.60262">
        <ele>1717.521</ele>
        <time>2022-02-20T10:52:06Z</time>
      </trkpt>
      <trkpt lat="42.7544" lon="1.60263">
        <ele>1717.313</ele>
        <time>2022-02-20T10:52:08Z</time>
      </trkpt>
      <trkpt lat="42.7544" lon="1.60264">
        <ele>1717.143</ele>
        <time>2022-02-20T10:52:10Z</time>
      </trkpt>
      <trkpt lat="42.7544" lon="1.60266">
        <ele>1718.206</ele>
        <time>2022-02-20T10:52:12Z</time>
      </trkpt>
      <trkpt lat="42.75439" lon="1.60267">
        <ele>1717.778</ele>
        <time>2022-02-20T10:52:14Z</time>
      </trkpt>
      <trkpt lat="42.75439" lon="1.60268">
        <ele>1717.663</ele>
        <time>2022-02-20T10:52:16Z</time>
      </trkpt>
      <trkpt lat="42.75439" lon="1.60268">
        <ele>1717.449</ele>
        <time>2022-02-20T10:52:18Z</time>
      </trkpt>
      <trkpt lat="42.75439" lon="1.60268">
        <ele>1717.66</ele>
        <time>2022-02-20T10:52:20Z</time>
      </trkpt>
      <trkpt lat="42.75439" lon="1.60268">
        <ele>1717.657</ele>
        <time>2022-02-20T10:52:22Z</time>
      </trkpt>
      <trkpt lat="42.75439" lon="1.60268">
        <ele>1717.663</ele>
        <time>2022-02-20T10:52:24Z</time>
      </trkpt>
      <trkpt lat="42.75439" lon="1.60268">
        <ele>1717.511</ele>
        <time>2022-02-20T10:52:26Z</time>
      </trkpt>
      <trkpt lat="42.75439" lon="1.60269">
        <ele>1718.305</ele>
        <time>2022-02-20T10:52:28Z</time>
      </trkpt>
      <trkpt lat="42.75438" lon="1.60271">
        <ele>1718.537</ele>
        <time>2022-02-20T10:52:30Z</time>
      </trkpt>
      <trkpt lat="42.75438" lon="1.60272">
        <ele>1719</ele>
        <time>2022-02-20T10:52:32Z</time>
      </trkpt>
      <trkpt lat="42.75438" lon="1.60273">
        <ele>1719.158</ele>
        <time>2022-02-20T10:52:34Z</time>
      </trkpt>
      <trkpt lat="42.75438" lon="1.60274">
        <ele>1719.185</ele>
        <time>2022-02-20T10:52:36Z</time>
      </trkpt>
      <trkpt lat="42.75438" lon="1.60275">
        <ele>1719.558</ele>
        <time>2022-02-20T10:52:38Z</time>
      </trkpt>
      <trkpt lat="42.75438" lon="1.60276">
        <ele>1720.018</ele>
        <time>2022-02-20T10:52:40Z</time>
      </trkpt>
      <trkpt lat="42.75438" lon="1.60277">
        <ele>1720.275</ele>
        <time>2022-02-20T10:52:42Z</time>
      </trkpt>
      <trkpt lat="42.75438" lon="1.60278">
        <ele>1720.73</ele>
        <time>2022-02-20T10:52:44Z</time>
      </trkpt>
      <trkpt lat="42.75438" lon="1.6028">
        <ele>1721.007</ele>
        <time>2022-02-20T10:52:46Z</time>
      </trkpt>
      <trkpt lat="42.75438" lon="1.60281">
        <ele>1720.794</ele>
        <time>2022-02-20T10:52:48Z</time>
      </trkpt>
      <trkpt lat="42.75438" lon="1.60282">
        <ele>1720.699</ele>
        <time>2022-02-20T10:52:50Z</time>
      </trkpt>
      <trkpt lat="42.75437" lon="1.60284">
        <ele>1720.879</ele>
        <time>2022-02-20T10:52:52Z</time>
      </trkpt>
      <trkpt lat="42.75437" lon="1.60284">
        <ele>1720.378</ele>
        <time>2022-02-20T10:52:54Z</time>
      </trkpt>
      <trkpt lat="42.75437" lon="1.60284">
        <ele>1720.454</ele>
        <time>2022-02-20T10:52:56Z</time>
      </trkpt>
      <trkpt lat="42.75437" lon="1.60284">
        <ele>1720.673</ele>
        <time>2022-02-20T10:52:58Z</time>
      </trkpt>
      <trkpt lat="42.75437" lon="1.60286">
        <ele>1720.767</ele>
        <time>2022-02-20T10:53:00Z</time>
      </trkpt>
      <trkpt lat="42.75436" lon="1.60286">
        <ele>1720.161</ele>
        <time>2022-02-20T10:53:02Z</time>
      </trkpt>
      <trkpt lat="42.75436" lon="1.60288">
        <ele>1720.468</ele>
        <time>2022-02-20T10:53:04Z</time>
      </trkpt>
      <trkpt lat="42.75436" lon="1.60289">
        <ele>1720.783</ele>
        <time>2022-02-20T10:53:06Z</time>
      </trkpt>
      <trkpt lat="42.75435" lon="1.6029">
        <ele>1721.264</ele>
        <time>2022-02-20T10:53:08Z</time>
      </trkpt>
      <trkpt lat="42.75435" lon="1.60291">
        <ele>1721.304</ele>
        <time>2022-02-20T10:53:10Z</time>
      </trkpt>
      <trkpt lat="42.75434" lon="1.60292">
        <ele>1721.696</ele>
        <time>2022-02-20T10:53:12Z</time>
      </trkpt>
      <trkpt lat="42.75434" lon="1.60294">
        <ele>1721.736</ele>
        <time>2022-02-20T10:53:14Z</time>
      </trkpt>
      <trkpt lat="42.75434" lon="1.60295">
        <ele>1721.924</ele>
        <time>2022-02-20T10:53:16Z</time>
      </trkpt>
      <trkpt lat="42.75433" lon="1.60296">
        <ele>1721.605</ele>
        <time>2022-02-20T10:53:18Z</time>
      </trkpt>
      <trkpt lat="42.75433" lon="1.60297">
        <ele>1721.91</ele>
        <time>2022-02-20T10:53:20Z</time>
      </trkpt>
      <trkpt lat="42.75433" lon="1.60298">
        <ele>1721.897</ele>
        <time>2022-02-20T10:53:22Z</time>
      </trkpt>
      <trkpt lat="42.75433" lon="1.60299">
        <ele>1722.286</ele>
        <time>2022-02-20T10:53:24Z</time>
      </trkpt>
      <trkpt lat="42.75433" lon="1.60301">
        <ele>1722.679</ele>
        <time>2022-02-20T10:53:26Z</time>
      </trkpt>
      <trkpt lat="42.75432" lon="1.60302">
        <ele>1722.949</ele>
        <time>2022-02-20T10:53:28Z</time>
      </trkpt>
      <trkpt lat="42.75432" lon="1.60303">
        <ele>1722.97</ele>
        <time>2022-02-20T10:53:30Z</time>
      </trkpt>
      <trkpt lat="42.75432" lon="1.60305">
        <ele>1723.045</ele>
        <time>2022-02-20T10:53:32Z</time>
      </trkpt>
      <trkpt lat="42.75431" lon="1.60306">
        <ele>1723.075</ele>
        <time>2022-02-20T10:53:34Z</time>
      </trkpt>
      <trkpt lat="42.75431" lon="1.60307">
        <ele>1723.124</ele>
        <time>2022-02-20T10:53:36Z</time>
      </trkpt>
      <trkpt lat="42.75431" lon="1.60308">
        <ele>1723.246</ele>
        <time>2022-02-20T10:53:38Z</time>
      </trkpt>
      <trkpt lat="42.75431" lon="1.60309">
        <ele>1723.169</ele>
        <time>2022-02-20T10:53:40Z</time>
      </trkpt>
      <trkpt lat="42.75431" lon="1.60309">
        <ele>1723.414</ele>
        <time>2022-02-20T10:53:42Z</time>
      </trkpt>
      <trkpt lat="42.75431" lon="1.60309">
        <ele>1723.412</ele>
        <time>2022-02-20T10:53:44Z</time>
      </trkpt>
      <trkpt lat="42.75431" lon="1.6031">
        <ele>1723.463</ele>
        <time>2022-02-20T10:53:46Z</time>
      </trkpt>
      <trkpt lat="42.7543" lon="1.60311">
        <ele>1723.777</ele>
        <time>2022-02-20T10:53:48Z</time>
      </trkpt>
      <trkpt lat="42.7543" lon="1.60313">
        <ele>1723.866</ele>
        <time>2022-02-20T10:53:50Z</time>
      </trkpt>
      <trkpt lat="42.75429" lon="1.60314">
        <ele>1724.517</ele>
        <time>2022-02-20T10:53:52Z</time>
      </trkpt>
      <trkpt lat="42.75429" lon="1.60315">
        <ele>1724.792</ele>
        <time>2022-02-20T10:53:54Z</time>
      </trkpt>
      <trkpt lat="42.75428" lon="1.60316">
        <ele>1725.306</ele>
        <time>2022-02-20T10:53:56Z</time>
      </trkpt>
      <trkpt lat="42.75428" lon="1.60318">
        <ele>1725.09</ele>
        <time>2022-02-20T10:53:58Z</time>
      </trkpt>
      <trkpt lat="42.75428" lon="1.60319">
        <ele>1725.374</ele>
        <time>2022-02-20T10:54:00Z</time>
      </trkpt>
      <trkpt lat="42.75427" lon="1.6032">
        <ele>1725.895</ele>
        <time>2022-02-20T10:54:02Z</time>
      </trkpt>
      <trkpt lat="42.75428" lon="1.60319">
        <ele>1725.888</ele>
        <time>2022-02-20T10:54:04Z</time>
      </trkpt>
      <trkpt lat="42.75428" lon="1.60319">
        <ele>1725.886</ele>
        <time>2022-02-20T10:54:06Z</time>
      </trkpt>
      <trkpt lat="42.75427" lon="1.6032">
        <ele>1726.023</ele>
        <time>2022-02-20T10:54:08Z</time>
      </trkpt>
      <trkpt lat="42.75427" lon="1.60321">
        <ele>1726.784</ele>
        <time>2022-02-20T10:54:10Z</time>
      </trkpt>
      <trkpt lat="42.75427" lon="1.60323">
        <ele>1727.576</ele>
        <time>2022-02-20T10:54:12Z</time>
      </trkpt>
      <trkpt lat="42.75426" lon="1.60324">
        <ele>1727.388</ele>
        <time>2022-02-20T10:54:14Z</time>
      </trkpt>
      <trkpt lat="42.75425" lon="1.60326">
        <ele>1728.613</ele>
        <time>2022-02-20T10:54:16Z</time>
      </trkpt>
      <trkpt lat="42.75425" lon="1.60327">
        <ele>1729.235</ele>
        <time>2022-02-20T10:54:18Z</time>
      </trkpt>
      <trkpt lat="42.75424" lon="1.60328">
        <ele>1729.472</ele>
        <time>2022-02-20T10:54:20Z</time>
      </trkpt>
      <trkpt lat="42.75424" lon="1.60329">
        <ele>1729.477</ele>
        <time>2022-02-20T10:54:22Z</time>
      </trkpt>
      <trkpt lat="42.75423" lon="1.60331">
        <ele>1729.889</ele>
        <time>2022-02-20T10:54:24Z</time>
      </trkpt>
      <trkpt lat="42.75423" lon="1.60332">
        <ele>1730.23</ele>
        <time>2022-02-20T10:54:26Z</time>
      </trkpt>
      <trkpt lat="42.75423" lon="1.60334">
        <ele>1730.578</ele>
        <time>2022-02-20T10:54:28Z</time>
      </trkpt>
      <trkpt lat="42.75422" lon="1.60335">
        <ele>1730.908</ele>
        <time>2022-02-20T10:54:30Z</time>
      </trkpt>
      <trkpt lat="42.75422" lon="1.60337">
        <ele>1731.26</ele>
        <time>2022-02-20T10:54:32Z</time>
      </trkpt>
      <trkpt lat="42.75421" lon="1.60338">
        <ele>1731.516</ele>
        <time>2022-02-20T10:54:34Z</time>
      </trkpt>
      <trkpt lat="42.75421" lon="1.60339">
        <ele>1731.362</ele>
        <time>2022-02-20T10:54:36Z</time>
      </trkpt>
      <trkpt lat="42.75421" lon="1.60341">
        <ele>1731.957</ele>
        <time>2022-02-20T10:54:38Z</time>
      </trkpt>
      <trkpt lat="42.75421" lon="1.60342">
        <ele>1731.53</ele>
        <time>2022-02-20T10:54:40Z</time>
      </trkpt>
      <trkpt lat="42.7542" lon="1.60344">
        <ele>1731.102</ele>
        <time>2022-02-20T10:54:42Z</time>
      </trkpt>
      <trkpt lat="42.7542" lon="1.60345">
        <ele>1730.903</ele>
        <time>2022-02-20T10:54:44Z</time>
      </trkpt>
      <trkpt lat="42.7542" lon="1.60345">
        <ele>1730.948</ele>
        <time>2022-02-20T10:54:46Z</time>
      </trkpt>
      <trkpt lat="42.7542" lon="1.60345">
        <ele>1730.95</ele>
        <time>2022-02-20T10:54:48Z</time>
      </trkpt>
      <trkpt lat="42.7542" lon="1.60345">
        <ele>1731.079</ele>
        <time>2022-02-20T10:54:50Z</time>
      </trkpt>
      <trkpt lat="42.75419" lon="1.60346">
        <ele>1731.37</ele>
        <time>2022-02-20T10:54:52Z</time>
      </trkpt>
      <trkpt lat="42.75419" lon="1.60348">
        <ele>1732.217</ele>
        <time>2022-02-20T10:54:54Z</time>
      </trkpt>
      <trkpt lat="42.75418" lon="1.60349">
        <ele>1732.131</ele>
        <time>2022-02-20T10:54:56Z</time>
      </trkpt>
      <trkpt lat="42.75418" lon="1.6035">
        <ele>1732.564</ele>
        <time>2022-02-20T10:54:58Z</time>
      </trkpt>
      <trkpt lat="42.75417" lon="1.60351">
        <ele>1732.511</ele>
        <time>2022-02-20T10:55:00Z</time>
      </trkpt>
      <trkpt lat="42.75417" lon="1.60352">
        <ele>1732.596</ele>
        <time>2022-02-20T10:55:02Z</time>
      </trkpt>
      <trkpt lat="42.75417" lon="1.60354">
        <ele>1732.848</ele>
        <time>2022-02-20T10:55:04Z</time>
      </trkpt>
      <trkpt lat="42.75416" lon="1.60355">
        <ele>1733.002</ele>
        <time>2022-02-20T10:55:06Z</time>
      </trkpt>
      <trkpt lat="42.75416" lon="1.60356">
        <ele>1733.439</ele>
        <time>2022-02-20T10:55:08Z</time>
      </trkpt>
      <trkpt lat="42.75416" lon="1.60358">
        <ele>1734.267</ele>
        <time>2022-02-20T10:55:10Z</time>
      </trkpt>
      <trkpt lat="42.75416" lon="1.6036">
        <ele>1734.599</ele>
        <time>2022-02-20T10:55:12Z</time>
      </trkpt>
      <trkpt lat="42.75415" lon="1.60361">
        <ele>1734.571</ele>
        <time>2022-02-20T10:55:14Z</time>
      </trkpt>
      <trkpt lat="42.75415" lon="1.60362">
        <ele>1735.035</ele>
        <time>2022-02-20T10:55:16Z</time>
      </trkpt>
      <trkpt lat="42.75415" lon="1.60364">
        <ele>1735.054</ele>
        <time>2022-02-20T10:55:18Z</time>
      </trkpt>
      <trkpt lat="42.75415" lon="1.60365">
        <ele>1735.138</ele>
        <time>2022-02-20T10:55:20Z</time>
      </trkpt>
      <trkpt lat="42.75414" lon="1.60366">
        <ele>1735.387</ele>
        <time>2022-02-20T10:55:22Z</time>
      </trkpt>
      <trkpt lat="42.75413" lon="1.60367">
        <ele>1735.001</ele>
        <time>2022-02-20T10:55:24Z</time>
      </trkpt>
      <trkpt lat="42.75413" lon="1.60368">
        <ele>1735.238</ele>
        <time>2022-02-20T10:55:26Z</time>
      </trkpt>
      <trkpt lat="42.75412" lon="1.6037">
        <ele>1735.948</ele>
        <time>2022-02-20T10:55:28Z</time>
      </trkpt>
      <trkpt lat="42.75412" lon="1.60371">
        <ele>1736.686</ele>
        <time>2022-02-20T10:55:30Z</time>
      </trkpt>
      <trkpt lat="42.75411" lon="1.60372">
        <ele>1736.676</ele>
        <time>2022-02-20T10:55:32Z</time>
      </trkpt>
      <trkpt lat="42.75411" lon="1.60374">
        <ele>1736.482</ele>
        <time>2022-02-20T10:55:34Z</time>
      </trkpt>
      <trkpt lat="42.7541" lon="1.60375">
        <ele>1736.719</ele>
        <time>2022-02-20T10:55:36Z</time>
      </trkpt>
      <trkpt lat="42.7541" lon="1.60376">
        <ele>1736.694</ele>
        <time>2022-02-20T10:55:38Z</time>
      </trkpt>
      <trkpt lat="42.75409" lon="1.60378">
        <ele>1736.827</ele>
        <time>2022-02-20T10:55:40Z</time>
      </trkpt>
      <trkpt lat="42.75409" lon="1.60379">
        <ele>1736.26</ele>
        <time>2022-02-20T10:55:42Z</time>
      </trkpt>
      <trkpt lat="42.75409" lon="1.60381">
        <ele>1736.887</ele>
        <time>2022-02-20T10:55:44Z</time>
      </trkpt>
      <trkpt lat="42.75408" lon="1.60382">
        <ele>1737.504</ele>
        <time>2022-02-20T10:55:46Z</time>
      </trkpt>
      <trkpt lat="42.75408" lon="1.60383">
        <ele>1737.76</ele>
        <time>2022-02-20T10:55:48Z</time>
      </trkpt>
      <trkpt lat="42.75408" lon="1.60385">
        <ele>1738.177</ele>
        <time>2022-02-20T10:55:50Z</time>
      </trkpt>
      <trkpt lat="42.75407" lon="1.60386">
        <ele>1738.288</ele>
        <time>2022-02-20T10:55:52Z</time>
      </trkpt>
      <trkpt lat="42.75407" lon="1.60387">
        <ele>1738.476</ele>
        <time>2022-02-20T10:55:54Z</time>
      </trkpt>
      <trkpt lat="42.75406" lon="1.60388">
        <ele>1738.551</ele>
        <time>2022-02-20T10:55:56Z</time>
      </trkpt>
      <trkpt lat="42.75406" lon="1.60389">
        <ele>1738.403</ele>
        <time>2022-02-20T10:55:58Z</time>
      </trkpt>
      <trkpt lat="42.75405" lon="1.6039">
        <ele>1738.216</ele>
        <time>2022-02-20T10:56:00Z</time>
      </trkpt>
      <trkpt lat="42.75404" lon="1.60391">
        <ele>1738.658</ele>
        <time>2022-02-20T10:56:02Z</time>
      </trkpt>
      <trkpt lat="42.75404" lon="1.60392">
        <ele>1739.361</ele>
        <time>2022-02-20T10:56:04Z</time>
      </trkpt>
      <trkpt lat="42.75404" lon="1.60393">
        <ele>1739.528</ele>
        <time>2022-02-20T10:56:06Z</time>
      </trkpt>
      <trkpt lat="42.75403" lon="1.60395">
        <ele>1740.323</ele>
        <time>2022-02-20T10:56:08Z</time>
      </trkpt>
      <trkpt lat="42.75403" lon="1.60396">
        <ele>1740.249</ele>
        <time>2022-02-20T10:56:10Z</time>
      </trkpt>
      <trkpt lat="42.75402" lon="1.60397">
        <ele>1740.263</ele>
        <time>2022-02-20T10:56:12Z</time>
      </trkpt>
      <trkpt lat="42.75402" lon="1.60398">
        <ele>1740.517</ele>
        <time>2022-02-20T10:56:14Z</time>
      </trkpt>
      <trkpt lat="42.75402" lon="1.60399">
        <ele>1741.101</ele>
        <time>2022-02-20T10:56:16Z</time>
      </trkpt>
      <trkpt lat="42.75401" lon="1.604">
        <ele>1740.858</ele>
        <time>2022-02-20T10:56:18Z</time>
      </trkpt>
      <trkpt lat="42.75401" lon="1.60401">
        <ele>1741.709</ele>
        <time>2022-02-20T10:56:20Z</time>
      </trkpt>
      <trkpt lat="42.754" lon="1.60401">
        <ele>1741.647</ele>
        <time>2022-02-20T10:56:22Z</time>
      </trkpt>
      <trkpt lat="42.754" lon="1.60402">
        <ele>1741.601</ele>
        <time>2022-02-20T10:56:24Z</time>
      </trkpt>
      <trkpt lat="42.754" lon="1.60403">
        <ele>1741.738</ele>
        <time>2022-02-20T10:56:26Z</time>
      </trkpt>
      <trkpt lat="42.754" lon="1.60404">
        <ele>1741.644</ele>
        <time>2022-02-20T10:56:28Z</time>
      </trkpt>
      <trkpt lat="42.754" lon="1.60405">
        <ele>1741.658</ele>
        <time>2022-02-20T10:56:30Z</time>
      </trkpt>
      <trkpt lat="42.75399" lon="1.60406">
        <ele>1741.48</ele>
        <time>2022-02-20T10:56:32Z</time>
      </trkpt>
      <trkpt lat="42.75398" lon="1.60407">
        <ele>1741.534</ele>
        <time>2022-02-20T10:56:34Z</time>
      </trkpt>
      <trkpt lat="42.75398" lon="1.60408">
        <ele>1741.587</ele>
        <time>2022-02-20T10:56:36Z</time>
      </trkpt>
      <trkpt lat="42.75397" lon="1.60409">
        <ele>1742.135</ele>
        <time>2022-02-20T10:56:38Z</time>
      </trkpt>
      <trkpt lat="42.75397" lon="1.60409">
        <ele>1742.252</ele>
        <time>2022-02-20T10:56:40Z</time>
      </trkpt>
      <trkpt lat="42.75396" lon="1.6041">
        <ele>1742.868</ele>
        <time>2022-02-20T10:56:42Z</time>
      </trkpt>
      <trkpt lat="42.75396" lon="1.60411">
        <ele>1742.986</ele>
        <time>2022-02-20T10:56:44Z</time>
      </trkpt>
      <trkpt lat="42.75396" lon="1.60412">
        <ele>1743.14</ele>
        <time>2022-02-20T10:56:46Z</time>
      </trkpt>
      <trkpt lat="42.75396" lon="1.60413">
        <ele>1742.932</ele>
        <time>2022-02-20T10:56:48Z</time>
      </trkpt>
      <trkpt lat="42.75396" lon="1.60414">
        <ele>1743.405</ele>
        <time>2022-02-20T10:56:50Z</time>
      </trkpt>
      <trkpt lat="42.75395" lon="1.60415">
        <ele>1743.101</ele>
        <time>2022-02-20T10:56:52Z</time>
      </trkpt>
      <trkpt lat="42.75395" lon="1.60415">
        <ele>1742.818</ele>
        <time>2022-02-20T10:56:54Z</time>
      </trkpt>
      <trkpt lat="42.75394" lon="1.60416">
        <ele>1742.467</ele>
        <time>2022-02-20T10:56:56Z</time>
      </trkpt>
      <trkpt lat="42.75394" lon="1.60417">
        <ele>1742.512</ele>
        <time>2022-02-20T10:56:58Z</time>
      </trkpt>
      <trkpt lat="42.75393" lon="1.60418">
        <ele>1742.932</ele>
        <time>2022-02-20T10:57:00Z</time>
      </trkpt>
      <trkpt lat="42.75393" lon="1.60419">
        <ele>1743.877</ele>
        <time>2022-02-20T10:57:02Z</time>
      </trkpt>
      <trkpt lat="42.75392" lon="1.6042">
        <ele>1744.474</ele>
        <time>2022-02-20T10:57:04Z</time>
      </trkpt>
      <trkpt lat="42.75391" lon="1.60422">
        <ele>1745.164</ele>
        <time>2022-02-20T10:57:06Z</time>
      </trkpt>
      <trkpt lat="42.75389" lon="1.60423">
        <ele>1746.006</ele>
        <time>2022-02-20T10:57:08Z</time>
      </trkpt>
      <trkpt lat="42.75388" lon="1.60424">
        <ele>1746.289</ele>
        <time>2022-02-20T10:57:10Z</time>
      </trkpt>
      <trkpt lat="42.75388" lon="1.60426">
        <ele>1746.884</ele>
        <time>2022-02-20T10:57:12Z</time>
      </trkpt>
      <trkpt lat="42.75387" lon="1.60427">
        <ele>1747.472</ele>
        <time>2022-02-20T10:57:14Z</time>
      </trkpt>
      <trkpt lat="42.75386" lon="1.60429">
        <ele>1747.635</ele>
        <time>2022-02-20T10:57:16Z</time>
      </trkpt>
      <trkpt lat="42.75386" lon="1.6043">
        <ele>1748.524</ele>
        <time>2022-02-20T10:57:18Z</time>
      </trkpt>
      <trkpt lat="42.75386" lon="1.60431">
        <ele>1748.514</ele>
        <time>2022-02-20T10:57:20Z</time>
      </trkpt>
      <trkpt lat="42.75385" lon="1.60433">
        <ele>1748.57</ele>
        <time>2022-02-20T10:57:22Z</time>
      </trkpt>
      <trkpt lat="42.75385" lon="1.60434">
        <ele>1748.495</ele>
        <time>2022-02-20T10:57:24Z</time>
      </trkpt>
      <trkpt lat="42.75384" lon="1.60435">
        <ele>1748.692</ele>
        <time>2022-02-20T10:57:26Z</time>
      </trkpt>
      <trkpt lat="42.75384" lon="1.60437">
        <ele>1748.843</ele>
        <time>2022-02-20T10:57:28Z</time>
      </trkpt>
      <trkpt lat="42.75384" lon="1.60438">
        <ele>1749.086</ele>
        <time>2022-02-20T10:57:30Z</time>
      </trkpt>
      <trkpt lat="42.75384" lon="1.60439">
        <ele>1748.868</ele>
        <time>2022-02-20T10:57:32Z</time>
      </trkpt>
      <trkpt lat="42.75384" lon="1.60439">
        <ele>1749.405</ele>
        <time>2022-02-20T10:57:34Z</time>
      </trkpt>
      <trkpt lat="42.75383" lon="1.60439">
        <ele>1749.352</ele>
        <time>2022-02-20T10:57:36Z</time>
      </trkpt>
      <trkpt lat="42.75383" lon="1.6044">
        <ele>1749.126</ele>
        <time>2022-02-20T10:57:38Z</time>
      </trkpt>
      <trkpt lat="42.75383" lon="1.60441">
        <ele>1749.13</ele>
        <time>2022-02-20T10:57:40Z</time>
      </trkpt>
      <trkpt lat="42.75383" lon="1.60443">
        <ele>1749.787</ele>
        <time>2022-02-20T10:57:42Z</time>
      </trkpt>
      <trkpt lat="42.75384" lon="1.60445">
        <ele>1749.903</ele>
        <time>2022-02-20T10:57:44Z</time>
      </trkpt>
      <trkpt lat="42.75384" lon="1.60446">
        <ele>1749.505</ele>
        <time>2022-02-20T10:57:46Z</time>
      </trkpt>
      <trkpt lat="42.75383" lon="1.60448">
        <ele>1750.441</ele>
        <time>2022-02-20T10:57:48Z</time>
      </trkpt>
      <trkpt lat="42.75383" lon="1.60449">
        <ele>1750.448</ele>
        <time>2022-02-20T10:57:50Z</time>
      </trkpt>
      <trkpt lat="42.75382" lon="1.60451">
        <ele>1750.432</ele>
        <time>2022-02-20T10:57:52Z</time>
      </trkpt>
      <trkpt lat="42.75382" lon="1.60453">
        <ele>1750.707</ele>
        <time>2022-02-20T10:57:54Z</time>
      </trkpt>
      <trkpt lat="42.75382" lon="1.60454">
        <ele>1750.609</ele>
        <time>2022-02-20T10:57:56Z</time>
      </trkpt>
      <trkpt lat="42.75381" lon="1.60456">
        <ele>1750.818</ele>
        <time>2022-02-20T10:57:58Z</time>
      </trkpt>
      <trkpt lat="42.75381" lon="1.60458">
        <ele>1751.189</ele>
        <time>2022-02-20T10:58:00Z</time>
      </trkpt>
      <trkpt lat="42.7538" lon="1.60459">
        <ele>1751.62</ele>
        <time>2022-02-20T10:58:02Z</time>
      </trkpt>
      <trkpt lat="42.7538" lon="1.6046">
        <ele>1752.406</ele>
        <time>2022-02-20T10:58:04Z</time>
      </trkpt>
      <trkpt lat="42.75379" lon="1.60462">
        <ele>1752.307</ele>
        <time>2022-02-20T10:58:06Z</time>
      </trkpt>
      <trkpt lat="42.75379" lon="1.60463">
        <ele>1752.774</ele>
        <time>2022-02-20T10:58:08Z</time>
      </trkpt>
      <trkpt lat="42.75378" lon="1.60463">
        <ele>1752.43</ele>
        <time>2022-02-20T10:58:10Z</time>
      </trkpt>
      <trkpt lat="42.75378" lon="1.60463">
        <ele>1752.417</ele>
        <time>2022-02-20T10:58:12Z</time>
      </trkpt>
      <trkpt lat="42.75378" lon="1.60463">
        <ele>1752.41</ele>
        <time>2022-02-20T10:58:14Z</time>
      </trkpt>
      <trkpt lat="42.75378" lon="1.60463">
        <ele>1752.41</ele>
        <time>2022-02-20T10:58:16Z</time>
      </trkpt>
      <trkpt lat="42.75378" lon="1.60463">
        <ele>1752.409</ele>
        <time>2022-02-20T10:58:18Z</time>
      </trkpt>
      <trkpt lat="42.75378" lon="1.60463">
        <ele>1752.412</ele>
        <time>2022-02-20T10:58:19Z</time>
      </trkpt>
      <trkpt lat="42.75378" lon="1.60463">
        <ele>1752.417</ele>
        <time>2022-02-20T10:58:22Z</time>
      </trkpt>
      <trkpt lat="42.75378" lon="1.60463">
        <ele>1752.417</ele>
        <time>2022-02-20T10:58:24Z</time>
      </trkpt>
      <trkpt lat="42.75378" lon="1.60463">
        <ele>1752.424</ele>
        <time>2022-02-20T10:58:26Z</time>
      </trkpt>
      <trkpt lat="42.75378" lon="1.60463">
        <ele>1752.425</ele>
        <time>2022-02-20T10:58:28Z</time>
      </trkpt>
      <trkpt lat="42.75378" lon="1.60463">
        <ele>1752.315</ele>
        <time>2022-02-20T10:58:30Z</time>
      </trkpt>
      <trkpt lat="42.75378" lon="1.60463">
        <ele>1752.317</ele>
        <time>2022-02-20T10:58:32Z</time>
      </trkpt>
      <trkpt lat="42.75378" lon="1.60463">
        <ele>1752.322</ele>
        <time>2022-02-20T10:58:34Z</time>
      </trkpt>
      <trkpt lat="42.75378" lon="1.60463">
        <ele>1752.325</ele>
        <time>2022-02-20T10:58:36Z</time>
      </trkpt>
      <trkpt lat="42.75378" lon="1.60463">
        <ele>1752.324</ele>
        <time>2022-02-20T10:58:38Z</time>
      </trkpt>
      <trkpt lat="42.75378" lon="1.60464">
        <ele>1752.637</ele>
        <time>2022-02-20T10:58:40Z</time>
      </trkpt>
      <trkpt lat="42.75378" lon="1.60464">
        <ele>1752.645</ele>
        <time>2022-02-20T10:58:42Z</time>
      </trkpt>
      <trkpt lat="42.75378" lon="1.60464">
        <ele>1752.641</ele>
        <time>2022-02-20T10:58:44Z</time>
      </trkpt>
      <trkpt lat="42.75378" lon="1.60464">
        <ele>1752.639</ele>
        <time>2022-02-20T10:58:46Z</time>
      </trkpt>
      <trkpt lat="42.75378" lon="1.60464">
        <ele>1752.559</ele>
        <time>2022-02-20T10:58:48Z</time>
      </trkpt>
      <trkpt lat="42.75378" lon="1.60464">
        <ele>1752.564</ele>
        <time>2022-02-20T10:58:50Z</time>
      </trkpt>
      <trkpt lat="42.75378" lon="1.60464">
        <ele>1752.565</ele>
        <time>2022-02-20T10:58:52Z</time>
      </trkpt>
      <trkpt lat="42.75378" lon="1.60464">
        <ele>1752.567</ele>
        <time>2022-02-20T10:58:54Z</time>
      </trkpt>
      <trkpt lat="42.75378" lon="1.60464">
        <ele>1752.566</ele>
        <time>2022-02-20T10:58:56Z</time>
      </trkpt>
      <trkpt lat="42.75378" lon="1.60464">
        <ele>1752.565</ele>
        <time>2022-02-20T10:58:58Z</time>
      </trkpt>
      <trkpt lat="42.75378" lon="1.60464">
        <ele>1752.567</ele>
        <time>2022-02-20T10:59:00Z</time>
      </trkpt>
      <trkpt lat="42.75378" lon="1.60464">
        <ele>1752.567</ele>
        <time>2022-02-20T10:59:02Z</time>
      </trkpt>
      <trkpt lat="42.75378" lon="1.60464">
        <ele>1752.561</ele>
        <time>2022-02-20T10:59:04Z</time>
      </trkpt>
      <trkpt lat="42.75378" lon="1.60465">
        <ele>1752.4</ele>
        <time>2022-02-20T10:59:06Z</time>
      </trkpt>
      <trkpt lat="42.75377" lon="1.60466">
        <ele>1752.483</ele>
        <time>2022-02-20T10:59:08Z</time>
      </trkpt>
      <trkpt lat="42.75376" lon="1.60468">
        <ele>1753.19</ele>
        <time>2022-02-20T10:59:10Z</time>
      </trkpt>
      <trkpt lat="42.75376" lon="1.6047">
        <ele>1753.315</ele>
        <time>2022-02-20T10:59:12Z</time>
      </trkpt>
      <trkpt lat="42.75376" lon="1.60472">
        <ele>1753.652</ele>
        <time>2022-02-20T10:59:14Z</time>
      </trkpt>
      <trkpt lat="42.75376" lon="1.60474">
        <ele>1753.208</ele>
        <time>2022-02-20T10:59:16Z</time>
      </trkpt>
      <trkpt lat="42.75376" lon="1.60475">
        <ele>1753.347</ele>
        <time>2022-02-20T10:59:18Z</time>
      </trkpt>
      <trkpt lat="42.75376" lon="1.60477">
        <ele>1753.399</ele>
        <time>2022-02-20T10:59:20Z</time>
      </trkpt>
      <trkpt lat="42.75376" lon="1.60478">
        <ele>1753.762</ele>
        <time>2022-02-20T10:59:22Z</time>
      </trkpt>
      <trkpt lat="42.75376" lon="1.60479">
        <ele>1754.243</ele>
        <time>2022-02-20T10:59:24Z</time>
      </trkpt>
      <trkpt lat="42.75377" lon="1.60481">
        <ele>1754.459</ele>
        <time>2022-02-20T10:59:26Z</time>
      </trkpt>
      <trkpt lat="42.75377" lon="1.60482">
        <ele>1754.508</ele>
        <time>2022-02-20T10:59:28Z</time>
      </trkpt>
      <trkpt lat="42.75377" lon="1.60484">
        <ele>1755.145</ele>
        <time>2022-02-20T10:59:30Z</time>
      </trkpt>
      <trkpt lat="42.75376" lon="1.60485">
        <ele>1755.644</ele>
        <time>2022-02-20T10:59:32Z</time>
      </trkpt>
      <trkpt lat="42.75376" lon="1.60487">
        <ele>1755.834</ele>
        <time>2022-02-20T10:59:34Z</time>
      </trkpt>
      <trkpt lat="42.75375" lon="1.60489">
        <ele>1755.853</ele>
        <time>2022-02-20T10:59:36Z</time>
      </trkpt>
      <trkpt lat="42.75375" lon="1.6049">
        <ele>1756.018</ele>
        <time>2022-02-20T10:59:38Z</time>
      </trkpt>
      <trkpt lat="42.75375" lon="1.60492">
        <ele>1755.825</ele>
        <time>2022-02-20T10:59:40Z</time>
      </trkpt>
      <trkpt lat="42.75374" lon="1.60493">
        <ele>1756.65</ele>
        <time>2022-02-20T10:59:42Z</time>
      </trkpt>
      <trkpt lat="42.75374" lon="1.60495">
        <ele>1757.079</ele>
        <time>2022-02-20T10:59:44Z</time>
      </trkpt>
      <trkpt lat="42.75373" lon="1.60496">
        <ele>1757.599</ele>
        <time>2022-02-20T10:59:46Z</time>
      </trkpt>
      <trkpt lat="42.75373" lon="1.60498">
        <ele>1757.93</ele>
        <time>2022-02-20T10:59:48Z</time>
      </trkpt>
      <trkpt lat="42.75373" lon="1.605">
        <ele>1758.43</ele>
        <time>2022-02-20T10:59:50Z</time>
      </trkpt>
      <trkpt lat="42.75373" lon="1.60501">
        <ele>1758.238</ele>
        <time>2022-02-20T10:59:52Z</time>
      </trkpt>
      <trkpt lat="42.75372" lon="1.60502">
        <ele>1758.696</ele>
        <time>2022-02-20T10:59:54Z</time>
      </trkpt>
      <trkpt lat="42.75371" lon="1.60503">
        <ele>1758.717</ele>
        <time>2022-02-20T10:59:56Z</time>
      </trkpt>
      <trkpt lat="42.75371" lon="1.60505">
        <ele>1758.481</ele>
        <time>2022-02-20T10:59:58Z</time>
      </trkpt>
      <trkpt lat="42.75371" lon="1.60506">
        <ele>1758.345</ele>
        <time>2022-02-20T11:00:00Z</time>
      </trkpt>
      <trkpt lat="42.7537" lon="1.60508">
        <ele>1757.751</ele>
        <time>2022-02-20T11:00:02Z</time>
      </trkpt>
      <trkpt lat="42.75369" lon="1.60509">
        <ele>1758.145</ele>
        <time>2022-02-20T11:00:04Z</time>
      </trkpt>
      <trkpt lat="42.75369" lon="1.6051">
        <ele>1758.341</ele>
        <time>2022-02-20T11:00:06Z</time>
      </trkpt>
      <trkpt lat="42.75368" lon="1.60511">
        <ele>1759.5</ele>
        <time>2022-02-20T11:00:08Z</time>
      </trkpt>
      <trkpt lat="42.75367" lon="1.60512">
        <ele>1759.901</ele>
        <time>2022-02-20T11:00:10Z</time>
      </trkpt>
      <trkpt lat="42.75367" lon="1.60514">
        <ele>1760.621</ele>
        <time>2022-02-20T11:00:12Z</time>
      </trkpt>
      <trkpt lat="42.75366" lon="1.60515">
        <ele>1760.354</ele>
        <time>2022-02-20T11:00:14Z</time>
      </trkpt>
      <trkpt lat="42.75366" lon="1.60515">
        <ele>1760.379</ele>
        <time>2022-02-20T11:00:16Z</time>
      </trkpt>
      <trkpt lat="42.75366" lon="1.60517">
        <ele>1760.099</ele>
        <time>2022-02-20T11:00:18Z</time>
      </trkpt>
      <trkpt lat="42.75365" lon="1.60517">
        <ele>1759.891</ele>
        <time>2022-02-20T11:00:20Z</time>
      </trkpt>
      <trkpt lat="42.75363" lon="1.60518">
        <ele>1760.536</ele>
        <time>2022-02-20T11:00:22Z</time>
      </trkpt>
      <trkpt lat="42.75363" lon="1.60519">
        <ele>1760.376</ele>
        <time>2022-02-20T11:00:24Z</time>
      </trkpt>
      <trkpt lat="42.75362" lon="1.6052">
        <ele>1761.153</ele>
        <time>2022-02-20T11:00:26Z</time>
      </trkpt>
      <trkpt lat="42.75361" lon="1.6052">
        <ele>1761.501</ele>
        <time>2022-02-20T11:00:28Z</time>
      </trkpt>
      <trkpt lat="42.7536" lon="1.60522">
        <ele>1761.872</ele>
        <time>2022-02-20T11:00:30Z</time>
      </trkpt>
      <trkpt lat="42.75359" lon="1.60523">
        <ele>1762.028</ele>
        <time>2022-02-20T11:00:32Z</time>
      </trkpt>
      <trkpt lat="42.75358" lon="1.60524">
        <ele>1762.127</ele>
        <time>2022-02-20T11:00:34Z</time>
      </trkpt>
      <trkpt lat="42.75358" lon="1.60525">
        <ele>1762.886</ele>
        <time>2022-02-20T11:00:36Z</time>
      </trkpt>
      <trkpt lat="42.75358" lon="1.60526">
        <ele>1763.499</ele>
        <time>2022-02-20T11:00:38Z</time>
      </trkpt>
      <trkpt lat="42.75357" lon="1.60527">
        <ele>1764.205</ele>
        <time>2022-02-20T11:00:40Z</time>
      </trkpt>
      <trkpt lat="42.75357" lon="1.60528">
        <ele>1764.168</ele>
        <time>2022-02-20T11:00:42Z</time>
      </trkpt>
      <trkpt lat="42.75357" lon="1.6053">
        <ele>1763.865</ele>
        <time>2022-02-20T11:00:44Z</time>
      </trkpt>
      <trkpt lat="42.75357" lon="1.60531">
        <ele>1763.953</ele>
        <time>2022-02-20T11:00:46Z</time>
      </trkpt>
      <trkpt lat="42.75357" lon="1.60532">
        <ele>1764.216</ele>
        <time>2022-02-20T11:00:48Z</time>
      </trkpt>
      <trkpt lat="42.75356" lon="1.60533">
        <ele>1764.36</ele>
        <time>2022-02-20T11:00:50Z</time>
      </trkpt>
      <trkpt lat="42.75356" lon="1.60534">
        <ele>1764.712</ele>
        <time>2022-02-20T11:00:52Z</time>
      </trkpt>
      <trkpt lat="42.75355" lon="1.60535">
        <ele>1765.038</ele>
        <time>2022-02-20T11:00:54Z</time>
      </trkpt>
      <trkpt lat="42.75355" lon="1.60536">
        <ele>1765.668</ele>
        <time>2022-02-20T11:00:56Z</time>
      </trkpt>
      <trkpt lat="42.75355" lon="1.60536">
        <ele>1765.669</ele>
        <time>2022-02-20T11:00:58Z</time>
      </trkpt>
      <trkpt lat="42.75355" lon="1.60536">
        <ele>1765.67</ele>
        <time>2022-02-20T11:01:00Z</time>
      </trkpt>
      <trkpt lat="42.75355" lon="1.60536">
        <ele>1765.671</ele>
        <time>2022-02-20T11:01:02Z</time>
      </trkpt>
      <trkpt lat="42.75355" lon="1.60536">
        <ele>1765.427</ele>
        <time>2022-02-20T11:01:04Z</time>
      </trkpt>
      <trkpt lat="42.75354" lon="1.60537">
        <ele>1765.375</ele>
        <time>2022-02-20T11:01:06Z</time>
      </trkpt>
      <trkpt lat="42.75353" lon="1.60538">
        <ele>1765.594</ele>
        <time>2022-02-20T11:01:08Z</time>
      </trkpt>
      <trkpt lat="42.75353" lon="1.60539">
        <ele>1764.913</ele>
        <time>2022-02-20T11:01:10Z</time>
      </trkpt>
      <trkpt lat="42.75352" lon="1.6054">
        <ele>1765.025</ele>
        <time>2022-02-20T11:01:12Z</time>
      </trkpt>
      <trkpt lat="42.75352" lon="1.60541">
        <ele>1765.032</ele>
        <time>2022-02-20T11:01:14Z</time>
      </trkpt>
      <trkpt lat="42.75352" lon="1.60542">
        <ele>1765.005</ele>
        <time>2022-02-20T11:01:16Z</time>
      </trkpt>
      <trkpt lat="42.75352" lon="1.60543">
        <ele>1766.009</ele>
        <time>2022-02-20T11:01:18Z</time>
      </trkpt>
      <trkpt lat="42.75352" lon="1.60544">
        <ele>1766.52</ele>
        <time>2022-02-20T11:01:20Z</time>
      </trkpt>
      <trkpt lat="42.75351" lon="1.60545">
        <ele>1766.877</ele>
        <time>2022-02-20T11:01:22Z</time>
      </trkpt>
      <trkpt lat="42.75351" lon="1.60546">
        <ele>1766.486</ele>
        <time>2022-02-20T11:01:24Z</time>
      </trkpt>
      <trkpt lat="42.75351" lon="1.60547">
        <ele>1767</ele>
        <time>2022-02-20T11:01:26Z</time>
      </trkpt>
      <trkpt lat="42.7535" lon="1.60548">
        <ele>1767.419</ele>
        <time>2022-02-20T11:01:28Z</time>
      </trkpt>
      <trkpt lat="42.7535" lon="1.60549">
        <ele>1767.207</ele>
        <time>2022-02-20T11:01:30Z</time>
      </trkpt>
      <trkpt lat="42.7535" lon="1.6055">
        <ele>1767.415</ele>
        <time>2022-02-20T11:01:32Z</time>
      </trkpt>
      <trkpt lat="42.7535" lon="1.60551">
        <ele>1768.13</ele>
        <time>2022-02-20T11:01:34Z</time>
      </trkpt>
      <trkpt lat="42.75349" lon="1.60552">
        <ele>1768.296</ele>
        <time>2022-02-20T11:01:36Z</time>
      </trkpt>
      <trkpt lat="42.75349" lon="1.60553">
        <ele>1767.894</ele>
        <time>2022-02-20T11:01:38Z</time>
      </trkpt>
      <trkpt lat="42.75348" lon="1.60554">
        <ele>1767.594</ele>
        <time>2022-02-20T11:01:40Z</time>
      </trkpt>
      <trkpt lat="42.75348" lon="1.60555">
        <ele>1767.471</ele>
        <time>2022-02-20T11:01:42Z</time>
      </trkpt>
      <trkpt lat="42.75347" lon="1.60556">
        <ele>1767.895</ele>
        <time>2022-02-20T11:01:44Z</time>
      </trkpt>
      <trkpt lat="42.75347" lon="1.60558">
        <ele>1768.913</ele>
        <time>2022-02-20T11:01:46Z</time>
      </trkpt>
      <trkpt lat="42.75347" lon="1.60558">
        <ele>1768.85</ele>
        <time>2022-02-20T11:01:48Z</time>
      </trkpt>
      <trkpt lat="42.75347" lon="1.60558">
        <ele>1768.846</ele>
        <time>2022-02-20T11:01:50Z</time>
      </trkpt>
      <trkpt lat="42.75347" lon="1.60558">
        <ele>1768.843</ele>
        <time>2022-02-20T11:01:52Z</time>
      </trkpt>
      <trkpt lat="42.75347" lon="1.60558">
        <ele>1768.842</ele>
        <time>2022-02-20T11:01:54Z</time>
      </trkpt>
      <trkpt lat="42.75347" lon="1.60558">
        <ele>1768.841</ele>
        <time>2022-02-20T11:01:56Z</time>
      </trkpt>
      <trkpt lat="42.75346" lon="1.60559">
        <ele>1768.36</ele>
        <time>2022-02-20T11:01:58Z</time>
      </trkpt>
      <trkpt lat="42.75346" lon="1.6056">
        <ele>1768.834</ele>
        <time>2022-02-20T11:02:00Z</time>
      </trkpt>
      <trkpt lat="42.75345" lon="1.60561">
        <ele>1769.275</ele>
        <time>2022-02-20T11:02:02Z</time>
      </trkpt>
      <trkpt lat="42.75344" lon="1.60562">
        <ele>1769.503</ele>
        <time>2022-02-20T11:02:04Z</time>
      </trkpt>
      <trkpt lat="42.75343" lon="1.60562">
        <ele>1769.283</ele>
        <time>2022-02-20T11:02:06Z</time>
      </trkpt>
      <trkpt lat="42.75343" lon="1.60563">
        <ele>1769.104</ele>
        <time>2022-02-20T11:02:08Z</time>
      </trkpt>
      <trkpt lat="42.75342" lon="1.60563">
        <ele>1769.542</ele>
        <time>2022-02-20T11:02:10Z</time>
      </trkpt>
      <trkpt lat="42.75341" lon="1.60564">
        <ele>1770.238</ele>
        <time>2022-02-20T11:02:12Z</time>
      </trkpt>
      <trkpt lat="42.75341" lon="1.60565">
        <ele>1770.354</ele>
        <time>2022-02-20T11:02:14Z</time>
      </trkpt>
      <trkpt lat="42.7534" lon="1.60566">
        <ele>1770.988</ele>
        <time>2022-02-20T11:02:16Z</time>
      </trkpt>
      <trkpt lat="42.75339" lon="1.60566">
        <ele>1771.274</ele>
        <time>2022-02-20T11:02:18Z</time>
      </trkpt>
      <trkpt lat="42.75339" lon="1.60567">
        <ele>1771.597</ele>
        <time>2022-02-20T11:02:20Z</time>
      </trkpt>
      <trkpt lat="42.75339" lon="1.60567">
        <ele>1772.501</ele>
        <time>2022-02-20T11:02:22Z</time>
      </trkpt>
      <trkpt lat="42.75339" lon="1.60568">
        <ele>1771.852</ele>
        <time>2022-02-20T11:02:24Z</time>
      </trkpt>
      <trkpt lat="42.75338" lon="1.60569">
        <ele>1772.105</ele>
        <time>2022-02-20T11:02:26Z</time>
      </trkpt>
      <trkpt lat="42.75338" lon="1.6057">
        <ele>1771.833</ele>
        <time>2022-02-20T11:02:28Z</time>
      </trkpt>
      <trkpt lat="42.75337" lon="1.60572">
        <ele>1772.552</ele>
        <time>2022-02-20T11:02:30Z</time>
      </trkpt>
      <trkpt lat="42.75337" lon="1.60573">
        <ele>1772.837</ele>
        <time>2022-02-20T11:02:32Z</time>
      </trkpt>
      <trkpt lat="42.75336" lon="1.60574">
        <ele>1772.352</ele>
        <time>2022-02-20T11:02:34Z</time>
      </trkpt>
      <trkpt lat="42.75335" lon="1.60575">
        <ele>1772.599</ele>
        <time>2022-02-20T11:02:36Z</time>
      </trkpt>
      <trkpt lat="42.75335" lon="1.60576">
        <ele>1772.431</ele>
        <time>2022-02-20T11:02:38Z</time>
      </trkpt>
      <trkpt lat="42.75335" lon="1.60577">
        <ele>1772.761</ele>
        <time>2022-02-20T11:02:40Z</time>
      </trkpt>
      <trkpt lat="42.75334" lon="1.60578">
        <ele>1772.895</ele>
        <time>2022-02-20T11:02:42Z</time>
      </trkpt>
      <trkpt lat="42.75334" lon="1.60578">
        <ele>1773.154</ele>
        <time>2022-02-20T11:02:44Z</time>
      </trkpt>
      <trkpt lat="42.75334" lon="1.60579">
        <ele>1773.187</ele>
        <time>2022-02-20T11:02:46Z</time>
      </trkpt>
      <trkpt lat="42.75333" lon="1.6058">
        <ele>1773.245</ele>
        <time>2022-02-20T11:02:48Z</time>
      </trkpt>
      <trkpt lat="42.75333" lon="1.60581">
        <ele>1773.857</ele>
        <time>2022-02-20T11:02:50Z</time>
      </trkpt>
      <trkpt lat="42.75332" lon="1.60582">
        <ele>1774.532</ele>
        <time>2022-02-20T11:02:52Z</time>
      </trkpt>
      <trkpt lat="42.75332" lon="1.60584">
        <ele>1774.795</ele>
        <time>2022-02-20T11:02:54Z</time>
      </trkpt>
      <trkpt lat="42.75331" lon="1.60585">
        <ele>1775.101</ele>
        <time>2022-02-20T11:02:56Z</time>
      </trkpt>
      <trkpt lat="42.75331" lon="1.60586">
        <ele>1775.395</ele>
        <time>2022-02-20T11:02:58Z</time>
      </trkpt>
      <trkpt lat="42.7533" lon="1.60587">
        <ele>1775.072</ele>
        <time>2022-02-20T11:03:00Z</time>
      </trkpt>
      <trkpt lat="42.75329" lon="1.60588">
        <ele>1775.22</ele>
        <time>2022-02-20T11:03:02Z</time>
      </trkpt>
      <trkpt lat="42.75328" lon="1.60589">
        <ele>1775.213</ele>
        <time>2022-02-20T11:03:04Z</time>
      </trkpt>
      <trkpt lat="42.75327" lon="1.6059">
        <ele>1775.658</ele>
        <time>2022-02-20T11:03:06Z</time>
      </trkpt>
      <trkpt lat="42.75327" lon="1.60591">
        <ele>1776.309</ele>
        <time>2022-02-20T11:03:08Z</time>
      </trkpt>
      <trkpt lat="42.75326" lon="1.60592">
        <ele>1776.434</ele>
        <time>2022-02-20T11:03:10Z</time>
      </trkpt>
      <trkpt lat="42.75325" lon="1.60593">
        <ele>1776.246</ele>
        <time>2022-02-20T11:03:12Z</time>
      </trkpt>
      <trkpt lat="42.75325" lon="1.60594">
        <ele>1777.179</ele>
        <time>2022-02-20T11:03:14Z</time>
      </trkpt>
      <trkpt lat="42.75324" lon="1.60595">
        <ele>1777.482</ele>
        <time>2022-02-20T11:03:16Z</time>
      </trkpt>
      <trkpt lat="42.75323" lon="1.60596">
        <ele>1777.395</ele>
        <time>2022-02-20T11:03:18Z</time>
      </trkpt>
      <trkpt lat="42.75323" lon="1.60597">
        <ele>1777.623</ele>
        <time>2022-02-20T11:03:20Z</time>
      </trkpt>
      <trkpt lat="42.75322" lon="1.60598">
        <ele>1778.026</ele>
        <time>2022-02-20T11:03:22Z</time>
      </trkpt>
      <trkpt lat="42.75322" lon="1.606">
        <ele>1778.118</ele>
        <time>2022-02-20T11:03:24Z</time>
      </trkpt>
      <trkpt lat="42.75321" lon="1.60601">
        <ele>1778.012</ele>
        <time>2022-02-20T11:03:26Z</time>
      </trkpt>
      <trkpt lat="42.75321" lon="1.60601">
        <ele>1778.472</ele>
        <time>2022-02-20T11:03:28Z</time>
      </trkpt>
      <trkpt lat="42.7532" lon="1.60602">
        <ele>1778.842</ele>
        <time>2022-02-20T11:03:30Z</time>
      </trkpt>
      <trkpt lat="42.7532" lon="1.60603">
        <ele>1778.882</ele>
        <time>2022-02-20T11:03:32Z</time>
      </trkpt>
      <trkpt lat="42.75319" lon="1.60604">
        <ele>1779.201</ele>
        <time>2022-02-20T11:03:34Z</time>
      </trkpt>
      <trkpt lat="42.75319" lon="1.60605">
        <ele>1778.803</ele>
        <time>2022-02-20T11:03:36Z</time>
      </trkpt>
      <trkpt lat="42.75318" lon="1.60606">
        <ele>1778.983</ele>
        <time>2022-02-20T11:03:38Z</time>
      </trkpt>
      <trkpt lat="42.75318" lon="1.60607">
        <ele>1778.905</ele>
        <time>2022-02-20T11:03:40Z</time>
      </trkpt>
      <trkpt lat="42.75317" lon="1.60608">
        <ele>1779.056</ele>
        <time>2022-02-20T11:03:42Z</time>
      </trkpt>
      <trkpt lat="42.75316" lon="1.60609">
        <ele>1779.608</ele>
        <time>2022-02-20T11:03:44Z</time>
      </trkpt>
      <trkpt lat="42.75316" lon="1.6061">
        <ele>1779.536</ele>
        <time>2022-02-20T11:03:46Z</time>
      </trkpt>
      <trkpt lat="42.75315" lon="1.6061">
        <ele>1779.981</ele>
        <time>2022-02-20T11:03:48Z</time>
      </trkpt>
      <trkpt lat="42.75314" lon="1.60611">
        <ele>1779.903</ele>
        <time>2022-02-20T11:03:50Z</time>
      </trkpt>
      <trkpt lat="42.75314" lon="1.60611">
        <ele>1779.86</ele>
        <time>2022-02-20T11:03:52Z</time>
      </trkpt>
      <trkpt lat="42.75313" lon="1.60612">
        <ele>1780.361</ele>
        <time>2022-02-20T11:03:54Z</time>
      </trkpt>
      <trkpt lat="42.75313" lon="1.60613">
        <ele>1780.473</ele>
        <time>2022-02-20T11:03:56Z</time>
      </trkpt>
      <trkpt lat="42.75313" lon="1.60613">
        <ele>1780.537</ele>
        <time>2022-02-20T11:03:58Z</time>
      </trkpt>
      <trkpt lat="42.75312" lon="1.60614">
        <ele>1780.886</ele>
        <time>2022-02-20T11:04:00Z</time>
      </trkpt>
      <trkpt lat="42.75312" lon="1.60614">
        <ele>1781.316</ele>
        <time>2022-02-20T11:04:02Z</time>
      </trkpt>
      <trkpt lat="42.75311" lon="1.60615">
        <ele>1781.439</ele>
        <time>2022-02-20T11:04:04Z</time>
      </trkpt>
      <trkpt lat="42.75311" lon="1.60616">
        <ele>1782.021</ele>
        <time>2022-02-20T11:04:06Z</time>
      </trkpt>
      <trkpt lat="42.7531" lon="1.60617">
        <ele>1782.231</ele>
        <time>2022-02-20T11:04:08Z</time>
      </trkpt>
      <trkpt lat="42.7531" lon="1.60617">
        <ele>1782.942</ele>
        <time>2022-02-20T11:04:10Z</time>
      </trkpt>
      <trkpt lat="42.75309" lon="1.60619">
        <ele>1783.333</ele>
        <time>2022-02-20T11:04:12Z</time>
      </trkpt>
      <trkpt lat="42.75309" lon="1.6062">
        <ele>1783.239</ele>
        <time>2022-02-20T11:04:14Z</time>
      </trkpt>
      <trkpt lat="42.75308" lon="1.60621">
        <ele>1783.661</ele>
        <time>2022-02-20T11:04:16Z</time>
      </trkpt>
      <trkpt lat="42.75309" lon="1.60622">
        <ele>1784.338</ele>
        <time>2022-02-20T11:04:18Z</time>
      </trkpt>
      <trkpt lat="42.7531" lon="1.60623">
        <ele>1784.153</ele>
        <time>2022-02-20T11:04:20Z</time>
      </trkpt>
      <trkpt lat="42.75311" lon="1.60624">
        <ele>1783.786</ele>
        <time>2022-02-20T11:04:22Z</time>
      </trkpt>
      <trkpt lat="42.75311" lon="1.60625">
        <ele>1784.198</ele>
        <time>2022-02-20T11:04:24Z</time>
      </trkpt>
      <trkpt lat="42.75311" lon="1.60626">
        <ele>1784.754</ele>
        <time>2022-02-20T11:04:26Z</time>
      </trkpt>
      <trkpt lat="42.75311" lon="1.60627">
        <ele>1785.641</ele>
        <time>2022-02-20T11:04:28Z</time>
      </trkpt>
      <trkpt lat="42.75311" lon="1.60628">
        <ele>1786.478</ele>
        <time>2022-02-20T11:04:30Z</time>
      </trkpt>
      <trkpt lat="42.7531" lon="1.60629">
        <ele>1786.059</ele>
        <time>2022-02-20T11:04:32Z</time>
      </trkpt>
      <trkpt lat="42.7531" lon="1.6063">
        <ele>1786.807</ele>
        <time>2022-02-20T11:04:34Z</time>
      </trkpt>
      <trkpt lat="42.7531" lon="1.60631">
        <ele>1787.1</ele>
        <time>2022-02-20T11:04:36Z</time>
      </trkpt>
      <trkpt lat="42.75309" lon="1.60632">
        <ele>1787.384</ele>
        <time>2022-02-20T11:04:38Z</time>
      </trkpt>
      <trkpt lat="42.75309" lon="1.60633">
        <ele>1787.517</ele>
        <time>2022-02-20T11:04:40Z</time>
      </trkpt>
      <trkpt lat="42.75309" lon="1.60634">
        <ele>1787.853</ele>
        <time>2022-02-20T11:04:42Z</time>
      </trkpt>
      <trkpt lat="42.75308" lon="1.60635">
        <ele>1787.4</ele>
        <time>2022-02-20T11:04:44Z</time>
      </trkpt>
      <trkpt lat="42.75308" lon="1.60636">
        <ele>1787.515</ele>
        <time>2022-02-20T11:04:46Z</time>
      </trkpt>
      <trkpt lat="42.75307" lon="1.60637">
        <ele>1788.096</ele>
        <time>2022-02-20T11:04:48Z</time>
      </trkpt>
      <trkpt lat="42.75307" lon="1.60638">
        <ele>1788.513</ele>
        <time>2022-02-20T11:04:50Z</time>
      </trkpt>
      <trkpt lat="42.75306" lon="1.60639">
        <ele>1788.768</ele>
        <time>2022-02-20T11:04:52Z</time>
      </trkpt>
      <trkpt lat="42.75305" lon="1.60639">
        <ele>1789.308</ele>
        <time>2022-02-20T11:04:54Z</time>
      </trkpt>
      <trkpt lat="42.75305" lon="1.6064">
        <ele>1789.773</ele>
        <time>2022-02-20T11:04:56Z</time>
      </trkpt>
      <trkpt lat="42.75304" lon="1.60642">
        <ele>1790.008</ele>
        <time>2022-02-20T11:04:58Z</time>
      </trkpt>
      <trkpt lat="42.75303" lon="1.60642">
        <ele>1789.779</ele>
        <time>2022-02-20T11:05:00Z</time>
      </trkpt>
      <trkpt lat="42.75303" lon="1.60643">
        <ele>1789.597</ele>
        <time>2022-02-20T11:05:02Z</time>
      </trkpt>
      <trkpt lat="42.75302" lon="1.60643">
        <ele>1789.449</ele>
        <time>2022-02-20T11:05:04Z</time>
      </trkpt>
      <trkpt lat="42.75302" lon="1.60643">
        <ele>1789.419</ele>
        <time>2022-02-20T11:05:06Z</time>
      </trkpt>
      <trkpt lat="42.75302" lon="1.60644">
        <ele>1789.418</ele>
        <time>2022-02-20T11:05:08Z</time>
      </trkpt>
      <trkpt lat="42.75302" lon="1.60644">
        <ele>1789.418</ele>
        <time>2022-02-20T11:05:10Z</time>
      </trkpt>
      <trkpt lat="42.75302" lon="1.60644">
        <ele>1789.326</ele>
        <time>2022-02-20T11:05:12Z</time>
      </trkpt>
      <trkpt lat="42.75301" lon="1.60645">
        <ele>1789.339</ele>
        <time>2022-02-20T11:05:14Z</time>
      </trkpt>
      <trkpt lat="42.753" lon="1.60646">
        <ele>1789.393</ele>
        <time>2022-02-20T11:05:16Z</time>
      </trkpt>
      <trkpt lat="42.753" lon="1.60647">
        <ele>1790.332</ele>
        <time>2022-02-20T11:05:18Z</time>
      </trkpt>
      <trkpt lat="42.75299" lon="1.60648">
        <ele>1790.725</ele>
        <time>2022-02-20T11:05:20Z</time>
      </trkpt>
      <trkpt lat="42.75299" lon="1.60648">
        <ele>1790.134</ele>
        <time>2022-02-20T11:05:22Z</time>
      </trkpt>
      <trkpt lat="42.75299" lon="1.60649">
        <ele>1790.33</ele>
        <time>2022-02-20T11:05:24Z</time>
      </trkpt>
      <trkpt lat="42.75299" lon="1.6065">
        <ele>1790.785</ele>
        <time>2022-02-20T11:05:26Z</time>
      </trkpt>
      <trkpt lat="42.75298" lon="1.60651">
        <ele>1790.637</ele>
        <time>2022-02-20T11:05:28Z</time>
      </trkpt>
      <trkpt lat="42.75298" lon="1.60652">
        <ele>1790.965</ele>
        <time>2022-02-20T11:05:30Z</time>
      </trkpt>
      <trkpt lat="42.75297" lon="1.60653">
        <ele>1791.665</ele>
        <time>2022-02-20T11:05:32Z</time>
      </trkpt>
      <trkpt lat="42.75297" lon="1.60654">
        <ele>1792.134</ele>
        <time>2022-02-20T11:05:34Z</time>
      </trkpt>
      <trkpt lat="42.75296" lon="1.60654">
        <ele>1792.457</ele>
        <time>2022-02-20T11:05:36Z</time>
      </trkpt>
      <trkpt lat="42.75296" lon="1.60656">
        <ele>1792.537</ele>
        <time>2022-02-20T11:05:38Z</time>
      </trkpt>
      <trkpt lat="42.75296" lon="1.60657">
        <ele>1793.082</ele>
        <time>2022-02-20T11:05:40Z</time>
      </trkpt>
      <trkpt lat="42.75295" lon="1.60657">
        <ele>1793.349</ele>
        <time>2022-02-20T11:05:42Z</time>
      </trkpt>
      <trkpt lat="42.75294" lon="1.60658">
        <ele>1793.497</ele>
        <time>2022-02-20T11:05:44Z</time>
      </trkpt>
      <trkpt lat="42.75294" lon="1.60659">
        <ele>1793.652</ele>
        <time>2022-02-20T11:05:46Z</time>
      </trkpt>
      <trkpt lat="42.75294" lon="1.60659">
        <ele>1793.629</ele>
        <time>2022-02-20T11:05:48Z</time>
      </trkpt>
      <trkpt lat="42.75294" lon="1.60659">
        <ele>1793.745</ele>
        <time>2022-02-20T11:05:50Z</time>
      </trkpt>
      <trkpt lat="42.75293" lon="1.6066">
        <ele>1793.648</ele>
        <time>2022-02-20T11:05:52Z</time>
      </trkpt>
      <trkpt lat="42.75293" lon="1.60661">
        <ele>1794.205</ele>
        <time>2022-02-20T11:05:54Z</time>
      </trkpt>
      <trkpt lat="42.75292" lon="1.60661">
        <ele>1794.594</ele>
        <time>2022-02-20T11:05:56Z</time>
      </trkpt>
      <trkpt lat="42.75291" lon="1.60662">
        <ele>1794.52</ele>
        <time>2022-02-20T11:05:58Z</time>
      </trkpt>
      <trkpt lat="42.75291" lon="1.60663">
        <ele>1794.514</ele>
        <time>2022-02-20T11:06:00Z</time>
      </trkpt>
      <trkpt lat="42.7529" lon="1.60664">
        <ele>1795.164</ele>
        <time>2022-02-20T11:06:02Z</time>
      </trkpt>
      <trkpt lat="42.75289" lon="1.60664">
        <ele>1795.37</ele>
        <time>2022-02-20T11:06:04Z</time>
      </trkpt>
      <trkpt lat="42.75289" lon="1.60665">
        <ele>1795.623</ele>
        <time>2022-02-20T11:06:06Z</time>
      </trkpt>
      <trkpt lat="42.75288" lon="1.60665">
        <ele>1796.233</ele>
        <time>2022-02-20T11:06:08Z</time>
      </trkpt>
      <trkpt lat="42.75287" lon="1.60666">
        <ele>1796.212</ele>
        <time>2022-02-20T11:06:10Z</time>
      </trkpt>
      <trkpt lat="42.75286" lon="1.60666">
        <ele>1796.451</ele>
        <time>2022-02-20T11:06:12Z</time>
      </trkpt>
      <trkpt lat="42.75285" lon="1.60666">
        <ele>1796.967</ele>
        <time>2022-02-20T11:06:14Z</time>
      </trkpt>
      <trkpt lat="42.75284" lon="1.60667">
        <ele>1797.023</ele>
        <time>2022-02-20T11:06:16Z</time>
      </trkpt>
      <trkpt lat="42.75283" lon="1.60667">
        <ele>1797.101</ele>
        <time>2022-02-20T11:06:18Z</time>
      </trkpt>
      <trkpt lat="42.75282" lon="1.60668">
        <ele>1796.959</ele>
        <time>2022-02-20T11:06:20Z</time>
      </trkpt>
      <trkpt lat="42.75282" lon="1.60668">
        <ele>1797.165</ele>
        <time>2022-02-20T11:06:22Z</time>
      </trkpt>
      <trkpt lat="42.75282" lon="1.60669">
        <ele>1797.432</ele>
        <time>2022-02-20T11:06:24Z</time>
      </trkpt>
      <trkpt lat="42.75281" lon="1.60669">
        <ele>1797.825</ele>
        <time>2022-02-20T11:06:26Z</time>
      </trkpt>
      <trkpt lat="42.75281" lon="1.6067">
        <ele>1797.833</ele>
        <time>2022-02-20T11:06:28Z</time>
      </trkpt>
      <trkpt lat="42.7528" lon="1.60671">
        <ele>1798.336</ele>
        <time>2022-02-20T11:06:30Z</time>
      </trkpt>
      <trkpt lat="42.75279" lon="1.60671">
        <ele>1798.795</ele>
        <time>2022-02-20T11:06:32Z</time>
      </trkpt>
      <trkpt lat="42.75279" lon="1.60671">
        <ele>1798.463</ele>
        <time>2022-02-20T11:06:34Z</time>
      </trkpt>
      <trkpt lat="42.75278" lon="1.60671">
        <ele>1798.613</ele>
        <time>2022-02-20T11:06:36Z</time>
      </trkpt>
      <trkpt lat="42.75278" lon="1.60671">
        <ele>1798.614</ele>
        <time>2022-02-20T11:06:38Z</time>
      </trkpt>
      <trkpt lat="42.75278" lon="1.60671">
        <ele>1798.617</ele>
        <time>2022-02-20T11:06:40Z</time>
      </trkpt>
      <trkpt lat="42.75278" lon="1.60671">
        <ele>1798.773</ele>
        <time>2022-02-20T11:06:42Z</time>
      </trkpt>
      <trkpt lat="42.75278" lon="1.60672">
        <ele>1799.168</ele>
        <time>2022-02-20T11:06:44Z</time>
      </trkpt>
      <trkpt lat="42.75277" lon="1.60673">
        <ele>1799.378</ele>
        <time>2022-02-20T11:06:46Z</time>
      </trkpt>
      <trkpt lat="42.75276" lon="1.60673">
        <ele>1800.111</ele>
        <time>2022-02-20T11:06:48Z</time>
      </trkpt>
      <trkpt lat="42.75275" lon="1.60673">
        <ele>1800.09</ele>
        <time>2022-02-20T11:06:50Z</time>
      </trkpt>
      <trkpt lat="42.75275" lon="1.60674">
        <ele>1800.188</ele>
        <time>2022-02-20T11:06:52Z</time>
      </trkpt>
      <trkpt lat="42.75274" lon="1.60675">
        <ele>1801.008</ele>
        <time>2022-02-20T11:06:54Z</time>
      </trkpt>
      <trkpt lat="42.75274" lon="1.60676">
        <ele>1801.472</ele>
        <time>2022-02-20T11:06:56Z</time>
      </trkpt>
      <trkpt lat="42.75274" lon="1.60676">
        <ele>1801.474</ele>
        <time>2022-02-20T11:06:58Z</time>
      </trkpt>
      <trkpt lat="42.75274" lon="1.60676">
        <ele>1801.475</ele>
        <time>2022-02-20T11:07:00Z</time>
      </trkpt>
      <trkpt lat="42.75274" lon="1.60676">
        <ele>1801.476</ele>
        <time>2022-02-20T11:07:02Z</time>
      </trkpt>
      <trkpt lat="42.75274" lon="1.60676">
        <ele>1801.477</ele>
        <time>2022-02-20T11:07:04Z</time>
      </trkpt>
      <trkpt lat="42.75274" lon="1.60676">
        <ele>1801.477</ele>
        <time>2022-02-20T11:07:06Z</time>
      </trkpt>
      <trkpt lat="42.75274" lon="1.60676">
        <ele>1801.493</ele>
        <time>2022-02-20T11:07:08Z</time>
      </trkpt>
      <trkpt lat="42.75273" lon="1.60676">
        <ele>1801.288</ele>
        <time>2022-02-20T11:07:10Z</time>
      </trkpt>
      <trkpt lat="42.75273" lon="1.60676">
        <ele>1801.3</ele>
        <time>2022-02-20T11:07:12Z</time>
      </trkpt>
      <trkpt lat="42.75273" lon="1.60676">
        <ele>1801.367</ele>
        <time>2022-02-20T11:07:14Z</time>
      </trkpt>
      <trkpt lat="42.75272" lon="1.60678">
        <ele>1801.714</ele>
        <time>2022-02-20T11:07:16Z</time>
      </trkpt>
      <trkpt lat="42.75272" lon="1.60678">
        <ele>1801.712</ele>
        <time>2022-02-20T11:07:18Z</time>
      </trkpt>
      <trkpt lat="42.75272" lon="1.60679">
        <ele>1802.204</ele>
        <time>2022-02-20T11:07:20Z</time>
      </trkpt>
      <trkpt lat="42.75271" lon="1.60681">
        <ele>1802.242</ele>
        <time>2022-02-20T11:07:22Z</time>
      </trkpt>
      <trkpt lat="42.75271" lon="1.60682">
        <ele>1802.597</ele>
        <time>2022-02-20T11:07:24Z</time>
      </trkpt>
      <trkpt lat="42.7527" lon="1.60683">
        <ele>1803.194</ele>
        <time>2022-02-20T11:07:26Z</time>
      </trkpt>
      <trkpt lat="42.7527" lon="1.60684">
        <ele>1803.298</ele>
        <time>2022-02-20T11:07:28Z</time>
      </trkpt>
      <trkpt lat="42.7527" lon="1.60685">
        <ele>1803.786</ele>
        <time>2022-02-20T11:07:30Z</time>
      </trkpt>
      <trkpt lat="42.75269" lon="1.60686">
        <ele>1803.998</ele>
        <time>2022-02-20T11:07:32Z</time>
      </trkpt>
      <trkpt lat="42.75268" lon="1.60686">
        <ele>1804.247</ele>
        <time>2022-02-20T11:07:34Z</time>
      </trkpt>
      <trkpt lat="42.75268" lon="1.60686">
        <ele>1804.049</ele>
        <time>2022-02-20T11:07:36Z</time>
      </trkpt>
      <trkpt lat="42.75267" lon="1.60687">
        <ele>1803.734</ele>
        <time>2022-02-20T11:07:38Z</time>
      </trkpt>
      <trkpt lat="42.75267" lon="1.60687">
        <ele>1803.713</ele>
        <time>2022-02-20T11:07:40Z</time>
      </trkpt>
      <trkpt lat="42.75267" lon="1.60687">
        <ele>1803.712</ele>
        <time>2022-02-20T11:07:42Z</time>
      </trkpt>
      <trkpt lat="42.75267" lon="1.60687">
        <ele>1803.711</ele>
        <time>2022-02-20T11:07:44Z</time>
      </trkpt>
      <trkpt lat="42.75266" lon="1.60688">
        <ele>1803.098</ele>
        <time>2022-02-20T11:07:46Z</time>
      </trkpt>
      <trkpt lat="42.75266" lon="1.60689">
        <ele>1803.748</ele>
        <time>2022-02-20T11:07:48Z</time>
      </trkpt>
      <trkpt lat="42.75265" lon="1.6069">
        <ele>1804.594</ele>
        <time>2022-02-20T11:07:50Z</time>
      </trkpt>
      <trkpt lat="42.75265" lon="1.60691">
        <ele>1805.564</ele>
        <time>2022-02-20T11:07:52Z</time>
      </trkpt>
      <trkpt lat="42.75265" lon="1.60692">
        <ele>1805.989</ele>
        <time>2022-02-20T11:07:54Z</time>
      </trkpt>
      <trkpt lat="42.75265" lon="1.60693">
        <ele>1806.367</ele>
        <time>2022-02-20T11:07:56Z</time>
      </trkpt>
      <trkpt lat="42.75265" lon="1.60694">
        <ele>1806.926</ele>
        <time>2022-02-20T11:07:58Z</time>
      </trkpt>
      <trkpt lat="42.75265" lon="1.60695">
        <ele>1807.214</ele>
        <time>2022-02-20T11:08:00Z</time>
      </trkpt>
      <trkpt lat="42.75265" lon="1.60696">
        <ele>1807.446</ele>
        <time>2022-02-20T11:08:02Z</time>
      </trkpt>
      <trkpt lat="42.75264" lon="1.60698">
        <ele>1807.586</ele>
        <time>2022-02-20T11:08:04Z</time>
      </trkpt>
      <trkpt lat="42.75264" lon="1.60699">
        <ele>1808.163</ele>
        <time>2022-02-20T11:08:06Z</time>
      </trkpt>
      <trkpt lat="42.75264" lon="1.607">
        <ele>1808.304</ele>
        <time>2022-02-20T11:08:08Z</time>
      </trkpt>
      <trkpt lat="42.75263" lon="1.60701">
        <ele>1808.445</ele>
        <time>2022-02-20T11:08:10Z</time>
      </trkpt>
      <trkpt lat="42.75263" lon="1.60703">
        <ele>1808.688</ele>
        <time>2022-02-20T11:08:12Z</time>
      </trkpt>
      <trkpt lat="42.75262" lon="1.60704">
        <ele>1808.88</ele>
        <time>2022-02-20T11:08:14Z</time>
      </trkpt>
      <trkpt lat="42.75262" lon="1.60705">
        <ele>1809.319</ele>
        <time>2022-02-20T11:08:16Z</time>
      </trkpt>
      <trkpt lat="42.75261" lon="1.60706">
        <ele>1810.113</ele>
        <time>2022-02-20T11:08:18Z</time>
      </trkpt>
      <trkpt lat="42.75261" lon="1.60707">
        <ele>1809.916</ele>
        <time>2022-02-20T11:08:20Z</time>
      </trkpt>
      <trkpt lat="42.7526" lon="1.60708">
        <ele>1810.098</ele>
        <time>2022-02-20T11:08:22Z</time>
      </trkpt>
      <trkpt lat="42.7526" lon="1.60708">
        <ele>1809.868</ele>
        <time>2022-02-20T11:08:24Z</time>
      </trkpt>
      <trkpt lat="42.75259" lon="1.60709">
        <ele>1810.906</ele>
        <time>2022-02-20T11:08:26Z</time>
      </trkpt>
      <trkpt lat="42.75259" lon="1.6071">
        <ele>1810.871</ele>
        <time>2022-02-20T11:08:28Z</time>
      </trkpt>
      <trkpt lat="42.75259" lon="1.6071">
        <ele>1810.853</ele>
        <time>2022-02-20T11:08:30Z</time>
      </trkpt>
      <trkpt lat="42.75259" lon="1.6071">
        <ele>1810.854</ele>
        <time>2022-02-20T11:08:32Z</time>
      </trkpt>
      <trkpt lat="42.75259" lon="1.6071">
        <ele>1810.852</ele>
        <time>2022-02-20T11:08:34Z</time>
      </trkpt>
      <trkpt lat="42.75259" lon="1.6071">
        <ele>1810.854</ele>
        <time>2022-02-20T11:08:36Z</time>
      </trkpt>
      <trkpt lat="42.75259" lon="1.6071">
        <ele>1810.855</ele>
        <time>2022-02-20T11:08:38Z</time>
      </trkpt>
      <trkpt lat="42.75259" lon="1.6071">
        <ele>1810.857</ele>
        <time>2022-02-20T11:08:40Z</time>
      </trkpt>
      <trkpt lat="42.75259" lon="1.6071">
        <ele>1810.857</ele>
        <time>2022-02-20T11:08:42Z</time>
      </trkpt>
      <trkpt lat="42.75259" lon="1.60711">
        <ele>1811.295</ele>
        <time>2022-02-20T11:08:44Z</time>
      </trkpt>
      <trkpt lat="42.75258" lon="1.60712">
        <ele>1812.118</ele>
        <time>2022-02-20T11:08:46Z</time>
      </trkpt>
      <trkpt lat="42.75258" lon="1.60713">
        <ele>1811.715</ele>
        <time>2022-02-20T11:08:48Z</time>
      </trkpt>
      <trkpt lat="42.75258" lon="1.60714">
        <ele>1811.555</ele>
        <time>2022-02-20T11:08:50Z</time>
      </trkpt>
      <trkpt lat="42.75257" lon="1.60715">
        <ele>1812.02</ele>
        <time>2022-02-20T11:08:52Z</time>
      </trkpt>
      <trkpt lat="42.75256" lon="1.60716">
        <ele>1812.263</ele>
        <time>2022-02-20T11:08:54Z</time>
      </trkpt>
      <trkpt lat="42.75256" lon="1.60717">
        <ele>1812.615</ele>
        <time>2022-02-20T11:08:56Z</time>
      </trkpt>
      <trkpt lat="42.75255" lon="1.60718">
        <ele>1812.989</ele>
        <time>2022-02-20T11:08:58Z</time>
      </trkpt>
      <trkpt lat="42.75255" lon="1.60719">
        <ele>1813.507</ele>
        <time>2022-02-20T11:09:00Z</time>
      </trkpt>
      <trkpt lat="42.75254" lon="1.60719">
        <ele>1814.057</ele>
        <time>2022-02-20T11:09:02Z</time>
      </trkpt>
      <trkpt lat="42.75254" lon="1.6072">
        <ele>1814.039</ele>
        <time>2022-02-20T11:09:04Z</time>
      </trkpt>
      <trkpt lat="42.75253" lon="1.60721">
        <ele>1813.659</ele>
        <time>2022-02-20T11:09:06Z</time>
      </trkpt>
      <trkpt lat="42.75253" lon="1.60723">
        <ele>1813.553</ele>
        <time>2022-02-20T11:09:08Z</time>
      </trkpt>
      <trkpt lat="42.75252" lon="1.60724">
        <ele>1813.896</ele>
        <time>2022-02-20T11:09:10Z</time>
      </trkpt>
      <trkpt lat="42.75252" lon="1.60725">
        <ele>1813.569</ele>
        <time>2022-02-20T11:09:12Z</time>
      </trkpt>
      <trkpt lat="42.75251" lon="1.60726">
        <ele>1813.025</ele>
        <time>2022-02-20T11:09:14Z</time>
      </trkpt>
      <trkpt lat="42.75251" lon="1.60726">
        <ele>1813.043</ele>
        <time>2022-02-20T11:09:16Z</time>
      </trkpt>
      <trkpt lat="42.75251" lon="1.60726">
        <ele>1813.027</ele>
        <time>2022-02-20T11:09:18Z</time>
      </trkpt>
      <trkpt lat="42.7525" lon="1.60726">
        <ele>1813.024</ele>
        <time>2022-02-20T11:09:20Z</time>
      </trkpt>
      <trkpt lat="42.7525" lon="1.60727">
        <ele>1813.232</ele>
        <time>2022-02-20T11:09:22Z</time>
      </trkpt>
      <trkpt lat="42.75249" lon="1.60728">
        <ele>1814.199</ele>
        <time>2022-02-20T11:09:24Z</time>
      </trkpt>
      <trkpt lat="42.75248" lon="1.60729">
        <ele>1814.54</ele>
        <time>2022-02-20T11:09:26Z</time>
      </trkpt>
      <trkpt lat="42.75248" lon="1.6073">
        <ele>1814.923</ele>
        <time>2022-02-20T11:09:28Z</time>
      </trkpt>
      <trkpt lat="42.75248" lon="1.60731">
        <ele>1815.929</ele>
        <time>2022-02-20T11:09:30Z</time>
      </trkpt>
      <trkpt lat="42.75247" lon="1.60732">
        <ele>1815.94</ele>
        <time>2022-02-20T11:09:32Z</time>
      </trkpt>
      <trkpt lat="42.75246" lon="1.60733">
        <ele>1815.537</ele>
        <time>2022-02-20T11:09:34Z</time>
      </trkpt>
      <trkpt lat="42.75246" lon="1.60734">
        <ele>1815.675</ele>
        <time>2022-02-20T11:09:36Z</time>
      </trkpt>
      <trkpt lat="42.75245" lon="1.60734">
        <ele>1816.43</ele>
        <time>2022-02-20T11:09:38Z</time>
      </trkpt>
      <trkpt lat="42.75244" lon="1.60736">
        <ele>1816.783</ele>
        <time>2022-02-20T11:09:40Z</time>
      </trkpt>
      <trkpt lat="42.75244" lon="1.60736">
        <ele>1816.725</ele>
        <time>2022-02-20T11:09:42Z</time>
      </trkpt>
      <trkpt lat="42.75243" lon="1.60737">
        <ele>1817.505</ele>
        <time>2022-02-20T11:09:44Z</time>
      </trkpt>
      <trkpt lat="42.75243" lon="1.60737">
        <ele>1817.285</ele>
        <time>2022-02-20T11:09:46Z</time>
      </trkpt>
      <trkpt lat="42.75243" lon="1.60737">
        <ele>1817.281</ele>
        <time>2022-02-20T11:09:48Z</time>
      </trkpt>
      <trkpt lat="42.75243" lon="1.60737">
        <ele>1817.283</ele>
        <time>2022-02-20T11:09:50Z</time>
      </trkpt>
      <trkpt lat="42.75243" lon="1.60737">
        <ele>1817.283</ele>
        <time>2022-02-20T11:09:52Z</time>
      </trkpt>
      <trkpt lat="42.75243" lon="1.60737">
        <ele>1817.448</ele>
        <time>2022-02-20T11:09:54Z</time>
      </trkpt>
      <trkpt lat="42.75242" lon="1.60738">
        <ele>1817.7</ele>
        <time>2022-02-20T11:09:56Z</time>
      </trkpt>
      <trkpt lat="42.75241" lon="1.60739">
        <ele>1818.004</ele>
        <time>2022-02-20T11:09:58Z</time>
      </trkpt>
      <trkpt lat="42.7524" lon="1.6074">
        <ele>1818.686</ele>
        <time>2022-02-20T11:10:00Z</time>
      </trkpt>
      <trkpt lat="42.7524" lon="1.60741">
        <ele>1818.886</ele>
        <time>2022-02-20T11:10:02Z</time>
      </trkpt>
      <trkpt lat="42.75239" lon="1.60742">
        <ele>1819.39</ele>
        <time>2022-02-20T11:10:04Z</time>
      </trkpt>
      <trkpt lat="42.75238" lon="1.60743">
        <ele>1820.172</ele>
        <time>2022-02-20T11:10:06Z</time>
      </trkpt>
      <trkpt lat="42.75237" lon="1.60744">
        <ele>1820.23</ele>
        <time>2022-02-20T11:10:08Z</time>
      </trkpt>
      <trkpt lat="42.75237" lon="1.60745">
        <ele>1819.885</ele>
        <time>2022-02-20T11:10:10Z</time>
      </trkpt>
      <trkpt lat="42.75236" lon="1.60746">
        <ele>1820.524</ele>
        <time>2022-02-20T11:10:12Z</time>
      </trkpt>
      <trkpt lat="42.75236" lon="1.60747">
        <ele>1820.713</ele>
        <time>2022-02-20T11:10:14Z</time>
      </trkpt>
      <trkpt lat="42.75236" lon="1.60747">
        <ele>1820.71</ele>
        <time>2022-02-20T11:10:16Z</time>
      </trkpt>
      <trkpt lat="42.75236" lon="1.60747">
        <ele>1820.707</ele>
        <time>2022-02-20T11:10:18Z</time>
      </trkpt>
      <trkpt lat="42.75236" lon="1.60747">
        <ele>1820.705</ele>
        <time>2022-02-20T11:10:20Z</time>
      </trkpt>
      <trkpt lat="42.75236" lon="1.60747">
        <ele>1820.703</ele>
        <time>2022-02-20T11:10:22Z</time>
      </trkpt>
      <trkpt lat="42.75236" lon="1.60747">
        <ele>1820.702</ele>
        <time>2022-02-20T11:10:24Z</time>
      </trkpt>
      <trkpt lat="42.75236" lon="1.60747">
        <ele>1820.699</ele>
        <time>2022-02-20T11:10:26Z</time>
      </trkpt>
      <trkpt lat="42.75236" lon="1.60747">
        <ele>1820.7</ele>
        <time>2022-02-20T11:10:28Z</time>
      </trkpt>
      <trkpt lat="42.75236" lon="1.60747">
        <ele>1820.702</ele>
        <time>2022-02-20T11:10:30Z</time>
      </trkpt>
      <trkpt lat="42.75236" lon="1.60747">
        <ele>1820.702</ele>
        <time>2022-02-20T11:10:32Z</time>
      </trkpt>
      <trkpt lat="42.75236" lon="1.60747">
        <ele>1820.708</ele>
        <time>2022-02-20T11:10:34Z</time>
      </trkpt>
      <trkpt lat="42.75236" lon="1.60747">
        <ele>1820.707</ele>
        <time>2022-02-20T11:10:36Z</time>
      </trkpt>
      <trkpt lat="42.75236" lon="1.60748">
        <ele>1820.923</ele>
        <time>2022-02-20T11:10:38Z</time>
      </trkpt>
      <trkpt lat="42.75235" lon="1.60749">
        <ele>1821.339</ele>
        <time>2022-02-20T11:10:40Z</time>
      </trkpt>
      <trkpt lat="42.75234" lon="1.60751">
        <ele>1821.716</ele>
        <time>2022-02-20T11:10:42Z</time>
      </trkpt>
      <trkpt lat="42.75234" lon="1.60752">
        <ele>1821.854</ele>
        <time>2022-02-20T11:10:44Z</time>
      </trkpt>
      <trkpt lat="42.75234" lon="1.60753">
        <ele>1823.236</ele>
        <time>2022-02-20T11:10:46Z</time>
      </trkpt>
      <trkpt lat="42.75234" lon="1.60755">
        <ele>1823.198</ele>
        <time>2022-02-20T11:10:48Z</time>
      </trkpt>
      <trkpt lat="42.75234" lon="1.60756">
        <ele>1823.117</ele>
        <time>2022-02-20T11:10:50Z</time>
      </trkpt>
      <trkpt lat="42.75234" lon="1.60757">
        <ele>1823.175</ele>
        <time>2022-02-20T11:10:52Z</time>
      </trkpt>
      <trkpt lat="42.75234" lon="1.60759">
        <ele>1823.77</ele>
        <time>2022-02-20T11:10:54Z</time>
      </trkpt>
      <trkpt lat="42.75233" lon="1.6076">
        <ele>1824.084</ele>
        <time>2022-02-20T11:10:56Z</time>
      </trkpt>
      <trkpt lat="42.75232" lon="1.60761">
        <ele>1824.044</ele>
        <time>2022-02-20T11:10:58Z</time>
      </trkpt>
      <trkpt lat="42.75231" lon="1.60762">
        <ele>1823.291</ele>
        <time>2022-02-20T11:11:00Z</time>
      </trkpt>
      <trkpt lat="42.75231" lon="1.60763">
        <ele>1823.499</ele>
        <time>2022-02-20T11:11:02Z</time>
      </trkpt>
      <trkpt lat="42.7523" lon="1.60764">
        <ele>1823.68</ele>
        <time>2022-02-20T11:11:04Z</time>
      </trkpt>
      <trkpt lat="42.7523" lon="1.60765">
        <ele>1823.632</ele>
        <time>2022-02-20T11:11:06Z</time>
      </trkpt>
      <trkpt lat="42.75229" lon="1.60766">
        <ele>1823.484</ele>
        <time>2022-02-20T11:11:08Z</time>
      </trkpt>
      <trkpt lat="42.75229" lon="1.60767">
        <ele>1823.513</ele>
        <time>2022-02-20T11:11:10Z</time>
      </trkpt>
      <trkpt lat="42.75228" lon="1.60768">
        <ele>1823.967</ele>
        <time>2022-02-20T11:11:12Z</time>
      </trkpt>
      <trkpt lat="42.75227" lon="1.6077">
        <ele>1824.227</ele>
        <time>2022-02-20T11:11:14Z</time>
      </trkpt>
      <trkpt lat="42.75227" lon="1.60771">
        <ele>1824.521</ele>
        <time>2022-02-20T11:11:16Z</time>
      </trkpt>
      <trkpt lat="42.75227" lon="1.60771">
        <ele>1824.575</ele>
        <time>2022-02-20T11:11:18Z</time>
      </trkpt>
      <trkpt lat="42.75227" lon="1.60771">
        <ele>1824.578</ele>
        <time>2022-02-20T11:11:20Z</time>
      </trkpt>
      <trkpt lat="42.75227" lon="1.60771">
        <ele>1824.58</ele>
        <time>2022-02-20T11:11:22Z</time>
      </trkpt>
      <trkpt lat="42.75227" lon="1.60771">
        <ele>1824.831</ele>
        <time>2022-02-20T11:11:24Z</time>
      </trkpt>
      <trkpt lat="42.75226" lon="1.60773">
        <ele>1825.012</ele>
        <time>2022-02-20T11:11:26Z</time>
      </trkpt>
      <trkpt lat="42.75226" lon="1.60773">
        <ele>1824.854</ele>
        <time>2022-02-20T11:11:28Z</time>
      </trkpt>
      <trkpt lat="42.75225" lon="1.60774">
        <ele>1825.354</ele>
        <time>2022-02-20T11:11:30Z</time>
      </trkpt>
      <trkpt lat="42.75225" lon="1.60775">
        <ele>1825.199</ele>
        <time>2022-02-20T11:11:32Z</time>
      </trkpt>
      <trkpt lat="42.75225" lon="1.60776">
        <ele>1825.893</ele>
        <time>2022-02-20T11:11:34Z</time>
      </trkpt>
      <trkpt lat="42.75224" lon="1.60777">
        <ele>1826.538</ele>
        <time>2022-02-20T11:11:36Z</time>
      </trkpt>
      <trkpt lat="42.75224" lon="1.60778">
        <ele>1825.927</ele>
        <time>2022-02-20T11:11:38Z</time>
      </trkpt>
      <trkpt lat="42.75223" lon="1.6078">
        <ele>1826</ele>
        <time>2022-02-20T11:11:40Z</time>
      </trkpt>
      <trkpt lat="42.75222" lon="1.60781">
        <ele>1826.51</ele>
        <time>2022-02-20T11:11:42Z</time>
      </trkpt>
      <trkpt lat="42.75221" lon="1.60782">
        <ele>1826.999</ele>
        <time>2022-02-20T11:11:44Z</time>
      </trkpt>
      <trkpt lat="42.7522" lon="1.60783">
        <ele>1827.565</ele>
        <time>2022-02-20T11:11:46Z</time>
      </trkpt>
      <trkpt lat="42.75218" lon="1.60784">
        <ele>1827.672</ele>
        <time>2022-02-20T11:11:48Z</time>
      </trkpt>
      <trkpt lat="42.75218" lon="1.60786">
        <ele>1827.778</ele>
        <time>2022-02-20T11:11:50Z</time>
      </trkpt>
      <trkpt lat="42.75217" lon="1.60787">
        <ele>1827.865</ele>
        <time>2022-02-20T11:11:52Z</time>
      </trkpt>
      <trkpt lat="42.75216" lon="1.60788">
        <ele>1827.571</ele>
        <time>2022-02-20T11:11:54Z</time>
      </trkpt>
      <trkpt lat="42.75216" lon="1.6079">
        <ele>1827.348</ele>
        <time>2022-02-20T11:11:56Z</time>
      </trkpt>
      <trkpt lat="42.75216" lon="1.60792">
        <ele>1827.327</ele>
        <time>2022-02-20T11:11:58Z</time>
      </trkpt>
      <trkpt lat="42.75215" lon="1.60793">
        <ele>1827.172</ele>
        <time>2022-02-20T11:12:00Z</time>
      </trkpt>
      <trkpt lat="42.75215" lon="1.60794">
        <ele>1827.832</ele>
        <time>2022-02-20T11:12:02Z</time>
      </trkpt>
      <trkpt lat="42.75214" lon="1.60796">
        <ele>1827.885</ele>
        <time>2022-02-20T11:12:04Z</time>
      </trkpt>
      <trkpt lat="42.75214" lon="1.60797">
        <ele>1828.812</ele>
        <time>2022-02-20T11:12:06Z</time>
      </trkpt>
      <trkpt lat="42.75213" lon="1.60798">
        <ele>1829.101</ele>
        <time>2022-02-20T11:12:08Z</time>
      </trkpt>
      <trkpt lat="42.75213" lon="1.608">
        <ele>1829.15</ele>
        <time>2022-02-20T11:12:10Z</time>
      </trkpt>
      <trkpt lat="42.75212" lon="1.60801">
        <ele>1829.589</ele>
        <time>2022-02-20T11:12:12Z</time>
      </trkpt>
      <trkpt lat="42.75212" lon="1.60802">
        <ele>1829.987</ele>
        <time>2022-02-20T11:12:14Z</time>
      </trkpt>
      <trkpt lat="42.75211" lon="1.60804">
        <ele>1829.818</ele>
        <time>2022-02-20T11:12:16Z</time>
      </trkpt>
      <trkpt lat="42.75211" lon="1.60805">
        <ele>1830.41</ele>
        <time>2022-02-20T11:12:18Z</time>
      </trkpt>
      <trkpt lat="42.7521" lon="1.60806">
        <ele>1830.437</ele>
        <time>2022-02-20T11:12:20Z</time>
      </trkpt>
      <trkpt lat="42.75209" lon="1.60807">
        <ele>1830.446</ele>
        <time>2022-02-20T11:12:22Z</time>
      </trkpt>
      <trkpt lat="42.75209" lon="1.60809">
        <ele>1830.709</ele>
        <time>2022-02-20T11:12:24Z</time>
      </trkpt>
      <trkpt lat="42.75208" lon="1.6081">
        <ele>1830.799</ele>
        <time>2022-02-20T11:12:26Z</time>
      </trkpt>
      <trkpt lat="42.75208" lon="1.60811">
        <ele>1831.001</ele>
        <time>2022-02-20T11:12:28Z</time>
      </trkpt>
      <trkpt lat="42.75207" lon="1.60812">
        <ele>1831.111</ele>
        <time>2022-02-20T11:12:30Z</time>
      </trkpt>
      <trkpt lat="42.75207" lon="1.60814">
        <ele>1831.631</ele>
        <time>2022-02-20T11:12:32Z</time>
      </trkpt>
      <trkpt lat="42.75206" lon="1.60815">
        <ele>1831.859</ele>
        <time>2022-02-20T11:12:34Z</time>
      </trkpt>
      <trkpt lat="42.75205" lon="1.60816">
        <ele>1832.548</ele>
        <time>2022-02-20T11:12:36Z</time>
      </trkpt>
      <trkpt lat="42.75205" lon="1.60818">
        <ele>1832.715</ele>
        <time>2022-02-20T11:12:38Z</time>
      </trkpt>
      <trkpt lat="42.75204" lon="1.60819">
        <ele>1832.681</ele>
        <time>2022-02-20T11:12:40Z</time>
      </trkpt>
      <trkpt lat="42.75203" lon="1.6082">
        <ele>1832.67</ele>
        <time>2022-02-20T11:12:42Z</time>
      </trkpt>
      <trkpt lat="42.75202" lon="1.60821">
        <ele>1833.452</ele>
        <time>2022-02-20T11:12:44Z</time>
      </trkpt>
      <trkpt lat="42.75202" lon="1.60822">
        <ele>1833.718</ele>
        <time>2022-02-20T11:12:46Z</time>
      </trkpt>
      <trkpt lat="42.75201" lon="1.60823">
        <ele>1834.078</ele>
        <time>2022-02-20T11:12:48Z</time>
      </trkpt>
      <trkpt lat="42.752" lon="1.60824">
        <ele>1833.907</ele>
        <time>2022-02-20T11:12:50Z</time>
      </trkpt>
      <trkpt lat="42.75199" lon="1.60826">
        <ele>1833.813</ele>
        <time>2022-02-20T11:12:52Z</time>
      </trkpt>
      <trkpt lat="42.75198" lon="1.60827">
        <ele>1833.603</ele>
        <time>2022-02-20T11:12:54Z</time>
      </trkpt>
      <trkpt lat="42.75198" lon="1.60828">
        <ele>1833.979</ele>
        <time>2022-02-20T11:12:56Z</time>
      </trkpt>
      <trkpt lat="42.75197" lon="1.60829">
        <ele>1834.014</ele>
        <time>2022-02-20T11:12:58Z</time>
      </trkpt>
      <trkpt lat="42.75197" lon="1.6083">
        <ele>1834.536</ele>
        <time>2022-02-20T11:13:00Z</time>
      </trkpt>
      <trkpt lat="42.75197" lon="1.60831">
        <ele>1835.157</ele>
        <time>2022-02-20T11:13:02Z</time>
      </trkpt>
      <trkpt lat="42.75196" lon="1.60832">
        <ele>1835.22</ele>
        <time>2022-02-20T11:13:04Z</time>
      </trkpt>
      <trkpt lat="42.75196" lon="1.60833">
        <ele>1835.46</ele>
        <time>2022-02-20T11:13:06Z</time>
      </trkpt>
      <trkpt lat="42.75195" lon="1.60834">
        <ele>1836.196</ele>
        <time>2022-02-20T11:13:08Z</time>
      </trkpt>
      <trkpt lat="42.75195" lon="1.60834">
        <ele>1836.351</ele>
        <time>2022-02-20T11:13:10Z</time>
      </trkpt>
      <trkpt lat="42.75195" lon="1.60834">
        <ele>1836.355</ele>
        <time>2022-02-20T11:13:12Z</time>
      </trkpt>
      <trkpt lat="42.75195" lon="1.60834">
        <ele>1836.426</ele>
        <time>2022-02-20T11:13:14Z</time>
      </trkpt>
      <trkpt lat="42.75195" lon="1.60835">
        <ele>1837.142</ele>
        <time>2022-02-20T11:13:16Z</time>
      </trkpt>
      <trkpt lat="42.75194" lon="1.60836">
        <ele>1837.128</ele>
        <time>2022-02-20T11:13:18Z</time>
      </trkpt>
      <trkpt lat="42.75193" lon="1.60837">
        <ele>1837.056</ele>
        <time>2022-02-20T11:13:20Z</time>
      </trkpt>
      <trkpt lat="42.75193" lon="1.60838">
        <ele>1836.911</ele>
        <time>2022-02-20T11:13:22Z</time>
      </trkpt>
      <trkpt lat="42.75192" lon="1.60839">
        <ele>1837.287</ele>
        <time>2022-02-20T11:13:24Z</time>
      </trkpt>
      <trkpt lat="42.75192" lon="1.6084">
        <ele>1838.038</ele>
        <time>2022-02-20T11:13:26Z</time>
      </trkpt>
      <trkpt lat="42.75191" lon="1.60841">
        <ele>1838.265</ele>
        <time>2022-02-20T11:13:28Z</time>
      </trkpt>
      <trkpt lat="42.7519" lon="1.60842">
        <ele>1838.471</ele>
        <time>2022-02-20T11:13:30Z</time>
      </trkpt>
      <trkpt lat="42.7519" lon="1.60843">
        <ele>1838.828</ele>
        <time>2022-02-20T11:13:32Z</time>
      </trkpt>
      <trkpt lat="42.75189" lon="1.60844">
        <ele>1839.163</ele>
        <time>2022-02-20T11:13:34Z</time>
      </trkpt>
      <trkpt lat="42.75188" lon="1.60845">
        <ele>1839.738</ele>
        <time>2022-02-20T11:13:36Z</time>
      </trkpt>
      <trkpt lat="42.75187" lon="1.60846">
        <ele>1839.792</ele>
        <time>2022-02-20T11:13:38Z</time>
      </trkpt>
      <trkpt lat="42.75187" lon="1.60847">
        <ele>1839.839</ele>
        <time>2022-02-20T11:13:40Z</time>
      </trkpt>
      <trkpt lat="42.75186" lon="1.60848">
        <ele>1839.988</ele>
        <time>2022-02-20T11:13:42Z</time>
      </trkpt>
      <trkpt lat="42.75186" lon="1.6085">
        <ele>1839.992</ele>
        <time>2022-02-20T11:13:44Z</time>
      </trkpt>
      <trkpt lat="42.75185" lon="1.60851">
        <ele>1840.365</ele>
        <time>2022-02-20T11:13:46Z</time>
      </trkpt>
      <trkpt lat="42.75185" lon="1.60851">
        <ele>1840.038</ele>
        <time>2022-02-20T11:13:48Z</time>
      </trkpt>
      <trkpt lat="42.75184" lon="1.60852">
        <ele>1840.451</ele>
        <time>2022-02-20T11:13:50Z</time>
      </trkpt>
      <trkpt lat="42.75184" lon="1.60853">
        <ele>1840.296</ele>
        <time>2022-02-20T11:13:52Z</time>
      </trkpt>
      <trkpt lat="42.75183" lon="1.60854">
        <ele>1840.311</ele>
        <time>2022-02-20T11:13:54Z</time>
      </trkpt>
      <trkpt lat="42.75182" lon="1.60855">
        <ele>1840.917</ele>
        <time>2022-02-20T11:13:56Z</time>
      </trkpt>
      <trkpt lat="42.75182" lon="1.60856">
        <ele>1841.415</ele>
        <time>2022-02-20T11:13:58Z</time>
      </trkpt>
      <trkpt lat="42.75181" lon="1.60858">
        <ele>1841.652</ele>
        <time>2022-02-20T11:14:00Z</time>
      </trkpt>
      <trkpt lat="42.7518" lon="1.60859">
        <ele>1842.091</ele>
        <time>2022-02-20T11:14:02Z</time>
      </trkpt>
      <trkpt lat="42.7518" lon="1.6086">
        <ele>1842.567</ele>
        <time>2022-02-20T11:14:04Z</time>
      </trkpt>
      <trkpt lat="42.75179" lon="1.60861">
        <ele>1842.251</ele>
        <time>2022-02-20T11:14:06Z</time>
      </trkpt>
      <trkpt lat="42.75178" lon="1.60862">
        <ele>1842.649</ele>
        <time>2022-02-20T11:14:08Z</time>
      </trkpt>
      <trkpt lat="42.75178" lon="1.60863">
        <ele>1842.321</ele>
        <time>2022-02-20T11:14:10Z</time>
      </trkpt>
      <trkpt lat="42.75177" lon="1.60864">
        <ele>1842.966</ele>
        <time>2022-02-20T11:14:12Z</time>
      </trkpt>
      <trkpt lat="42.75177" lon="1.60865">
        <ele>1843.08</ele>
        <time>2022-02-20T11:14:14Z</time>
      </trkpt>
      <trkpt lat="42.75176" lon="1.60866">
        <ele>1842.947</ele>
        <time>2022-02-20T11:14:16Z</time>
      </trkpt>
      <trkpt lat="42.75175" lon="1.60867">
        <ele>1842.819</ele>
        <time>2022-02-20T11:14:18Z</time>
      </trkpt>
      <trkpt lat="42.75175" lon="1.60869">
        <ele>1843.443</ele>
        <time>2022-02-20T11:14:20Z</time>
      </trkpt>
      <trkpt lat="42.75175" lon="1.6087">
        <ele>1843.85</ele>
        <time>2022-02-20T11:14:22Z</time>
      </trkpt>
      <trkpt lat="42.75174" lon="1.60871">
        <ele>1844.351</ele>
        <time>2022-02-20T11:14:24Z</time>
      </trkpt>
      <trkpt lat="42.75174" lon="1.60872">
        <ele>1845.384</ele>
        <time>2022-02-20T11:14:26Z</time>
      </trkpt>
      <trkpt lat="42.75173" lon="1.60873">
        <ele>1846.129</ele>
        <time>2022-02-20T11:14:28Z</time>
      </trkpt>
      <trkpt lat="42.75173" lon="1.60874">
        <ele>1846.14</ele>
        <time>2022-02-20T11:14:30Z</time>
      </trkpt>
      <trkpt lat="42.75172" lon="1.60875">
        <ele>1845.805</ele>
        <time>2022-02-20T11:14:32Z</time>
      </trkpt>
      <trkpt lat="42.75172" lon="1.60877">
        <ele>1845.852</ele>
        <time>2022-02-20T11:14:34Z</time>
      </trkpt>
      <trkpt lat="42.75171" lon="1.60878">
        <ele>1846.448</ele>
        <time>2022-02-20T11:14:36Z</time>
      </trkpt>
      <trkpt lat="42.7517" lon="1.60879">
        <ele>1846.701</ele>
        <time>2022-02-20T11:14:38Z</time>
      </trkpt>
      <trkpt lat="42.7517" lon="1.6088">
        <ele>1846.618</ele>
        <time>2022-02-20T11:14:40Z</time>
      </trkpt>
      <trkpt lat="42.75169" lon="1.60881">
        <ele>1847.327</ele>
        <time>2022-02-20T11:14:42Z</time>
      </trkpt>
      <trkpt lat="42.75169" lon="1.60882">
        <ele>1847.878</ele>
        <time>2022-02-20T11:14:44Z</time>
      </trkpt>
      <trkpt lat="42.75169" lon="1.60881">
        <ele>1847.871</ele>
        <time>2022-02-20T11:14:46Z</time>
      </trkpt>
      <trkpt lat="42.75169" lon="1.60881">
        <ele>1847.87</ele>
        <time>2022-02-20T11:14:48Z</time>
      </trkpt>
      <trkpt lat="42.75169" lon="1.60881">
        <ele>1847.87</ele>
        <time>2022-02-20T11:14:50Z</time>
      </trkpt>
      <trkpt lat="42.75169" lon="1.60881">
        <ele>1847.87</ele>
        <time>2022-02-20T11:14:52Z</time>
      </trkpt>
      <trkpt lat="42.75169" lon="1.60882">
        <ele>1848.099</ele>
        <time>2022-02-20T11:14:54Z</time>
      </trkpt>
      <trkpt lat="42.75169" lon="1.60883">
        <ele>1848.228</ele>
        <time>2022-02-20T11:14:56Z</time>
      </trkpt>
      <trkpt lat="42.75168" lon="1.60884">
        <ele>1848.646</ele>
        <time>2022-02-20T11:14:58Z</time>
      </trkpt>
      <trkpt lat="42.75167" lon="1.60885">
        <ele>1849.22</ele>
        <time>2022-02-20T11:15:00Z</time>
      </trkpt>
      <trkpt lat="42.75167" lon="1.60886">
        <ele>1849.31</ele>
        <time>2022-02-20T11:15:02Z</time>
      </trkpt>
      <trkpt lat="42.75166" lon="1.60888">
        <ele>1849.142</ele>
        <time>2022-02-20T11:15:04Z</time>
      </trkpt>
      <trkpt lat="42.75166" lon="1.60889">
        <ele>1849.676</ele>
        <time>2022-02-20T11:15:07Z</time>
      </trkpt>
      <trkpt lat="42.75165" lon="1.6089">
        <ele>1850.051</ele>
        <time>2022-02-20T11:15:09Z</time>
      </trkpt>
      <trkpt lat="42.75164" lon="1.60891">
        <ele>1850.239</ele>
        <time>2022-02-20T11:15:11Z</time>
      </trkpt>
      <trkpt lat="42.75164" lon="1.60893">
        <ele>1850.259</ele>
        <time>2022-02-20T11:15:13Z</time>
      </trkpt>
      <trkpt lat="42.75164" lon="1.60894">
        <ele>1850.519</ele>
        <time>2022-02-20T11:15:15Z</time>
      </trkpt>
      <trkpt lat="42.75164" lon="1.60895">
        <ele>1850.869</ele>
        <time>2022-02-20T11:15:17Z</time>
      </trkpt>
      <trkpt lat="42.75164" lon="1.60895">
        <ele>1850.782</ele>
        <time>2022-02-20T11:15:19Z</time>
      </trkpt>
      <trkpt lat="42.75163" lon="1.60896">
        <ele>1851.449</ele>
        <time>2022-02-20T11:15:21Z</time>
      </trkpt>
      <trkpt lat="42.75163" lon="1.60897">
        <ele>1851.722</ele>
        <time>2022-02-20T11:15:23Z</time>
      </trkpt>
      <trkpt lat="42.75162" lon="1.60898">
        <ele>1851.764</ele>
        <time>2022-02-20T11:15:25Z</time>
      </trkpt>
      <trkpt lat="42.75161" lon="1.60899">
        <ele>1851.817</ele>
        <time>2022-02-20T11:15:27Z</time>
      </trkpt>
      <trkpt lat="42.75161" lon="1.60901">
        <ele>1852.411</ele>
        <time>2022-02-20T11:15:29Z</time>
      </trkpt>
      <trkpt lat="42.7516" lon="1.60902">
        <ele>1852.448</ele>
        <time>2022-02-20T11:15:31Z</time>
      </trkpt>
      <trkpt lat="42.7516" lon="1.60903">
        <ele>1852.653</ele>
        <time>2022-02-20T11:15:33Z</time>
      </trkpt>
      <trkpt lat="42.75159" lon="1.60904">
        <ele>1852.927</ele>
        <time>2022-02-20T11:15:35Z</time>
      </trkpt>
      <trkpt lat="42.75159" lon="1.60905">
        <ele>1852.911</ele>
        <time>2022-02-20T11:15:37Z</time>
      </trkpt>
      <trkpt lat="42.75158" lon="1.60905">
        <ele>1853.103</ele>
        <time>2022-02-20T11:15:39Z</time>
      </trkpt>
      <trkpt lat="42.75157" lon="1.60907">
        <ele>1853.311</ele>
        <time>2022-02-20T11:15:42Z</time>
      </trkpt>
      <trkpt lat="42.75156" lon="1.60908">
        <ele>1853.719</ele>
        <time>2022-02-20T11:15:44Z</time>
      </trkpt>
      <trkpt lat="42.75156" lon="1.60908">
        <ele>1854.56</ele>
        <time>2022-02-20T11:15:46Z</time>
      </trkpt>
      <trkpt lat="42.75155" lon="1.60909">
        <ele>1854.581</ele>
        <time>2022-02-20T11:15:48Z</time>
      </trkpt>
      <trkpt lat="42.75155" lon="1.6091">
        <ele>1854.699</ele>
        <time>2022-02-20T11:15:50Z</time>
      </trkpt>
      <trkpt lat="42.75154" lon="1.60911">
        <ele>1855.353</ele>
        <time>2022-02-20T11:15:52Z</time>
      </trkpt>
      <trkpt lat="42.75154" lon="1.60911">
        <ele>1855.353</ele>
        <time>2022-02-20T11:15:54Z</time>
      </trkpt>
      <trkpt lat="42.75154" lon="1.60911">
        <ele>1855.354</ele>
        <time>2022-02-20T11:15:56Z</time>
      </trkpt>
      <trkpt lat="42.75154" lon="1.60911">
        <ele>1855.358</ele>
        <time>2022-02-20T11:15:58Z</time>
      </trkpt>
      <trkpt lat="42.75154" lon="1.60911">
        <ele>1855.359</ele>
        <time>2022-02-20T11:16:00Z</time>
      </trkpt>
      <trkpt lat="42.75154" lon="1.60911">
        <ele>1855.361</ele>
        <time>2022-02-20T11:16:02Z</time>
      </trkpt>
      <trkpt lat="42.75154" lon="1.60911">
        <ele>1855.363</ele>
        <time>2022-02-20T11:16:04Z</time>
      </trkpt>
      <trkpt lat="42.75154" lon="1.60911">
        <ele>1855.369</ele>
        <time>2022-02-20T11:16:06Z</time>
      </trkpt>
      <trkpt lat="42.75154" lon="1.60911">
        <ele>1855.367</ele>
        <time>2022-02-20T11:16:08Z</time>
      </trkpt>
      <trkpt lat="42.75154" lon="1.60911">
        <ele>1855.551</ele>
        <time>2022-02-20T11:16:10Z</time>
      </trkpt>
      <trkpt lat="42.75154" lon="1.60912">
        <ele>1855.861</ele>
        <time>2022-02-20T11:16:12Z</time>
      </trkpt>
      <trkpt lat="42.75153" lon="1.60913">
        <ele>1856.754</ele>
        <time>2022-02-20T11:16:14Z</time>
      </trkpt>
      <trkpt lat="42.75152" lon="1.60914">
        <ele>1857.09</ele>
        <time>2022-02-20T11:16:16Z</time>
      </trkpt>
      <trkpt lat="42.75151" lon="1.60916">
        <ele>1857</ele>
        <time>2022-02-20T11:16:18Z</time>
      </trkpt>
      <trkpt lat="42.75151" lon="1.60917">
        <ele>1857.03</ele>
        <time>2022-02-20T11:16:20Z</time>
      </trkpt>
      <trkpt lat="42.7515" lon="1.60918">
        <ele>1857.146</ele>
        <time>2022-02-20T11:16:22Z</time>
      </trkpt>
      <trkpt lat="42.75149" lon="1.6092">
        <ele>1857.324</ele>
        <time>2022-02-20T11:16:24Z</time>
      </trkpt>
      <trkpt lat="42.75149" lon="1.60921">
        <ele>1857.165</ele>
        <time>2022-02-20T11:16:26Z</time>
      </trkpt>
      <trkpt lat="42.75148" lon="1.60922">
        <ele>1857.491</ele>
        <time>2022-02-20T11:16:28Z</time>
      </trkpt>
      <trkpt lat="42.75147" lon="1.60923">
        <ele>1857.621</ele>
        <time>2022-02-20T11:16:30Z</time>
      </trkpt>
      <trkpt lat="42.75147" lon="1.60924">
        <ele>1857.948</ele>
        <time>2022-02-20T11:16:32Z</time>
      </trkpt>
      <trkpt lat="42.75146" lon="1.60926">
        <ele>1858.768</ele>
        <time>2022-02-20T11:16:34Z</time>
      </trkpt>
      <trkpt lat="42.75145" lon="1.60927">
        <ele>1858.724</ele>
        <time>2022-02-20T11:16:36Z</time>
      </trkpt>
      <trkpt lat="42.75145" lon="1.60928">
        <ele>1858.743</ele>
        <time>2022-02-20T11:16:38Z</time>
      </trkpt>
      <trkpt lat="42.75144" lon="1.60929">
        <ele>1859.267</ele>
        <time>2022-02-20T11:16:40Z</time>
      </trkpt>
      <trkpt lat="42.75144" lon="1.60929">
        <ele>1859.84</ele>
        <time>2022-02-20T11:16:42Z</time>
      </trkpt>
      <trkpt lat="42.75143" lon="1.6093">
        <ele>1860.017</ele>
        <time>2022-02-20T11:16:44Z</time>
      </trkpt>
      <trkpt lat="42.75143" lon="1.60931">
        <ele>1860.751</ele>
        <time>2022-02-20T11:16:46Z</time>
      </trkpt>
      <trkpt lat="42.75142" lon="1.60932">
        <ele>1860.636</ele>
        <time>2022-02-20T11:16:48Z</time>
      </trkpt>
      <trkpt lat="42.75141" lon="1.60933">
        <ele>1861.509</ele>
        <time>2022-02-20T11:16:50Z</time>
      </trkpt>
      <trkpt lat="42.75141" lon="1.60934">
        <ele>1862.05</ele>
        <time>2022-02-20T11:16:52Z</time>
      </trkpt>
      <trkpt lat="42.7514" lon="1.60936">
        <ele>1862.523</ele>
        <time>2022-02-20T11:16:54Z</time>
      </trkpt>
      <trkpt lat="42.7514" lon="1.60937">
        <ele>1862.863</ele>
        <time>2022-02-20T11:16:56Z</time>
      </trkpt>
      <trkpt lat="42.75139" lon="1.60938">
        <ele>1862.984</ele>
        <time>2022-02-20T11:16:58Z</time>
      </trkpt>
      <trkpt lat="42.75139" lon="1.60939">
        <ele>1862.928</ele>
        <time>2022-02-20T11:17:00Z</time>
      </trkpt>
      <trkpt lat="42.75139" lon="1.60938">
        <ele>1862.889</ele>
        <time>2022-02-20T11:17:02Z</time>
      </trkpt>
      <trkpt lat="42.75139" lon="1.60938">
        <ele>1862.888</ele>
        <time>2022-02-20T11:17:04Z</time>
      </trkpt>
      <trkpt lat="42.75139" lon="1.60938">
        <ele>1862.887</ele>
        <time>2022-02-20T11:17:06Z</time>
      </trkpt>
      <trkpt lat="42.75139" lon="1.60938">
        <ele>1862.886</ele>
        <time>2022-02-20T11:17:08Z</time>
      </trkpt>
      <trkpt lat="42.75139" lon="1.60938">
        <ele>1862.883</ele>
        <time>2022-02-20T11:17:10Z</time>
      </trkpt>
      <trkpt lat="42.75139" lon="1.60938">
        <ele>1862.884</ele>
        <time>2022-02-20T11:17:12Z</time>
      </trkpt>
      <trkpt lat="42.75139" lon="1.60938">
        <ele>1862.879</ele>
        <time>2022-02-20T11:17:14Z</time>
      </trkpt>
      <trkpt lat="42.75139" lon="1.60938">
        <ele>1862.878</ele>
        <time>2022-02-20T11:17:16Z</time>
      </trkpt>
      <trkpt lat="42.75139" lon="1.60938">
        <ele>1862.877</ele>
        <time>2022-02-20T11:17:18Z</time>
      </trkpt>
      <trkpt lat="42.75139" lon="1.60938">
        <ele>1862.88</ele>
        <time>2022-02-20T11:17:20Z</time>
      </trkpt>
      <trkpt lat="42.75139" lon="1.60939">
        <ele>1862.717</ele>
        <time>2022-02-20T11:17:22Z</time>
      </trkpt>
      <trkpt lat="42.75138" lon="1.60939">
        <ele>1863.064</ele>
        <time>2022-02-20T11:17:24Z</time>
      </trkpt>
      <trkpt lat="42.75138" lon="1.6094">
        <ele>1863.726</ele>
        <time>2022-02-20T11:17:26Z</time>
      </trkpt>
      <trkpt lat="42.75137" lon="1.6094">
        <ele>1864.271</ele>
        <time>2022-02-20T11:17:28Z</time>
      </trkpt>
      <trkpt lat="42.75137" lon="1.60941">
        <ele>1864.561</ele>
        <time>2022-02-20T11:17:30Z</time>
      </trkpt>
      <trkpt lat="42.75136" lon="1.60943">
        <ele>1864.711</ele>
        <time>2022-02-20T11:17:32Z</time>
      </trkpt>
      <trkpt lat="42.75136" lon="1.60944">
        <ele>1864.613</ele>
        <time>2022-02-20T11:17:34Z</time>
      </trkpt>
      <trkpt lat="42.75136" lon="1.60944">
        <ele>1864.742</ele>
        <time>2022-02-20T11:17:36Z</time>
      </trkpt>
      <trkpt lat="42.75135" lon="1.60945">
        <ele>1864.567</ele>
        <time>2022-02-20T11:17:38Z</time>
      </trkpt>
      <trkpt lat="42.75135" lon="1.60946">
        <ele>1865.316</ele>
        <time>2022-02-20T11:17:40Z</time>
      </trkpt>
      <trkpt lat="42.75135" lon="1.60947">
        <ele>1865.613</ele>
        <time>2022-02-20T11:17:42Z</time>
      </trkpt>
      <trkpt lat="42.75134" lon="1.60948">
        <ele>1866.235</ele>
        <time>2022-02-20T11:17:44Z</time>
      </trkpt>
      <trkpt lat="42.75134" lon="1.60949">
        <ele>1866.617</ele>
        <time>2022-02-20T11:17:46Z</time>
      </trkpt>
      <trkpt lat="42.75133" lon="1.6095">
        <ele>1867.201</ele>
        <time>2022-02-20T11:17:48Z</time>
      </trkpt>
      <trkpt lat="42.75132" lon="1.6095">
        <ele>1866.638</ele>
        <time>2022-02-20T11:17:50Z</time>
      </trkpt>
      <trkpt lat="42.75132" lon="1.6095">
        <ele>1866.674</ele>
        <time>2022-02-20T11:17:52Z</time>
      </trkpt>
      <trkpt lat="42.75131" lon="1.60951">
        <ele>1867.015</ele>
        <time>2022-02-20T11:17:54Z</time>
      </trkpt>
      <trkpt lat="42.75131" lon="1.60952">
        <ele>1867.425</ele>
        <time>2022-02-20T11:17:56Z</time>
      </trkpt>
      <trkpt lat="42.7513" lon="1.60952">
        <ele>1867.601</ele>
        <time>2022-02-20T11:17:58Z</time>
      </trkpt>
      <trkpt lat="42.7513" lon="1.60953">
        <ele>1867.356</ele>
        <time>2022-02-20T11:18:00Z</time>
      </trkpt>
      <trkpt lat="42.7513" lon="1.60954">
        <ele>1867.66</ele>
        <time>2022-02-20T11:18:02Z</time>
      </trkpt>
      <trkpt lat="42.75129" lon="1.60955">
        <ele>1868.051</ele>
        <time>2022-02-20T11:18:04Z</time>
      </trkpt>
      <trkpt lat="42.75129" lon="1.60956">
        <ele>1868.653</ele>
        <time>2022-02-20T11:18:06Z</time>
      </trkpt>
      <trkpt lat="42.75128" lon="1.60957">
        <ele>1868.041</ele>
        <time>2022-02-20T11:18:08Z</time>
      </trkpt>
      <trkpt lat="42.75128" lon="1.60958">
        <ele>1868.684</ele>
        <time>2022-02-20T11:18:10Z</time>
      </trkpt>
      <trkpt lat="42.75128" lon="1.60959">
        <ele>1869.444</ele>
        <time>2022-02-20T11:18:12Z</time>
      </trkpt>
      <trkpt lat="42.75127" lon="1.6096">
        <ele>1869.734</ele>
        <time>2022-02-20T11:18:14Z</time>
      </trkpt>
      <trkpt lat="42.75127" lon="1.6096">
        <ele>1869.613</ele>
        <time>2022-02-20T11:18:16Z</time>
      </trkpt>
      <trkpt lat="42.75127" lon="1.6096">
        <ele>1869.603</ele>
        <time>2022-02-20T11:18:18Z</time>
      </trkpt>
      <trkpt lat="42.75127" lon="1.6096">
        <ele>1869.606</ele>
        <time>2022-02-20T11:18:20Z</time>
      </trkpt>
      <trkpt lat="42.75127" lon="1.60961">
        <ele>1869.556</ele>
        <time>2022-02-20T11:18:22Z</time>
      </trkpt>
      <trkpt lat="42.75127" lon="1.60962">
        <ele>1869.545</ele>
        <time>2022-02-20T11:18:24Z</time>
      </trkpt>
      <trkpt lat="42.75126" lon="1.60963">
        <ele>1869.952</ele>
        <time>2022-02-20T11:18:26Z</time>
      </trkpt>
      <trkpt lat="42.75125" lon="1.60964">
        <ele>1870.342</ele>
        <time>2022-02-20T11:18:28Z</time>
      </trkpt>
      <trkpt lat="42.75125" lon="1.60964">
        <ele>1870.797</ele>
        <time>2022-02-20T11:18:30Z</time>
      </trkpt>
      <trkpt lat="42.75125" lon="1.60964">
        <ele>1870.749</ele>
        <time>2022-02-20T11:18:32Z</time>
      </trkpt>
      <trkpt lat="42.75124" lon="1.60965">
        <ele>1870.999</ele>
        <time>2022-02-20T11:18:34Z</time>
      </trkpt>
      <trkpt lat="42.75124" lon="1.60965">
        <ele>1871.615</ele>
        <time>2022-02-20T11:18:36Z</time>
      </trkpt>
      <trkpt lat="42.75124" lon="1.60965">
        <ele>1871.624</ele>
        <time>2022-02-20T11:18:38Z</time>
      </trkpt>
      <trkpt lat="42.75124" lon="1.60966">
        <ele>1871.67</ele>
        <time>2022-02-20T11:18:40Z</time>
      </trkpt>
      <trkpt lat="42.75124" lon="1.60966">
        <ele>1872.338</ele>
        <time>2022-02-20T11:18:42Z</time>
      </trkpt>
      <trkpt lat="42.75124" lon="1.60967">
        <ele>1872.626</ele>
        <time>2022-02-20T11:18:44Z</time>
      </trkpt>
      <trkpt lat="42.75124" lon="1.60968">
        <ele>1872.769</ele>
        <time>2022-02-20T11:18:46Z</time>
      </trkpt>
      <trkpt lat="42.75124" lon="1.60969">
        <ele>1872.702</ele>
        <time>2022-02-20T11:18:48Z</time>
      </trkpt>
      <trkpt lat="42.75123" lon="1.6097">
        <ele>1872.654</ele>
        <time>2022-02-20T11:18:50Z</time>
      </trkpt>
      <trkpt lat="42.75123" lon="1.60971">
        <ele>1873.113</ele>
        <time>2022-02-20T11:18:52Z</time>
      </trkpt>
      <trkpt lat="42.75123" lon="1.60971">
        <ele>1873.912</ele>
        <time>2022-02-20T11:18:54Z</time>
      </trkpt>
      <trkpt lat="42.75123" lon="1.60971">
        <ele>1873.916</ele>
        <time>2022-02-20T11:18:56Z</time>
      </trkpt>
      <trkpt lat="42.75123" lon="1.60971">
        <ele>1874.041</ele>
        <time>2022-02-20T11:18:58Z</time>
      </trkpt>
      <trkpt lat="42.75123" lon="1.60972">
        <ele>1874.011</ele>
        <time>2022-02-20T11:19:00Z</time>
      </trkpt>
      <trkpt lat="42.75123" lon="1.60973">
        <ele>1874.203</ele>
        <time>2022-02-20T11:19:02Z</time>
      </trkpt>
      <trkpt lat="42.75123" lon="1.60974">
        <ele>1873.726</ele>
        <time>2022-02-20T11:19:04Z</time>
      </trkpt>
      <trkpt lat="42.75123" lon="1.60975">
        <ele>1874.493</ele>
        <time>2022-02-20T11:19:06Z</time>
      </trkpt>
      <trkpt lat="42.75122" lon="1.60976">
        <ele>1874.839</ele>
        <time>2022-02-20T11:19:08Z</time>
      </trkpt>
      <trkpt lat="42.75122" lon="1.60976">
        <ele>1874.718</ele>
        <time>2022-02-20T11:19:10Z</time>
      </trkpt>
      <trkpt lat="42.75122" lon="1.60977">
        <ele>1874.936</ele>
        <time>2022-02-20T11:19:12Z</time>
      </trkpt>
      <trkpt lat="42.75122" lon="1.60978">
        <ele>1875.22</ele>
        <time>2022-02-20T11:19:14Z</time>
      </trkpt>
      <trkpt lat="42.75122" lon="1.60978">
        <ele>1875.583</ele>
        <time>2022-02-20T11:19:16Z</time>
      </trkpt>
      <trkpt lat="42.75122" lon="1.60979">
        <ele>1876.018</ele>
        <time>2022-02-20T11:19:18Z</time>
      </trkpt>
      <trkpt lat="42.75122" lon="1.60981">
        <ele>1876.123</ele>
        <time>2022-02-20T11:19:20Z</time>
      </trkpt>
      <trkpt lat="42.75122" lon="1.60981">
        <ele>1875.958</ele>
        <time>2022-02-20T11:19:22Z</time>
      </trkpt>
      <trkpt lat="42.75122" lon="1.60982">
        <ele>1875.993</ele>
        <time>2022-02-20T11:19:24Z</time>
      </trkpt>
      <trkpt lat="42.75121" lon="1.60982">
        <ele>1876.014</ele>
        <time>2022-02-20T11:19:26Z</time>
      </trkpt>
      <trkpt lat="42.75121" lon="1.60982">
        <ele>1876.02</ele>
        <time>2022-02-20T11:19:28Z</time>
      </trkpt>
      <trkpt lat="42.75121" lon="1.60982">
        <ele>1876.022</ele>
        <time>2022-02-20T11:19:30Z</time>
      </trkpt>
      <trkpt lat="42.75121" lon="1.60983">
        <ele>1876.459</ele>
        <time>2022-02-20T11:19:32Z</time>
      </trkpt>
      <trkpt lat="42.75121" lon="1.60984">
        <ele>1876.838</ele>
        <time>2022-02-20T11:19:34Z</time>
      </trkpt>
      <trkpt lat="42.75121" lon="1.60984">
        <ele>1877.134</ele>
        <time>2022-02-20T11:19:36Z</time>
      </trkpt>
      <trkpt lat="42.7512" lon="1.60985">
        <ele>1876.894</ele>
        <time>2022-02-20T11:19:38Z</time>
      </trkpt>
      <trkpt lat="42.7512" lon="1.60985">
        <ele>1877.118</ele>
        <time>2022-02-20T11:19:40Z</time>
      </trkpt>
      <trkpt lat="42.75119" lon="1.60986">
        <ele>1877.529</ele>
        <time>2022-02-20T11:19:42Z</time>
      </trkpt>
      <trkpt lat="42.75118" lon="1.60987">
        <ele>1877.85</ele>
        <time>2022-02-20T11:19:44Z</time>
      </trkpt>
      <trkpt lat="42.75118" lon="1.60987">
        <ele>1878.006</ele>
        <time>2022-02-20T11:19:46Z</time>
      </trkpt>
      <trkpt lat="42.75118" lon="1.60988">
        <ele>1878.268</ele>
        <time>2022-02-20T11:19:48Z</time>
      </trkpt>
      <trkpt lat="42.75117" lon="1.60989">
        <ele>1878.678</ele>
        <time>2022-02-20T11:19:50Z</time>
      </trkpt>
      <trkpt lat="42.75117" lon="1.6099">
        <ele>1879.542</ele>
        <time>2022-02-20T11:19:52Z</time>
      </trkpt>
      <trkpt lat="42.75117" lon="1.6099">
        <ele>1879.562</ele>
        <time>2022-02-20T11:19:54Z</time>
      </trkpt>
      <trkpt lat="42.75117" lon="1.6099">
        <ele>1879.563</ele>
        <time>2022-02-20T11:19:56Z</time>
      </trkpt>
      <trkpt lat="42.75117" lon="1.6099">
        <ele>1879.679</ele>
        <time>2022-02-20T11:19:58Z</time>
      </trkpt>
      <trkpt lat="42.75118" lon="1.6099">
        <ele>1879.837</ele>
        <time>2022-02-20T11:20:00Z</time>
      </trkpt>
      <trkpt lat="42.75118" lon="1.60991">
        <ele>1878.938</ele>
        <time>2022-02-20T11:20:02Z</time>
      </trkpt>
      <trkpt lat="42.75118" lon="1.60991">
        <ele>1878.826</ele>
        <time>2022-02-20T11:20:04Z</time>
      </trkpt>
      <trkpt lat="42.75118" lon="1.60992">
        <ele>1878.664</ele>
        <time>2022-02-20T11:20:06Z</time>
      </trkpt>
      <trkpt lat="42.75118" lon="1.60992">
        <ele>1879.137</ele>
        <time>2022-02-20T11:20:08Z</time>
      </trkpt>
      <trkpt lat="42.75118" lon="1.60993">
        <ele>1879.558</ele>
        <time>2022-02-20T11:20:10Z</time>
      </trkpt>
      <trkpt lat="42.75117" lon="1.60994">
        <ele>1879.615</ele>
        <time>2022-02-20T11:20:12Z</time>
      </trkpt>
      <trkpt lat="42.75117" lon="1.60994">
        <ele>1880.58</ele>
        <time>2022-02-20T11:20:14Z</time>
      </trkpt>
      <trkpt lat="42.75117" lon="1.60994">
        <ele>1880.589</ele>
        <time>2022-02-20T11:20:16Z</time>
      </trkpt>
      <trkpt lat="42.75117" lon="1.60994">
        <ele>1880.592</ele>
        <time>2022-02-20T11:20:18Z</time>
      </trkpt>
      <trkpt lat="42.75117" lon="1.60994">
        <ele>1880.593</ele>
        <time>2022-02-20T11:20:20Z</time>
      </trkpt>
      <trkpt lat="42.75117" lon="1.60994">
        <ele>1880.596</ele>
        <time>2022-02-20T11:20:22Z</time>
      </trkpt>
      <trkpt lat="42.75117" lon="1.60994">
        <ele>1880.599</ele>
        <time>2022-02-20T11:20:24Z</time>
      </trkpt>
      <trkpt lat="42.75117" lon="1.60994">
        <ele>1880.6</ele>
        <time>2022-02-20T11:20:26Z</time>
      </trkpt>
      <trkpt lat="42.75117" lon="1.60995">
        <ele>1880.583</ele>
        <time>2022-02-20T11:20:28Z</time>
      </trkpt>
      <trkpt lat="42.75117" lon="1.60996">
        <ele>1881.242</ele>
        <time>2022-02-20T11:20:30Z</time>
      </trkpt>
      <trkpt lat="42.75117" lon="1.60996">
        <ele>1881.805</ele>
        <time>2022-02-20T11:20:32Z</time>
      </trkpt>
      <trkpt lat="42.75116" lon="1.60997">
        <ele>1881.918</ele>
        <time>2022-02-20T11:20:34Z</time>
      </trkpt>
      <trkpt lat="42.75116" lon="1.60998">
        <ele>1882.797</ele>
        <time>2022-02-20T11:20:36Z</time>
      </trkpt>
      <trkpt lat="42.75115" lon="1.60998">
        <ele>1882.832</ele>
        <time>2022-02-20T11:20:38Z</time>
      </trkpt>
      <trkpt lat="42.75115" lon="1.60999">
        <ele>1883.561</ele>
        <time>2022-02-20T11:20:40Z</time>
      </trkpt>
      <trkpt lat="42.75114" lon="1.61">
        <ele>1884.03</ele>
        <time>2022-02-20T11:20:42Z</time>
      </trkpt>
      <trkpt lat="42.75114" lon="1.61">
        <ele>1883.87</ele>
        <time>2022-02-20T11:20:44Z</time>
      </trkpt>
      <trkpt lat="42.75114" lon="1.61001">
        <ele>1883.528</ele>
        <time>2022-02-20T11:20:46Z</time>
      </trkpt>
      <trkpt lat="42.75114" lon="1.61001">
        <ele>1883.833</ele>
        <time>2022-02-20T11:20:48Z</time>
      </trkpt>
      <trkpt lat="42.75113" lon="1.61002">
        <ele>1884.426</ele>
        <time>2022-02-20T11:20:50Z</time>
      </trkpt>
      <trkpt lat="42.75113" lon="1.61003">
        <ele>1885.084</ele>
        <time>2022-02-20T11:20:52Z</time>
      </trkpt>
      <trkpt lat="42.75113" lon="1.61003">
        <ele>1885.277</ele>
        <time>2022-02-20T11:20:54Z</time>
      </trkpt>
      <trkpt lat="42.75112" lon="1.61003">
        <ele>1885.34</ele>
        <time>2022-02-20T11:20:56Z</time>
      </trkpt>
      <trkpt lat="42.75112" lon="1.61003">
        <ele>1885.337</ele>
        <time>2022-02-20T11:20:58Z</time>
      </trkpt>
      <trkpt lat="42.75112" lon="1.61004">
        <ele>1885.26</ele>
        <time>2022-02-20T11:21:00Z</time>
      </trkpt>
      <trkpt lat="42.75112" lon="1.61004">
        <ele>1885.266</ele>
        <time>2022-02-20T11:21:02Z</time>
      </trkpt>
      <trkpt lat="42.75111" lon="1.61005">
        <ele>1885.041</ele>
        <time>2022-02-20T11:21:04Z</time>
      </trkpt>
      <trkpt lat="42.7511" lon="1.61006">
        <ele>1884.873</ele>
        <time>2022-02-20T11:21:06Z</time>
      </trkpt>
      <trkpt lat="42.7511" lon="1.61007">
        <ele>1885.105</ele>
        <time>2022-02-20T11:21:08Z</time>
      </trkpt>
      <trkpt lat="42.7511" lon="1.61008">
        <ele>1884.891</ele>
        <time>2022-02-20T11:21:10Z</time>
      </trkpt>
      <trkpt lat="42.7511" lon="1.61009">
        <ele>1885.092</ele>
        <time>2022-02-20T11:21:12Z</time>
      </trkpt>
      <trkpt lat="42.7511" lon="1.61009">
        <ele>1885.028</ele>
        <time>2022-02-20T11:21:14Z</time>
      </trkpt>
      <trkpt lat="42.75109" lon="1.6101">
        <ele>1885.291</ele>
        <time>2022-02-20T11:21:16Z</time>
      </trkpt>
      <trkpt lat="42.75109" lon="1.61011">
        <ele>1886.038</ele>
        <time>2022-02-20T11:21:18Z</time>
      </trkpt>
      <trkpt lat="42.75109" lon="1.61011">
        <ele>1886.63</ele>
        <time>2022-02-20T11:21:20Z</time>
      </trkpt>
      <trkpt lat="42.75109" lon="1.61013">
        <ele>1886.892</ele>
        <time>2022-02-20T11:21:22Z</time>
      </trkpt>
      <trkpt lat="42.75108" lon="1.61014">
        <ele>1887.264</ele>
        <time>2022-02-20T11:21:24Z</time>
      </trkpt>
      <trkpt lat="42.75108" lon="1.61015">
        <ele>1887.315</ele>
        <time>2022-02-20T11:21:26Z</time>
      </trkpt>
      <trkpt lat="42.75108" lon="1.61015">
        <ele>1887.577</ele>
        <time>2022-02-20T11:21:28Z</time>
      </trkpt>
      <trkpt lat="42.75108" lon="1.61015">
        <ele>1887.578</ele>
        <time>2022-02-20T11:21:30Z</time>
      </trkpt>
      <trkpt lat="42.75108" lon="1.61015">
        <ele>1887.58</ele>
        <time>2022-02-20T11:21:32Z</time>
      </trkpt>
      <trkpt lat="42.75108" lon="1.61015">
        <ele>1887.596</ele>
        <time>2022-02-20T11:21:34Z</time>
      </trkpt>
      <trkpt lat="42.75107" lon="1.61016">
        <ele>1888.152</ele>
        <time>2022-02-20T11:21:36Z</time>
      </trkpt>
      <trkpt lat="42.75107" lon="1.61017">
        <ele>1888.535</ele>
        <time>2022-02-20T11:21:38Z</time>
      </trkpt>
      <trkpt lat="42.75107" lon="1.61019">
        <ele>1889.251</ele>
        <time>2022-02-20T11:21:40Z</time>
      </trkpt>
      <trkpt lat="42.75107" lon="1.6102">
        <ele>1889.483</ele>
        <time>2022-02-20T11:21:42Z</time>
      </trkpt>
      <trkpt lat="42.75106" lon="1.61021">
        <ele>1889.135</ele>
        <time>2022-02-20T11:21:44Z</time>
      </trkpt>
      <trkpt lat="42.75106" lon="1.61022">
        <ele>1889.672</ele>
        <time>2022-02-20T11:21:46Z</time>
      </trkpt>
      <trkpt lat="42.75106" lon="1.61023">
        <ele>1889.978</ele>
        <time>2022-02-20T11:21:48Z</time>
      </trkpt>
      <trkpt lat="42.75105" lon="1.61024">
        <ele>1890.476</ele>
        <time>2022-02-20T11:21:50Z</time>
      </trkpt>
      <trkpt lat="42.75105" lon="1.61025">
        <ele>1890.667</ele>
        <time>2022-02-20T11:21:52Z</time>
      </trkpt>
      <trkpt lat="42.75104" lon="1.61026">
        <ele>1891.201</ele>
        <time>2022-02-20T11:21:54Z</time>
      </trkpt>
      <trkpt lat="42.75104" lon="1.61027">
        <ele>1891.839</ele>
        <time>2022-02-20T11:21:56Z</time>
      </trkpt>
      <trkpt lat="42.75103" lon="1.61028">
        <ele>1892.166</ele>
        <time>2022-02-20T11:21:58Z</time>
      </trkpt>
      <trkpt lat="42.75103" lon="1.61028">
        <ele>1892.077</ele>
        <time>2022-02-20T11:22:00Z</time>
      </trkpt>
      <trkpt lat="42.75103" lon="1.61028">
        <ele>1892.47</ele>
        <time>2022-02-20T11:22:02Z</time>
      </trkpt>
      <trkpt lat="42.75102" lon="1.61029">
        <ele>1892.032</ele>
        <time>2022-02-20T11:22:04Z</time>
      </trkpt>
      <trkpt lat="42.75102" lon="1.61031">
        <ele>1891.988</ele>
        <time>2022-02-20T11:22:06Z</time>
      </trkpt>
      <trkpt lat="42.75102" lon="1.61033">
        <ele>1892.104</ele>
        <time>2022-02-20T11:22:08Z</time>
      </trkpt>
      <trkpt lat="42.75101" lon="1.61034">
        <ele>1892.244</ele>
        <time>2022-02-20T11:22:10Z</time>
      </trkpt>
      <trkpt lat="42.75101" lon="1.61035">
        <ele>1892.591</ele>
        <time>2022-02-20T11:22:12Z</time>
      </trkpt>
      <trkpt lat="42.751" lon="1.61036">
        <ele>1893.044</ele>
        <time>2022-02-20T11:22:14Z</time>
      </trkpt>
      <trkpt lat="42.751" lon="1.61037">
        <ele>1893.495</ele>
        <time>2022-02-20T11:22:16Z</time>
      </trkpt>
      <trkpt lat="42.751" lon="1.61038">
        <ele>1893.923</ele>
        <time>2022-02-20T11:22:18Z</time>
      </trkpt>
      <trkpt lat="42.75099" lon="1.61039">
        <ele>1894.548</ele>
        <time>2022-02-20T11:22:20Z</time>
      </trkpt>
      <trkpt lat="42.75099" lon="1.61041">
        <ele>1894.985</ele>
        <time>2022-02-20T11:22:22Z</time>
      </trkpt>
      <trkpt lat="42.75098" lon="1.61042">
        <ele>1894.839</ele>
        <time>2022-02-20T11:22:24Z</time>
      </trkpt>
      <trkpt lat="42.75097" lon="1.61043">
        <ele>1895.341</ele>
        <time>2022-02-20T11:22:26Z</time>
      </trkpt>
      <trkpt lat="42.75096" lon="1.61045">
        <ele>1895.403</ele>
        <time>2022-02-20T11:22:28Z</time>
      </trkpt>
      <trkpt lat="42.75096" lon="1.61047">
        <ele>1895.448</ele>
        <time>2022-02-20T11:22:30Z</time>
      </trkpt>
      <trkpt lat="42.75095" lon="1.61048">
        <ele>1895.516</ele>
        <time>2022-02-20T11:22:32Z</time>
      </trkpt>
      <trkpt lat="42.75095" lon="1.6105">
        <ele>1896.166</ele>
        <time>2022-02-20T11:22:34Z</time>
      </trkpt>
      <trkpt lat="42.75095" lon="1.61051">
        <ele>1896.436</ele>
        <time>2022-02-20T11:22:36Z</time>
      </trkpt>
      <trkpt lat="42.75095" lon="1.61051">
        <ele>1896.264</ele>
        <time>2022-02-20T11:22:38Z</time>
      </trkpt>
      <trkpt lat="42.75095" lon="1.6105">
        <ele>1896.277</ele>
        <time>2022-02-20T11:22:40Z</time>
      </trkpt>
      <trkpt lat="42.75095" lon="1.61051">
        <ele>1896.412</ele>
        <time>2022-02-20T11:22:42Z</time>
      </trkpt>
      <trkpt lat="42.75095" lon="1.61051">
        <ele>1896.744</ele>
        <time>2022-02-20T11:22:44Z</time>
      </trkpt>
      <trkpt lat="42.75095" lon="1.61051">
        <ele>1896.743</ele>
        <time>2022-02-20T11:22:46Z</time>
      </trkpt>
      <trkpt lat="42.75095" lon="1.61051">
        <ele>1897.014</ele>
        <time>2022-02-20T11:22:48Z</time>
      </trkpt>
      <trkpt lat="42.75095" lon="1.61051">
        <ele>1896.977</ele>
        <time>2022-02-20T11:22:50Z</time>
      </trkpt>
      <trkpt lat="42.75095" lon="1.61051">
        <ele>1897.123</ele>
        <time>2022-02-20T11:22:52Z</time>
      </trkpt>
      <trkpt lat="42.75094" lon="1.61052">
        <ele>1897.256</ele>
        <time>2022-02-20T11:22:54Z</time>
      </trkpt>
      <trkpt lat="42.75093" lon="1.61054">
        <ele>1897.868</ele>
        <time>2022-02-20T11:22:56Z</time>
      </trkpt>
      <trkpt lat="42.75093" lon="1.61055">
        <ele>1897.655</ele>
        <time>2022-02-20T11:22:58Z</time>
      </trkpt>
      <trkpt lat="42.75092" lon="1.61057">
        <ele>1897.864</ele>
        <time>2022-02-20T11:23:00Z</time>
      </trkpt>
      <trkpt lat="42.75092" lon="1.61059">
        <ele>1898.293</ele>
        <time>2022-02-20T11:23:02Z</time>
      </trkpt>
      <trkpt lat="42.75091" lon="1.61061">
        <ele>1897.93</ele>
        <time>2022-02-20T11:23:04Z</time>
      </trkpt>
      <trkpt lat="42.7509" lon="1.61063">
        <ele>1897.3</ele>
        <time>2022-02-20T11:23:06Z</time>
      </trkpt>
      <trkpt lat="42.7509" lon="1.61064">
        <ele>1896.689</ele>
        <time>2022-02-20T11:23:08Z</time>
      </trkpt>
      <trkpt lat="42.75089" lon="1.61067">
        <ele>1895.988</ele>
        <time>2022-02-20T11:23:10Z</time>
      </trkpt>
      <trkpt lat="42.75088" lon="1.61069">
        <ele>1896.014</ele>
        <time>2022-02-20T11:23:12Z</time>
      </trkpt>
      <trkpt lat="42.75087" lon="1.61071">
        <ele>1895.708</ele>
        <time>2022-02-20T11:23:14Z</time>
      </trkpt>
      <trkpt lat="42.75087" lon="1.61072">
        <ele>1895.75</ele>
        <time>2022-02-20T11:23:16Z</time>
      </trkpt>
      <trkpt lat="42.75086" lon="1.61072">
        <ele>1896.135</ele>
        <time>2022-02-20T11:23:18Z</time>
      </trkpt>
      <trkpt lat="42.75086" lon="1.61072">
        <ele>1896.14</ele>
        <time>2022-02-20T11:23:20Z</time>
      </trkpt>
      <trkpt lat="42.75086" lon="1.61072">
        <ele>1896.299</ele>
        <time>2022-02-20T11:23:22Z</time>
      </trkpt>
      <trkpt lat="42.75086" lon="1.61072">
        <ele>1896.316</ele>
        <time>2022-02-20T11:23:24Z</time>
      </trkpt>
      <trkpt lat="42.75086" lon="1.61072">
        <ele>1896.321</ele>
        <time>2022-02-20T11:23:26Z</time>
      </trkpt>
      <trkpt lat="42.75086" lon="1.61072">
        <ele>1896.333</ele>
        <time>2022-02-20T11:23:28Z</time>
      </trkpt>
      <trkpt lat="42.75086" lon="1.61072">
        <ele>1896.336</ele>
        <time>2022-02-20T11:23:30Z</time>
      </trkpt>
      <trkpt lat="42.75086" lon="1.61072">
        <ele>1896.352</ele>
        <time>2022-02-20T11:23:32Z</time>
      </trkpt>
      <trkpt lat="42.75086" lon="1.61072">
        <ele>1896.113</ele>
        <time>2022-02-20T11:23:34Z</time>
      </trkpt>
      <trkpt lat="42.75086" lon="1.61072">
        <ele>1896.119</ele>
        <time>2022-02-20T11:23:36Z</time>
      </trkpt>
      <trkpt lat="42.75086" lon="1.61072">
        <ele>1896.057</ele>
        <time>2022-02-20T11:23:38Z</time>
      </trkpt>
      <trkpt lat="42.75086" lon="1.61071">
        <ele>1896.201</ele>
        <time>2022-02-20T11:23:39Z</time>
      </trkpt>
      <trkpt lat="42.75087" lon="1.61071">
        <ele>1895.772</ele>
        <time>2022-02-20T11:23:42Z</time>
      </trkpt>
      <trkpt lat="42.75086" lon="1.61072">
        <ele>1896.214</ele>
        <time>2022-02-20T11:23:51Z</time>
      </trkpt>
      <trkpt lat="42.75086" lon="1.61072">
        <ele>1896.222</ele>
        <time>2022-02-20T11:23:53Z</time>
      </trkpt>
      <trkpt lat="42.75086" lon="1.61072">
        <ele>1896.229</ele>
        <time>2022-02-20T11:23:55Z</time>
      </trkpt>
      <trkpt lat="42.75086" lon="1.61072">
        <ele>1896.232</ele>
        <time>2022-02-20T11:23:57Z</time>
      </trkpt>
      <trkpt lat="42.75086" lon="1.61072">
        <ele>1896.576</ele>
        <time>2022-02-20T11:23:59Z</time>
      </trkpt>
      <trkpt lat="42.75086" lon="1.61072">
        <ele>1896.582</ele>
        <time>2022-02-20T11:24:01Z</time>
      </trkpt>
      <trkpt lat="42.75087" lon="1.61072">
        <ele>1896.785</ele>
        <time>2022-02-20T11:24:03Z</time>
      </trkpt>
      <trkpt lat="42.75087" lon="1.61072">
        <ele>1896.454</ele>
        <time>2022-02-20T11:24:05Z</time>
      </trkpt>
      <trkpt lat="42.75087" lon="1.61072">
        <ele>1896.459</ele>
        <time>2022-02-20T11:24:07Z</time>
      </trkpt>
      <trkpt lat="42.75087" lon="1.61072">
        <ele>1896.46</ele>
        <time>2022-02-20T11:24:09Z</time>
      </trkpt>
      <trkpt lat="42.75087" lon="1.61072">
        <ele>1896.036</ele>
        <time>2022-02-20T11:24:11Z</time>
      </trkpt>
      <trkpt lat="42.75086" lon="1.61073">
        <ele>1895.897</ele>
        <time>2022-02-20T11:24:13Z</time>
      </trkpt>
      <trkpt lat="42.75086" lon="1.61076">
        <ele>1895.727</ele>
        <time>2022-02-20T11:24:15Z</time>
      </trkpt>
      <trkpt lat="42.75085" lon="1.61078">
        <ele>1895.752</ele>
        <time>2022-02-20T11:24:17Z</time>
      </trkpt>
      <trkpt lat="42.75085" lon="1.6108">
        <ele>1895.846</ele>
        <time>2022-02-20T11:24:19Z</time>
      </trkpt>
      <trkpt lat="42.75084" lon="1.61082">
        <ele>1896.406</ele>
        <time>2022-02-20T11:24:21Z</time>
      </trkpt>
      <trkpt lat="42.75083" lon="1.61084">
        <ele>1896.223</ele>
        <time>2022-02-20T11:24:23Z</time>
      </trkpt>
      <trkpt lat="42.75082" lon="1.61086">
        <ele>1896.714</ele>
        <time>2022-02-20T11:24:25Z</time>
      </trkpt>
      <trkpt lat="42.75082" lon="1.61088">
        <ele>1896.609</ele>
        <time>2022-02-20T11:24:27Z</time>
      </trkpt>
      <trkpt lat="42.75081" lon="1.6109">
        <ele>1897.22</ele>
        <time>2022-02-20T11:24:29Z</time>
      </trkpt>
      <trkpt lat="42.75079" lon="1.61092">
        <ele>1897.649</ele>
        <time>2022-02-20T11:24:31Z</time>
      </trkpt>
      <trkpt lat="42.75078" lon="1.61094">
        <ele>1897.915</ele>
        <time>2022-02-20T11:24:33Z</time>
      </trkpt>
      <trkpt lat="42.75077" lon="1.61096">
        <ele>1898.297</ele>
        <time>2022-02-20T11:24:35Z</time>
      </trkpt>
      <trkpt lat="42.75077" lon="1.61098">
        <ele>1898.859</ele>
        <time>2022-02-20T11:24:37Z</time>
      </trkpt>
      <trkpt lat="42.75075" lon="1.611">
        <ele>1899.022</ele>
        <time>2022-02-20T11:24:39Z</time>
      </trkpt>
      <trkpt lat="42.75075" lon="1.61102">
        <ele>1899.191</ele>
        <time>2022-02-20T11:24:41Z</time>
      </trkpt>
      <trkpt lat="42.75074" lon="1.61104">
        <ele>1899.095</ele>
        <time>2022-02-20T11:24:43Z</time>
      </trkpt>
      <trkpt lat="42.75072" lon="1.61107">
        <ele>1899.272</ele>
        <time>2022-02-20T11:24:45Z</time>
      </trkpt>
      <trkpt lat="42.75072" lon="1.61109">
        <ele>1899.208</ele>
        <time>2022-02-20T11:24:47Z</time>
      </trkpt>
      <trkpt lat="42.7507" lon="1.61111">
        <ele>1899.24</ele>
        <time>2022-02-20T11:24:49Z</time>
      </trkpt>
      <trkpt lat="42.75069" lon="1.61113">
        <ele>1899.025</ele>
        <time>2022-02-20T11:24:51Z</time>
      </trkpt>
      <trkpt lat="42.75069" lon="1.61115">
        <ele>1899.593</ele>
        <time>2022-02-20T11:24:53Z</time>
      </trkpt>
      <trkpt lat="42.75068" lon="1.61117">
        <ele>1899.584</ele>
        <time>2022-02-20T11:24:55Z</time>
      </trkpt>
      <trkpt lat="42.75067" lon="1.61119">
        <ele>1900.097</ele>
        <time>2022-02-20T11:24:57Z</time>
      </trkpt>
      <trkpt lat="42.75066" lon="1.61121">
        <ele>1900.225</ele>
        <time>2022-02-20T11:24:59Z</time>
      </trkpt>
      <trkpt lat="42.75065" lon="1.61123">
        <ele>1900.303</ele>
        <time>2022-02-20T11:25:01Z</time>
      </trkpt>
      <trkpt lat="42.75064" lon="1.61125">
        <ele>1900.386</ele>
        <time>2022-02-20T11:25:03Z</time>
      </trkpt>
      <trkpt lat="42.75063" lon="1.61127">
        <ele>1900.423</ele>
        <time>2022-02-20T11:25:05Z</time>
      </trkpt>
      <trkpt lat="42.75062" lon="1.61129">
        <ele>1900.945</ele>
        <time>2022-02-20T11:25:07Z</time>
      </trkpt>
      <trkpt lat="42.75061" lon="1.61131">
        <ele>1900.754</ele>
        <time>2022-02-20T11:25:09Z</time>
      </trkpt>
      <trkpt lat="42.75059" lon="1.61132">
        <ele>1900.91</ele>
        <time>2022-02-20T11:25:11Z</time>
      </trkpt>
      <trkpt lat="42.75058" lon="1.61134">
        <ele>1901.264</ele>
        <time>2022-02-20T11:25:13Z</time>
      </trkpt>
      <trkpt lat="42.75056" lon="1.61135">
        <ele>1901.747</ele>
        <time>2022-02-20T11:25:15Z</time>
      </trkpt>
      <trkpt lat="42.75055" lon="1.61137">
        <ele>1901.533</ele>
        <time>2022-02-20T11:25:17Z</time>
      </trkpt>
      <trkpt lat="42.75054" lon="1.61139">
        <ele>1901.826</ele>
        <time>2022-02-20T11:25:19Z</time>
      </trkpt>
      <trkpt lat="42.75052" lon="1.6114">
        <ele>1902.133</ele>
        <time>2022-02-20T11:25:21Z</time>
      </trkpt>
      <trkpt lat="42.75051" lon="1.61142">
        <ele>1901.864</ele>
        <time>2022-02-20T11:25:23Z</time>
      </trkpt>
      <trkpt lat="42.75049" lon="1.61143">
        <ele>1902.129</ele>
        <time>2022-02-20T11:25:25Z</time>
      </trkpt>
      <trkpt lat="42.75048" lon="1.61145">
        <ele>1902.87</ele>
        <time>2022-02-20T11:25:27Z</time>
      </trkpt>
      <trkpt lat="42.75047" lon="1.61146">
        <ele>1902.942</ele>
        <time>2022-02-20T11:25:29Z</time>
      </trkpt>
      <trkpt lat="42.75046" lon="1.61148">
        <ele>1903.238</ele>
        <time>2022-02-20T11:25:31Z</time>
      </trkpt>
      <trkpt lat="42.75044" lon="1.61149">
        <ele>1902.983</ele>
        <time>2022-02-20T11:25:33Z</time>
      </trkpt>
      <trkpt lat="42.75043" lon="1.61151">
        <ele>1902.803</ele>
        <time>2022-02-20T11:25:35Z</time>
      </trkpt>
      <trkpt lat="42.75041" lon="1.61153">
        <ele>1902.465</ele>
        <time>2022-02-20T11:25:38Z</time>
      </trkpt>
      <trkpt lat="42.75039" lon="1.61154">
        <ele>1902.131</ele>
        <time>2022-02-20T11:25:40Z</time>
      </trkpt>
      <trkpt lat="42.75038" lon="1.61156">
        <ele>1902.029</ele>
        <time>2022-02-20T11:25:42Z</time>
      </trkpt>
      <trkpt lat="42.75037" lon="1.61157">
        <ele>1901.874</ele>
        <time>2022-02-20T11:25:44Z</time>
      </trkpt>
      <trkpt lat="42.75035" lon="1.61159">
        <ele>1901.828</ele>
        <time>2022-02-20T11:25:46Z</time>
      </trkpt>
      <trkpt lat="42.75034" lon="1.6116">
        <ele>1901.725</ele>
        <time>2022-02-20T11:25:48Z</time>
      </trkpt>
      <trkpt lat="42.75033" lon="1.61162">
        <ele>1901.678</ele>
        <time>2022-02-20T11:25:50Z</time>
      </trkpt>
      <trkpt lat="42.75031" lon="1.61163">
        <ele>1901.545</ele>
        <time>2022-02-20T11:25:52Z</time>
      </trkpt>
      <trkpt lat="42.7503" lon="1.61164">
        <ele>1901.323</ele>
        <time>2022-02-20T11:25:54Z</time>
      </trkpt>
      <trkpt lat="42.75029" lon="1.61166">
        <ele>1901.414</ele>
        <time>2022-02-20T11:25:56Z</time>
      </trkpt>
      <trkpt lat="42.75028" lon="1.61167">
        <ele>1901.789</ele>
        <time>2022-02-20T11:25:58Z</time>
      </trkpt>
      <trkpt lat="42.75027" lon="1.61169">
        <ele>1901.799</ele>
        <time>2022-02-20T11:26:00Z</time>
      </trkpt>
      <trkpt lat="42.75026" lon="1.6117">
        <ele>1901.829</ele>
        <time>2022-02-20T11:26:02Z</time>
      </trkpt>
      <trkpt lat="42.75025" lon="1.61172">
        <ele>1901.763</ele>
        <time>2022-02-20T11:26:04Z</time>
      </trkpt>
      <trkpt lat="42.75024" lon="1.61174">
        <ele>1901.563</ele>
        <time>2022-02-20T11:26:06Z</time>
      </trkpt>
      <trkpt lat="42.75023" lon="1.61175">
        <ele>1901.867</ele>
        <time>2022-02-20T11:26:08Z</time>
      </trkpt>
      <trkpt lat="42.75022" lon="1.61177">
        <ele>1901.848</ele>
        <time>2022-02-20T11:26:10Z</time>
      </trkpt>
      <trkpt lat="42.75021" lon="1.61179">
        <ele>1902.637</ele>
        <time>2022-02-20T11:26:12Z</time>
      </trkpt>
      <trkpt lat="42.7502" lon="1.61181">
        <ele>1902.18</ele>
        <time>2022-02-20T11:26:14Z</time>
      </trkpt>
      <trkpt lat="42.75019" lon="1.61182">
        <ele>1902.433</ele>
        <time>2022-02-20T11:26:16Z</time>
      </trkpt>
      <trkpt lat="42.75018" lon="1.61184">
        <ele>1902.771</ele>
        <time>2022-02-20T11:26:18Z</time>
      </trkpt>
      <trkpt lat="42.75017" lon="1.61185">
        <ele>1903.491</ele>
        <time>2022-02-20T11:26:20Z</time>
      </trkpt>
      <trkpt lat="42.75016" lon="1.61187">
        <ele>1903.504</ele>
        <time>2022-02-20T11:26:22Z</time>
      </trkpt>
      <trkpt lat="42.75015" lon="1.61189">
        <ele>1903.611</ele>
        <time>2022-02-20T11:26:24Z</time>
      </trkpt>
      <trkpt lat="42.75014" lon="1.6119">
        <ele>1904.334</ele>
        <time>2022-02-20T11:26:26Z</time>
      </trkpt>
      <trkpt lat="42.75013" lon="1.61192">
        <ele>1904.914</ele>
        <time>2022-02-20T11:26:28Z</time>
      </trkpt>
      <trkpt lat="42.75012" lon="1.61193">
        <ele>1905.044</ele>
        <time>2022-02-20T11:26:30Z</time>
      </trkpt>
      <trkpt lat="42.75011" lon="1.61195">
        <ele>1904.955</ele>
        <time>2022-02-20T11:26:32Z</time>
      </trkpt>
      <trkpt lat="42.75009" lon="1.61197">
        <ele>1904.737</ele>
        <time>2022-02-20T11:26:34Z</time>
      </trkpt>
      <trkpt lat="42.75008" lon="1.61198">
        <ele>1904.573</ele>
        <time>2022-02-20T11:26:36Z</time>
      </trkpt>
      <trkpt lat="42.75007" lon="1.612">
        <ele>1904.626</ele>
        <time>2022-02-20T11:26:38Z</time>
      </trkpt>
      <trkpt lat="42.75006" lon="1.61201">
        <ele>1904.427</ele>
        <time>2022-02-20T11:26:40Z</time>
      </trkpt>
      <trkpt lat="42.75005" lon="1.61203">
        <ele>1904.766</ele>
        <time>2022-02-20T11:26:42Z</time>
      </trkpt>
      <trkpt lat="42.75003" lon="1.61205">
        <ele>1905.45</ele>
        <time>2022-02-20T11:26:44Z</time>
      </trkpt>
      <trkpt lat="42.75002" lon="1.61206">
        <ele>1905.42</ele>
        <time>2022-02-20T11:26:46Z</time>
      </trkpt>
      <trkpt lat="42.75001" lon="1.61208">
        <ele>1905.012</ele>
        <time>2022-02-20T11:26:48Z</time>
      </trkpt>
      <trkpt lat="42.74999" lon="1.6121">
        <ele>1905.278</ele>
        <time>2022-02-20T11:26:50Z</time>
      </trkpt>
      <trkpt lat="42.74998" lon="1.61212">
        <ele>1905.676</ele>
        <time>2022-02-20T11:26:52Z</time>
      </trkpt>
      <trkpt lat="42.74997" lon="1.61214">
        <ele>1905.491</ele>
        <time>2022-02-20T11:26:54Z</time>
      </trkpt>
      <trkpt lat="42.74996" lon="1.61216">
        <ele>1905.657</ele>
        <time>2022-02-20T11:26:56Z</time>
      </trkpt>
      <trkpt lat="42.74996" lon="1.61218">
        <ele>1905.756</ele>
        <time>2022-02-20T11:26:58Z</time>
      </trkpt>
      <trkpt lat="42.74995" lon="1.61219">
        <ele>1905.921</ele>
        <time>2022-02-20T11:27:00Z</time>
      </trkpt>
      <trkpt lat="42.74994" lon="1.61221">
        <ele>1905.931</ele>
        <time>2022-02-20T11:27:02Z</time>
      </trkpt>
      <trkpt lat="42.74993" lon="1.61222">
        <ele>1905.901</ele>
        <time>2022-02-20T11:27:04Z</time>
      </trkpt>
      <trkpt lat="42.74993" lon="1.61223">
        <ele>1905.86</ele>
        <time>2022-02-20T11:27:06Z</time>
      </trkpt>
      <trkpt lat="42.74992" lon="1.61224">
        <ele>1906.234</ele>
        <time>2022-02-20T11:27:08Z</time>
      </trkpt>
      <trkpt lat="42.74991" lon="1.61226">
        <ele>1906.419</ele>
        <time>2022-02-20T11:27:10Z</time>
      </trkpt>
      <trkpt lat="42.7499" lon="1.61227">
        <ele>1906.258</ele>
        <time>2022-02-20T11:27:12Z</time>
      </trkpt>
      <trkpt lat="42.74989" lon="1.61229">
        <ele>1906.688</ele>
        <time>2022-02-20T11:27:14Z</time>
      </trkpt>
      <trkpt lat="42.74989" lon="1.61231">
        <ele>1906.671</ele>
        <time>2022-02-20T11:27:16Z</time>
      </trkpt>
      <trkpt lat="42.74987" lon="1.61233">
        <ele>1906.328</ele>
        <time>2022-02-20T11:27:18Z</time>
      </trkpt>
      <trkpt lat="42.74986" lon="1.61236">
        <ele>1906.53</ele>
        <time>2022-02-20T11:27:20Z</time>
      </trkpt>
      <trkpt lat="42.74985" lon="1.61239">
        <ele>1907.271</ele>
        <time>2022-02-20T11:27:22Z</time>
      </trkpt>
      <trkpt lat="42.74984" lon="1.61242">
        <ele>1907.12</ele>
        <time>2022-02-20T11:27:24Z</time>
      </trkpt>
      <trkpt lat="42.74982" lon="1.61244">
        <ele>1906.804</ele>
        <time>2022-02-20T11:27:26Z</time>
      </trkpt>
      <trkpt lat="42.74981" lon="1.61247">
        <ele>1907.27</ele>
        <time>2022-02-20T11:27:28Z</time>
      </trkpt>
      <trkpt lat="42.74979" lon="1.61248">
        <ele>1907.378</ele>
        <time>2022-02-20T11:27:30Z</time>
      </trkpt>
      <trkpt lat="42.74979" lon="1.6125">
        <ele>1907.004</ele>
        <time>2022-02-20T11:27:32Z</time>
      </trkpt>
      <trkpt lat="42.74978" lon="1.61252">
        <ele>1906.87</ele>
        <time>2022-02-20T11:27:34Z</time>
      </trkpt>
      <trkpt lat="42.74977" lon="1.61254">
        <ele>1906.509</ele>
        <time>2022-02-20T11:27:36Z</time>
      </trkpt>
      <trkpt lat="42.74976" lon="1.61256">
        <ele>1906.232</ele>
        <time>2022-02-20T11:27:38Z</time>
      </trkpt>
      <trkpt lat="42.74976" lon="1.61258">
        <ele>1905.994</ele>
        <time>2022-02-20T11:27:40Z</time>
      </trkpt>
      <trkpt lat="42.74974" lon="1.6126">
        <ele>1905.91</ele>
        <time>2022-02-20T11:27:42Z</time>
      </trkpt>
      <trkpt lat="42.74973" lon="1.61262">
        <ele>1905.009</ele>
        <time>2022-02-20T11:27:44Z</time>
      </trkpt>
      <trkpt lat="42.74972" lon="1.61265">
        <ele>1904.791</ele>
        <time>2022-02-20T11:27:46Z</time>
      </trkpt>
      <trkpt lat="42.74971" lon="1.61267">
        <ele>1905.426</ele>
        <time>2022-02-20T11:27:48Z</time>
      </trkpt>
      <trkpt lat="42.7497" lon="1.61269">
        <ele>1905.254</ele>
        <time>2022-02-20T11:27:50Z</time>
      </trkpt>
      <trkpt lat="42.74968" lon="1.61271">
        <ele>1904.798</ele>
        <time>2022-02-20T11:27:52Z</time>
      </trkpt>
      <trkpt lat="42.74968" lon="1.61273">
        <ele>1904.506</ele>
        <time>2022-02-20T11:27:54Z</time>
      </trkpt>
      <trkpt lat="42.74966" lon="1.61275">
        <ele>1904.443</ele>
        <time>2022-02-20T11:27:56Z</time>
      </trkpt>
      <trkpt lat="42.74965" lon="1.61277">
        <ele>1904.537</ele>
        <time>2022-02-20T11:27:58Z</time>
      </trkpt>
      <trkpt lat="42.74964" lon="1.6128">
        <ele>1905.034</ele>
        <time>2022-02-20T11:28:00Z</time>
      </trkpt>
      <trkpt lat="42.74963" lon="1.61282">
        <ele>1905.185</ele>
        <time>2022-02-20T11:28:02Z</time>
      </trkpt>
      <trkpt lat="42.74962" lon="1.61284">
        <ele>1905.247</ele>
        <time>2022-02-20T11:28:04Z</time>
      </trkpt>
      <trkpt lat="42.74961" lon="1.61286">
        <ele>1905.435</ele>
        <time>2022-02-20T11:28:06Z</time>
      </trkpt>
      <trkpt lat="42.7496" lon="1.61288">
        <ele>1905.297</ele>
        <time>2022-02-20T11:28:08Z</time>
      </trkpt>
      <trkpt lat="42.74959" lon="1.61289">
        <ele>1905.096</ele>
        <time>2022-02-20T11:28:10Z</time>
      </trkpt>
      <trkpt lat="42.74958" lon="1.6129">
        <ele>1905.034</ele>
        <time>2022-02-20T11:28:12Z</time>
      </trkpt>
      <trkpt lat="42.74957" lon="1.61292">
        <ele>1904.734</ele>
        <time>2022-02-20T11:28:14Z</time>
      </trkpt>
      <trkpt lat="42.74956" lon="1.61294">
        <ele>1905.071</ele>
        <time>2022-02-20T11:28:16Z</time>
      </trkpt>
      <trkpt lat="42.74955" lon="1.61295">
        <ele>1904.847</ele>
        <time>2022-02-20T11:28:18Z</time>
      </trkpt>
      <trkpt lat="42.74954" lon="1.61296">
        <ele>1904.987</ele>
        <time>2022-02-20T11:28:20Z</time>
      </trkpt>
      <trkpt lat="42.74953" lon="1.61298">
        <ele>1905.404</ele>
        <time>2022-02-20T11:28:22Z</time>
      </trkpt>
      <trkpt lat="42.74952" lon="1.613">
        <ele>1905.377</ele>
        <time>2022-02-20T11:28:24Z</time>
      </trkpt>
      <trkpt lat="42.74951" lon="1.61301">
        <ele>1905.384</ele>
        <time>2022-02-20T11:28:26Z</time>
      </trkpt>
      <trkpt lat="42.7495" lon="1.61303">
        <ele>1905.238</ele>
        <time>2022-02-20T11:28:28Z</time>
      </trkpt>
      <trkpt lat="42.74949" lon="1.61305">
        <ele>1905.788</ele>
        <time>2022-02-20T11:28:30Z</time>
      </trkpt>
      <trkpt lat="42.74948" lon="1.61306">
        <ele>1905.749</ele>
        <time>2022-02-20T11:28:32Z</time>
      </trkpt>
      <trkpt lat="42.74947" lon="1.61308">
        <ele>1905.861</ele>
        <time>2022-02-20T11:28:34Z</time>
      </trkpt>
      <trkpt lat="42.74946" lon="1.6131">
        <ele>1905.909</ele>
        <time>2022-02-20T11:28:36Z</time>
      </trkpt>
      <trkpt lat="42.74946" lon="1.61312">
        <ele>1905.55</ele>
        <time>2022-02-20T11:28:38Z</time>
      </trkpt>
      <trkpt lat="42.74945" lon="1.61314">
        <ele>1905.815</ele>
        <time>2022-02-20T11:28:40Z</time>
      </trkpt>
      <trkpt lat="42.74944" lon="1.61315">
        <ele>1906.646</ele>
        <time>2022-02-20T11:28:42Z</time>
      </trkpt>
      <trkpt lat="42.74943" lon="1.61316">
        <ele>1906.733</ele>
        <time>2022-02-20T11:28:44Z</time>
      </trkpt>
      <trkpt lat="42.74942" lon="1.61316">
        <ele>1907.198</ele>
        <time>2022-02-20T11:28:46Z</time>
      </trkpt>
      <trkpt lat="42.74941" lon="1.61317">
        <ele>1907.446</ele>
        <time>2022-02-20T11:28:48Z</time>
      </trkpt>
      <trkpt lat="42.7494" lon="1.61317">
        <ele>1907.708</ele>
        <time>2022-02-20T11:28:50Z</time>
      </trkpt>
      <trkpt lat="42.74939" lon="1.61318">
        <ele>1908.034</ele>
        <time>2022-02-20T11:28:52Z</time>
      </trkpt>
      <trkpt lat="42.74939" lon="1.61319">
        <ele>1908.508</ele>
        <time>2022-02-20T11:28:54Z</time>
      </trkpt>
      <trkpt lat="42.74938" lon="1.61319">
        <ele>1908.655</ele>
        <time>2022-02-20T11:28:56Z</time>
      </trkpt>
      <trkpt lat="42.74937" lon="1.6132">
        <ele>1908.664</ele>
        <time>2022-02-20T11:28:58Z</time>
      </trkpt>
      <trkpt lat="42.74937" lon="1.61321">
        <ele>1908.567</ele>
        <time>2022-02-20T11:29:00Z</time>
      </trkpt>
      <trkpt lat="42.74937" lon="1.61323">
        <ele>1908.971</ele>
        <time>2022-02-20T11:29:02Z</time>
      </trkpt>
      <trkpt lat="42.74936" lon="1.61324">
        <ele>1909.085</ele>
        <time>2022-02-20T11:29:04Z</time>
      </trkpt>
      <trkpt lat="42.74936" lon="1.61325">
        <ele>1908.419</ele>
        <time>2022-02-20T11:29:06Z</time>
      </trkpt>
      <trkpt lat="42.74936" lon="1.61326">
        <ele>1908.426</ele>
        <time>2022-02-20T11:29:08Z</time>
      </trkpt>
      <trkpt lat="42.74936" lon="1.61326">
        <ele>1908.422</ele>
        <time>2022-02-20T11:29:10Z</time>
      </trkpt>
      <trkpt lat="42.74936" lon="1.61327">
        <ele>1908.53</ele>
        <time>2022-02-20T11:29:12Z</time>
      </trkpt>
      <trkpt lat="42.74936" lon="1.61328">
        <ele>1908.727</ele>
        <time>2022-02-20T11:29:14Z</time>
      </trkpt>
      <trkpt lat="42.74936" lon="1.61328">
        <ele>1908.73</ele>
        <time>2022-02-20T11:29:16Z</time>
      </trkpt>
      <trkpt lat="42.74936" lon="1.61328">
        <ele>1908.732</ele>
        <time>2022-02-20T11:29:18Z</time>
      </trkpt>
      <trkpt lat="42.74936" lon="1.61328">
        <ele>1908.737</ele>
        <time>2022-02-20T11:29:20Z</time>
      </trkpt>
      <trkpt lat="42.74936" lon="1.61328">
        <ele>1908.668</ele>
        <time>2022-02-20T11:29:22Z</time>
      </trkpt>
      <trkpt lat="42.74936" lon="1.61329">
        <ele>1908.449</ele>
        <time>2022-02-20T11:29:24Z</time>
      </trkpt>
      <trkpt lat="42.74936" lon="1.6133">
        <ele>1908.477</ele>
        <time>2022-02-20T11:29:26Z</time>
      </trkpt>
      <trkpt lat="42.74936" lon="1.61331">
        <ele>1908.545</ele>
        <time>2022-02-20T11:29:28Z</time>
      </trkpt>
      <trkpt lat="42.74935" lon="1.61332">
        <ele>1908.323</ele>
        <time>2022-02-20T11:29:30Z</time>
      </trkpt>
      <trkpt lat="42.74935" lon="1.61333">
        <ele>1908.32</ele>
        <time>2022-02-20T11:29:32Z</time>
      </trkpt>
      <trkpt lat="42.74935" lon="1.61333">
        <ele>1908.321</ele>
        <time>2022-02-20T11:29:34Z</time>
      </trkpt>
      <trkpt lat="42.74935" lon="1.61333">
        <ele>1908.321</ele>
        <time>2022-02-20T11:29:36Z</time>
      </trkpt>
      <trkpt lat="42.74935" lon="1.61333">
        <ele>1908.322</ele>
        <time>2022-02-20T11:29:38Z</time>
      </trkpt>
      <trkpt lat="42.74935" lon="1.61333">
        <ele>1908.322</ele>
        <time>2022-02-20T11:29:40Z</time>
      </trkpt>
      <trkpt lat="42.74935" lon="1.61333">
        <ele>1908.322</ele>
        <time>2022-02-20T11:29:42Z</time>
      </trkpt>
      <trkpt lat="42.74935" lon="1.61333">
        <ele>1908.322</ele>
        <time>2022-02-20T11:29:44Z</time>
      </trkpt>
      <trkpt lat="42.74935" lon="1.61333">
        <ele>1908.323</ele>
        <time>2022-02-20T11:29:46Z</time>
      </trkpt>
      <trkpt lat="42.74935" lon="1.61333">
        <ele>1908.322</ele>
        <time>2022-02-20T11:29:48Z</time>
      </trkpt>
      <trkpt lat="42.74935" lon="1.61332">
        <ele>1907.975</ele>
        <time>2022-02-20T11:29:50Z</time>
      </trkpt>
      <trkpt lat="42.74936" lon="1.61331">
        <ele>1908.308</ele>
        <time>2022-02-20T11:29:52Z</time>
      </trkpt>
      <trkpt lat="42.74936" lon="1.61331">
        <ele>1908.306</ele>
        <time>2022-02-20T11:29:54Z</time>
      </trkpt>
      <trkpt lat="42.74936" lon="1.61331">
        <ele>1908.306</ele>
        <time>2022-02-20T11:29:56Z</time>
      </trkpt>
      <trkpt lat="42.74936" lon="1.61331">
        <ele>1908.304</ele>
        <time>2022-02-20T11:29:58Z</time>
      </trkpt>
      <trkpt lat="42.74936" lon="1.61331">
        <ele>1908.301</ele>
        <time>2022-02-20T11:30:00Z</time>
      </trkpt>
      <trkpt lat="42.74936" lon="1.61331">
        <ele>1908.301</ele>
        <time>2022-02-20T11:30:02Z</time>
      </trkpt>
      <trkpt lat="42.74936" lon="1.61331">
        <ele>1908.299</ele>
        <time>2022-02-20T11:30:04Z</time>
      </trkpt>
      <trkpt lat="42.74936" lon="1.61331">
        <ele>1908.296</ele>
        <time>2022-02-20T11:30:06Z</time>
      </trkpt>
      <trkpt lat="42.74936" lon="1.61331">
        <ele>1908.294</ele>
        <time>2022-02-20T11:30:08Z</time>
      </trkpt>
      <trkpt lat="42.74936" lon="1.61331">
        <ele>1908.291</ele>
        <time>2022-02-20T11:30:10Z</time>
      </trkpt>
      <trkpt lat="42.74936" lon="1.61331">
        <ele>1908.29</ele>
        <time>2022-02-20T11:30:12Z</time>
      </trkpt>
      <trkpt lat="42.74936" lon="1.61331">
        <ele>1908.287</ele>
        <time>2022-02-20T11:30:14Z</time>
      </trkpt>
      <trkpt lat="42.74936" lon="1.61331">
        <ele>1908.216</ele>
        <time>2022-02-20T11:30:16Z</time>
      </trkpt>
      <trkpt lat="42.74936" lon="1.61331">
        <ele>1908.21</ele>
        <time>2022-02-20T11:30:18Z</time>
      </trkpt>
      <trkpt lat="42.74936" lon="1.61331">
        <ele>1908.205</ele>
        <time>2022-02-20T11:30:20Z</time>
      </trkpt>
      <trkpt lat="42.74936" lon="1.61331">
        <ele>1908.193</ele>
        <time>2022-02-20T11:30:22Z</time>
      </trkpt>
      <trkpt lat="42.74936" lon="1.61331">
        <ele>1908.188</ele>
        <time>2022-02-20T11:30:24Z</time>
      </trkpt>
      <trkpt lat="42.74936" lon="1.61331">
        <ele>1908.185</ele>
        <time>2022-02-20T11:30:26Z</time>
      </trkpt>
      <trkpt lat="42.74936" lon="1.61331">
        <ele>1908.184</ele>
        <time>2022-02-20T11:30:28Z</time>
      </trkpt>
      <trkpt lat="42.74936" lon="1.61331">
        <ele>1908.186</ele>
        <time>2022-02-20T11:30:30Z</time>
      </trkpt>
      <trkpt lat="42.74936" lon="1.61331">
        <ele>1908.178</ele>
        <time>2022-02-20T11:30:32Z</time>
      </trkpt>
      <trkpt lat="42.74936" lon="1.61331">
        <ele>1908.18</ele>
        <time>2022-02-20T11:30:34Z</time>
      </trkpt>
      <trkpt lat="42.74936" lon="1.61331">
        <ele>1908.178</ele>
        <time>2022-02-20T11:30:36Z</time>
      </trkpt>
      <trkpt lat="42.74936" lon="1.61331">
        <ele>1908.176</ele>
        <time>2022-02-20T11:30:38Z</time>
      </trkpt>
      <trkpt lat="42.74936" lon="1.61331">
        <ele>1908.174</ele>
        <time>2022-02-20T11:30:40Z</time>
      </trkpt>
      <trkpt lat="42.74936" lon="1.61331">
        <ele>1908.17</ele>
        <time>2022-02-20T11:30:42Z</time>
      </trkpt>
      <trkpt lat="42.74936" lon="1.61331">
        <ele>1908.192</ele>
        <time>2022-02-20T11:30:44Z</time>
      </trkpt>
      <trkpt lat="42.74936" lon="1.61331">
        <ele>1908.195</ele>
        <time>2022-02-20T11:30:46Z</time>
      </trkpt>
      <trkpt lat="42.74936" lon="1.61331">
        <ele>1908.194</ele>
        <time>2022-02-20T11:30:48Z</time>
      </trkpt>
      <trkpt lat="42.74936" lon="1.61331">
        <ele>1908.193</ele>
        <time>2022-02-20T11:30:50Z</time>
      </trkpt>
      <trkpt lat="42.74936" lon="1.61331">
        <ele>1908.19</ele>
        <time>2022-02-20T11:30:52Z</time>
      </trkpt>
      <trkpt lat="42.74936" lon="1.61331">
        <ele>1908.186</ele>
        <time>2022-02-20T11:30:54Z</time>
      </trkpt>
      <trkpt lat="42.74936" lon="1.61331">
        <ele>1908.187</ele>
        <time>2022-02-20T11:30:56Z</time>
      </trkpt>
      <trkpt lat="42.74936" lon="1.61331">
        <ele>1908.187</ele>
        <time>2022-02-20T11:30:58Z</time>
      </trkpt>
      <trkpt lat="42.74936" lon="1.61331">
        <ele>1908.185</ele>
        <time>2022-02-20T11:31:00Z</time>
      </trkpt>
      <trkpt lat="42.74936" lon="1.61331">
        <ele>1908.183</ele>
        <time>2022-02-20T11:31:02Z</time>
      </trkpt>
      <trkpt lat="42.74936" lon="1.61331">
        <ele>1908.182</ele>
        <time>2022-02-20T11:31:04Z</time>
      </trkpt>
      <trkpt lat="42.74936" lon="1.61331">
        <ele>1908.181</ele>
        <time>2022-02-20T11:31:06Z</time>
      </trkpt>
      <trkpt lat="42.74936" lon="1.61331">
        <ele>1908.181</ele>
        <time>2022-02-20T11:31:08Z</time>
      </trkpt>
      <trkpt lat="42.74936" lon="1.61331">
        <ele>1908.182</ele>
        <time>2022-02-20T11:31:10Z</time>
      </trkpt>
      <trkpt lat="42.74936" lon="1.61331">
        <ele>1908.181</ele>
        <time>2022-02-20T11:31:12Z</time>
      </trkpt>
      <trkpt lat="42.74936" lon="1.61331">
        <ele>1907.991</ele>
        <time>2022-02-20T11:31:14Z</time>
      </trkpt>
      <trkpt lat="42.74935" lon="1.61331">
        <ele>1907.988</ele>
        <time>2022-02-20T11:31:16Z</time>
      </trkpt>
      <trkpt lat="42.74935" lon="1.61331">
        <ele>1907.992</ele>
        <time>2022-02-20T11:31:18Z</time>
      </trkpt>
      <trkpt lat="42.74935" lon="1.61331">
        <ele>1907.746</ele>
        <time>2022-02-20T11:31:20Z</time>
      </trkpt>
      <trkpt lat="42.74935" lon="1.61331">
        <ele>1907.742</ele>
        <time>2022-02-20T11:31:22Z</time>
      </trkpt>
      <trkpt lat="42.74935" lon="1.61331">
        <ele>1907.741</ele>
        <time>2022-02-20T11:31:24Z</time>
      </trkpt>
      <trkpt lat="42.74935" lon="1.61331">
        <ele>1907.742</ele>
        <time>2022-02-20T11:31:26Z</time>
      </trkpt>
      <trkpt lat="42.74935" lon="1.61331">
        <ele>1907.74</ele>
        <time>2022-02-20T11:31:28Z</time>
      </trkpt>
      <trkpt lat="42.74935" lon="1.61331">
        <ele>1907.74</ele>
        <time>2022-02-20T11:31:30Z</time>
      </trkpt>
      <trkpt lat="42.74935" lon="1.61331">
        <ele>1907.739</ele>
        <time>2022-02-20T11:31:32Z</time>
      </trkpt>
      <trkpt lat="42.74935" lon="1.61331">
        <ele>1907.738</ele>
        <time>2022-02-20T11:31:34Z</time>
      </trkpt>
      <trkpt lat="42.74935" lon="1.61331">
        <ele>1907.738</ele>
        <time>2022-02-20T11:31:36Z</time>
      </trkpt>
      <trkpt lat="42.74935" lon="1.61331">
        <ele>1907.739</ele>
        <time>2022-02-20T11:31:38Z</time>
      </trkpt>
      <trkpt lat="42.74935" lon="1.61331">
        <ele>1907.848</ele>
        <time>2022-02-20T11:31:40Z</time>
      </trkpt>
      <trkpt lat="42.74935" lon="1.61331">
        <ele>1907.826</ele>
        <time>2022-02-20T11:31:42Z</time>
      </trkpt>
      <trkpt lat="42.74935" lon="1.61331">
        <ele>1907.825</ele>
        <time>2022-02-20T11:31:44Z</time>
      </trkpt>
      <trkpt lat="42.74935" lon="1.61331">
        <ele>1907.818</ele>
        <time>2022-02-20T11:31:46Z</time>
      </trkpt>
      <trkpt lat="42.74935" lon="1.61331">
        <ele>1907.817</ele>
        <time>2022-02-20T11:31:48Z</time>
      </trkpt>
      <trkpt lat="42.74935" lon="1.61331">
        <ele>1907.813</ele>
        <time>2022-02-20T11:31:50Z</time>
      </trkpt>
      <trkpt lat="42.74935" lon="1.61331">
        <ele>1907.815</ele>
        <time>2022-02-20T11:31:52Z</time>
      </trkpt>
      <trkpt lat="42.74935" lon="1.61331">
        <ele>1907.812</ele>
        <time>2022-02-20T11:31:54Z</time>
      </trkpt>
      <trkpt lat="42.74935" lon="1.61331">
        <ele>1907.81</ele>
        <time>2022-02-20T11:31:56Z</time>
      </trkpt>
      <trkpt lat="42.74935" lon="1.61331">
        <ele>1907.808</ele>
        <time>2022-02-20T11:31:58Z</time>
      </trkpt>
      <trkpt lat="42.74935" lon="1.61331">
        <ele>1907.556</ele>
        <time>2022-02-20T11:32:00Z</time>
      </trkpt>
      <trkpt lat="42.74935" lon="1.61331">
        <ele>1907.545</ele>
        <time>2022-02-20T11:32:02Z</time>
      </trkpt>
      <trkpt lat="42.74935" lon="1.61331">
        <ele>1907.544</ele>
        <time>2022-02-20T11:32:04Z</time>
      </trkpt>
      <trkpt lat="42.74935" lon="1.61331">
        <ele>1907.546</ele>
        <time>2022-02-20T11:32:06Z</time>
      </trkpt>
      <trkpt lat="42.74935" lon="1.61331">
        <ele>1907.544</ele>
        <time>2022-02-20T11:32:08Z</time>
      </trkpt>
      <trkpt lat="42.74936" lon="1.61331">
        <ele>1907.545</ele>
        <time>2022-02-20T11:32:10Z</time>
      </trkpt>
      <trkpt lat="42.74936" lon="1.61331">
        <ele>1907.544</ele>
        <time>2022-02-20T11:32:12Z</time>
      </trkpt>
      <trkpt lat="42.74936" lon="1.61331">
        <ele>1907.541</ele>
        <time>2022-02-20T11:32:14Z</time>
      </trkpt>
      <trkpt lat="42.74935" lon="1.61331">
        <ele>1907.773</ele>
        <time>2022-02-20T11:32:16Z</time>
      </trkpt>
      <trkpt lat="42.74935" lon="1.61331">
        <ele>1907.773</ele>
        <time>2022-02-20T11:32:18Z</time>
      </trkpt>
      <trkpt lat="42.74935" lon="1.61331">
        <ele>1907.771</ele>
        <time>2022-02-20T11:32:20Z</time>
      </trkpt>
      <trkpt lat="42.74935" lon="1.61331">
        <ele>1907.77</ele>
        <time>2022-02-20T11:32:22Z</time>
      </trkpt>
      <trkpt lat="42.74935" lon="1.61331">
        <ele>1907.771</ele>
        <time>2022-02-20T11:32:24Z</time>
      </trkpt>
      <trkpt lat="42.74935" lon="1.61331">
        <ele>1907.772</ele>
        <time>2022-02-20T11:32:26Z</time>
      </trkpt>
      <trkpt lat="42.74935" lon="1.61331">
        <ele>1907.772</ele>
        <time>2022-02-20T11:32:28Z</time>
      </trkpt>
      <trkpt lat="42.74935" lon="1.61331">
        <ele>1907.772</ele>
        <time>2022-02-20T11:32:30Z</time>
      </trkpt>
      <trkpt lat="42.74935" lon="1.61331">
        <ele>1907.771</ele>
        <time>2022-02-20T11:32:32Z</time>
      </trkpt>
      <trkpt lat="42.74935" lon="1.61331">
        <ele>1907.772</ele>
        <time>2022-02-20T11:32:34Z</time>
      </trkpt>
      <trkpt lat="42.74935" lon="1.61331">
        <ele>1907.771</ele>
        <time>2022-02-20T11:32:36Z</time>
      </trkpt>
      <trkpt lat="42.74935" lon="1.61331">
        <ele>1907.768</ele>
        <time>2022-02-20T11:32:38Z</time>
      </trkpt>
      <trkpt lat="42.74935" lon="1.61331">
        <ele>1907.768</ele>
        <time>2022-02-20T11:32:40Z</time>
      </trkpt>
      <trkpt lat="42.74935" lon="1.61331">
        <ele>1907.766</ele>
        <time>2022-02-20T11:32:42Z</time>
      </trkpt>
      <trkpt lat="42.74935" lon="1.61331">
        <ele>1907.762</ele>
        <time>2022-02-20T11:32:44Z</time>
      </trkpt>
      <trkpt lat="42.74935" lon="1.61331">
        <ele>1907.763</ele>
        <time>2022-02-20T11:32:46Z</time>
      </trkpt>
      <trkpt lat="42.74936" lon="1.61332">
        <ele>1907.727</ele>
        <time>2022-02-20T11:32:48Z</time>
      </trkpt>
      <trkpt lat="42.74935" lon="1.61332">
        <ele>1908.005</ele>
        <time>2022-02-20T11:32:50Z</time>
      </trkpt>
      <trkpt lat="42.74935" lon="1.61333">
        <ele>1908.123</ele>
        <time>2022-02-20T11:32:52Z</time>
      </trkpt>
      <trkpt lat="42.74934" lon="1.61334">
        <ele>1907.99</ele>
        <time>2022-02-20T11:32:54Z</time>
      </trkpt>
      <trkpt lat="42.74934" lon="1.61334">
        <ele>1907.956</ele>
        <time>2022-02-20T11:32:56Z</time>
      </trkpt>
      <trkpt lat="42.74934" lon="1.61334">
        <ele>1907.95</ele>
        <time>2022-02-20T11:32:58Z</time>
      </trkpt>
      <trkpt lat="42.74934" lon="1.61334">
        <ele>1907.946</ele>
        <time>2022-02-20T11:33:00Z</time>
      </trkpt>
      <trkpt lat="42.74934" lon="1.61334">
        <ele>1907.946</ele>
        <time>2022-02-20T11:33:02Z</time>
      </trkpt>
      <trkpt lat="42.74934" lon="1.61334">
        <ele>1907.904</ele>
        <time>2022-02-20T11:33:04Z</time>
      </trkpt>
      <trkpt lat="42.74934" lon="1.61334">
        <ele>1907.898</ele>
        <time>2022-02-20T11:33:06Z</time>
      </trkpt>
      <trkpt lat="42.74934" lon="1.61334">
        <ele>1907.894</ele>
        <time>2022-02-20T11:33:08Z</time>
      </trkpt>
      <trkpt lat="42.74934" lon="1.61334">
        <ele>1907.893</ele>
        <time>2022-02-20T11:33:10Z</time>
      </trkpt>
      <trkpt lat="42.74934" lon="1.61334">
        <ele>1907.892</ele>
        <time>2022-02-20T11:33:12Z</time>
      </trkpt>
      <trkpt lat="42.74934" lon="1.61334">
        <ele>1907.894</ele>
        <time>2022-02-20T11:33:14Z</time>
      </trkpt>
      <trkpt lat="42.74934" lon="1.61334">
        <ele>1907.893</ele>
        <time>2022-02-20T11:33:16Z</time>
      </trkpt>
      <trkpt lat="42.74934" lon="1.61334">
        <ele>1907.893</ele>
        <time>2022-02-20T11:33:18Z</time>
      </trkpt>
      <trkpt lat="42.74934" lon="1.61334">
        <ele>1907.891</ele>
        <time>2022-02-20T11:33:20Z</time>
      </trkpt>
      <trkpt lat="42.74934" lon="1.61334">
        <ele>1907.891</ele>
        <time>2022-02-20T11:33:22Z</time>
      </trkpt>
      <trkpt lat="42.74934" lon="1.61334">
        <ele>1907.889</ele>
        <time>2022-02-20T11:33:24Z</time>
      </trkpt>
      <trkpt lat="42.74934" lon="1.61334">
        <ele>1907.888</ele>
        <time>2022-02-20T11:33:26Z</time>
      </trkpt>
      <trkpt lat="42.74934" lon="1.61334">
        <ele>1907.889</ele>
        <time>2022-02-20T11:33:28Z</time>
      </trkpt>
      <trkpt lat="42.74934" lon="1.61334">
        <ele>1907.89</ele>
        <time>2022-02-20T11:33:30Z</time>
      </trkpt>
      <trkpt lat="42.74934" lon="1.61333">
        <ele>1907.681</ele>
        <time>2022-02-20T11:33:32Z</time>
      </trkpt>
      <trkpt lat="42.74934" lon="1.61333">
        <ele>1907.673</ele>
        <time>2022-02-20T11:33:34Z</time>
      </trkpt>
      <trkpt lat="42.74934" lon="1.61333">
        <ele>1907.67</ele>
        <time>2022-02-20T11:33:36Z</time>
      </trkpt>
      <trkpt lat="42.74934" lon="1.61333">
        <ele>1907.67</ele>
        <time>2022-02-20T11:33:38Z</time>
      </trkpt>
      <trkpt lat="42.74934" lon="1.61333">
        <ele>1907.672</ele>
        <time>2022-02-20T11:33:40Z</time>
      </trkpt>
      <trkpt lat="42.74934" lon="1.61333">
        <ele>1907.669</ele>
        <time>2022-02-20T11:33:42Z</time>
      </trkpt>
      <trkpt lat="42.74934" lon="1.61333">
        <ele>1907.668</ele>
        <time>2022-02-20T11:33:44Z</time>
      </trkpt>
      <trkpt lat="42.74934" lon="1.61333">
        <ele>1907.667</ele>
        <time>2022-02-20T11:33:46Z</time>
      </trkpt>
      <trkpt lat="42.74934" lon="1.61333">
        <ele>1907.665</ele>
        <time>2022-02-20T11:33:48Z</time>
      </trkpt>
      <trkpt lat="42.74934" lon="1.61333">
        <ele>1907.665</ele>
        <time>2022-02-20T11:33:50Z</time>
      </trkpt>
      <trkpt lat="42.74934" lon="1.61333">
        <ele>1907.663</ele>
        <time>2022-02-20T11:33:52Z</time>
      </trkpt>
      <trkpt lat="42.74934" lon="1.61333">
        <ele>1907.664</ele>
        <time>2022-02-20T11:33:54Z</time>
      </trkpt>
      <trkpt lat="42.74934" lon="1.61333">
        <ele>1907.663</ele>
        <time>2022-02-20T11:33:56Z</time>
      </trkpt>
      <trkpt lat="42.74934" lon="1.61333">
        <ele>1907.662</ele>
        <time>2022-02-20T11:33:58Z</time>
      </trkpt>
      <trkpt lat="42.74934" lon="1.61333">
        <ele>1907.661</ele>
        <time>2022-02-20T11:34:00Z</time>
      </trkpt>
      <trkpt lat="42.74934" lon="1.61333">
        <ele>1907.658</ele>
        <time>2022-02-20T11:34:02Z</time>
      </trkpt>
      <trkpt lat="42.74934" lon="1.61333">
        <ele>1907.655</ele>
        <time>2022-02-20T11:34:04Z</time>
      </trkpt>
      <trkpt lat="42.74934" lon="1.61333">
        <ele>1907.653</ele>
        <time>2022-02-20T11:34:06Z</time>
      </trkpt>
      <trkpt lat="42.74934" lon="1.61333">
        <ele>1907.652</ele>
        <time>2022-02-20T11:34:08Z</time>
      </trkpt>
      <trkpt lat="42.74934" lon="1.61333">
        <ele>1907.652</ele>
        <time>2022-02-20T11:34:10Z</time>
      </trkpt>
      <trkpt lat="42.74934" lon="1.61333">
        <ele>1907.653</ele>
        <time>2022-02-20T11:34:12Z</time>
      </trkpt>
      <trkpt lat="42.74934" lon="1.61333">
        <ele>1907.653</ele>
        <time>2022-02-20T11:34:14Z</time>
      </trkpt>
      <trkpt lat="42.74934" lon="1.61333">
        <ele>1907.652</ele>
        <time>2022-02-20T11:34:16Z</time>
      </trkpt>
      <trkpt lat="42.74934" lon="1.61333">
        <ele>1907.651</ele>
        <time>2022-02-20T11:34:18Z</time>
      </trkpt>
      <trkpt lat="42.74934" lon="1.61333">
        <ele>1907.649</ele>
        <time>2022-02-20T11:34:20Z</time>
      </trkpt>
      <trkpt lat="42.74934" lon="1.61333">
        <ele>1907.651</ele>
        <time>2022-02-20T11:34:22Z</time>
      </trkpt>
      <trkpt lat="42.74934" lon="1.61333">
        <ele>1907.651</ele>
        <time>2022-02-20T11:34:24Z</time>
      </trkpt>
      <trkpt lat="42.74934" lon="1.61333">
        <ele>1907.483</ele>
        <time>2022-02-20T11:34:26Z</time>
      </trkpt>
      <trkpt lat="42.74934" lon="1.61333">
        <ele>1907.566</ele>
        <time>2022-02-20T11:34:28Z</time>
      </trkpt>
      <trkpt lat="42.74936" lon="1.61332">
        <ele>1907.127</ele>
        <time>2022-02-20T11:34:30Z</time>
      </trkpt>
      <trkpt lat="42.74934" lon="1.6133">
        <ele>1907.758</ele>
        <time>2022-02-20T11:34:32Z</time>
      </trkpt>
      <trkpt lat="42.74935" lon="1.61328">
        <ele>1908.267</ele>
        <time>2022-02-20T11:34:34Z</time>
      </trkpt>
      <trkpt lat="42.74934" lon="1.61328">
        <ele>1908.511</ele>
        <time>2022-02-20T11:34:36Z</time>
      </trkpt>
      <trkpt lat="42.74932" lon="1.61329">
        <ele>1908.986</ele>
        <time>2022-02-20T11:34:38Z</time>
      </trkpt>
      <trkpt lat="42.74932" lon="1.61328">
        <ele>1909.072</ele>
        <time>2022-02-20T11:34:40Z</time>
      </trkpt>
      <trkpt lat="42.74932" lon="1.61328">
        <ele>1909.078</ele>
        <time>2022-02-20T11:34:42Z</time>
      </trkpt>
      <trkpt lat="42.74932" lon="1.61328">
        <ele>1909.237</ele>
        <time>2022-02-20T11:34:44Z</time>
      </trkpt>
      <trkpt lat="42.74932" lon="1.61327">
        <ele>1909.507</ele>
        <time>2022-02-20T11:34:46Z</time>
      </trkpt>
      <trkpt lat="42.74931" lon="1.61326">
        <ele>1909.369</ele>
        <time>2022-02-20T11:34:48Z</time>
      </trkpt>
      <trkpt lat="42.74931" lon="1.61325">
        <ele>1909.317</ele>
        <time>2022-02-20T11:34:50Z</time>
      </trkpt>
      <trkpt lat="42.7493" lon="1.61323">
        <ele>1909.179</ele>
        <time>2022-02-20T11:34:52Z</time>
      </trkpt>
      <trkpt lat="42.7493" lon="1.61321">
        <ele>1909.09</ele>
        <time>2022-02-20T11:34:54Z</time>
      </trkpt>
      <trkpt lat="42.7493" lon="1.61319">
        <ele>1909.267</ele>
        <time>2022-02-20T11:34:56Z</time>
      </trkpt>
      <trkpt lat="42.74929" lon="1.61318">
        <ele>1909.502</ele>
        <time>2022-02-20T11:34:58Z</time>
      </trkpt>
      <trkpt lat="42.74927" lon="1.61317">
        <ele>1910.133</ele>
        <time>2022-02-20T11:35:00Z</time>
      </trkpt>
      <trkpt lat="42.74926" lon="1.61316">
        <ele>1910.513</ele>
        <time>2022-02-20T11:35:02Z</time>
      </trkpt>
      <trkpt lat="42.74926" lon="1.61317">
        <ele>1910.336</ele>
        <time>2022-02-20T11:35:04Z</time>
      </trkpt>
      <trkpt lat="42.74926" lon="1.61316">
        <ele>1910.454</ele>
        <time>2022-02-20T11:35:06Z</time>
      </trkpt>
      <trkpt lat="42.74926" lon="1.61316">
        <ele>1910.459</ele>
        <time>2022-02-20T11:35:08Z</time>
      </trkpt>
      <trkpt lat="42.74926" lon="1.61316">
        <ele>1910.46</ele>
        <time>2022-02-20T11:35:10Z</time>
      </trkpt>
      <trkpt lat="42.74926" lon="1.61317">
        <ele>1909.614</ele>
        <time>2022-02-20T11:35:12Z</time>
      </trkpt>
      <trkpt lat="42.74925" lon="1.61319">
        <ele>1909.302</ele>
        <time>2022-02-20T11:35:14Z</time>
      </trkpt>
      <trkpt lat="42.74925" lon="1.61321">
        <ele>1908.963</ele>
        <time>2022-02-20T11:35:16Z</time>
      </trkpt>
      <trkpt lat="42.74924" lon="1.6132">
        <ele>1908.785</ele>
        <time>2022-02-20T11:35:18Z</time>
      </trkpt>
      <trkpt lat="42.74923" lon="1.61319">
        <ele>1909.263</ele>
        <time>2022-02-20T11:35:20Z</time>
      </trkpt>
      <trkpt lat="42.74923" lon="1.61319">
        <ele>1909.243</ele>
        <time>2022-02-20T11:35:22Z</time>
      </trkpt>
      <trkpt lat="42.74923" lon="1.61319">
        <ele>1909.239</ele>
        <time>2022-02-20T11:35:24Z</time>
      </trkpt>
      <trkpt lat="42.74923" lon="1.61319">
        <ele>1909.234</ele>
        <time>2022-02-20T11:35:26Z</time>
      </trkpt>
      <trkpt lat="42.74923" lon="1.61319">
        <ele>1909.227</ele>
        <time>2022-02-20T11:35:28Z</time>
      </trkpt>
      <trkpt lat="42.74923" lon="1.61319">
        <ele>1909.222</ele>
        <time>2022-02-20T11:35:30Z</time>
      </trkpt>
      <trkpt lat="42.74923" lon="1.61319">
        <ele>1909.22</ele>
        <time>2022-02-20T11:35:32Z</time>
      </trkpt>
      <trkpt lat="42.74923" lon="1.61319">
        <ele>1909.218</ele>
        <time>2022-02-20T11:35:34Z</time>
      </trkpt>
      <trkpt lat="42.74923" lon="1.6132">
        <ele>1909.217</ele>
        <time>2022-02-20T11:35:36Z</time>
      </trkpt>
      <trkpt lat="42.74923" lon="1.6132">
        <ele>1909.215</ele>
        <time>2022-02-20T11:35:38Z</time>
      </trkpt>
      <trkpt lat="42.74923" lon="1.6132">
        <ele>1909.211</ele>
        <time>2022-02-20T11:35:40Z</time>
      </trkpt>
      <trkpt lat="42.74923" lon="1.6132">
        <ele>1909.209</ele>
        <time>2022-02-20T11:35:42Z</time>
      </trkpt>
      <trkpt lat="42.74923" lon="1.6132">
        <ele>1909.208</ele>
        <time>2022-02-20T11:35:44Z</time>
      </trkpt>
      <trkpt lat="42.74923" lon="1.6132">
        <ele>1909.207</ele>
        <time>2022-02-20T11:35:46Z</time>
      </trkpt>
      <trkpt lat="42.74923" lon="1.6132">
        <ele>1909.21</ele>
        <time>2022-02-20T11:35:48Z</time>
      </trkpt>
      <trkpt lat="42.74923" lon="1.6132">
        <ele>1909.21</ele>
        <time>2022-02-20T11:35:50Z</time>
      </trkpt>
      <trkpt lat="42.74923" lon="1.6132">
        <ele>1909.204</ele>
        <time>2022-02-20T11:35:52Z</time>
      </trkpt>
      <trkpt lat="42.74923" lon="1.6132">
        <ele>1909.203</ele>
        <time>2022-02-20T11:35:54Z</time>
      </trkpt>
      <trkpt lat="42.74923" lon="1.61319">
        <ele>1909.222</ele>
        <time>2022-02-20T11:35:56Z</time>
      </trkpt>
      <trkpt lat="42.74922" lon="1.61319">
        <ele>1909.188</ele>
        <time>2022-02-20T11:35:58Z</time>
      </trkpt>
      <trkpt lat="42.74921" lon="1.61319">
        <ele>1909.114</ele>
        <time>2022-02-20T11:36:00Z</time>
      </trkpt>
      <trkpt lat="42.7492" lon="1.61318">
        <ele>1909.005</ele>
        <time>2022-02-20T11:36:02Z</time>
      </trkpt>
      <trkpt lat="42.74919" lon="1.61318">
        <ele>1908.45</ele>
        <time>2022-02-20T11:36:04Z</time>
      </trkpt>
      <trkpt lat="42.74918" lon="1.61319">
        <ele>1908.038</ele>
        <time>2022-02-20T11:36:06Z</time>
      </trkpt>
      <trkpt lat="42.74917" lon="1.6132">
        <ele>1907.693</ele>
        <time>2022-02-20T11:36:08Z</time>
      </trkpt>
      <trkpt lat="42.74916" lon="1.61321">
        <ele>1907.215</ele>
        <time>2022-02-20T11:36:10Z</time>
      </trkpt>
      <trkpt lat="42.74915" lon="1.6132">
        <ele>1907.364</ele>
        <time>2022-02-20T11:36:12Z</time>
      </trkpt>
      <trkpt lat="42.74914" lon="1.61319">
        <ele>1907.211</ele>
        <time>2022-02-20T11:36:14Z</time>
      </trkpt>
      <trkpt lat="42.74913" lon="1.61319">
        <ele>1906.72</ele>
        <time>2022-02-20T11:36:16Z</time>
      </trkpt>
      <trkpt lat="42.74913" lon="1.61318">
        <ele>1906.286</ele>
        <time>2022-02-20T11:36:18Z</time>
      </trkpt>
      <trkpt lat="42.74912" lon="1.61316">
        <ele>1906.065</ele>
        <time>2022-02-20T11:36:20Z</time>
      </trkpt>
      <trkpt lat="42.74911" lon="1.61315">
        <ele>1905.132</ele>
        <time>2022-02-20T11:36:22Z</time>
      </trkpt>
      <trkpt lat="42.7491" lon="1.61315">
        <ele>1904.072</ele>
        <time>2022-02-20T11:36:24Z</time>
      </trkpt>
      <trkpt lat="42.7491" lon="1.61313">
        <ele>1903.964</ele>
        <time>2022-02-20T11:36:26Z</time>
      </trkpt>
      <trkpt lat="42.74909" lon="1.61312">
        <ele>1903.718</ele>
        <time>2022-02-20T11:36:28Z</time>
      </trkpt>
      <trkpt lat="42.74908" lon="1.61311">
        <ele>1903.655</ele>
        <time>2022-02-20T11:36:30Z</time>
      </trkpt>
      <trkpt lat="42.74907" lon="1.61311">
        <ele>1902.986</ele>
        <time>2022-02-20T11:36:32Z</time>
      </trkpt>
      <trkpt lat="42.74905" lon="1.61311">
        <ele>1902.679</ele>
        <time>2022-02-20T11:36:34Z</time>
      </trkpt>
      <trkpt lat="42.74904" lon="1.6131">
        <ele>1902.387</ele>
        <time>2022-02-20T11:36:36Z</time>
      </trkpt>
      <trkpt lat="42.74902" lon="1.61309">
        <ele>1902.033</ele>
        <time>2022-02-20T11:36:38Z</time>
      </trkpt>
      <trkpt lat="42.74901" lon="1.61307">
        <ele>1901.704</ele>
        <time>2022-02-20T11:36:40Z</time>
      </trkpt>
      <trkpt lat="42.74899" lon="1.61306">
        <ele>1900.706</ele>
        <time>2022-02-20T11:36:42Z</time>
      </trkpt>
      <trkpt lat="42.74898" lon="1.61305">
        <ele>1900.158</ele>
        <time>2022-02-20T11:36:44Z</time>
      </trkpt>
      <trkpt lat="42.74896" lon="1.61305">
        <ele>1899.885</ele>
        <time>2022-02-20T11:36:46Z</time>
      </trkpt>
      <trkpt lat="42.74895" lon="1.61304">
        <ele>1899.59</ele>
        <time>2022-02-20T11:36:48Z</time>
      </trkpt>
      <trkpt lat="42.74893" lon="1.61303">
        <ele>1899.349</ele>
        <time>2022-02-20T11:36:50Z</time>
      </trkpt>
      <trkpt lat="42.74892" lon="1.61302">
        <ele>1899.033</ele>
        <time>2022-02-20T11:36:52Z</time>
      </trkpt>
      <trkpt lat="42.74891" lon="1.61301">
        <ele>1898.623</ele>
        <time>2022-02-20T11:36:54Z</time>
      </trkpt>
      <trkpt lat="42.74889" lon="1.613">
        <ele>1898.223</ele>
        <time>2022-02-20T11:36:56Z</time>
      </trkpt>
      <trkpt lat="42.74888" lon="1.61299">
        <ele>1897.835</ele>
        <time>2022-02-20T11:36:58Z</time>
      </trkpt>
      <trkpt lat="42.74886" lon="1.61299">
        <ele>1897.331</ele>
        <time>2022-02-20T11:37:00Z</time>
      </trkpt>
      <trkpt lat="42.74884" lon="1.61299">
        <ele>1896.804</ele>
        <time>2022-02-20T11:37:02Z</time>
      </trkpt>
      <trkpt lat="42.74883" lon="1.61299">
        <ele>1896.241</ele>
        <time>2022-02-20T11:37:04Z</time>
      </trkpt>
      <trkpt lat="42.74881" lon="1.61298">
        <ele>1895.89</ele>
        <time>2022-02-20T11:37:06Z</time>
      </trkpt>
      <trkpt lat="42.74879" lon="1.61299">
        <ele>1895.305</ele>
        <time>2022-02-20T11:37:08Z</time>
      </trkpt>
      <trkpt lat="42.74877" lon="1.613">
        <ele>1894.824</ele>
        <time>2022-02-20T11:37:10Z</time>
      </trkpt>
      <trkpt lat="42.74875" lon="1.613">
        <ele>1894.2</ele>
        <time>2022-02-20T11:37:12Z</time>
      </trkpt>
      <trkpt lat="42.74873" lon="1.613">
        <ele>1893.971</ele>
        <time>2022-02-20T11:37:14Z</time>
      </trkpt>
      <trkpt lat="42.74871" lon="1.613">
        <ele>1893.856</ele>
        <time>2022-02-20T11:37:16Z</time>
      </trkpt>
      <trkpt lat="42.7487" lon="1.613">
        <ele>1893.732</ele>
        <time>2022-02-20T11:37:18Z</time>
      </trkpt>
      <trkpt lat="42.74868" lon="1.613">
        <ele>1893.184</ele>
        <time>2022-02-20T11:37:20Z</time>
      </trkpt>
      <trkpt lat="42.74866" lon="1.613">
        <ele>1892.857</ele>
        <time>2022-02-20T11:37:22Z</time>
      </trkpt>
      <trkpt lat="42.74864" lon="1.61301">
        <ele>1892.738</ele>
        <time>2022-02-20T11:37:24Z</time>
      </trkpt>
      <trkpt lat="42.74863" lon="1.61301">
        <ele>1892.377</ele>
        <time>2022-02-20T11:37:26Z</time>
      </trkpt>
      <trkpt lat="42.74861" lon="1.61301">
        <ele>1892.358</ele>
        <time>2022-02-20T11:37:28Z</time>
      </trkpt>
      <trkpt lat="42.74859" lon="1.61302">
        <ele>1891.728</ele>
        <time>2022-02-20T11:37:30Z</time>
      </trkpt>
      <trkpt lat="42.74858" lon="1.61302">
        <ele>1891.662</ele>
        <time>2022-02-20T11:37:32Z</time>
      </trkpt>
      <trkpt lat="42.74856" lon="1.61302">
        <ele>1891.212</ele>
        <time>2022-02-20T11:37:34Z</time>
      </trkpt>
      <trkpt lat="42.74854" lon="1.61303">
        <ele>1891.067</ele>
        <time>2022-02-20T11:37:36Z</time>
      </trkpt>
      <trkpt lat="42.74852" lon="1.61303">
        <ele>1890.949</ele>
        <time>2022-02-20T11:37:38Z</time>
      </trkpt>
      <trkpt lat="42.7485" lon="1.61303">
        <ele>1890.566</ele>
        <time>2022-02-20T11:37:40Z</time>
      </trkpt>
      <trkpt lat="42.74849" lon="1.61302">
        <ele>1890.196</ele>
        <time>2022-02-20T11:37:42Z</time>
      </trkpt>
      <trkpt lat="42.74847" lon="1.61301">
        <ele>1889.766</ele>
        <time>2022-02-20T11:37:44Z</time>
      </trkpt>
      <trkpt lat="42.74844" lon="1.61301">
        <ele>1889.63</ele>
        <time>2022-02-20T11:37:46Z</time>
      </trkpt>
      <trkpt lat="42.74842" lon="1.613">
        <ele>1889.498</ele>
        <time>2022-02-20T11:37:48Z</time>
      </trkpt>
      <trkpt lat="42.74838" lon="1.61299">
        <ele>1889.915</ele>
        <time>2022-02-20T11:37:51Z</time>
      </trkpt>
      <trkpt lat="42.74836" lon="1.61299">
        <ele>1890.034</ele>
        <time>2022-02-20T11:37:53Z</time>
      </trkpt>
      <trkpt lat="42.74834" lon="1.61299">
        <ele>1889.804</ele>
        <time>2022-02-20T11:37:55Z</time>
      </trkpt>
      <trkpt lat="42.74832" lon="1.61298">
        <ele>1889.609</ele>
        <time>2022-02-20T11:37:57Z</time>
      </trkpt>
      <trkpt lat="42.74831" lon="1.61298">
        <ele>1889.52</ele>
        <time>2022-02-20T11:37:59Z</time>
      </trkpt>
      <trkpt lat="42.74829" lon="1.61297">
        <ele>1888.798</ele>
        <time>2022-02-20T11:38:01Z</time>
      </trkpt>
      <trkpt lat="42.74827" lon="1.61298">
        <ele>1888.792</ele>
        <time>2022-02-20T11:38:03Z</time>
      </trkpt>
      <trkpt lat="42.74826" lon="1.61298">
        <ele>1888.657</ele>
        <time>2022-02-20T11:38:05Z</time>
      </trkpt>
      <trkpt lat="42.74824" lon="1.61298">
        <ele>1888.389</ele>
        <time>2022-02-20T11:38:07Z</time>
      </trkpt>
      <trkpt lat="42.74822" lon="1.61298">
        <ele>1888.009</ele>
        <time>2022-02-20T11:38:09Z</time>
      </trkpt>
      <trkpt lat="42.74821" lon="1.61297">
        <ele>1887.74</ele>
        <time>2022-02-20T11:38:11Z</time>
      </trkpt>
      <trkpt lat="42.74819" lon="1.61297">
        <ele>1887.259</ele>
        <time>2022-02-20T11:38:13Z</time>
      </trkpt>
      <trkpt lat="42.74817" lon="1.61297">
        <ele>1886.755</ele>
        <time>2022-02-20T11:38:15Z</time>
      </trkpt>
      <trkpt lat="42.74816" lon="1.61297">
        <ele>1886.522</ele>
        <time>2022-02-20T11:38:17Z</time>
      </trkpt>
      <trkpt lat="42.74814" lon="1.61298">
        <ele>1886.289</ele>
        <time>2022-02-20T11:38:19Z</time>
      </trkpt>
      <trkpt lat="42.74812" lon="1.61298">
        <ele>1885.84</ele>
        <time>2022-02-20T11:38:21Z</time>
      </trkpt>
      <trkpt lat="42.7481" lon="1.61298">
        <ele>1885.799</ele>
        <time>2022-02-20T11:38:23Z</time>
      </trkpt>
      <trkpt lat="42.74808" lon="1.61299">
        <ele>1885.277</ele>
        <time>2022-02-20T11:38:25Z</time>
      </trkpt>
      <trkpt lat="42.74806" lon="1.61299">
        <ele>1885.077</ele>
        <time>2022-02-20T11:38:27Z</time>
      </trkpt>
      <trkpt lat="42.74805" lon="1.613">
        <ele>1884.559</ele>
        <time>2022-02-20T11:38:29Z</time>
      </trkpt>
      <trkpt lat="42.74803" lon="1.613">
        <ele>1883.986</ele>
        <time>2022-02-20T11:38:31Z</time>
      </trkpt>
      <trkpt lat="42.74801" lon="1.61301">
        <ele>1884.029</ele>
        <time>2022-02-20T11:38:33Z</time>
      </trkpt>
      <trkpt lat="42.74799" lon="1.61302">
        <ele>1884.107</ele>
        <time>2022-02-20T11:38:35Z</time>
      </trkpt>
      <trkpt lat="42.74798" lon="1.61303">
        <ele>1883.17</ele>
        <time>2022-02-20T11:38:37Z</time>
      </trkpt>
      <trkpt lat="42.74796" lon="1.61304">
        <ele>1882.811</ele>
        <time>2022-02-20T11:38:39Z</time>
      </trkpt>
      <trkpt lat="42.74795" lon="1.61304">
        <ele>1881.884</ele>
        <time>2022-02-20T11:38:41Z</time>
      </trkpt>
      <trkpt lat="42.74794" lon="1.61304">
        <ele>1880.938</ele>
        <time>2022-02-20T11:38:43Z</time>
      </trkpt>
      <trkpt lat="42.74792" lon="1.61305">
        <ele>1880.936</ele>
        <time>2022-02-20T11:38:45Z</time>
      </trkpt>
      <trkpt lat="42.7479" lon="1.61306">
        <ele>1880.78</ele>
        <time>2022-02-20T11:38:47Z</time>
      </trkpt>
      <trkpt lat="42.74788" lon="1.61306">
        <ele>1880.702</ele>
        <time>2022-02-20T11:38:49Z</time>
      </trkpt>
      <trkpt lat="42.74787" lon="1.61307">
        <ele>1881.119</ele>
        <time>2022-02-20T11:38:51Z</time>
      </trkpt>
      <trkpt lat="42.74785" lon="1.61307">
        <ele>1880.828</ele>
        <time>2022-02-20T11:38:53Z</time>
      </trkpt>
      <trkpt lat="42.74784" lon="1.61308">
        <ele>1880.241</ele>
        <time>2022-02-20T11:38:55Z</time>
      </trkpt>
      <trkpt lat="42.74783" lon="1.61309">
        <ele>1879.865</ele>
        <time>2022-02-20T11:38:57Z</time>
      </trkpt>
      <trkpt lat="42.74782" lon="1.61309">
        <ele>1879.493</ele>
        <time>2022-02-20T11:38:59Z</time>
      </trkpt>
      <trkpt lat="42.7478" lon="1.61309">
        <ele>1879.284</ele>
        <time>2022-02-20T11:39:01Z</time>
      </trkpt>
      <trkpt lat="42.74779" lon="1.61311">
        <ele>1879.174</ele>
        <time>2022-02-20T11:39:03Z</time>
      </trkpt>
      <trkpt lat="42.74778" lon="1.61311">
        <ele>1879.365</ele>
        <time>2022-02-20T11:39:05Z</time>
      </trkpt>
      <trkpt lat="42.74777" lon="1.61313">
        <ele>1879.306</ele>
        <time>2022-02-20T11:39:07Z</time>
      </trkpt>
      <trkpt lat="42.74776" lon="1.61314">
        <ele>1878.991</ele>
        <time>2022-02-20T11:39:09Z</time>
      </trkpt>
      <trkpt lat="42.74774" lon="1.61315">
        <ele>1878.689</ele>
        <time>2022-02-20T11:39:11Z</time>
      </trkpt>
      <trkpt lat="42.74773" lon="1.61316">
        <ele>1878.657</ele>
        <time>2022-02-20T11:39:13Z</time>
      </trkpt>
      <trkpt lat="42.74772" lon="1.61317">
        <ele>1878.423</ele>
        <time>2022-02-20T11:39:15Z</time>
      </trkpt>
      <trkpt lat="42.7477" lon="1.61318">
        <ele>1878.554</ele>
        <time>2022-02-20T11:39:17Z</time>
      </trkpt>
      <trkpt lat="42.74769" lon="1.6132">
        <ele>1877.928</ele>
        <time>2022-02-20T11:39:19Z</time>
      </trkpt>
      <trkpt lat="42.74767" lon="1.61321">
        <ele>1877.228</ele>
        <time>2022-02-20T11:39:21Z</time>
      </trkpt>
      <trkpt lat="42.74766" lon="1.61322">
        <ele>1877.216</ele>
        <time>2022-02-20T11:39:23Z</time>
      </trkpt>
      <trkpt lat="42.74765" lon="1.61324">
        <ele>1877.16</ele>
        <time>2022-02-20T11:39:25Z</time>
      </trkpt>
      <trkpt lat="42.74763" lon="1.61326">
        <ele>1876.692</ele>
        <time>2022-02-20T11:39:27Z</time>
      </trkpt>
      <trkpt lat="42.74762" lon="1.61327">
        <ele>1876.387</ele>
        <time>2022-02-20T11:39:29Z</time>
      </trkpt>
      <trkpt lat="42.74761" lon="1.61329">
        <ele>1876.522</ele>
        <time>2022-02-20T11:39:31Z</time>
      </trkpt>
      <trkpt lat="42.7476" lon="1.61331">
        <ele>1875.682</ele>
        <time>2022-02-20T11:39:33Z</time>
      </trkpt>
      <trkpt lat="42.74759" lon="1.61334">
        <ele>1875.536</ele>
        <time>2022-02-20T11:39:35Z</time>
      </trkpt>
      <trkpt lat="42.74757" lon="1.61335">
        <ele>1874.982</ele>
        <time>2022-02-20T11:39:37Z</time>
      </trkpt>
      <trkpt lat="42.74755" lon="1.61336">
        <ele>1875.091</ele>
        <time>2022-02-20T11:39:39Z</time>
      </trkpt>
      <trkpt lat="42.74753" lon="1.61336">
        <ele>1875.292</ele>
        <time>2022-02-20T11:39:41Z</time>
      </trkpt>
      <trkpt lat="42.74752" lon="1.61336">
        <ele>1875.374</ele>
        <time>2022-02-20T11:39:43Z</time>
      </trkpt>
      <trkpt lat="42.7475" lon="1.61336">
        <ele>1875.412</ele>
        <time>2022-02-20T11:39:45Z</time>
      </trkpt>
      <trkpt lat="42.74748" lon="1.61337">
        <ele>1875.282</ele>
        <time>2022-02-20T11:39:47Z</time>
      </trkpt>
      <trkpt lat="42.74746" lon="1.61338">
        <ele>1874.631</ele>
        <time>2022-02-20T11:39:49Z</time>
      </trkpt>
      <trkpt lat="42.74745" lon="1.61339">
        <ele>1874.268</ele>
        <time>2022-02-20T11:39:51Z</time>
      </trkpt>
      <trkpt lat="42.74744" lon="1.6134">
        <ele>1874.375</ele>
        <time>2022-02-20T11:39:53Z</time>
      </trkpt>
      <trkpt lat="42.74743" lon="1.61341">
        <ele>1874.155</ele>
        <time>2022-02-20T11:39:55Z</time>
      </trkpt>
      <trkpt lat="42.74743" lon="1.61343">
        <ele>1872.875</ele>
        <time>2022-02-20T11:39:57Z</time>
      </trkpt>
      <trkpt lat="42.74742" lon="1.61345">
        <ele>1872.345</ele>
        <time>2022-02-20T11:39:59Z</time>
      </trkpt>
      <trkpt lat="42.74741" lon="1.61346">
        <ele>1871.952</ele>
        <time>2022-02-20T11:40:01Z</time>
      </trkpt>
      <trkpt lat="42.74741" lon="1.61348">
        <ele>1871.165</ele>
        <time>2022-02-20T11:40:03Z</time>
      </trkpt>
      <trkpt lat="42.74739" lon="1.61349">
        <ele>1870.365</ele>
        <time>2022-02-20T11:40:05Z</time>
      </trkpt>
      <trkpt lat="42.74738" lon="1.6135">
        <ele>1869.346</ele>
        <time>2022-02-20T11:40:07Z</time>
      </trkpt>
      <trkpt lat="42.74736" lon="1.61351">
        <ele>1868.947</ele>
        <time>2022-02-20T11:40:09Z</time>
      </trkpt>
      <trkpt lat="42.74735" lon="1.61353">
        <ele>1868.263</ele>
        <time>2022-02-20T11:40:11Z</time>
      </trkpt>
      <trkpt lat="42.74734" lon="1.61354">
        <ele>1868.295</ele>
        <time>2022-02-20T11:40:13Z</time>
      </trkpt>
      <trkpt lat="42.74733" lon="1.61354">
        <ele>1867.865</ele>
        <time>2022-02-20T11:40:15Z</time>
      </trkpt>
      <trkpt lat="42.74732" lon="1.61354">
        <ele>1867.105</ele>
        <time>2022-02-20T11:40:17Z</time>
      </trkpt>
      <trkpt lat="42.74732" lon="1.61357">
        <ele>1866.249</ele>
        <time>2022-02-20T11:40:19Z</time>
      </trkpt>
      <trkpt lat="42.74731" lon="1.61359">
        <ele>1866.096</ele>
        <time>2022-02-20T11:40:21Z</time>
      </trkpt>
      <trkpt lat="42.74729" lon="1.61359">
        <ele>1865.942</ele>
        <time>2022-02-20T11:40:23Z</time>
      </trkpt>
      <trkpt lat="42.74728" lon="1.61359">
        <ele>1865.255</ele>
        <time>2022-02-20T11:40:25Z</time>
      </trkpt>
      <trkpt lat="42.74726" lon="1.61359">
        <ele>1864.892</ele>
        <time>2022-02-20T11:40:27Z</time>
      </trkpt>
      <trkpt lat="42.74725" lon="1.61359">
        <ele>1864.643</ele>
        <time>2022-02-20T11:40:29Z</time>
      </trkpt>
      <trkpt lat="42.74723" lon="1.61359">
        <ele>1864.405</ele>
        <time>2022-02-20T11:40:31Z</time>
      </trkpt>
      <trkpt lat="42.74722" lon="1.61359">
        <ele>1864.047</ele>
        <time>2022-02-20T11:40:33Z</time>
      </trkpt>
      <trkpt lat="42.7472" lon="1.61359">
        <ele>1863.679</ele>
        <time>2022-02-20T11:40:35Z</time>
      </trkpt>
      <trkpt lat="42.74719" lon="1.61359">
        <ele>1863.49</ele>
        <time>2022-02-20T11:40:37Z</time>
      </trkpt>
      <trkpt lat="42.74717" lon="1.61359">
        <ele>1862.834</ele>
        <time>2022-02-20T11:40:39Z</time>
      </trkpt>
      <trkpt lat="42.74716" lon="1.61358">
        <ele>1862.227</ele>
        <time>2022-02-20T11:40:41Z</time>
      </trkpt>
      <trkpt lat="42.74714" lon="1.61357">
        <ele>1861.542</ele>
        <time>2022-02-20T11:40:43Z</time>
      </trkpt>
      <trkpt lat="42.74712" lon="1.61357">
        <ele>1861.465</ele>
        <time>2022-02-20T11:40:45Z</time>
      </trkpt>
      <trkpt lat="42.74711" lon="1.61358">
        <ele>1860.775</ele>
        <time>2022-02-20T11:40:47Z</time>
      </trkpt>
      <trkpt lat="42.74709" lon="1.61359">
        <ele>1860.045</ele>
        <time>2022-02-20T11:40:49Z</time>
      </trkpt>
      <trkpt lat="42.74709" lon="1.61361">
        <ele>1860.002</ele>
        <time>2022-02-20T11:40:51Z</time>
      </trkpt>
      <trkpt lat="42.74709" lon="1.61364">
        <ele>1859.562</ele>
        <time>2022-02-20T11:40:53Z</time>
      </trkpt>
      <trkpt lat="42.74708" lon="1.61366">
        <ele>1859.925</ele>
        <time>2022-02-20T11:40:55Z</time>
      </trkpt>
      <trkpt lat="42.74707" lon="1.61367">
        <ele>1859.525</ele>
        <time>2022-02-20T11:40:57Z</time>
      </trkpt>
      <trkpt lat="42.74706" lon="1.61367">
        <ele>1859.534</ele>
        <time>2022-02-20T11:40:59Z</time>
      </trkpt>
      <trkpt lat="42.74704" lon="1.61367">
        <ele>1859.563</ele>
        <time>2022-02-20T11:41:01Z</time>
      </trkpt>
      <trkpt lat="42.74703" lon="1.61368">
        <ele>1858.942</ele>
        <time>2022-02-20T11:41:03Z</time>
      </trkpt>
      <trkpt lat="42.74702" lon="1.61369">
        <ele>1858.767</ele>
        <time>2022-02-20T11:41:05Z</time>
      </trkpt>
      <trkpt lat="42.74701" lon="1.61369">
        <ele>1858.814</ele>
        <time>2022-02-20T11:41:07Z</time>
      </trkpt>
      <trkpt lat="42.74699" lon="1.6137">
        <ele>1858.57</ele>
        <time>2022-02-20T11:41:09Z</time>
      </trkpt>
      <trkpt lat="42.74699" lon="1.61371">
        <ele>1857.869</ele>
        <time>2022-02-20T11:41:11Z</time>
      </trkpt>
      <trkpt lat="42.74697" lon="1.61372">
        <ele>1857.125</ele>
        <time>2022-02-20T11:41:13Z</time>
      </trkpt>
      <trkpt lat="42.74696" lon="1.61373">
        <ele>1857.173</ele>
        <time>2022-02-20T11:41:15Z</time>
      </trkpt>
      <trkpt lat="42.74696" lon="1.61373">
        <ele>1857.241</ele>
        <time>2022-02-20T11:41:17Z</time>
      </trkpt>
      <trkpt lat="42.74695" lon="1.61374">
        <ele>1856.717</ele>
        <time>2022-02-20T11:41:19Z</time>
      </trkpt>
      <trkpt lat="42.74693" lon="1.61375">
        <ele>1856.171</ele>
        <time>2022-02-20T11:41:21Z</time>
      </trkpt>
      <trkpt lat="42.74692" lon="1.61377">
        <ele>1856.216</ele>
        <time>2022-02-20T11:41:23Z</time>
      </trkpt>
      <trkpt lat="42.74691" lon="1.61377">
        <ele>1856.286</ele>
        <time>2022-02-20T11:41:25Z</time>
      </trkpt>
      <trkpt lat="42.74689" lon="1.61377">
        <ele>1855.81</ele>
        <time>2022-02-20T11:41:27Z</time>
      </trkpt>
      <trkpt lat="42.74687" lon="1.61377">
        <ele>1855.038</ele>
        <time>2022-02-20T11:41:29Z</time>
      </trkpt>
      <trkpt lat="42.74686" lon="1.61378">
        <ele>1854.03</ele>
        <time>2022-02-20T11:41:31Z</time>
      </trkpt>
      <trkpt lat="42.74685" lon="1.61379">
        <ele>1853.956</ele>
        <time>2022-02-20T11:41:33Z</time>
      </trkpt>
      <trkpt lat="42.74683" lon="1.6138">
        <ele>1853.504</ele>
        <time>2022-02-20T11:41:35Z</time>
      </trkpt>
      <trkpt lat="42.74682" lon="1.61382">
        <ele>1852.905</ele>
        <time>2022-02-20T11:41:37Z</time>
      </trkpt>
      <trkpt lat="42.7468" lon="1.61382">
        <ele>1852.974</ele>
        <time>2022-02-20T11:41:39Z</time>
      </trkpt>
      <trkpt lat="42.74678" lon="1.61383">
        <ele>1853.311</ele>
        <time>2022-02-20T11:41:41Z</time>
      </trkpt>
      <trkpt lat="42.74678" lon="1.61385">
        <ele>1852.686</ele>
        <time>2022-02-20T11:41:43Z</time>
      </trkpt>
      <trkpt lat="42.74676" lon="1.61385">
        <ele>1852.414</ele>
        <time>2022-02-20T11:41:45Z</time>
      </trkpt>
      <trkpt lat="42.74675" lon="1.61386">
        <ele>1852.098</ele>
        <time>2022-02-20T11:41:47Z</time>
      </trkpt>
      <trkpt lat="42.74674" lon="1.61387">
        <ele>1852.18</ele>
        <time>2022-02-20T11:41:49Z</time>
      </trkpt>
      <trkpt lat="42.74673" lon="1.61388">
        <ele>1852.391</ele>
        <time>2022-02-20T11:41:51Z</time>
      </trkpt>
      <trkpt lat="42.74672" lon="1.61389">
        <ele>1851.826</ele>
        <time>2022-02-20T11:41:53Z</time>
      </trkpt>
      <trkpt lat="42.74671" lon="1.6139">
        <ele>1851.844</ele>
        <time>2022-02-20T11:41:55Z</time>
      </trkpt>
      <trkpt lat="42.74671" lon="1.61389">
        <ele>1851.685</ele>
        <time>2022-02-20T11:41:57Z</time>
      </trkpt>
      <trkpt lat="42.74669" lon="1.6139">
        <ele>1851.053</ele>
        <time>2022-02-20T11:41:59Z</time>
      </trkpt>
      <trkpt lat="42.74668" lon="1.61391">
        <ele>1850.81</ele>
        <time>2022-02-20T11:42:01Z</time>
      </trkpt>
      <trkpt lat="42.74667" lon="1.61391">
        <ele>1850.791</ele>
        <time>2022-02-20T11:42:03Z</time>
      </trkpt>
      <trkpt lat="42.74666" lon="1.61392">
        <ele>1850.683</ele>
        <time>2022-02-20T11:42:05Z</time>
      </trkpt>
      <trkpt lat="42.74665" lon="1.61392">
        <ele>1850.014</ele>
        <time>2022-02-20T11:42:07Z</time>
      </trkpt>
      <trkpt lat="42.74664" lon="1.61393">
        <ele>1850.121</ele>
        <time>2022-02-20T11:42:09Z</time>
      </trkpt>
      <trkpt lat="42.74664" lon="1.61393">
        <ele>1849.62</ele>
        <time>2022-02-20T11:42:11Z</time>
      </trkpt>
      <trkpt lat="42.74663" lon="1.61392">
        <ele>1849.773</ele>
        <time>2022-02-20T11:42:13Z</time>
      </trkpt>
      <trkpt lat="42.74663" lon="1.61392">
        <ele>1849.752</ele>
        <time>2022-02-20T11:42:15Z</time>
      </trkpt>
      <trkpt lat="42.74663" lon="1.61392">
        <ele>1849.745</ele>
        <time>2022-02-20T11:42:17Z</time>
      </trkpt>
      <trkpt lat="42.74662" lon="1.61391">
        <ele>1849.793</ele>
        <time>2022-02-20T11:42:19Z</time>
      </trkpt>
      <trkpt lat="42.74661" lon="1.6139">
        <ele>1849.363</ele>
        <time>2022-02-20T11:42:21Z</time>
      </trkpt>
      <trkpt lat="42.7466" lon="1.61388">
        <ele>1849.205</ele>
        <time>2022-02-20T11:42:23Z</time>
      </trkpt>
      <trkpt lat="42.7466" lon="1.61387">
        <ele>1848.986</ele>
        <time>2022-02-20T11:42:25Z</time>
      </trkpt>
      <trkpt lat="42.7466" lon="1.61385">
        <ele>1849.063</ele>
        <time>2022-02-20T11:42:27Z</time>
      </trkpt>
      <trkpt lat="42.7466" lon="1.61384">
        <ele>1848.768</ele>
        <time>2022-02-20T11:42:29Z</time>
      </trkpt>
      <trkpt lat="42.7466" lon="1.61384">
        <ele>1848.771</ele>
        <time>2022-02-20T11:42:31Z</time>
      </trkpt>
      <trkpt lat="42.74661" lon="1.61382">
        <ele>1849.154</ele>
        <time>2022-02-20T11:42:33Z</time>
      </trkpt>
      <trkpt lat="42.74662" lon="1.6138">
        <ele>1848.749</ele>
        <time>2022-02-20T11:42:35Z</time>
      </trkpt>
      <trkpt lat="42.74662" lon="1.61378">
        <ele>1848.323</ele>
        <time>2022-02-20T11:42:37Z</time>
      </trkpt>
      <trkpt lat="42.74663" lon="1.61376">
        <ele>1848.211</ele>
        <time>2022-02-20T11:42:39Z</time>
      </trkpt>
      <trkpt lat="42.74663" lon="1.61375">
        <ele>1848.03</ele>
        <time>2022-02-20T11:42:41Z</time>
      </trkpt>
      <trkpt lat="42.74664" lon="1.61373">
        <ele>1848.008</ele>
        <time>2022-02-20T11:42:43Z</time>
      </trkpt>
      <trkpt lat="42.74665" lon="1.61371">
        <ele>1847.916</ele>
        <time>2022-02-20T11:42:45Z</time>
      </trkpt>
      <trkpt lat="42.74666" lon="1.61369">
        <ele>1847.947</ele>
        <time>2022-02-20T11:42:47Z</time>
      </trkpt>
      <trkpt lat="42.74666" lon="1.61368">
        <ele>1847.825</ele>
        <time>2022-02-20T11:42:49Z</time>
      </trkpt>
      <trkpt lat="42.74667" lon="1.61366">
        <ele>1847.827</ele>
        <time>2022-02-20T11:42:51Z</time>
      </trkpt>
      <trkpt lat="42.74668" lon="1.61364">
        <ele>1848.04</ele>
        <time>2022-02-20T11:42:53Z</time>
      </trkpt>
      <trkpt lat="42.74668" lon="1.61363">
        <ele>1847.713</ele>
        <time>2022-02-20T11:42:55Z</time>
      </trkpt>
      <trkpt lat="42.7467" lon="1.61363">
        <ele>1847.873</ele>
        <time>2022-02-20T11:42:57Z</time>
      </trkpt>
      <trkpt lat="42.74671" lon="1.61363">
        <ele>1847.611</ele>
        <time>2022-02-20T11:42:59Z</time>
      </trkpt>
      <trkpt lat="42.74672" lon="1.61363">
        <ele>1847.067</ele>
        <time>2022-02-20T11:43:01Z</time>
      </trkpt>
      <trkpt lat="42.74672" lon="1.61363">
        <ele>1847.005</ele>
        <time>2022-02-20T11:43:03Z</time>
      </trkpt>
      <trkpt lat="42.74675" lon="1.61364">
        <ele>1845.396</ele>
        <time>2022-02-20T11:43:05Z</time>
      </trkpt>
      <trkpt lat="42.74675" lon="1.61364">
        <ele>1846.052</ele>
        <time>2022-02-20T11:43:07Z</time>
      </trkpt>
      <trkpt lat="42.74675" lon="1.61364">
        <ele>1846.048</ele>
        <time>2022-02-20T11:43:09Z</time>
      </trkpt>
      <trkpt lat="42.74675" lon="1.61364">
        <ele>1846.051</ele>
        <time>2022-02-20T11:43:11Z</time>
      </trkpt>
      <trkpt lat="42.74675" lon="1.61364">
        <ele>1846.055</ele>
        <time>2022-02-20T11:43:13Z</time>
      </trkpt>
      <trkpt lat="42.74674" lon="1.61364">
        <ele>1846.152</ele>
        <time>2022-02-20T11:43:15Z</time>
      </trkpt>
      <trkpt lat="42.74674" lon="1.61364">
        <ele>1846.32</ele>
        <time>2022-02-20T11:43:17Z</time>
      </trkpt>
      <trkpt lat="42.74674" lon="1.61364">
        <ele>1846.579</ele>
        <time>2022-02-20T11:43:19Z</time>
      </trkpt>
      <trkpt lat="42.74674" lon="1.61364">
        <ele>1846.597</ele>
        <time>2022-02-20T11:43:21Z</time>
      </trkpt>
      <trkpt lat="42.74674" lon="1.61364">
        <ele>1846.585</ele>
        <time>2022-02-20T11:43:23Z</time>
      </trkpt>
      <trkpt lat="42.74674" lon="1.61365">
        <ele>1846.782</ele>
        <time>2022-02-20T11:43:25Z</time>
      </trkpt>
      <trkpt lat="42.74674" lon="1.61365">
        <ele>1846.597</ele>
        <time>2022-02-20T11:43:27Z</time>
      </trkpt>
      <trkpt lat="42.74674" lon="1.61365">
        <ele>1846.724</ele>
        <time>2022-02-20T11:43:29Z</time>
      </trkpt>
      <trkpt lat="42.74674" lon="1.61365">
        <ele>1846.708</ele>
        <time>2022-02-20T11:43:31Z</time>
      </trkpt>
      <trkpt lat="42.74675" lon="1.61365">
        <ele>1847.048</ele>
        <time>2022-02-20T11:43:33Z</time>
      </trkpt>
      <trkpt lat="42.74674" lon="1.61365">
        <ele>1846.86</ele>
        <time>2022-02-20T11:43:35Z</time>
      </trkpt>
      <trkpt lat="42.74674" lon="1.61365">
        <ele>1846.861</ele>
        <time>2022-02-20T11:43:37Z</time>
      </trkpt>
      <trkpt lat="42.74674" lon="1.61365">
        <ele>1846.861</ele>
        <time>2022-02-20T11:43:39Z</time>
      </trkpt>
      <trkpt lat="42.74674" lon="1.61366">
        <ele>1847.206</ele>
        <time>2022-02-20T11:43:41Z</time>
      </trkpt>
      <trkpt lat="42.74675" lon="1.61365">
        <ele>1847.038</ele>
        <time>2022-02-20T11:43:43Z</time>
      </trkpt>
      <trkpt lat="42.74674" lon="1.61365">
        <ele>1846.746</ele>
        <time>2022-02-20T11:43:45Z</time>
      </trkpt>
      <trkpt lat="42.74674" lon="1.61366">
        <ele>1846.658</ele>
        <time>2022-02-20T11:43:47Z</time>
      </trkpt>
      <trkpt lat="42.74674" lon="1.61366">
        <ele>1846.755</ele>
        <time>2022-02-20T11:43:49Z</time>
      </trkpt>
      <trkpt lat="42.74674" lon="1.61366">
        <ele>1846.664</ele>
        <time>2022-02-20T11:43:51Z</time>
      </trkpt>
      <trkpt lat="42.74675" lon="1.61366">
        <ele>1846.278</ele>
        <time>2022-02-20T11:43:53Z</time>
      </trkpt>
      <trkpt lat="42.74675" lon="1.61366">
        <ele>1846.472</ele>
        <time>2022-02-20T11:43:55Z</time>
      </trkpt>
      <trkpt lat="42.74675" lon="1.61366">
        <ele>1846.472</ele>
        <time>2022-02-20T11:43:57Z</time>
      </trkpt>
      <trkpt lat="42.74675" lon="1.61366">
        <ele>1846.473</ele>
        <time>2022-02-20T11:43:59Z</time>
      </trkpt>
      <trkpt lat="42.74675" lon="1.61366">
        <ele>1846.474</ele>
        <time>2022-02-20T11:44:01Z</time>
      </trkpt>
      <trkpt lat="42.74675" lon="1.61366">
        <ele>1845.872</ele>
        <time>2022-02-20T11:44:03Z</time>
      </trkpt>
      <trkpt lat="42.74675" lon="1.61366">
        <ele>1845.331</ele>
        <time>2022-02-20T11:44:05Z</time>
      </trkpt>
      <trkpt lat="42.74676" lon="1.61365">
        <ele>1845.081</ele>
        <time>2022-02-20T11:44:07Z</time>
      </trkpt>
      <trkpt lat="42.74677" lon="1.61365">
        <ele>1844.687</ele>
        <time>2022-02-20T11:44:09Z</time>
      </trkpt>
      <trkpt lat="42.74677" lon="1.61365">
        <ele>1844.685</ele>
        <time>2022-02-20T11:44:11Z</time>
      </trkpt>
      <trkpt lat="42.74677" lon="1.61365">
        <ele>1844.913</ele>
        <time>2022-02-20T11:44:13Z</time>
      </trkpt>
      <trkpt lat="42.74677" lon="1.61365">
        <ele>1844.365</ele>
        <time>2022-02-20T11:44:15Z</time>
      </trkpt>
      <trkpt lat="42.74678" lon="1.61365">
        <ele>1844.367</ele>
        <time>2022-02-20T11:44:17Z</time>
      </trkpt>
      <trkpt lat="42.74678" lon="1.61365">
        <ele>1844.375</ele>
        <time>2022-02-20T11:44:19Z</time>
      </trkpt>
      <trkpt lat="42.74678" lon="1.61365">
        <ele>1844.374</ele>
        <time>2022-02-20T11:44:21Z</time>
      </trkpt>
      <trkpt lat="42.74677" lon="1.61366">
        <ele>1844.597</ele>
        <time>2022-02-20T11:44:23Z</time>
      </trkpt>
      <trkpt lat="42.74677" lon="1.61366">
        <ele>1844.291</ele>
        <time>2022-02-20T11:44:25Z</time>
      </trkpt>
      <trkpt lat="42.74677" lon="1.61366">
        <ele>1844.023</ele>
        <time>2022-02-20T11:44:27Z</time>
      </trkpt>
      <trkpt lat="42.74677" lon="1.61366">
        <ele>1844.021</ele>
        <time>2022-02-20T11:44:29Z</time>
      </trkpt>
      <trkpt lat="42.74677" lon="1.61366">
        <ele>1843.635</ele>
        <time>2022-02-20T11:44:31Z</time>
      </trkpt>
      <trkpt lat="42.74677" lon="1.61366">
        <ele>1843.622</ele>
        <time>2022-02-20T11:44:33Z</time>
      </trkpt>
      <trkpt lat="42.74677" lon="1.61366">
        <ele>1844.572</ele>
        <time>2022-02-20T11:44:35Z</time>
      </trkpt>
      <trkpt lat="42.74677" lon="1.61366">
        <ele>1845.431</ele>
        <time>2022-02-20T11:44:37Z</time>
      </trkpt>
      <trkpt lat="42.74676" lon="1.61365">
        <ele>1845.409</ele>
        <time>2022-02-20T11:44:39Z</time>
      </trkpt>
      <trkpt lat="42.74676" lon="1.61365">
        <ele>1845.458</ele>
        <time>2022-02-20T11:44:41Z</time>
      </trkpt>
      <trkpt lat="42.74676" lon="1.61365">
        <ele>1845.459</ele>
        <time>2022-02-20T11:44:43Z</time>
      </trkpt>
      <trkpt lat="42.74676" lon="1.61366">
        <ele>1845.649</ele>
        <time>2022-02-20T11:44:45Z</time>
      </trkpt>
      <trkpt lat="42.74676" lon="1.61365">
        <ele>1845.65</ele>
        <time>2022-02-20T11:44:47Z</time>
      </trkpt>
      <trkpt lat="42.74676" lon="1.61364">
        <ele>1845.735</ele>
        <time>2022-02-20T11:44:49Z</time>
      </trkpt>
      <trkpt lat="42.74676" lon="1.61363">
        <ele>1845.603</ele>
        <time>2022-02-20T11:44:51Z</time>
      </trkpt>
      <trkpt lat="42.74675" lon="1.61363">
        <ele>1845.528</ele>
        <time>2022-02-20T11:44:53Z</time>
      </trkpt>
      <trkpt lat="42.74675" lon="1.61363">
        <ele>1845.517</ele>
        <time>2022-02-20T11:44:55Z</time>
      </trkpt>
      <trkpt lat="42.74675" lon="1.61362">
        <ele>1845.741</ele>
        <time>2022-02-20T11:44:57Z</time>
      </trkpt>
      <trkpt lat="42.74675" lon="1.61361">
        <ele>1846.083</ele>
        <time>2022-02-20T11:44:59Z</time>
      </trkpt>
      <trkpt lat="42.74674" lon="1.6136">
        <ele>1845.811</ele>
        <time>2022-02-20T11:45:01Z</time>
      </trkpt>
      <trkpt lat="42.74674" lon="1.61361">
        <ele>1845.978</ele>
        <time>2022-02-20T11:45:03Z</time>
      </trkpt>
      <trkpt lat="42.74675" lon="1.61365">
        <ele>1844.584</ele>
        <time>2022-02-20T11:45:05Z</time>
      </trkpt>
      <trkpt lat="42.74675" lon="1.61365">
        <ele>1844.847</ele>
        <time>2022-02-20T11:45:07Z</time>
      </trkpt>
      <trkpt lat="42.74675" lon="1.61365">
        <ele>1845.841</ele>
        <time>2022-02-20T11:45:09Z</time>
      </trkpt>
      <trkpt lat="42.74675" lon="1.61365">
        <ele>1845.801</ele>
        <time>2022-02-20T11:45:11Z</time>
      </trkpt>
      <trkpt lat="42.74675" lon="1.61366">
        <ele>1845.599</ele>
        <time>2022-02-20T11:45:13Z</time>
      </trkpt>
      <trkpt lat="42.74673" lon="1.61362">
        <ele>1845.862</ele>
        <time>2022-02-20T11:45:15Z</time>
      </trkpt>
      <trkpt lat="42.74674" lon="1.61362">
        <ele>1845.772</ele>
        <time>2022-02-20T11:45:17Z</time>
      </trkpt>
      <trkpt lat="42.74673" lon="1.61363">
        <ele>1845.752</ele>
        <time>2022-02-20T11:45:19Z</time>
      </trkpt>
      <trkpt lat="42.74674" lon="1.61363">
        <ele>1845.759</ele>
        <time>2022-02-20T11:45:21Z</time>
      </trkpt>
      <trkpt lat="42.74674" lon="1.61363">
        <ele>1845.455</ele>
        <time>2022-02-20T11:45:23Z</time>
      </trkpt>
      <trkpt lat="42.74674" lon="1.61363">
        <ele>1845.897</ele>
        <time>2022-02-20T11:45:25Z</time>
      </trkpt>
      <trkpt lat="42.74673" lon="1.61363">
        <ele>1845.873</ele>
        <time>2022-02-20T11:45:27Z</time>
      </trkpt>
      <trkpt lat="42.74674" lon="1.61362">
        <ele>1845.259</ele>
        <time>2022-02-20T11:45:29Z</time>
      </trkpt>
      <trkpt lat="42.74674" lon="1.61363">
        <ele>1845.829</ele>
        <time>2022-02-20T11:45:31Z</time>
      </trkpt>
      <trkpt lat="42.74674" lon="1.61363">
        <ele>1845.842</ele>
        <time>2022-02-20T11:45:33Z</time>
      </trkpt>
      <trkpt lat="42.74674" lon="1.61362">
        <ele>1845.274</ele>
        <time>2022-02-20T11:45:35Z</time>
      </trkpt>
      <trkpt lat="42.74675" lon="1.61362">
        <ele>1845.965</ele>
        <time>2022-02-20T11:45:37Z</time>
      </trkpt>
      <trkpt lat="42.74674" lon="1.61361">
        <ele>1846.281</ele>
        <time>2022-02-20T11:45:39Z</time>
      </trkpt>
      <trkpt lat="42.74674" lon="1.61362">
        <ele>1845.658</ele>
        <time>2022-02-20T11:45:41Z</time>
      </trkpt>
      <trkpt lat="42.74674" lon="1.61362">
        <ele>1845.662</ele>
        <time>2022-02-20T11:45:43Z</time>
      </trkpt>
      <trkpt lat="42.74674" lon="1.61363">
        <ele>1845.273</ele>
        <time>2022-02-20T11:45:45Z</time>
      </trkpt>
      <trkpt lat="42.74674" lon="1.61363">
        <ele>1844.489</ele>
        <time>2022-02-20T11:45:47Z</time>
      </trkpt>
      <trkpt lat="42.74673" lon="1.61364">
        <ele>1844.202</ele>
        <time>2022-02-20T11:45:49Z</time>
      </trkpt>
      <trkpt lat="42.74673" lon="1.61365">
        <ele>1843.666</ele>
        <time>2022-02-20T11:45:51Z</time>
      </trkpt>
      <trkpt lat="42.74672" lon="1.61365">
        <ele>1843.408</ele>
        <time>2022-02-20T11:45:53Z</time>
      </trkpt>
      <trkpt lat="42.74672" lon="1.61365">
        <ele>1843.693</ele>
        <time>2022-02-20T11:45:55Z</time>
      </trkpt>
      <trkpt lat="42.74671" lon="1.61363">
        <ele>1843.85</ele>
        <time>2022-02-20T11:45:57Z</time>
      </trkpt>
      <trkpt lat="42.7467" lon="1.61362">
        <ele>1844.196</ele>
        <time>2022-02-20T11:45:59Z</time>
      </trkpt>
      <trkpt lat="42.7467" lon="1.61361">
        <ele>1844.123</ele>
        <time>2022-02-20T11:46:01Z</time>
      </trkpt>
      <trkpt lat="42.7467" lon="1.61359">
        <ele>1844.459</ele>
        <time>2022-02-20T11:46:03Z</time>
      </trkpt>
      <trkpt lat="42.74671" lon="1.61358">
        <ele>1844.648</ele>
        <time>2022-02-20T11:46:05Z</time>
      </trkpt>
      <trkpt lat="42.74671" lon="1.61357">
        <ele>1844.044</ele>
        <time>2022-02-20T11:46:07Z</time>
      </trkpt>
      <trkpt lat="42.74672" lon="1.61356">
        <ele>1844.137</ele>
        <time>2022-02-20T11:46:09Z</time>
      </trkpt>
      <trkpt lat="42.74673" lon="1.61355">
        <ele>1844.317</ele>
        <time>2022-02-20T11:46:11Z</time>
      </trkpt>
      <trkpt lat="42.74673" lon="1.61353">
        <ele>1844.224</ele>
        <time>2022-02-20T11:46:13Z</time>
      </trkpt>
      <trkpt lat="42.74674" lon="1.61352">
        <ele>1844.276</ele>
        <time>2022-02-20T11:46:15Z</time>
      </trkpt>
      <trkpt lat="42.74674" lon="1.6135">
        <ele>1844.435</ele>
        <time>2022-02-20T11:46:17Z</time>
      </trkpt>
      <trkpt lat="42.74674" lon="1.61349">
        <ele>1844.15</ele>
        <time>2022-02-20T11:46:19Z</time>
      </trkpt>
      <trkpt lat="42.74674" lon="1.61348">
        <ele>1843.465</ele>
        <time>2022-02-20T11:46:21Z</time>
      </trkpt>
      <trkpt lat="42.74675" lon="1.61347">
        <ele>1843.107</ele>
        <time>2022-02-20T11:46:23Z</time>
      </trkpt>
      <trkpt lat="42.74675" lon="1.61347">
        <ele>1843.325</ele>
        <time>2022-02-20T11:46:25Z</time>
      </trkpt>
      <trkpt lat="42.74675" lon="1.61347">
        <ele>1843.336</ele>
        <time>2022-02-20T11:46:27Z</time>
      </trkpt>
      <trkpt lat="42.74675" lon="1.61346">
        <ele>1843.502</ele>
        <time>2022-02-20T11:46:29Z</time>
      </trkpt>
      <trkpt lat="42.74675" lon="1.61345">
        <ele>1844.56</ele>
        <time>2022-02-20T11:46:31Z</time>
      </trkpt>
      <trkpt lat="42.74675" lon="1.61345">
        <ele>1844.734</ele>
        <time>2022-02-20T11:46:33Z</time>
      </trkpt>
      <trkpt lat="42.74676" lon="1.61345">
        <ele>1845.599</ele>
        <time>2022-02-20T11:46:35Z</time>
      </trkpt>
      <trkpt lat="42.74677" lon="1.61345">
        <ele>1846.074</ele>
        <time>2022-02-20T11:46:37Z</time>
      </trkpt>
      <trkpt lat="42.74677" lon="1.61345">
        <ele>1846.078</ele>
        <time>2022-02-20T11:46:39Z</time>
      </trkpt>
      <trkpt lat="42.74676" lon="1.61346">
        <ele>1845.712</ele>
        <time>2022-02-20T11:46:41Z</time>
      </trkpt>
      <trkpt lat="42.74675" lon="1.61346">
        <ele>1845.593</ele>
        <time>2022-02-20T11:46:43Z</time>
      </trkpt>
      <trkpt lat="42.74676" lon="1.6135">
        <ele>1845.066</ele>
        <time>2022-02-20T11:46:45Z</time>
      </trkpt>
      <trkpt lat="42.74676" lon="1.61351">
        <ele>1844.951</ele>
        <time>2022-02-20T11:46:46Z</time>
      </trkpt>
      <trkpt lat="42.74676" lon="1.61353">
        <ele>1843.408</ele>
        <time>2022-02-20T11:46:49Z</time>
      </trkpt>
      <trkpt lat="42.74676" lon="1.61355">
        <ele>1841.843</ele>
        <time>2022-02-20T11:46:51Z</time>
      </trkpt>
      <trkpt lat="42.74676" lon="1.61356">
        <ele>1841.405</ele>
        <time>2022-02-20T11:46:53Z</time>
      </trkpt>
      <trkpt lat="42.74675" lon="1.61358">
        <ele>1840.621</ele>
        <time>2022-02-20T11:46:55Z</time>
      </trkpt>
      <trkpt lat="42.74674" lon="1.61359">
        <ele>1840.185</ele>
        <time>2022-02-20T11:46:57Z</time>
      </trkpt>
      <trkpt lat="42.74674" lon="1.61361">
        <ele>1840.578</ele>
        <time>2022-02-20T11:46:59Z</time>
      </trkpt>
      <trkpt lat="42.74674" lon="1.61363">
        <ele>1840.667</ele>
        <time>2022-02-20T11:47:01Z</time>
      </trkpt>
      <trkpt lat="42.74674" lon="1.61365">
        <ele>1841.303</ele>
        <time>2022-02-20T11:47:03Z</time>
      </trkpt>
      <trkpt lat="42.74674" lon="1.61365">
        <ele>1841.553</ele>
        <time>2022-02-20T11:47:05Z</time>
      </trkpt>
      <trkpt lat="42.74674" lon="1.61364">
        <ele>1841.549</ele>
        <time>2022-02-20T11:47:07Z</time>
      </trkpt>
      <trkpt lat="42.74674" lon="1.61364">
        <ele>1841.58</ele>
        <time>2022-02-20T11:47:09Z</time>
      </trkpt>
      <trkpt lat="42.74674" lon="1.61364">
        <ele>1841.825</ele>
        <time>2022-02-20T11:47:11Z</time>
      </trkpt>
      <trkpt lat="42.74674" lon="1.61364">
        <ele>1841.827</ele>
        <time>2022-02-20T11:47:13Z</time>
      </trkpt>
      <trkpt lat="42.74674" lon="1.61364">
        <ele>1841.832</ele>
        <time>2022-02-20T11:47:15Z</time>
      </trkpt>
      <trkpt lat="42.74674" lon="1.61364">
        <ele>1841.836</ele>
        <time>2022-02-20T11:47:17Z</time>
      </trkpt>
      <trkpt lat="42.74674" lon="1.61364">
        <ele>1841.837</ele>
        <time>2022-02-20T11:47:19Z</time>
      </trkpt>
      <trkpt lat="42.74674" lon="1.61364">
        <ele>1841.84</ele>
        <time>2022-02-20T11:47:21Z</time>
      </trkpt>
      <trkpt lat="42.74674" lon="1.61364">
        <ele>1841.844</ele>
        <time>2022-02-20T11:47:23Z</time>
      </trkpt>
      <trkpt lat="42.74674" lon="1.61364">
        <ele>1841.845</ele>
        <time>2022-02-20T11:47:25Z</time>
      </trkpt>
      <trkpt lat="42.74674" lon="1.61364">
        <ele>1841.849</ele>
        <time>2022-02-20T11:47:27Z</time>
      </trkpt>
      <trkpt lat="42.74674" lon="1.61364">
        <ele>1841.849</ele>
        <time>2022-02-20T11:47:29Z</time>
      </trkpt>
      <trkpt lat="42.74674" lon="1.61364">
        <ele>1841.852</ele>
        <time>2022-02-20T11:47:31Z</time>
      </trkpt>
      <trkpt lat="42.74674" lon="1.61364">
        <ele>1841.853</ele>
        <time>2022-02-20T11:47:33Z</time>
      </trkpt>
      <trkpt lat="42.74674" lon="1.61364">
        <ele>1841.852</ele>
        <time>2022-02-20T11:47:35Z</time>
      </trkpt>
      <trkpt lat="42.74674" lon="1.61364">
        <ele>1841.853</ele>
        <time>2022-02-20T11:47:37Z</time>
      </trkpt>
      <trkpt lat="42.74674" lon="1.61364">
        <ele>1842.202</ele>
        <time>2022-02-20T11:47:39Z</time>
      </trkpt>
      <trkpt lat="42.74674" lon="1.61365">
        <ele>1842.808</ele>
        <time>2022-02-20T11:47:41Z</time>
      </trkpt>
      <trkpt lat="42.74674" lon="1.61366">
        <ele>1843.032</ele>
        <time>2022-02-20T11:47:43Z</time>
      </trkpt>
      <trkpt lat="42.74674" lon="1.61366">
        <ele>1843.311</ele>
        <time>2022-02-20T11:47:45Z</time>
      </trkpt>
      <trkpt lat="42.74674" lon="1.61366">
        <ele>1843.314</ele>
        <time>2022-02-20T11:47:47Z</time>
      </trkpt>
      <trkpt lat="42.74674" lon="1.61366">
        <ele>1843.271</ele>
        <time>2022-02-20T11:47:49Z</time>
      </trkpt>
      <trkpt lat="42.74674" lon="1.61366">
        <ele>1843.271</ele>
        <time>2022-02-20T11:47:51Z</time>
      </trkpt>
      <trkpt lat="42.74674" lon="1.61365">
        <ele>1843.328</ele>
        <time>2022-02-20T11:47:53Z</time>
      </trkpt>
      <trkpt lat="42.74674" lon="1.61366">
        <ele>1843.711</ele>
        <time>2022-02-20T11:47:55Z</time>
      </trkpt>
      <trkpt lat="42.74673" lon="1.61366">
        <ele>1843.632</ele>
        <time>2022-02-20T11:47:57Z</time>
      </trkpt>
      <trkpt lat="42.74673" lon="1.61366">
        <ele>1843.414</ele>
        <time>2022-02-20T11:47:59Z</time>
      </trkpt>
      <trkpt lat="42.74673" lon="1.61366">
        <ele>1843.783</ele>
        <time>2022-02-20T11:48:01Z</time>
      </trkpt>
      <trkpt lat="42.74674" lon="1.61365">
        <ele>1843.779</ele>
        <time>2022-02-20T11:48:03Z</time>
      </trkpt>
      <trkpt lat="42.74674" lon="1.61365">
        <ele>1843.824</ele>
        <time>2022-02-20T11:48:05Z</time>
      </trkpt>
      <trkpt lat="42.74674" lon="1.61365">
        <ele>1843.833</ele>
        <time>2022-02-20T11:48:07Z</time>
      </trkpt>
      <trkpt lat="42.74674" lon="1.61365">
        <ele>1843.835</ele>
        <time>2022-02-20T11:48:09Z</time>
      </trkpt>
      <trkpt lat="42.74674" lon="1.61365">
        <ele>1843.996</ele>
        <time>2022-02-20T11:48:11Z</time>
      </trkpt>
      <trkpt lat="42.74674" lon="1.61365">
        <ele>1843.879</ele>
        <time>2022-02-20T11:48:13Z</time>
      </trkpt>
      <trkpt lat="42.74674" lon="1.61365">
        <ele>1843.899</ele>
        <time>2022-02-20T11:48:15Z</time>
      </trkpt>
      <trkpt lat="42.74674" lon="1.61366">
        <ele>1844.204</ele>
        <time>2022-02-20T11:48:17Z</time>
      </trkpt>
      <trkpt lat="42.74673" lon="1.61366">
        <ele>1844.288</ele>
        <time>2022-02-20T11:48:19Z</time>
      </trkpt>
      <trkpt lat="42.74673" lon="1.61365">
        <ele>1844.4</ele>
        <time>2022-02-20T11:48:21Z</time>
      </trkpt>
      <trkpt lat="42.74673" lon="1.61365">
        <ele>1844.6</ele>
        <time>2022-02-20T11:48:23Z</time>
      </trkpt>
      <trkpt lat="42.74673" lon="1.61365">
        <ele>1844.605</ele>
        <time>2022-02-20T11:48:25Z</time>
      </trkpt>
      <trkpt lat="42.74673" lon="1.61365">
        <ele>1844.606</ele>
        <time>2022-02-20T11:48:27Z</time>
      </trkpt>
      <trkpt lat="42.74673" lon="1.61365">
        <ele>1844.387</ele>
        <time>2022-02-20T11:48:29Z</time>
      </trkpt>
      <trkpt lat="42.74673" lon="1.61365">
        <ele>1844.352</ele>
        <time>2022-02-20T11:48:31Z</time>
      </trkpt>
      <trkpt lat="42.74673" lon="1.61365">
        <ele>1844.356</ele>
        <time>2022-02-20T11:48:33Z</time>
      </trkpt>
      <trkpt lat="42.74673" lon="1.61365">
        <ele>1844.468</ele>
        <time>2022-02-20T11:48:35Z</time>
      </trkpt>
      <trkpt lat="42.74673" lon="1.61365">
        <ele>1844.605</ele>
        <time>2022-02-20T11:48:37Z</time>
      </trkpt>
      <trkpt lat="42.74673" lon="1.61365">
        <ele>1844.61</ele>
        <time>2022-02-20T11:48:39Z</time>
      </trkpt>
      <trkpt lat="42.74673" lon="1.61365">
        <ele>1844.801</ele>
        <time>2022-02-20T11:48:41Z</time>
      </trkpt>
      <trkpt lat="42.74673" lon="1.61365">
        <ele>1844.873</ele>
        <time>2022-02-20T11:48:43Z</time>
      </trkpt>
      <trkpt lat="42.74673" lon="1.61365">
        <ele>1845.444</ele>
        <time>2022-02-20T11:48:45Z</time>
      </trkpt>
      <trkpt lat="42.74673" lon="1.61365">
        <ele>1845.751</ele>
        <time>2022-02-20T11:48:47Z</time>
      </trkpt>
      <trkpt lat="42.74673" lon="1.61365">
        <ele>1845.767</ele>
        <time>2022-02-20T11:48:49Z</time>
      </trkpt>
      <trkpt lat="42.74673" lon="1.61365">
        <ele>1846.678</ele>
        <time>2022-02-20T11:48:51Z</time>
      </trkpt>
      <trkpt lat="42.74673" lon="1.61365">
        <ele>1846.666</ele>
        <time>2022-02-20T11:48:53Z</time>
      </trkpt>
      <trkpt lat="42.74673" lon="1.61365">
        <ele>1846.675</ele>
        <time>2022-02-20T11:48:55Z</time>
      </trkpt>
      <trkpt lat="42.74673" lon="1.61365">
        <ele>1846.575</ele>
        <time>2022-02-20T11:48:57Z</time>
      </trkpt>
      <trkpt lat="42.74673" lon="1.61365">
        <ele>1846.579</ele>
        <time>2022-02-20T11:48:59Z</time>
      </trkpt>
      <trkpt lat="42.74673" lon="1.61365">
        <ele>1846.584</ele>
        <time>2022-02-20T11:49:01Z</time>
      </trkpt>
      <trkpt lat="42.74673" lon="1.61365">
        <ele>1846.439</ele>
        <time>2022-02-20T11:49:03Z</time>
      </trkpt>
      <trkpt lat="42.74673" lon="1.61365">
        <ele>1847.147</ele>
        <time>2022-02-20T11:49:05Z</time>
      </trkpt>
      <trkpt lat="42.74674" lon="1.61365">
        <ele>1847.133</ele>
        <time>2022-02-20T11:49:07Z</time>
      </trkpt>
      <trkpt lat="42.74674" lon="1.61365">
        <ele>1847.134</ele>
        <time>2022-02-20T11:49:09Z</time>
      </trkpt>
      <trkpt lat="42.74674" lon="1.61365">
        <ele>1847.137</ele>
        <time>2022-02-20T11:49:11Z</time>
      </trkpt>
      <trkpt lat="42.74673" lon="1.61365">
        <ele>1846.909</ele>
        <time>2022-02-20T11:49:13Z</time>
      </trkpt>
      <trkpt lat="42.74671" lon="1.61364">
        <ele>1847.252</ele>
        <time>2022-02-20T11:49:15Z</time>
      </trkpt>
      <trkpt lat="42.74671" lon="1.61366">
        <ele>1847.206</ele>
        <time>2022-02-20T11:49:17Z</time>
      </trkpt>
      <trkpt lat="42.74672" lon="1.61367">
        <ele>1847.787</ele>
        <time>2022-02-20T11:49:19Z</time>
      </trkpt>
      <trkpt lat="42.74672" lon="1.61368">
        <ele>1847.153</ele>
        <time>2022-02-20T11:49:21Z</time>
      </trkpt>
      <trkpt lat="42.74673" lon="1.61368">
        <ele>1847.664</ele>
        <time>2022-02-20T11:49:23Z</time>
      </trkpt>
      <trkpt lat="42.74672" lon="1.61366">
        <ele>1848.395</ele>
        <time>2022-02-20T11:49:25Z</time>
      </trkpt>
      <trkpt lat="42.7467" lon="1.61364">
        <ele>1847.84</ele>
        <time>2022-02-20T11:49:27Z</time>
      </trkpt>
      <trkpt lat="42.7467" lon="1.61362">
        <ele>1847.621</ele>
        <time>2022-02-20T11:49:29Z</time>
      </trkpt>
      <trkpt lat="42.7467" lon="1.61359">
        <ele>1847.843</ele>
        <time>2022-02-20T11:49:31Z</time>
      </trkpt>
      <trkpt lat="42.74672" lon="1.61356">
        <ele>1847.156</ele>
        <time>2022-02-20T11:49:33Z</time>
      </trkpt>
      <trkpt lat="42.74673" lon="1.61354">
        <ele>1847.132</ele>
        <time>2022-02-20T11:49:35Z</time>
      </trkpt>
      <trkpt lat="42.74674" lon="1.61351">
        <ele>1847.993</ele>
        <time>2022-02-20T11:49:37Z</time>
      </trkpt>
      <trkpt lat="42.74674" lon="1.61347">
        <ele>1848.46</ele>
        <time>2022-02-20T11:49:39Z</time>
      </trkpt>
      <trkpt lat="42.74674" lon="1.61344">
        <ele>1848.754</ele>
        <time>2022-02-20T11:49:41Z</time>
      </trkpt>
      <trkpt lat="42.74676" lon="1.61343">
        <ele>1849.445</ele>
        <time>2022-02-20T11:49:43Z</time>
      </trkpt>
      <trkpt lat="42.74677" lon="1.61342">
        <ele>1849.522</ele>
        <time>2022-02-20T11:49:45Z</time>
      </trkpt>
      <trkpt lat="42.74678" lon="1.61343">
        <ele>1849.65</ele>
        <time>2022-02-20T11:49:47Z</time>
      </trkpt>
      <trkpt lat="42.7468" lon="1.61343">
        <ele>1850.058</ele>
        <time>2022-02-20T11:49:49Z</time>
      </trkpt>
      <trkpt lat="42.7468" lon="1.61344">
        <ele>1850.176</ele>
        <time>2022-02-20T11:49:51Z</time>
      </trkpt>
      <trkpt lat="42.74681" lon="1.61344">
        <ele>1850.684</ele>
        <time>2022-02-20T11:49:53Z</time>
      </trkpt>
      <trkpt lat="42.74682" lon="1.61345">
        <ele>1851.331</ele>
        <time>2022-02-20T11:49:55Z</time>
      </trkpt>
      <trkpt lat="42.74682" lon="1.61346">
        <ele>1851.234</ele>
        <time>2022-02-20T11:49:57Z</time>
      </trkpt>
      <trkpt lat="42.74683" lon="1.61347">
        <ele>1851.43</ele>
        <time>2022-02-20T11:49:59Z</time>
      </trkpt>
      <trkpt lat="42.74684" lon="1.61348">
        <ele>1851.237</ele>
        <time>2022-02-20T11:50:01Z</time>
      </trkpt>
      <trkpt lat="42.74684" lon="1.61348">
        <ele>1850.967</ele>
        <time>2022-02-20T11:50:03Z</time>
      </trkpt>
      <trkpt lat="42.74685" lon="1.61349">
        <ele>1850.821</ele>
        <time>2022-02-20T11:50:05Z</time>
      </trkpt>
      <trkpt lat="42.74685" lon="1.6135">
        <ele>1850.773</ele>
        <time>2022-02-20T11:50:07Z</time>
      </trkpt>
      <trkpt lat="42.74685" lon="1.61351">
        <ele>1850.359</ele>
        <time>2022-02-20T11:50:09Z</time>
      </trkpt>
      <trkpt lat="42.74685" lon="1.61352">
        <ele>1850.498</ele>
        <time>2022-02-20T11:50:11Z</time>
      </trkpt>
      <trkpt lat="42.74686" lon="1.61351">
        <ele>1850.528</ele>
        <time>2022-02-20T11:50:13Z</time>
      </trkpt>
      <trkpt lat="42.74687" lon="1.61352">
        <ele>1850.651</ele>
        <time>2022-02-20T11:50:15Z</time>
      </trkpt>
      <trkpt lat="42.74688" lon="1.61352">
        <ele>1851.1</ele>
        <time>2022-02-20T11:50:17Z</time>
      </trkpt>
      <trkpt lat="42.74688" lon="1.61352">
        <ele>1851.145</ele>
        <time>2022-02-20T11:50:19Z</time>
      </trkpt>
      <trkpt lat="42.74689" lon="1.61352">
        <ele>1851.203</ele>
        <time>2022-02-20T11:50:21Z</time>
      </trkpt>
      <trkpt lat="42.74689" lon="1.61352">
        <ele>1851.232</ele>
        <time>2022-02-20T11:50:23Z</time>
      </trkpt>
      <trkpt lat="42.7469" lon="1.61353">
        <ele>1851.655</ele>
        <time>2022-02-20T11:50:25Z</time>
      </trkpt>
      <trkpt lat="42.7469" lon="1.61354">
        <ele>1851.847</ele>
        <time>2022-02-20T11:50:27Z</time>
      </trkpt>
      <trkpt lat="42.74691" lon="1.61355">
        <ele>1852.159</ele>
        <time>2022-02-20T11:50:29Z</time>
      </trkpt>
      <trkpt lat="42.74691" lon="1.61354">
        <ele>1852.143</ele>
        <time>2022-02-20T11:50:31Z</time>
      </trkpt>
      <trkpt lat="42.74691" lon="1.61354">
        <ele>1852.139</ele>
        <time>2022-02-20T11:50:33Z</time>
      </trkpt>
      <trkpt lat="42.74691" lon="1.61354">
        <ele>1852.139</ele>
        <time>2022-02-20T11:50:35Z</time>
      </trkpt>
      <trkpt lat="42.74691" lon="1.61354">
        <ele>1852.137</ele>
        <time>2022-02-20T11:50:37Z</time>
      </trkpt>
      <trkpt lat="42.74691" lon="1.61354">
        <ele>1852.136</ele>
        <time>2022-02-20T11:50:39Z</time>
      </trkpt>
      <trkpt lat="42.7469" lon="1.61354">
        <ele>1851.576</ele>
        <time>2022-02-20T11:50:41Z</time>
      </trkpt>
      <trkpt lat="42.74688" lon="1.61355">
        <ele>1852.009</ele>
        <time>2022-02-20T11:50:43Z</time>
      </trkpt>
      <trkpt lat="42.74688" lon="1.61353">
        <ele>1851.991</ele>
        <time>2022-02-20T11:50:45Z</time>
      </trkpt>
      <trkpt lat="42.74688" lon="1.61353">
        <ele>1851.879</ele>
        <time>2022-02-20T11:50:47Z</time>
      </trkpt>
      <trkpt lat="42.74687" lon="1.61352">
        <ele>1851.705</ele>
        <time>2022-02-20T11:50:49Z</time>
      </trkpt>
      <trkpt lat="42.74686" lon="1.61352">
        <ele>1851.296</ele>
        <time>2022-02-20T11:50:51Z</time>
      </trkpt>
      <trkpt lat="42.74685" lon="1.61351">
        <ele>1851.539</ele>
        <time>2022-02-20T11:50:53Z</time>
      </trkpt>
      <trkpt lat="42.74685" lon="1.61351">
        <ele>1851.368</ele>
        <time>2022-02-20T11:50:55Z</time>
      </trkpt>
      <trkpt lat="42.74683" lon="1.61348">
        <ele>1851.124</ele>
        <time>2022-02-20T11:50:57Z</time>
      </trkpt>
      <trkpt lat="42.74682" lon="1.61347">
        <ele>1850.994</ele>
        <time>2022-02-20T11:50:59Z</time>
      </trkpt>
      <trkpt lat="42.74682" lon="1.61346">
        <ele>1851.287</ele>
        <time>2022-02-20T11:51:01Z</time>
      </trkpt>
      <trkpt lat="42.74681" lon="1.61347">
        <ele>1851.922</ele>
        <time>2022-02-20T11:51:03Z</time>
      </trkpt>
      <trkpt lat="42.7468" lon="1.61346">
        <ele>1851.595</ele>
        <time>2022-02-20T11:51:05Z</time>
      </trkpt>
      <trkpt lat="42.74679" lon="1.61345">
        <ele>1851.009</ele>
        <time>2022-02-20T11:51:07Z</time>
      </trkpt>
      <trkpt lat="42.74679" lon="1.61345">
        <ele>1850.943</ele>
        <time>2022-02-20T11:51:09Z</time>
      </trkpt>
      <trkpt lat="42.74678" lon="1.61345">
        <ele>1851.291</ele>
        <time>2022-02-20T11:51:11Z</time>
      </trkpt>
      <trkpt lat="42.74677" lon="1.61344">
        <ele>1850.912</ele>
        <time>2022-02-20T11:51:13Z</time>
      </trkpt>
      <trkpt lat="42.74675" lon="1.61344">
        <ele>1850.652</ele>
        <time>2022-02-20T11:51:15Z</time>
      </trkpt>
      <trkpt lat="42.74674" lon="1.61343">
        <ele>1850.165</ele>
        <time>2022-02-20T11:51:17Z</time>
      </trkpt>
      <trkpt lat="42.74672" lon="1.61344">
        <ele>1849.712</ele>
        <time>2022-02-20T11:51:19Z</time>
      </trkpt>
      <trkpt lat="42.74671" lon="1.61345">
        <ele>1849.305</ele>
        <time>2022-02-20T11:51:21Z</time>
      </trkpt>
      <trkpt lat="42.74671" lon="1.61346">
        <ele>1849.066</ele>
        <time>2022-02-20T11:51:23Z</time>
      </trkpt>
      <trkpt lat="42.7467" lon="1.61348">
        <ele>1848.448</ele>
        <time>2022-02-20T11:51:25Z</time>
      </trkpt>
      <trkpt lat="42.74671" lon="1.6135">
        <ele>1847.225</ele>
        <time>2022-02-20T11:51:27Z</time>
      </trkpt>
      <trkpt lat="42.74671" lon="1.61352">
        <ele>1846.59</ele>
        <time>2022-02-20T11:51:29Z</time>
      </trkpt>
      <trkpt lat="42.7467" lon="1.61355">
        <ele>1845.905</ele>
        <time>2022-02-20T11:51:31Z</time>
      </trkpt>
      <trkpt lat="42.7467" lon="1.61357">
        <ele>1845.354</ele>
        <time>2022-02-20T11:51:33Z</time>
      </trkpt>
      <trkpt lat="42.7467" lon="1.61359">
        <ele>1845.031</ele>
        <time>2022-02-20T11:51:35Z</time>
      </trkpt>
      <trkpt lat="42.74671" lon="1.6136">
        <ele>1844.563</ele>
        <time>2022-02-20T11:51:37Z</time>
      </trkpt>
      <trkpt lat="42.74673" lon="1.61362">
        <ele>1843.079</ele>
        <time>2022-02-20T11:51:39Z</time>
      </trkpt>
      <trkpt lat="42.74675" lon="1.61362">
        <ele>1841.225</ele>
        <time>2022-02-20T11:51:41Z</time>
      </trkpt>
      <trkpt lat="42.74676" lon="1.61359">
        <ele>1841.277</ele>
        <time>2022-02-20T11:51:43Z</time>
      </trkpt>
      <trkpt lat="42.74676" lon="1.61358">
        <ele>1840.819</ele>
        <time>2022-02-20T11:51:45Z</time>
      </trkpt>
      <trkpt lat="42.74676" lon="1.61357">
        <ele>1841.186</ele>
        <time>2022-02-20T11:51:47Z</time>
      </trkpt>
      <trkpt lat="42.74675" lon="1.61357">
        <ele>1840.778</ele>
        <time>2022-02-20T11:51:49Z</time>
      </trkpt>
      <trkpt lat="42.74676" lon="1.61356">
        <ele>1840.133</ele>
        <time>2022-02-20T11:51:51Z</time>
      </trkpt>
      <trkpt lat="42.74675" lon="1.61357">
        <ele>1840.087</ele>
        <time>2022-02-20T11:51:53Z</time>
      </trkpt>
      <trkpt lat="42.74675" lon="1.61357">
        <ele>1840.078</ele>
        <time>2022-02-20T11:51:55Z</time>
      </trkpt>
      <trkpt lat="42.74675" lon="1.61357">
        <ele>1840.082</ele>
        <time>2022-02-20T11:51:57Z</time>
      </trkpt>
      <trkpt lat="42.74675" lon="1.61357">
        <ele>1840.092</ele>
        <time>2022-02-20T11:51:59Z</time>
      </trkpt>
      <trkpt lat="42.74675" lon="1.61357">
        <ele>1840.289</ele>
        <time>2022-02-20T11:52:01Z</time>
      </trkpt>
      <trkpt lat="42.74676" lon="1.61357">
        <ele>1840.311</ele>
        <time>2022-02-20T11:52:03Z</time>
      </trkpt>
      <trkpt lat="42.74676" lon="1.61357">
        <ele>1840.314</ele>
        <time>2022-02-20T11:52:05Z</time>
      </trkpt>
      <trkpt lat="42.74676" lon="1.61357">
        <ele>1840.315</ele>
        <time>2022-02-20T11:52:07Z</time>
      </trkpt>
      <trkpt lat="42.74676" lon="1.61357">
        <ele>1840.312</ele>
        <time>2022-02-20T11:52:09Z</time>
      </trkpt>
      <trkpt lat="42.74676" lon="1.61357">
        <ele>1840.313</ele>
        <time>2022-02-20T11:52:11Z</time>
      </trkpt>
      <trkpt lat="42.74676" lon="1.61357">
        <ele>1840.312</ele>
        <time>2022-02-20T11:52:13Z</time>
      </trkpt>
      <trkpt lat="42.74676" lon="1.61357">
        <ele>1840.314</ele>
        <time>2022-02-20T11:52:15Z</time>
      </trkpt>
      <trkpt lat="42.74676" lon="1.61357">
        <ele>1840.314</ele>
        <time>2022-02-20T11:52:17Z</time>
      </trkpt>
      <trkpt lat="42.74676" lon="1.61357">
        <ele>1840.316</ele>
        <time>2022-02-20T11:52:19Z</time>
      </trkpt>
      <trkpt lat="42.74676" lon="1.61357">
        <ele>1840.32</ele>
        <time>2022-02-20T11:52:21Z</time>
      </trkpt>
      <trkpt lat="42.74676" lon="1.61357">
        <ele>1840.323</ele>
        <time>2022-02-20T11:52:23Z</time>
      </trkpt>
      <trkpt lat="42.74676" lon="1.61357">
        <ele>1840.321</ele>
        <time>2022-02-20T11:52:25Z</time>
      </trkpt>
      <trkpt lat="42.74676" lon="1.61357">
        <ele>1840.325</ele>
        <time>2022-02-20T11:52:27Z</time>
      </trkpt>
      <trkpt lat="42.74676" lon="1.61357">
        <ele>1840.323</ele>
        <time>2022-02-20T11:52:29Z</time>
      </trkpt>
      <trkpt lat="42.74676" lon="1.61357">
        <ele>1840.324</ele>
        <time>2022-02-20T11:52:31Z</time>
      </trkpt>
      <trkpt lat="42.74676" lon="1.61357">
        <ele>1840.324</ele>
        <time>2022-02-20T11:52:33Z</time>
      </trkpt>
      <trkpt lat="42.74676" lon="1.61357">
        <ele>1840.322</ele>
        <time>2022-02-20T11:52:35Z</time>
      </trkpt>
      <trkpt lat="42.74676" lon="1.61357">
        <ele>1840.319</ele>
        <time>2022-02-20T11:52:37Z</time>
      </trkpt>
      <trkpt lat="42.74676" lon="1.61357">
        <ele>1840.315</ele>
        <time>2022-02-20T11:52:39Z</time>
      </trkpt>
      <trkpt lat="42.74676" lon="1.61357">
        <ele>1840.316</ele>
        <time>2022-02-20T11:52:41Z</time>
      </trkpt>
      <trkpt lat="42.74676" lon="1.61357">
        <ele>1840.318</ele>
        <time>2022-02-20T11:52:43Z</time>
      </trkpt>
      <trkpt lat="42.74676" lon="1.61357">
        <ele>1840.317</ele>
        <time>2022-02-20T11:52:45Z</time>
      </trkpt>
      <trkpt lat="42.74676" lon="1.61357">
        <ele>1840.317</ele>
        <time>2022-02-20T11:52:47Z</time>
      </trkpt>
      <trkpt lat="42.74675" lon="1.61357">
        <ele>1840.32</ele>
        <time>2022-02-20T11:52:49Z</time>
      </trkpt>
      <trkpt lat="42.74676" lon="1.61357">
        <ele>1840.31</ele>
        <time>2022-02-20T11:52:51Z</time>
      </trkpt>
      <trkpt lat="42.74676" lon="1.61357">
        <ele>1840.308</ele>
        <time>2022-02-20T11:52:53Z</time>
      </trkpt>
      <trkpt lat="42.74676" lon="1.61357">
        <ele>1840.303</ele>
        <time>2022-02-20T11:52:55Z</time>
      </trkpt>
      <trkpt lat="42.74676" lon="1.61357">
        <ele>1840.303</ele>
        <time>2022-02-20T11:52:57Z</time>
      </trkpt>
      <trkpt lat="42.74676" lon="1.61357">
        <ele>1840.303</ele>
        <time>2022-02-20T11:52:59Z</time>
      </trkpt>
      <trkpt lat="42.74676" lon="1.61357">
        <ele>1840.302</ele>
        <time>2022-02-20T11:53:01Z</time>
      </trkpt>
      <trkpt lat="42.74676" lon="1.61357">
        <ele>1840.3</ele>
        <time>2022-02-20T11:53:03Z</time>
      </trkpt>
      <trkpt lat="42.74676" lon="1.61357">
        <ele>1840.301</ele>
        <time>2022-02-20T11:53:05Z</time>
      </trkpt>
      <trkpt lat="42.74676" lon="1.61357">
        <ele>1840.302</ele>
        <time>2022-02-20T11:53:07Z</time>
      </trkpt>
      <trkpt lat="42.74676" lon="1.61357">
        <ele>1840.303</ele>
        <time>2022-02-20T11:53:09Z</time>
      </trkpt>
      <trkpt lat="42.74676" lon="1.61357">
        <ele>1840.305</ele>
        <time>2022-02-20T11:53:11Z</time>
      </trkpt>
      <trkpt lat="42.74676" lon="1.61357">
        <ele>1840.306</ele>
        <time>2022-02-20T11:53:13Z</time>
      </trkpt>
      <trkpt lat="42.74676" lon="1.61357">
        <ele>1840.31</ele>
        <time>2022-02-20T11:53:15Z</time>
      </trkpt>
      <trkpt lat="42.74676" lon="1.61357">
        <ele>1840.31</ele>
        <time>2022-02-20T11:53:17Z</time>
      </trkpt>
      <trkpt lat="42.74676" lon="1.61357">
        <ele>1840.308</ele>
        <time>2022-02-20T11:53:19Z</time>
      </trkpt>
      <trkpt lat="42.74676" lon="1.61357">
        <ele>1840.313</ele>
        <time>2022-02-20T11:53:21Z</time>
      </trkpt>
      <trkpt lat="42.74676" lon="1.61357">
        <ele>1840.313</ele>
        <time>2022-02-20T11:53:23Z</time>
      </trkpt>
      <trkpt lat="42.74676" lon="1.61357">
        <ele>1840.314</ele>
        <time>2022-02-20T11:53:25Z</time>
      </trkpt>
      <trkpt lat="42.74676" lon="1.61357">
        <ele>1840.315</ele>
        <time>2022-02-20T11:53:27Z</time>
      </trkpt>
      <trkpt lat="42.74676" lon="1.61357">
        <ele>1840.316</ele>
        <time>2022-02-20T11:53:29Z</time>
      </trkpt>
      <trkpt lat="42.74676" lon="1.61357">
        <ele>1840.314</ele>
        <time>2022-02-20T11:53:31Z</time>
      </trkpt>
      <trkpt lat="42.74676" lon="1.61357">
        <ele>1840.315</ele>
        <time>2022-02-20T11:53:33Z</time>
      </trkpt>
      <trkpt lat="42.74676" lon="1.61357">
        <ele>1840.32</ele>
        <time>2022-02-20T11:53:35Z</time>
      </trkpt>
      <trkpt lat="42.74676" lon="1.61357">
        <ele>1840.317</ele>
        <time>2022-02-20T11:53:37Z</time>
      </trkpt>
      <trkpt lat="42.74676" lon="1.61357">
        <ele>1840.319</ele>
        <time>2022-02-20T11:53:39Z</time>
      </trkpt>
      <trkpt lat="42.74676" lon="1.61357">
        <ele>1840.319</ele>
        <time>2022-02-20T11:53:41Z</time>
      </trkpt>
      <trkpt lat="42.74676" lon="1.61357">
        <ele>1840.322</ele>
        <time>2022-02-20T11:53:43Z</time>
      </trkpt>
      <trkpt lat="42.74676" lon="1.61357">
        <ele>1840.326</ele>
        <time>2022-02-20T11:53:45Z</time>
      </trkpt>
      <trkpt lat="42.74676" lon="1.61357">
        <ele>1840.328</ele>
        <time>2022-02-20T11:53:47Z</time>
      </trkpt>
      <trkpt lat="42.74676" lon="1.61357">
        <ele>1840.331</ele>
        <time>2022-02-20T11:53:49Z</time>
      </trkpt>
      <trkpt lat="42.74676" lon="1.61357">
        <ele>1840.329</ele>
        <time>2022-02-20T11:53:51Z</time>
      </trkpt>
      <trkpt lat="42.74675" lon="1.61357">
        <ele>1840.329</ele>
        <time>2022-02-20T11:53:53Z</time>
      </trkpt>
      <trkpt lat="42.74675" lon="1.61357">
        <ele>1840.33</ele>
        <time>2022-02-20T11:53:55Z</time>
      </trkpt>
      <trkpt lat="42.74675" lon="1.61357">
        <ele>1840.335</ele>
        <time>2022-02-20T11:53:57Z</time>
      </trkpt>
      <trkpt lat="42.74676" lon="1.61357">
        <ele>1840.336</ele>
        <time>2022-02-20T11:53:59Z</time>
      </trkpt>
      <trkpt lat="42.74675" lon="1.61357">
        <ele>1840.335</ele>
        <time>2022-02-20T11:54:01Z</time>
      </trkpt>
      <trkpt lat="42.74675" lon="1.61357">
        <ele>1840.341</ele>
        <time>2022-02-20T11:54:03Z</time>
      </trkpt>
      <trkpt lat="42.74675" lon="1.61358">
        <ele>1840.348</ele>
        <time>2022-02-20T11:54:05Z</time>
      </trkpt>
      <trkpt lat="42.74675" lon="1.61358">
        <ele>1840.351</ele>
        <time>2022-02-20T11:54:07Z</time>
      </trkpt>
      <trkpt lat="42.74675" lon="1.61358">
        <ele>1840.426</ele>
        <time>2022-02-20T11:54:09Z</time>
      </trkpt>
      <trkpt lat="42.74676" lon="1.61358">
        <ele>1840.433</ele>
        <time>2022-02-20T11:54:11Z</time>
      </trkpt>
      <trkpt lat="42.74676" lon="1.61358">
        <ele>1840.434</ele>
        <time>2022-02-20T11:54:13Z</time>
      </trkpt>
      <trkpt lat="42.74676" lon="1.61358">
        <ele>1840.439</ele>
        <time>2022-02-20T11:54:15Z</time>
      </trkpt>
      <trkpt lat="42.74676" lon="1.61358">
        <ele>1840.436</ele>
        <time>2022-02-20T11:54:17Z</time>
      </trkpt>
      <trkpt lat="42.74676" lon="1.61358">
        <ele>1840.437</ele>
        <time>2022-02-20T11:54:19Z</time>
      </trkpt>
      <trkpt lat="42.74676" lon="1.61358">
        <ele>1840.432</ele>
        <time>2022-02-20T11:54:21Z</time>
      </trkpt>
      <trkpt lat="42.74676" lon="1.61358">
        <ele>1840.432</ele>
        <time>2022-02-20T11:54:23Z</time>
      </trkpt>
      <trkpt lat="42.74676" lon="1.61358">
        <ele>1840.434</ele>
        <time>2022-02-20T11:54:25Z</time>
      </trkpt>
      <trkpt lat="42.74676" lon="1.61358">
        <ele>1840.437</ele>
        <time>2022-02-20T11:54:27Z</time>
      </trkpt>
      <trkpt lat="42.74676" lon="1.61358">
        <ele>1840.64</ele>
        <time>2022-02-20T11:54:29Z</time>
      </trkpt>
      <trkpt lat="42.74676" lon="1.61358">
        <ele>1840.707</ele>
        <time>2022-02-20T11:54:31Z</time>
      </trkpt>
      <trkpt lat="42.74676" lon="1.61358">
        <ele>1840.709</ele>
        <time>2022-02-20T11:54:33Z</time>
      </trkpt>
      <trkpt lat="42.74676" lon="1.61358">
        <ele>1840.707</ele>
        <time>2022-02-20T11:54:35Z</time>
      </trkpt>
      <trkpt lat="42.74676" lon="1.61358">
        <ele>1840.708</ele>
        <time>2022-02-20T11:54:37Z</time>
      </trkpt>
      <trkpt lat="42.74676" lon="1.61358">
        <ele>1840.709</ele>
        <time>2022-02-20T11:54:39Z</time>
      </trkpt>
      <trkpt lat="42.74676" lon="1.61358">
        <ele>1840.711</ele>
        <time>2022-02-20T11:54:41Z</time>
      </trkpt>
      <trkpt lat="42.74676" lon="1.61358">
        <ele>1840.706</ele>
        <time>2022-02-20T11:54:43Z</time>
      </trkpt>
      <trkpt lat="42.74676" lon="1.61358">
        <ele>1840.704</ele>
        <time>2022-02-20T11:54:45Z</time>
      </trkpt>
      <trkpt lat="42.74676" lon="1.61358">
        <ele>1840.703</ele>
        <time>2022-02-20T11:54:47Z</time>
      </trkpt>
      <trkpt lat="42.74676" lon="1.61358">
        <ele>1840.7</ele>
        <time>2022-02-20T11:54:49Z</time>
      </trkpt>
      <trkpt lat="42.74676" lon="1.61358">
        <ele>1840.696</ele>
        <time>2022-02-20T11:54:51Z</time>
      </trkpt>
      <trkpt lat="42.74676" lon="1.61358">
        <ele>1840.697</ele>
        <time>2022-02-20T11:54:53Z</time>
      </trkpt>
      <trkpt lat="42.74676" lon="1.61358">
        <ele>1840.696</ele>
        <time>2022-02-20T11:54:55Z</time>
      </trkpt>
      <trkpt lat="42.74676" lon="1.61358">
        <ele>1840.694</ele>
        <time>2022-02-20T11:54:57Z</time>
      </trkpt>
      <trkpt lat="42.74676" lon="1.61358">
        <ele>1840.696</ele>
        <time>2022-02-20T11:54:59Z</time>
      </trkpt>
      <trkpt lat="42.74676" lon="1.61358">
        <ele>1840.696</ele>
        <time>2022-02-20T11:55:01Z</time>
      </trkpt>
      <trkpt lat="42.74676" lon="1.61358">
        <ele>1840.698</ele>
        <time>2022-02-20T11:55:03Z</time>
      </trkpt>
      <trkpt lat="42.74676" lon="1.61358">
        <ele>1840.698</ele>
        <time>2022-02-20T11:55:05Z</time>
      </trkpt>
      <trkpt lat="42.74676" lon="1.61358">
        <ele>1840.697</ele>
        <time>2022-02-20T11:55:07Z</time>
      </trkpt>
      <trkpt lat="42.74676" lon="1.61358">
        <ele>1840.695</ele>
        <time>2022-02-20T11:55:09Z</time>
      </trkpt>
      <trkpt lat="42.74676" lon="1.61358">
        <ele>1840.695</ele>
        <time>2022-02-20T11:55:11Z</time>
      </trkpt>
      <trkpt lat="42.74676" lon="1.61358">
        <ele>1840.693</ele>
        <time>2022-02-20T11:55:13Z</time>
      </trkpt>
      <trkpt lat="42.74676" lon="1.61358">
        <ele>1840.693</ele>
        <time>2022-02-20T11:55:15Z</time>
      </trkpt>
      <trkpt lat="42.74676" lon="1.61358">
        <ele>1840.693</ele>
        <time>2022-02-20T11:55:17Z</time>
      </trkpt>
      <trkpt lat="42.74676" lon="1.61358">
        <ele>1840.691</ele>
        <time>2022-02-20T11:55:19Z</time>
      </trkpt>
      <trkpt lat="42.74676" lon="1.61358">
        <ele>1840.693</ele>
        <time>2022-02-20T11:55:21Z</time>
      </trkpt>
      <trkpt lat="42.74676" lon="1.61358">
        <ele>1840.693</ele>
        <time>2022-02-20T11:55:23Z</time>
      </trkpt>
      <trkpt lat="42.74676" lon="1.61358">
        <ele>1840.697</ele>
        <time>2022-02-20T11:55:25Z</time>
      </trkpt>
      <trkpt lat="42.74676" lon="1.61358">
        <ele>1840.691</ele>
        <time>2022-02-20T11:55:27Z</time>
      </trkpt>
      <trkpt lat="42.74676" lon="1.61358">
        <ele>1840.692</ele>
        <time>2022-02-20T11:55:29Z</time>
      </trkpt>
      <trkpt lat="42.74676" lon="1.61358">
        <ele>1840.694</ele>
        <time>2022-02-20T11:55:31Z</time>
      </trkpt>
      <trkpt lat="42.74676" lon="1.61358">
        <ele>1840.696</ele>
        <time>2022-02-20T11:55:33Z</time>
      </trkpt>
      <trkpt lat="42.74676" lon="1.61358">
        <ele>1840.698</ele>
        <time>2022-02-20T11:55:35Z</time>
      </trkpt>
      <trkpt lat="42.74676" lon="1.61358">
        <ele>1840.697</ele>
        <time>2022-02-20T11:55:37Z</time>
      </trkpt>
      <trkpt lat="42.74676" lon="1.61358">
        <ele>1840.695</ele>
        <time>2022-02-20T11:55:39Z</time>
      </trkpt>
      <trkpt lat="42.74675" lon="1.61358">
        <ele>1840.691</ele>
        <time>2022-02-20T11:55:41Z</time>
      </trkpt>
      <trkpt lat="42.74675" lon="1.61358">
        <ele>1840.691</ele>
        <time>2022-02-20T11:55:43Z</time>
      </trkpt>
      <trkpt lat="42.74675" lon="1.61358">
        <ele>1840.691</ele>
        <time>2022-02-20T11:55:45Z</time>
      </trkpt>
      <trkpt lat="42.74675" lon="1.61358">
        <ele>1840.692</ele>
        <time>2022-02-20T11:55:47Z</time>
      </trkpt>
      <trkpt lat="42.74675" lon="1.61358">
        <ele>1840.694</ele>
        <time>2022-02-20T11:55:49Z</time>
      </trkpt>
      <trkpt lat="42.74675" lon="1.61358">
        <ele>1840.693</ele>
        <time>2022-02-20T11:55:51Z</time>
      </trkpt>
      <trkpt lat="42.74675" lon="1.61358">
        <ele>1840.693</ele>
        <time>2022-02-20T11:55:53Z</time>
      </trkpt>
      <trkpt lat="42.74675" lon="1.61358">
        <ele>1840.693</ele>
        <time>2022-02-20T11:55:55Z</time>
      </trkpt>
      <trkpt lat="42.74675" lon="1.61358">
        <ele>1840.691</ele>
        <time>2022-02-20T11:55:57Z</time>
      </trkpt>
      <trkpt lat="42.74675" lon="1.61358">
        <ele>1840.692</ele>
        <time>2022-02-20T11:55:59Z</time>
      </trkpt>
      <trkpt lat="42.74675" lon="1.61358">
        <ele>1840.688</ele>
        <time>2022-02-20T11:56:01Z</time>
      </trkpt>
      <trkpt lat="42.74675" lon="1.61358">
        <ele>1840.689</ele>
        <time>2022-02-20T11:56:03Z</time>
      </trkpt>
      <trkpt lat="42.74675" lon="1.61358">
        <ele>1840.687</ele>
        <time>2022-02-20T11:56:05Z</time>
      </trkpt>
      <trkpt lat="42.74675" lon="1.61358">
        <ele>1840.687</ele>
        <time>2022-02-20T11:56:07Z</time>
      </trkpt>
      <trkpt lat="42.74675" lon="1.61358">
        <ele>1840.685</ele>
        <time>2022-02-20T11:56:09Z</time>
      </trkpt>
      <trkpt lat="42.74675" lon="1.61358">
        <ele>1840.685</ele>
        <time>2022-02-20T11:56:11Z</time>
      </trkpt>
      <trkpt lat="42.74675" lon="1.61358">
        <ele>1840.684</ele>
        <time>2022-02-20T11:56:13Z</time>
      </trkpt>
      <trkpt lat="42.74675" lon="1.61358">
        <ele>1840.683</ele>
        <time>2022-02-20T11:56:15Z</time>
      </trkpt>
      <trkpt lat="42.74675" lon="1.61358">
        <ele>1840.686</ele>
        <time>2022-02-20T11:56:17Z</time>
      </trkpt>
      <trkpt lat="42.74675" lon="1.61358">
        <ele>1840.684</ele>
        <time>2022-02-20T11:56:19Z</time>
      </trkpt>
      <trkpt lat="42.74675" lon="1.61358">
        <ele>1840.681</ele>
        <time>2022-02-20T11:56:21Z</time>
      </trkpt>
      <trkpt lat="42.74675" lon="1.61358">
        <ele>1840.68</ele>
        <time>2022-02-20T11:56:23Z</time>
      </trkpt>
      <trkpt lat="42.74675" lon="1.61358">
        <ele>1840.68</ele>
        <time>2022-02-20T11:56:25Z</time>
      </trkpt>
      <trkpt lat="42.74675" lon="1.61358">
        <ele>1840.678</ele>
        <time>2022-02-20T11:56:27Z</time>
      </trkpt>
      <trkpt lat="42.74675" lon="1.61358">
        <ele>1840.673</ele>
        <time>2022-02-20T11:56:29Z</time>
      </trkpt>
      <trkpt lat="42.74675" lon="1.61358">
        <ele>1840.673</ele>
        <time>2022-02-20T11:56:31Z</time>
      </trkpt>
      <trkpt lat="42.74675" lon="1.61358">
        <ele>1840.672</ele>
        <time>2022-02-20T11:56:33Z</time>
      </trkpt>
      <trkpt lat="42.74675" lon="1.61358">
        <ele>1840.671</ele>
        <time>2022-02-20T11:56:35Z</time>
      </trkpt>
      <trkpt lat="42.74675" lon="1.61358">
        <ele>1840.674</ele>
        <time>2022-02-20T11:56:37Z</time>
      </trkpt>
      <trkpt lat="42.74675" lon="1.61358">
        <ele>1840.672</ele>
        <time>2022-02-20T11:56:39Z</time>
      </trkpt>
      <trkpt lat="42.74675" lon="1.61358">
        <ele>1840.667</ele>
        <time>2022-02-20T11:56:41Z</time>
      </trkpt>
      <trkpt lat="42.74675" lon="1.61358">
        <ele>1840.667</ele>
        <time>2022-02-20T11:56:43Z</time>
      </trkpt>
      <trkpt lat="42.74675" lon="1.61358">
        <ele>1840.666</ele>
        <time>2022-02-20T11:56:45Z</time>
      </trkpt>
      <trkpt lat="42.74675" lon="1.61358">
        <ele>1840.664</ele>
        <time>2022-02-20T11:56:47Z</time>
      </trkpt>
      <trkpt lat="42.74675" lon="1.61358">
        <ele>1840.771</ele>
        <time>2022-02-20T11:56:49Z</time>
      </trkpt>
      <trkpt lat="42.74675" lon="1.61358">
        <ele>1840.907</ele>
        <time>2022-02-20T11:56:51Z</time>
      </trkpt>
      <trkpt lat="42.74676" lon="1.61358">
        <ele>1840.909</ele>
        <time>2022-02-20T11:56:53Z</time>
      </trkpt>
      <trkpt lat="42.74676" lon="1.61358">
        <ele>1840.91</ele>
        <time>2022-02-20T11:56:55Z</time>
      </trkpt>
      <trkpt lat="42.74676" lon="1.61358">
        <ele>1840.911</ele>
        <time>2022-02-20T11:56:57Z</time>
      </trkpt>
      <trkpt lat="42.74676" lon="1.61358">
        <ele>1840.913</ele>
        <time>2022-02-20T11:56:59Z</time>
      </trkpt>
      <trkpt lat="42.74676" lon="1.61358">
        <ele>1840.91</ele>
        <time>2022-02-20T11:57:01Z</time>
      </trkpt>
      <trkpt lat="42.74676" lon="1.61358">
        <ele>1840.913</ele>
        <time>2022-02-20T11:57:03Z</time>
      </trkpt>
      <trkpt lat="42.74676" lon="1.61358">
        <ele>1840.914</ele>
        <time>2022-02-20T11:57:05Z</time>
      </trkpt>
      <trkpt lat="42.74675" lon="1.61358">
        <ele>1840.908</ele>
        <time>2022-02-20T11:57:07Z</time>
      </trkpt>
      <trkpt lat="42.74675" lon="1.61358">
        <ele>1840.907</ele>
        <time>2022-02-20T11:57:09Z</time>
      </trkpt>
      <trkpt lat="42.74675" lon="1.61358">
        <ele>1840.907</ele>
        <time>2022-02-20T11:57:11Z</time>
      </trkpt>
      <trkpt lat="42.74675" lon="1.61358">
        <ele>1840.91</ele>
        <time>2022-02-20T11:57:13Z</time>
      </trkpt>
      <trkpt lat="42.74675" lon="1.61358">
        <ele>1840.909</ele>
        <time>2022-02-20T11:57:15Z</time>
      </trkpt>
      <trkpt lat="42.74675" lon="1.61358">
        <ele>1840.907</ele>
        <time>2022-02-20T11:57:17Z</time>
      </trkpt>
      <trkpt lat="42.74675" lon="1.61358">
        <ele>1840.908</ele>
        <time>2022-02-20T11:57:19Z</time>
      </trkpt>
      <trkpt lat="42.74675" lon="1.61358">
        <ele>1840.91</ele>
        <time>2022-02-20T11:57:21Z</time>
      </trkpt>
      <trkpt lat="42.74676" lon="1.61358">
        <ele>1840.999</ele>
        <time>2022-02-20T11:57:23Z</time>
      </trkpt>
      <trkpt lat="42.74676" lon="1.61358">
        <ele>1841.004</ele>
        <time>2022-02-20T11:57:25Z</time>
      </trkpt>
      <trkpt lat="42.74676" lon="1.61358">
        <ele>1841.007</ele>
        <time>2022-02-20T11:57:27Z</time>
      </trkpt>
      <trkpt lat="42.74676" lon="1.61358">
        <ele>1841.008</ele>
        <time>2022-02-20T11:57:29Z</time>
      </trkpt>
      <trkpt lat="42.74676" lon="1.61358">
        <ele>1841.008</ele>
        <time>2022-02-20T11:57:31Z</time>
      </trkpt>
      <trkpt lat="42.74676" lon="1.61358">
        <ele>1841.005</ele>
        <time>2022-02-20T11:57:33Z</time>
      </trkpt>
      <trkpt lat="42.74676" lon="1.61358">
        <ele>1841.003</ele>
        <time>2022-02-20T11:57:35Z</time>
      </trkpt>
      <trkpt lat="42.74676" lon="1.61358">
        <ele>1840.77</ele>
        <time>2022-02-20T11:57:37Z</time>
      </trkpt>
      <trkpt lat="42.74675" lon="1.61358">
        <ele>1840.84</ele>
        <time>2022-02-20T11:57:39Z</time>
      </trkpt>
      <trkpt lat="42.74675" lon="1.61358">
        <ele>1840.842</ele>
        <time>2022-02-20T11:57:41Z</time>
      </trkpt>
      <trkpt lat="42.74675" lon="1.61358">
        <ele>1840.846</ele>
        <time>2022-02-20T11:57:43Z</time>
      </trkpt>
      <trkpt lat="42.74675" lon="1.61358">
        <ele>1840.85</ele>
        <time>2022-02-20T11:57:45Z</time>
      </trkpt>
      <trkpt lat="42.74675" lon="1.61358">
        <ele>1840.85</ele>
        <time>2022-02-20T11:57:47Z</time>
      </trkpt>
      <trkpt lat="42.74675" lon="1.61358">
        <ele>1840.849</ele>
        <time>2022-02-20T11:57:49Z</time>
      </trkpt>
      <trkpt lat="42.74675" lon="1.61358">
        <ele>1840.855</ele>
        <time>2022-02-20T11:57:51Z</time>
      </trkpt>
      <trkpt lat="42.74675" lon="1.61358">
        <ele>1840.861</ele>
        <time>2022-02-20T11:57:53Z</time>
      </trkpt>
      <trkpt lat="42.74675" lon="1.61358">
        <ele>1840.859</ele>
        <time>2022-02-20T11:57:55Z</time>
      </trkpt>
      <trkpt lat="42.74675" lon="1.61358">
        <ele>1840.858</ele>
        <time>2022-02-20T11:57:57Z</time>
      </trkpt>
      <trkpt lat="42.74675" lon="1.61358">
        <ele>1840.86</ele>
        <time>2022-02-20T11:57:59Z</time>
      </trkpt>
      <trkpt lat="42.74675" lon="1.61358">
        <ele>1840.857</ele>
        <time>2022-02-20T11:58:01Z</time>
      </trkpt>
      <trkpt lat="42.74675" lon="1.61358">
        <ele>1840.859</ele>
        <time>2022-02-20T11:58:03Z</time>
      </trkpt>
      <trkpt lat="42.74675" lon="1.61358">
        <ele>1840.861</ele>
        <time>2022-02-20T11:58:05Z</time>
      </trkpt>
      <trkpt lat="42.74675" lon="1.61358">
        <ele>1840.86</ele>
        <time>2022-02-20T11:58:07Z</time>
      </trkpt>
      <trkpt lat="42.74675" lon="1.61358">
        <ele>1840.862</ele>
        <time>2022-02-20T11:58:09Z</time>
      </trkpt>
      <trkpt lat="42.74675" lon="1.61358">
        <ele>1840.868</ele>
        <time>2022-02-20T11:58:11Z</time>
      </trkpt>
      <trkpt lat="42.74675" lon="1.61358">
        <ele>1840.867</ele>
        <time>2022-02-20T11:58:13Z</time>
      </trkpt>
      <trkpt lat="42.74675" lon="1.61358">
        <ele>1840.869</ele>
        <time>2022-02-20T11:58:15Z</time>
      </trkpt>
      <trkpt lat="42.74675" lon="1.61358">
        <ele>1840.869</ele>
        <time>2022-02-20T11:58:17Z</time>
      </trkpt>
      <trkpt lat="42.74675" lon="1.61358">
        <ele>1840.869</ele>
        <time>2022-02-20T11:58:19Z</time>
      </trkpt>
      <trkpt lat="42.74675" lon="1.61358">
        <ele>1840.873</ele>
        <time>2022-02-20T11:58:21Z</time>
      </trkpt>
      <trkpt lat="42.74675" lon="1.61358">
        <ele>1840.872</ele>
        <time>2022-02-20T11:58:23Z</time>
      </trkpt>
      <trkpt lat="42.74675" lon="1.61358">
        <ele>1840.872</ele>
        <time>2022-02-20T11:58:25Z</time>
      </trkpt>
      <trkpt lat="42.74675" lon="1.61358">
        <ele>1840.879</ele>
        <time>2022-02-20T11:58:27Z</time>
      </trkpt>
      <trkpt lat="42.74675" lon="1.61358">
        <ele>1840.881</ele>
        <time>2022-02-20T11:58:29Z</time>
      </trkpt>
      <trkpt lat="42.74675" lon="1.61358">
        <ele>1840.883</ele>
        <time>2022-02-20T11:58:31Z</time>
      </trkpt>
      <trkpt lat="42.74675" lon="1.61358">
        <ele>1840.881</ele>
        <time>2022-02-20T11:58:33Z</time>
      </trkpt>
      <trkpt lat="42.74675" lon="1.61358">
        <ele>1840.881</ele>
        <time>2022-02-20T11:58:35Z</time>
      </trkpt>
      <trkpt lat="42.74675" lon="1.61358">
        <ele>1840.886</ele>
        <time>2022-02-20T11:58:37Z</time>
      </trkpt>
      <trkpt lat="42.74675" lon="1.61358">
        <ele>1840.888</ele>
        <time>2022-02-20T11:58:39Z</time>
      </trkpt>
      <trkpt lat="42.74675" lon="1.61358">
        <ele>1840.889</ele>
        <time>2022-02-20T11:58:41Z</time>
      </trkpt>
      <trkpt lat="42.74675" lon="1.61358">
        <ele>1840.891</ele>
        <time>2022-02-20T11:58:43Z</time>
      </trkpt>
      <trkpt lat="42.74675" lon="1.61358">
        <ele>1840.894</ele>
        <time>2022-02-20T11:58:45Z</time>
      </trkpt>
      <trkpt lat="42.74675" lon="1.61358">
        <ele>1840.894</ele>
        <time>2022-02-20T11:58:47Z</time>
      </trkpt>
      <trkpt lat="42.74675" lon="1.61358">
        <ele>1840.893</ele>
        <time>2022-02-20T11:58:49Z</time>
      </trkpt>
      <trkpt lat="42.74675" lon="1.61358">
        <ele>1840.893</ele>
        <time>2022-02-20T11:58:51Z</time>
      </trkpt>
      <trkpt lat="42.74675" lon="1.61358">
        <ele>1840.888</ele>
        <time>2022-02-20T11:58:53Z</time>
      </trkpt>
      <trkpt lat="42.74675" lon="1.61358">
        <ele>1840.887</ele>
        <time>2022-02-20T11:58:55Z</time>
      </trkpt>
      <trkpt lat="42.74675" lon="1.61358">
        <ele>1840.89</ele>
        <time>2022-02-20T11:58:57Z</time>
      </trkpt>
      <trkpt lat="42.74675" lon="1.61358">
        <ele>1840.892</ele>
        <time>2022-02-20T11:58:59Z</time>
      </trkpt>
      <trkpt lat="42.74675" lon="1.61358">
        <ele>1840.892</ele>
        <time>2022-02-20T11:59:01Z</time>
      </trkpt>
      <trkpt lat="42.74675" lon="1.61358">
        <ele>1840.893</ele>
        <time>2022-02-20T11:59:03Z</time>
      </trkpt>
      <trkpt lat="42.74675" lon="1.61358">
        <ele>1840.894</ele>
        <time>2022-02-20T11:59:05Z</time>
      </trkpt>
      <trkpt lat="42.74675" lon="1.61358">
        <ele>1840.893</ele>
        <time>2022-02-20T11:59:07Z</time>
      </trkpt>
      <trkpt lat="42.74675" lon="1.61358">
        <ele>1840.893</ele>
        <time>2022-02-20T11:59:09Z</time>
      </trkpt>
      <trkpt lat="42.74675" lon="1.61358">
        <ele>1840.893</ele>
        <time>2022-02-20T11:59:11Z</time>
      </trkpt>
      <trkpt lat="42.74675" lon="1.61358">
        <ele>1840.89</ele>
        <time>2022-02-20T11:59:13Z</time>
      </trkpt>
      <trkpt lat="42.74675" lon="1.61358">
        <ele>1840.889</ele>
        <time>2022-02-20T11:59:15Z</time>
      </trkpt>
      <trkpt lat="42.74675" lon="1.61358">
        <ele>1840.892</ele>
        <time>2022-02-20T11:59:17Z</time>
      </trkpt>
      <trkpt lat="42.74675" lon="1.61358">
        <ele>1840.892</ele>
        <time>2022-02-20T11:59:19Z</time>
      </trkpt>
      <trkpt lat="42.74675" lon="1.61358">
        <ele>1840.893</ele>
        <time>2022-02-20T11:59:21Z</time>
      </trkpt>
      <trkpt lat="42.74675" lon="1.61358">
        <ele>1840.891</ele>
        <time>2022-02-20T11:59:23Z</time>
      </trkpt>
      <trkpt lat="42.74675" lon="1.61358">
        <ele>1840.893</ele>
        <time>2022-02-20T11:59:25Z</time>
      </trkpt>
      <trkpt lat="42.74675" lon="1.61358">
        <ele>1840.894</ele>
        <time>2022-02-20T11:59:27Z</time>
      </trkpt>
      <trkpt lat="42.74675" lon="1.61358">
        <ele>1840.897</ele>
        <time>2022-02-20T11:59:29Z</time>
      </trkpt>
      <trkpt lat="42.74675" lon="1.61358">
        <ele>1840.898</ele>
        <time>2022-02-20T11:59:31Z</time>
      </trkpt>
      <trkpt lat="42.74675" lon="1.61358">
        <ele>1840.896</ele>
        <time>2022-02-20T11:59:33Z</time>
      </trkpt>
      <trkpt lat="42.74675" lon="1.61358">
        <ele>1840.895</ele>
        <time>2022-02-20T11:59:35Z</time>
      </trkpt>
      <trkpt lat="42.74675" lon="1.61358">
        <ele>1840.889</ele>
        <time>2022-02-20T11:59:37Z</time>
      </trkpt>
      <trkpt lat="42.74675" lon="1.61358">
        <ele>1840.89</ele>
        <time>2022-02-20T11:59:39Z</time>
      </trkpt>
      <trkpt lat="42.74675" lon="1.61358">
        <ele>1840.893</ele>
        <time>2022-02-20T11:59:41Z</time>
      </trkpt>
      <trkpt lat="42.74675" lon="1.61358">
        <ele>1840.895</ele>
        <time>2022-02-20T11:59:43Z</time>
      </trkpt>
      <trkpt lat="42.74675" lon="1.61358">
        <ele>1840.894</ele>
        <time>2022-02-20T11:59:45Z</time>
      </trkpt>
      <trkpt lat="42.74675" lon="1.61358">
        <ele>1840.899</ele>
        <time>2022-02-20T11:59:47Z</time>
      </trkpt>
      <trkpt lat="42.74675" lon="1.61358">
        <ele>1840.9</ele>
        <time>2022-02-20T11:59:49Z</time>
      </trkpt>
      <trkpt lat="42.74675" lon="1.61358">
        <ele>1840.902</ele>
        <time>2022-02-20T11:59:51Z</time>
      </trkpt>
      <trkpt lat="42.74675" lon="1.61358">
        <ele>1840.903</ele>
        <time>2022-02-20T11:59:53Z</time>
      </trkpt>
      <trkpt lat="42.74675" lon="1.61358">
        <ele>1840.907</ele>
        <time>2022-02-20T11:59:55Z</time>
      </trkpt>
      <trkpt lat="42.74675" lon="1.61359">
        <ele>1840.906</ele>
        <time>2022-02-20T11:59:57Z</time>
      </trkpt>
      <trkpt lat="42.74675" lon="1.61359">
        <ele>1840.907</ele>
        <time>2022-02-20T11:59:59Z</time>
      </trkpt>
      <trkpt lat="42.74675" lon="1.61359">
        <ele>1840.908</ele>
        <time>2022-02-20T12:00:01Z</time>
      </trkpt>
      <trkpt lat="42.74675" lon="1.61359">
        <ele>1840.909</ele>
        <time>2022-02-20T12:00:03Z</time>
      </trkpt>
      <trkpt lat="42.74675" lon="1.61359">
        <ele>1840.908</ele>
        <time>2022-02-20T12:00:05Z</time>
      </trkpt>
      <trkpt lat="42.74675" lon="1.61359">
        <ele>1840.91</ele>
        <time>2022-02-20T12:00:07Z</time>
      </trkpt>
      <trkpt lat="42.74675" lon="1.61359">
        <ele>1840.913</ele>
        <time>2022-02-20T12:00:09Z</time>
      </trkpt>
      <trkpt lat="42.74675" lon="1.61359">
        <ele>1840.912</ele>
        <time>2022-02-20T12:00:11Z</time>
      </trkpt>
      <trkpt lat="42.74675" lon="1.61359">
        <ele>1840.914</ele>
        <time>2022-02-20T12:00:13Z</time>
      </trkpt>
      <trkpt lat="42.74675" lon="1.61359">
        <ele>1840.916</ele>
        <time>2022-02-20T12:00:15Z</time>
      </trkpt>
      <trkpt lat="42.74675" lon="1.61359">
        <ele>1840.918</ele>
        <time>2022-02-20T12:00:17Z</time>
      </trkpt>
      <trkpt lat="42.74675" lon="1.61359">
        <ele>1840.919</ele>
        <time>2022-02-20T12:00:19Z</time>
      </trkpt>
      <trkpt lat="42.74675" lon="1.61359">
        <ele>1840.921</ele>
        <time>2022-02-20T12:00:21Z</time>
      </trkpt>
      <trkpt lat="42.74675" lon="1.61359">
        <ele>1840.923</ele>
        <time>2022-02-20T12:00:23Z</time>
      </trkpt>
      <trkpt lat="42.74675" lon="1.61359">
        <ele>1840.922</ele>
        <time>2022-02-20T12:00:25Z</time>
      </trkpt>
      <trkpt lat="42.74675" lon="1.61359">
        <ele>1840.923</ele>
        <time>2022-02-20T12:00:27Z</time>
      </trkpt>
      <trkpt lat="42.74675" lon="1.61359">
        <ele>1840.924</ele>
        <time>2022-02-20T12:00:29Z</time>
      </trkpt>
      <trkpt lat="42.74675" lon="1.61359">
        <ele>1840.928</ele>
        <time>2022-02-20T12:00:31Z</time>
      </trkpt>
      <trkpt lat="42.74675" lon="1.61359">
        <ele>1840.927</ele>
        <time>2022-02-20T12:00:33Z</time>
      </trkpt>
      <trkpt lat="42.74675" lon="1.61359">
        <ele>1840.93</ele>
        <time>2022-02-20T12:00:35Z</time>
      </trkpt>
      <trkpt lat="42.74675" lon="1.61359">
        <ele>1840.935</ele>
        <time>2022-02-20T12:00:37Z</time>
      </trkpt>
      <trkpt lat="42.74675" lon="1.61359">
        <ele>1840.938</ele>
        <time>2022-02-20T12:00:39Z</time>
      </trkpt>
      <trkpt lat="42.74675" lon="1.61359">
        <ele>1840.942</ele>
        <time>2022-02-20T12:00:41Z</time>
      </trkpt>
      <trkpt lat="42.74675" lon="1.61359">
        <ele>1840.944</ele>
        <time>2022-02-20T12:00:43Z</time>
      </trkpt>
      <trkpt lat="42.74675" lon="1.61359">
        <ele>1840.946</ele>
        <time>2022-02-20T12:00:45Z</time>
      </trkpt>
      <trkpt lat="42.74675" lon="1.61358">
        <ele>1841.347</ele>
        <time>2022-02-20T12:00:47Z</time>
      </trkpt>
      <trkpt lat="42.74675" lon="1.61358">
        <ele>1841.355</ele>
        <time>2022-02-20T12:00:49Z</time>
      </trkpt>
      <trkpt lat="42.74675" lon="1.61358">
        <ele>1841.359</ele>
        <time>2022-02-20T12:00:51Z</time>
      </trkpt>
      <trkpt lat="42.74675" lon="1.61358">
        <ele>1841.516</ele>
        <time>2022-02-20T12:00:53Z</time>
      </trkpt>
      <trkpt lat="42.74675" lon="1.61359">
        <ele>1841.527</ele>
        <time>2022-02-20T12:00:55Z</time>
      </trkpt>
      <trkpt lat="42.74675" lon="1.61359">
        <ele>1841.895</ele>
        <time>2022-02-20T12:00:57Z</time>
      </trkpt>
      <trkpt lat="42.74675" lon="1.61359">
        <ele>1841.898</ele>
        <time>2022-02-20T12:00:59Z</time>
      </trkpt>
      <trkpt lat="42.74675" lon="1.61359">
        <ele>1841.9</ele>
        <time>2022-02-20T12:01:01Z</time>
      </trkpt>
      <trkpt lat="42.74675" lon="1.61359">
        <ele>1841.896</ele>
        <time>2022-02-20T12:01:03Z</time>
      </trkpt>
      <trkpt lat="42.74675" lon="1.61359">
        <ele>1841.893</ele>
        <time>2022-02-20T12:01:05Z</time>
      </trkpt>
      <trkpt lat="42.74675" lon="1.61359">
        <ele>1841.894</ele>
        <time>2022-02-20T12:01:07Z</time>
      </trkpt>
      <trkpt lat="42.74675" lon="1.61359">
        <ele>1841.895</ele>
        <time>2022-02-20T12:01:09Z</time>
      </trkpt>
      <trkpt lat="42.74675" lon="1.61359">
        <ele>1841.896</ele>
        <time>2022-02-20T12:01:11Z</time>
      </trkpt>
      <trkpt lat="42.74675" lon="1.61359">
        <ele>1841.894</ele>
        <time>2022-02-20T12:01:13Z</time>
      </trkpt>
      <trkpt lat="42.74675" lon="1.61359">
        <ele>1841.897</ele>
        <time>2022-02-20T12:01:15Z</time>
      </trkpt>
      <trkpt lat="42.74675" lon="1.61359">
        <ele>1841.897</ele>
        <time>2022-02-20T12:01:17Z</time>
      </trkpt>
      <trkpt lat="42.74675" lon="1.61359">
        <ele>1841.896</ele>
        <time>2022-02-20T12:01:19Z</time>
      </trkpt>
      <trkpt lat="42.74675" lon="1.61359">
        <ele>1841.896</ele>
        <time>2022-02-20T12:01:21Z</time>
      </trkpt>
      <trkpt lat="42.74675" lon="1.61359">
        <ele>1841.901</ele>
        <time>2022-02-20T12:01:24Z</time>
      </trkpt>
      <trkpt lat="42.74675" lon="1.61359">
        <ele>1841.903</ele>
        <time>2022-02-20T12:01:26Z</time>
      </trkpt>
      <trkpt lat="42.74675" lon="1.61359">
        <ele>1841.906</ele>
        <time>2022-02-20T12:01:28Z</time>
      </trkpt>
      <trkpt lat="42.74675" lon="1.61359">
        <ele>1841.906</ele>
        <time>2022-02-20T12:01:30Z</time>
      </trkpt>
      <trkpt lat="42.74675" lon="1.61359">
        <ele>1841.905</ele>
        <time>2022-02-20T12:01:32Z</time>
      </trkpt>
      <trkpt lat="42.74675" lon="1.61359">
        <ele>1841.905</ele>
        <time>2022-02-20T12:01:34Z</time>
      </trkpt>
      <trkpt lat="42.74675" lon="1.61359">
        <ele>1841.905</ele>
        <time>2022-02-20T12:01:36Z</time>
      </trkpt>
      <trkpt lat="42.74675" lon="1.61359">
        <ele>1841.906</ele>
        <time>2022-02-20T12:01:38Z</time>
      </trkpt>
      <trkpt lat="42.74675" lon="1.61359">
        <ele>1841.907</ele>
        <time>2022-02-20T12:01:40Z</time>
      </trkpt>
      <trkpt lat="42.74675" lon="1.61359">
        <ele>1841.908</ele>
        <time>2022-02-20T12:01:42Z</time>
      </trkpt>
      <trkpt lat="42.74675" lon="1.61359">
        <ele>1841.909</ele>
        <time>2022-02-20T12:01:44Z</time>
      </trkpt>
      <trkpt lat="42.74675" lon="1.61359">
        <ele>1841.908</ele>
        <time>2022-02-20T12:01:46Z</time>
      </trkpt>
      <trkpt lat="42.74675" lon="1.61359">
        <ele>1841.909</ele>
        <time>2022-02-20T12:01:48Z</time>
      </trkpt>
      <trkpt lat="42.74675" lon="1.61359">
        <ele>1841.909</ele>
        <time>2022-02-20T12:01:50Z</time>
      </trkpt>
      <trkpt lat="42.74675" lon="1.61359">
        <ele>1841.913</ele>
        <time>2022-02-20T12:01:52Z</time>
      </trkpt>
      <trkpt lat="42.74675" lon="1.61359">
        <ele>1841.913</ele>
        <time>2022-02-20T12:01:54Z</time>
      </trkpt>
      <trkpt lat="42.74675" lon="1.61359">
        <ele>1841.916</ele>
        <time>2022-02-20T12:01:56Z</time>
      </trkpt>
      <trkpt lat="42.74675" lon="1.61359">
        <ele>1841.917</ele>
        <time>2022-02-20T12:01:58Z</time>
      </trkpt>
      <trkpt lat="42.74675" lon="1.61359">
        <ele>1841.92</ele>
        <time>2022-02-20T12:02:00Z</time>
      </trkpt>
      <trkpt lat="42.74675" lon="1.61359">
        <ele>1841.923</ele>
        <time>2022-02-20T12:02:02Z</time>
      </trkpt>
      <trkpt lat="42.74675" lon="1.61359">
        <ele>1841.926</ele>
        <time>2022-02-20T12:02:04Z</time>
      </trkpt>
      <trkpt lat="42.74675" lon="1.61359">
        <ele>1841.925</ele>
        <time>2022-02-20T12:02:06Z</time>
      </trkpt>
      <trkpt lat="42.74675" lon="1.61359">
        <ele>1841.927</ele>
        <time>2022-02-20T12:02:08Z</time>
      </trkpt>
      <trkpt lat="42.74675" lon="1.61359">
        <ele>1841.931</ele>
        <time>2022-02-20T12:02:10Z</time>
      </trkpt>
      <trkpt lat="42.74675" lon="1.61359">
        <ele>1841.934</ele>
        <time>2022-02-20T12:02:12Z</time>
      </trkpt>
      <trkpt lat="42.74675" lon="1.61359">
        <ele>1841.937</ele>
        <time>2022-02-20T12:02:14Z</time>
      </trkpt>
      <trkpt lat="42.74675" lon="1.61359">
        <ele>1841.939</ele>
        <time>2022-02-20T12:02:16Z</time>
      </trkpt>
      <trkpt lat="42.74675" lon="1.61359">
        <ele>1841.944</ele>
        <time>2022-02-20T12:02:18Z</time>
      </trkpt>
      <trkpt lat="42.74675" lon="1.61359">
        <ele>1841.944</ele>
        <time>2022-02-20T12:02:20Z</time>
      </trkpt>
      <trkpt lat="42.74675" lon="1.61359">
        <ele>1841.944</ele>
        <time>2022-02-20T12:02:22Z</time>
      </trkpt>
      <trkpt lat="42.74675" lon="1.61359">
        <ele>1841.945</ele>
        <time>2022-02-20T12:02:24Z</time>
      </trkpt>
      <trkpt lat="42.74675" lon="1.61359">
        <ele>1841.943</ele>
        <time>2022-02-20T12:02:26Z</time>
      </trkpt>
      <trkpt lat="42.74675" lon="1.61359">
        <ele>1841.945</ele>
        <time>2022-02-20T12:02:28Z</time>
      </trkpt>
      <trkpt lat="42.74675" lon="1.61359">
        <ele>1841.945</ele>
        <time>2022-02-20T12:02:30Z</time>
      </trkpt>
      <trkpt lat="42.74675" lon="1.61359">
        <ele>1841.946</ele>
        <time>2022-02-20T12:02:32Z</time>
      </trkpt>
      <trkpt lat="42.74675" lon="1.61359">
        <ele>1841.947</ele>
        <time>2022-02-20T12:02:34Z</time>
      </trkpt>
      <trkpt lat="42.74675" lon="1.61359">
        <ele>1841.946</ele>
        <time>2022-02-20T12:02:36Z</time>
      </trkpt>
      <trkpt lat="42.74675" lon="1.61359">
        <ele>1841.945</ele>
        <time>2022-02-20T12:02:38Z</time>
      </trkpt>
      <trkpt lat="42.74675" lon="1.61359">
        <ele>1841.942</ele>
        <time>2022-02-20T12:02:40Z</time>
      </trkpt>
      <trkpt lat="42.74675" lon="1.61359">
        <ele>1841.942</ele>
        <time>2022-02-20T12:02:42Z</time>
      </trkpt>
      <trkpt lat="42.74675" lon="1.61359">
        <ele>1841.945</ele>
        <time>2022-02-20T12:02:44Z</time>
      </trkpt>
      <trkpt lat="42.74675" lon="1.61359">
        <ele>1841.946</ele>
        <time>2022-02-20T12:02:46Z</time>
      </trkpt>
      <trkpt lat="42.74675" lon="1.61359">
        <ele>1841.947</ele>
        <time>2022-02-20T12:02:48Z</time>
      </trkpt>
      <trkpt lat="42.74675" lon="1.61359">
        <ele>1841.948</ele>
        <time>2022-02-20T12:02:50Z</time>
      </trkpt>
      <trkpt lat="42.74675" lon="1.61359">
        <ele>1841.951</ele>
        <time>2022-02-20T12:02:52Z</time>
      </trkpt>
      <trkpt lat="42.74674" lon="1.61359">
        <ele>1841.951</ele>
        <time>2022-02-20T12:02:54Z</time>
      </trkpt>
      <trkpt lat="42.74674" lon="1.61359">
        <ele>1841.95</ele>
        <time>2022-02-20T12:02:56Z</time>
      </trkpt>
      <trkpt lat="42.74674" lon="1.61359">
        <ele>1841.951</ele>
        <time>2022-02-20T12:02:58Z</time>
      </trkpt>
      <trkpt lat="42.74674" lon="1.61359">
        <ele>1841.95</ele>
        <time>2022-02-20T12:03:00Z</time>
      </trkpt>
      <trkpt lat="42.74674" lon="1.61359">
        <ele>1841.951</ele>
        <time>2022-02-20T12:03:02Z</time>
      </trkpt>
      <trkpt lat="42.74674" lon="1.61359">
        <ele>1841.949</ele>
        <time>2022-02-20T12:03:04Z</time>
      </trkpt>
      <trkpt lat="42.74674" lon="1.61359">
        <ele>1841.949</ele>
        <time>2022-02-20T12:03:06Z</time>
      </trkpt>
      <trkpt lat="42.74674" lon="1.61359">
        <ele>1841.948</ele>
        <time>2022-02-20T12:03:08Z</time>
      </trkpt>
      <trkpt lat="42.74674" lon="1.61359">
        <ele>1841.949</ele>
        <time>2022-02-20T12:03:10Z</time>
      </trkpt>
      <trkpt lat="42.74674" lon="1.61359">
        <ele>1841.952</ele>
        <time>2022-02-20T12:03:12Z</time>
      </trkpt>
      <trkpt lat="42.74674" lon="1.61359">
        <ele>1841.951</ele>
        <time>2022-02-20T12:03:14Z</time>
      </trkpt>
      <trkpt lat="42.74674" lon="1.61359">
        <ele>1841.953</ele>
        <time>2022-02-20T12:03:16Z</time>
      </trkpt>
      <trkpt lat="42.74674" lon="1.61359">
        <ele>1841.953</ele>
        <time>2022-02-20T12:03:18Z</time>
      </trkpt>
      <trkpt lat="42.74674" lon="1.61359">
        <ele>1841.953</ele>
        <time>2022-02-20T12:03:20Z</time>
      </trkpt>
      <trkpt lat="42.74674" lon="1.61359">
        <ele>1841.955</ele>
        <time>2022-02-20T12:03:22Z</time>
      </trkpt>
      <trkpt lat="42.74674" lon="1.61359">
        <ele>1841.954</ele>
        <time>2022-02-20T12:03:24Z</time>
      </trkpt>
      <trkpt lat="42.74674" lon="1.61359">
        <ele>1841.953</ele>
        <time>2022-02-20T12:03:26Z</time>
      </trkpt>
      <trkpt lat="42.74674" lon="1.61359">
        <ele>1841.957</ele>
        <time>2022-02-20T12:03:28Z</time>
      </trkpt>
      <trkpt lat="42.74674" lon="1.61359">
        <ele>1841.956</ele>
        <time>2022-02-20T12:03:30Z</time>
      </trkpt>
      <trkpt lat="42.74674" lon="1.61359">
        <ele>1841.957</ele>
        <time>2022-02-20T12:03:32Z</time>
      </trkpt>
      <trkpt lat="42.74674" lon="1.61359">
        <ele>1841.957</ele>
        <time>2022-02-20T12:03:34Z</time>
      </trkpt>
      <trkpt lat="42.74674" lon="1.61359">
        <ele>1841.961</ele>
        <time>2022-02-20T12:03:36Z</time>
      </trkpt>
      <trkpt lat="42.74674" lon="1.61359">
        <ele>1841.962</ele>
        <time>2022-02-20T12:03:38Z</time>
      </trkpt>
      <trkpt lat="42.74674" lon="1.61359">
        <ele>1841.96</ele>
        <time>2022-02-20T12:03:40Z</time>
      </trkpt>
      <trkpt lat="42.74674" lon="1.61359">
        <ele>1841.961</ele>
        <time>2022-02-20T12:03:42Z</time>
      </trkpt>
      <trkpt lat="42.74674" lon="1.61359">
        <ele>1841.962</ele>
        <time>2022-02-20T12:03:44Z</time>
      </trkpt>
      <trkpt lat="42.74674" lon="1.61359">
        <ele>1841.958</ele>
        <time>2022-02-20T12:03:46Z</time>
      </trkpt>
      <trkpt lat="42.74674" lon="1.61359">
        <ele>1841.96</ele>
        <time>2022-02-20T12:03:48Z</time>
      </trkpt>
      <trkpt lat="42.74674" lon="1.61359">
        <ele>1841.962</ele>
        <time>2022-02-20T12:03:50Z</time>
      </trkpt>
      <trkpt lat="42.74674" lon="1.61359">
        <ele>1841.962</ele>
        <time>2022-02-20T12:03:52Z</time>
      </trkpt>
      <trkpt lat="42.74674" lon="1.61359">
        <ele>1841.964</ele>
        <time>2022-02-20T12:03:54Z</time>
      </trkpt>
      <trkpt lat="42.74674" lon="1.61359">
        <ele>1841.967</ele>
        <time>2022-02-20T12:03:56Z</time>
      </trkpt>
      <trkpt lat="42.74674" lon="1.61359">
        <ele>1841.969</ele>
        <time>2022-02-20T12:03:58Z</time>
      </trkpt>
      <trkpt lat="42.74675" lon="1.61359">
        <ele>1841.819</ele>
        <time>2022-02-20T12:04:00Z</time>
      </trkpt>
      <trkpt lat="42.74675" lon="1.61359">
        <ele>1841.825</ele>
        <time>2022-02-20T12:04:02Z</time>
      </trkpt>
      <trkpt lat="42.74675" lon="1.61359">
        <ele>1841.825</ele>
        <time>2022-02-20T12:04:04Z</time>
      </trkpt>
      <trkpt lat="42.74675" lon="1.61359">
        <ele>1841.831</ele>
        <time>2022-02-20T12:04:06Z</time>
      </trkpt>
      <trkpt lat="42.74675" lon="1.61359">
        <ele>1841.83</ele>
        <time>2022-02-20T12:04:08Z</time>
      </trkpt>
      <trkpt lat="42.74675" lon="1.61359">
        <ele>1841.833</ele>
        <time>2022-02-20T12:04:10Z</time>
      </trkpt>
      <trkpt lat="42.74675" lon="1.61359">
        <ele>1841.833</ele>
        <time>2022-02-20T12:04:12Z</time>
      </trkpt>
      <trkpt lat="42.74675" lon="1.61359">
        <ele>1841.833</ele>
        <time>2022-02-20T12:04:14Z</time>
      </trkpt>
      <trkpt lat="42.74675" lon="1.61359">
        <ele>1841.832</ele>
        <time>2022-02-20T12:04:16Z</time>
      </trkpt>
      <trkpt lat="42.74675" lon="1.61359">
        <ele>1841.833</ele>
        <time>2022-02-20T12:04:18Z</time>
      </trkpt>
      <trkpt lat="42.74675" lon="1.61359">
        <ele>1842.09</ele>
        <time>2022-02-20T12:04:20Z</time>
      </trkpt>
      <trkpt lat="42.74675" lon="1.61359">
        <ele>1842.089</ele>
        <time>2022-02-20T12:04:22Z</time>
      </trkpt>
      <trkpt lat="42.74675" lon="1.61359">
        <ele>1842.09</ele>
        <time>2022-02-20T12:04:24Z</time>
      </trkpt>
      <trkpt lat="42.74675" lon="1.61359">
        <ele>1842.092</ele>
        <time>2022-02-20T12:04:26Z</time>
      </trkpt>
      <trkpt lat="42.74675" lon="1.61359">
        <ele>1842.092</ele>
        <time>2022-02-20T12:04:28Z</time>
      </trkpt>
      <trkpt lat="42.74675" lon="1.61359">
        <ele>1842.093</ele>
        <time>2022-02-20T12:04:30Z</time>
      </trkpt>
      <trkpt lat="42.74675" lon="1.61359">
        <ele>1842.093</ele>
        <time>2022-02-20T12:04:32Z</time>
      </trkpt>
      <trkpt lat="42.74675" lon="1.61359">
        <ele>1842.096</ele>
        <time>2022-02-20T12:04:34Z</time>
      </trkpt>
      <trkpt lat="42.74675" lon="1.61359">
        <ele>1842.099</ele>
        <time>2022-02-20T12:04:36Z</time>
      </trkpt>
      <trkpt lat="42.74675" lon="1.61359">
        <ele>1842.101</ele>
        <time>2022-02-20T12:04:38Z</time>
      </trkpt>
      <trkpt lat="42.74675" lon="1.61359">
        <ele>1842.099</ele>
        <time>2022-02-20T12:04:40Z</time>
      </trkpt>
      <trkpt lat="42.74675" lon="1.61359">
        <ele>1842.1</ele>
        <time>2022-02-20T12:04:42Z</time>
      </trkpt>
      <trkpt lat="42.74675" lon="1.61359">
        <ele>1842.1</ele>
        <time>2022-02-20T12:04:44Z</time>
      </trkpt>
      <trkpt lat="42.74675" lon="1.61359">
        <ele>1842.099</ele>
        <time>2022-02-20T12:04:46Z</time>
      </trkpt>
      <trkpt lat="42.74675" lon="1.61359">
        <ele>1842.101</ele>
        <time>2022-02-20T12:04:48Z</time>
      </trkpt>
      <trkpt lat="42.74675" lon="1.61359">
        <ele>1842.101</ele>
        <time>2022-02-20T12:04:50Z</time>
      </trkpt>
      <trkpt lat="42.74675" lon="1.61359">
        <ele>1842.101</ele>
        <time>2022-02-20T12:04:52Z</time>
      </trkpt>
      <trkpt lat="42.74675" lon="1.61359">
        <ele>1842.109</ele>
        <time>2022-02-20T12:04:54Z</time>
      </trkpt>
      <trkpt lat="42.74675" lon="1.61359">
        <ele>1842.029</ele>
        <time>2022-02-20T12:04:56Z</time>
      </trkpt>
      <trkpt lat="42.74675" lon="1.61359">
        <ele>1842.03</ele>
        <time>2022-02-20T12:04:58Z</time>
      </trkpt>
      <trkpt lat="42.74675" lon="1.61359">
        <ele>1842.031</ele>
        <time>2022-02-20T12:05:00Z</time>
      </trkpt>
      <trkpt lat="42.74675" lon="1.61359">
        <ele>1842.033</ele>
        <time>2022-02-20T12:05:02Z</time>
      </trkpt>
      <trkpt lat="42.74675" lon="1.61359">
        <ele>1842.038</ele>
        <time>2022-02-20T12:05:04Z</time>
      </trkpt>
      <trkpt lat="42.74675" lon="1.61359">
        <ele>1842.044</ele>
        <time>2022-02-20T12:05:06Z</time>
      </trkpt>
      <trkpt lat="42.74675" lon="1.61359">
        <ele>1842.05</ele>
        <time>2022-02-20T12:05:08Z</time>
      </trkpt>
      <trkpt lat="42.74675" lon="1.61359">
        <ele>1842.05</ele>
        <time>2022-02-20T12:05:10Z</time>
      </trkpt>
      <trkpt lat="42.74675" lon="1.61359">
        <ele>1842.052</ele>
        <time>2022-02-20T12:05:12Z</time>
      </trkpt>
      <trkpt lat="42.74675" lon="1.61359">
        <ele>1842.054</ele>
        <time>2022-02-20T12:05:14Z</time>
      </trkpt>
      <trkpt lat="42.74675" lon="1.61359">
        <ele>1842.056</ele>
        <time>2022-02-20T12:05:16Z</time>
      </trkpt>
      <trkpt lat="42.74675" lon="1.61359">
        <ele>1842.056</ele>
        <time>2022-02-20T12:05:18Z</time>
      </trkpt>
      <trkpt lat="42.74675" lon="1.61359">
        <ele>1842.059</ele>
        <time>2022-02-20T12:05:20Z</time>
      </trkpt>
      <trkpt lat="42.74675" lon="1.61359">
        <ele>1842.061</ele>
        <time>2022-02-20T12:05:22Z</time>
      </trkpt>
      <trkpt lat="42.74675" lon="1.61359">
        <ele>1842.059</ele>
        <time>2022-02-20T12:05:24Z</time>
      </trkpt>
      <trkpt lat="42.74675" lon="1.61359">
        <ele>1842.062</ele>
        <time>2022-02-20T12:05:26Z</time>
      </trkpt>
      <trkpt lat="42.74675" lon="1.61359">
        <ele>1842.06</ele>
        <time>2022-02-20T12:05:28Z</time>
      </trkpt>
      <trkpt lat="42.74675" lon="1.61359">
        <ele>1842.063</ele>
        <time>2022-02-20T12:05:30Z</time>
      </trkpt>
      <trkpt lat="42.74675" lon="1.61359">
        <ele>1842.065</ele>
        <time>2022-02-20T12:05:32Z</time>
      </trkpt>
      <trkpt lat="42.74675" lon="1.61359">
        <ele>1842.065</ele>
        <time>2022-02-20T12:05:34Z</time>
      </trkpt>
      <trkpt lat="42.74675" lon="1.61359">
        <ele>1842.064</ele>
        <time>2022-02-20T12:05:36Z</time>
      </trkpt>
      <trkpt lat="42.74675" lon="1.61359">
        <ele>1842.061</ele>
        <time>2022-02-20T12:05:38Z</time>
      </trkpt>
      <trkpt lat="42.74675" lon="1.61359">
        <ele>1842.063</ele>
        <time>2022-02-20T12:05:40Z</time>
      </trkpt>
      <trkpt lat="42.74675" lon="1.61359">
        <ele>1842.066</ele>
        <time>2022-02-20T12:05:42Z</time>
      </trkpt>
      <trkpt lat="42.74675" lon="1.61359">
        <ele>1842.067</ele>
        <time>2022-02-20T12:05:44Z</time>
      </trkpt>
      <trkpt lat="42.74675" lon="1.61359">
        <ele>1842.075</ele>
        <time>2022-02-20T12:05:46Z</time>
      </trkpt>
      <trkpt lat="42.74675" lon="1.61359">
        <ele>1842.078</ele>
        <time>2022-02-20T12:05:48Z</time>
      </trkpt>
      <trkpt lat="42.74675" lon="1.61359">
        <ele>1842.081</ele>
        <time>2022-02-20T12:05:50Z</time>
      </trkpt>
      <trkpt lat="42.74675" lon="1.61359">
        <ele>1842.083</ele>
        <time>2022-02-20T12:05:52Z</time>
      </trkpt>
      <trkpt lat="42.74675" lon="1.61359">
        <ele>1842.084</ele>
        <time>2022-02-20T12:05:54Z</time>
      </trkpt>
      <trkpt lat="42.74675" lon="1.61359">
        <ele>1842.087</ele>
        <time>2022-02-20T12:05:56Z</time>
      </trkpt>
      <trkpt lat="42.74675" lon="1.61359">
        <ele>1842.088</ele>
        <time>2022-02-20T12:05:58Z</time>
      </trkpt>
      <trkpt lat="42.74675" lon="1.61359">
        <ele>1842.088</ele>
        <time>2022-02-20T12:06:00Z</time>
      </trkpt>
      <trkpt lat="42.74675" lon="1.61359">
        <ele>1842.09</ele>
        <time>2022-02-20T12:06:02Z</time>
      </trkpt>
      <trkpt lat="42.74675" lon="1.61359">
        <ele>1842.097</ele>
        <time>2022-02-20T12:06:04Z</time>
      </trkpt>
      <trkpt lat="42.74675" lon="1.61359">
        <ele>1842.098</ele>
        <time>2022-02-20T12:06:06Z</time>
      </trkpt>
      <trkpt lat="42.74675" lon="1.61359">
        <ele>1842.101</ele>
        <time>2022-02-20T12:06:08Z</time>
      </trkpt>
      <trkpt lat="42.74675" lon="1.61359">
        <ele>1842.102</ele>
        <time>2022-02-20T12:06:10Z</time>
      </trkpt>
      <trkpt lat="42.74675" lon="1.61359">
        <ele>1842.102</ele>
        <time>2022-02-20T12:06:12Z</time>
      </trkpt>
      <trkpt lat="42.74675" lon="1.61359">
        <ele>1842.102</ele>
        <time>2022-02-20T12:06:14Z</time>
      </trkpt>
      <trkpt lat="42.74675" lon="1.61359">
        <ele>1842.102</ele>
        <time>2022-02-20T12:06:16Z</time>
      </trkpt>
      <trkpt lat="42.74675" lon="1.61359">
        <ele>1842.104</ele>
        <time>2022-02-20T12:06:18Z</time>
      </trkpt>
      <trkpt lat="42.74675" lon="1.61359">
        <ele>1842.104</ele>
        <time>2022-02-20T12:06:20Z</time>
      </trkpt>
      <trkpt lat="42.74675" lon="1.61359">
        <ele>1842.104</ele>
        <time>2022-02-20T12:06:22Z</time>
      </trkpt>
      <trkpt lat="42.74675" lon="1.61359">
        <ele>1842.102</ele>
        <time>2022-02-20T12:06:24Z</time>
      </trkpt>
      <trkpt lat="42.74675" lon="1.61359">
        <ele>1842.102</ele>
        <time>2022-02-20T12:06:26Z</time>
      </trkpt>
      <trkpt lat="42.74675" lon="1.61359">
        <ele>1842.102</ele>
        <time>2022-02-20T12:06:28Z</time>
      </trkpt>
      <trkpt lat="42.74675" lon="1.61359">
        <ele>1842.102</ele>
        <time>2022-02-20T12:06:30Z</time>
      </trkpt>
      <trkpt lat="42.74675" lon="1.61359">
        <ele>1842.103</ele>
        <time>2022-02-20T12:06:32Z</time>
      </trkpt>
      <trkpt lat="42.74675" lon="1.61359">
        <ele>1842.102</ele>
        <time>2022-02-20T12:06:34Z</time>
      </trkpt>
      <trkpt lat="42.74675" lon="1.61359">
        <ele>1842.104</ele>
        <time>2022-02-20T12:06:36Z</time>
      </trkpt>
      <trkpt lat="42.74675" lon="1.61359">
        <ele>1842.105</ele>
        <time>2022-02-20T12:06:38Z</time>
      </trkpt>
      <trkpt lat="42.74675" lon="1.61359">
        <ele>1842.107</ele>
        <time>2022-02-20T12:06:40Z</time>
      </trkpt>
      <trkpt lat="42.74675" lon="1.61359">
        <ele>1842.11</ele>
        <time>2022-02-20T12:06:42Z</time>
      </trkpt>
      <trkpt lat="42.74675" lon="1.61359">
        <ele>1842.111</ele>
        <time>2022-02-20T12:06:44Z</time>
      </trkpt>
      <trkpt lat="42.74675" lon="1.61359">
        <ele>1842.113</ele>
        <time>2022-02-20T12:06:46Z</time>
      </trkpt>
      <trkpt lat="42.74675" lon="1.61359">
        <ele>1842.115</ele>
        <time>2022-02-20T12:06:48Z</time>
      </trkpt>
      <trkpt lat="42.74675" lon="1.61359">
        <ele>1842.12</ele>
        <time>2022-02-20T12:06:50Z</time>
      </trkpt>
      <trkpt lat="42.74675" lon="1.61359">
        <ele>1842.12</ele>
        <time>2022-02-20T12:06:52Z</time>
      </trkpt>
      <trkpt lat="42.74675" lon="1.61359">
        <ele>1842.118</ele>
        <time>2022-02-20T12:06:54Z</time>
      </trkpt>
      <trkpt lat="42.74675" lon="1.61359">
        <ele>1842.117</ele>
        <time>2022-02-20T12:06:56Z</time>
      </trkpt>
      <trkpt lat="42.74675" lon="1.61359">
        <ele>1842.116</ele>
        <time>2022-02-20T12:06:58Z</time>
      </trkpt>
      <trkpt lat="42.74675" lon="1.61359">
        <ele>1842.121</ele>
        <time>2022-02-20T12:07:00Z</time>
      </trkpt>
      <trkpt lat="42.74675" lon="1.61359">
        <ele>1842.12</ele>
        <time>2022-02-20T12:07:02Z</time>
      </trkpt>
      <trkpt lat="42.74675" lon="1.61359">
        <ele>1842.123</ele>
        <time>2022-02-20T12:07:04Z</time>
      </trkpt>
      <trkpt lat="42.74675" lon="1.61359">
        <ele>1842.123</ele>
        <time>2022-02-20T12:07:06Z</time>
      </trkpt>
      <trkpt lat="42.74675" lon="1.61359">
        <ele>1842.122</ele>
        <time>2022-02-20T12:07:08Z</time>
      </trkpt>
      <trkpt lat="42.74675" lon="1.61359">
        <ele>1842.127</ele>
        <time>2022-02-20T12:07:10Z</time>
      </trkpt>
      <trkpt lat="42.74675" lon="1.61359">
        <ele>1842.131</ele>
        <time>2022-02-20T12:07:12Z</time>
      </trkpt>
      <trkpt lat="42.74675" lon="1.61359">
        <ele>1842.13</ele>
        <time>2022-02-20T12:07:14Z</time>
      </trkpt>
      <trkpt lat="42.74675" lon="1.61359">
        <ele>1842.132</ele>
        <time>2022-02-20T12:07:16Z</time>
      </trkpt>
      <trkpt lat="42.74675" lon="1.61359">
        <ele>1842.132</ele>
        <time>2022-02-20T12:07:18Z</time>
      </trkpt>
      <trkpt lat="42.74675" lon="1.61359">
        <ele>1842.133</ele>
        <time>2022-02-20T12:07:20Z</time>
      </trkpt>
      <trkpt lat="42.74675" lon="1.61359">
        <ele>1842.133</ele>
        <time>2022-02-20T12:07:22Z</time>
      </trkpt>
      <trkpt lat="42.74675" lon="1.61359">
        <ele>1842.135</ele>
        <time>2022-02-20T12:07:24Z</time>
      </trkpt>
      <trkpt lat="42.74675" lon="1.61359">
        <ele>1842.138</ele>
        <time>2022-02-20T12:07:26Z</time>
      </trkpt>
      <trkpt lat="42.74675" lon="1.61359">
        <ele>1842.14</ele>
        <time>2022-02-20T12:07:28Z</time>
      </trkpt>
      <trkpt lat="42.74675" lon="1.61359">
        <ele>1842.138</ele>
        <time>2022-02-20T12:07:30Z</time>
      </trkpt>
      <trkpt lat="42.74675" lon="1.61359">
        <ele>1842.139</ele>
        <time>2022-02-20T12:07:32Z</time>
      </trkpt>
      <trkpt lat="42.74675" lon="1.61359">
        <ele>1842.146</ele>
        <time>2022-02-20T12:07:34Z</time>
      </trkpt>
      <trkpt lat="42.74675" lon="1.61359">
        <ele>1842.145</ele>
        <time>2022-02-20T12:07:36Z</time>
      </trkpt>
      <trkpt lat="42.74675" lon="1.61359">
        <ele>1841.817</ele>
        <time>2022-02-20T12:07:38Z</time>
      </trkpt>
      <trkpt lat="42.74674" lon="1.61359">
        <ele>1842.459</ele>
        <time>2022-02-20T12:07:40Z</time>
      </trkpt>
      <trkpt lat="42.74674" lon="1.61359">
        <ele>1842.427</ele>
        <time>2022-02-20T12:07:42Z</time>
      </trkpt>
      <trkpt lat="42.74674" lon="1.61359">
        <ele>1842.425</ele>
        <time>2022-02-20T12:07:44Z</time>
      </trkpt>
      <trkpt lat="42.74674" lon="1.61359">
        <ele>1842.424</ele>
        <time>2022-02-20T12:07:46Z</time>
      </trkpt>
      <trkpt lat="42.74674" lon="1.61359">
        <ele>1842.426</ele>
        <time>2022-02-20T12:07:48Z</time>
      </trkpt>
      <trkpt lat="42.74674" lon="1.61359">
        <ele>1842.427</ele>
        <time>2022-02-20T12:07:50Z</time>
      </trkpt>
      <trkpt lat="42.74674" lon="1.61359">
        <ele>1842.43</ele>
        <time>2022-02-20T12:07:52Z</time>
      </trkpt>
      <trkpt lat="42.74674" lon="1.61359">
        <ele>1842.43</ele>
        <time>2022-02-20T12:07:54Z</time>
      </trkpt>
      <trkpt lat="42.74674" lon="1.61359">
        <ele>1842.432</ele>
        <time>2022-02-20T12:07:56Z</time>
      </trkpt>
      <trkpt lat="42.74674" lon="1.61359">
        <ele>1842.434</ele>
        <time>2022-02-20T12:07:58Z</time>
      </trkpt>
      <trkpt lat="42.74674" lon="1.61359">
        <ele>1842.435</ele>
        <time>2022-02-20T12:08:00Z</time>
      </trkpt>
      <trkpt lat="42.74674" lon="1.61359">
        <ele>1842.435</ele>
        <time>2022-02-20T12:08:02Z</time>
      </trkpt>
      <trkpt lat="42.74674" lon="1.61359">
        <ele>1842.439</ele>
        <time>2022-02-20T12:08:04Z</time>
      </trkpt>
      <trkpt lat="42.74674" lon="1.61359">
        <ele>1842.439</ele>
        <time>2022-02-20T12:08:06Z</time>
      </trkpt>
      <trkpt lat="42.74674" lon="1.61359">
        <ele>1842.442</ele>
        <time>2022-02-20T12:08:08Z</time>
      </trkpt>
      <trkpt lat="42.74674" lon="1.61359">
        <ele>1842.446</ele>
        <time>2022-02-20T12:08:10Z</time>
      </trkpt>
      <trkpt lat="42.74674" lon="1.61359">
        <ele>1842.448</ele>
        <time>2022-02-20T12:08:12Z</time>
      </trkpt>
      <trkpt lat="42.74674" lon="1.61359">
        <ele>1842.45</ele>
        <time>2022-02-20T12:08:14Z</time>
      </trkpt>
      <trkpt lat="42.74674" lon="1.61359">
        <ele>1842.452</ele>
        <time>2022-02-20T12:08:16Z</time>
      </trkpt>
      <trkpt lat="42.74674" lon="1.61359">
        <ele>1842.452</ele>
        <time>2022-02-20T12:08:18Z</time>
      </trkpt>
      <trkpt lat="42.74674" lon="1.61359">
        <ele>1842.456</ele>
        <time>2022-02-20T12:08:20Z</time>
      </trkpt>
      <trkpt lat="42.74674" lon="1.61359">
        <ele>1842.462</ele>
        <time>2022-02-20T12:08:22Z</time>
      </trkpt>
      <trkpt lat="42.74674" lon="1.61359">
        <ele>1842.465</ele>
        <time>2022-02-20T12:08:24Z</time>
      </trkpt>
      <trkpt lat="42.74674" lon="1.61359">
        <ele>1842.466</ele>
        <time>2022-02-20T12:08:26Z</time>
      </trkpt>
      <trkpt lat="42.74674" lon="1.61359">
        <ele>1842.471</ele>
        <time>2022-02-20T12:08:28Z</time>
      </trkpt>
      <trkpt lat="42.74674" lon="1.61359">
        <ele>1842.866</ele>
        <time>2022-02-20T12:08:30Z</time>
      </trkpt>
      <trkpt lat="42.74674" lon="1.61359">
        <ele>1842.882</ele>
        <time>2022-02-20T12:08:32Z</time>
      </trkpt>
      <trkpt lat="42.74674" lon="1.61359">
        <ele>1842.883</ele>
        <time>2022-02-20T12:08:34Z</time>
      </trkpt>
      <trkpt lat="42.74674" lon="1.61359">
        <ele>1842.884</ele>
        <time>2022-02-20T12:08:36Z</time>
      </trkpt>
      <trkpt lat="42.74674" lon="1.61359">
        <ele>1842.888</ele>
        <time>2022-02-20T12:08:38Z</time>
      </trkpt>
      <trkpt lat="42.74674" lon="1.61359">
        <ele>1842.891</ele>
        <time>2022-02-20T12:08:40Z</time>
      </trkpt>
      <trkpt lat="42.74674" lon="1.61359">
        <ele>1842.888</ele>
        <time>2022-02-20T12:08:42Z</time>
      </trkpt>
      <trkpt lat="42.74674" lon="1.61359">
        <ele>1842.889</ele>
        <time>2022-02-20T12:08:44Z</time>
      </trkpt>
      <trkpt lat="42.74674" lon="1.61359">
        <ele>1842.891</ele>
        <time>2022-02-20T12:08:46Z</time>
      </trkpt>
      <trkpt lat="42.74674" lon="1.61359">
        <ele>1842.891</ele>
        <time>2022-02-20T12:08:48Z</time>
      </trkpt>
      <trkpt lat="42.74674" lon="1.61359">
        <ele>1842.891</ele>
        <time>2022-02-20T12:08:50Z</time>
      </trkpt>
      <trkpt lat="42.74674" lon="1.61359">
        <ele>1842.897</ele>
        <time>2022-02-20T12:08:52Z</time>
      </trkpt>
      <trkpt lat="42.74674" lon="1.61359">
        <ele>1842.902</ele>
        <time>2022-02-20T12:08:54Z</time>
      </trkpt>
      <trkpt lat="42.74674" lon="1.61359">
        <ele>1842.903</ele>
        <time>2022-02-20T12:08:56Z</time>
      </trkpt>
      <trkpt lat="42.74674" lon="1.61359">
        <ele>1842.903</ele>
        <time>2022-02-20T12:08:58Z</time>
      </trkpt>
      <trkpt lat="42.74674" lon="1.61359">
        <ele>1842.905</ele>
        <time>2022-02-20T12:09:00Z</time>
      </trkpt>
      <trkpt lat="42.74674" lon="1.61359">
        <ele>1842.904</ele>
        <time>2022-02-20T12:09:02Z</time>
      </trkpt>
      <trkpt lat="42.74674" lon="1.61359">
        <ele>1842.9</ele>
        <time>2022-02-20T12:09:04Z</time>
      </trkpt>
      <trkpt lat="42.74673" lon="1.61359">
        <ele>1843.158</ele>
        <time>2022-02-20T12:09:06Z</time>
      </trkpt>
      <trkpt lat="42.74673" lon="1.61359">
        <ele>1843.192</ele>
        <time>2022-02-20T12:09:08Z</time>
      </trkpt>
      <trkpt lat="42.74673" lon="1.61359">
        <ele>1843.193</ele>
        <time>2022-02-20T12:09:10Z</time>
      </trkpt>
      <trkpt lat="42.74673" lon="1.6136">
        <ele>1843.465</ele>
        <time>2022-02-20T12:09:12Z</time>
      </trkpt>
      <trkpt lat="42.74673" lon="1.6136">
        <ele>1843.479</ele>
        <time>2022-02-20T12:09:14Z</time>
      </trkpt>
      <trkpt lat="42.74673" lon="1.6136">
        <ele>1843.482</ele>
        <time>2022-02-20T12:09:16Z</time>
      </trkpt>
      <trkpt lat="42.74673" lon="1.6136">
        <ele>1843.486</ele>
        <time>2022-02-20T12:09:18Z</time>
      </trkpt>
      <trkpt lat="42.74673" lon="1.6136">
        <ele>1843.49</ele>
        <time>2022-02-20T12:09:20Z</time>
      </trkpt>
      <trkpt lat="42.74673" lon="1.6136">
        <ele>1843.494</ele>
        <time>2022-02-20T12:09:22Z</time>
      </trkpt>
      <trkpt lat="42.74673" lon="1.6136">
        <ele>1843.494</ele>
        <time>2022-02-20T12:09:24Z</time>
      </trkpt>
      <trkpt lat="42.74673" lon="1.6136">
        <ele>1843.498</ele>
        <time>2022-02-20T12:09:26Z</time>
      </trkpt>
      <trkpt lat="42.74673" lon="1.6136">
        <ele>1843.5</ele>
        <time>2022-02-20T12:09:28Z</time>
      </trkpt>
      <trkpt lat="42.74673" lon="1.6136">
        <ele>1843.502</ele>
        <time>2022-02-20T12:09:30Z</time>
      </trkpt>
      <trkpt lat="42.74673" lon="1.6136">
        <ele>1843.506</ele>
        <time>2022-02-20T12:09:32Z</time>
      </trkpt>
      <trkpt lat="42.74673" lon="1.6136">
        <ele>1843.511</ele>
        <time>2022-02-20T12:09:34Z</time>
      </trkpt>
      <trkpt lat="42.74673" lon="1.6136">
        <ele>1843.511</ele>
        <time>2022-02-20T12:09:36Z</time>
      </trkpt>
      <trkpt lat="42.74673" lon="1.6136">
        <ele>1843.513</ele>
        <time>2022-02-20T12:09:38Z</time>
      </trkpt>
      <trkpt lat="42.74673" lon="1.6136">
        <ele>1843.519</ele>
        <time>2022-02-20T12:09:40Z</time>
      </trkpt>
      <trkpt lat="42.74673" lon="1.6136">
        <ele>1843.525</ele>
        <time>2022-02-20T12:09:42Z</time>
      </trkpt>
      <trkpt lat="42.74673" lon="1.6136">
        <ele>1843.53</ele>
        <time>2022-02-20T12:09:44Z</time>
      </trkpt>
      <trkpt lat="42.74673" lon="1.6136">
        <ele>1843.533</ele>
        <time>2022-02-20T12:09:46Z</time>
      </trkpt>
      <trkpt lat="42.74673" lon="1.6136">
        <ele>1843.539</ele>
        <time>2022-02-20T12:09:48Z</time>
      </trkpt>
      <trkpt lat="42.74673" lon="1.6136">
        <ele>1843.543</ele>
        <time>2022-02-20T12:09:50Z</time>
      </trkpt>
      <trkpt lat="42.74673" lon="1.6136">
        <ele>1843.543</ele>
        <time>2022-02-20T12:09:52Z</time>
      </trkpt>
      <trkpt lat="42.74673" lon="1.6136">
        <ele>1843.539</ele>
        <time>2022-02-20T12:09:54Z</time>
      </trkpt>
      <trkpt lat="42.74673" lon="1.6136">
        <ele>1843.541</ele>
        <time>2022-02-20T12:09:56Z</time>
      </trkpt>
      <trkpt lat="42.74673" lon="1.6136">
        <ele>1843.539</ele>
        <time>2022-02-20T12:09:58Z</time>
      </trkpt>
      <trkpt lat="42.74673" lon="1.6136">
        <ele>1843.537</ele>
        <time>2022-02-20T12:10:00Z</time>
      </trkpt>
      <trkpt lat="42.74673" lon="1.6136">
        <ele>1843.539</ele>
        <time>2022-02-20T12:10:02Z</time>
      </trkpt>
      <trkpt lat="42.74673" lon="1.6136">
        <ele>1843.537</ele>
        <time>2022-02-20T12:10:04Z</time>
      </trkpt>
      <trkpt lat="42.74673" lon="1.6136">
        <ele>1843.534</ele>
        <time>2022-02-20T12:10:06Z</time>
      </trkpt>
      <trkpt lat="42.74673" lon="1.6136">
        <ele>1843.535</ele>
        <time>2022-02-20T12:10:08Z</time>
      </trkpt>
      <trkpt lat="42.74673" lon="1.6136">
        <ele>1843.534</ele>
        <time>2022-02-20T12:10:10Z</time>
      </trkpt>
      <trkpt lat="42.74673" lon="1.6136">
        <ele>1843.531</ele>
        <time>2022-02-20T12:10:12Z</time>
      </trkpt>
      <trkpt lat="42.74673" lon="1.6136">
        <ele>1843.531</ele>
        <time>2022-02-20T12:10:14Z</time>
      </trkpt>
      <trkpt lat="42.74673" lon="1.6136">
        <ele>1843.531</ele>
        <time>2022-02-20T12:10:16Z</time>
      </trkpt>
      <trkpt lat="42.74673" lon="1.6136">
        <ele>1843.53</ele>
        <time>2022-02-20T12:10:18Z</time>
      </trkpt>
      <trkpt lat="42.74673" lon="1.6136">
        <ele>1843.536</ele>
        <time>2022-02-20T12:10:20Z</time>
      </trkpt>
      <trkpt lat="42.74673" lon="1.6136">
        <ele>1843.536</ele>
        <time>2022-02-20T12:10:22Z</time>
      </trkpt>
      <trkpt lat="42.74673" lon="1.6136">
        <ele>1843.538</ele>
        <time>2022-02-20T12:10:24Z</time>
      </trkpt>
      <trkpt lat="42.74673" lon="1.6136">
        <ele>1843.542</ele>
        <time>2022-02-20T12:10:26Z</time>
      </trkpt>
      <trkpt lat="42.74673" lon="1.6136">
        <ele>1843.542</ele>
        <time>2022-02-20T12:10:28Z</time>
      </trkpt>
      <trkpt lat="42.74673" lon="1.6136">
        <ele>1843.548</ele>
        <time>2022-02-20T12:10:30Z</time>
      </trkpt>
      <trkpt lat="42.74673" lon="1.6136">
        <ele>1843.548</ele>
        <time>2022-02-20T12:10:32Z</time>
      </trkpt>
      <trkpt lat="42.74673" lon="1.6136">
        <ele>1843.556</ele>
        <time>2022-02-20T12:10:34Z</time>
      </trkpt>
      <trkpt lat="42.74673" lon="1.6136">
        <ele>1843.559</ele>
        <time>2022-02-20T12:10:36Z</time>
      </trkpt>
      <trkpt lat="42.74673" lon="1.6136">
        <ele>1843.561</ele>
        <time>2022-02-20T12:10:38Z</time>
      </trkpt>
      <trkpt lat="42.74673" lon="1.6136">
        <ele>1843.559</ele>
        <time>2022-02-20T12:10:40Z</time>
      </trkpt>
      <trkpt lat="42.74673" lon="1.6136">
        <ele>1843.567</ele>
        <time>2022-02-20T12:10:42Z</time>
      </trkpt>
      <trkpt lat="42.74673" lon="1.6136">
        <ele>1843.573</ele>
        <time>2022-02-20T12:10:44Z</time>
      </trkpt>
      <trkpt lat="42.74673" lon="1.6136">
        <ele>1843.583</ele>
        <time>2022-02-20T12:10:46Z</time>
      </trkpt>
      <trkpt lat="42.74673" lon="1.6136">
        <ele>1843.59</ele>
        <time>2022-02-20T12:10:48Z</time>
      </trkpt>
      <trkpt lat="42.74673" lon="1.6136">
        <ele>1843.595</ele>
        <time>2022-02-20T12:10:50Z</time>
      </trkpt>
      <trkpt lat="42.74673" lon="1.6136">
        <ele>1843.598</ele>
        <time>2022-02-20T12:10:52Z</time>
      </trkpt>
      <trkpt lat="42.74673" lon="1.6136">
        <ele>1843.602</ele>
        <time>2022-02-20T12:10:54Z</time>
      </trkpt>
      <trkpt lat="42.74673" lon="1.6136">
        <ele>1843.607</ele>
        <time>2022-02-20T12:10:56Z</time>
      </trkpt>
      <trkpt lat="42.74673" lon="1.6136">
        <ele>1843.612</ele>
        <time>2022-02-20T12:10:58Z</time>
      </trkpt>
      <trkpt lat="42.74673" lon="1.6136">
        <ele>1843.618</ele>
        <time>2022-02-20T12:11:00Z</time>
      </trkpt>
      <trkpt lat="42.74673" lon="1.6136">
        <ele>1843.621</ele>
        <time>2022-02-20T12:11:02Z</time>
      </trkpt>
      <trkpt lat="42.74673" lon="1.6136">
        <ele>1843.624</ele>
        <time>2022-02-20T12:11:04Z</time>
      </trkpt>
      <trkpt lat="42.74673" lon="1.6136">
        <ele>1843.629</ele>
        <time>2022-02-20T12:11:06Z</time>
      </trkpt>
      <trkpt lat="42.74673" lon="1.61361">
        <ele>1843.883</ele>
        <time>2022-02-20T12:11:08Z</time>
      </trkpt>
      <trkpt lat="42.74673" lon="1.61361">
        <ele>1843.484</ele>
        <time>2022-02-20T12:11:10Z</time>
      </trkpt>
      <trkpt lat="42.74673" lon="1.61361">
        <ele>1843.598</ele>
        <time>2022-02-20T12:11:12Z</time>
      </trkpt>
      <trkpt lat="42.74673" lon="1.61361">
        <ele>1843.766</ele>
        <time>2022-02-20T12:11:14Z</time>
      </trkpt>
      <trkpt lat="42.74673" lon="1.61361">
        <ele>1844.177</ele>
        <time>2022-02-20T12:11:16Z</time>
      </trkpt>
      <trkpt lat="42.74673" lon="1.61361">
        <ele>1844.182</ele>
        <time>2022-02-20T12:11:18Z</time>
      </trkpt>
      <trkpt lat="42.74673" lon="1.61361">
        <ele>1844.249</ele>
        <time>2022-02-20T12:11:20Z</time>
      </trkpt>
      <trkpt lat="42.74672" lon="1.61361">
        <ele>1844.131</ele>
        <time>2022-02-20T12:11:22Z</time>
      </trkpt>
      <trkpt lat="42.74672" lon="1.61361">
        <ele>1844.133</ele>
        <time>2022-02-20T12:11:24Z</time>
      </trkpt>
      <trkpt lat="42.74672" lon="1.61361">
        <ele>1844.133</ele>
        <time>2022-02-20T12:11:26Z</time>
      </trkpt>
      <trkpt lat="42.74672" lon="1.61361">
        <ele>1844.136</ele>
        <time>2022-02-20T12:11:28Z</time>
      </trkpt>
      <trkpt lat="42.74672" lon="1.61361">
        <ele>1844.139</ele>
        <time>2022-02-20T12:11:30Z</time>
      </trkpt>
      <trkpt lat="42.74672" lon="1.61361">
        <ele>1844.01</ele>
        <time>2022-02-20T12:11:32Z</time>
      </trkpt>
      <trkpt lat="42.74672" lon="1.61361">
        <ele>1844.01</ele>
        <time>2022-02-20T12:11:34Z</time>
      </trkpt>
      <trkpt lat="42.74672" lon="1.61361">
        <ele>1844.013</ele>
        <time>2022-02-20T12:11:36Z</time>
      </trkpt>
      <trkpt lat="42.74672" lon="1.61361">
        <ele>1844.016</ele>
        <time>2022-02-20T12:11:38Z</time>
      </trkpt>
      <trkpt lat="42.74672" lon="1.61361">
        <ele>1844.017</ele>
        <time>2022-02-20T12:11:40Z</time>
      </trkpt>
      <trkpt lat="42.74672" lon="1.61361">
        <ele>1844.016</ele>
        <time>2022-02-20T12:11:42Z</time>
      </trkpt>
      <trkpt lat="42.74672" lon="1.61361">
        <ele>1844.021</ele>
        <time>2022-02-20T12:11:44Z</time>
      </trkpt>
      <trkpt lat="42.74672" lon="1.61361">
        <ele>1844.023</ele>
        <time>2022-02-20T12:11:46Z</time>
      </trkpt>
      <trkpt lat="42.74672" lon="1.61361">
        <ele>1844.031</ele>
        <time>2022-02-20T12:11:48Z</time>
      </trkpt>
      <trkpt lat="42.74672" lon="1.61361">
        <ele>1844.034</ele>
        <time>2022-02-20T12:11:50Z</time>
      </trkpt>
      <trkpt lat="42.74672" lon="1.61361">
        <ele>1844.041</ele>
        <time>2022-02-20T12:11:52Z</time>
      </trkpt>
      <trkpt lat="42.74672" lon="1.61361">
        <ele>1844.044</ele>
        <time>2022-02-20T12:11:54Z</time>
      </trkpt>
      <trkpt lat="42.74672" lon="1.61361">
        <ele>1844.047</ele>
        <time>2022-02-20T12:11:56Z</time>
      </trkpt>
      <trkpt lat="42.74672" lon="1.61361">
        <ele>1844.051</ele>
        <time>2022-02-20T12:11:58Z</time>
      </trkpt>
      <trkpt lat="42.74672" lon="1.61361">
        <ele>1844.055</ele>
        <time>2022-02-20T12:12:00Z</time>
      </trkpt>
      <trkpt lat="42.74672" lon="1.61361">
        <ele>1844.064</ele>
        <time>2022-02-20T12:12:02Z</time>
      </trkpt>
      <trkpt lat="42.74672" lon="1.61361">
        <ele>1844.065</ele>
        <time>2022-02-20T12:12:04Z</time>
      </trkpt>
      <trkpt lat="42.74672" lon="1.61361">
        <ele>1844.07</ele>
        <time>2022-02-20T12:12:06Z</time>
      </trkpt>
      <trkpt lat="42.74672" lon="1.61361">
        <ele>1844.074</ele>
        <time>2022-02-20T12:12:08Z</time>
      </trkpt>
      <trkpt lat="42.74672" lon="1.61361">
        <ele>1844.081</ele>
        <time>2022-02-20T12:12:10Z</time>
      </trkpt>
      <trkpt lat="42.74672" lon="1.61361">
        <ele>1844.084</ele>
        <time>2022-02-20T12:12:12Z</time>
      </trkpt>
      <trkpt lat="42.74672" lon="1.61361">
        <ele>1844.091</ele>
        <time>2022-02-20T12:12:14Z</time>
      </trkpt>
      <trkpt lat="42.74672" lon="1.61361">
        <ele>1844.1</ele>
        <time>2022-02-20T12:12:16Z</time>
      </trkpt>
      <trkpt lat="42.74672" lon="1.61361">
        <ele>1844.107</ele>
        <time>2022-02-20T12:12:18Z</time>
      </trkpt>
      <trkpt lat="42.74672" lon="1.61361">
        <ele>1844.11</ele>
        <time>2022-02-20T12:12:20Z</time>
      </trkpt>
      <trkpt lat="42.74672" lon="1.61361">
        <ele>1844.501</ele>
        <time>2022-02-20T12:12:22Z</time>
      </trkpt>
      <trkpt lat="42.74672" lon="1.61361">
        <ele>1844.493</ele>
        <time>2022-02-20T12:12:24Z</time>
      </trkpt>
      <trkpt lat="42.74672" lon="1.61361">
        <ele>1844.5</ele>
        <time>2022-02-20T12:12:26Z</time>
      </trkpt>
      <trkpt lat="42.74672" lon="1.61361">
        <ele>1844.507</ele>
        <time>2022-02-20T12:12:28Z</time>
      </trkpt>
      <trkpt lat="42.74672" lon="1.61361">
        <ele>1844.509</ele>
        <time>2022-02-20T12:12:30Z</time>
      </trkpt>
      <trkpt lat="42.74672" lon="1.61361">
        <ele>1844.512</ele>
        <time>2022-02-20T12:12:32Z</time>
      </trkpt>
      <trkpt lat="42.74672" lon="1.61361">
        <ele>1844.517</ele>
        <time>2022-02-20T12:12:34Z</time>
      </trkpt>
      <trkpt lat="42.74672" lon="1.61361">
        <ele>1844.522</ele>
        <time>2022-02-20T12:12:36Z</time>
      </trkpt>
      <trkpt lat="42.74672" lon="1.61361">
        <ele>1844.529</ele>
        <time>2022-02-20T12:12:38Z</time>
      </trkpt>
      <trkpt lat="42.74672" lon="1.61361">
        <ele>1844.533</ele>
        <time>2022-02-20T12:12:40Z</time>
      </trkpt>
      <trkpt lat="42.74672" lon="1.61361">
        <ele>1844.537</ele>
        <time>2022-02-20T12:12:42Z</time>
      </trkpt>
      <trkpt lat="42.74672" lon="1.61361">
        <ele>1844.541</ele>
        <time>2022-02-20T12:12:44Z</time>
      </trkpt>
      <trkpt lat="42.74672" lon="1.61361">
        <ele>1844.542</ele>
        <time>2022-02-20T12:12:46Z</time>
      </trkpt>
      <trkpt lat="42.74672" lon="1.61361">
        <ele>1844.542</ele>
        <time>2022-02-20T12:12:48Z</time>
      </trkpt>
      <trkpt lat="42.74672" lon="1.61361">
        <ele>1844.543</ele>
        <time>2022-02-20T12:12:50Z</time>
      </trkpt>
      <trkpt lat="42.74672" lon="1.61361">
        <ele>1844.548</ele>
        <time>2022-02-20T12:12:52Z</time>
      </trkpt>
      <trkpt lat="42.74672" lon="1.61361">
        <ele>1844.548</ele>
        <time>2022-02-20T12:12:54Z</time>
      </trkpt>
      <trkpt lat="42.74672" lon="1.61361">
        <ele>1844.551</ele>
        <time>2022-02-20T12:12:56Z</time>
      </trkpt>
      <trkpt lat="42.74672" lon="1.61361">
        <ele>1844.55</ele>
        <time>2022-02-20T12:12:58Z</time>
      </trkpt>
      <trkpt lat="42.74672" lon="1.61361">
        <ele>1844.549</ele>
        <time>2022-02-20T12:13:00Z</time>
      </trkpt>
      <trkpt lat="42.74672" lon="1.61361">
        <ele>1844.55</ele>
        <time>2022-02-20T12:13:02Z</time>
      </trkpt>
      <trkpt lat="42.74672" lon="1.61361">
        <ele>1844.55</ele>
        <time>2022-02-20T12:13:04Z</time>
      </trkpt>
      <trkpt lat="42.74672" lon="1.61361">
        <ele>1844.552</ele>
        <time>2022-02-20T12:13:06Z</time>
      </trkpt>
      <trkpt lat="42.74672" lon="1.61361">
        <ele>1844.552</ele>
        <time>2022-02-20T12:13:08Z</time>
      </trkpt>
      <trkpt lat="42.74672" lon="1.61361">
        <ele>1844.557</ele>
        <time>2022-02-20T12:13:10Z</time>
      </trkpt>
      <trkpt lat="42.74672" lon="1.61361">
        <ele>1844.559</ele>
        <time>2022-02-20T12:13:12Z</time>
      </trkpt>
      <trkpt lat="42.74672" lon="1.61361">
        <ele>1844.558</ele>
        <time>2022-02-20T12:13:14Z</time>
      </trkpt>
      <trkpt lat="42.74672" lon="1.61361">
        <ele>1844.561</ele>
        <time>2022-02-20T12:13:16Z</time>
      </trkpt>
      <trkpt lat="42.74672" lon="1.61361">
        <ele>1844.565</ele>
        <time>2022-02-20T12:13:18Z</time>
      </trkpt>
      <trkpt lat="42.74672" lon="1.61361">
        <ele>1844.567</ele>
        <time>2022-02-20T12:13:20Z</time>
      </trkpt>
      <trkpt lat="42.74672" lon="1.61361">
        <ele>1844.531</ele>
        <time>2022-02-20T12:13:22Z</time>
      </trkpt>
      <trkpt lat="42.74671" lon="1.61362">
        <ele>1845.127</ele>
        <time>2022-02-20T12:13:24Z</time>
      </trkpt>
      <trkpt lat="42.74671" lon="1.61363">
        <ele>1846.388</ele>
        <time>2022-02-20T12:13:26Z</time>
      </trkpt>
      <trkpt lat="42.74671" lon="1.61363">
        <ele>1847.022</ele>
        <time>2022-02-20T12:13:28Z</time>
      </trkpt>
      <trkpt lat="42.74671" lon="1.61363">
        <ele>1847.039</ele>
        <time>2022-02-20T12:13:30Z</time>
      </trkpt>
      <trkpt lat="42.74671" lon="1.61363">
        <ele>1847.039</ele>
        <time>2022-02-20T12:13:32Z</time>
      </trkpt>
      <trkpt lat="42.74671" lon="1.61363">
        <ele>1847.043</ele>
        <time>2022-02-20T12:13:34Z</time>
      </trkpt>
      <trkpt lat="42.74671" lon="1.61363">
        <ele>1846.796</ele>
        <time>2022-02-20T12:13:36Z</time>
      </trkpt>
      <trkpt lat="42.74671" lon="1.61362">
        <ele>1846.939</ele>
        <time>2022-02-20T12:13:38Z</time>
      </trkpt>
      <trkpt lat="42.74671" lon="1.61362">
        <ele>1846.917</ele>
        <time>2022-02-20T12:13:40Z</time>
      </trkpt>
      <trkpt lat="42.74671" lon="1.61362">
        <ele>1846.986</ele>
        <time>2022-02-20T12:13:42Z</time>
      </trkpt>
      <trkpt lat="42.74671" lon="1.61362">
        <ele>1846.995</ele>
        <time>2022-02-20T12:13:44Z</time>
      </trkpt>
      <trkpt lat="42.74671" lon="1.61362">
        <ele>1847</ele>
        <time>2022-02-20T12:13:46Z</time>
      </trkpt>
      <trkpt lat="42.74671" lon="1.61362">
        <ele>1847.002</ele>
        <time>2022-02-20T12:13:48Z</time>
      </trkpt>
      <trkpt lat="42.74671" lon="1.61362">
        <ele>1847.113</ele>
        <time>2022-02-20T12:13:50Z</time>
      </trkpt>
      <trkpt lat="42.74672" lon="1.61362">
        <ele>1846.604</ele>
        <time>2022-02-20T12:13:52Z</time>
      </trkpt>
      <trkpt lat="42.74671" lon="1.61364">
        <ele>1847.494</ele>
        <time>2022-02-20T12:13:54Z</time>
      </trkpt>
      <trkpt lat="42.74671" lon="1.61364">
        <ele>1847.881</ele>
        <time>2022-02-20T12:13:56Z</time>
      </trkpt>
      <trkpt lat="42.74671" lon="1.61364">
        <ele>1847.342</ele>
        <time>2022-02-20T12:13:58Z</time>
      </trkpt>
      <trkpt lat="42.74671" lon="1.61364">
        <ele>1847.349</ele>
        <time>2022-02-20T12:14:00Z</time>
      </trkpt>
      <trkpt lat="42.7467" lon="1.61361">
        <ele>1847.478</ele>
        <time>2022-02-20T12:14:02Z</time>
      </trkpt>
      <trkpt lat="42.74668" lon="1.6136">
        <ele>1847.618</ele>
        <time>2022-02-20T12:14:04Z</time>
      </trkpt>
      <trkpt lat="42.74669" lon="1.61359">
        <ele>1847.586</ele>
        <time>2022-02-20T12:14:06Z</time>
      </trkpt>
      <trkpt lat="42.7467" lon="1.61359">
        <ele>1846.723</ele>
        <time>2022-02-20T12:14:08Z</time>
      </trkpt>
      <trkpt lat="42.7467" lon="1.61359">
        <ele>1845.73</ele>
        <time>2022-02-20T12:14:10Z</time>
      </trkpt>
      <trkpt lat="42.7467" lon="1.61359">
        <ele>1845.726</ele>
        <time>2022-02-20T12:14:12Z</time>
      </trkpt>
      <trkpt lat="42.7467" lon="1.61359">
        <ele>1845.727</ele>
        <time>2022-02-20T12:14:14Z</time>
      </trkpt>
      <trkpt lat="42.7467" lon="1.61359">
        <ele>1845.726</ele>
        <time>2022-02-20T12:14:16Z</time>
      </trkpt>
      <trkpt lat="42.7467" lon="1.61359">
        <ele>1845.746</ele>
        <time>2022-02-20T12:14:18Z</time>
      </trkpt>
      <trkpt lat="42.7467" lon="1.61359">
        <ele>1845.74</ele>
        <time>2022-02-20T12:14:20Z</time>
      </trkpt>
      <trkpt lat="42.7467" lon="1.61359">
        <ele>1845.739</ele>
        <time>2022-02-20T12:14:22Z</time>
      </trkpt>
      <trkpt lat="42.7467" lon="1.61359">
        <ele>1845.741</ele>
        <time>2022-02-20T12:14:24Z</time>
      </trkpt>
      <trkpt lat="42.7467" lon="1.61359">
        <ele>1845.745</ele>
        <time>2022-02-20T12:14:26Z</time>
      </trkpt>
      <trkpt lat="42.7467" lon="1.61359">
        <ele>1845.748</ele>
        <time>2022-02-20T12:14:28Z</time>
      </trkpt>
      <trkpt lat="42.7467" lon="1.61359">
        <ele>1845.752</ele>
        <time>2022-02-20T12:14:30Z</time>
      </trkpt>
      <trkpt lat="42.7467" lon="1.61359">
        <ele>1845.754</ele>
        <time>2022-02-20T12:14:32Z</time>
      </trkpt>
      <trkpt lat="42.7467" lon="1.61359">
        <ele>1845.757</ele>
        <time>2022-02-20T12:14:34Z</time>
      </trkpt>
      <trkpt lat="42.7467" lon="1.61359">
        <ele>1845.754</ele>
        <time>2022-02-20T12:14:36Z</time>
      </trkpt>
      <trkpt lat="42.7467" lon="1.61359">
        <ele>1845.759</ele>
        <time>2022-02-20T12:14:38Z</time>
      </trkpt>
      <trkpt lat="42.7467" lon="1.61359">
        <ele>1845.758</ele>
        <time>2022-02-20T12:14:40Z</time>
      </trkpt>
      <trkpt lat="42.7467" lon="1.61359">
        <ele>1845.761</ele>
        <time>2022-02-20T12:14:42Z</time>
      </trkpt>
      <trkpt lat="42.7467" lon="1.61359">
        <ele>1845.76</ele>
        <time>2022-02-20T12:14:44Z</time>
      </trkpt>
      <trkpt lat="42.7467" lon="1.61359">
        <ele>1846.268</ele>
        <time>2022-02-20T12:14:46Z</time>
      </trkpt>
      <trkpt lat="42.7467" lon="1.61359">
        <ele>1846.288</ele>
        <time>2022-02-20T12:14:48Z</time>
      </trkpt>
      <trkpt lat="42.7467" lon="1.61359">
        <ele>1846.288</ele>
        <time>2022-02-20T12:14:50Z</time>
      </trkpt>
      <trkpt lat="42.7467" lon="1.61359">
        <ele>1846.287</ele>
        <time>2022-02-20T12:14:52Z</time>
      </trkpt>
      <trkpt lat="42.7467" lon="1.61359">
        <ele>1846.618</ele>
        <time>2022-02-20T12:14:54Z</time>
      </trkpt>
      <trkpt lat="42.7467" lon="1.61359">
        <ele>1846.628</ele>
        <time>2022-02-20T12:14:56Z</time>
      </trkpt>
      <trkpt lat="42.7467" lon="1.61359">
        <ele>1846.629</ele>
        <time>2022-02-20T12:14:58Z</time>
      </trkpt>
      <trkpt lat="42.7467" lon="1.61359">
        <ele>1846.631</ele>
        <time>2022-02-20T12:15:00Z</time>
      </trkpt>
      <trkpt lat="42.7467" lon="1.61359">
        <ele>1846.634</ele>
        <time>2022-02-20T12:15:02Z</time>
      </trkpt>
      <trkpt lat="42.7467" lon="1.61359">
        <ele>1846.636</ele>
        <time>2022-02-20T12:15:04Z</time>
      </trkpt>
      <trkpt lat="42.7467" lon="1.61359">
        <ele>1846.639</ele>
        <time>2022-02-20T12:15:06Z</time>
      </trkpt>
      <trkpt lat="42.7467" lon="1.61359">
        <ele>1846.641</ele>
        <time>2022-02-20T12:15:08Z</time>
      </trkpt>
      <trkpt lat="42.7467" lon="1.61359">
        <ele>1846.645</ele>
        <time>2022-02-20T12:15:10Z</time>
      </trkpt>
      <trkpt lat="42.7467" lon="1.61359">
        <ele>1846.646</ele>
        <time>2022-02-20T12:15:12Z</time>
      </trkpt>
      <trkpt lat="42.7467" lon="1.61359">
        <ele>1846.645</ele>
        <time>2022-02-20T12:15:14Z</time>
      </trkpt>
      <trkpt lat="42.7467" lon="1.61359">
        <ele>1846.645</ele>
        <time>2022-02-20T12:15:16Z</time>
      </trkpt>
      <trkpt lat="42.7467" lon="1.61359">
        <ele>1846.645</ele>
        <time>2022-02-20T12:15:18Z</time>
      </trkpt>
      <trkpt lat="42.7467" lon="1.61359">
        <ele>1846.647</ele>
        <time>2022-02-20T12:15:20Z</time>
      </trkpt>
      <trkpt lat="42.7467" lon="1.61359">
        <ele>1846.649</ele>
        <time>2022-02-20T12:15:22Z</time>
      </trkpt>
      <trkpt lat="42.7467" lon="1.61359">
        <ele>1846.651</ele>
        <time>2022-02-20T12:15:24Z</time>
      </trkpt>
      <trkpt lat="42.7467" lon="1.61359">
        <ele>1846.651</ele>
        <time>2022-02-20T12:15:26Z</time>
      </trkpt>
      <trkpt lat="42.7467" lon="1.61359">
        <ele>1846.912</ele>
        <time>2022-02-20T12:15:28Z</time>
      </trkpt>
      <trkpt lat="42.7467" lon="1.61359">
        <ele>1846.78</ele>
        <time>2022-02-20T12:15:30Z</time>
      </trkpt>
      <trkpt lat="42.7467" lon="1.61359">
        <ele>1846.772</ele>
        <time>2022-02-20T12:15:32Z</time>
      </trkpt>
      <trkpt lat="42.7467" lon="1.61359">
        <ele>1846.771</ele>
        <time>2022-02-20T12:15:34Z</time>
      </trkpt>
      <trkpt lat="42.7467" lon="1.61359">
        <ele>1846.774</ele>
        <time>2022-02-20T12:15:36Z</time>
      </trkpt>
      <trkpt lat="42.7467" lon="1.61359">
        <ele>1847.388</ele>
        <time>2022-02-20T12:15:38Z</time>
      </trkpt>
      <trkpt lat="42.7467" lon="1.61359">
        <ele>1847.545</ele>
        <time>2022-02-20T12:15:40Z</time>
      </trkpt>
      <trkpt lat="42.7467" lon="1.61359">
        <ele>1847.54</ele>
        <time>2022-02-20T12:15:42Z</time>
      </trkpt>
      <trkpt lat="42.7467" lon="1.61359">
        <ele>1847.537</ele>
        <time>2022-02-20T12:15:44Z</time>
      </trkpt>
      <trkpt lat="42.7467" lon="1.61359">
        <ele>1847.537</ele>
        <time>2022-02-20T12:15:46Z</time>
      </trkpt>
      <trkpt lat="42.7467" lon="1.61359">
        <ele>1847.535</ele>
        <time>2022-02-20T12:15:48Z</time>
      </trkpt>
      <trkpt lat="42.7467" lon="1.61359">
        <ele>1847.536</ele>
        <time>2022-02-20T12:15:50Z</time>
      </trkpt>
      <trkpt lat="42.7467" lon="1.61359">
        <ele>1847.543</ele>
        <time>2022-02-20T12:15:52Z</time>
      </trkpt>
      <trkpt lat="42.7467" lon="1.61359">
        <ele>1847.546</ele>
        <time>2022-02-20T12:15:54Z</time>
      </trkpt>
      <trkpt lat="42.7467" lon="1.61359">
        <ele>1847.55</ele>
        <time>2022-02-20T12:15:56Z</time>
      </trkpt>
      <trkpt lat="42.7467" lon="1.61359">
        <ele>1847.556</ele>
        <time>2022-02-20T12:15:58Z</time>
      </trkpt>
      <trkpt lat="42.7467" lon="1.61359">
        <ele>1847.708</ele>
        <time>2022-02-20T12:16:00Z</time>
      </trkpt>
      <trkpt lat="42.7467" lon="1.61359">
        <ele>1847.708</ele>
        <time>2022-02-20T12:16:02Z</time>
      </trkpt>
      <trkpt lat="42.7467" lon="1.61359">
        <ele>1847.711</ele>
        <time>2022-02-20T12:16:04Z</time>
      </trkpt>
      <trkpt lat="42.7467" lon="1.61359">
        <ele>1847.714</ele>
        <time>2022-02-20T12:16:06Z</time>
      </trkpt>
      <trkpt lat="42.7467" lon="1.61359">
        <ele>1847.723</ele>
        <time>2022-02-20T12:16:08Z</time>
      </trkpt>
      <trkpt lat="42.7467" lon="1.61359">
        <ele>1847.733</ele>
        <time>2022-02-20T12:16:10Z</time>
      </trkpt>
      <trkpt lat="42.7467" lon="1.6136">
        <ele>1847.69</ele>
        <time>2022-02-20T12:16:12Z</time>
      </trkpt>
      <trkpt lat="42.7467" lon="1.6136">
        <ele>1847.758</ele>
        <time>2022-02-20T12:16:14Z</time>
      </trkpt>
      <trkpt lat="42.7467" lon="1.6136">
        <ele>1847.758</ele>
        <time>2022-02-20T12:16:16Z</time>
      </trkpt>
      <trkpt lat="42.7467" lon="1.6136">
        <ele>1847.761</ele>
        <time>2022-02-20T12:16:18Z</time>
      </trkpt>
      <trkpt lat="42.7467" lon="1.6136">
        <ele>1847.76</ele>
        <time>2022-02-20T12:16:20Z</time>
      </trkpt>
      <trkpt lat="42.7467" lon="1.6136">
        <ele>1847.761</ele>
        <time>2022-02-20T12:16:22Z</time>
      </trkpt>
      <trkpt lat="42.7467" lon="1.6136">
        <ele>1847.766</ele>
        <time>2022-02-20T12:16:24Z</time>
      </trkpt>
      <trkpt lat="42.7467" lon="1.6136">
        <ele>1847.776</ele>
        <time>2022-02-20T12:16:26Z</time>
      </trkpt>
      <trkpt lat="42.7467" lon="1.6136">
        <ele>1847.778</ele>
        <time>2022-02-20T12:16:28Z</time>
      </trkpt>
      <trkpt lat="42.7467" lon="1.6136">
        <ele>1847.782</ele>
        <time>2022-02-20T12:16:30Z</time>
      </trkpt>
      <trkpt lat="42.7467" lon="1.6136">
        <ele>1847.789</ele>
        <time>2022-02-20T12:16:32Z</time>
      </trkpt>
      <trkpt lat="42.7467" lon="1.6136">
        <ele>1847.796</ele>
        <time>2022-02-20T12:16:34Z</time>
      </trkpt>
      <trkpt lat="42.7467" lon="1.6136">
        <ele>1847.798</ele>
        <time>2022-02-20T12:16:36Z</time>
      </trkpt>
      <trkpt lat="42.7467" lon="1.6136">
        <ele>1847.8</ele>
        <time>2022-02-20T12:16:38Z</time>
      </trkpt>
      <trkpt lat="42.7467" lon="1.6136">
        <ele>1847.801</ele>
        <time>2022-02-20T12:16:40Z</time>
      </trkpt>
      <trkpt lat="42.7467" lon="1.6136">
        <ele>1847.802</ele>
        <time>2022-02-20T12:16:42Z</time>
      </trkpt>
      <trkpt lat="42.7467" lon="1.6136">
        <ele>1847.777</ele>
        <time>2022-02-20T12:16:44Z</time>
      </trkpt>
      <trkpt lat="42.7467" lon="1.61361">
        <ele>1848.255</ele>
        <time>2022-02-20T12:16:46Z</time>
      </trkpt>
      <trkpt lat="42.7467" lon="1.61361">
        <ele>1848.083</ele>
        <time>2022-02-20T12:16:48Z</time>
      </trkpt>
      <trkpt lat="42.74671" lon="1.61362">
        <ele>1847.824</ele>
        <time>2022-02-20T12:16:50Z</time>
      </trkpt>
      <trkpt lat="42.74671" lon="1.61362">
        <ele>1848.08</ele>
        <time>2022-02-20T12:16:52Z</time>
      </trkpt>
      <trkpt lat="42.74672" lon="1.61362">
        <ele>1848.292</ele>
        <time>2022-02-20T12:16:54Z</time>
      </trkpt>
      <trkpt lat="42.74671" lon="1.61362">
        <ele>1848.538</ele>
        <time>2022-02-20T12:16:56Z</time>
      </trkpt>
      <trkpt lat="42.74671" lon="1.61361">
        <ele>1848.044</ele>
        <time>2022-02-20T12:16:58Z</time>
      </trkpt>
      <trkpt lat="42.7467" lon="1.6136">
        <ele>1847.748</ele>
        <time>2022-02-20T12:17:00Z</time>
      </trkpt>
      <trkpt lat="42.74671" lon="1.61359">
        <ele>1847.006</ele>
        <time>2022-02-20T12:17:02Z</time>
      </trkpt>
      <trkpt lat="42.74671" lon="1.61357">
        <ele>1846.679</ele>
        <time>2022-02-20T12:17:04Z</time>
      </trkpt>
      <trkpt lat="42.74672" lon="1.61354">
        <ele>1846.318</ele>
        <time>2022-02-20T12:17:06Z</time>
      </trkpt>
      <trkpt lat="42.74673" lon="1.61352">
        <ele>1845.685</ele>
        <time>2022-02-20T12:17:08Z</time>
      </trkpt>
      <trkpt lat="42.74673" lon="1.61349">
        <ele>1845.853</ele>
        <time>2022-02-20T12:17:10Z</time>
      </trkpt>
      <trkpt lat="42.74673" lon="1.61347">
        <ele>1846.706</ele>
        <time>2022-02-20T12:17:12Z</time>
      </trkpt>
      <trkpt lat="42.74673" lon="1.61345">
        <ele>1846.64</ele>
        <time>2022-02-20T12:17:14Z</time>
      </trkpt>
      <trkpt lat="42.74674" lon="1.61343">
        <ele>1846.145</ele>
        <time>2022-02-20T12:17:16Z</time>
      </trkpt>
      <trkpt lat="42.74673" lon="1.61342">
        <ele>1847.197</ele>
        <time>2022-02-20T12:17:18Z</time>
      </trkpt>
      <trkpt lat="42.74674" lon="1.61341">
        <ele>1846.841</ele>
        <time>2022-02-20T12:17:20Z</time>
      </trkpt>
      <trkpt lat="42.74676" lon="1.61341">
        <ele>1847.067</ele>
        <time>2022-02-20T12:17:22Z</time>
      </trkpt>
      <trkpt lat="42.74678" lon="1.61341">
        <ele>1847.227</ele>
        <time>2022-02-20T12:17:24Z</time>
      </trkpt>
      <trkpt lat="42.74679" lon="1.61341">
        <ele>1847.841</ele>
        <time>2022-02-20T12:17:26Z</time>
      </trkpt>
      <trkpt lat="42.74681" lon="1.61342">
        <ele>1847.675</ele>
        <time>2022-02-20T12:17:28Z</time>
      </trkpt>
      <trkpt lat="42.74682" lon="1.61343">
        <ele>1847.698</ele>
        <time>2022-02-20T12:17:30Z</time>
      </trkpt>
      <trkpt lat="42.74683" lon="1.61345">
        <ele>1847.765</ele>
        <time>2022-02-20T12:17:32Z</time>
      </trkpt>
      <trkpt lat="42.74685" lon="1.61347">
        <ele>1848.343</ele>
        <time>2022-02-20T12:17:34Z</time>
      </trkpt>
      <trkpt lat="42.74685" lon="1.61347">
        <ele>1848.285</ele>
        <time>2022-02-20T12:17:36Z</time>
      </trkpt>
      <trkpt lat="42.74686" lon="1.61348">
        <ele>1848.016</ele>
        <time>2022-02-20T12:17:38Z</time>
      </trkpt>
      <trkpt lat="42.74687" lon="1.6135">
        <ele>1848.162</ele>
        <time>2022-02-20T12:17:40Z</time>
      </trkpt>
      <trkpt lat="42.74688" lon="1.61351">
        <ele>1848.114</ele>
        <time>2022-02-20T12:17:42Z</time>
      </trkpt>
      <trkpt lat="42.74688" lon="1.61354">
        <ele>1848.363</ele>
        <time>2022-02-20T12:17:44Z</time>
      </trkpt>
      <trkpt lat="42.74688" lon="1.61355">
        <ele>1849.35</ele>
        <time>2022-02-20T12:17:46Z</time>
      </trkpt>
      <trkpt lat="42.74689" lon="1.61357">
        <ele>1850.075</ele>
        <time>2022-02-20T12:17:48Z</time>
      </trkpt>
      <trkpt lat="42.7469" lon="1.61358">
        <ele>1850.552</ele>
        <time>2022-02-20T12:17:50Z</time>
      </trkpt>
      <trkpt lat="42.74691" lon="1.61359">
        <ele>1850.503</ele>
        <time>2022-02-20T12:17:52Z</time>
      </trkpt>
      <trkpt lat="42.74691" lon="1.61359">
        <ele>1850.648</ele>
        <time>2022-02-20T12:17:54Z</time>
      </trkpt>
      <trkpt lat="42.74691" lon="1.61359">
        <ele>1850.652</ele>
        <time>2022-02-20T12:17:56Z</time>
      </trkpt>
      <trkpt lat="42.74691" lon="1.61359">
        <ele>1850.752</ele>
        <time>2022-02-20T12:17:58Z</time>
      </trkpt>
      <trkpt lat="42.74692" lon="1.61358">
        <ele>1851.383</ele>
        <time>2022-02-20T12:18:00Z</time>
      </trkpt>
      <trkpt lat="42.74693" lon="1.61358">
        <ele>1851.305</ele>
        <time>2022-02-20T12:18:02Z</time>
      </trkpt>
      <trkpt lat="42.74694" lon="1.61358">
        <ele>1851.196</ele>
        <time>2022-02-20T12:18:04Z</time>
      </trkpt>
      <trkpt lat="42.74694" lon="1.61357">
        <ele>1851.347</ele>
        <time>2022-02-20T12:18:06Z</time>
      </trkpt>
      <trkpt lat="42.74696" lon="1.61355">
        <ele>1852.078</ele>
        <time>2022-02-20T12:18:08Z</time>
      </trkpt>
      <trkpt lat="42.74696" lon="1.61356">
        <ele>1851.948</ele>
        <time>2022-02-20T12:18:10Z</time>
      </trkpt>
      <trkpt lat="42.74695" lon="1.61358">
        <ele>1851.987</ele>
        <time>2022-02-20T12:18:12Z</time>
      </trkpt>
      <trkpt lat="42.74694" lon="1.61359">
        <ele>1851.963</ele>
        <time>2022-02-20T12:18:14Z</time>
      </trkpt>
      <trkpt lat="42.74694" lon="1.61359">
        <ele>1851.964</ele>
        <time>2022-02-20T12:18:16Z</time>
      </trkpt>
      <trkpt lat="42.74695" lon="1.61361">
        <ele>1853.034</ele>
        <time>2022-02-20T12:18:18Z</time>
      </trkpt>
      <trkpt lat="42.74695" lon="1.61361">
        <ele>1853.034</ele>
        <time>2022-02-20T12:18:20Z</time>
      </trkpt>
      <trkpt lat="42.74695" lon="1.61361">
        <ele>1853.033</ele>
        <time>2022-02-20T12:18:22Z</time>
      </trkpt>
      <trkpt lat="42.74695" lon="1.61361">
        <ele>1853.039</ele>
        <time>2022-02-20T12:18:24Z</time>
      </trkpt>
      <trkpt lat="42.74694" lon="1.61361">
        <ele>1853.621</ele>
        <time>2022-02-20T12:18:26Z</time>
      </trkpt>
      <trkpt lat="42.74694" lon="1.6136">
        <ele>1853.609</ele>
        <time>2022-02-20T12:18:28Z</time>
      </trkpt>
      <trkpt lat="42.74694" lon="1.6136">
        <ele>1853.603</ele>
        <time>2022-02-20T12:18:30Z</time>
      </trkpt>
      <trkpt lat="42.74693" lon="1.6136">
        <ele>1853.55</ele>
        <time>2022-02-20T12:18:32Z</time>
      </trkpt>
      <trkpt lat="42.74693" lon="1.6136">
        <ele>1853.893</ele>
        <time>2022-02-20T12:18:34Z</time>
      </trkpt>
      <trkpt lat="42.74692" lon="1.6136">
        <ele>1854.236</ele>
        <time>2022-02-20T12:18:36Z</time>
      </trkpt>
      <trkpt lat="42.74692" lon="1.61361">
        <ele>1854.11</ele>
        <time>2022-02-20T12:18:38Z</time>
      </trkpt>
      <trkpt lat="42.74691" lon="1.61361">
        <ele>1853.745</ele>
        <time>2022-02-20T12:18:40Z</time>
      </trkpt>
      <trkpt lat="42.74691" lon="1.61361">
        <ele>1853.381</ele>
        <time>2022-02-20T12:18:42Z</time>
      </trkpt>
      <trkpt lat="42.7469" lon="1.6136">
        <ele>1853.366</ele>
        <time>2022-02-20T12:18:44Z</time>
      </trkpt>
      <trkpt lat="42.7469" lon="1.6136">
        <ele>1853.365</ele>
        <time>2022-02-20T12:18:46Z</time>
      </trkpt>
      <trkpt lat="42.7469" lon="1.61359">
        <ele>1853.283</ele>
        <time>2022-02-20T12:18:48Z</time>
      </trkpt>
      <trkpt lat="42.7469" lon="1.61359">
        <ele>1853.143</ele>
        <time>2022-02-20T12:18:50Z</time>
      </trkpt>
      <trkpt lat="42.7469" lon="1.61358">
        <ele>1853.314</ele>
        <time>2022-02-20T12:18:52Z</time>
      </trkpt>
      <trkpt lat="42.7469" lon="1.61359">
        <ele>1853.116</ele>
        <time>2022-02-20T12:18:54Z</time>
      </trkpt>
      <trkpt lat="42.7469" lon="1.61359">
        <ele>1853.068</ele>
        <time>2022-02-20T12:18:56Z</time>
      </trkpt>
      <trkpt lat="42.7469" lon="1.61359">
        <ele>1853.335</ele>
        <time>2022-02-20T12:18:58Z</time>
      </trkpt>
      <trkpt lat="42.7469" lon="1.61359">
        <ele>1853.334</ele>
        <time>2022-02-20T12:19:00Z</time>
      </trkpt>
      <trkpt lat="42.7469" lon="1.61359">
        <ele>1853.183</ele>
        <time>2022-02-20T12:19:02Z</time>
      </trkpt>
      <trkpt lat="42.7469" lon="1.61359">
        <ele>1853.392</ele>
        <time>2022-02-20T12:19:04Z</time>
      </trkpt>
      <trkpt lat="42.7469" lon="1.61359">
        <ele>1853.396</ele>
        <time>2022-02-20T12:19:06Z</time>
      </trkpt>
      <trkpt lat="42.7469" lon="1.61359">
        <ele>1853.394</ele>
        <time>2022-02-20T12:19:08Z</time>
      </trkpt>
      <trkpt lat="42.7469" lon="1.61359">
        <ele>1853.39</ele>
        <time>2022-02-20T12:19:10Z</time>
      </trkpt>
      <trkpt lat="42.7469" lon="1.61359">
        <ele>1853.463</ele>
        <time>2022-02-20T12:19:12Z</time>
      </trkpt>
      <trkpt lat="42.7469" lon="1.61359">
        <ele>1853.462</ele>
        <time>2022-02-20T12:19:14Z</time>
      </trkpt>
      <trkpt lat="42.7469" lon="1.61359">
        <ele>1853.46</ele>
        <time>2022-02-20T12:19:16Z</time>
      </trkpt>
      <trkpt lat="42.7469" lon="1.61359">
        <ele>1853.461</ele>
        <time>2022-02-20T12:19:18Z</time>
      </trkpt>
      <trkpt lat="42.7469" lon="1.61359">
        <ele>1853.461</ele>
        <time>2022-02-20T12:19:20Z</time>
      </trkpt>
      <trkpt lat="42.7469" lon="1.61359">
        <ele>1853.459</ele>
        <time>2022-02-20T12:19:22Z</time>
      </trkpt>
      <trkpt lat="42.7469" lon="1.61358">
        <ele>1853.412</ele>
        <time>2022-02-20T12:19:24Z</time>
      </trkpt>
      <trkpt lat="42.7469" lon="1.61358">
        <ele>1853.405</ele>
        <time>2022-02-20T12:19:26Z</time>
      </trkpt>
      <trkpt lat="42.74689" lon="1.61358">
        <ele>1853.51</ele>
        <time>2022-02-20T12:19:28Z</time>
      </trkpt>
      <trkpt lat="42.74688" lon="1.6136">
        <ele>1853.591</ele>
        <time>2022-02-20T12:19:30Z</time>
      </trkpt>
      <trkpt lat="42.74688" lon="1.61359">
        <ele>1853.408</ele>
        <time>2022-02-20T12:19:32Z</time>
      </trkpt>
      <trkpt lat="42.74688" lon="1.61359">
        <ele>1853.475</ele>
        <time>2022-02-20T12:19:34Z</time>
      </trkpt>
      <trkpt lat="42.74688" lon="1.61359">
        <ele>1853.598</ele>
        <time>2022-02-20T12:19:36Z</time>
      </trkpt>
      <trkpt lat="42.74688" lon="1.61359">
        <ele>1853.596</ele>
        <time>2022-02-20T12:19:38Z</time>
      </trkpt>
      <trkpt lat="42.74688" lon="1.61359">
        <ele>1853.596</ele>
        <time>2022-02-20T12:19:40Z</time>
      </trkpt>
      <trkpt lat="42.74688" lon="1.61359">
        <ele>1853.592</ele>
        <time>2022-02-20T12:19:42Z</time>
      </trkpt>
      <trkpt lat="42.74688" lon="1.61359">
        <ele>1853.592</ele>
        <time>2022-02-20T12:19:44Z</time>
      </trkpt>
      <trkpt lat="42.74688" lon="1.61359">
        <ele>1853.591</ele>
        <time>2022-02-20T12:19:46Z</time>
      </trkpt>
      <trkpt lat="42.74688" lon="1.61359">
        <ele>1853.591</ele>
        <time>2022-02-20T12:19:48Z</time>
      </trkpt>
      <trkpt lat="42.74688" lon="1.61359">
        <ele>1853.592</ele>
        <time>2022-02-20T12:19:50Z</time>
      </trkpt>
      <trkpt lat="42.74688" lon="1.61359">
        <ele>1853.592</ele>
        <time>2022-02-20T12:19:52Z</time>
      </trkpt>
      <trkpt lat="42.74688" lon="1.61359">
        <ele>1853.591</ele>
        <time>2022-02-20T12:19:54Z</time>
      </trkpt>
      <trkpt lat="42.74688" lon="1.61359">
        <ele>1853.591</ele>
        <time>2022-02-20T12:19:56Z</time>
      </trkpt>
      <trkpt lat="42.74688" lon="1.61359">
        <ele>1853.592</ele>
        <time>2022-02-20T12:19:58Z</time>
      </trkpt>
      <trkpt lat="42.74688" lon="1.61359">
        <ele>1853.633</ele>
        <time>2022-02-20T12:20:00Z</time>
      </trkpt>
      <trkpt lat="42.74688" lon="1.61359">
        <ele>1853.636</ele>
        <time>2022-02-20T12:20:02Z</time>
      </trkpt>
      <trkpt lat="42.74688" lon="1.61359">
        <ele>1853.636</ele>
        <time>2022-02-20T12:20:04Z</time>
      </trkpt>
      <trkpt lat="42.74688" lon="1.61359">
        <ele>1853.633</ele>
        <time>2022-02-20T12:20:06Z</time>
      </trkpt>
      <trkpt lat="42.74688" lon="1.61359">
        <ele>1853.633</ele>
        <time>2022-02-20T12:20:08Z</time>
      </trkpt>
      <trkpt lat="42.74688" lon="1.61359">
        <ele>1853.631</ele>
        <time>2022-02-20T12:20:10Z</time>
      </trkpt>
      <trkpt lat="42.74688" lon="1.61359">
        <ele>1853.629</ele>
        <time>2022-02-20T12:20:12Z</time>
      </trkpt>
      <trkpt lat="42.74688" lon="1.61359">
        <ele>1853.81</ele>
        <time>2022-02-20T12:20:14Z</time>
      </trkpt>
      <trkpt lat="42.74688" lon="1.61359">
        <ele>1853.811</ele>
        <time>2022-02-20T12:20:16Z</time>
      </trkpt>
      <trkpt lat="42.74688" lon="1.61359">
        <ele>1853.808</ele>
        <time>2022-02-20T12:20:18Z</time>
      </trkpt>
      <trkpt lat="42.74688" lon="1.61359">
        <ele>1853.808</ele>
        <time>2022-02-20T12:20:20Z</time>
      </trkpt>
      <trkpt lat="42.74688" lon="1.61359">
        <ele>1853.81</ele>
        <time>2022-02-20T12:20:22Z</time>
      </trkpt>
      <trkpt lat="42.74688" lon="1.61359">
        <ele>1853.814</ele>
        <time>2022-02-20T12:20:24Z</time>
      </trkpt>
      <trkpt lat="42.74688" lon="1.61359">
        <ele>1853.809</ele>
        <time>2022-02-20T12:20:26Z</time>
      </trkpt>
      <trkpt lat="42.74689" lon="1.61359">
        <ele>1853.465</ele>
        <time>2022-02-20T12:20:28Z</time>
      </trkpt>
      <trkpt lat="42.74689" lon="1.61359">
        <ele>1853.459</ele>
        <time>2022-02-20T12:20:30Z</time>
      </trkpt>
      <trkpt lat="42.74688" lon="1.61358">
        <ele>1853.701</ele>
        <time>2022-02-20T12:20:32Z</time>
      </trkpt>
      <trkpt lat="42.74688" lon="1.61358">
        <ele>1853.698</ele>
        <time>2022-02-20T12:20:34Z</time>
      </trkpt>
      <trkpt lat="42.74688" lon="1.61358">
        <ele>1853.696</ele>
        <time>2022-02-20T12:20:36Z</time>
      </trkpt>
      <trkpt lat="42.74688" lon="1.61358">
        <ele>1853.61</ele>
        <time>2022-02-20T12:20:38Z</time>
      </trkpt>
      <trkpt lat="42.74688" lon="1.61358">
        <ele>1853.815</ele>
        <time>2022-02-20T12:20:40Z</time>
      </trkpt>
      <trkpt lat="42.74688" lon="1.61358">
        <ele>1853.817</ele>
        <time>2022-02-20T12:20:42Z</time>
      </trkpt>
      <trkpt lat="42.74688" lon="1.61358">
        <ele>1853.815</ele>
        <time>2022-02-20T12:20:44Z</time>
      </trkpt>
      <trkpt lat="42.74688" lon="1.61358">
        <ele>1853.821</ele>
        <time>2022-02-20T12:20:46Z</time>
      </trkpt>
      <trkpt lat="42.74688" lon="1.61358">
        <ele>1853.821</ele>
        <time>2022-02-20T12:20:48Z</time>
      </trkpt>
      <trkpt lat="42.74688" lon="1.61358">
        <ele>1853.816</ele>
        <time>2022-02-20T12:20:50Z</time>
      </trkpt>
      <trkpt lat="42.74688" lon="1.61358">
        <ele>1853.816</ele>
        <time>2022-02-20T12:20:52Z</time>
      </trkpt>
      <trkpt lat="42.74688" lon="1.61358">
        <ele>1853.811</ele>
        <time>2022-02-20T12:20:54Z</time>
      </trkpt>
      <trkpt lat="42.74688" lon="1.61359">
        <ele>1853.607</ele>
        <time>2022-02-20T12:20:56Z</time>
      </trkpt>
      <trkpt lat="42.74688" lon="1.61359">
        <ele>1853.742</ele>
        <time>2022-02-20T12:20:58Z</time>
      </trkpt>
      <trkpt lat="42.74688" lon="1.61359">
        <ele>1853.734</ele>
        <time>2022-02-20T12:21:00Z</time>
      </trkpt>
      <trkpt lat="42.74688" lon="1.61359">
        <ele>1853.734</ele>
        <time>2022-02-20T12:21:02Z</time>
      </trkpt>
      <trkpt lat="42.74688" lon="1.61358">
        <ele>1853.37</ele>
        <time>2022-02-20T12:21:04Z</time>
      </trkpt>
      <trkpt lat="42.74688" lon="1.61358">
        <ele>1853.354</ele>
        <time>2022-02-20T12:21:06Z</time>
      </trkpt>
      <trkpt lat="42.74688" lon="1.61358">
        <ele>1853.347</ele>
        <time>2022-02-20T12:21:08Z</time>
      </trkpt>
      <trkpt lat="42.74688" lon="1.61358">
        <ele>1853.334</ele>
        <time>2022-02-20T12:21:10Z</time>
      </trkpt>
      <trkpt lat="42.74688" lon="1.61358">
        <ele>1853.462</ele>
        <time>2022-02-20T12:21:12Z</time>
      </trkpt>
      <trkpt lat="42.74688" lon="1.61358">
        <ele>1853.452</ele>
        <time>2022-02-20T12:21:14Z</time>
      </trkpt>
      <trkpt lat="42.74689" lon="1.61359">
        <ele>1853.088</ele>
        <time>2022-02-20T12:21:17Z</time>
      </trkpt>
      <trkpt lat="42.74689" lon="1.61359">
        <ele>1852.793</ele>
        <time>2022-02-20T12:21:19Z</time>
      </trkpt>
      <trkpt lat="42.74689" lon="1.61359">
        <ele>1852.789</ele>
        <time>2022-02-20T12:21:21Z</time>
      </trkpt>
      <trkpt lat="42.74689" lon="1.61359">
        <ele>1852.781</ele>
        <time>2022-02-20T12:21:23Z</time>
      </trkpt>
      <trkpt lat="42.74689" lon="1.61359">
        <ele>1852.77</ele>
        <time>2022-02-20T12:21:25Z</time>
      </trkpt>
      <trkpt lat="42.74689" lon="1.61359">
        <ele>1852.764</ele>
        <time>2022-02-20T12:21:27Z</time>
      </trkpt>
      <trkpt lat="42.74689" lon="1.61359">
        <ele>1852.761</ele>
        <time>2022-02-20T12:21:29Z</time>
      </trkpt>
      <trkpt lat="42.74689" lon="1.61359">
        <ele>1852.753</ele>
        <time>2022-02-20T12:21:31Z</time>
      </trkpt>
      <trkpt lat="42.74689" lon="1.61359">
        <ele>1852.746</ele>
        <time>2022-02-20T12:21:33Z</time>
      </trkpt>
      <trkpt lat="42.74689" lon="1.61359">
        <ele>1852.739</ele>
        <time>2022-02-20T12:21:35Z</time>
      </trkpt>
      <trkpt lat="42.74689" lon="1.61359">
        <ele>1852.734</ele>
        <time>2022-02-20T12:21:37Z</time>
      </trkpt>
      <trkpt lat="42.74689" lon="1.61359">
        <ele>1852.73</ele>
        <time>2022-02-20T12:21:39Z</time>
      </trkpt>
      <trkpt lat="42.74689" lon="1.61359">
        <ele>1852.725</ele>
        <time>2022-02-20T12:21:41Z</time>
      </trkpt>
      <trkpt lat="42.74689" lon="1.61359">
        <ele>1852.717</ele>
        <time>2022-02-20T12:21:43Z</time>
      </trkpt>
      <trkpt lat="42.74689" lon="1.61359">
        <ele>1852.712</ele>
        <time>2022-02-20T12:21:45Z</time>
      </trkpt>
      <trkpt lat="42.74689" lon="1.61359">
        <ele>1852.658</ele>
        <time>2022-02-20T12:21:47Z</time>
      </trkpt>
      <trkpt lat="42.74689" lon="1.61359">
        <ele>1852.654</ele>
        <time>2022-02-20T12:21:49Z</time>
      </trkpt>
      <trkpt lat="42.74689" lon="1.61359">
        <ele>1852.481</ele>
        <time>2022-02-20T12:21:51Z</time>
      </trkpt>
      <trkpt lat="42.74689" lon="1.61359">
        <ele>1852.147</ele>
        <time>2022-02-20T12:21:53Z</time>
      </trkpt>
      <trkpt lat="42.74689" lon="1.61359">
        <ele>1852.149</ele>
        <time>2022-02-20T12:21:55Z</time>
      </trkpt>
      <trkpt lat="42.74689" lon="1.61359">
        <ele>1852.151</ele>
        <time>2022-02-20T12:21:57Z</time>
      </trkpt>
      <trkpt lat="42.74689" lon="1.61359">
        <ele>1852.153</ele>
        <time>2022-02-20T12:21:59Z</time>
      </trkpt>
      <trkpt lat="42.74689" lon="1.61359">
        <ele>1852.151</ele>
        <time>2022-02-20T12:22:01Z</time>
      </trkpt>
      <trkpt lat="42.74689" lon="1.61359">
        <ele>1851.976</ele>
        <time>2022-02-20T12:22:03Z</time>
      </trkpt>
      <trkpt lat="42.74689" lon="1.61359">
        <ele>1851.975</ele>
        <time>2022-02-20T12:22:05Z</time>
      </trkpt>
      <trkpt lat="42.74689" lon="1.61359">
        <ele>1851.973</ele>
        <time>2022-02-20T12:22:07Z</time>
      </trkpt>
      <trkpt lat="42.74689" lon="1.61359">
        <ele>1851.97</ele>
        <time>2022-02-20T12:22:09Z</time>
      </trkpt>
      <trkpt lat="42.74689" lon="1.61359">
        <ele>1851.76</ele>
        <time>2022-02-20T12:22:11Z</time>
      </trkpt>
      <trkpt lat="42.74689" lon="1.61359">
        <ele>1851.755</ele>
        <time>2022-02-20T12:22:13Z</time>
      </trkpt>
      <trkpt lat="42.74689" lon="1.61359">
        <ele>1851.757</ele>
        <time>2022-02-20T12:22:15Z</time>
      </trkpt>
      <trkpt lat="42.74689" lon="1.61359">
        <ele>1851.76</ele>
        <time>2022-02-20T12:22:17Z</time>
      </trkpt>
      <trkpt lat="42.74689" lon="1.61358">
        <ele>1851.635</ele>
        <time>2022-02-20T12:22:19Z</time>
      </trkpt>
      <trkpt lat="42.7469" lon="1.61358">
        <ele>1851.654</ele>
        <time>2022-02-20T12:22:21Z</time>
      </trkpt>
      <trkpt lat="42.7469" lon="1.61358">
        <ele>1851.659</ele>
        <time>2022-02-20T12:22:23Z</time>
      </trkpt>
      <trkpt lat="42.7469" lon="1.61358">
        <ele>1851.664</ele>
        <time>2022-02-20T12:22:25Z</time>
      </trkpt>
      <trkpt lat="42.7469" lon="1.61358">
        <ele>1851.669</ele>
        <time>2022-02-20T12:22:27Z</time>
      </trkpt>
      <trkpt lat="42.7469" lon="1.61358">
        <ele>1851.677</ele>
        <time>2022-02-20T12:22:29Z</time>
      </trkpt>
      <trkpt lat="42.7469" lon="1.61358">
        <ele>1851.681</ele>
        <time>2022-02-20T12:22:31Z</time>
      </trkpt>
      <trkpt lat="42.7469" lon="1.61358">
        <ele>1851.685</ele>
        <time>2022-02-20T12:22:33Z</time>
      </trkpt>
      <trkpt lat="42.7469" lon="1.61358">
        <ele>1851.689</ele>
        <time>2022-02-20T12:22:35Z</time>
      </trkpt>
      <trkpt lat="42.7469" lon="1.61358">
        <ele>1851.695</ele>
        <time>2022-02-20T12:22:37Z</time>
      </trkpt>
      <trkpt lat="42.7469" lon="1.61358">
        <ele>1851.699</ele>
        <time>2022-02-20T12:22:39Z</time>
      </trkpt>
      <trkpt lat="42.7469" lon="1.61358">
        <ele>1851.704</ele>
        <time>2022-02-20T12:22:41Z</time>
      </trkpt>
      <trkpt lat="42.7469" lon="1.61358">
        <ele>1851.705</ele>
        <time>2022-02-20T12:22:43Z</time>
      </trkpt>
      <trkpt lat="42.7469" lon="1.61358">
        <ele>1851.709</ele>
        <time>2022-02-20T12:22:45Z</time>
      </trkpt>
      <trkpt lat="42.7469" lon="1.61358">
        <ele>1851.711</ele>
        <time>2022-02-20T12:22:47Z</time>
      </trkpt>
      <trkpt lat="42.7469" lon="1.61358">
        <ele>1851.713</ele>
        <time>2022-02-20T12:22:49Z</time>
      </trkpt>
      <trkpt lat="42.7469" lon="1.61358">
        <ele>1851.715</ele>
        <time>2022-02-20T12:22:51Z</time>
      </trkpt>
      <trkpt lat="42.7469" lon="1.61358">
        <ele>1851.719</ele>
        <time>2022-02-20T12:22:53Z</time>
      </trkpt>
      <trkpt lat="42.7469" lon="1.61358">
        <ele>1851.723</ele>
        <time>2022-02-20T12:22:55Z</time>
      </trkpt>
      <trkpt lat="42.7469" lon="1.61357">
        <ele>1851.491</ele>
        <time>2022-02-20T12:22:57Z</time>
      </trkpt>
      <trkpt lat="42.7469" lon="1.61357">
        <ele>1851.495</ele>
        <time>2022-02-20T12:22:59Z</time>
      </trkpt>
      <trkpt lat="42.7469" lon="1.61357">
        <ele>1851.496</ele>
        <time>2022-02-20T12:23:01Z</time>
      </trkpt>
      <trkpt lat="42.7469" lon="1.61357">
        <ele>1851.532</ele>
        <time>2022-02-20T12:23:03Z</time>
      </trkpt>
      <trkpt lat="42.7469" lon="1.61357">
        <ele>1851.536</ele>
        <time>2022-02-20T12:23:05Z</time>
      </trkpt>
      <trkpt lat="42.7469" lon="1.61358">
        <ele>1851.454</ele>
        <time>2022-02-20T12:23:07Z</time>
      </trkpt>
      <trkpt lat="42.7469" lon="1.61357">
        <ele>1851.615</ele>
        <time>2022-02-20T12:23:09Z</time>
      </trkpt>
      <trkpt lat="42.7469" lon="1.61357">
        <ele>1851.61</ele>
        <time>2022-02-20T12:23:11Z</time>
      </trkpt>
      <trkpt lat="42.7469" lon="1.61357">
        <ele>1851.605</ele>
        <time>2022-02-20T12:23:13Z</time>
      </trkpt>
      <trkpt lat="42.7469" lon="1.61357">
        <ele>1851.603</ele>
        <time>2022-02-20T12:23:15Z</time>
      </trkpt>
      <trkpt lat="42.7469" lon="1.61357">
        <ele>1851.601</ele>
        <time>2022-02-20T12:23:17Z</time>
      </trkpt>
      <trkpt lat="42.7469" lon="1.61357">
        <ele>1851.595</ele>
        <time>2022-02-20T12:23:19Z</time>
      </trkpt>
      <trkpt lat="42.7469" lon="1.61358">
        <ele>1851.52</ele>
        <time>2022-02-20T12:23:21Z</time>
      </trkpt>
      <trkpt lat="42.74689" lon="1.61358">
        <ele>1851.422</ele>
        <time>2022-02-20T12:23:23Z</time>
      </trkpt>
      <trkpt lat="42.74688" lon="1.61358">
        <ele>1850.69</ele>
        <time>2022-02-20T12:23:25Z</time>
      </trkpt>
      <trkpt lat="42.74687" lon="1.61356">
        <ele>1850.321</ele>
        <time>2022-02-20T12:23:27Z</time>
      </trkpt>
      <trkpt lat="42.74687" lon="1.61355">
        <ele>1850.121</ele>
        <time>2022-02-20T12:23:29Z</time>
      </trkpt>
      <trkpt lat="42.74687" lon="1.61354">
        <ele>1850.117</ele>
        <time>2022-02-20T12:23:31Z</time>
      </trkpt>
      <trkpt lat="42.74686" lon="1.61353">
        <ele>1850.811</ele>
        <time>2022-02-20T12:23:33Z</time>
      </trkpt>
      <trkpt lat="42.74686" lon="1.61351">
        <ele>1850.772</ele>
        <time>2022-02-20T12:23:35Z</time>
      </trkpt>
      <trkpt lat="42.74684" lon="1.61348">
        <ele>1850.519</ele>
        <time>2022-02-20T12:23:37Z</time>
      </trkpt>
      <trkpt lat="42.74684" lon="1.61347">
        <ele>1850.633</ele>
        <time>2022-02-20T12:23:39Z</time>
      </trkpt>
      <trkpt lat="42.74683" lon="1.61344">
        <ele>1850.274</ele>
        <time>2022-02-20T12:23:41Z</time>
      </trkpt>
      <trkpt lat="42.74683" lon="1.61343">
        <ele>1850.184</ele>
        <time>2022-02-20T12:23:43Z</time>
      </trkpt>
      <trkpt lat="42.74682" lon="1.61342">
        <ele>1850.944</ele>
        <time>2022-02-20T12:23:45Z</time>
      </trkpt>
      <trkpt lat="42.74682" lon="1.61342">
        <ele>1850.262</ele>
        <time>2022-02-20T12:23:47Z</time>
      </trkpt>
      <trkpt lat="42.74682" lon="1.61342">
        <ele>1850.3</ele>
        <time>2022-02-20T12:23:49Z</time>
      </trkpt>
      <trkpt lat="42.74681" lon="1.61341">
        <ele>1850.039</ele>
        <time>2022-02-20T12:23:51Z</time>
      </trkpt>
      <trkpt lat="42.74679" lon="1.61341">
        <ele>1849.346</ele>
        <time>2022-02-20T12:23:53Z</time>
      </trkpt>
      <trkpt lat="42.74678" lon="1.6134">
        <ele>1848.939</ele>
        <time>2022-02-20T12:23:55Z</time>
      </trkpt>
      <trkpt lat="42.74677" lon="1.61341">
        <ele>1848.778</ele>
        <time>2022-02-20T12:23:57Z</time>
      </trkpt>
      <trkpt lat="42.74677" lon="1.61341">
        <ele>1848.654</ele>
        <time>2022-02-20T12:23:59Z</time>
      </trkpt>
      <trkpt lat="42.74676" lon="1.6134">
        <ele>1848.36</ele>
        <time>2022-02-20T12:24:01Z</time>
      </trkpt>
      <trkpt lat="42.74675" lon="1.61341">
        <ele>1848.402</ele>
        <time>2022-02-20T12:24:03Z</time>
      </trkpt>
      <trkpt lat="42.74673" lon="1.61342">
        <ele>1848.264</ele>
        <time>2022-02-20T12:24:05Z</time>
      </trkpt>
      <trkpt lat="42.74673" lon="1.61343">
        <ele>1847.638</ele>
        <time>2022-02-20T12:24:07Z</time>
      </trkpt>
      <trkpt lat="42.74672" lon="1.61344">
        <ele>1847.719</ele>
        <time>2022-02-20T12:24:09Z</time>
      </trkpt>
      <trkpt lat="42.74673" lon="1.61345">
        <ele>1847.609</ele>
        <time>2022-02-20T12:24:11Z</time>
      </trkpt>
      <trkpt lat="42.74673" lon="1.61345">
        <ele>1847.612</ele>
        <time>2022-02-20T12:24:13Z</time>
      </trkpt>
      <trkpt lat="42.74673" lon="1.61345">
        <ele>1847.609</ele>
        <time>2022-02-20T12:24:15Z</time>
      </trkpt>
      <trkpt lat="42.74673" lon="1.61347">
        <ele>1846.829</ele>
        <time>2022-02-20T12:24:17Z</time>
      </trkpt>
      <trkpt lat="42.74673" lon="1.61349">
        <ele>1846.652</ele>
        <time>2022-02-20T12:24:19Z</time>
      </trkpt>
      <trkpt lat="42.74673" lon="1.61351">
        <ele>1846.679</ele>
        <time>2022-02-20T12:24:21Z</time>
      </trkpt>
      <trkpt lat="42.74672" lon="1.61354">
        <ele>1846.697</ele>
        <time>2022-02-20T12:24:23Z</time>
      </trkpt>
      <trkpt lat="42.74671" lon="1.61356">
        <ele>1846.631</ele>
        <time>2022-02-20T12:24:25Z</time>
      </trkpt>
      <trkpt lat="42.74671" lon="1.61358">
        <ele>1846.27</ele>
        <time>2022-02-20T12:24:27Z</time>
      </trkpt>
      <trkpt lat="42.74671" lon="1.6136">
        <ele>1845.758</ele>
        <time>2022-02-20T12:24:29Z</time>
      </trkpt>
      <trkpt lat="42.74671" lon="1.61362">
        <ele>1846.49</ele>
        <time>2022-02-20T12:24:31Z</time>
      </trkpt>
      <trkpt lat="42.74674" lon="1.61364">
        <ele>1844.568</ele>
        <time>2022-02-20T12:24:33Z</time>
      </trkpt>
      <trkpt lat="42.74675" lon="1.61361">
        <ele>1844.8</ele>
        <time>2022-02-20T12:24:35Z</time>
      </trkpt>
      <trkpt lat="42.74675" lon="1.61359">
        <ele>1844.418</ele>
        <time>2022-02-20T12:24:37Z</time>
      </trkpt>
      <trkpt lat="42.74675" lon="1.61359">
        <ele>1844.418</ele>
        <time>2022-02-20T12:24:39Z</time>
      </trkpt>
      <trkpt lat="42.74675" lon="1.61359">
        <ele>1844.205</ele>
        <time>2022-02-20T12:24:41Z</time>
      </trkpt>
      <trkpt lat="42.74675" lon="1.61359">
        <ele>1844.192</ele>
        <time>2022-02-20T12:24:43Z</time>
      </trkpt>
      <trkpt lat="42.74675" lon="1.61359">
        <ele>1844.197</ele>
        <time>2022-02-20T12:24:45Z</time>
      </trkpt>
      <trkpt lat="42.74675" lon="1.61359">
        <ele>1844.196</ele>
        <time>2022-02-20T12:24:47Z</time>
      </trkpt>
      <trkpt lat="42.74675" lon="1.61359">
        <ele>1843.893</ele>
        <time>2022-02-20T12:24:49Z</time>
      </trkpt>
      <trkpt lat="42.74675" lon="1.61359">
        <ele>1843.876</ele>
        <time>2022-02-20T12:24:51Z</time>
      </trkpt>
      <trkpt lat="42.74675" lon="1.6136">
        <ele>1844.359</ele>
        <time>2022-02-20T12:24:53Z</time>
      </trkpt>
      <trkpt lat="42.74675" lon="1.6136">
        <ele>1844.228</ele>
        <time>2022-02-20T12:24:55Z</time>
      </trkpt>
      <trkpt lat="42.74675" lon="1.6136">
        <ele>1844.139</ele>
        <time>2022-02-20T12:24:57Z</time>
      </trkpt>
      <trkpt lat="42.74675" lon="1.6136">
        <ele>1844.076</ele>
        <time>2022-02-20T12:24:59Z</time>
      </trkpt>
      <trkpt lat="42.74675" lon="1.6136">
        <ele>1844.062</ele>
        <time>2022-02-20T12:25:01Z</time>
      </trkpt>
      <trkpt lat="42.74676" lon="1.61361">
        <ele>1843.909</ele>
        <time>2022-02-20T12:25:03Z</time>
      </trkpt>
      <trkpt lat="42.74675" lon="1.61361">
        <ele>1844.873</ele>
        <time>2022-02-20T12:25:05Z</time>
      </trkpt>
      <trkpt lat="42.74674" lon="1.61361">
        <ele>1845.71</ele>
        <time>2022-02-20T12:25:07Z</time>
      </trkpt>
      <trkpt lat="42.74674" lon="1.61361">
        <ele>1845.712</ele>
        <time>2022-02-20T12:25:09Z</time>
      </trkpt>
      <trkpt lat="42.74674" lon="1.61361">
        <ele>1845.713</ele>
        <time>2022-02-20T12:25:11Z</time>
      </trkpt>
      <trkpt lat="42.74674" lon="1.61361">
        <ele>1846.572</ele>
        <time>2022-02-20T12:25:13Z</time>
      </trkpt>
      <trkpt lat="42.74673" lon="1.6136">
        <ele>1847.284</ele>
        <time>2022-02-20T12:25:15Z</time>
      </trkpt>
      <trkpt lat="42.74673" lon="1.6136">
        <ele>1847.518</ele>
        <time>2022-02-20T12:25:17Z</time>
      </trkpt>
      <trkpt lat="42.74672" lon="1.6136">
        <ele>1847.754</ele>
        <time>2022-02-20T12:25:19Z</time>
      </trkpt>
      <trkpt lat="42.74672" lon="1.61361">
        <ele>1847.954</ele>
        <time>2022-02-20T12:25:21Z</time>
      </trkpt>
      <trkpt lat="42.74672" lon="1.61361">
        <ele>1847.96</ele>
        <time>2022-02-20T12:25:23Z</time>
      </trkpt>
      <trkpt lat="42.74672" lon="1.61361">
        <ele>1847.962</ele>
        <time>2022-02-20T12:25:25Z</time>
      </trkpt>
      <trkpt lat="42.74672" lon="1.61361">
        <ele>1847.966</ele>
        <time>2022-02-20T12:25:27Z</time>
      </trkpt>
      <trkpt lat="42.74672" lon="1.61362">
        <ele>1848.198</ele>
        <time>2022-02-20T12:25:29Z</time>
      </trkpt>
      <trkpt lat="42.74673" lon="1.61362">
        <ele>1848.372</ele>
        <time>2022-02-20T12:25:31Z</time>
      </trkpt>
      <trkpt lat="42.74673" lon="1.61362">
        <ele>1848.397</ele>
        <time>2022-02-20T12:25:33Z</time>
      </trkpt>
      <trkpt lat="42.74673" lon="1.61362">
        <ele>1848.403</ele>
        <time>2022-02-20T12:25:35Z</time>
      </trkpt>
      <trkpt lat="42.74673" lon="1.61362">
        <ele>1848.406</ele>
        <time>2022-02-20T12:25:37Z</time>
      </trkpt>
      <trkpt lat="42.74673" lon="1.61362">
        <ele>1848.406</ele>
        <time>2022-02-20T12:25:39Z</time>
      </trkpt>
      <trkpt lat="42.74673" lon="1.61363">
        <ele>1848.444</ele>
        <time>2022-02-20T12:25:41Z</time>
      </trkpt>
      <trkpt lat="42.74672" lon="1.61363">
        <ele>1848.306</ele>
        <time>2022-02-20T12:25:43Z</time>
      </trkpt>
      <trkpt lat="42.74672" lon="1.61363">
        <ele>1848.48</ele>
        <time>2022-02-20T12:25:45Z</time>
      </trkpt>
      <trkpt lat="42.74672" lon="1.61363">
        <ele>1848.474</ele>
        <time>2022-02-20T12:25:47Z</time>
      </trkpt>
      <trkpt lat="42.74672" lon="1.61363">
        <ele>1848.477</ele>
        <time>2022-02-20T12:25:49Z</time>
      </trkpt>
      <trkpt lat="42.74671" lon="1.61363">
        <ele>1849.245</ele>
        <time>2022-02-20T12:25:51Z</time>
      </trkpt>
      <trkpt lat="42.74671" lon="1.61363">
        <ele>1849.045</ele>
        <time>2022-02-20T12:25:53Z</time>
      </trkpt>
      <trkpt lat="42.74671" lon="1.61363">
        <ele>1849.054</ele>
        <time>2022-02-20T12:25:55Z</time>
      </trkpt>
      <trkpt lat="42.74671" lon="1.61363">
        <ele>1849.059</ele>
        <time>2022-02-20T12:25:57Z</time>
      </trkpt>
      <trkpt lat="42.74671" lon="1.61363">
        <ele>1849.061</ele>
        <time>2022-02-20T12:25:59Z</time>
      </trkpt>
      <trkpt lat="42.74671" lon="1.61363">
        <ele>1849.065</ele>
        <time>2022-02-20T12:26:01Z</time>
      </trkpt>
      <trkpt lat="42.74671" lon="1.61363">
        <ele>1849.068</ele>
        <time>2022-02-20T12:26:03Z</time>
      </trkpt>
      <trkpt lat="42.74671" lon="1.61364">
        <ele>1849.395</ele>
        <time>2022-02-20T12:26:05Z</time>
      </trkpt>
      <trkpt lat="42.74671" lon="1.61364">
        <ele>1849.401</ele>
        <time>2022-02-20T12:26:07Z</time>
      </trkpt>
      <trkpt lat="42.74671" lon="1.61364">
        <ele>1849.405</ele>
        <time>2022-02-20T12:26:09Z</time>
      </trkpt>
      <trkpt lat="42.74671" lon="1.61364">
        <ele>1849.408</ele>
        <time>2022-02-20T12:26:11Z</time>
      </trkpt>
      <trkpt lat="42.74671" lon="1.61364">
        <ele>1849.41</ele>
        <time>2022-02-20T12:26:13Z</time>
      </trkpt>
      <trkpt lat="42.74671" lon="1.61364">
        <ele>1849.334</ele>
        <time>2022-02-20T12:26:15Z</time>
      </trkpt>
      <trkpt lat="42.74671" lon="1.61364">
        <ele>1848.716</ele>
        <time>2022-02-20T12:26:17Z</time>
      </trkpt>
      <trkpt lat="42.74671" lon="1.61365">
        <ele>1848.992</ele>
        <time>2022-02-20T12:26:19Z</time>
      </trkpt>
      <trkpt lat="42.74671" lon="1.61365">
        <ele>1848.989</ele>
        <time>2022-02-20T12:26:21Z</time>
      </trkpt>
      <trkpt lat="42.74671" lon="1.61365">
        <ele>1848.988</ele>
        <time>2022-02-20T12:26:23Z</time>
      </trkpt>
      <trkpt lat="42.74671" lon="1.61365">
        <ele>1848.984</ele>
        <time>2022-02-20T12:26:25Z</time>
      </trkpt>
      <trkpt lat="42.74671" lon="1.61365">
        <ele>1848.983</ele>
        <time>2022-02-20T12:26:27Z</time>
      </trkpt>
      <trkpt lat="42.74671" lon="1.61365">
        <ele>1848.981</ele>
        <time>2022-02-20T12:26:29Z</time>
      </trkpt>
      <trkpt lat="42.74671" lon="1.61365">
        <ele>1848.975</ele>
        <time>2022-02-20T12:26:31Z</time>
      </trkpt>
      <trkpt lat="42.74671" lon="1.61365">
        <ele>1848.972</ele>
        <time>2022-02-20T12:26:33Z</time>
      </trkpt>
      <trkpt lat="42.74671" lon="1.61365">
        <ele>1848.774</ele>
        <time>2022-02-20T12:26:35Z</time>
      </trkpt>
      <trkpt lat="42.74671" lon="1.61365">
        <ele>1848.739</ele>
        <time>2022-02-20T12:26:37Z</time>
      </trkpt>
      <trkpt lat="42.74671" lon="1.61365">
        <ele>1848.738</ele>
        <time>2022-02-20T12:26:39Z</time>
      </trkpt>
      <trkpt lat="42.74671" lon="1.61365">
        <ele>1848.736</ele>
        <time>2022-02-20T12:26:41Z</time>
      </trkpt>
      <trkpt lat="42.74671" lon="1.61365">
        <ele>1848.935</ele>
        <time>2022-02-20T12:26:43Z</time>
      </trkpt>
      <trkpt lat="42.74671" lon="1.61364">
        <ele>1849.226</ele>
        <time>2022-02-20T12:26:45Z</time>
      </trkpt>
      <trkpt lat="42.74671" lon="1.61364">
        <ele>1849.222</ele>
        <time>2022-02-20T12:26:47Z</time>
      </trkpt>
      <trkpt lat="42.74671" lon="1.61364">
        <ele>1849.221</ele>
        <time>2022-02-20T12:26:49Z</time>
      </trkpt>
      <trkpt lat="42.74671" lon="1.61364">
        <ele>1849.221</ele>
        <time>2022-02-20T12:26:51Z</time>
      </trkpt>
      <trkpt lat="42.74671" lon="1.61364">
        <ele>1849.223</ele>
        <time>2022-02-20T12:26:53Z</time>
      </trkpt>
      <trkpt lat="42.74671" lon="1.61364">
        <ele>1849.219</ele>
        <time>2022-02-20T12:26:55Z</time>
      </trkpt>
      <trkpt lat="42.74671" lon="1.61364">
        <ele>1849.216</ele>
        <time>2022-02-20T12:26:57Z</time>
      </trkpt>
      <trkpt lat="42.74671" lon="1.61364">
        <ele>1849.217</ele>
        <time>2022-02-20T12:26:59Z</time>
      </trkpt>
      <trkpt lat="42.74672" lon="1.61364">
        <ele>1847.766</ele>
        <time>2022-02-20T12:27:01Z</time>
      </trkpt>
      <trkpt lat="42.74672" lon="1.61364">
        <ele>1848.03</ele>
        <time>2022-02-20T12:27:03Z</time>
      </trkpt>
      <trkpt lat="42.74672" lon="1.61364">
        <ele>1847.705</ele>
        <time>2022-02-20T12:27:05Z</time>
      </trkpt>
      <trkpt lat="42.74672" lon="1.61364">
        <ele>1847.796</ele>
        <time>2022-02-20T12:27:07Z</time>
      </trkpt>
      <trkpt lat="42.74672" lon="1.61364">
        <ele>1847.874</ele>
        <time>2022-02-20T12:27:09Z</time>
      </trkpt>
      <trkpt lat="42.74672" lon="1.61364">
        <ele>1847.873</ele>
        <time>2022-02-20T12:27:11Z</time>
      </trkpt>
      <trkpt lat="42.74672" lon="1.61364">
        <ele>1847.873</ele>
        <time>2022-02-20T12:27:13Z</time>
      </trkpt>
      <trkpt lat="42.74672" lon="1.61364">
        <ele>1847.874</ele>
        <time>2022-02-20T12:27:15Z</time>
      </trkpt>
      <trkpt lat="42.74672" lon="1.61364">
        <ele>1847.872</ele>
        <time>2022-02-20T12:27:17Z</time>
      </trkpt>
      <trkpt lat="42.74672" lon="1.61364">
        <ele>1847.673</ele>
        <time>2022-02-20T12:27:19Z</time>
      </trkpt>
      <trkpt lat="42.74672" lon="1.61364">
        <ele>1847.692</ele>
        <time>2022-02-20T12:27:21Z</time>
      </trkpt>
      <trkpt lat="42.74672" lon="1.61364">
        <ele>1847.691</ele>
        <time>2022-02-20T12:27:23Z</time>
      </trkpt>
      <trkpt lat="42.74672" lon="1.61364">
        <ele>1847.691</ele>
        <time>2022-02-20T12:27:25Z</time>
      </trkpt>
      <trkpt lat="42.74672" lon="1.61364">
        <ele>1847.845</ele>
        <time>2022-02-20T12:27:27Z</time>
      </trkpt>
      <trkpt lat="42.74672" lon="1.61364">
        <ele>1847.373</ele>
        <time>2022-02-20T12:27:29Z</time>
      </trkpt>
      <trkpt lat="42.74672" lon="1.61364">
        <ele>1846.872</ele>
        <time>2022-02-20T12:27:31Z</time>
      </trkpt>
      <trkpt lat="42.74672" lon="1.61364">
        <ele>1846.87</ele>
        <time>2022-02-20T12:27:33Z</time>
      </trkpt>
      <trkpt lat="42.74672" lon="1.61364">
        <ele>1846.868</ele>
        <time>2022-02-20T12:27:35Z</time>
      </trkpt>
      <trkpt lat="42.74672" lon="1.61364">
        <ele>1847.128</ele>
        <time>2022-02-20T12:27:37Z</time>
      </trkpt>
      <trkpt lat="42.74672" lon="1.61364">
        <ele>1847.116</ele>
        <time>2022-02-20T12:27:39Z</time>
      </trkpt>
      <trkpt lat="42.74672" lon="1.61364">
        <ele>1847.103</ele>
        <time>2022-02-20T12:27:41Z</time>
      </trkpt>
      <trkpt lat="42.74672" lon="1.61364">
        <ele>1847.109</ele>
        <time>2022-02-20T12:27:43Z</time>
      </trkpt>
      <trkpt lat="42.74672" lon="1.61364">
        <ele>1847.114</ele>
        <time>2022-02-20T12:27:45Z</time>
      </trkpt>
      <trkpt lat="42.74672" lon="1.61364">
        <ele>1847.117</ele>
        <time>2022-02-20T12:27:47Z</time>
      </trkpt>
      <trkpt lat="42.74672" lon="1.61364">
        <ele>1847.116</ele>
        <time>2022-02-20T12:27:49Z</time>
      </trkpt>
      <trkpt lat="42.74672" lon="1.61364">
        <ele>1847.114</ele>
        <time>2022-02-20T12:27:51Z</time>
      </trkpt>
      <trkpt lat="42.74672" lon="1.61364">
        <ele>1847.11</ele>
        <time>2022-02-20T12:27:53Z</time>
      </trkpt>
      <trkpt lat="42.74672" lon="1.61364">
        <ele>1847.107</ele>
        <time>2022-02-20T12:27:55Z</time>
      </trkpt>
      <trkpt lat="42.74672" lon="1.61364">
        <ele>1847.106</ele>
        <time>2022-02-20T12:27:57Z</time>
      </trkpt>
      <trkpt lat="42.74672" lon="1.61364">
        <ele>1847.11</ele>
        <time>2022-02-20T12:27:59Z</time>
      </trkpt>
      <trkpt lat="42.74672" lon="1.61364">
        <ele>1847.101</ele>
        <time>2022-02-20T12:28:01Z</time>
      </trkpt>
      <trkpt lat="42.74672" lon="1.61364">
        <ele>1847.097</ele>
        <time>2022-02-20T12:28:03Z</time>
      </trkpt>
      <trkpt lat="42.74672" lon="1.61364">
        <ele>1847.095</ele>
        <time>2022-02-20T12:28:05Z</time>
      </trkpt>
      <trkpt lat="42.74672" lon="1.61364">
        <ele>1847.088</ele>
        <time>2022-02-20T12:28:07Z</time>
      </trkpt>
      <trkpt lat="42.74672" lon="1.61364">
        <ele>1847.082</ele>
        <time>2022-02-20T12:28:09Z</time>
      </trkpt>
      <trkpt lat="42.74672" lon="1.61364">
        <ele>1847.081</ele>
        <time>2022-02-20T12:28:11Z</time>
      </trkpt>
      <trkpt lat="42.74672" lon="1.61364">
        <ele>1847.078</ele>
        <time>2022-02-20T12:28:13Z</time>
      </trkpt>
      <trkpt lat="42.74672" lon="1.61364">
        <ele>1847.074</ele>
        <time>2022-02-20T12:28:15Z</time>
      </trkpt>
      <trkpt lat="42.74672" lon="1.61364">
        <ele>1847.066</ele>
        <time>2022-02-20T12:28:17Z</time>
      </trkpt>
      <trkpt lat="42.74672" lon="1.61364">
        <ele>1847.066</ele>
        <time>2022-02-20T12:28:19Z</time>
      </trkpt>
      <trkpt lat="42.74672" lon="1.61364">
        <ele>1847.064</ele>
        <time>2022-02-20T12:28:21Z</time>
      </trkpt>
      <trkpt lat="42.74672" lon="1.61364">
        <ele>1847.056</ele>
        <time>2022-02-20T12:28:23Z</time>
      </trkpt>
      <trkpt lat="42.74672" lon="1.61364">
        <ele>1847.055</ele>
        <time>2022-02-20T12:28:25Z</time>
      </trkpt>
      <trkpt lat="42.74672" lon="1.61364">
        <ele>1847.057</ele>
        <time>2022-02-20T12:28:27Z</time>
      </trkpt>
      <trkpt lat="42.74672" lon="1.61364">
        <ele>1847.049</ele>
        <time>2022-02-20T12:28:29Z</time>
      </trkpt>
      <trkpt lat="42.74672" lon="1.61364">
        <ele>1847.049</ele>
        <time>2022-02-20T12:28:31Z</time>
      </trkpt>
      <trkpt lat="42.74672" lon="1.61364">
        <ele>1847.05</ele>
        <time>2022-02-20T12:28:33Z</time>
      </trkpt>
      <trkpt lat="42.74671" lon="1.61364">
        <ele>1847.391</ele>
        <time>2022-02-20T12:28:35Z</time>
      </trkpt>
      <trkpt lat="42.74671" lon="1.61364">
        <ele>1847.391</ele>
        <time>2022-02-20T12:28:37Z</time>
      </trkpt>
      <trkpt lat="42.74671" lon="1.61364">
        <ele>1847.388</ele>
        <time>2022-02-20T12:28:39Z</time>
      </trkpt>
      <trkpt lat="42.74671" lon="1.61364">
        <ele>1847.387</ele>
        <time>2022-02-20T12:28:41Z</time>
      </trkpt>
      <trkpt lat="42.74671" lon="1.61364">
        <ele>1847.386</ele>
        <time>2022-02-20T12:28:43Z</time>
      </trkpt>
      <trkpt lat="42.74671" lon="1.61364">
        <ele>1847.386</ele>
        <time>2022-02-20T12:28:45Z</time>
      </trkpt>
      <trkpt lat="42.74671" lon="1.61364">
        <ele>1847.288</ele>
        <time>2022-02-20T12:28:47Z</time>
      </trkpt>
      <trkpt lat="42.74671" lon="1.61364">
        <ele>1847.286</ele>
        <time>2022-02-20T12:28:49Z</time>
      </trkpt>
      <trkpt lat="42.74671" lon="1.61364">
        <ele>1847.287</ele>
        <time>2022-02-20T12:28:51Z</time>
      </trkpt>
      <trkpt lat="42.74671" lon="1.61364">
        <ele>1847.288</ele>
        <time>2022-02-20T12:28:53Z</time>
      </trkpt>
      <trkpt lat="42.74671" lon="1.61364">
        <ele>1847.286</ele>
        <time>2022-02-20T12:28:55Z</time>
      </trkpt>
      <trkpt lat="42.74671" lon="1.61364">
        <ele>1847.29</ele>
        <time>2022-02-20T12:28:57Z</time>
      </trkpt>
      <trkpt lat="42.74671" lon="1.61364">
        <ele>1847.292</ele>
        <time>2022-02-20T12:28:59Z</time>
      </trkpt>
      <trkpt lat="42.74671" lon="1.61364">
        <ele>1847.295</ele>
        <time>2022-02-20T12:29:01Z</time>
      </trkpt>
      <trkpt lat="42.74671" lon="1.61364">
        <ele>1847.291</ele>
        <time>2022-02-20T12:29:03Z</time>
      </trkpt>
      <trkpt lat="42.74671" lon="1.61364">
        <ele>1847.287</ele>
        <time>2022-02-20T12:29:05Z</time>
      </trkpt>
      <trkpt lat="42.74671" lon="1.61364">
        <ele>1847.283</ele>
        <time>2022-02-20T12:29:07Z</time>
      </trkpt>
      <trkpt lat="42.74671" lon="1.61364">
        <ele>1847.289</ele>
        <time>2022-02-20T12:29:09Z</time>
      </trkpt>
      <trkpt lat="42.74671" lon="1.61364">
        <ele>1847.283</ele>
        <time>2022-02-20T12:29:11Z</time>
      </trkpt>
      <trkpt lat="42.74671" lon="1.61364">
        <ele>1847.281</ele>
        <time>2022-02-20T12:29:13Z</time>
      </trkpt>
      <trkpt lat="42.74671" lon="1.61364">
        <ele>1846.946</ele>
        <time>2022-02-20T12:29:15Z</time>
      </trkpt>
      <trkpt lat="42.74672" lon="1.61364">
        <ele>1846.121</ele>
        <time>2022-02-20T12:29:17Z</time>
      </trkpt>
      <trkpt lat="42.74672" lon="1.61365">
        <ele>1846.114</ele>
        <time>2022-02-20T12:29:19Z</time>
      </trkpt>
      <trkpt lat="42.74672" lon="1.61365">
        <ele>1846.299</ele>
        <time>2022-02-20T12:29:21Z</time>
      </trkpt>
      <trkpt lat="42.74672" lon="1.61365">
        <ele>1846.296</ele>
        <time>2022-02-20T12:29:23Z</time>
      </trkpt>
      <trkpt lat="42.74672" lon="1.61365">
        <ele>1846.296</ele>
        <time>2022-02-20T12:29:25Z</time>
      </trkpt>
      <trkpt lat="42.74672" lon="1.61365">
        <ele>1846.299</ele>
        <time>2022-02-20T12:29:27Z</time>
      </trkpt>
      <trkpt lat="42.74672" lon="1.61365">
        <ele>1846.303</ele>
        <time>2022-02-20T12:29:29Z</time>
      </trkpt>
      <trkpt lat="42.74672" lon="1.61365">
        <ele>1846.305</ele>
        <time>2022-02-20T12:29:31Z</time>
      </trkpt>
      <trkpt lat="42.74672" lon="1.61365">
        <ele>1846.306</ele>
        <time>2022-02-20T12:29:33Z</time>
      </trkpt>
      <trkpt lat="42.74672" lon="1.61365">
        <ele>1846.307</ele>
        <time>2022-02-20T12:29:35Z</time>
      </trkpt>
      <trkpt lat="42.74671" lon="1.61365">
        <ele>1846.542</ele>
        <time>2022-02-20T12:29:37Z</time>
      </trkpt>
      <trkpt lat="42.74671" lon="1.61365">
        <ele>1846.465</ele>
        <time>2022-02-20T12:29:39Z</time>
      </trkpt>
      <trkpt lat="42.74671" lon="1.61365">
        <ele>1846.98</ele>
        <time>2022-02-20T12:29:41Z</time>
      </trkpt>
      <trkpt lat="42.74671" lon="1.61365">
        <ele>1846.845</ele>
        <time>2022-02-20T12:29:43Z</time>
      </trkpt>
      <trkpt lat="42.74671" lon="1.61365">
        <ele>1847.158</ele>
        <time>2022-02-20T12:29:45Z</time>
      </trkpt>
      <trkpt lat="42.74671" lon="1.61365">
        <ele>1847.153</ele>
        <time>2022-02-20T12:29:47Z</time>
      </trkpt>
      <trkpt lat="42.74671" lon="1.61366">
        <ele>1847.155</ele>
        <time>2022-02-20T12:29:49Z</time>
      </trkpt>
      <trkpt lat="42.74671" lon="1.61366">
        <ele>1847.154</ele>
        <time>2022-02-20T12:29:51Z</time>
      </trkpt>
      <trkpt lat="42.74671" lon="1.61366">
        <ele>1847.151</ele>
        <time>2022-02-20T12:29:53Z</time>
      </trkpt>
      <trkpt lat="42.74671" lon="1.61366">
        <ele>1847.151</ele>
        <time>2022-02-20T12:29:55Z</time>
      </trkpt>
      <trkpt lat="42.74671" lon="1.61365">
        <ele>1846.317</ele>
        <time>2022-02-20T12:29:57Z</time>
      </trkpt>
      <trkpt lat="42.74671" lon="1.61364">
        <ele>1845.844</ele>
        <time>2022-02-20T12:29:59Z</time>
      </trkpt>
      <trkpt lat="42.7467" lon="1.61363">
        <ele>1845.531</ele>
        <time>2022-02-20T12:30:01Z</time>
      </trkpt>
      <trkpt lat="42.74671" lon="1.61363">
        <ele>1845.306</ele>
        <time>2022-02-20T12:30:03Z</time>
      </trkpt>
      <trkpt lat="42.74671" lon="1.61363">
        <ele>1845.72</ele>
        <time>2022-02-20T12:30:05Z</time>
      </trkpt>
      <trkpt lat="42.74671" lon="1.61363">
        <ele>1845.74</ele>
        <time>2022-02-20T12:30:07Z</time>
      </trkpt>
      <trkpt lat="42.74671" lon="1.61363">
        <ele>1845.739</ele>
        <time>2022-02-20T12:30:09Z</time>
      </trkpt>
      <trkpt lat="42.74671" lon="1.61363">
        <ele>1845.742</ele>
        <time>2022-02-20T12:30:11Z</time>
      </trkpt>
      <trkpt lat="42.74671" lon="1.61363">
        <ele>1845.748</ele>
        <time>2022-02-20T12:30:13Z</time>
      </trkpt>
      <trkpt lat="42.74671" lon="1.61363">
        <ele>1845.653</ele>
        <time>2022-02-20T12:30:15Z</time>
      </trkpt>
      <trkpt lat="42.74671" lon="1.61363">
        <ele>1845.591</ele>
        <time>2022-02-20T12:30:17Z</time>
      </trkpt>
      <trkpt lat="42.74671" lon="1.61363">
        <ele>1845.595</ele>
        <time>2022-02-20T12:30:19Z</time>
      </trkpt>
      <trkpt lat="42.74671" lon="1.61363">
        <ele>1845.593</ele>
        <time>2022-02-20T12:30:21Z</time>
      </trkpt>
      <trkpt lat="42.74671" lon="1.61363">
        <ele>1845.591</ele>
        <time>2022-02-20T12:30:23Z</time>
      </trkpt>
      <trkpt lat="42.74671" lon="1.61363">
        <ele>1845.758</ele>
        <time>2022-02-20T12:30:25Z</time>
      </trkpt>
      <trkpt lat="42.74671" lon="1.61363">
        <ele>1845.761</ele>
        <time>2022-02-20T12:30:27Z</time>
      </trkpt>
      <trkpt lat="42.74671" lon="1.61363">
        <ele>1845.762</ele>
        <time>2022-02-20T12:30:29Z</time>
      </trkpt>
      <trkpt lat="42.74671" lon="1.61363">
        <ele>1845.76</ele>
        <time>2022-02-20T12:30:31Z</time>
      </trkpt>
      <trkpt lat="42.7467" lon="1.61363">
        <ele>1845.878</ele>
        <time>2022-02-20T12:30:33Z</time>
      </trkpt>
      <trkpt lat="42.7467" lon="1.61363">
        <ele>1845.877</ele>
        <time>2022-02-20T12:30:35Z</time>
      </trkpt>
      <trkpt lat="42.7467" lon="1.61363">
        <ele>1845.876</ele>
        <time>2022-02-20T12:30:37Z</time>
      </trkpt>
      <trkpt lat="42.7467" lon="1.61363">
        <ele>1845.878</ele>
        <time>2022-02-20T12:30:39Z</time>
      </trkpt>
      <trkpt lat="42.7467" lon="1.61363">
        <ele>1845.88</ele>
        <time>2022-02-20T12:30:41Z</time>
      </trkpt>
      <trkpt lat="42.7467" lon="1.61363">
        <ele>1846.22</ele>
        <time>2022-02-20T12:30:43Z</time>
      </trkpt>
      <trkpt lat="42.7467" lon="1.61363">
        <ele>1846.22</ele>
        <time>2022-02-20T12:30:45Z</time>
      </trkpt>
      <trkpt lat="42.7467" lon="1.61363">
        <ele>1846.222</ele>
        <time>2022-02-20T12:30:47Z</time>
      </trkpt>
      <trkpt lat="42.7467" lon="1.61363">
        <ele>1846.225</ele>
        <time>2022-02-20T12:30:49Z</time>
      </trkpt>
      <trkpt lat="42.7467" lon="1.61363">
        <ele>1846.226</ele>
        <time>2022-02-20T12:30:51Z</time>
      </trkpt>
      <trkpt lat="42.7467" lon="1.61363">
        <ele>1846.227</ele>
        <time>2022-02-20T12:30:53Z</time>
      </trkpt>
      <trkpt lat="42.7467" lon="1.61363">
        <ele>1846.228</ele>
        <time>2022-02-20T12:30:55Z</time>
      </trkpt>
      <trkpt lat="42.7467" lon="1.61363">
        <ele>1846.223</ele>
        <time>2022-02-20T12:30:57Z</time>
      </trkpt>
      <trkpt lat="42.7467" lon="1.61363">
        <ele>1846.221</ele>
        <time>2022-02-20T12:30:59Z</time>
      </trkpt>
      <trkpt lat="42.7467" lon="1.61363">
        <ele>1846.223</ele>
        <time>2022-02-20T12:31:01Z</time>
      </trkpt>
      <trkpt lat="42.7467" lon="1.61363">
        <ele>1846.219</ele>
        <time>2022-02-20T12:31:03Z</time>
      </trkpt>
      <trkpt lat="42.7467" lon="1.61363">
        <ele>1846.216</ele>
        <time>2022-02-20T12:31:05Z</time>
      </trkpt>
      <trkpt lat="42.7467" lon="1.61363">
        <ele>1846.356</ele>
        <time>2022-02-20T12:31:07Z</time>
      </trkpt>
      <trkpt lat="42.7467" lon="1.61363">
        <ele>1846.324</ele>
        <time>2022-02-20T12:31:09Z</time>
      </trkpt>
      <trkpt lat="42.7467" lon="1.61363">
        <ele>1846.323</ele>
        <time>2022-02-20T12:31:11Z</time>
      </trkpt>
      <trkpt lat="42.7467" lon="1.61363">
        <ele>1846.314</ele>
        <time>2022-02-20T12:31:13Z</time>
      </trkpt>
      <trkpt lat="42.7467" lon="1.61363">
        <ele>1846.313</ele>
        <time>2022-02-20T12:31:15Z</time>
      </trkpt>
      <trkpt lat="42.7467" lon="1.61363">
        <ele>1846.31</ele>
        <time>2022-02-20T12:31:17Z</time>
      </trkpt>
      <trkpt lat="42.7467" lon="1.61363">
        <ele>1846.307</ele>
        <time>2022-02-20T12:31:19Z</time>
      </trkpt>
      <trkpt lat="42.74671" lon="1.61363">
        <ele>1846.198</ele>
        <time>2022-02-20T12:31:21Z</time>
      </trkpt>
      <trkpt lat="42.74671" lon="1.61363">
        <ele>1846.174</ele>
        <time>2022-02-20T12:31:23Z</time>
      </trkpt>
      <trkpt lat="42.74671" lon="1.61363">
        <ele>1846.172</ele>
        <time>2022-02-20T12:31:25Z</time>
      </trkpt>
      <trkpt lat="42.74671" lon="1.61363">
        <ele>1846.169</ele>
        <time>2022-02-20T12:31:27Z</time>
      </trkpt>
      <trkpt lat="42.74671" lon="1.61363">
        <ele>1846.17</ele>
        <time>2022-02-20T12:31:29Z</time>
      </trkpt>
      <trkpt lat="42.74671" lon="1.61363">
        <ele>1846.17</ele>
        <time>2022-02-20T12:31:31Z</time>
      </trkpt>
      <trkpt lat="42.74671" lon="1.61363">
        <ele>1846.177</ele>
        <time>2022-02-20T12:31:33Z</time>
      </trkpt>
      <trkpt lat="42.74671" lon="1.61363">
        <ele>1846.175</ele>
        <time>2022-02-20T12:31:35Z</time>
      </trkpt>
      <trkpt lat="42.74671" lon="1.61363">
        <ele>1846.176</ele>
        <time>2022-02-20T12:31:37Z</time>
      </trkpt>
      <trkpt lat="42.74671" lon="1.61363">
        <ele>1846.172</ele>
        <time>2022-02-20T12:31:39Z</time>
      </trkpt>
      <trkpt lat="42.74671" lon="1.61363">
        <ele>1846.174</ele>
        <time>2022-02-20T12:31:41Z</time>
      </trkpt>
      <trkpt lat="42.7467" lon="1.61363">
        <ele>1846.397</ele>
        <time>2022-02-20T12:31:43Z</time>
      </trkpt>
      <trkpt lat="42.7467" lon="1.61363">
        <ele>1846.392</ele>
        <time>2022-02-20T12:31:45Z</time>
      </trkpt>
      <trkpt lat="42.7467" lon="1.61363">
        <ele>1846.393</ele>
        <time>2022-02-20T12:31:47Z</time>
      </trkpt>
      <trkpt lat="42.7467" lon="1.61363">
        <ele>1846.392</ele>
        <time>2022-02-20T12:31:49Z</time>
      </trkpt>
      <trkpt lat="42.7467" lon="1.61363">
        <ele>1846.582</ele>
        <time>2022-02-20T12:31:51Z</time>
      </trkpt>
      <trkpt lat="42.7467" lon="1.61363">
        <ele>1846.579</ele>
        <time>2022-02-20T12:31:53Z</time>
      </trkpt>
      <trkpt lat="42.7467" lon="1.61363">
        <ele>1846.652</ele>
        <time>2022-02-20T12:31:55Z</time>
      </trkpt>
      <trkpt lat="42.7467" lon="1.61363">
        <ele>1846.651</ele>
        <time>2022-02-20T12:31:57Z</time>
      </trkpt>
      <trkpt lat="42.7467" lon="1.61363">
        <ele>1846.794</ele>
        <time>2022-02-20T12:31:59Z</time>
      </trkpt>
      <trkpt lat="42.7467" lon="1.61363">
        <ele>1846.817</ele>
        <time>2022-02-20T12:32:01Z</time>
      </trkpt>
      <trkpt lat="42.7467" lon="1.61363">
        <ele>1846.813</ele>
        <time>2022-02-20T12:32:03Z</time>
      </trkpt>
      <trkpt lat="42.7467" lon="1.61363">
        <ele>1846.812</ele>
        <time>2022-02-20T12:32:05Z</time>
      </trkpt>
      <trkpt lat="42.7467" lon="1.61363">
        <ele>1846.81</ele>
        <time>2022-02-20T12:32:07Z</time>
      </trkpt>
      <trkpt lat="42.7467" lon="1.61363">
        <ele>1846.452</ele>
        <time>2022-02-20T12:32:09Z</time>
      </trkpt>
      <trkpt lat="42.7467" lon="1.61363">
        <ele>1846.431</ele>
        <time>2022-02-20T12:32:11Z</time>
      </trkpt>
      <trkpt lat="42.7467" lon="1.61362">
        <ele>1846.633</ele>
        <time>2022-02-20T12:32:13Z</time>
      </trkpt>
      <trkpt lat="42.7467" lon="1.61362">
        <ele>1846.633</ele>
        <time>2022-02-20T12:32:15Z</time>
      </trkpt>
      <trkpt lat="42.7467" lon="1.61362">
        <ele>1846.631</ele>
        <time>2022-02-20T12:32:17Z</time>
      </trkpt>
      <trkpt lat="42.7467" lon="1.61362">
        <ele>1846.63</ele>
        <time>2022-02-20T12:32:19Z</time>
      </trkpt>
      <trkpt lat="42.7467" lon="1.61362">
        <ele>1846.628</ele>
        <time>2022-02-20T12:32:21Z</time>
      </trkpt>
      <trkpt lat="42.7467" lon="1.61362">
        <ele>1846.627</ele>
        <time>2022-02-20T12:32:23Z</time>
      </trkpt>
      <trkpt lat="42.7467" lon="1.61362">
        <ele>1846.826</ele>
        <time>2022-02-20T12:32:25Z</time>
      </trkpt>
      <trkpt lat="42.7467" lon="1.61363">
        <ele>1846.219</ele>
        <time>2022-02-20T12:32:27Z</time>
      </trkpt>
      <trkpt lat="42.7467" lon="1.61364">
        <ele>1845.536</ele>
        <time>2022-02-20T12:32:29Z</time>
      </trkpt>
      <trkpt lat="42.7467" lon="1.61365">
        <ele>1845.112</ele>
        <time>2022-02-20T12:32:31Z</time>
      </trkpt>
      <trkpt lat="42.74671" lon="1.61365">
        <ele>1844.843</ele>
        <time>2022-02-20T12:32:33Z</time>
      </trkpt>
      <trkpt lat="42.74671" lon="1.61365">
        <ele>1844.922</ele>
        <time>2022-02-20T12:32:35Z</time>
      </trkpt>
      <trkpt lat="42.74671" lon="1.61365">
        <ele>1844.923</ele>
        <time>2022-02-20T12:32:37Z</time>
      </trkpt>
      <trkpt lat="42.7467" lon="1.61365">
        <ele>1845.354</ele>
        <time>2022-02-20T12:32:39Z</time>
      </trkpt>
      <trkpt lat="42.7467" lon="1.61365">
        <ele>1846.24</ele>
        <time>2022-02-20T12:32:41Z</time>
      </trkpt>
      <trkpt lat="42.74671" lon="1.61365">
        <ele>1846.102</ele>
        <time>2022-02-20T12:32:43Z</time>
      </trkpt>
      <trkpt lat="42.74671" lon="1.61365">
        <ele>1846.15</ele>
        <time>2022-02-20T12:32:45Z</time>
      </trkpt>
      <trkpt lat="42.74671" lon="1.61365">
        <ele>1846.15</ele>
        <time>2022-02-20T12:32:47Z</time>
      </trkpt>
      <trkpt lat="42.74671" lon="1.61365">
        <ele>1846.151</ele>
        <time>2022-02-20T12:32:49Z</time>
      </trkpt>
      <trkpt lat="42.74671" lon="1.61365">
        <ele>1846.15</ele>
        <time>2022-02-20T12:32:51Z</time>
      </trkpt>
      <trkpt lat="42.74671" lon="1.61366">
        <ele>1846.82</ele>
        <time>2022-02-20T12:32:53Z</time>
      </trkpt>
      <trkpt lat="42.74671" lon="1.61366">
        <ele>1846.415</ele>
        <time>2022-02-20T12:32:55Z</time>
      </trkpt>
      <trkpt lat="42.74671" lon="1.61366">
        <ele>1846.294</ele>
        <time>2022-02-20T12:32:57Z</time>
      </trkpt>
      <trkpt lat="42.7467" lon="1.61366">
        <ele>1846.405</ele>
        <time>2022-02-20T12:32:59Z</time>
      </trkpt>
      <trkpt lat="42.74671" lon="1.61366">
        <ele>1846.07</ele>
        <time>2022-02-20T12:33:01Z</time>
      </trkpt>
      <trkpt lat="42.74671" lon="1.61367">
        <ele>1847.462</ele>
        <time>2022-02-20T12:33:03Z</time>
      </trkpt>
      <trkpt lat="42.74671" lon="1.61367">
        <ele>1847.381</ele>
        <time>2022-02-20T12:33:05Z</time>
      </trkpt>
      <trkpt lat="42.74671" lon="1.61367">
        <ele>1847.032</ele>
        <time>2022-02-20T12:33:07Z</time>
      </trkpt>
      <trkpt lat="42.74671" lon="1.61367">
        <ele>1847.293</ele>
        <time>2022-02-20T12:33:09Z</time>
      </trkpt>
      <trkpt lat="42.74671" lon="1.61367">
        <ele>1847.331</ele>
        <time>2022-02-20T12:33:11Z</time>
      </trkpt>
      <trkpt lat="42.74671" lon="1.61366">
        <ele>1847.476</ele>
        <time>2022-02-20T12:33:13Z</time>
      </trkpt>
      <trkpt lat="42.7467" lon="1.61366">
        <ele>1847.497</ele>
        <time>2022-02-20T12:33:15Z</time>
      </trkpt>
      <trkpt lat="42.7467" lon="1.61367">
        <ele>1847.084</ele>
        <time>2022-02-20T12:33:17Z</time>
      </trkpt>
      <trkpt lat="42.7467" lon="1.61368">
        <ele>1847.092</ele>
        <time>2022-02-20T12:33:19Z</time>
      </trkpt>
      <trkpt lat="42.7467" lon="1.61368">
        <ele>1847.093</ele>
        <time>2022-02-20T12:33:21Z</time>
      </trkpt>
      <trkpt lat="42.7467" lon="1.61368">
        <ele>1847.183</ele>
        <time>2022-02-20T12:33:23Z</time>
      </trkpt>
      <trkpt lat="42.7467" lon="1.61367">
        <ele>1847.331</ele>
        <time>2022-02-20T12:33:25Z</time>
      </trkpt>
      <trkpt lat="42.74671" lon="1.61367">
        <ele>1847.326</ele>
        <time>2022-02-20T12:33:27Z</time>
      </trkpt>
      <trkpt lat="42.7467" lon="1.61367">
        <ele>1847.321</ele>
        <time>2022-02-20T12:33:29Z</time>
      </trkpt>
      <trkpt lat="42.7467" lon="1.61367">
        <ele>1847.319</ele>
        <time>2022-02-20T12:33:31Z</time>
      </trkpt>
      <trkpt lat="42.7467" lon="1.61367">
        <ele>1847.321</ele>
        <time>2022-02-20T12:33:33Z</time>
      </trkpt>
      <trkpt lat="42.7467" lon="1.61367">
        <ele>1847.321</ele>
        <time>2022-02-20T12:33:35Z</time>
      </trkpt>
      <trkpt lat="42.7467" lon="1.61367">
        <ele>1847.321</ele>
        <time>2022-02-20T12:33:37Z</time>
      </trkpt>
      <trkpt lat="42.7467" lon="1.61367">
        <ele>1847.315</ele>
        <time>2022-02-20T12:33:39Z</time>
      </trkpt>
      <trkpt lat="42.7467" lon="1.61368">
        <ele>1847.106</ele>
        <time>2022-02-20T12:33:41Z</time>
      </trkpt>
      <trkpt lat="42.7467" lon="1.61368">
        <ele>1847.102</ele>
        <time>2022-02-20T12:33:43Z</time>
      </trkpt>
      <trkpt lat="42.7467" lon="1.61368">
        <ele>1847.102</ele>
        <time>2022-02-20T12:33:45Z</time>
      </trkpt>
      <trkpt lat="42.7467" lon="1.61368">
        <ele>1847.099</ele>
        <time>2022-02-20T12:33:47Z</time>
      </trkpt>
      <trkpt lat="42.7467" lon="1.61368">
        <ele>1847.097</ele>
        <time>2022-02-20T12:33:49Z</time>
      </trkpt>
      <trkpt lat="42.7467" lon="1.61368">
        <ele>1847.092</ele>
        <time>2022-02-20T12:33:51Z</time>
      </trkpt>
      <trkpt lat="42.7467" lon="1.61368">
        <ele>1847.09</ele>
        <time>2022-02-20T12:33:53Z</time>
      </trkpt>
      <trkpt lat="42.7467" lon="1.61368">
        <ele>1847.087</ele>
        <time>2022-02-20T12:33:55Z</time>
      </trkpt>
      <trkpt lat="42.7467" lon="1.61368">
        <ele>1847.085</ele>
        <time>2022-02-20T12:33:57Z</time>
      </trkpt>
      <trkpt lat="42.7467" lon="1.61368">
        <ele>1847.084</ele>
        <time>2022-02-20T12:33:59Z</time>
      </trkpt>
      <trkpt lat="42.7467" lon="1.61368">
        <ele>1847.081</ele>
        <time>2022-02-20T12:34:01Z</time>
      </trkpt>
      <trkpt lat="42.7467" lon="1.61367">
        <ele>1847.058</ele>
        <time>2022-02-20T12:34:03Z</time>
      </trkpt>
      <trkpt lat="42.7467" lon="1.61367">
        <ele>1846.295</ele>
        <time>2022-02-20T12:34:05Z</time>
      </trkpt>
      <trkpt lat="42.7467" lon="1.61367">
        <ele>1846.487</ele>
        <time>2022-02-20T12:34:07Z</time>
      </trkpt>
      <trkpt lat="42.7467" lon="1.61367">
        <ele>1846.487</ele>
        <time>2022-02-20T12:34:09Z</time>
      </trkpt>
      <trkpt lat="42.7467" lon="1.61366">
        <ele>1846.638</ele>
        <time>2022-02-20T12:34:11Z</time>
      </trkpt>
      <trkpt lat="42.7467" lon="1.61366">
        <ele>1846.655</ele>
        <time>2022-02-20T12:34:13Z</time>
      </trkpt>
      <trkpt lat="42.74671" lon="1.61366">
        <ele>1846.402</ele>
        <time>2022-02-20T12:34:15Z</time>
      </trkpt>
      <trkpt lat="42.74671" lon="1.61366">
        <ele>1846.404</ele>
        <time>2022-02-20T12:34:17Z</time>
      </trkpt>
      <trkpt lat="42.74671" lon="1.61366">
        <ele>1846.4</ele>
        <time>2022-02-20T12:34:19Z</time>
      </trkpt>
      <trkpt lat="42.74671" lon="1.61366">
        <ele>1846.403</ele>
        <time>2022-02-20T12:34:21Z</time>
      </trkpt>
      <trkpt lat="42.74671" lon="1.61366">
        <ele>1846.404</ele>
        <time>2022-02-20T12:34:23Z</time>
      </trkpt>
      <trkpt lat="42.74671" lon="1.61367">
        <ele>1845.779</ele>
        <time>2022-02-20T12:34:25Z</time>
      </trkpt>
      <trkpt lat="42.74671" lon="1.61367">
        <ele>1845.777</ele>
        <time>2022-02-20T12:34:27Z</time>
      </trkpt>
      <trkpt lat="42.74671" lon="1.61367">
        <ele>1845.783</ele>
        <time>2022-02-20T12:34:29Z</time>
      </trkpt>
      <trkpt lat="42.74671" lon="1.61367">
        <ele>1845.781</ele>
        <time>2022-02-20T12:34:31Z</time>
      </trkpt>
      <trkpt lat="42.74671" lon="1.61367">
        <ele>1845.775</ele>
        <time>2022-02-20T12:34:33Z</time>
      </trkpt>
      <trkpt lat="42.74671" lon="1.61367">
        <ele>1845.771</ele>
        <time>2022-02-20T12:34:35Z</time>
      </trkpt>
      <trkpt lat="42.74671" lon="1.61367">
        <ele>1845.767</ele>
        <time>2022-02-20T12:34:37Z</time>
      </trkpt>
      <trkpt lat="42.74671" lon="1.61367">
        <ele>1845.539</ele>
        <time>2022-02-20T12:34:39Z</time>
      </trkpt>
      <trkpt lat="42.74672" lon="1.61366">
        <ele>1845.498</ele>
        <time>2022-02-20T12:34:41Z</time>
      </trkpt>
      <trkpt lat="42.74672" lon="1.61366">
        <ele>1845.498</ele>
        <time>2022-02-20T12:34:43Z</time>
      </trkpt>
      <trkpt lat="42.74672" lon="1.61366">
        <ele>1845.497</ele>
        <time>2022-02-20T12:34:45Z</time>
      </trkpt>
      <trkpt lat="42.74672" lon="1.61366">
        <ele>1845.498</ele>
        <time>2022-02-20T12:34:47Z</time>
      </trkpt>
      <trkpt lat="42.74672" lon="1.61366">
        <ele>1845.496</ele>
        <time>2022-02-20T12:34:49Z</time>
      </trkpt>
      <trkpt lat="42.74672" lon="1.61366">
        <ele>1845.493</ele>
        <time>2022-02-20T12:34:51Z</time>
      </trkpt>
      <trkpt lat="42.74672" lon="1.61366">
        <ele>1845.491</ele>
        <time>2022-02-20T12:34:53Z</time>
      </trkpt>
      <trkpt lat="42.74672" lon="1.61366">
        <ele>1845.494</ele>
        <time>2022-02-20T12:34:55Z</time>
      </trkpt>
      <trkpt lat="42.74672" lon="1.61366">
        <ele>1845.239</ele>
        <time>2022-02-20T12:34:57Z</time>
      </trkpt>
      <trkpt lat="42.74671" lon="1.61366">
        <ele>1844.897</ele>
        <time>2022-02-20T12:34:59Z</time>
      </trkpt>
      <trkpt lat="42.74671" lon="1.61366">
        <ele>1847.008</ele>
        <time>2022-02-20T12:35:01Z</time>
      </trkpt>
      <trkpt lat="42.7467" lon="1.61365">
        <ele>1847.002</ele>
        <time>2022-02-20T12:35:03Z</time>
      </trkpt>
      <trkpt lat="42.7467" lon="1.61365">
        <ele>1847.18</ele>
        <time>2022-02-20T12:35:05Z</time>
      </trkpt>
      <trkpt lat="42.7467" lon="1.61365">
        <ele>1847.202</ele>
        <time>2022-02-20T12:35:07Z</time>
      </trkpt>
      <trkpt lat="42.7467" lon="1.61365">
        <ele>1847.201</ele>
        <time>2022-02-20T12:35:09Z</time>
      </trkpt>
      <trkpt lat="42.7467" lon="1.61365">
        <ele>1847.203</ele>
        <time>2022-02-20T12:35:11Z</time>
      </trkpt>
      <trkpt lat="42.7467" lon="1.61365">
        <ele>1847.2</ele>
        <time>2022-02-20T12:35:13Z</time>
      </trkpt>
      <trkpt lat="42.7467" lon="1.61365">
        <ele>1847.202</ele>
        <time>2022-02-20T12:35:15Z</time>
      </trkpt>
      <trkpt lat="42.7467" lon="1.61365">
        <ele>1847.203</ele>
        <time>2022-02-20T12:35:17Z</time>
      </trkpt>
      <trkpt lat="42.7467" lon="1.61365">
        <ele>1847.199</ele>
        <time>2022-02-20T12:35:19Z</time>
      </trkpt>
      <trkpt lat="42.7467" lon="1.61365">
        <ele>1847.199</ele>
        <time>2022-02-20T12:35:21Z</time>
      </trkpt>
      <trkpt lat="42.7467" lon="1.61365">
        <ele>1847.477</ele>
        <time>2022-02-20T12:35:23Z</time>
      </trkpt>
      <trkpt lat="42.7467" lon="1.61365">
        <ele>1847.477</ele>
        <time>2022-02-20T12:35:25Z</time>
      </trkpt>
      <trkpt lat="42.7467" lon="1.61365">
        <ele>1847.478</ele>
        <time>2022-02-20T12:35:27Z</time>
      </trkpt>
      <trkpt lat="42.7467" lon="1.61366">
        <ele>1847.757</ele>
        <time>2022-02-20T12:35:29Z</time>
      </trkpt>
      <trkpt lat="42.7467" lon="1.61366">
        <ele>1847.756</ele>
        <time>2022-02-20T12:35:31Z</time>
      </trkpt>
      <trkpt lat="42.7467" lon="1.61366">
        <ele>1847.754</ele>
        <time>2022-02-20T12:35:33Z</time>
      </trkpt>
      <trkpt lat="42.7467" lon="1.61366">
        <ele>1847.754</ele>
        <time>2022-02-20T12:35:35Z</time>
      </trkpt>
      <trkpt lat="42.7467" lon="1.61367">
        <ele>1847.347</ele>
        <time>2022-02-20T12:35:37Z</time>
      </trkpt>
      <trkpt lat="42.7467" lon="1.61367">
        <ele>1847.345</ele>
        <time>2022-02-20T12:35:39Z</time>
      </trkpt>
      <trkpt lat="42.7467" lon="1.61367">
        <ele>1847.347</ele>
        <time>2022-02-20T12:35:41Z</time>
      </trkpt>
      <trkpt lat="42.7467" lon="1.61367">
        <ele>1847.344</ele>
        <time>2022-02-20T12:35:43Z</time>
      </trkpt>
      <trkpt lat="42.7467" lon="1.61367">
        <ele>1847.347</ele>
        <time>2022-02-20T12:35:45Z</time>
      </trkpt>
      <trkpt lat="42.7467" lon="1.61367">
        <ele>1847.344</ele>
        <time>2022-02-20T12:35:47Z</time>
      </trkpt>
      <trkpt lat="42.74671" lon="1.61366">
        <ele>1847.242</ele>
        <time>2022-02-20T12:35:49Z</time>
      </trkpt>
      <trkpt lat="42.7467" lon="1.61366">
        <ele>1847.203</ele>
        <time>2022-02-20T12:35:51Z</time>
      </trkpt>
      <trkpt lat="42.74669" lon="1.61367">
        <ele>1846.509</ele>
        <time>2022-02-20T12:35:53Z</time>
      </trkpt>
      <trkpt lat="42.7467" lon="1.61367">
        <ele>1846.499</ele>
        <time>2022-02-20T12:35:55Z</time>
      </trkpt>
      <trkpt lat="42.7467" lon="1.61367">
        <ele>1846.495</ele>
        <time>2022-02-20T12:35:57Z</time>
      </trkpt>
      <trkpt lat="42.7467" lon="1.61367">
        <ele>1846.494</ele>
        <time>2022-02-20T12:35:59Z</time>
      </trkpt>
      <trkpt lat="42.7467" lon="1.61367">
        <ele>1846.495</ele>
        <time>2022-02-20T12:36:01Z</time>
      </trkpt>
      <trkpt lat="42.74669" lon="1.61367">
        <ele>1846.381</ele>
        <time>2022-02-20T12:36:03Z</time>
      </trkpt>
      <trkpt lat="42.74668" lon="1.61366">
        <ele>1845.609</ele>
        <time>2022-02-20T12:36:05Z</time>
      </trkpt>
      <trkpt lat="42.74668" lon="1.61365">
        <ele>1844.635</ele>
        <time>2022-02-20T12:36:07Z</time>
      </trkpt>
      <trkpt lat="42.74667" lon="1.61364">
        <ele>1844.58</ele>
        <time>2022-02-20T12:36:09Z</time>
      </trkpt>
      <trkpt lat="42.74665" lon="1.61364">
        <ele>1845.536</ele>
        <time>2022-02-20T12:36:11Z</time>
      </trkpt>
      <trkpt lat="42.74664" lon="1.61366">
        <ele>1845.513</ele>
        <time>2022-02-20T12:36:13Z</time>
      </trkpt>
      <trkpt lat="42.74663" lon="1.61368">
        <ele>1845.351</ele>
        <time>2022-02-20T12:36:15Z</time>
      </trkpt>
      <trkpt lat="42.74662" lon="1.6137">
        <ele>1844.733</ele>
        <time>2022-02-20T12:36:17Z</time>
      </trkpt>
      <trkpt lat="42.74661" lon="1.61373">
        <ele>1844.732</ele>
        <time>2022-02-20T12:36:19Z</time>
      </trkpt>
      <trkpt lat="42.7466" lon="1.61376">
        <ele>1844.428</ele>
        <time>2022-02-20T12:36:21Z</time>
      </trkpt>
      <trkpt lat="42.74659" lon="1.61378">
        <ele>1844.565</ele>
        <time>2022-02-20T12:36:23Z</time>
      </trkpt>
      <trkpt lat="42.74659" lon="1.6138">
        <ele>1844.09</ele>
        <time>2022-02-20T12:36:25Z</time>
      </trkpt>
      <trkpt lat="42.74658" lon="1.61383">
        <ele>1844.374</ele>
        <time>2022-02-20T12:36:27Z</time>
      </trkpt>
      <trkpt lat="42.74658" lon="1.61385">
        <ele>1844.383</ele>
        <time>2022-02-20T12:36:29Z</time>
      </trkpt>
      <trkpt lat="42.74657" lon="1.61387">
        <ele>1844.46</ele>
        <time>2022-02-20T12:36:31Z</time>
      </trkpt>
      <trkpt lat="42.74656" lon="1.61389">
        <ele>1844.1</ele>
        <time>2022-02-20T12:36:33Z</time>
      </trkpt>
      <trkpt lat="42.74655" lon="1.61391">
        <ele>1843.303</ele>
        <time>2022-02-20T12:36:35Z</time>
      </trkpt>
      <trkpt lat="42.74654" lon="1.61393">
        <ele>1842.79</ele>
        <time>2022-02-20T12:36:37Z</time>
      </trkpt>
      <trkpt lat="42.74653" lon="1.61395">
        <ele>1842.285</ele>
        <time>2022-02-20T12:36:39Z</time>
      </trkpt>
      <trkpt lat="42.74652" lon="1.61397">
        <ele>1842.057</ele>
        <time>2022-02-20T12:36:41Z</time>
      </trkpt>
      <trkpt lat="42.74651" lon="1.614">
        <ele>1841.927</ele>
        <time>2022-02-20T12:36:43Z</time>
      </trkpt>
      <trkpt lat="42.7465" lon="1.61402">
        <ele>1841.811</ele>
        <time>2022-02-20T12:36:45Z</time>
      </trkpt>
      <trkpt lat="42.74648" lon="1.61403">
        <ele>1841.675</ele>
        <time>2022-02-20T12:36:47Z</time>
      </trkpt>
      <trkpt lat="42.74646" lon="1.61405">
        <ele>1841.29</ele>
        <time>2022-02-20T12:36:49Z</time>
      </trkpt>
      <trkpt lat="42.74645" lon="1.61407">
        <ele>1840.582</ele>
        <time>2022-02-20T12:36:51Z</time>
      </trkpt>
      <trkpt lat="42.74643" lon="1.61408">
        <ele>1840.55</ele>
        <time>2022-02-20T12:36:53Z</time>
      </trkpt>
      <trkpt lat="42.74641" lon="1.6141">
        <ele>1840.449</ele>
        <time>2022-02-20T12:36:55Z</time>
      </trkpt>
      <trkpt lat="42.74639" lon="1.61411">
        <ele>1840.311</ele>
        <time>2022-02-20T12:36:57Z</time>
      </trkpt>
      <trkpt lat="42.74638" lon="1.61413">
        <ele>1840.063</ele>
        <time>2022-02-20T12:36:59Z</time>
      </trkpt>
      <trkpt lat="42.74636" lon="1.61414">
        <ele>1839.426</ele>
        <time>2022-02-20T12:37:01Z</time>
      </trkpt>
      <trkpt lat="42.74634" lon="1.61416">
        <ele>1839.056</ele>
        <time>2022-02-20T12:37:03Z</time>
      </trkpt>
      <trkpt lat="42.74633" lon="1.61417">
        <ele>1838.797</ele>
        <time>2022-02-20T12:37:05Z</time>
      </trkpt>
      <trkpt lat="42.74631" lon="1.61418">
        <ele>1838.357</ele>
        <time>2022-02-20T12:37:07Z</time>
      </trkpt>
      <trkpt lat="42.74629" lon="1.61419">
        <ele>1838.013</ele>
        <time>2022-02-20T12:37:09Z</time>
      </trkpt>
      <trkpt lat="42.74628" lon="1.6142">
        <ele>1837.789</ele>
        <time>2022-02-20T12:37:11Z</time>
      </trkpt>
      <trkpt lat="42.74626" lon="1.61422">
        <ele>1837.088</ele>
        <time>2022-02-20T12:37:13Z</time>
      </trkpt>
      <trkpt lat="42.74624" lon="1.61423">
        <ele>1837.066</ele>
        <time>2022-02-20T12:37:15Z</time>
      </trkpt>
      <trkpt lat="42.74623" lon="1.61425">
        <ele>1836.923</ele>
        <time>2022-02-20T12:37:17Z</time>
      </trkpt>
      <trkpt lat="42.74621" lon="1.61426">
        <ele>1837.023</ele>
        <time>2022-02-20T12:37:19Z</time>
      </trkpt>
      <trkpt lat="42.74619" lon="1.61428">
        <ele>1836.356</ele>
        <time>2022-02-20T12:37:21Z</time>
      </trkpt>
      <trkpt lat="42.74618" lon="1.6143">
        <ele>1836.079</ele>
        <time>2022-02-20T12:37:23Z</time>
      </trkpt>
      <trkpt lat="42.74616" lon="1.61431">
        <ele>1835.472</ele>
        <time>2022-02-20T12:37:25Z</time>
      </trkpt>
      <trkpt lat="42.74614" lon="1.61432">
        <ele>1834.992</ele>
        <time>2022-02-20T12:37:27Z</time>
      </trkpt>
      <trkpt lat="42.74612" lon="1.61433">
        <ele>1834.756</ele>
        <time>2022-02-20T12:37:29Z</time>
      </trkpt>
      <trkpt lat="42.7461" lon="1.61434">
        <ele>1834.36</ele>
        <time>2022-02-20T12:37:31Z</time>
      </trkpt>
      <trkpt lat="42.74608" lon="1.61436">
        <ele>1834.367</ele>
        <time>2022-02-20T12:37:33Z</time>
      </trkpt>
      <trkpt lat="42.74606" lon="1.61437">
        <ele>1834.01</ele>
        <time>2022-02-20T12:37:35Z</time>
      </trkpt>
      <trkpt lat="42.74605" lon="1.61438">
        <ele>1834.112</ele>
        <time>2022-02-20T12:37:37Z</time>
      </trkpt>
      <trkpt lat="42.74603" lon="1.6144">
        <ele>1834.05</ele>
        <time>2022-02-20T12:37:39Z</time>
      </trkpt>
      <trkpt lat="42.74601" lon="1.61441">
        <ele>1833.976</ele>
        <time>2022-02-20T12:37:41Z</time>
      </trkpt>
      <trkpt lat="42.74599" lon="1.61443">
        <ele>1833.421</ele>
        <time>2022-02-20T12:37:43Z</time>
      </trkpt>
      <trkpt lat="42.74598" lon="1.61444">
        <ele>1833.225</ele>
        <time>2022-02-20T12:37:45Z</time>
      </trkpt>
      <trkpt lat="42.74596" lon="1.61445">
        <ele>1832.762</ele>
        <time>2022-02-20T12:37:47Z</time>
      </trkpt>
      <trkpt lat="42.74594" lon="1.61446">
        <ele>1832.478</ele>
        <time>2022-02-20T12:37:49Z</time>
      </trkpt>
      <trkpt lat="42.74592" lon="1.61448">
        <ele>1832.068</ele>
        <time>2022-02-20T12:37:51Z</time>
      </trkpt>
      <trkpt lat="42.74591" lon="1.61449">
        <ele>1831.764</ele>
        <time>2022-02-20T12:37:53Z</time>
      </trkpt>
      <trkpt lat="42.74589" lon="1.61451">
        <ele>1831.558</ele>
        <time>2022-02-20T12:37:55Z</time>
      </trkpt>
      <trkpt lat="42.74587" lon="1.61452">
        <ele>1831.486</ele>
        <time>2022-02-20T12:37:57Z</time>
      </trkpt>
      <trkpt lat="42.74585" lon="1.61454">
        <ele>1830.805</ele>
        <time>2022-02-20T12:37:59Z</time>
      </trkpt>
      <trkpt lat="42.74583" lon="1.61455">
        <ele>1830.219</ele>
        <time>2022-02-20T12:38:01Z</time>
      </trkpt>
      <trkpt lat="42.74581" lon="1.61456">
        <ele>1830.446</ele>
        <time>2022-02-20T12:38:03Z</time>
      </trkpt>
      <trkpt lat="42.74579" lon="1.61457">
        <ele>1830.367</ele>
        <time>2022-02-20T12:38:05Z</time>
      </trkpt>
      <trkpt lat="42.74577" lon="1.61459">
        <ele>1830.258</ele>
        <time>2022-02-20T12:38:07Z</time>
      </trkpt>
      <trkpt lat="42.74575" lon="1.6146">
        <ele>1829.612</ele>
        <time>2022-02-20T12:38:09Z</time>
      </trkpt>
      <trkpt lat="42.74573" lon="1.61462">
        <ele>1829.294</ele>
        <time>2022-02-20T12:38:11Z</time>
      </trkpt>
      <trkpt lat="42.74571" lon="1.61463">
        <ele>1828.707</ele>
        <time>2022-02-20T12:38:13Z</time>
      </trkpt>
      <trkpt lat="42.74569" lon="1.61465">
        <ele>1828.481</ele>
        <time>2022-02-20T12:38:15Z</time>
      </trkpt>
      <trkpt lat="42.74566" lon="1.61466">
        <ele>1828.17</ele>
        <time>2022-02-20T12:38:17Z</time>
      </trkpt>
      <trkpt lat="42.74564" lon="1.61467">
        <ele>1827.576</ele>
        <time>2022-02-20T12:38:19Z</time>
      </trkpt>
      <trkpt lat="42.74562" lon="1.61469">
        <ele>1827.348</ele>
        <time>2022-02-20T12:38:21Z</time>
      </trkpt>
      <trkpt lat="42.7456" lon="1.6147">
        <ele>1826.63</ele>
        <time>2022-02-20T12:38:23Z</time>
      </trkpt>
      <trkpt lat="42.74558" lon="1.61472">
        <ele>1826.329</ele>
        <time>2022-02-20T12:38:25Z</time>
      </trkpt>
      <trkpt lat="42.74556" lon="1.61473">
        <ele>1825.88</ele>
        <time>2022-02-20T12:38:27Z</time>
      </trkpt>
      <trkpt lat="42.74554" lon="1.61474">
        <ele>1825.938</ele>
        <time>2022-02-20T12:38:29Z</time>
      </trkpt>
      <trkpt lat="42.74551" lon="1.61476">
        <ele>1825.584</ele>
        <time>2022-02-20T12:38:31Z</time>
      </trkpt>
      <trkpt lat="42.74549" lon="1.61478">
        <ele>1825.239</ele>
        <time>2022-02-20T12:38:33Z</time>
      </trkpt>
      <trkpt lat="42.74547" lon="1.6148">
        <ele>1825.225</ele>
        <time>2022-02-20T12:38:35Z</time>
      </trkpt>
      <trkpt lat="42.74545" lon="1.61481">
        <ele>1825.046</ele>
        <time>2022-02-20T12:38:37Z</time>
      </trkpt>
      <trkpt lat="42.74543" lon="1.61482">
        <ele>1825.123</ele>
        <time>2022-02-20T12:38:39Z</time>
      </trkpt>
      <trkpt lat="42.7454" lon="1.61484">
        <ele>1824.959</ele>
        <time>2022-02-20T12:38:41Z</time>
      </trkpt>
      <trkpt lat="42.74538" lon="1.61485">
        <ele>1824.813</ele>
        <time>2022-02-20T12:38:43Z</time>
      </trkpt>
      <trkpt lat="42.74536" lon="1.61487">
        <ele>1824.302</ele>
        <time>2022-02-20T12:38:45Z</time>
      </trkpt>
      <trkpt lat="42.74534" lon="1.61489">
        <ele>1824.281</ele>
        <time>2022-02-20T12:38:47Z</time>
      </trkpt>
      <trkpt lat="42.74532" lon="1.6149">
        <ele>1824.025</ele>
        <time>2022-02-20T12:38:49Z</time>
      </trkpt>
      <trkpt lat="42.7453" lon="1.61492">
        <ele>1823.748</ele>
        <time>2022-02-20T12:38:51Z</time>
      </trkpt>
      <trkpt lat="42.74528" lon="1.61493">
        <ele>1823.501</ele>
        <time>2022-02-20T12:38:53Z</time>
      </trkpt>
      <trkpt lat="42.74526" lon="1.61495">
        <ele>1823.378</ele>
        <time>2022-02-20T12:38:55Z</time>
      </trkpt>
      <trkpt lat="42.74524" lon="1.61497">
        <ele>1823.025</ele>
        <time>2022-02-20T12:38:57Z</time>
      </trkpt>
      <trkpt lat="42.74522" lon="1.61498">
        <ele>1822.713</ele>
        <time>2022-02-20T12:38:59Z</time>
      </trkpt>
      <trkpt lat="42.7452" lon="1.61499">
        <ele>1822.361</ele>
        <time>2022-02-20T12:39:01Z</time>
      </trkpt>
      <trkpt lat="42.74518" lon="1.61501">
        <ele>1822.199</ele>
        <time>2022-02-20T12:39:03Z</time>
      </trkpt>
      <trkpt lat="42.74517" lon="1.61502">
        <ele>1822.009</ele>
        <time>2022-02-20T12:39:05Z</time>
      </trkpt>
      <trkpt lat="42.74515" lon="1.61504">
        <ele>1821.647</ele>
        <time>2022-02-20T12:39:07Z</time>
      </trkpt>
      <trkpt lat="42.74513" lon="1.61505">
        <ele>1821.26</ele>
        <time>2022-02-20T12:39:09Z</time>
      </trkpt>
      <trkpt lat="42.74511" lon="1.61507">
        <ele>1821.001</ele>
        <time>2022-02-20T12:39:11Z</time>
      </trkpt>
      <trkpt lat="42.74509" lon="1.61509">
        <ele>1820.49</ele>
        <time>2022-02-20T12:39:13Z</time>
      </trkpt>
      <trkpt lat="42.74508" lon="1.61511">
        <ele>1820.56</ele>
        <time>2022-02-20T12:39:15Z</time>
      </trkpt>
      <trkpt lat="42.74506" lon="1.61512">
        <ele>1820.266</ele>
        <time>2022-02-20T12:39:17Z</time>
      </trkpt>
      <trkpt lat="42.74504" lon="1.61514">
        <ele>1819.89</ele>
        <time>2022-02-20T12:39:19Z</time>
      </trkpt>
      <trkpt lat="42.74503" lon="1.61516">
        <ele>1819.422</ele>
        <time>2022-02-20T12:39:21Z</time>
      </trkpt>
      <trkpt lat="42.74501" lon="1.61517">
        <ele>1819.281</ele>
        <time>2022-02-20T12:39:23Z</time>
      </trkpt>
      <trkpt lat="42.74499" lon="1.61518">
        <ele>1818.795</ele>
        <time>2022-02-20T12:39:25Z</time>
      </trkpt>
      <trkpt lat="42.74497" lon="1.6152">
        <ele>1818.947</ele>
        <time>2022-02-20T12:39:27Z</time>
      </trkpt>
      <trkpt lat="42.74495" lon="1.61521">
        <ele>1818.548</ele>
        <time>2022-02-20T12:39:29Z</time>
      </trkpt>
      <trkpt lat="42.74493" lon="1.61523">
        <ele>1817.842</ele>
        <time>2022-02-20T12:39:31Z</time>
      </trkpt>
      <trkpt lat="42.74492" lon="1.61524">
        <ele>1818.392</ele>
        <time>2022-02-20T12:39:33Z</time>
      </trkpt>
      <trkpt lat="42.7449" lon="1.61523">
        <ele>1818.379</ele>
        <time>2022-02-20T12:39:35Z</time>
      </trkpt>
      <trkpt lat="42.7449" lon="1.61522">
        <ele>1818.049</ele>
        <time>2022-02-20T12:39:37Z</time>
      </trkpt>
      <trkpt lat="42.7449" lon="1.61522">
        <ele>1817.885</ele>
        <time>2022-02-20T12:39:39Z</time>
      </trkpt>
      <trkpt lat="42.7449" lon="1.61522">
        <ele>1817.737</ele>
        <time>2022-02-20T12:39:41Z</time>
      </trkpt>
      <trkpt lat="42.7449" lon="1.61522">
        <ele>1817.733</ele>
        <time>2022-02-20T12:39:43Z</time>
      </trkpt>
      <trkpt lat="42.7449" lon="1.61522">
        <ele>1817.729</ele>
        <time>2022-02-20T12:39:45Z</time>
      </trkpt>
      <trkpt lat="42.7449" lon="1.61522">
        <ele>1817.726</ele>
        <time>2022-02-20T12:39:47Z</time>
      </trkpt>
      <trkpt lat="42.74491" lon="1.61522">
        <ele>1817.643</ele>
        <time>2022-02-20T12:39:49Z</time>
      </trkpt>
      <trkpt lat="42.74491" lon="1.61522">
        <ele>1817.647</ele>
        <time>2022-02-20T12:39:51Z</time>
      </trkpt>
      <trkpt lat="42.74491" lon="1.61522">
        <ele>1817.651</ele>
        <time>2022-02-20T12:39:53Z</time>
      </trkpt>
      <trkpt lat="42.74491" lon="1.61522">
        <ele>1817.642</ele>
        <time>2022-02-20T12:39:55Z</time>
      </trkpt>
      <trkpt lat="42.74491" lon="1.61522">
        <ele>1817.741</ele>
        <time>2022-02-20T12:39:57Z</time>
      </trkpt>
      <trkpt lat="42.74491" lon="1.61522">
        <ele>1817.801</ele>
        <time>2022-02-20T12:39:59Z</time>
      </trkpt>
      <trkpt lat="42.74491" lon="1.61522">
        <ele>1817.801</ele>
        <time>2022-02-20T12:40:01Z</time>
      </trkpt>
      <trkpt lat="42.74491" lon="1.61521">
        <ele>1817.805</ele>
        <time>2022-02-20T12:40:03Z</time>
      </trkpt>
      <trkpt lat="42.74491" lon="1.61521">
        <ele>1817.821</ele>
        <time>2022-02-20T12:40:05Z</time>
      </trkpt>
      <trkpt lat="42.74491" lon="1.61521">
        <ele>1817.822</ele>
        <time>2022-02-20T12:40:07Z</time>
      </trkpt>
      <trkpt lat="42.74491" lon="1.61521">
        <ele>1817.823</ele>
        <time>2022-02-20T12:40:09Z</time>
      </trkpt>
      <trkpt lat="42.74491" lon="1.61521">
        <ele>1817.823</ele>
        <time>2022-02-20T12:40:11Z</time>
      </trkpt>
      <trkpt lat="42.74491" lon="1.61521">
        <ele>1817.824</ele>
        <time>2022-02-20T12:40:13Z</time>
      </trkpt>
      <trkpt lat="42.74491" lon="1.61521">
        <ele>1817.82</ele>
        <time>2022-02-20T12:40:15Z</time>
      </trkpt>
      <trkpt lat="42.74491" lon="1.61521">
        <ele>1817.819</ele>
        <time>2022-02-20T12:40:17Z</time>
      </trkpt>
      <trkpt lat="42.74491" lon="1.61521">
        <ele>1817.818</ele>
        <time>2022-02-20T12:40:19Z</time>
      </trkpt>
      <trkpt lat="42.74491" lon="1.61522">
        <ele>1817.929</ele>
        <time>2022-02-20T12:40:21Z</time>
      </trkpt>
      <trkpt lat="42.74491" lon="1.61522">
        <ele>1818.238</ele>
        <time>2022-02-20T12:40:23Z</time>
      </trkpt>
      <trkpt lat="42.74491" lon="1.61522">
        <ele>1818.236</ele>
        <time>2022-02-20T12:40:25Z</time>
      </trkpt>
      <trkpt lat="42.74491" lon="1.61521">
        <ele>1818.041</ele>
        <time>2022-02-20T12:40:27Z</time>
      </trkpt>
      <trkpt lat="42.74492" lon="1.61522">
        <ele>1817.834</ele>
        <time>2022-02-20T12:40:29Z</time>
      </trkpt>
      <trkpt lat="42.74492" lon="1.61522">
        <ele>1817.845</ele>
        <time>2022-02-20T12:40:31Z</time>
      </trkpt>
      <trkpt lat="42.74492" lon="1.61522">
        <ele>1817.62</ele>
        <time>2022-02-20T12:40:33Z</time>
      </trkpt>
      <trkpt lat="42.74492" lon="1.61522">
        <ele>1817.556</ele>
        <time>2022-02-20T12:40:35Z</time>
      </trkpt>
      <trkpt lat="42.74492" lon="1.61522">
        <ele>1817.94</ele>
        <time>2022-02-20T12:40:37Z</time>
      </trkpt>
      <trkpt lat="42.74492" lon="1.61522">
        <ele>1818.005</ele>
        <time>2022-02-20T12:40:39Z</time>
      </trkpt>
      <trkpt lat="42.74492" lon="1.61521">
        <ele>1817.827</ele>
        <time>2022-02-20T12:40:41Z</time>
      </trkpt>
      <trkpt lat="42.74493" lon="1.6152">
        <ele>1817.918</ele>
        <time>2022-02-20T12:40:43Z</time>
      </trkpt>
      <trkpt lat="42.74493" lon="1.6152">
        <ele>1817.916</ele>
        <time>2022-02-20T12:40:45Z</time>
      </trkpt>
      <trkpt lat="42.74493" lon="1.6152">
        <ele>1817.915</ele>
        <time>2022-02-20T12:40:47Z</time>
      </trkpt>
      <trkpt lat="42.74493" lon="1.6152">
        <ele>1817.915</ele>
        <time>2022-02-20T12:40:49Z</time>
      </trkpt>
      <trkpt lat="42.74493" lon="1.6152">
        <ele>1817.915</ele>
        <time>2022-02-20T12:40:51Z</time>
      </trkpt>
      <trkpt lat="42.74493" lon="1.61521">
        <ele>1817.919</ele>
        <time>2022-02-20T12:40:53Z</time>
      </trkpt>
      <trkpt lat="42.74493" lon="1.61521">
        <ele>1817.922</ele>
        <time>2022-02-20T12:40:55Z</time>
      </trkpt>
      <trkpt lat="42.74493" lon="1.61521">
        <ele>1817.923</ele>
        <time>2022-02-20T12:40:57Z</time>
      </trkpt>
      <trkpt lat="42.74493" lon="1.61521">
        <ele>1817.922</ele>
        <time>2022-02-20T12:40:59Z</time>
      </trkpt>
      <trkpt lat="42.74493" lon="1.61521">
        <ele>1817.917</ele>
        <time>2022-02-20T12:41:01Z</time>
      </trkpt>
      <trkpt lat="42.74493" lon="1.61521">
        <ele>1817.925</ele>
        <time>2022-02-20T12:41:03Z</time>
      </trkpt>
      <trkpt lat="42.74493" lon="1.61521">
        <ele>1817.93</ele>
        <time>2022-02-20T12:41:05Z</time>
      </trkpt>
      <trkpt lat="42.74493" lon="1.61521">
        <ele>1817.934</ele>
        <time>2022-02-20T12:41:07Z</time>
      </trkpt>
      <trkpt lat="42.74493" lon="1.61521">
        <ele>1817.938</ele>
        <time>2022-02-20T12:41:09Z</time>
      </trkpt>
      <trkpt lat="42.74493" lon="1.61521">
        <ele>1817.935</ele>
        <time>2022-02-20T12:41:11Z</time>
      </trkpt>
      <trkpt lat="42.74493" lon="1.61521">
        <ele>1817.938</ele>
        <time>2022-02-20T12:41:13Z</time>
      </trkpt>
      <trkpt lat="42.74493" lon="1.61521">
        <ele>1817.946</ele>
        <time>2022-02-20T12:41:15Z</time>
      </trkpt>
      <trkpt lat="42.74493" lon="1.61521">
        <ele>1817.949</ele>
        <time>2022-02-20T12:41:17Z</time>
      </trkpt>
      <trkpt lat="42.74493" lon="1.61521">
        <ele>1817.951</ele>
        <time>2022-02-20T12:41:19Z</time>
      </trkpt>
      <trkpt lat="42.74493" lon="1.61521">
        <ele>1818.2</ele>
        <time>2022-02-20T12:41:21Z</time>
      </trkpt>
      <trkpt lat="42.74492" lon="1.61522">
        <ele>1817.689</ele>
        <time>2022-02-20T12:41:23Z</time>
      </trkpt>
      <trkpt lat="42.74491" lon="1.61523">
        <ele>1817.566</ele>
        <time>2022-02-20T12:41:25Z</time>
      </trkpt>
      <trkpt lat="42.74491" lon="1.61523">
        <ele>1817.081</ele>
        <time>2022-02-20T12:41:27Z</time>
      </trkpt>
      <trkpt lat="42.7449" lon="1.61522">
        <ele>1816.78</ele>
        <time>2022-02-20T12:41:29Z</time>
      </trkpt>
      <trkpt lat="42.7449" lon="1.61522">
        <ele>1816.782</ele>
        <time>2022-02-20T12:41:31Z</time>
      </trkpt>
      <trkpt lat="42.7449" lon="1.61522">
        <ele>1816.79</ele>
        <time>2022-02-20T12:41:33Z</time>
      </trkpt>
      <trkpt lat="42.7449" lon="1.61522">
        <ele>1816.794</ele>
        <time>2022-02-20T12:41:35Z</time>
      </trkpt>
      <trkpt lat="42.7449" lon="1.61522">
        <ele>1816.8</ele>
        <time>2022-02-20T12:41:37Z</time>
      </trkpt>
      <trkpt lat="42.7449" lon="1.61522">
        <ele>1816.799</ele>
        <time>2022-02-20T12:41:39Z</time>
      </trkpt>
      <trkpt lat="42.7449" lon="1.61522">
        <ele>1816.798</ele>
        <time>2022-02-20T12:41:41Z</time>
      </trkpt>
      <trkpt lat="42.7449" lon="1.61522">
        <ele>1816.795</ele>
        <time>2022-02-20T12:41:43Z</time>
      </trkpt>
      <trkpt lat="42.7449" lon="1.61523">
        <ele>1816.647</ele>
        <time>2022-02-20T12:41:45Z</time>
      </trkpt>
      <trkpt lat="42.74489" lon="1.61523">
        <ele>1816.935</ele>
        <time>2022-02-20T12:41:47Z</time>
      </trkpt>
      <trkpt lat="42.74488" lon="1.61525">
        <ele>1817.746</ele>
        <time>2022-02-20T12:41:49Z</time>
      </trkpt>
      <trkpt lat="42.74487" lon="1.61526">
        <ele>1818.574</ele>
        <time>2022-02-20T12:41:51Z</time>
      </trkpt>
      <trkpt lat="42.74485" lon="1.61525">
        <ele>1818.514</ele>
        <time>2022-02-20T12:41:53Z</time>
      </trkpt>
      <trkpt lat="42.74482" lon="1.61523">
        <ele>1818.592</ele>
        <time>2022-02-20T12:41:55Z</time>
      </trkpt>
      <trkpt lat="42.74481" lon="1.61524">
        <ele>1818.077</ele>
        <time>2022-02-20T12:41:57Z</time>
      </trkpt>
      <trkpt lat="42.7448" lon="1.61527">
        <ele>1817.664</ele>
        <time>2022-02-20T12:41:59Z</time>
      </trkpt>
      <trkpt lat="42.74479" lon="1.61529">
        <ele>1817.44</ele>
        <time>2022-02-20T12:42:01Z</time>
      </trkpt>
      <trkpt lat="42.74479" lon="1.61531">
        <ele>1817.873</ele>
        <time>2022-02-20T12:42:03Z</time>
      </trkpt>
      <trkpt lat="42.74478" lon="1.61533">
        <ele>1818.013</ele>
        <time>2022-02-20T12:42:05Z</time>
      </trkpt>
      <trkpt lat="42.74476" lon="1.61537">
        <ele>1819.889</ele>
        <time>2022-02-20T12:42:07Z</time>
      </trkpt>
      <trkpt lat="42.74474" lon="1.61539">
        <ele>1820.439</ele>
        <time>2022-02-20T12:42:09Z</time>
      </trkpt>
      <trkpt lat="42.74474" lon="1.61539">
        <ele>1820.206</ele>
        <time>2022-02-20T12:42:11Z</time>
      </trkpt>
      <trkpt lat="42.74474" lon="1.61539">
        <ele>1819.849</ele>
        <time>2022-02-20T12:42:13Z</time>
      </trkpt>
      <trkpt lat="42.74473" lon="1.61539">
        <ele>1819.516</ele>
        <time>2022-02-20T12:42:15Z</time>
      </trkpt>
      <trkpt lat="42.74472" lon="1.61541">
        <ele>1819.274</ele>
        <time>2022-02-20T12:42:17Z</time>
      </trkpt>
      <trkpt lat="42.7447" lon="1.61542">
        <ele>1819.124</ele>
        <time>2022-02-20T12:42:19Z</time>
      </trkpt>
      <trkpt lat="42.74469" lon="1.61544">
        <ele>1818.536</ele>
        <time>2022-02-20T12:42:21Z</time>
      </trkpt>
      <trkpt lat="42.74468" lon="1.61545">
        <ele>1818.13</ele>
        <time>2022-02-20T12:42:23Z</time>
      </trkpt>
      <trkpt lat="42.74466" lon="1.61547">
        <ele>1818.116</ele>
        <time>2022-02-20T12:42:25Z</time>
      </trkpt>
      <trkpt lat="42.74465" lon="1.61549">
        <ele>1817.48</ele>
        <time>2022-02-20T12:42:27Z</time>
      </trkpt>
      <trkpt lat="42.74464" lon="1.6155">
        <ele>1817.174</ele>
        <time>2022-02-20T12:42:29Z</time>
      </trkpt>
      <trkpt lat="42.74463" lon="1.61552">
        <ele>1816.627</ele>
        <time>2022-02-20T12:42:31Z</time>
      </trkpt>
      <trkpt lat="42.74462" lon="1.61553">
        <ele>1815.901</ele>
        <time>2022-02-20T12:42:33Z</time>
      </trkpt>
      <trkpt lat="42.7446" lon="1.61555">
        <ele>1815.868</ele>
        <time>2022-02-20T12:42:35Z</time>
      </trkpt>
      <trkpt lat="42.74459" lon="1.61556">
        <ele>1815.265</ele>
        <time>2022-02-20T12:42:37Z</time>
      </trkpt>
      <trkpt lat="42.74457" lon="1.61558">
        <ele>1815.518</ele>
        <time>2022-02-20T12:42:39Z</time>
      </trkpt>
      <trkpt lat="42.74456" lon="1.61559">
        <ele>1815.083</ele>
        <time>2022-02-20T12:42:41Z</time>
      </trkpt>
      <trkpt lat="42.74455" lon="1.6156">
        <ele>1814.599</ele>
        <time>2022-02-20T12:42:43Z</time>
      </trkpt>
      <trkpt lat="42.74454" lon="1.61562">
        <ele>1813.933</ele>
        <time>2022-02-20T12:42:45Z</time>
      </trkpt>
      <trkpt lat="42.74452" lon="1.61564">
        <ele>1813.594</ele>
        <time>2022-02-20T12:42:47Z</time>
      </trkpt>
      <trkpt lat="42.7445" lon="1.61565">
        <ele>1812.719</ele>
        <time>2022-02-20T12:42:49Z</time>
      </trkpt>
      <trkpt lat="42.74449" lon="1.61567">
        <ele>1812.131</ele>
        <time>2022-02-20T12:42:51Z</time>
      </trkpt>
      <trkpt lat="42.74447" lon="1.61568">
        <ele>1811.766</ele>
        <time>2022-02-20T12:42:53Z</time>
      </trkpt>
      <trkpt lat="42.74445" lon="1.6157">
        <ele>1811.143</ele>
        <time>2022-02-20T12:42:55Z</time>
      </trkpt>
      <trkpt lat="42.74443" lon="1.61571">
        <ele>1810.381</ele>
        <time>2022-02-20T12:42:57Z</time>
      </trkpt>
      <trkpt lat="42.74441" lon="1.61572">
        <ele>1810.012</ele>
        <time>2022-02-20T12:42:59Z</time>
      </trkpt>
      <trkpt lat="42.74439" lon="1.61574">
        <ele>1809.478</ele>
        <time>2022-02-20T12:43:01Z</time>
      </trkpt>
      <trkpt lat="42.74437" lon="1.61576">
        <ele>1808.685</ele>
        <time>2022-02-20T12:43:03Z</time>
      </trkpt>
      <trkpt lat="42.74435" lon="1.61577">
        <ele>1808.324</ele>
        <time>2022-02-20T12:43:05Z</time>
      </trkpt>
      <trkpt lat="42.74433" lon="1.61579">
        <ele>1808.404</ele>
        <time>2022-02-20T12:43:07Z</time>
      </trkpt>
      <trkpt lat="42.74431" lon="1.6158">
        <ele>1808.039</ele>
        <time>2022-02-20T12:43:09Z</time>
      </trkpt>
      <trkpt lat="42.74429" lon="1.61582">
        <ele>1807.499</ele>
        <time>2022-02-20T12:43:11Z</time>
      </trkpt>
      <trkpt lat="42.74428" lon="1.61583">
        <ele>1807.168</ele>
        <time>2022-02-20T12:43:13Z</time>
      </trkpt>
      <trkpt lat="42.74425" lon="1.61585">
        <ele>1806.803</ele>
        <time>2022-02-20T12:43:15Z</time>
      </trkpt>
      <trkpt lat="42.74423" lon="1.61587">
        <ele>1806.6</ele>
        <time>2022-02-20T12:43:17Z</time>
      </trkpt>
      <trkpt lat="42.74422" lon="1.61588">
        <ele>1806.538</ele>
        <time>2022-02-20T12:43:19Z</time>
      </trkpt>
      <trkpt lat="42.7442" lon="1.6159">
        <ele>1806.841</ele>
        <time>2022-02-20T12:43:21Z</time>
      </trkpt>
      <trkpt lat="42.74419" lon="1.61591">
        <ele>1807.26</ele>
        <time>2022-02-20T12:43:23Z</time>
      </trkpt>
      <trkpt lat="42.74417" lon="1.61593">
        <ele>1806.981</ele>
        <time>2022-02-20T12:43:25Z</time>
      </trkpt>
      <trkpt lat="42.74415" lon="1.61594">
        <ele>1806.196</ele>
        <time>2022-02-20T12:43:27Z</time>
      </trkpt>
      <trkpt lat="42.74413" lon="1.61595">
        <ele>1805.605</ele>
        <time>2022-02-20T12:43:29Z</time>
      </trkpt>
      <trkpt lat="42.74411" lon="1.61597">
        <ele>1805.404</ele>
        <time>2022-02-20T12:43:31Z</time>
      </trkpt>
      <trkpt lat="42.74409" lon="1.61599">
        <ele>1805.114</ele>
        <time>2022-02-20T12:43:33Z</time>
      </trkpt>
      <trkpt lat="42.74407" lon="1.616">
        <ele>1805.032</ele>
        <time>2022-02-20T12:43:35Z</time>
      </trkpt>
      <trkpt lat="42.74405" lon="1.61602">
        <ele>1804.676</ele>
        <time>2022-02-20T12:43:37Z</time>
      </trkpt>
      <trkpt lat="42.74402" lon="1.61604">
        <ele>1804.318</ele>
        <time>2022-02-20T12:43:39Z</time>
      </trkpt>
      <trkpt lat="42.744" lon="1.61605">
        <ele>1803.847</ele>
        <time>2022-02-20T12:43:41Z</time>
      </trkpt>
      <trkpt lat="42.74398" lon="1.61607">
        <ele>1803.504</ele>
        <time>2022-02-20T12:43:43Z</time>
      </trkpt>
      <trkpt lat="42.74396" lon="1.61609">
        <ele>1802.888</ele>
        <time>2022-02-20T12:43:45Z</time>
      </trkpt>
      <trkpt lat="42.74394" lon="1.6161">
        <ele>1802.796</ele>
        <time>2022-02-20T12:43:47Z</time>
      </trkpt>
      <trkpt lat="42.74392" lon="1.61612">
        <ele>1802.042</ele>
        <time>2022-02-20T12:43:49Z</time>
      </trkpt>
      <trkpt lat="42.7439" lon="1.61613">
        <ele>1801.454</ele>
        <time>2022-02-20T12:43:51Z</time>
      </trkpt>
      <trkpt lat="42.74387" lon="1.61615">
        <ele>1801.23</ele>
        <time>2022-02-20T12:43:53Z</time>
      </trkpt>
      <trkpt lat="42.74385" lon="1.61616">
        <ele>1800.988</ele>
        <time>2022-02-20T12:43:55Z</time>
      </trkpt>
      <trkpt lat="42.74383" lon="1.61618">
        <ele>1800.499</ele>
        <time>2022-02-20T12:43:57Z</time>
      </trkpt>
      <trkpt lat="42.74382" lon="1.61619">
        <ele>1800.077</ele>
        <time>2022-02-20T12:43:59Z</time>
      </trkpt>
      <trkpt lat="42.74379" lon="1.61621">
        <ele>1799.589</ele>
        <time>2022-02-20T12:44:01Z</time>
      </trkpt>
      <trkpt lat="42.74377" lon="1.61622">
        <ele>1799.371</ele>
        <time>2022-02-20T12:44:03Z</time>
      </trkpt>
      <trkpt lat="42.74376" lon="1.61624">
        <ele>1799.118</ele>
        <time>2022-02-20T12:44:05Z</time>
      </trkpt>
      <trkpt lat="42.74374" lon="1.61625">
        <ele>1798.549</ele>
        <time>2022-02-20T12:44:07Z</time>
      </trkpt>
      <trkpt lat="42.74372" lon="1.61627">
        <ele>1798.57</ele>
        <time>2022-02-20T12:44:09Z</time>
      </trkpt>
      <trkpt lat="42.7437" lon="1.61629">
        <ele>1798.3</ele>
        <time>2022-02-20T12:44:11Z</time>
      </trkpt>
      <trkpt lat="42.74368" lon="1.6163">
        <ele>1798.466</ele>
        <time>2022-02-20T12:44:13Z</time>
      </trkpt>
      <trkpt lat="42.74366" lon="1.61632">
        <ele>1798.894</ele>
        <time>2022-02-20T12:44:15Z</time>
      </trkpt>
      <trkpt lat="42.74364" lon="1.61634">
        <ele>1798.745</ele>
        <time>2022-02-20T12:44:17Z</time>
      </trkpt>
      <trkpt lat="42.74362" lon="1.61635">
        <ele>1798.835</ele>
        <time>2022-02-20T12:44:19Z</time>
      </trkpt>
      <trkpt lat="42.7436" lon="1.61637">
        <ele>1798.913</ele>
        <time>2022-02-20T12:44:21Z</time>
      </trkpt>
      <trkpt lat="42.74358" lon="1.61639">
        <ele>1798.738</ele>
        <time>2022-02-20T12:44:23Z</time>
      </trkpt>
      <trkpt lat="42.74356" lon="1.61641">
        <ele>1798.629</ele>
        <time>2022-02-20T12:44:25Z</time>
      </trkpt>
      <trkpt lat="42.74354" lon="1.61642">
        <ele>1798.695</ele>
        <time>2022-02-20T12:44:27Z</time>
      </trkpt>
      <trkpt lat="42.74352" lon="1.61644">
        <ele>1798.845</ele>
        <time>2022-02-20T12:44:29Z</time>
      </trkpt>
      <trkpt lat="42.7435" lon="1.61646">
        <ele>1798.489</ele>
        <time>2022-02-20T12:44:31Z</time>
      </trkpt>
      <trkpt lat="42.74348" lon="1.61647">
        <ele>1798.437</ele>
        <time>2022-02-20T12:44:33Z</time>
      </trkpt>
      <trkpt lat="42.74346" lon="1.61649">
        <ele>1798.472</ele>
        <time>2022-02-20T12:44:35Z</time>
      </trkpt>
      <trkpt lat="42.74345" lon="1.6165">
        <ele>1798.787</ele>
        <time>2022-02-20T12:44:37Z</time>
      </trkpt>
      <trkpt lat="42.74343" lon="1.61651">
        <ele>1799.92</ele>
        <time>2022-02-20T12:44:39Z</time>
      </trkpt>
      <trkpt lat="42.7434" lon="1.61652">
        <ele>1801.428</ele>
        <time>2022-02-20T12:44:41Z</time>
      </trkpt>
      <trkpt lat="42.7434" lon="1.61651">
        <ele>1801.785</ele>
        <time>2022-02-20T12:44:43Z</time>
      </trkpt>
      <trkpt lat="42.7434" lon="1.61651">
        <ele>1802.75</ele>
        <time>2022-02-20T12:44:45Z</time>
      </trkpt>
      <trkpt lat="42.74339" lon="1.61651">
        <ele>1802.741</ele>
        <time>2022-02-20T12:44:47Z</time>
      </trkpt>
      <trkpt lat="42.74339" lon="1.61651">
        <ele>1802.735</ele>
        <time>2022-02-20T12:44:49Z</time>
      </trkpt>
      <trkpt lat="42.74339" lon="1.61651">
        <ele>1802.717</ele>
        <time>2022-02-20T12:44:51Z</time>
      </trkpt>
      <trkpt lat="42.74339" lon="1.61651">
        <ele>1802.701</ele>
        <time>2022-02-20T12:44:53Z</time>
      </trkpt>
      <trkpt lat="42.74339" lon="1.61651">
        <ele>1802.698</ele>
        <time>2022-02-20T12:44:55Z</time>
      </trkpt>
      <trkpt lat="42.74339" lon="1.61651">
        <ele>1802.693</ele>
        <time>2022-02-20T12:44:57Z</time>
      </trkpt>
      <trkpt lat="42.74339" lon="1.61651">
        <ele>1802.688</ele>
        <time>2022-02-20T12:44:59Z</time>
      </trkpt>
      <trkpt lat="42.74339" lon="1.61651">
        <ele>1802.671</ele>
        <time>2022-02-20T12:45:01Z</time>
      </trkpt>
      <trkpt lat="42.74339" lon="1.61651">
        <ele>1802.667</ele>
        <time>2022-02-20T12:45:03Z</time>
      </trkpt>
      <trkpt lat="42.74339" lon="1.61651">
        <ele>1802.659</ele>
        <time>2022-02-20T12:45:05Z</time>
      </trkpt>
      <trkpt lat="42.7434" lon="1.61651">
        <ele>1801.551</ele>
        <time>2022-02-20T12:45:07Z</time>
      </trkpt>
      <trkpt lat="42.7434" lon="1.61651">
        <ele>1801.554</ele>
        <time>2022-02-20T12:45:09Z</time>
      </trkpt>
      <trkpt lat="42.7434" lon="1.61651">
        <ele>1801.556</ele>
        <time>2022-02-20T12:45:11Z</time>
      </trkpt>
      <trkpt lat="42.7434" lon="1.61651">
        <ele>1801.556</ele>
        <time>2022-02-20T12:45:13Z</time>
      </trkpt>
      <trkpt lat="42.7434" lon="1.61651">
        <ele>1801.557</ele>
        <time>2022-02-20T12:45:15Z</time>
      </trkpt>
      <trkpt lat="42.7434" lon="1.61651">
        <ele>1801.558</ele>
        <time>2022-02-20T12:45:17Z</time>
      </trkpt>
      <trkpt lat="42.7434" lon="1.61651">
        <ele>1801.557</ele>
        <time>2022-02-20T12:45:19Z</time>
      </trkpt>
      <trkpt lat="42.7434" lon="1.61651">
        <ele>1801.558</ele>
        <time>2022-02-20T12:45:21Z</time>
      </trkpt>
      <trkpt lat="42.7434" lon="1.61651">
        <ele>1801.556</ele>
        <time>2022-02-20T12:45:23Z</time>
      </trkpt>
      <trkpt lat="42.7434" lon="1.61651">
        <ele>1801.56</ele>
        <time>2022-02-20T12:45:25Z</time>
      </trkpt>
      <trkpt lat="42.7434" lon="1.61651">
        <ele>1801.475</ele>
        <time>2022-02-20T12:45:27Z</time>
      </trkpt>
      <trkpt lat="42.74341" lon="1.61651">
        <ele>1801.479</ele>
        <time>2022-02-20T12:45:29Z</time>
      </trkpt>
      <trkpt lat="42.74341" lon="1.61651">
        <ele>1801.473</ele>
        <time>2022-02-20T12:45:31Z</time>
      </trkpt>
      <trkpt lat="42.74341" lon="1.61651">
        <ele>1801.469</ele>
        <time>2022-02-20T12:45:33Z</time>
      </trkpt>
      <trkpt lat="42.74341" lon="1.61651">
        <ele>1801.466</ele>
        <time>2022-02-20T12:45:35Z</time>
      </trkpt>
      <trkpt lat="42.74341" lon="1.61651">
        <ele>1801.46</ele>
        <time>2022-02-20T12:45:37Z</time>
      </trkpt>
      <trkpt lat="42.74341" lon="1.61651">
        <ele>1801.458</ele>
        <time>2022-02-20T12:45:39Z</time>
      </trkpt>
      <trkpt lat="42.74341" lon="1.61651">
        <ele>1801.543</ele>
        <time>2022-02-20T12:45:41Z</time>
      </trkpt>
      <trkpt lat="42.7434" lon="1.61651">
        <ele>1801.533</ele>
        <time>2022-02-20T12:45:43Z</time>
      </trkpt>
      <trkpt lat="42.7434" lon="1.61651">
        <ele>1801.52</ele>
        <time>2022-02-20T12:45:45Z</time>
      </trkpt>
      <trkpt lat="42.7434" lon="1.61651">
        <ele>1801.519</ele>
        <time>2022-02-20T12:45:47Z</time>
      </trkpt>
      <trkpt lat="42.7434" lon="1.61651">
        <ele>1801.516</ele>
        <time>2022-02-20T12:45:49Z</time>
      </trkpt>
      <trkpt lat="42.7434" lon="1.61651">
        <ele>1801.518</ele>
        <time>2022-02-20T12:45:51Z</time>
      </trkpt>
      <trkpt lat="42.7434" lon="1.61651">
        <ele>1801.241</ele>
        <time>2022-02-20T12:45:53Z</time>
      </trkpt>
      <trkpt lat="42.7434" lon="1.61652">
        <ele>1800.891</ele>
        <time>2022-02-20T12:45:55Z</time>
      </trkpt>
      <trkpt lat="42.74341" lon="1.61652">
        <ele>1800.754</ele>
        <time>2022-02-20T12:45:57Z</time>
      </trkpt>
      <trkpt lat="42.74341" lon="1.61652">
        <ele>1800.734</ele>
        <time>2022-02-20T12:45:59Z</time>
      </trkpt>
      <trkpt lat="42.74341" lon="1.61652">
        <ele>1800.725</ele>
        <time>2022-02-20T12:46:01Z</time>
      </trkpt>
      <trkpt lat="42.74341" lon="1.61652">
        <ele>1800.72</ele>
        <time>2022-02-20T12:46:03Z</time>
      </trkpt>
      <trkpt lat="42.74341" lon="1.61652">
        <ele>1800.715</ele>
        <time>2022-02-20T12:46:05Z</time>
      </trkpt>
      <trkpt lat="42.74341" lon="1.61652">
        <ele>1800.711</ele>
        <time>2022-02-20T12:46:07Z</time>
      </trkpt>
      <trkpt lat="42.74341" lon="1.61652">
        <ele>1800.709</ele>
        <time>2022-02-20T12:46:09Z</time>
      </trkpt>
      <trkpt lat="42.74341" lon="1.61652">
        <ele>1800.706</ele>
        <time>2022-02-20T12:46:11Z</time>
      </trkpt>
      <trkpt lat="42.74341" lon="1.61652">
        <ele>1800.702</ele>
        <time>2022-02-20T12:46:13Z</time>
      </trkpt>
      <trkpt lat="42.74341" lon="1.61652">
        <ele>1800.696</ele>
        <time>2022-02-20T12:46:15Z</time>
      </trkpt>
      <trkpt lat="42.74341" lon="1.61652">
        <ele>1800.345</ele>
        <time>2022-02-20T12:46:17Z</time>
      </trkpt>
      <trkpt lat="42.7434" lon="1.61652">
        <ele>1800.655</ele>
        <time>2022-02-20T12:46:19Z</time>
      </trkpt>
      <trkpt lat="42.74339" lon="1.61651">
        <ele>1800.381</ele>
        <time>2022-02-20T12:46:21Z</time>
      </trkpt>
      <trkpt lat="42.74338" lon="1.61649">
        <ele>1799.799</ele>
        <time>2022-02-20T12:46:23Z</time>
      </trkpt>
      <trkpt lat="42.74336" lon="1.61648">
        <ele>1799.464</ele>
        <time>2022-02-20T12:46:25Z</time>
      </trkpt>
      <trkpt lat="42.74334" lon="1.61647">
        <ele>1799.39</ele>
        <time>2022-02-20T12:46:27Z</time>
      </trkpt>
      <trkpt lat="42.74333" lon="1.61646">
        <ele>1799.928</ele>
        <time>2022-02-20T12:46:29Z</time>
      </trkpt>
      <trkpt lat="42.74331" lon="1.61644">
        <ele>1799.603</ele>
        <time>2022-02-20T12:46:31Z</time>
      </trkpt>
      <trkpt lat="42.7433" lon="1.61643">
        <ele>1799.608</ele>
        <time>2022-02-20T12:46:33Z</time>
      </trkpt>
      <trkpt lat="42.74328" lon="1.61642">
        <ele>1799.621</ele>
        <time>2022-02-20T12:46:35Z</time>
      </trkpt>
      <trkpt lat="42.74326" lon="1.61642">
        <ele>1799.751</ele>
        <time>2022-02-20T12:46:37Z</time>
      </trkpt>
      <trkpt lat="42.74324" lon="1.61641">
        <ele>1799.496</ele>
        <time>2022-02-20T12:46:39Z</time>
      </trkpt>
      <trkpt lat="42.74322" lon="1.61641">
        <ele>1799.399</ele>
        <time>2022-02-20T12:46:41Z</time>
      </trkpt>
      <trkpt lat="42.7432" lon="1.6164">
        <ele>1798.782</ele>
        <time>2022-02-20T12:46:43Z</time>
      </trkpt>
      <trkpt lat="42.74318" lon="1.61639">
        <ele>1798.337</ele>
        <time>2022-02-20T12:46:45Z</time>
      </trkpt>
      <trkpt lat="42.74317" lon="1.61638">
        <ele>1798.038</ele>
        <time>2022-02-20T12:46:47Z</time>
      </trkpt>
      <trkpt lat="42.74315" lon="1.61637">
        <ele>1798.184</ele>
        <time>2022-02-20T12:46:49Z</time>
      </trkpt>
      <trkpt lat="42.74312" lon="1.61637">
        <ele>1798.437</ele>
        <time>2022-02-20T12:46:51Z</time>
      </trkpt>
      <trkpt lat="42.7431" lon="1.61636">
        <ele>1798.88</ele>
        <time>2022-02-20T12:46:53Z</time>
      </trkpt>
      <trkpt lat="42.74308" lon="1.61636">
        <ele>1798.844</ele>
        <time>2022-02-20T12:46:55Z</time>
      </trkpt>
      <trkpt lat="42.74306" lon="1.61635">
        <ele>1798.49</ele>
        <time>2022-02-20T12:46:57Z</time>
      </trkpt>
      <trkpt lat="42.74305" lon="1.61634">
        <ele>1798.516</ele>
        <time>2022-02-20T12:46:59Z</time>
      </trkpt>
      <trkpt lat="42.74303" lon="1.61633">
        <ele>1797.898</ele>
        <time>2022-02-20T12:47:01Z</time>
      </trkpt>
      <trkpt lat="42.74302" lon="1.61631">
        <ele>1797.871</ele>
        <time>2022-02-20T12:47:03Z</time>
      </trkpt>
      <trkpt lat="42.743" lon="1.61629">
        <ele>1796.746</ele>
        <time>2022-02-20T12:47:05Z</time>
      </trkpt>
      <trkpt lat="42.74298" lon="1.61627">
        <ele>1796.607</ele>
        <time>2022-02-20T12:47:07Z</time>
      </trkpt>
      <trkpt lat="42.74297" lon="1.61625">
        <ele>1796.028</ele>
        <time>2022-02-20T12:47:09Z</time>
      </trkpt>
      <trkpt lat="42.74295" lon="1.61624">
        <ele>1795.184</ele>
        <time>2022-02-20T12:47:11Z</time>
      </trkpt>
      <trkpt lat="42.74293" lon="1.61622">
        <ele>1794.163</ele>
        <time>2022-02-20T12:47:13Z</time>
      </trkpt>
      <trkpt lat="42.74292" lon="1.6162">
        <ele>1794.211</ele>
        <time>2022-02-20T12:47:15Z</time>
      </trkpt>
      <trkpt lat="42.7429" lon="1.61618">
        <ele>1794.604</ele>
        <time>2022-02-20T12:47:17Z</time>
      </trkpt>
      <trkpt lat="42.74289" lon="1.61615">
        <ele>1794.696</ele>
        <time>2022-02-20T12:47:19Z</time>
      </trkpt>
      <trkpt lat="42.74287" lon="1.61613">
        <ele>1794.478</ele>
        <time>2022-02-20T12:47:21Z</time>
      </trkpt>
      <trkpt lat="42.74286" lon="1.6161">
        <ele>1794.206</ele>
        <time>2022-02-20T12:47:23Z</time>
      </trkpt>
      <trkpt lat="42.74285" lon="1.61608">
        <ele>1793.149</ele>
        <time>2022-02-20T12:47:25Z</time>
      </trkpt>
      <trkpt lat="42.74283" lon="1.61606">
        <ele>1792.329</ele>
        <time>2022-02-20T12:47:27Z</time>
      </trkpt>
      <trkpt lat="42.74282" lon="1.61603">
        <ele>1792.179</ele>
        <time>2022-02-20T12:47:29Z</time>
      </trkpt>
      <trkpt lat="42.7428" lon="1.61601">
        <ele>1792.015</ele>
        <time>2022-02-20T12:47:31Z</time>
      </trkpt>
      <trkpt lat="42.74279" lon="1.61598">
        <ele>1792.689</ele>
        <time>2022-02-20T12:47:33Z</time>
      </trkpt>
      <trkpt lat="42.74278" lon="1.61596">
        <ele>1793.068</ele>
        <time>2022-02-20T12:47:35Z</time>
      </trkpt>
      <trkpt lat="42.74277" lon="1.61594">
        <ele>1793.133</ele>
        <time>2022-02-20T12:47:37Z</time>
      </trkpt>
      <trkpt lat="42.74276" lon="1.61591">
        <ele>1793.064</ele>
        <time>2022-02-20T12:47:39Z</time>
      </trkpt>
      <trkpt lat="42.74275" lon="1.61589">
        <ele>1791.889</ele>
        <time>2022-02-20T12:47:41Z</time>
      </trkpt>
      <trkpt lat="42.74273" lon="1.61587">
        <ele>1791.936</ele>
        <time>2022-02-20T12:47:43Z</time>
      </trkpt>
      <trkpt lat="42.74272" lon="1.61585">
        <ele>1791.706</ele>
        <time>2022-02-20T12:47:45Z</time>
      </trkpt>
      <trkpt lat="42.74271" lon="1.61583">
        <ele>1791.365</ele>
        <time>2022-02-20T12:47:47Z</time>
      </trkpt>
      <trkpt lat="42.7427" lon="1.61581">
        <ele>1791.282</ele>
        <time>2022-02-20T12:47:49Z</time>
      </trkpt>
      <trkpt lat="42.74269" lon="1.61579">
        <ele>1790.834</ele>
        <time>2022-02-20T12:47:51Z</time>
      </trkpt>
      <trkpt lat="42.74268" lon="1.61577">
        <ele>1790.578</ele>
        <time>2022-02-20T12:47:53Z</time>
      </trkpt>
      <trkpt lat="42.74267" lon="1.61575">
        <ele>1790.764</ele>
        <time>2022-02-20T12:47:55Z</time>
      </trkpt>
      <trkpt lat="42.74265" lon="1.61573">
        <ele>1790.068</ele>
        <time>2022-02-20T12:47:57Z</time>
      </trkpt>
      <trkpt lat="42.74264" lon="1.61571">
        <ele>1790.26</ele>
        <time>2022-02-20T12:47:59Z</time>
      </trkpt>
      <trkpt lat="42.74263" lon="1.61569">
        <ele>1789.745</ele>
        <time>2022-02-20T12:48:01Z</time>
      </trkpt>
      <trkpt lat="42.74261" lon="1.61567">
        <ele>1789.633</ele>
        <time>2022-02-20T12:48:03Z</time>
      </trkpt>
      <trkpt lat="42.7426" lon="1.61565">
        <ele>1789.66</ele>
        <time>2022-02-20T12:48:05Z</time>
      </trkpt>
      <trkpt lat="42.74259" lon="1.61563">
        <ele>1789.255</ele>
        <time>2022-02-20T12:48:07Z</time>
      </trkpt>
      <trkpt lat="42.74257" lon="1.61561">
        <ele>1788.315</ele>
        <time>2022-02-20T12:48:09Z</time>
      </trkpt>
      <trkpt lat="42.74256" lon="1.61559">
        <ele>1788.138</ele>
        <time>2022-02-20T12:48:11Z</time>
      </trkpt>
      <trkpt lat="42.74255" lon="1.61556">
        <ele>1788.003</ele>
        <time>2022-02-20T12:48:13Z</time>
      </trkpt>
      <trkpt lat="42.74253" lon="1.61555">
        <ele>1787.918</ele>
        <time>2022-02-20T12:48:15Z</time>
      </trkpt>
      <trkpt lat="42.74252" lon="1.61553">
        <ele>1787.567</ele>
        <time>2022-02-20T12:48:17Z</time>
      </trkpt>
      <trkpt lat="42.74251" lon="1.61551">
        <ele>1788.181</ele>
        <time>2022-02-20T12:48:19Z</time>
      </trkpt>
      <trkpt lat="42.74249" lon="1.61549">
        <ele>1787.975</ele>
        <time>2022-02-20T12:48:21Z</time>
      </trkpt>
      <trkpt lat="42.74248" lon="1.61548">
        <ele>1788.274</ele>
        <time>2022-02-20T12:48:23Z</time>
      </trkpt>
      <trkpt lat="42.74247" lon="1.61546">
        <ele>1788.346</ele>
        <time>2022-02-20T12:48:25Z</time>
      </trkpt>
      <trkpt lat="42.74245" lon="1.61545">
        <ele>1788.818</ele>
        <time>2022-02-20T12:48:27Z</time>
      </trkpt>
      <trkpt lat="42.74244" lon="1.61543">
        <ele>1788.172</ele>
        <time>2022-02-20T12:48:29Z</time>
      </trkpt>
      <trkpt lat="42.74244" lon="1.61541">
        <ele>1788.254</ele>
        <time>2022-02-20T12:48:31Z</time>
      </trkpt>
      <trkpt lat="42.74243" lon="1.61538">
        <ele>1788.219</ele>
        <time>2022-02-20T12:48:33Z</time>
      </trkpt>
      <trkpt lat="42.74243" lon="1.61535">
        <ele>1788.406</ele>
        <time>2022-02-20T12:48:35Z</time>
      </trkpt>
      <trkpt lat="42.74244" lon="1.61532">
        <ele>1788.356</ele>
        <time>2022-02-20T12:48:37Z</time>
      </trkpt>
      <trkpt lat="42.74245" lon="1.6153">
        <ele>1787.695</ele>
        <time>2022-02-20T12:48:39Z</time>
      </trkpt>
      <trkpt lat="42.74245" lon="1.61528">
        <ele>1788.139</ele>
        <time>2022-02-20T12:48:41Z</time>
      </trkpt>
      <trkpt lat="42.74245" lon="1.61526">
        <ele>1788.261</ele>
        <time>2022-02-20T12:48:43Z</time>
      </trkpt>
      <trkpt lat="42.74245" lon="1.61523">
        <ele>1787.883</ele>
        <time>2022-02-20T12:48:45Z</time>
      </trkpt>
      <trkpt lat="42.74246" lon="1.61522">
        <ele>1786.939</ele>
        <time>2022-02-20T12:48:47Z</time>
      </trkpt>
      <trkpt lat="42.74246" lon="1.6152">
        <ele>1786.602</ele>
        <time>2022-02-20T12:48:49Z</time>
      </trkpt>
      <trkpt lat="42.74246" lon="1.61518">
        <ele>1786.183</ele>
        <time>2022-02-20T12:48:51Z</time>
      </trkpt>
      <trkpt lat="42.74246" lon="1.61517">
        <ele>1785.883</ele>
        <time>2022-02-20T12:48:53Z</time>
      </trkpt>
      <trkpt lat="42.74245" lon="1.61515">
        <ele>1784.916</ele>
        <time>2022-02-20T12:48:55Z</time>
      </trkpt>
      <trkpt lat="42.74245" lon="1.61513">
        <ele>1784.852</ele>
        <time>2022-02-20T12:48:57Z</time>
      </trkpt>
      <trkpt lat="42.74246" lon="1.61511">
        <ele>1784.104</ele>
        <time>2022-02-20T12:48:59Z</time>
      </trkpt>
      <trkpt lat="42.74246" lon="1.61508">
        <ele>1783.632</ele>
        <time>2022-02-20T12:49:01Z</time>
      </trkpt>
      <trkpt lat="42.74246" lon="1.61506">
        <ele>1783.276</ele>
        <time>2022-02-20T12:49:03Z</time>
      </trkpt>
      <trkpt lat="42.74245" lon="1.61504">
        <ele>1782.96</ele>
        <time>2022-02-20T12:49:05Z</time>
      </trkpt>
      <trkpt lat="42.74245" lon="1.61501">
        <ele>1783.242</ele>
        <time>2022-02-20T12:49:07Z</time>
      </trkpt>
      <trkpt lat="42.74246" lon="1.615">
        <ele>1783.299</ele>
        <time>2022-02-20T12:49:09Z</time>
      </trkpt>
      <trkpt lat="42.74246" lon="1.615">
        <ele>1783.299</ele>
        <time>2022-02-20T12:49:11Z</time>
      </trkpt>
      <trkpt lat="42.74246" lon="1.615">
        <ele>1783.3</ele>
        <time>2022-02-20T12:49:13Z</time>
      </trkpt>
      <trkpt lat="42.74246" lon="1.615">
        <ele>1783.298</ele>
        <time>2022-02-20T12:49:15Z</time>
      </trkpt>
      <trkpt lat="42.74246" lon="1.615">
        <ele>1783.299</ele>
        <time>2022-02-20T12:49:17Z</time>
      </trkpt>
      <trkpt lat="42.74246" lon="1.615">
        <ele>1783.298</ele>
        <time>2022-02-20T12:49:19Z</time>
      </trkpt>
      <trkpt lat="42.74246" lon="1.615">
        <ele>1783.296</ele>
        <time>2022-02-20T12:49:21Z</time>
      </trkpt>
      <trkpt lat="42.74246" lon="1.615">
        <ele>1783.292</ele>
        <time>2022-02-20T12:49:23Z</time>
      </trkpt>
      <trkpt lat="42.74246" lon="1.615">
        <ele>1783.295</ele>
        <time>2022-02-20T12:49:25Z</time>
      </trkpt>
      <trkpt lat="42.74246" lon="1.615">
        <ele>1783.296</ele>
        <time>2022-02-20T12:49:27Z</time>
      </trkpt>
      <trkpt lat="42.74246" lon="1.615">
        <ele>1782.923</ele>
        <time>2022-02-20T12:49:29Z</time>
      </trkpt>
      <trkpt lat="42.74246" lon="1.61501">
        <ele>1782.678</ele>
        <time>2022-02-20T12:49:31Z</time>
      </trkpt>
      <trkpt lat="42.74246" lon="1.61501">
        <ele>1782.263</ele>
        <time>2022-02-20T12:49:33Z</time>
      </trkpt>
      <trkpt lat="42.74246" lon="1.61501">
        <ele>1782.217</ele>
        <time>2022-02-20T12:49:35Z</time>
      </trkpt>
      <trkpt lat="42.74246" lon="1.61501">
        <ele>1782.235</ele>
        <time>2022-02-20T12:49:37Z</time>
      </trkpt>
      <trkpt lat="42.74246" lon="1.61501">
        <ele>1782.229</ele>
        <time>2022-02-20T12:49:39Z</time>
      </trkpt>
      <trkpt lat="42.74246" lon="1.61501">
        <ele>1782.224</ele>
        <time>2022-02-20T12:49:41Z</time>
      </trkpt>
      <trkpt lat="42.74246" lon="1.61501">
        <ele>1782.225</ele>
        <time>2022-02-20T12:49:43Z</time>
      </trkpt>
      <trkpt lat="42.74246" lon="1.61501">
        <ele>1782.224</ele>
        <time>2022-02-20T12:49:45Z</time>
      </trkpt>
      <trkpt lat="42.74246" lon="1.61501">
        <ele>1782.223</ele>
        <time>2022-02-20T12:49:47Z</time>
      </trkpt>
      <trkpt lat="42.74246" lon="1.61501">
        <ele>1782.227</ele>
        <time>2022-02-20T12:49:49Z</time>
      </trkpt>
      <trkpt lat="42.74246" lon="1.61501">
        <ele>1782.234</ele>
        <time>2022-02-20T12:49:51Z</time>
      </trkpt>
      <trkpt lat="42.74246" lon="1.61501">
        <ele>1782.233</ele>
        <time>2022-02-20T12:49:53Z</time>
      </trkpt>
      <trkpt lat="42.74246" lon="1.61501">
        <ele>1782.234</ele>
        <time>2022-02-20T12:49:55Z</time>
      </trkpt>
      <trkpt lat="42.74246" lon="1.61501">
        <ele>1782.227</ele>
        <time>2022-02-20T12:49:57Z</time>
      </trkpt>
      <trkpt lat="42.74246" lon="1.61501">
        <ele>1782.221</ele>
        <time>2022-02-20T12:49:59Z</time>
      </trkpt>
      <trkpt lat="42.74246" lon="1.61501">
        <ele>1782.213</ele>
        <time>2022-02-20T12:50:01Z</time>
      </trkpt>
      <trkpt lat="42.74246" lon="1.61501">
        <ele>1782.213</ele>
        <time>2022-02-20T12:50:03Z</time>
      </trkpt>
      <trkpt lat="42.74246" lon="1.61501">
        <ele>1782.209</ele>
        <time>2022-02-20T12:50:05Z</time>
      </trkpt>
      <trkpt lat="42.74246" lon="1.61501">
        <ele>1782.211</ele>
        <time>2022-02-20T12:50:07Z</time>
      </trkpt>
      <trkpt lat="42.74246" lon="1.61501">
        <ele>1782.209</ele>
        <time>2022-02-20T12:50:09Z</time>
      </trkpt>
      <trkpt lat="42.74246" lon="1.61501">
        <ele>1782.206</ele>
        <time>2022-02-20T12:50:11Z</time>
      </trkpt>
      <trkpt lat="42.74246" lon="1.61501">
        <ele>1782.204</ele>
        <time>2022-02-20T12:50:13Z</time>
      </trkpt>
      <trkpt lat="42.74246" lon="1.61501">
        <ele>1781.888</ele>
        <time>2022-02-20T12:50:15Z</time>
      </trkpt>
      <trkpt lat="42.74246" lon="1.615">
        <ele>1781.489</ele>
        <time>2022-02-20T12:50:17Z</time>
      </trkpt>
      <trkpt lat="42.74245" lon="1.61497">
        <ele>1781.392</ele>
        <time>2022-02-20T12:50:19Z</time>
      </trkpt>
      <trkpt lat="42.74245" lon="1.61495">
        <ele>1781.101</ele>
        <time>2022-02-20T12:50:21Z</time>
      </trkpt>
      <trkpt lat="42.74244" lon="1.61492">
        <ele>1781.095</ele>
        <time>2022-02-20T12:50:23Z</time>
      </trkpt>
      <trkpt lat="42.74244" lon="1.6149">
        <ele>1780.825</ele>
        <time>2022-02-20T12:50:25Z</time>
      </trkpt>
      <trkpt lat="42.74244" lon="1.61488">
        <ele>1781.564</ele>
        <time>2022-02-20T12:50:27Z</time>
      </trkpt>
      <trkpt lat="42.74245" lon="1.61487">
        <ele>1781.082</ele>
        <time>2022-02-20T12:50:29Z</time>
      </trkpt>
      <trkpt lat="42.74247" lon="1.61486">
        <ele>1780.406</ele>
        <time>2022-02-20T12:50:31Z</time>
      </trkpt>
      <trkpt lat="42.74248" lon="1.61485">
        <ele>1779.491</ele>
        <time>2022-02-20T12:50:33Z</time>
      </trkpt>
      <trkpt lat="42.74249" lon="1.61484">
        <ele>1778.974</ele>
        <time>2022-02-20T12:50:35Z</time>
      </trkpt>
      <trkpt lat="42.7425" lon="1.61483">
        <ele>1778.787</ele>
        <time>2022-02-20T12:50:37Z</time>
      </trkpt>
      <trkpt lat="42.74251" lon="1.61481">
        <ele>1778.341</ele>
        <time>2022-02-20T12:50:39Z</time>
      </trkpt>
      <trkpt lat="42.74252" lon="1.61479">
        <ele>1778.129</ele>
        <time>2022-02-20T12:50:41Z</time>
      </trkpt>
      <trkpt lat="42.74251" lon="1.61477">
        <ele>1777.584</ele>
        <time>2022-02-20T12:50:43Z</time>
      </trkpt>
      <trkpt lat="42.7425" lon="1.61475">
        <ele>1776.966</ele>
        <time>2022-02-20T12:50:45Z</time>
      </trkpt>
      <trkpt lat="42.7425" lon="1.61474">
        <ele>1776.219</ele>
        <time>2022-02-20T12:50:47Z</time>
      </trkpt>
      <trkpt lat="42.74249" lon="1.61472">
        <ele>1775.828</ele>
        <time>2022-02-20T12:50:49Z</time>
      </trkpt>
      <trkpt lat="42.74248" lon="1.61471">
        <ele>1774.762</ele>
        <time>2022-02-20T12:50:51Z</time>
      </trkpt>
      <trkpt lat="42.74248" lon="1.61469">
        <ele>1774.319</ele>
        <time>2022-02-20T12:50:53Z</time>
      </trkpt>
      <trkpt lat="42.74247" lon="1.61467">
        <ele>1774.005</ele>
        <time>2022-02-20T12:50:55Z</time>
      </trkpt>
      <trkpt lat="42.74246" lon="1.61466">
        <ele>1773.635</ele>
        <time>2022-02-20T12:50:57Z</time>
      </trkpt>
      <trkpt lat="42.74245" lon="1.61465">
        <ele>1773.097</ele>
        <time>2022-02-20T12:50:59Z</time>
      </trkpt>
      <trkpt lat="42.74244" lon="1.61464">
        <ele>1772.73</ele>
        <time>2022-02-20T12:51:01Z</time>
      </trkpt>
      <trkpt lat="42.74243" lon="1.61462">
        <ele>1773.052</ele>
        <time>2022-02-20T12:51:03Z</time>
      </trkpt>
      <trkpt lat="42.74243" lon="1.6146">
        <ele>1772.961</ele>
        <time>2022-02-20T12:51:05Z</time>
      </trkpt>
      <trkpt lat="42.74242" lon="1.61457">
        <ele>1772.256</ele>
        <time>2022-02-20T12:51:07Z</time>
      </trkpt>
      <trkpt lat="42.74241" lon="1.61455">
        <ele>1771.972</ele>
        <time>2022-02-20T12:51:09Z</time>
      </trkpt>
      <trkpt lat="42.7424" lon="1.61453">
        <ele>1772.281</ele>
        <time>2022-02-20T12:51:11Z</time>
      </trkpt>
      <trkpt lat="42.7424" lon="1.61451">
        <ele>1771.649</ele>
        <time>2022-02-20T12:51:13Z</time>
      </trkpt>
      <trkpt lat="42.74239" lon="1.6145">
        <ele>1770.916</ele>
        <time>2022-02-20T12:51:15Z</time>
      </trkpt>
      <trkpt lat="42.74238" lon="1.61449">
        <ele>1770.979</ele>
        <time>2022-02-20T12:51:17Z</time>
      </trkpt>
      <trkpt lat="42.74238" lon="1.61447">
        <ele>1770.584</ele>
        <time>2022-02-20T12:51:19Z</time>
      </trkpt>
      <trkpt lat="42.74238" lon="1.61445">
        <ele>1769.738</ele>
        <time>2022-02-20T12:51:21Z</time>
      </trkpt>
      <trkpt lat="42.74239" lon="1.61442">
        <ele>1769.032</ele>
        <time>2022-02-20T12:51:23Z</time>
      </trkpt>
      <trkpt lat="42.7424" lon="1.6144">
        <ele>1768.637</ele>
        <time>2022-02-20T12:51:25Z</time>
      </trkpt>
      <trkpt lat="42.7424" lon="1.61439">
        <ele>1768.227</ele>
        <time>2022-02-20T12:51:27Z</time>
      </trkpt>
      <trkpt lat="42.7424" lon="1.61437">
        <ele>1768.328</ele>
        <time>2022-02-20T12:51:29Z</time>
      </trkpt>
      <trkpt lat="42.7424" lon="1.61436">
        <ele>1767.757</ele>
        <time>2022-02-20T12:51:31Z</time>
      </trkpt>
      <trkpt lat="42.7424" lon="1.61435">
        <ele>1767.955</ele>
        <time>2022-02-20T12:51:33Z</time>
      </trkpt>
      <trkpt lat="42.74241" lon="1.61433">
        <ele>1768.068</ele>
        <time>2022-02-20T12:51:35Z</time>
      </trkpt>
      <trkpt lat="42.74241" lon="1.61432">
        <ele>1766.725</ele>
        <time>2022-02-20T12:51:37Z</time>
      </trkpt>
      <trkpt lat="42.74241" lon="1.6143">
        <ele>1765.347</ele>
        <time>2022-02-20T12:51:39Z</time>
      </trkpt>
      <trkpt lat="42.74241" lon="1.61429">
        <ele>1764.861</ele>
        <time>2022-02-20T12:51:41Z</time>
      </trkpt>
      <trkpt lat="42.74242" lon="1.61427">
        <ele>1764.654</ele>
        <time>2022-02-20T12:51:43Z</time>
      </trkpt>
      <trkpt lat="42.74242" lon="1.61424">
        <ele>1764.347</ele>
        <time>2022-02-20T12:51:45Z</time>
      </trkpt>
      <trkpt lat="42.74242" lon="1.61422">
        <ele>1764.699</ele>
        <time>2022-02-20T12:51:47Z</time>
      </trkpt>
      <trkpt lat="42.74243" lon="1.6142">
        <ele>1764.219</ele>
        <time>2022-02-20T12:51:49Z</time>
      </trkpt>
      <trkpt lat="42.74243" lon="1.61418">
        <ele>1763.734</ele>
        <time>2022-02-20T12:51:51Z</time>
      </trkpt>
      <trkpt lat="42.74243" lon="1.61416">
        <ele>1763.045</ele>
        <time>2022-02-20T12:51:53Z</time>
      </trkpt>
      <trkpt lat="42.74243" lon="1.61415">
        <ele>1763.204</ele>
        <time>2022-02-20T12:51:55Z</time>
      </trkpt>
      <trkpt lat="42.74243" lon="1.61413">
        <ele>1763.171</ele>
        <time>2022-02-20T12:51:57Z</time>
      </trkpt>
      <trkpt lat="42.74243" lon="1.61413">
        <ele>1763.172</ele>
        <time>2022-02-20T12:51:59Z</time>
      </trkpt>
      <trkpt lat="42.74243" lon="1.61413">
        <ele>1763.165</ele>
        <time>2022-02-20T12:52:01Z</time>
      </trkpt>
      <trkpt lat="42.74243" lon="1.61413">
        <ele>1763.154</ele>
        <time>2022-02-20T12:52:03Z</time>
      </trkpt>
      <trkpt lat="42.74243" lon="1.61413">
        <ele>1763.156</ele>
        <time>2022-02-20T12:52:05Z</time>
      </trkpt>
      <trkpt lat="42.74243" lon="1.61413">
        <ele>1763.152</ele>
        <time>2022-02-20T12:52:07Z</time>
      </trkpt>
      <trkpt lat="42.74243" lon="1.61414">
        <ele>1762.246</ele>
        <time>2022-02-20T12:52:09Z</time>
      </trkpt>
      <trkpt lat="42.74246" lon="1.61416">
        <ele>1761.04</ele>
        <time>2022-02-20T12:52:11Z</time>
      </trkpt>
      <trkpt lat="42.74246" lon="1.61417">
        <ele>1760.788</ele>
        <time>2022-02-20T12:52:13Z</time>
      </trkpt>
      <trkpt lat="42.74246" lon="1.61417">
        <ele>1760.785</ele>
        <time>2022-02-20T12:52:15Z</time>
      </trkpt>
      <trkpt lat="42.74245" lon="1.61416">
        <ele>1761.26</ele>
        <time>2022-02-20T12:52:17Z</time>
      </trkpt>
      <trkpt lat="42.74245" lon="1.61416">
        <ele>1761.255</ele>
        <time>2022-02-20T12:52:19Z</time>
      </trkpt>
      <trkpt lat="42.74245" lon="1.61416">
        <ele>1761.246</ele>
        <time>2022-02-20T12:52:21Z</time>
      </trkpt>
      <trkpt lat="42.74245" lon="1.61416">
        <ele>1761.241</ele>
        <time>2022-02-20T12:52:23Z</time>
      </trkpt>
      <trkpt lat="42.74245" lon="1.61416">
        <ele>1761.237</ele>
        <time>2022-02-20T12:52:25Z</time>
      </trkpt>
      <trkpt lat="42.74245" lon="1.61416">
        <ele>1761.093</ele>
        <time>2022-02-20T12:52:27Z</time>
      </trkpt>
      <trkpt lat="42.74245" lon="1.61416">
        <ele>1761.081</ele>
        <time>2022-02-20T12:52:29Z</time>
      </trkpt>
      <trkpt lat="42.74245" lon="1.61416">
        <ele>1760.575</ele>
        <time>2022-02-20T12:52:31Z</time>
      </trkpt>
      <trkpt lat="42.74245" lon="1.61416">
        <ele>1760.575</ele>
        <time>2022-02-20T12:52:33Z</time>
      </trkpt>
      <trkpt lat="42.74245" lon="1.61416">
        <ele>1760.575</ele>
        <time>2022-02-20T12:52:35Z</time>
      </trkpt>
      <trkpt lat="42.74245" lon="1.61416">
        <ele>1760.569</ele>
        <time>2022-02-20T12:52:37Z</time>
      </trkpt>
      <trkpt lat="42.74245" lon="1.61416">
        <ele>1760.562</ele>
        <time>2022-02-20T12:52:39Z</time>
      </trkpt>
      <trkpt lat="42.74245" lon="1.61416">
        <ele>1760.549</ele>
        <time>2022-02-20T12:52:41Z</time>
      </trkpt>
      <trkpt lat="42.74245" lon="1.61416">
        <ele>1760.545</ele>
        <time>2022-02-20T12:52:43Z</time>
      </trkpt>
      <trkpt lat="42.74245" lon="1.61416">
        <ele>1760.537</ele>
        <time>2022-02-20T12:52:45Z</time>
      </trkpt>
      <trkpt lat="42.74245" lon="1.61415">
        <ele>1760.047</ele>
        <time>2022-02-20T12:52:47Z</time>
      </trkpt>
      <trkpt lat="42.74245" lon="1.61411">
        <ele>1759.95</ele>
        <time>2022-02-20T12:52:49Z</time>
      </trkpt>
      <trkpt lat="42.74245" lon="1.61408">
        <ele>1759.572</ele>
        <time>2022-02-20T12:52:51Z</time>
      </trkpt>
      <trkpt lat="42.74245" lon="1.61404">
        <ele>1759.358</ele>
        <time>2022-02-20T12:52:53Z</time>
      </trkpt>
      <trkpt lat="42.74244" lon="1.61402">
        <ele>1758.632</ele>
        <time>2022-02-20T12:52:55Z</time>
      </trkpt>
      <trkpt lat="42.74243" lon="1.61399">
        <ele>1758.834</ele>
        <time>2022-02-20T12:52:57Z</time>
      </trkpt>
      <trkpt lat="42.74241" lon="1.61398">
        <ele>1758.863</ele>
        <time>2022-02-20T12:52:59Z</time>
      </trkpt>
      <trkpt lat="42.7424" lon="1.61397">
        <ele>1758.308</ele>
        <time>2022-02-20T12:53:01Z</time>
      </trkpt>
      <trkpt lat="42.74239" lon="1.61395">
        <ele>1758.523</ele>
        <time>2022-02-20T12:53:03Z</time>
      </trkpt>
      <trkpt lat="42.74238" lon="1.61393">
        <ele>1757.788</ele>
        <time>2022-02-20T12:53:05Z</time>
      </trkpt>
      <trkpt lat="42.74239" lon="1.61392">
        <ele>1758.169</ele>
        <time>2022-02-20T12:53:07Z</time>
      </trkpt>
      <trkpt lat="42.74239" lon="1.61391">
        <ele>1757.146</ele>
        <time>2022-02-20T12:53:09Z</time>
      </trkpt>
      <trkpt lat="42.74239" lon="1.6139">
        <ele>1757.215</ele>
        <time>2022-02-20T12:53:11Z</time>
      </trkpt>
      <trkpt lat="42.7424" lon="1.61388">
        <ele>1756.621</ele>
        <time>2022-02-20T12:53:13Z</time>
      </trkpt>
      <trkpt lat="42.74241" lon="1.61386">
        <ele>1756.054</ele>
        <time>2022-02-20T12:53:15Z</time>
      </trkpt>
      <trkpt lat="42.74241" lon="1.61384">
        <ele>1755.152</ele>
        <time>2022-02-20T12:53:17Z</time>
      </trkpt>
      <trkpt lat="42.74242" lon="1.61383">
        <ele>1754.632</ele>
        <time>2022-02-20T12:53:19Z</time>
      </trkpt>
      <trkpt lat="42.74242" lon="1.61382">
        <ele>1754.106</ele>
        <time>2022-02-20T12:53:21Z</time>
      </trkpt>
      <trkpt lat="42.74242" lon="1.6138">
        <ele>1753.777</ele>
        <time>2022-02-20T12:53:23Z</time>
      </trkpt>
      <trkpt lat="42.74242" lon="1.61378">
        <ele>1753.603</ele>
        <time>2022-02-20T12:53:25Z</time>
      </trkpt>
      <trkpt lat="42.74243" lon="1.61377">
        <ele>1753.726</ele>
        <time>2022-02-20T12:53:27Z</time>
      </trkpt>
      <trkpt lat="42.74243" lon="1.61376">
        <ele>1752.665</ele>
        <time>2022-02-20T12:53:29Z</time>
      </trkpt>
      <trkpt lat="42.74244" lon="1.61374">
        <ele>1752.987</ele>
        <time>2022-02-20T12:53:31Z</time>
      </trkpt>
      <trkpt lat="42.74245" lon="1.61372">
        <ele>1752.566</ele>
        <time>2022-02-20T12:53:33Z</time>
      </trkpt>
      <trkpt lat="42.74245" lon="1.61371">
        <ele>1751.294</ele>
        <time>2022-02-20T12:53:35Z</time>
      </trkpt>
      <trkpt lat="42.74246" lon="1.6137">
        <ele>1751.204</ele>
        <time>2022-02-20T12:53:37Z</time>
      </trkpt>
      <trkpt lat="42.74246" lon="1.61368">
        <ele>1750.97</ele>
        <time>2022-02-20T12:53:39Z</time>
      </trkpt>
      <trkpt lat="42.74245" lon="1.61366">
        <ele>1749.405</ele>
        <time>2022-02-20T12:53:41Z</time>
      </trkpt>
      <trkpt lat="42.74245" lon="1.61364">
        <ele>1749.59</ele>
        <time>2022-02-20T12:53:43Z</time>
      </trkpt>
      <trkpt lat="42.74245" lon="1.61363">
        <ele>1750.976</ele>
        <time>2022-02-20T12:53:45Z</time>
      </trkpt>
      <trkpt lat="42.74245" lon="1.61363">
        <ele>1750.975</ele>
        <time>2022-02-20T12:53:47Z</time>
      </trkpt>
      <trkpt lat="42.74245" lon="1.61363">
        <ele>1750.975</ele>
        <time>2022-02-20T12:53:49Z</time>
      </trkpt>
      <trkpt lat="42.74245" lon="1.61363">
        <ele>1750.974</ele>
        <time>2022-02-20T12:53:51Z</time>
      </trkpt>
      <trkpt lat="42.74245" lon="1.61363">
        <ele>1750.964</ele>
        <time>2022-02-20T12:53:53Z</time>
      </trkpt>
      <trkpt lat="42.74245" lon="1.61363">
        <ele>1750.531</ele>
        <time>2022-02-20T12:53:55Z</time>
      </trkpt>
      <trkpt lat="42.74245" lon="1.61362">
        <ele>1749.372</ele>
        <time>2022-02-20T12:53:57Z</time>
      </trkpt>
      <trkpt lat="42.74245" lon="1.6136">
        <ele>1749.26</ele>
        <time>2022-02-20T12:53:59Z</time>
      </trkpt>
      <trkpt lat="42.74244" lon="1.61358">
        <ele>1749.458</ele>
        <time>2022-02-20T12:54:01Z</time>
      </trkpt>
      <trkpt lat="42.74245" lon="1.61357">
        <ele>1749.23</ele>
        <time>2022-02-20T12:54:03Z</time>
      </trkpt>
      <trkpt lat="42.74245" lon="1.61357">
        <ele>1749.236</ele>
        <time>2022-02-20T12:54:05Z</time>
      </trkpt>
      <trkpt lat="42.74245" lon="1.61357">
        <ele>1749.087</ele>
        <time>2022-02-20T12:54:07Z</time>
      </trkpt>
      <trkpt lat="42.74244" lon="1.61356">
        <ele>1748.465</ele>
        <time>2022-02-20T12:54:09Z</time>
      </trkpt>
      <trkpt lat="42.74243" lon="1.61354">
        <ele>1747.934</ele>
        <time>2022-02-20T12:54:11Z</time>
      </trkpt>
      <trkpt lat="42.74243" lon="1.61352">
        <ele>1747.339</ele>
        <time>2022-02-20T12:54:13Z</time>
      </trkpt>
      <trkpt lat="42.74243" lon="1.61351">
        <ele>1746.781</ele>
        <time>2022-02-20T12:54:15Z</time>
      </trkpt>
      <trkpt lat="42.74243" lon="1.61349">
        <ele>1746.651</ele>
        <time>2022-02-20T12:54:17Z</time>
      </trkpt>
      <trkpt lat="42.74243" lon="1.61347">
        <ele>1745.885</ele>
        <time>2022-02-20T12:54:19Z</time>
      </trkpt>
      <trkpt lat="42.74243" lon="1.61345">
        <ele>1744.746</ele>
        <time>2022-02-20T12:54:21Z</time>
      </trkpt>
      <trkpt lat="42.74243" lon="1.61343">
        <ele>1744.708</ele>
        <time>2022-02-20T12:54:23Z</time>
      </trkpt>
      <trkpt lat="42.74243" lon="1.61342">
        <ele>1743.97</ele>
        <time>2022-02-20T12:54:25Z</time>
      </trkpt>
      <trkpt lat="42.74244" lon="1.61341">
        <ele>1743.585</ele>
        <time>2022-02-20T12:54:27Z</time>
      </trkpt>
      <trkpt lat="42.74244" lon="1.61339">
        <ele>1742.472</ele>
        <time>2022-02-20T12:54:29Z</time>
      </trkpt>
      <trkpt lat="42.74245" lon="1.61338">
        <ele>1742.416</ele>
        <time>2022-02-20T12:54:31Z</time>
      </trkpt>
      <trkpt lat="42.74246" lon="1.61336">
        <ele>1742.884</ele>
        <time>2022-02-20T12:54:33Z</time>
      </trkpt>
      <trkpt lat="42.74247" lon="1.61335">
        <ele>1742.106</ele>
        <time>2022-02-20T12:54:35Z</time>
      </trkpt>
      <trkpt lat="42.74248" lon="1.61334">
        <ele>1741.355</ele>
        <time>2022-02-20T12:54:37Z</time>
      </trkpt>
      <trkpt lat="42.74249" lon="1.61333">
        <ele>1740.495</ele>
        <time>2022-02-20T12:54:39Z</time>
      </trkpt>
      <trkpt lat="42.7425" lon="1.61331">
        <ele>1740.745</ele>
        <time>2022-02-20T12:54:41Z</time>
      </trkpt>
      <trkpt lat="42.7425" lon="1.6133">
        <ele>1740.411</ele>
        <time>2022-02-20T12:54:43Z</time>
      </trkpt>
      <trkpt lat="42.7425" lon="1.61329">
        <ele>1740.721</ele>
        <time>2022-02-20T12:54:45Z</time>
      </trkpt>
      <trkpt lat="42.7425" lon="1.61326">
        <ele>1739.47</ele>
        <time>2022-02-20T12:54:47Z</time>
      </trkpt>
      <trkpt lat="42.74248" lon="1.61324">
        <ele>1739.68</ele>
        <time>2022-02-20T12:54:49Z</time>
      </trkpt>
      <trkpt lat="42.74247" lon="1.61322">
        <ele>1741.676</ele>
        <time>2022-02-20T12:54:51Z</time>
      </trkpt>
      <trkpt lat="42.74247" lon="1.6132">
        <ele>1742.166</ele>
        <time>2022-02-20T12:54:53Z</time>
      </trkpt>
      <trkpt lat="42.74247" lon="1.61319">
        <ele>1741.919</ele>
        <time>2022-02-20T12:54:55Z</time>
      </trkpt>
      <trkpt lat="42.74248" lon="1.61318">
        <ele>1742.108</ele>
        <time>2022-02-20T12:54:57Z</time>
      </trkpt>
      <trkpt lat="42.74248" lon="1.61318">
        <ele>1741.876</ele>
        <time>2022-02-20T12:54:59Z</time>
      </trkpt>
      <trkpt lat="42.74248" lon="1.61319">
        <ele>1741.866</ele>
        <time>2022-02-20T12:55:01Z</time>
      </trkpt>
      <trkpt lat="42.74248" lon="1.61319">
        <ele>1741.288</ele>
        <time>2022-02-20T12:55:03Z</time>
      </trkpt>
      <trkpt lat="42.74248" lon="1.61319">
        <ele>1741.295</ele>
        <time>2022-02-20T12:55:05Z</time>
      </trkpt>
      <trkpt lat="42.74248" lon="1.61319">
        <ele>1741.282</ele>
        <time>2022-02-20T12:55:07Z</time>
      </trkpt>
      <trkpt lat="42.74248" lon="1.61319">
        <ele>1741.277</ele>
        <time>2022-02-20T12:55:09Z</time>
      </trkpt>
      <trkpt lat="42.74248" lon="1.61319">
        <ele>1741.242</ele>
        <time>2022-02-20T12:55:11Z</time>
      </trkpt>
      <trkpt lat="42.74248" lon="1.61319">
        <ele>1741.235</ele>
        <time>2022-02-20T12:55:13Z</time>
      </trkpt>
      <trkpt lat="42.74248" lon="1.61319">
        <ele>1741.249</ele>
        <time>2022-02-20T12:55:15Z</time>
      </trkpt>
      <trkpt lat="42.74247" lon="1.61319">
        <ele>1741.232</ele>
        <time>2022-02-20T12:55:17Z</time>
      </trkpt>
      <trkpt lat="42.74247" lon="1.61321">
        <ele>1740.261</ele>
        <time>2022-02-20T12:55:19Z</time>
      </trkpt>
      <trkpt lat="42.74247" lon="1.61321">
        <ele>1740.267</ele>
        <time>2022-02-20T12:55:21Z</time>
      </trkpt>
      <trkpt lat="42.74247" lon="1.61321">
        <ele>1739.824</ele>
        <time>2022-02-20T12:55:23Z</time>
      </trkpt>
      <trkpt lat="42.74247" lon="1.61322">
        <ele>1739.821</ele>
        <time>2022-02-20T12:55:25Z</time>
      </trkpt>
      <trkpt lat="42.74247" lon="1.61322">
        <ele>1739.821</ele>
        <time>2022-02-20T12:55:27Z</time>
      </trkpt>
      <trkpt lat="42.74247" lon="1.61322">
        <ele>1739.819</ele>
        <time>2022-02-20T12:55:29Z</time>
      </trkpt>
      <trkpt lat="42.74247" lon="1.61322">
        <ele>1739.764</ele>
        <time>2022-02-20T12:55:31Z</time>
      </trkpt>
      <trkpt lat="42.74247" lon="1.61323">
        <ele>1739.564</ele>
        <time>2022-02-20T12:55:33Z</time>
      </trkpt>
      <trkpt lat="42.74246" lon="1.61323">
        <ele>1739.57</ele>
        <time>2022-02-20T12:55:35Z</time>
      </trkpt>
      <trkpt lat="42.74246" lon="1.61323">
        <ele>1739.557</ele>
        <time>2022-02-20T12:55:37Z</time>
      </trkpt>
      <trkpt lat="42.74246" lon="1.61323">
        <ele>1739.556</ele>
        <time>2022-02-20T12:55:39Z</time>
      </trkpt>
      <trkpt lat="42.74246" lon="1.61323">
        <ele>1739.548</ele>
        <time>2022-02-20T12:55:41Z</time>
      </trkpt>
      <trkpt lat="42.74246" lon="1.61323">
        <ele>1739.546</ele>
        <time>2022-02-20T12:55:43Z</time>
      </trkpt>
      <trkpt lat="42.74246" lon="1.61323">
        <ele>1739.543</ele>
        <time>2022-02-20T12:55:45Z</time>
      </trkpt>
      <trkpt lat="42.74246" lon="1.61323">
        <ele>1739.544</ele>
        <time>2022-02-20T12:55:47Z</time>
      </trkpt>
      <trkpt lat="42.74246" lon="1.61323">
        <ele>1739.546</ele>
        <time>2022-02-20T12:55:49Z</time>
      </trkpt>
      <trkpt lat="42.74246" lon="1.61323">
        <ele>1739.544</ele>
        <time>2022-02-20T12:55:51Z</time>
      </trkpt>
      <trkpt lat="42.74246" lon="1.61323">
        <ele>1739.544</ele>
        <time>2022-02-20T12:55:53Z</time>
      </trkpt>
      <trkpt lat="42.74246" lon="1.61323">
        <ele>1739.544</ele>
        <time>2022-02-20T12:55:55Z</time>
      </trkpt>
      <trkpt lat="42.74246" lon="1.61323">
        <ele>1739.542</ele>
        <time>2022-02-20T12:55:57Z</time>
      </trkpt>
      <trkpt lat="42.74246" lon="1.61323">
        <ele>1739.544</ele>
        <time>2022-02-20T12:55:59Z</time>
      </trkpt>
      <trkpt lat="42.74246" lon="1.61322">
        <ele>1739.059</ele>
        <time>2022-02-20T12:56:01Z</time>
      </trkpt>
      <trkpt lat="42.74246" lon="1.6132">
        <ele>1739.052</ele>
        <time>2022-02-20T12:56:03Z</time>
      </trkpt>
      <trkpt lat="42.74247" lon="1.61318">
        <ele>1739.075</ele>
        <time>2022-02-20T12:56:05Z</time>
      </trkpt>
      <trkpt lat="42.74247" lon="1.61316">
        <ele>1739.492</ele>
        <time>2022-02-20T12:56:07Z</time>
      </trkpt>
      <trkpt lat="42.74249" lon="1.61315">
        <ele>1738.714</ele>
        <time>2022-02-20T12:56:09Z</time>
      </trkpt>
      <trkpt lat="42.7425" lon="1.61314">
        <ele>1738.04</ele>
        <time>2022-02-20T12:56:11Z</time>
      </trkpt>
      <trkpt lat="42.74251" lon="1.61313">
        <ele>1737.796</ele>
        <time>2022-02-20T12:56:13Z</time>
      </trkpt>
      <trkpt lat="42.74252" lon="1.61311">
        <ele>1736.311</ele>
        <time>2022-02-20T12:56:15Z</time>
      </trkpt>
      <trkpt lat="42.74252" lon="1.6131">
        <ele>1735.854</ele>
        <time>2022-02-20T12:56:17Z</time>
      </trkpt>
      <trkpt lat="42.74252" lon="1.61308">
        <ele>1736.098</ele>
        <time>2022-02-20T12:56:19Z</time>
      </trkpt>
      <trkpt lat="42.74252" lon="1.61306">
        <ele>1735.681</ele>
        <time>2022-02-20T12:56:21Z</time>
      </trkpt>
      <trkpt lat="42.74252" lon="1.61305">
        <ele>1735.367</ele>
        <time>2022-02-20T12:56:23Z</time>
      </trkpt>
      <trkpt lat="42.74252" lon="1.61303">
        <ele>1735.047</ele>
        <time>2022-02-20T12:56:25Z</time>
      </trkpt>
      <trkpt lat="42.74252" lon="1.61301">
        <ele>1735.385</ele>
        <time>2022-02-20T12:56:27Z</time>
      </trkpt>
      <trkpt lat="42.74253" lon="1.61299">
        <ele>1735.136</ele>
        <time>2022-02-20T12:56:29Z</time>
      </trkpt>
      <trkpt lat="42.74254" lon="1.61296">
        <ele>1735.157</ele>
        <time>2022-02-20T12:56:31Z</time>
      </trkpt>
      <trkpt lat="42.74255" lon="1.61295">
        <ele>1735.247</ele>
        <time>2022-02-20T12:56:33Z</time>
      </trkpt>
      <trkpt lat="42.74255" lon="1.61293">
        <ele>1733.945</ele>
        <time>2022-02-20T12:56:35Z</time>
      </trkpt>
      <trkpt lat="42.74255" lon="1.61291">
        <ele>1733.82</ele>
        <time>2022-02-20T12:56:37Z</time>
      </trkpt>
      <trkpt lat="42.74255" lon="1.6129">
        <ele>1733.523</ele>
        <time>2022-02-20T12:56:39Z</time>
      </trkpt>
      <trkpt lat="42.74255" lon="1.61288">
        <ele>1732.915</ele>
        <time>2022-02-20T12:56:41Z</time>
      </trkpt>
      <trkpt lat="42.74255" lon="1.61287">
        <ele>1732.933</ele>
        <time>2022-02-20T12:56:43Z</time>
      </trkpt>
      <trkpt lat="42.74255" lon="1.61285">
        <ele>1732.938</ele>
        <time>2022-02-20T12:56:45Z</time>
      </trkpt>
      <trkpt lat="42.74255" lon="1.61284">
        <ele>1731.936</ele>
        <time>2022-02-20T12:56:47Z</time>
      </trkpt>
      <trkpt lat="42.74256" lon="1.61283">
        <ele>1731.401</ele>
        <time>2022-02-20T12:56:49Z</time>
      </trkpt>
      <trkpt lat="42.74257" lon="1.61284">
        <ele>1729.72</ele>
        <time>2022-02-20T12:56:51Z</time>
      </trkpt>
      <trkpt lat="42.74258" lon="1.61283">
        <ele>1728.957</ele>
        <time>2022-02-20T12:56:53Z</time>
      </trkpt>
      <trkpt lat="42.74259" lon="1.61282">
        <ele>1728.936</ele>
        <time>2022-02-20T12:56:55Z</time>
      </trkpt>
      <trkpt lat="42.74258" lon="1.6128">
        <ele>1728.69</ele>
        <time>2022-02-20T12:56:57Z</time>
      </trkpt>
      <trkpt lat="42.74257" lon="1.61279">
        <ele>1728.779</ele>
        <time>2022-02-20T12:56:59Z</time>
      </trkpt>
      <trkpt lat="42.74256" lon="1.61278">
        <ele>1729.035</ele>
        <time>2022-02-20T12:57:01Z</time>
      </trkpt>
      <trkpt lat="42.74256" lon="1.61275">
        <ele>1729.535</ele>
        <time>2022-02-20T12:57:03Z</time>
      </trkpt>
      <trkpt lat="42.74256" lon="1.61273">
        <ele>1730.279</ele>
        <time>2022-02-20T12:57:05Z</time>
      </trkpt>
      <trkpt lat="42.74255" lon="1.61271">
        <ele>1730.282</ele>
        <time>2022-02-20T12:57:07Z</time>
      </trkpt>
      <trkpt lat="42.74255" lon="1.61268">
        <ele>1730.633</ele>
        <time>2022-02-20T12:57:09Z</time>
      </trkpt>
      <trkpt lat="42.74253" lon="1.61267">
        <ele>1730.132</ele>
        <time>2022-02-20T12:57:11Z</time>
      </trkpt>
      <trkpt lat="42.74253" lon="1.61265">
        <ele>1729.54</ele>
        <time>2022-02-20T12:57:13Z</time>
      </trkpt>
      <trkpt lat="42.74254" lon="1.61263">
        <ele>1728.793</ele>
        <time>2022-02-20T12:57:15Z</time>
      </trkpt>
      <trkpt lat="42.74256" lon="1.61262">
        <ele>1729.349</ele>
        <time>2022-02-20T12:57:17Z</time>
      </trkpt>
      <trkpt lat="42.74256" lon="1.61262">
        <ele>1729.193</ele>
        <time>2022-02-20T12:57:19Z</time>
      </trkpt>
      <trkpt lat="42.74256" lon="1.61262">
        <ele>1729.181</ele>
        <time>2022-02-20T12:57:21Z</time>
      </trkpt>
      <trkpt lat="42.74256" lon="1.61261">
        <ele>1728.08</ele>
        <time>2022-02-20T12:57:23Z</time>
      </trkpt>
      <trkpt lat="42.74257" lon="1.61259">
        <ele>1728.327</ele>
        <time>2022-02-20T12:57:25Z</time>
      </trkpt>
      <trkpt lat="42.74258" lon="1.61259">
        <ele>1728.382</ele>
        <time>2022-02-20T12:57:27Z</time>
      </trkpt>
      <trkpt lat="42.74258" lon="1.61259">
        <ele>1728.377</ele>
        <time>2022-02-20T12:57:29Z</time>
      </trkpt>
      <trkpt lat="42.74259" lon="1.61259">
        <ele>1727.544</ele>
        <time>2022-02-20T12:57:31Z</time>
      </trkpt>
      <trkpt lat="42.74259" lon="1.61257">
        <ele>1727.147</ele>
        <time>2022-02-20T12:57:33Z</time>
      </trkpt>
      <trkpt lat="42.7426" lon="1.61256">
        <ele>1726.986</ele>
        <time>2022-02-20T12:57:35Z</time>
      </trkpt>
      <trkpt lat="42.74261" lon="1.61254">
        <ele>1726.254</ele>
        <time>2022-02-20T12:57:37Z</time>
      </trkpt>
      <trkpt lat="42.74261" lon="1.61254">
        <ele>1726.115</ele>
        <time>2022-02-20T12:57:39Z</time>
      </trkpt>
      <trkpt lat="42.74261" lon="1.61254">
        <ele>1726.118</ele>
        <time>2022-02-20T12:57:41Z</time>
      </trkpt>
      <trkpt lat="42.74261" lon="1.61254">
        <ele>1726.104</ele>
        <time>2022-02-20T12:57:43Z</time>
      </trkpt>
      <trkpt lat="42.74261" lon="1.61254">
        <ele>1726.1</ele>
        <time>2022-02-20T12:57:45Z</time>
      </trkpt>
      <trkpt lat="42.74261" lon="1.61254">
        <ele>1726.082</ele>
        <time>2022-02-20T12:57:47Z</time>
      </trkpt>
      <trkpt lat="42.74261" lon="1.61254">
        <ele>1726.084</ele>
        <time>2022-02-20T12:57:49Z</time>
      </trkpt>
      <trkpt lat="42.74261" lon="1.61254">
        <ele>1726.075</ele>
        <time>2022-02-20T12:57:51Z</time>
      </trkpt>
      <trkpt lat="42.74261" lon="1.61254">
        <ele>1726.084</ele>
        <time>2022-02-20T12:57:53Z</time>
      </trkpt>
      <trkpt lat="42.74261" lon="1.61254">
        <ele>1726.085</ele>
        <time>2022-02-20T12:57:55Z</time>
      </trkpt>
      <trkpt lat="42.74261" lon="1.61254">
        <ele>1726.07</ele>
        <time>2022-02-20T12:57:57Z</time>
      </trkpt>
      <trkpt lat="42.74261" lon="1.61254">
        <ele>1726.065</ele>
        <time>2022-02-20T12:57:59Z</time>
      </trkpt>
      <trkpt lat="42.74261" lon="1.61254">
        <ele>1726.057</ele>
        <time>2022-02-20T12:58:01Z</time>
      </trkpt>
      <trkpt lat="42.74261" lon="1.61254">
        <ele>1726.054</ele>
        <time>2022-02-20T12:58:03Z</time>
      </trkpt>
      <trkpt lat="42.74261" lon="1.61254">
        <ele>1726.053</ele>
        <time>2022-02-20T12:58:05Z</time>
      </trkpt>
      <trkpt lat="42.74261" lon="1.61254">
        <ele>1726.044</ele>
        <time>2022-02-20T12:58:07Z</time>
      </trkpt>
      <trkpt lat="42.74261" lon="1.61254">
        <ele>1726.036</ele>
        <time>2022-02-20T12:58:09Z</time>
      </trkpt>
      <trkpt lat="42.74261" lon="1.61254">
        <ele>1726.015</ele>
        <time>2022-02-20T12:58:11Z</time>
      </trkpt>
      <trkpt lat="42.74261" lon="1.61254">
        <ele>1726</ele>
        <time>2022-02-20T12:58:13Z</time>
      </trkpt>
      <trkpt lat="42.74261" lon="1.61254">
        <ele>1725.988</ele>
        <time>2022-02-20T12:58:15Z</time>
      </trkpt>
      <trkpt lat="42.74261" lon="1.61254">
        <ele>1725.984</ele>
        <time>2022-02-20T12:58:17Z</time>
      </trkpt>
      <trkpt lat="42.74261" lon="1.61254">
        <ele>1725.988</ele>
        <time>2022-02-20T12:58:19Z</time>
      </trkpt>
      <trkpt lat="42.74261" lon="1.61254">
        <ele>1725.985</ele>
        <time>2022-02-20T12:58:21Z</time>
      </trkpt>
      <trkpt lat="42.74261" lon="1.61254">
        <ele>1725.984</ele>
        <time>2022-02-20T12:58:23Z</time>
      </trkpt>
      <trkpt lat="42.74261" lon="1.61254">
        <ele>1725.969</ele>
        <time>2022-02-20T12:58:25Z</time>
      </trkpt>
      <trkpt lat="42.74261" lon="1.61254">
        <ele>1725.951</ele>
        <time>2022-02-20T12:58:27Z</time>
      </trkpt>
      <trkpt lat="42.74261" lon="1.61254">
        <ele>1725.931</ele>
        <time>2022-02-20T12:58:29Z</time>
      </trkpt>
      <trkpt lat="42.74261" lon="1.61254">
        <ele>1725.914</ele>
        <time>2022-02-20T12:58:31Z</time>
      </trkpt>
      <trkpt lat="42.74261" lon="1.61254">
        <ele>1725.9</ele>
        <time>2022-02-20T12:58:33Z</time>
      </trkpt>
      <trkpt lat="42.74261" lon="1.61254">
        <ele>1725.887</ele>
        <time>2022-02-20T12:58:35Z</time>
      </trkpt>
      <trkpt lat="42.74261" lon="1.61254">
        <ele>1725.875</ele>
        <time>2022-02-20T12:58:37Z</time>
      </trkpt>
      <trkpt lat="42.74261" lon="1.61254">
        <ele>1725.873</ele>
        <time>2022-02-20T12:58:39Z</time>
      </trkpt>
      <trkpt lat="42.74261" lon="1.61254">
        <ele>1725.86</ele>
        <time>2022-02-20T12:58:41Z</time>
      </trkpt>
      <trkpt lat="42.74262" lon="1.61254">
        <ele>1725.445</ele>
        <time>2022-02-20T12:58:43Z</time>
      </trkpt>
      <trkpt lat="42.74262" lon="1.61254">
        <ele>1724.61</ele>
        <time>2022-02-20T12:58:45Z</time>
      </trkpt>
      <trkpt lat="42.74263" lon="1.61255">
        <ele>1724.582</ele>
        <time>2022-02-20T12:58:47Z</time>
      </trkpt>
      <trkpt lat="42.74262" lon="1.61255">
        <ele>1724.248</ele>
        <time>2022-02-20T12:58:49Z</time>
      </trkpt>
      <trkpt lat="42.74262" lon="1.61255">
        <ele>1724.243</ele>
        <time>2022-02-20T12:58:51Z</time>
      </trkpt>
      <trkpt lat="42.74263" lon="1.61255">
        <ele>1723.289</ele>
        <time>2022-02-20T12:58:53Z</time>
      </trkpt>
      <trkpt lat="42.74264" lon="1.61255">
        <ele>1722.91</ele>
        <time>2022-02-20T12:58:55Z</time>
      </trkpt>
      <trkpt lat="42.74265" lon="1.61255">
        <ele>1722.243</ele>
        <time>2022-02-20T12:58:57Z</time>
      </trkpt>
      <trkpt lat="42.74265" lon="1.61254">
        <ele>1720.732</ele>
        <time>2022-02-20T12:58:59Z</time>
      </trkpt>
      <trkpt lat="42.74263" lon="1.61254">
        <ele>1720.149</ele>
        <time>2022-02-20T12:59:01Z</time>
      </trkpt>
      <trkpt lat="42.74262" lon="1.61254">
        <ele>1719.357</ele>
        <time>2022-02-20T12:59:03Z</time>
      </trkpt>
      <trkpt lat="42.74261" lon="1.61253">
        <ele>1719.003</ele>
        <time>2022-02-20T12:59:05Z</time>
      </trkpt>
      <trkpt lat="42.7426" lon="1.61253">
        <ele>1718.892</ele>
        <time>2022-02-20T12:59:07Z</time>
      </trkpt>
      <trkpt lat="42.7426" lon="1.61253">
        <ele>1718.884</ele>
        <time>2022-02-20T12:59:09Z</time>
      </trkpt>
      <trkpt lat="42.74259" lon="1.61253">
        <ele>1719.216</ele>
        <time>2022-02-20T12:59:11Z</time>
      </trkpt>
      <trkpt lat="42.74259" lon="1.61252">
        <ele>1718.782</ele>
        <time>2022-02-20T12:59:13Z</time>
      </trkpt>
      <trkpt lat="42.74258" lon="1.61252">
        <ele>1718.088</ele>
        <time>2022-02-20T12:59:15Z</time>
      </trkpt>
      <trkpt lat="42.74258" lon="1.61251">
        <ele>1718.065</ele>
        <time>2022-02-20T12:59:17Z</time>
      </trkpt>
      <trkpt lat="42.74258" lon="1.61252">
        <ele>1718.048</ele>
        <time>2022-02-20T12:59:19Z</time>
      </trkpt>
      <trkpt lat="42.74257" lon="1.61252">
        <ele>1718.043</ele>
        <time>2022-02-20T12:59:21Z</time>
      </trkpt>
      <trkpt lat="42.74258" lon="1.61251">
        <ele>1717.212</ele>
        <time>2022-02-20T12:59:23Z</time>
      </trkpt>
      <trkpt lat="42.74258" lon="1.6125">
        <ele>1716.525</ele>
        <time>2022-02-20T12:59:25Z</time>
      </trkpt>
      <trkpt lat="42.74258" lon="1.6125">
        <ele>1716.502</ele>
        <time>2022-02-20T12:59:27Z</time>
      </trkpt>
      <trkpt lat="42.74259" lon="1.61249">
        <ele>1716.597</ele>
        <time>2022-02-20T12:59:29Z</time>
      </trkpt>
      <trkpt lat="42.7426" lon="1.61247">
        <ele>1716.376</ele>
        <time>2022-02-20T12:59:31Z</time>
      </trkpt>
      <trkpt lat="42.74261" lon="1.61246">
        <ele>1715.442</ele>
        <time>2022-02-20T12:59:33Z</time>
      </trkpt>
      <trkpt lat="42.74261" lon="1.61246">
        <ele>1715.374</ele>
        <time>2022-02-20T12:59:35Z</time>
      </trkpt>
      <trkpt lat="42.74262" lon="1.61244">
        <ele>1715.423</ele>
        <time>2022-02-20T12:59:37Z</time>
      </trkpt>
      <trkpt lat="42.74263" lon="1.61243">
        <ele>1715.702</ele>
        <time>2022-02-20T12:59:39Z</time>
      </trkpt>
      <trkpt lat="42.74263" lon="1.61243">
        <ele>1714.828</ele>
        <time>2022-02-20T12:59:41Z</time>
      </trkpt>
      <trkpt lat="42.74264" lon="1.61242">
        <ele>1714.229</ele>
        <time>2022-02-20T12:59:43Z</time>
      </trkpt>
      <trkpt lat="42.74265" lon="1.61241">
        <ele>1714.235</ele>
        <time>2022-02-20T12:59:45Z</time>
      </trkpt>
      <trkpt lat="42.74265" lon="1.6124">
        <ele>1713.837</ele>
        <time>2022-02-20T12:59:47Z</time>
      </trkpt>
      <trkpt lat="42.74265" lon="1.61239">
        <ele>1713.964</ele>
        <time>2022-02-20T12:59:49Z</time>
      </trkpt>
      <trkpt lat="42.74264" lon="1.61238">
        <ele>1713.267</ele>
        <time>2022-02-20T12:59:51Z</time>
      </trkpt>
      <trkpt lat="42.74264" lon="1.61237">
        <ele>1712.458</ele>
        <time>2022-02-20T12:59:53Z</time>
      </trkpt>
      <trkpt lat="42.74264" lon="1.61236">
        <ele>1711.56</ele>
        <time>2022-02-20T12:59:55Z</time>
      </trkpt>
      <trkpt lat="42.74264" lon="1.61235">
        <ele>1711.961</ele>
        <time>2022-02-20T12:59:57Z</time>
      </trkpt>
      <trkpt lat="42.74264" lon="1.61235">
        <ele>1711.934</ele>
        <time>2022-02-20T12:59:59Z</time>
      </trkpt>
      <trkpt lat="42.74264" lon="1.61235">
        <ele>1711.922</ele>
        <time>2022-02-20T13:00:01Z</time>
      </trkpt>
      <trkpt lat="42.74264" lon="1.61234">
        <ele>1711.432</ele>
        <time>2022-02-20T13:00:03Z</time>
      </trkpt>
      <trkpt lat="42.74264" lon="1.61234">
        <ele>1710.554</ele>
        <time>2022-02-20T13:00:05Z</time>
      </trkpt>
      <trkpt lat="42.74265" lon="1.61233">
        <ele>1709.977</ele>
        <time>2022-02-20T13:00:07Z</time>
      </trkpt>
      <trkpt lat="42.74265" lon="1.61232">
        <ele>1709.444</ele>
        <time>2022-02-20T13:00:09Z</time>
      </trkpt>
      <trkpt lat="42.74265" lon="1.61231">
        <ele>1708.794</ele>
        <time>2022-02-20T13:00:11Z</time>
      </trkpt>
      <trkpt lat="42.74265" lon="1.61229">
        <ele>1707.666</ele>
        <time>2022-02-20T13:00:13Z</time>
      </trkpt>
      <trkpt lat="42.74266" lon="1.61227">
        <ele>1707.333</ele>
        <time>2022-02-20T13:00:15Z</time>
      </trkpt>
      <trkpt lat="42.74266" lon="1.61227">
        <ele>1706.669</ele>
        <time>2022-02-20T13:00:17Z</time>
      </trkpt>
      <trkpt lat="42.74267" lon="1.61225">
        <ele>1706.274</ele>
        <time>2022-02-20T13:00:19Z</time>
      </trkpt>
      <trkpt lat="42.74268" lon="1.61225">
        <ele>1705.083</ele>
        <time>2022-02-20T13:00:21Z</time>
      </trkpt>
      <trkpt lat="42.74268" lon="1.61224">
        <ele>1703.784</ele>
        <time>2022-02-20T13:00:23Z</time>
      </trkpt>
      <trkpt lat="42.74269" lon="1.61223">
        <ele>1702.54</ele>
        <time>2022-02-20T13:00:25Z</time>
      </trkpt>
      <trkpt lat="42.7427" lon="1.61222">
        <ele>1701.957</ele>
        <time>2022-02-20T13:00:27Z</time>
      </trkpt>
      <trkpt lat="42.74271" lon="1.61222">
        <ele>1701.735</ele>
        <time>2022-02-20T13:00:29Z</time>
      </trkpt>
      <trkpt lat="42.74273" lon="1.6122">
        <ele>1701.708</ele>
        <time>2022-02-20T13:00:31Z</time>
      </trkpt>
      <trkpt lat="42.74274" lon="1.61218">
        <ele>1701.088</ele>
        <time>2022-02-20T13:00:33Z</time>
      </trkpt>
      <trkpt lat="42.74274" lon="1.61216">
        <ele>1701.287</ele>
        <time>2022-02-20T13:00:35Z</time>
      </trkpt>
      <trkpt lat="42.74274" lon="1.61216">
        <ele>1700.17</ele>
        <time>2022-02-20T13:00:37Z</time>
      </trkpt>
      <trkpt lat="42.74275" lon="1.61215">
        <ele>1699.337</ele>
        <time>2022-02-20T13:00:39Z</time>
      </trkpt>
      <trkpt lat="42.74274" lon="1.61214">
        <ele>1699.205</ele>
        <time>2022-02-20T13:00:41Z</time>
      </trkpt>
      <trkpt lat="42.74273" lon="1.61213">
        <ele>1698.253</ele>
        <time>2022-02-20T13:00:43Z</time>
      </trkpt>
      <trkpt lat="42.74274" lon="1.61213">
        <ele>1697.578</ele>
        <time>2022-02-20T13:00:45Z</time>
      </trkpt>
      <trkpt lat="42.74274" lon="1.61212">
        <ele>1697.665</ele>
        <time>2022-02-20T13:00:47Z</time>
      </trkpt>
      <trkpt lat="42.74274" lon="1.61211">
        <ele>1697.48</ele>
        <time>2022-02-20T13:00:49Z</time>
      </trkpt>
      <trkpt lat="42.74275" lon="1.6121">
        <ele>1697.332</ele>
        <time>2022-02-20T13:00:51Z</time>
      </trkpt>
      <trkpt lat="42.74276" lon="1.61209">
        <ele>1697.627</ele>
        <time>2022-02-20T13:00:53Z</time>
      </trkpt>
      <trkpt lat="42.74277" lon="1.61208">
        <ele>1697.797</ele>
        <time>2022-02-20T13:00:55Z</time>
      </trkpt>
      <trkpt lat="42.74277" lon="1.61206">
        <ele>1698.319</ele>
        <time>2022-02-20T13:00:57Z</time>
      </trkpt>
      <trkpt lat="42.74277" lon="1.61205">
        <ele>1698.55</ele>
        <time>2022-02-20T13:00:59Z</time>
      </trkpt>
      <trkpt lat="42.74277" lon="1.61203">
        <ele>1698.388</ele>
        <time>2022-02-20T13:01:01Z</time>
      </trkpt>
      <trkpt lat="42.74276" lon="1.61203">
        <ele>1698.144</ele>
        <time>2022-02-20T13:01:03Z</time>
      </trkpt>
      <trkpt lat="42.74275" lon="1.61202">
        <ele>1697.674</ele>
        <time>2022-02-20T13:01:05Z</time>
      </trkpt>
      <trkpt lat="42.74275" lon="1.61201">
        <ele>1697.539</ele>
        <time>2022-02-20T13:01:07Z</time>
      </trkpt>
      <trkpt lat="42.74274" lon="1.61199">
        <ele>1698.495</ele>
        <time>2022-02-20T13:01:09Z</time>
      </trkpt>
      <trkpt lat="42.74274" lon="1.61199">
        <ele>1697.848</ele>
        <time>2022-02-20T13:01:11Z</time>
      </trkpt>
      <trkpt lat="42.74275" lon="1.61198">
        <ele>1697.679</ele>
        <time>2022-02-20T13:01:13Z</time>
      </trkpt>
      <trkpt lat="42.74275" lon="1.61197">
        <ele>1697.409</ele>
        <time>2022-02-20T13:01:15Z</time>
      </trkpt>
      <trkpt lat="42.74275" lon="1.61195">
        <ele>1696.299</ele>
        <time>2022-02-20T13:01:17Z</time>
      </trkpt>
      <trkpt lat="42.74276" lon="1.61195">
        <ele>1695.277</ele>
        <time>2022-02-20T13:01:19Z</time>
      </trkpt>
      <trkpt lat="42.74276" lon="1.61195">
        <ele>1695.257</ele>
        <time>2022-02-20T13:01:21Z</time>
      </trkpt>
      <trkpt lat="42.74276" lon="1.61193">
        <ele>1695.062</ele>
        <time>2022-02-20T13:01:23Z</time>
      </trkpt>
      <trkpt lat="42.74276" lon="1.61192">
        <ele>1695.218</ele>
        <time>2022-02-20T13:01:25Z</time>
      </trkpt>
      <trkpt lat="42.74275" lon="1.61191">
        <ele>1694.546</ele>
        <time>2022-02-20T13:01:27Z</time>
      </trkpt>
      <trkpt lat="42.74275" lon="1.6119">
        <ele>1693.988</ele>
        <time>2022-02-20T13:01:29Z</time>
      </trkpt>
      <trkpt lat="42.74276" lon="1.61189">
        <ele>1692.457</ele>
        <time>2022-02-20T13:01:31Z</time>
      </trkpt>
      <trkpt lat="42.74277" lon="1.61188">
        <ele>1691.72</ele>
        <time>2022-02-20T13:01:33Z</time>
      </trkpt>
      <trkpt lat="42.74277" lon="1.61187">
        <ele>1691.477</ele>
        <time>2022-02-20T13:01:35Z</time>
      </trkpt>
      <trkpt lat="42.74277" lon="1.61186">
        <ele>1691.324</ele>
        <time>2022-02-20T13:01:37Z</time>
      </trkpt>
      <trkpt lat="42.74277" lon="1.61185">
        <ele>1691.618</ele>
        <time>2022-02-20T13:01:39Z</time>
      </trkpt>
      <trkpt lat="42.74275" lon="1.61186">
        <ele>1691.421</ele>
        <time>2022-02-20T13:01:41Z</time>
      </trkpt>
      <trkpt lat="42.74275" lon="1.61186">
        <ele>1691.058</ele>
        <time>2022-02-20T13:01:43Z</time>
      </trkpt>
      <trkpt lat="42.74275" lon="1.61186">
        <ele>1690.601</ele>
        <time>2022-02-20T13:01:45Z</time>
      </trkpt>
      <trkpt lat="42.74275" lon="1.61186">
        <ele>1690.062</ele>
        <time>2022-02-20T13:01:47Z</time>
      </trkpt>
      <trkpt lat="42.74274" lon="1.61185">
        <ele>1689.809</ele>
        <time>2022-02-20T13:01:49Z</time>
      </trkpt>
      <trkpt lat="42.74273" lon="1.61185">
        <ele>1689.803</ele>
        <time>2022-02-20T13:01:51Z</time>
      </trkpt>
      <trkpt lat="42.74273" lon="1.61181">
        <ele>1690.705</ele>
        <time>2022-02-20T13:01:53Z</time>
      </trkpt>
      <trkpt lat="42.74272" lon="1.61181">
        <ele>1690.704</ele>
        <time>2022-02-20T13:01:55Z</time>
      </trkpt>
      <trkpt lat="42.74272" lon="1.61181">
        <ele>1690.7</ele>
        <time>2022-02-20T13:01:57Z</time>
      </trkpt>
      <trkpt lat="42.74272" lon="1.6118">
        <ele>1690.683</ele>
        <time>2022-02-20T13:01:59Z</time>
      </trkpt>
      <trkpt lat="42.74273" lon="1.61177">
        <ele>1691.698</ele>
        <time>2022-02-20T13:02:01Z</time>
      </trkpt>
      <trkpt lat="42.74274" lon="1.61176">
        <ele>1691.86</ele>
        <time>2022-02-20T13:02:03Z</time>
      </trkpt>
      <trkpt lat="42.74274" lon="1.61176">
        <ele>1691.871</ele>
        <time>2022-02-20T13:02:05Z</time>
      </trkpt>
      <trkpt lat="42.74274" lon="1.61176">
        <ele>1691.88</ele>
        <time>2022-02-20T13:02:07Z</time>
      </trkpt>
      <trkpt lat="42.74274" lon="1.61176">
        <ele>1691.885</ele>
        <time>2022-02-20T13:02:09Z</time>
      </trkpt>
      <trkpt lat="42.74275" lon="1.61176">
        <ele>1691.895</ele>
        <time>2022-02-20T13:02:11Z</time>
      </trkpt>
      <trkpt lat="42.74275" lon="1.61175">
        <ele>1691.899</ele>
        <time>2022-02-20T13:02:13Z</time>
      </trkpt>
      <trkpt lat="42.74275" lon="1.61175">
        <ele>1691.901</ele>
        <time>2022-02-20T13:02:15Z</time>
      </trkpt>
      <trkpt lat="42.74275" lon="1.61175">
        <ele>1691.904</ele>
        <time>2022-02-20T13:02:17Z</time>
      </trkpt>
      <trkpt lat="42.74275" lon="1.61175">
        <ele>1691.91</ele>
        <time>2022-02-20T13:02:19Z</time>
      </trkpt>
      <trkpt lat="42.74275" lon="1.61177">
        <ele>1691.68</ele>
        <time>2022-02-20T13:02:21Z</time>
      </trkpt>
      <trkpt lat="42.74274" lon="1.61178">
        <ele>1690.675</ele>
        <time>2022-02-20T13:02:23Z</time>
      </trkpt>
      <trkpt lat="42.74274" lon="1.61179">
        <ele>1690.668</ele>
        <time>2022-02-20T13:02:25Z</time>
      </trkpt>
      <trkpt lat="42.74274" lon="1.61179">
        <ele>1690.773</ele>
        <time>2022-02-20T13:02:27Z</time>
      </trkpt>
      <trkpt lat="42.74275" lon="1.6118">
        <ele>1689.455</ele>
        <time>2022-02-20T13:02:29Z</time>
      </trkpt>
      <trkpt lat="42.74275" lon="1.6118">
        <ele>1689.536</ele>
        <time>2022-02-20T13:02:31Z</time>
      </trkpt>
      <trkpt lat="42.74274" lon="1.61181">
        <ele>1688.715</ele>
        <time>2022-02-20T13:02:33Z</time>
      </trkpt>
      <trkpt lat="42.74274" lon="1.61181">
        <ele>1688.713</ele>
        <time>2022-02-20T13:02:35Z</time>
      </trkpt>
      <trkpt lat="42.74274" lon="1.61181">
        <ele>1688.709</ele>
        <time>2022-02-20T13:02:37Z</time>
      </trkpt>
      <trkpt lat="42.74274" lon="1.61181">
        <ele>1688.712</ele>
        <time>2022-02-20T13:02:39Z</time>
      </trkpt>
      <trkpt lat="42.74274" lon="1.61181">
        <ele>1688.705</ele>
        <time>2022-02-20T13:02:41Z</time>
      </trkpt>
      <trkpt lat="42.74274" lon="1.61181">
        <ele>1688.704</ele>
        <time>2022-02-20T13:02:43Z</time>
      </trkpt>
      <trkpt lat="42.74274" lon="1.61181">
        <ele>1688.696</ele>
        <time>2022-02-20T13:02:45Z</time>
      </trkpt>
      <trkpt lat="42.74274" lon="1.61181">
        <ele>1688.546</ele>
        <time>2022-02-20T13:02:47Z</time>
      </trkpt>
      <trkpt lat="42.74274" lon="1.61181">
        <ele>1688.508</ele>
        <time>2022-02-20T13:02:49Z</time>
      </trkpt>
      <trkpt lat="42.74274" lon="1.61181">
        <ele>1688.512</ele>
        <time>2022-02-20T13:02:51Z</time>
      </trkpt>
      <trkpt lat="42.74274" lon="1.61181">
        <ele>1688.502</ele>
        <time>2022-02-20T13:02:53Z</time>
      </trkpt>
      <trkpt lat="42.74274" lon="1.61181">
        <ele>1688.502</ele>
        <time>2022-02-20T13:02:55Z</time>
      </trkpt>
      <trkpt lat="42.74274" lon="1.61181">
        <ele>1688.503</ele>
        <time>2022-02-20T13:02:57Z</time>
      </trkpt>
      <trkpt lat="42.74274" lon="1.6118">
        <ele>1688.475</ele>
        <time>2022-02-20T13:02:59Z</time>
      </trkpt>
      <trkpt lat="42.74275" lon="1.6118">
        <ele>1688.896</ele>
        <time>2022-02-20T13:03:01Z</time>
      </trkpt>
      <trkpt lat="42.74275" lon="1.61179">
        <ele>1689.418</ele>
        <time>2022-02-20T13:03:03Z</time>
      </trkpt>
      <trkpt lat="42.74275" lon="1.61179">
        <ele>1689.303</ele>
        <time>2022-02-20T13:03:05Z</time>
      </trkpt>
      <trkpt lat="42.74276" lon="1.61179">
        <ele>1689.559</ele>
        <time>2022-02-20T13:03:07Z</time>
      </trkpt>
      <trkpt lat="42.74276" lon="1.61179">
        <ele>1689.714</ele>
        <time>2022-02-20T13:03:09Z</time>
      </trkpt>
      <trkpt lat="42.74277" lon="1.61179">
        <ele>1689.717</ele>
        <time>2022-02-20T13:03:11Z</time>
      </trkpt>
      <trkpt lat="42.74278" lon="1.61177">
        <ele>1689.659</ele>
        <time>2022-02-20T13:03:13Z</time>
      </trkpt>
      <trkpt lat="42.74279" lon="1.61176">
        <ele>1689.764</ele>
        <time>2022-02-20T13:03:15Z</time>
      </trkpt>
      <trkpt lat="42.74279" lon="1.61175">
        <ele>1689.251</ele>
        <time>2022-02-20T13:03:17Z</time>
      </trkpt>
      <trkpt lat="42.74281" lon="1.61174">
        <ele>1688.18</ele>
        <time>2022-02-20T13:03:19Z</time>
      </trkpt>
      <trkpt lat="42.74282" lon="1.61173">
        <ele>1687.626</ele>
        <time>2022-02-20T13:03:21Z</time>
      </trkpt>
      <trkpt lat="42.74283" lon="1.61172">
        <ele>1687.452</ele>
        <time>2022-02-20T13:03:23Z</time>
      </trkpt>
      <trkpt lat="42.74284" lon="1.61171">
        <ele>1686.651</ele>
        <time>2022-02-20T13:03:25Z</time>
      </trkpt>
      <trkpt lat="42.74285" lon="1.6117">
        <ele>1685.498</ele>
        <time>2022-02-20T13:03:27Z</time>
      </trkpt>
      <trkpt lat="42.74286" lon="1.61169">
        <ele>1685.076</ele>
        <time>2022-02-20T13:03:29Z</time>
      </trkpt>
      <trkpt lat="42.74287" lon="1.61167">
        <ele>1684.376</ele>
        <time>2022-02-20T13:03:31Z</time>
      </trkpt>
      <trkpt lat="42.74289" lon="1.61168">
        <ele>1683.042</ele>
        <time>2022-02-20T13:03:33Z</time>
      </trkpt>
      <trkpt lat="42.7429" lon="1.61167">
        <ele>1682.691</ele>
        <time>2022-02-20T13:03:35Z</time>
      </trkpt>
      <trkpt lat="42.74292" lon="1.61166">
        <ele>1682.724</ele>
        <time>2022-02-20T13:03:37Z</time>
      </trkpt>
      <trkpt lat="42.74294" lon="1.61164">
        <ele>1682.432</ele>
        <time>2022-02-20T13:03:39Z</time>
      </trkpt>
      <trkpt lat="42.74295" lon="1.61163">
        <ele>1681.875</ele>
        <time>2022-02-20T13:03:41Z</time>
      </trkpt>
      <trkpt lat="42.74297" lon="1.61163">
        <ele>1680.821</ele>
        <time>2022-02-20T13:03:43Z</time>
      </trkpt>
      <trkpt lat="42.74299" lon="1.61162">
        <ele>1680.635</ele>
        <time>2022-02-20T13:03:45Z</time>
      </trkpt>
      <trkpt lat="42.743" lon="1.61161">
        <ele>1680.168</ele>
        <time>2022-02-20T13:03:47Z</time>
      </trkpt>
      <trkpt lat="42.74301" lon="1.61159">
        <ele>1680.081</ele>
        <time>2022-02-20T13:03:49Z</time>
      </trkpt>
      <trkpt lat="42.74302" lon="1.61158">
        <ele>1680.042</ele>
        <time>2022-02-20T13:03:51Z</time>
      </trkpt>
      <trkpt lat="42.74304" lon="1.61156">
        <ele>1679.81</ele>
        <time>2022-02-20T13:03:53Z</time>
      </trkpt>
      <trkpt lat="42.74305" lon="1.61155">
        <ele>1679.913</ele>
        <time>2022-02-20T13:03:55Z</time>
      </trkpt>
      <trkpt lat="42.74305" lon="1.61154">
        <ele>1679.029</ele>
        <time>2022-02-20T13:03:57Z</time>
      </trkpt>
      <trkpt lat="42.74307" lon="1.61153">
        <ele>1678.773</ele>
        <time>2022-02-20T13:03:59Z</time>
      </trkpt>
      <trkpt lat="42.74307" lon="1.61152">
        <ele>1678.946</ele>
        <time>2022-02-20T13:04:01Z</time>
      </trkpt>
      <trkpt lat="42.74308" lon="1.61151">
        <ele>1679.877</ele>
        <time>2022-02-20T13:04:03Z</time>
      </trkpt>
      <trkpt lat="42.74309" lon="1.61149">
        <ele>1679.676</ele>
        <time>2022-02-20T13:04:05Z</time>
      </trkpt>
      <trkpt lat="42.74311" lon="1.61148">
        <ele>1680.293</ele>
        <time>2022-02-20T13:04:07Z</time>
      </trkpt>
      <trkpt lat="42.74311" lon="1.61147">
        <ele>1680.349</ele>
        <time>2022-02-20T13:04:09Z</time>
      </trkpt>
      <trkpt lat="42.74312" lon="1.61147">
        <ele>1680.287</ele>
        <time>2022-02-20T13:04:11Z</time>
      </trkpt>
      <trkpt lat="42.74313" lon="1.61147">
        <ele>1680.335</ele>
        <time>2022-02-20T13:04:13Z</time>
      </trkpt>
      <trkpt lat="42.74314" lon="1.61145">
        <ele>1681.39</ele>
        <time>2022-02-20T13:04:15Z</time>
      </trkpt>
      <trkpt lat="42.74314" lon="1.61145">
        <ele>1681.188</ele>
        <time>2022-02-20T13:04:17Z</time>
      </trkpt>
      <trkpt lat="42.74316" lon="1.61145">
        <ele>1680.946</ele>
        <time>2022-02-20T13:04:19Z</time>
      </trkpt>
      <trkpt lat="42.74318" lon="1.61145">
        <ele>1681.2</ele>
        <time>2022-02-20T13:04:21Z</time>
      </trkpt>
      <trkpt lat="42.74319" lon="1.61145">
        <ele>1681.942</ele>
        <time>2022-02-20T13:04:23Z</time>
      </trkpt>
      <trkpt lat="42.74319" lon="1.61145">
        <ele>1681.699</ele>
        <time>2022-02-20T13:04:25Z</time>
      </trkpt>
      <trkpt lat="42.74319" lon="1.61145">
        <ele>1681.191</ele>
        <time>2022-02-20T13:04:27Z</time>
      </trkpt>
      <trkpt lat="42.74319" lon="1.61145">
        <ele>1681</ele>
        <time>2022-02-20T13:04:29Z</time>
      </trkpt>
      <trkpt lat="42.74319" lon="1.61145">
        <ele>1680.994</ele>
        <time>2022-02-20T13:04:31Z</time>
      </trkpt>
      <trkpt lat="42.74319" lon="1.61144">
        <ele>1680.347</ele>
        <time>2022-02-20T13:04:33Z</time>
      </trkpt>
      <trkpt lat="42.7432" lon="1.61144">
        <ele>1679.774</ele>
        <time>2022-02-20T13:04:35Z</time>
      </trkpt>
      <trkpt lat="42.74321" lon="1.61143">
        <ele>1680.464</ele>
        <time>2022-02-20T13:04:37Z</time>
      </trkpt>
      <trkpt lat="42.74322" lon="1.61142">
        <ele>1679.919</ele>
        <time>2022-02-20T13:04:39Z</time>
      </trkpt>
      <trkpt lat="42.74324" lon="1.61141">
        <ele>1679.544</ele>
        <time>2022-02-20T13:04:41Z</time>
      </trkpt>
      <trkpt lat="42.74324" lon="1.6114">
        <ele>1679.21</ele>
        <time>2022-02-20T13:04:43Z</time>
      </trkpt>
      <trkpt lat="42.74324" lon="1.61139">
        <ele>1679.014</ele>
        <time>2022-02-20T13:04:45Z</time>
      </trkpt>
      <trkpt lat="42.74325" lon="1.61137">
        <ele>1679.229</ele>
        <time>2022-02-20T13:04:47Z</time>
      </trkpt>
      <trkpt lat="42.74325" lon="1.61137">
        <ele>1679.22</ele>
        <time>2022-02-20T13:04:49Z</time>
      </trkpt>
      <trkpt lat="42.74326" lon="1.61136">
        <ele>1678.425</ele>
        <time>2022-02-20T13:04:51Z</time>
      </trkpt>
      <trkpt lat="42.74326" lon="1.61135">
        <ele>1678.123</ele>
        <time>2022-02-20T13:04:53Z</time>
      </trkpt>
      <trkpt lat="42.74326" lon="1.61135">
        <ele>1678.237</ele>
        <time>2022-02-20T13:04:55Z</time>
      </trkpt>
      <trkpt lat="42.74327" lon="1.61134">
        <ele>1677.968</ele>
        <time>2022-02-20T13:04:57Z</time>
      </trkpt>
      <trkpt lat="42.74327" lon="1.61134">
        <ele>1677.96</ele>
        <time>2022-02-20T13:04:59Z</time>
      </trkpt>
      <trkpt lat="42.74328" lon="1.61133">
        <ele>1677.95</ele>
        <time>2022-02-20T13:05:01Z</time>
      </trkpt>
      <trkpt lat="42.74329" lon="1.61133">
        <ele>1677.412</ele>
        <time>2022-02-20T13:05:03Z</time>
      </trkpt>
      <trkpt lat="42.74329" lon="1.61131">
        <ele>1677.216</ele>
        <time>2022-02-20T13:05:05Z</time>
      </trkpt>
      <trkpt lat="42.7433" lon="1.6113">
        <ele>1677.187</ele>
        <time>2022-02-20T13:05:07Z</time>
      </trkpt>
      <trkpt lat="42.74331" lon="1.61129">
        <ele>1676.964</ele>
        <time>2022-02-20T13:05:09Z</time>
      </trkpt>
      <trkpt lat="42.74331" lon="1.61129">
        <ele>1676.473</ele>
        <time>2022-02-20T13:05:11Z</time>
      </trkpt>
      <trkpt lat="42.74331" lon="1.61129">
        <ele>1676.483</ele>
        <time>2022-02-20T13:05:13Z</time>
      </trkpt>
      <trkpt lat="42.74331" lon="1.61129">
        <ele>1676.207</ele>
        <time>2022-02-20T13:05:15Z</time>
      </trkpt>
      <trkpt lat="42.74332" lon="1.61128">
        <ele>1675.969</ele>
        <time>2022-02-20T13:05:17Z</time>
      </trkpt>
      <trkpt lat="42.74332" lon="1.61127">
        <ele>1676.289</ele>
        <time>2022-02-20T13:05:19Z</time>
      </trkpt>
      <trkpt lat="42.74332" lon="1.61127">
        <ele>1676.013</ele>
        <time>2022-02-20T13:05:21Z</time>
      </trkpt>
      <trkpt lat="42.74332" lon="1.61126">
        <ele>1676.896</ele>
        <time>2022-02-20T13:05:23Z</time>
      </trkpt>
      <trkpt lat="42.74333" lon="1.61125">
        <ele>1676.419</ele>
        <time>2022-02-20T13:05:25Z</time>
      </trkpt>
      <trkpt lat="42.74333" lon="1.61124">
        <ele>1675.836</ele>
        <time>2022-02-20T13:05:27Z</time>
      </trkpt>
      <trkpt lat="42.74333" lon="1.61123">
        <ele>1676.046</ele>
        <time>2022-02-20T13:05:29Z</time>
      </trkpt>
      <trkpt lat="42.74334" lon="1.61122">
        <ele>1676.058</ele>
        <time>2022-02-20T13:05:31Z</time>
      </trkpt>
      <trkpt lat="42.74334" lon="1.61123">
        <ele>1675.855</ele>
        <time>2022-02-20T13:05:33Z</time>
      </trkpt>
      <trkpt lat="42.74334" lon="1.61123">
        <ele>1675.908</ele>
        <time>2022-02-20T13:05:35Z</time>
      </trkpt>
      <trkpt lat="42.74334" lon="1.61123">
        <ele>1675.898</ele>
        <time>2022-02-20T13:05:37Z</time>
      </trkpt>
      <trkpt lat="42.74334" lon="1.61123">
        <ele>1675.024</ele>
        <time>2022-02-20T13:05:39Z</time>
      </trkpt>
      <trkpt lat="42.74335" lon="1.61122">
        <ele>1674.639</ele>
        <time>2022-02-20T13:05:41Z</time>
      </trkpt>
      <trkpt lat="42.74336" lon="1.61122">
        <ele>1674.941</ele>
        <time>2022-02-20T13:05:43Z</time>
      </trkpt>
      <trkpt lat="42.74336" lon="1.61121">
        <ele>1674.454</ele>
        <time>2022-02-20T13:05:45Z</time>
      </trkpt>
      <trkpt lat="42.74337" lon="1.6112">
        <ele>1673.631</ele>
        <time>2022-02-20T13:05:47Z</time>
      </trkpt>
      <trkpt lat="42.74338" lon="1.6112">
        <ele>1673.424</ele>
        <time>2022-02-20T13:05:49Z</time>
      </trkpt>
      <trkpt lat="42.74338" lon="1.61119">
        <ele>1673.341</ele>
        <time>2022-02-20T13:05:51Z</time>
      </trkpt>
      <trkpt lat="42.74339" lon="1.61118">
        <ele>1673.544</ele>
        <time>2022-02-20T13:05:53Z</time>
      </trkpt>
      <trkpt lat="42.74339" lon="1.61117">
        <ele>1673.25</ele>
        <time>2022-02-20T13:05:55Z</time>
      </trkpt>
      <trkpt lat="42.7434" lon="1.61116">
        <ele>1673.288</ele>
        <time>2022-02-20T13:05:57Z</time>
      </trkpt>
      <trkpt lat="42.74341" lon="1.61115">
        <ele>1672.979</ele>
        <time>2022-02-20T13:05:59Z</time>
      </trkpt>
      <trkpt lat="42.74342" lon="1.61113">
        <ele>1673.104</ele>
        <time>2022-02-20T13:06:01Z</time>
      </trkpt>
      <trkpt lat="42.74343" lon="1.61111">
        <ele>1673.466</ele>
        <time>2022-02-20T13:06:03Z</time>
      </trkpt>
      <trkpt lat="42.74344" lon="1.6111">
        <ele>1673.455</ele>
        <time>2022-02-20T13:06:05Z</time>
      </trkpt>
      <trkpt lat="42.74345" lon="1.61109">
        <ele>1673.256</ele>
        <time>2022-02-20T13:06:07Z</time>
      </trkpt>
      <trkpt lat="42.74346" lon="1.61108">
        <ele>1673.547</ele>
        <time>2022-02-20T13:06:09Z</time>
      </trkpt>
      <trkpt lat="42.74347" lon="1.61106">
        <ele>1673.732</ele>
        <time>2022-02-20T13:06:11Z</time>
      </trkpt>
      <trkpt lat="42.74348" lon="1.61105">
        <ele>1674.175</ele>
        <time>2022-02-20T13:06:13Z</time>
      </trkpt>
      <trkpt lat="42.74349" lon="1.61103">
        <ele>1674.233</ele>
        <time>2022-02-20T13:06:15Z</time>
      </trkpt>
      <trkpt lat="42.7435" lon="1.61101">
        <ele>1674.802</ele>
        <time>2022-02-20T13:06:17Z</time>
      </trkpt>
      <trkpt lat="42.7435" lon="1.611">
        <ele>1674.364</ele>
        <time>2022-02-20T13:06:19Z</time>
      </trkpt>
      <trkpt lat="42.74351" lon="1.61099">
        <ele>1674.364</ele>
        <time>2022-02-20T13:06:21Z</time>
      </trkpt>
      <trkpt lat="42.74352" lon="1.61097">
        <ele>1674.011</ele>
        <time>2022-02-20T13:06:23Z</time>
      </trkpt>
      <trkpt lat="42.74352" lon="1.61096">
        <ele>1673.961</ele>
        <time>2022-02-20T13:06:25Z</time>
      </trkpt>
      <trkpt lat="42.74352" lon="1.61094">
        <ele>1673.99</ele>
        <time>2022-02-20T13:06:27Z</time>
      </trkpt>
      <trkpt lat="42.74353" lon="1.61093">
        <ele>1674.452</ele>
        <time>2022-02-20T13:06:29Z</time>
      </trkpt>
      <trkpt lat="42.74353" lon="1.61092">
        <ele>1675.293</ele>
        <time>2022-02-20T13:06:31Z</time>
      </trkpt>
      <trkpt lat="42.74353" lon="1.61091">
        <ele>1675.513</ele>
        <time>2022-02-20T13:06:33Z</time>
      </trkpt>
      <trkpt lat="42.74354" lon="1.6109">
        <ele>1675.44</ele>
        <time>2022-02-20T13:06:35Z</time>
      </trkpt>
      <trkpt lat="42.74354" lon="1.61089">
        <ele>1675.87</ele>
        <time>2022-02-20T13:06:37Z</time>
      </trkpt>
      <trkpt lat="42.74354" lon="1.61088">
        <ele>1676.411</ele>
        <time>2022-02-20T13:06:39Z</time>
      </trkpt>
      <trkpt lat="42.74354" lon="1.61087">
        <ele>1676.497</ele>
        <time>2022-02-20T13:06:41Z</time>
      </trkpt>
      <trkpt lat="42.74354" lon="1.61087">
        <ele>1676.495</ele>
        <time>2022-02-20T13:06:43Z</time>
      </trkpt>
      <trkpt lat="42.74354" lon="1.61087">
        <ele>1676.202</ele>
        <time>2022-02-20T13:06:45Z</time>
      </trkpt>
      <trkpt lat="42.74354" lon="1.61087">
        <ele>1676.868</ele>
        <time>2022-02-20T13:06:47Z</time>
      </trkpt>
      <trkpt lat="42.74354" lon="1.61086">
        <ele>1676.345</ele>
        <time>2022-02-20T13:06:49Z</time>
      </trkpt>
      <trkpt lat="42.74354" lon="1.61085">
        <ele>1676.224</ele>
        <time>2022-02-20T13:06:51Z</time>
      </trkpt>
      <trkpt lat="42.74354" lon="1.61085">
        <ele>1676.208</ele>
        <time>2022-02-20T13:06:53Z</time>
      </trkpt>
      <trkpt lat="42.74354" lon="1.61085">
        <ele>1676.207</ele>
        <time>2022-02-20T13:06:55Z</time>
      </trkpt>
      <trkpt lat="42.74354" lon="1.61085">
        <ele>1676.207</ele>
        <time>2022-02-20T13:06:57Z</time>
      </trkpt>
      <trkpt lat="42.74354" lon="1.61085">
        <ele>1676.206</ele>
        <time>2022-02-20T13:06:59Z</time>
      </trkpt>
      <trkpt lat="42.74354" lon="1.61085">
        <ele>1676.198</ele>
        <time>2022-02-20T13:07:01Z</time>
      </trkpt>
      <trkpt lat="42.74354" lon="1.61085">
        <ele>1676.199</ele>
        <time>2022-02-20T13:07:03Z</time>
      </trkpt>
      <trkpt lat="42.74354" lon="1.61085">
        <ele>1676.209</ele>
        <time>2022-02-20T13:07:05Z</time>
      </trkpt>
      <trkpt lat="42.74354" lon="1.61085">
        <ele>1676.218</ele>
        <time>2022-02-20T13:07:07Z</time>
      </trkpt>
      <trkpt lat="42.74354" lon="1.61085">
        <ele>1676.22</ele>
        <time>2022-02-20T13:07:09Z</time>
      </trkpt>
      <trkpt lat="42.74354" lon="1.61085">
        <ele>1676.223</ele>
        <time>2022-02-20T13:07:11Z</time>
      </trkpt>
      <trkpt lat="42.74354" lon="1.61085">
        <ele>1676.22</ele>
        <time>2022-02-20T13:07:13Z</time>
      </trkpt>
      <trkpt lat="42.74354" lon="1.61085">
        <ele>1676.221</ele>
        <time>2022-02-20T13:07:15Z</time>
      </trkpt>
      <trkpt lat="42.74354" lon="1.61084">
        <ele>1676.549</ele>
        <time>2022-02-20T13:07:17Z</time>
      </trkpt>
      <trkpt lat="42.74354" lon="1.61084">
        <ele>1676.548</ele>
        <time>2022-02-20T13:07:19Z</time>
      </trkpt>
      <trkpt lat="42.74354" lon="1.61084">
        <ele>1676.548</ele>
        <time>2022-02-20T13:07:21Z</time>
      </trkpt>
      <trkpt lat="42.74354" lon="1.61084">
        <ele>1676.551</ele>
        <time>2022-02-20T13:07:23Z</time>
      </trkpt>
      <trkpt lat="42.74354" lon="1.61084">
        <ele>1676.551</ele>
        <time>2022-02-20T13:07:25Z</time>
      </trkpt>
      <trkpt lat="42.74354" lon="1.61084">
        <ele>1676.549</ele>
        <time>2022-02-20T13:07:27Z</time>
      </trkpt>
      <trkpt lat="42.74354" lon="1.61084">
        <ele>1676.548</ele>
        <time>2022-02-20T13:07:29Z</time>
      </trkpt>
      <trkpt lat="42.74354" lon="1.61084">
        <ele>1676.546</ele>
        <time>2022-02-20T13:07:31Z</time>
      </trkpt>
      <trkpt lat="42.74354" lon="1.61084">
        <ele>1676.543</ele>
        <time>2022-02-20T13:07:33Z</time>
      </trkpt>
      <trkpt lat="42.74354" lon="1.61085">
        <ele>1676.44</ele>
        <time>2022-02-20T13:07:35Z</time>
      </trkpt>
      <trkpt lat="42.74354" lon="1.61085">
        <ele>1676.447</ele>
        <time>2022-02-20T13:07:37Z</time>
      </trkpt>
      <trkpt lat="42.74354" lon="1.61085">
        <ele>1676.453</ele>
        <time>2022-02-20T13:07:39Z</time>
      </trkpt>
      <trkpt lat="42.74354" lon="1.61085">
        <ele>1676.453</ele>
        <time>2022-02-20T13:07:41Z</time>
      </trkpt>
      <trkpt lat="42.74354" lon="1.61085">
        <ele>1676.45</ele>
        <time>2022-02-20T13:07:43Z</time>
      </trkpt>
      <trkpt lat="42.74354" lon="1.61085">
        <ele>1676.647</ele>
        <time>2022-02-20T13:07:45Z</time>
      </trkpt>
      <trkpt lat="42.74354" lon="1.61085">
        <ele>1676.647</ele>
        <time>2022-02-20T13:07:47Z</time>
      </trkpt>
      <trkpt lat="42.74354" lon="1.61085">
        <ele>1676.636</ele>
        <time>2022-02-20T13:07:49Z</time>
      </trkpt>
      <trkpt lat="42.74354" lon="1.61085">
        <ele>1676.628</ele>
        <time>2022-02-20T13:07:51Z</time>
      </trkpt>
      <trkpt lat="42.74354" lon="1.61085">
        <ele>1676.635</ele>
        <time>2022-02-20T13:07:53Z</time>
      </trkpt>
      <trkpt lat="42.74354" lon="1.61085">
        <ele>1676.642</ele>
        <time>2022-02-20T13:07:55Z</time>
      </trkpt>
      <trkpt lat="42.74354" lon="1.61085">
        <ele>1676.643</ele>
        <time>2022-02-20T13:07:57Z</time>
      </trkpt>
      <trkpt lat="42.74354" lon="1.61085">
        <ele>1676.642</ele>
        <time>2022-02-20T13:07:59Z</time>
      </trkpt>
      <trkpt lat="42.74354" lon="1.61085">
        <ele>1676.638</ele>
        <time>2022-02-20T13:08:01Z</time>
      </trkpt>
      <trkpt lat="42.74354" lon="1.61085">
        <ele>1676.644</ele>
        <time>2022-02-20T13:08:03Z</time>
      </trkpt>
      <trkpt lat="42.74354" lon="1.61085">
        <ele>1676.647</ele>
        <time>2022-02-20T13:08:05Z</time>
      </trkpt>
      <trkpt lat="42.74354" lon="1.61085">
        <ele>1676.645</ele>
        <time>2022-02-20T13:08:07Z</time>
      </trkpt>
      <trkpt lat="42.74354" lon="1.61085">
        <ele>1676.657</ele>
        <time>2022-02-20T13:08:09Z</time>
      </trkpt>
      <trkpt lat="42.74354" lon="1.61085">
        <ele>1676.658</ele>
        <time>2022-02-20T13:08:11Z</time>
      </trkpt>
      <trkpt lat="42.74354" lon="1.61085">
        <ele>1676.649</ele>
        <time>2022-02-20T13:08:13Z</time>
      </trkpt>
      <trkpt lat="42.74354" lon="1.61085">
        <ele>1676.649</ele>
        <time>2022-02-20T13:08:15Z</time>
      </trkpt>
      <trkpt lat="42.74354" lon="1.61085">
        <ele>1676.648</ele>
        <time>2022-02-20T13:08:17Z</time>
      </trkpt>
      <trkpt lat="42.74354" lon="1.61086">
        <ele>1675.661</ele>
        <time>2022-02-20T13:08:19Z</time>
      </trkpt>
      <trkpt lat="42.74353" lon="1.61086">
        <ele>1675.964</ele>
        <time>2022-02-20T13:08:21Z</time>
      </trkpt>
      <trkpt lat="42.74353" lon="1.61086">
        <ele>1675.979</ele>
        <time>2022-02-20T13:08:23Z</time>
      </trkpt>
      <trkpt lat="42.74353" lon="1.61086">
        <ele>1675.986</ele>
        <time>2022-02-20T13:08:25Z</time>
      </trkpt>
      <trkpt lat="42.74353" lon="1.61086">
        <ele>1675.989</ele>
        <time>2022-02-20T13:08:27Z</time>
      </trkpt>
      <trkpt lat="42.74353" lon="1.61086">
        <ele>1675.994</ele>
        <time>2022-02-20T13:08:29Z</time>
      </trkpt>
      <trkpt lat="42.74353" lon="1.61087">
        <ele>1676.537</ele>
        <time>2022-02-20T13:08:31Z</time>
      </trkpt>
      <trkpt lat="42.74353" lon="1.61087">
        <ele>1676.568</ele>
        <time>2022-02-20T13:08:33Z</time>
      </trkpt>
      <trkpt lat="42.74353" lon="1.61087">
        <ele>1676.568</ele>
        <time>2022-02-20T13:08:35Z</time>
      </trkpt>
      <trkpt lat="42.74353" lon="1.61087">
        <ele>1676.564</ele>
        <time>2022-02-20T13:08:37Z</time>
      </trkpt>
      <trkpt lat="42.74353" lon="1.61087">
        <ele>1676.565</ele>
        <time>2022-02-20T13:08:39Z</time>
      </trkpt>
      <trkpt lat="42.74353" lon="1.61087">
        <ele>1676.556</ele>
        <time>2022-02-20T13:08:41Z</time>
      </trkpt>
      <trkpt lat="42.74353" lon="1.61087">
        <ele>1676.55</ele>
        <time>2022-02-20T13:08:43Z</time>
      </trkpt>
      <trkpt lat="42.74353" lon="1.61087">
        <ele>1676.553</ele>
        <time>2022-02-20T13:08:45Z</time>
      </trkpt>
      <trkpt lat="42.74353" lon="1.61087">
        <ele>1676.555</ele>
        <time>2022-02-20T13:08:47Z</time>
      </trkpt>
      <trkpt lat="42.74353" lon="1.61087">
        <ele>1676.548</ele>
        <time>2022-02-20T13:08:49Z</time>
      </trkpt>
      <trkpt lat="42.74353" lon="1.61087">
        <ele>1676.548</ele>
        <time>2022-02-20T13:08:51Z</time>
      </trkpt>
      <trkpt lat="42.74353" lon="1.61087">
        <ele>1676.285</ele>
        <time>2022-02-20T13:08:53Z</time>
      </trkpt>
      <trkpt lat="42.74354" lon="1.61086">
        <ele>1675.842</ele>
        <time>2022-02-20T13:08:55Z</time>
      </trkpt>
      <trkpt lat="42.74354" lon="1.61084">
        <ele>1675.962</ele>
        <time>2022-02-20T13:08:57Z</time>
      </trkpt>
      <trkpt lat="42.74354" lon="1.61084">
        <ele>1675.965</ele>
        <time>2022-02-20T13:08:59Z</time>
      </trkpt>
      <trkpt lat="42.74354" lon="1.61084">
        <ele>1675.752</ele>
        <time>2022-02-20T13:09:01Z</time>
      </trkpt>
      <trkpt lat="42.74354" lon="1.61084">
        <ele>1675.745</ele>
        <time>2022-02-20T13:09:03Z</time>
      </trkpt>
      <trkpt lat="42.74354" lon="1.61083">
        <ele>1675.551</ele>
        <time>2022-02-20T13:09:05Z</time>
      </trkpt>
      <trkpt lat="42.74355" lon="1.61079">
        <ele>1675.505</ele>
        <time>2022-02-20T13:09:07Z</time>
      </trkpt>
      <trkpt lat="42.74355" lon="1.6108">
        <ele>1675.497</ele>
        <time>2022-02-20T13:09:09Z</time>
      </trkpt>
      <trkpt lat="42.74355" lon="1.61078">
        <ele>1675.076</ele>
        <time>2022-02-20T13:09:11Z</time>
      </trkpt>
      <trkpt lat="42.74355" lon="1.61077">
        <ele>1675.365</ele>
        <time>2022-02-20T13:09:13Z</time>
      </trkpt>
      <trkpt lat="42.74356" lon="1.61076">
        <ele>1674.822</ele>
        <time>2022-02-20T13:09:15Z</time>
      </trkpt>
      <trkpt lat="42.74356" lon="1.61075">
        <ele>1673.809</ele>
        <time>2022-02-20T13:09:17Z</time>
      </trkpt>
      <trkpt lat="42.74355" lon="1.61074">
        <ele>1673.157</ele>
        <time>2022-02-20T13:09:19Z</time>
      </trkpt>
      <trkpt lat="42.74355" lon="1.61072">
        <ele>1674.538</ele>
        <time>2022-02-20T13:09:21Z</time>
      </trkpt>
      <trkpt lat="42.74356" lon="1.61072">
        <ele>1675.32</ele>
        <time>2022-02-20T13:09:23Z</time>
      </trkpt>
      <trkpt lat="42.74355" lon="1.61071">
        <ele>1675.49</ele>
        <time>2022-02-20T13:09:25Z</time>
      </trkpt>
      <trkpt lat="42.74355" lon="1.6107">
        <ele>1675.492</ele>
        <time>2022-02-20T13:09:27Z</time>
      </trkpt>
      <trkpt lat="42.74355" lon="1.6107">
        <ele>1674.358</ele>
        <time>2022-02-20T13:09:29Z</time>
      </trkpt>
      <trkpt lat="42.74355" lon="1.61069">
        <ele>1673.729</ele>
        <time>2022-02-20T13:09:31Z</time>
      </trkpt>
      <trkpt lat="42.74355" lon="1.61067">
        <ele>1672.812</ele>
        <time>2022-02-20T13:09:33Z</time>
      </trkpt>
      <trkpt lat="42.74356" lon="1.61065">
        <ele>1673.6</ele>
        <time>2022-02-20T13:09:35Z</time>
      </trkpt>
      <trkpt lat="42.74357" lon="1.61065">
        <ele>1672.577</ele>
        <time>2022-02-20T13:09:37Z</time>
      </trkpt>
      <trkpt lat="42.74357" lon="1.61065">
        <ele>1672.668</ele>
        <time>2022-02-20T13:09:39Z</time>
      </trkpt>
      <trkpt lat="42.74357" lon="1.61065">
        <ele>1672.03</ele>
        <time>2022-02-20T13:09:41Z</time>
      </trkpt>
      <trkpt lat="42.74357" lon="1.61064">
        <ele>1672.658</ele>
        <time>2022-02-20T13:09:43Z</time>
      </trkpt>
      <trkpt lat="42.74357" lon="1.61063">
        <ele>1672.915</ele>
        <time>2022-02-20T13:09:45Z</time>
      </trkpt>
      <trkpt lat="42.74357" lon="1.61063">
        <ele>1672.922</ele>
        <time>2022-02-20T13:09:47Z</time>
      </trkpt>
      <trkpt lat="42.74357" lon="1.61062">
        <ele>1672.36</ele>
        <time>2022-02-20T13:09:49Z</time>
      </trkpt>
      <trkpt lat="42.74357" lon="1.61061">
        <ele>1672.195</ele>
        <time>2022-02-20T13:09:51Z</time>
      </trkpt>
      <trkpt lat="42.74357" lon="1.61062">
        <ele>1671.507</ele>
        <time>2022-02-20T13:09:53Z</time>
      </trkpt>
      <trkpt lat="42.74357" lon="1.61063">
        <ele>1671.092</ele>
        <time>2022-02-20T13:09:55Z</time>
      </trkpt>
      <trkpt lat="42.74358" lon="1.61062">
        <ele>1669.879</ele>
        <time>2022-02-20T13:09:57Z</time>
      </trkpt>
      <trkpt lat="42.74359" lon="1.6106">
        <ele>1669.9</ele>
        <time>2022-02-20T13:09:59Z</time>
      </trkpt>
      <trkpt lat="42.74359" lon="1.6106">
        <ele>1669.857</ele>
        <time>2022-02-20T13:10:01Z</time>
      </trkpt>
      <trkpt lat="42.74359" lon="1.61059">
        <ele>1670.198</ele>
        <time>2022-02-20T13:10:03Z</time>
      </trkpt>
      <trkpt lat="42.7436" lon="1.61058">
        <ele>1670.193</ele>
        <time>2022-02-20T13:10:05Z</time>
      </trkpt>
      <trkpt lat="42.7436" lon="1.61056">
        <ele>1671.589</ele>
        <time>2022-02-20T13:10:07Z</time>
      </trkpt>
      <trkpt lat="42.74361" lon="1.61054">
        <ele>1671.155</ele>
        <time>2022-02-20T13:10:09Z</time>
      </trkpt>
      <trkpt lat="42.74361" lon="1.61052">
        <ele>1671.66</ele>
        <time>2022-02-20T13:10:11Z</time>
      </trkpt>
      <trkpt lat="42.74361" lon="1.6105">
        <ele>1671.448</ele>
        <time>2022-02-20T13:10:13Z</time>
      </trkpt>
      <trkpt lat="42.74361" lon="1.6105">
        <ele>1670.912</ele>
        <time>2022-02-20T13:10:15Z</time>
      </trkpt>
      <trkpt lat="42.74361" lon="1.61048">
        <ele>1671.524</ele>
        <time>2022-02-20T13:10:17Z</time>
      </trkpt>
      <trkpt lat="42.74361" lon="1.61046">
        <ele>1672.47</ele>
        <time>2022-02-20T13:10:19Z</time>
      </trkpt>
      <trkpt lat="42.74361" lon="1.61044">
        <ele>1671.877</ele>
        <time>2022-02-20T13:10:21Z</time>
      </trkpt>
      <trkpt lat="42.74361" lon="1.61043">
        <ele>1672.995</ele>
        <time>2022-02-20T13:10:23Z</time>
      </trkpt>
      <trkpt lat="42.74361" lon="1.61043">
        <ele>1673.14</ele>
        <time>2022-02-20T13:10:25Z</time>
      </trkpt>
      <trkpt lat="42.74362" lon="1.61042">
        <ele>1672.732</ele>
        <time>2022-02-20T13:10:27Z</time>
      </trkpt>
      <trkpt lat="42.74362" lon="1.61041">
        <ele>1671.967</ele>
        <time>2022-02-20T13:10:29Z</time>
      </trkpt>
      <trkpt lat="42.74362" lon="1.6104">
        <ele>1671.667</ele>
        <time>2022-02-20T13:10:31Z</time>
      </trkpt>
      <trkpt lat="42.74363" lon="1.6104">
        <ele>1669.85</ele>
        <time>2022-02-20T13:10:33Z</time>
      </trkpt>
      <trkpt lat="42.74363" lon="1.6104">
        <ele>1670.009</ele>
        <time>2022-02-20T13:10:35Z</time>
      </trkpt>
      <trkpt lat="42.74363" lon="1.6104">
        <ele>1670.005</ele>
        <time>2022-02-20T13:10:37Z</time>
      </trkpt>
      <trkpt lat="42.74363" lon="1.6104">
        <ele>1670.006</ele>
        <time>2022-02-20T13:10:39Z</time>
      </trkpt>
      <trkpt lat="42.74364" lon="1.61039">
        <ele>1670.014</ele>
        <time>2022-02-20T13:10:41Z</time>
      </trkpt>
      <trkpt lat="42.74364" lon="1.61038">
        <ele>1670.554</ele>
        <time>2022-02-20T13:10:43Z</time>
      </trkpt>
      <trkpt lat="42.74363" lon="1.61038">
        <ele>1670.576</ele>
        <time>2022-02-20T13:10:45Z</time>
      </trkpt>
      <trkpt lat="42.74363" lon="1.61038">
        <ele>1670.554</ele>
        <time>2022-02-20T13:10:47Z</time>
      </trkpt>
      <trkpt lat="42.74363" lon="1.61038">
        <ele>1670.539</ele>
        <time>2022-02-20T13:10:49Z</time>
      </trkpt>
      <trkpt lat="42.74363" lon="1.61038">
        <ele>1670.551</ele>
        <time>2022-02-20T13:10:51Z</time>
      </trkpt>
      <trkpt lat="42.74363" lon="1.61038">
        <ele>1670.548</ele>
        <time>2022-02-20T13:10:53Z</time>
      </trkpt>
      <trkpt lat="42.74363" lon="1.61038">
        <ele>1670.543</ele>
        <time>2022-02-20T13:10:55Z</time>
      </trkpt>
      <trkpt lat="42.74364" lon="1.61038">
        <ele>1670.522</ele>
        <time>2022-02-20T13:10:57Z</time>
      </trkpt>
      <trkpt lat="42.74363" lon="1.61038">
        <ele>1670.539</ele>
        <time>2022-02-20T13:10:59Z</time>
      </trkpt>
      <trkpt lat="42.74363" lon="1.61038">
        <ele>1670.546</ele>
        <time>2022-02-20T13:11:01Z</time>
      </trkpt>
      <trkpt lat="42.74363" lon="1.61038">
        <ele>1670.552</ele>
        <time>2022-02-20T13:11:03Z</time>
      </trkpt>
      <trkpt lat="42.74363" lon="1.61038">
        <ele>1670.557</ele>
        <time>2022-02-20T13:11:05Z</time>
      </trkpt>
      <trkpt lat="42.74363" lon="1.61038">
        <ele>1670.554</ele>
        <time>2022-02-20T13:11:07Z</time>
      </trkpt>
      <trkpt lat="42.74364" lon="1.61037">
        <ele>1670.537</ele>
        <time>2022-02-20T13:11:09Z</time>
      </trkpt>
      <trkpt lat="42.74364" lon="1.61037">
        <ele>1669.718</ele>
        <time>2022-02-20T13:11:11Z</time>
      </trkpt>
      <trkpt lat="42.74364" lon="1.61037">
        <ele>1669.907</ele>
        <time>2022-02-20T13:11:13Z</time>
      </trkpt>
      <trkpt lat="42.74364" lon="1.61037">
        <ele>1669.543</ele>
        <time>2022-02-20T13:11:15Z</time>
      </trkpt>
      <trkpt lat="42.74364" lon="1.61036">
        <ele>1669.187</ele>
        <time>2022-02-20T13:11:17Z</time>
      </trkpt>
      <trkpt lat="42.74364" lon="1.61036">
        <ele>1668.565</ele>
        <time>2022-02-20T13:11:19Z</time>
      </trkpt>
      <trkpt lat="42.74364" lon="1.61036">
        <ele>1668.545</ele>
        <time>2022-02-20T13:11:21Z</time>
      </trkpt>
      <trkpt lat="42.74364" lon="1.61036">
        <ele>1668.531</ele>
        <time>2022-02-20T13:11:23Z</time>
      </trkpt>
      <trkpt lat="42.74364" lon="1.61036">
        <ele>1668.509</ele>
        <time>2022-02-20T13:11:25Z</time>
      </trkpt>
      <trkpt lat="42.74364" lon="1.61035">
        <ele>1668.204</ele>
        <time>2022-02-20T13:11:27Z</time>
      </trkpt>
      <trkpt lat="42.74364" lon="1.61035">
        <ele>1668.176</ele>
        <time>2022-02-20T13:11:29Z</time>
      </trkpt>
      <trkpt lat="42.74364" lon="1.61035">
        <ele>1668.164</ele>
        <time>2022-02-20T13:11:31Z</time>
      </trkpt>
      <trkpt lat="42.74364" lon="1.61035">
        <ele>1668.151</ele>
        <time>2022-02-20T13:11:33Z</time>
      </trkpt>
      <trkpt lat="42.74365" lon="1.61034">
        <ele>1668.039</ele>
        <time>2022-02-20T13:11:35Z</time>
      </trkpt>
      <trkpt lat="42.74365" lon="1.61032">
        <ele>1667.041</ele>
        <time>2022-02-20T13:11:37Z</time>
      </trkpt>
      <trkpt lat="42.74365" lon="1.61031">
        <ele>1667.273</ele>
        <time>2022-02-20T13:11:39Z</time>
      </trkpt>
      <trkpt lat="42.74365" lon="1.61031">
        <ele>1666.88</ele>
        <time>2022-02-20T13:11:41Z</time>
      </trkpt>
      <trkpt lat="42.74366" lon="1.6103">
        <ele>1666.334</ele>
        <time>2022-02-20T13:11:43Z</time>
      </trkpt>
      <trkpt lat="42.74366" lon="1.6103">
        <ele>1666.376</ele>
        <time>2022-02-20T13:11:45Z</time>
      </trkpt>
      <trkpt lat="42.74366" lon="1.61029">
        <ele>1665.746</ele>
        <time>2022-02-20T13:11:47Z</time>
      </trkpt>
      <trkpt lat="42.74367" lon="1.61029">
        <ele>1665.58</ele>
        <time>2022-02-20T13:11:49Z</time>
      </trkpt>
      <trkpt lat="42.74366" lon="1.61029">
        <ele>1666.218</ele>
        <time>2022-02-20T13:11:51Z</time>
      </trkpt>
      <trkpt lat="42.74366" lon="1.61028">
        <ele>1666.771</ele>
        <time>2022-02-20T13:11:53Z</time>
      </trkpt>
      <trkpt lat="42.74366" lon="1.61028">
        <ele>1666.536</ele>
        <time>2022-02-20T13:11:55Z</time>
      </trkpt>
      <trkpt lat="42.74365" lon="1.61029">
        <ele>1666.51</ele>
        <time>2022-02-20T13:11:57Z</time>
      </trkpt>
      <trkpt lat="42.74365" lon="1.61028">
        <ele>1666.187</ele>
        <time>2022-02-20T13:11:59Z</time>
      </trkpt>
      <trkpt lat="42.74365" lon="1.61027">
        <ele>1664.828</ele>
        <time>2022-02-20T13:12:01Z</time>
      </trkpt>
      <trkpt lat="42.74365" lon="1.61027">
        <ele>1664.868</ele>
        <time>2022-02-20T13:12:03Z</time>
      </trkpt>
      <trkpt lat="42.74365" lon="1.61027">
        <ele>1664.859</ele>
        <time>2022-02-20T13:12:05Z</time>
      </trkpt>
      <trkpt lat="42.74366" lon="1.61027">
        <ele>1664.378</ele>
        <time>2022-02-20T13:12:07Z</time>
      </trkpt>
      <trkpt lat="42.74366" lon="1.61026">
        <ele>1664.699</ele>
        <time>2022-02-20T13:12:09Z</time>
      </trkpt>
      <trkpt lat="42.74367" lon="1.61025">
        <ele>1664.296</ele>
        <time>2022-02-20T13:12:11Z</time>
      </trkpt>
      <trkpt lat="42.74367" lon="1.61025">
        <ele>1664.031</ele>
        <time>2022-02-20T13:12:13Z</time>
      </trkpt>
      <trkpt lat="42.74368" lon="1.61023">
        <ele>1664.596</ele>
        <time>2022-02-20T13:12:15Z</time>
      </trkpt>
      <trkpt lat="42.74368" lon="1.61023">
        <ele>1664.247</ele>
        <time>2022-02-20T13:12:17Z</time>
      </trkpt>
      <trkpt lat="42.74368" lon="1.61021">
        <ele>1664.216</ele>
        <time>2022-02-20T13:12:19Z</time>
      </trkpt>
      <trkpt lat="42.74369" lon="1.6102">
        <ele>1663.878</ele>
        <time>2022-02-20T13:12:21Z</time>
      </trkpt>
      <trkpt lat="42.74369" lon="1.61019">
        <ele>1663.265</ele>
        <time>2022-02-20T13:12:23Z</time>
      </trkpt>
      <trkpt lat="42.74369" lon="1.61018">
        <ele>1662.436</ele>
        <time>2022-02-20T13:12:25Z</time>
      </trkpt>
      <trkpt lat="42.7437" lon="1.61018">
        <ele>1661.581</ele>
        <time>2022-02-20T13:12:27Z</time>
      </trkpt>
      <trkpt lat="42.7437" lon="1.61017">
        <ele>1660.757</ele>
        <time>2022-02-20T13:12:29Z</time>
      </trkpt>
      <trkpt lat="42.74371" lon="1.61015">
        <ele>1660.668</ele>
        <time>2022-02-20T13:12:31Z</time>
      </trkpt>
      <trkpt lat="42.74372" lon="1.61014">
        <ele>1660.622</ele>
        <time>2022-02-20T13:12:33Z</time>
      </trkpt>
      <trkpt lat="42.74372" lon="1.61012">
        <ele>1660.754</ele>
        <time>2022-02-20T13:12:35Z</time>
      </trkpt>
      <trkpt lat="42.74373" lon="1.6101">
        <ele>1660.567</ele>
        <time>2022-02-20T13:12:37Z</time>
      </trkpt>
      <trkpt lat="42.74374" lon="1.61009">
        <ele>1659.548</ele>
        <time>2022-02-20T13:12:39Z</time>
      </trkpt>
      <trkpt lat="42.74374" lon="1.6101">
        <ele>1658.819</ele>
        <time>2022-02-20T13:12:41Z</time>
      </trkpt>
      <trkpt lat="42.74373" lon="1.61009">
        <ele>1658.318</ele>
        <time>2022-02-20T13:12:43Z</time>
      </trkpt>
      <trkpt lat="42.74374" lon="1.61008">
        <ele>1658.134</ele>
        <time>2022-02-20T13:12:45Z</time>
      </trkpt>
      <trkpt lat="42.74375" lon="1.61007">
        <ele>1658.224</ele>
        <time>2022-02-20T13:12:47Z</time>
      </trkpt>
      <trkpt lat="42.74375" lon="1.61005">
        <ele>1658.159</ele>
        <time>2022-02-20T13:12:49Z</time>
      </trkpt>
      <trkpt lat="42.74374" lon="1.61005">
        <ele>1658.089</ele>
        <time>2022-02-20T13:12:51Z</time>
      </trkpt>
      <trkpt lat="42.74374" lon="1.61005">
        <ele>1658.066</ele>
        <time>2022-02-20T13:12:53Z</time>
      </trkpt>
      <trkpt lat="42.74374" lon="1.61002">
        <ele>1657.737</ele>
        <time>2022-02-20T13:12:55Z</time>
      </trkpt>
      <trkpt lat="42.74375" lon="1.61001">
        <ele>1657.174</ele>
        <time>2022-02-20T13:12:57Z</time>
      </trkpt>
      <trkpt lat="42.74375" lon="1.60999">
        <ele>1656.949</ele>
        <time>2022-02-20T13:12:59Z</time>
      </trkpt>
      <trkpt lat="42.74375" lon="1.60999">
        <ele>1656.527</ele>
        <time>2022-02-20T13:13:01Z</time>
      </trkpt>
      <trkpt lat="42.74375" lon="1.60998">
        <ele>1656.243</ele>
        <time>2022-02-20T13:13:03Z</time>
      </trkpt>
      <trkpt lat="42.74376" lon="1.60997">
        <ele>1655.773</ele>
        <time>2022-02-20T13:13:05Z</time>
      </trkpt>
      <trkpt lat="42.74376" lon="1.60996">
        <ele>1655.447</ele>
        <time>2022-02-20T13:13:07Z</time>
      </trkpt>
      <trkpt lat="42.74376" lon="1.60996">
        <ele>1655.395</ele>
        <time>2022-02-20T13:13:09Z</time>
      </trkpt>
      <trkpt lat="42.74376" lon="1.60996">
        <ele>1655.391</ele>
        <time>2022-02-20T13:13:11Z</time>
      </trkpt>
      <trkpt lat="42.74376" lon="1.60996">
        <ele>1655.382</ele>
        <time>2022-02-20T13:13:13Z</time>
      </trkpt>
      <trkpt lat="42.74376" lon="1.60996">
        <ele>1655.394</ele>
        <time>2022-02-20T13:13:15Z</time>
      </trkpt>
      <trkpt lat="42.74376" lon="1.60996">
        <ele>1655.057</ele>
        <time>2022-02-20T13:13:17Z</time>
      </trkpt>
      <trkpt lat="42.74376" lon="1.60995">
        <ele>1655.289</ele>
        <time>2022-02-20T13:13:19Z</time>
      </trkpt>
      <trkpt lat="42.74376" lon="1.60995">
        <ele>1654.331</ele>
        <time>2022-02-20T13:13:21Z</time>
      </trkpt>
      <trkpt lat="42.74376" lon="1.60994">
        <ele>1653.504</ele>
        <time>2022-02-20T13:13:23Z</time>
      </trkpt>
      <trkpt lat="42.74376" lon="1.60994">
        <ele>1653.475</ele>
        <time>2022-02-20T13:13:25Z</time>
      </trkpt>
      <trkpt lat="42.74376" lon="1.60994">
        <ele>1653.362</ele>
        <time>2022-02-20T13:13:27Z</time>
      </trkpt>
      <trkpt lat="42.74377" lon="1.60994">
        <ele>1652.423</ele>
        <time>2022-02-20T13:13:29Z</time>
      </trkpt>
      <trkpt lat="42.74376" lon="1.60993">
        <ele>1652.232</ele>
        <time>2022-02-20T13:13:31Z</time>
      </trkpt>
      <trkpt lat="42.74377" lon="1.60992">
        <ele>1652.381</ele>
        <time>2022-02-20T13:13:33Z</time>
      </trkpt>
      <trkpt lat="42.74377" lon="1.60991">
        <ele>1652.128</ele>
        <time>2022-02-20T13:13:35Z</time>
      </trkpt>
      <trkpt lat="42.74377" lon="1.60991">
        <ele>1651.052</ele>
        <time>2022-02-20T13:13:37Z</time>
      </trkpt>
      <trkpt lat="42.74377" lon="1.60991">
        <ele>1651.996</ele>
        <time>2022-02-20T13:13:39Z</time>
      </trkpt>
      <trkpt lat="42.74376" lon="1.6099">
        <ele>1652.437</ele>
        <time>2022-02-20T13:13:41Z</time>
      </trkpt>
      <trkpt lat="42.74377" lon="1.60989">
        <ele>1652.067</ele>
        <time>2022-02-20T13:13:43Z</time>
      </trkpt>
      <trkpt lat="42.74377" lon="1.60989">
        <ele>1652.213</ele>
        <time>2022-02-20T13:13:45Z</time>
      </trkpt>
      <trkpt lat="42.74377" lon="1.60988">
        <ele>1652.316</ele>
        <time>2022-02-20T13:13:47Z</time>
      </trkpt>
      <trkpt lat="42.74378" lon="1.60987">
        <ele>1652.087</ele>
        <time>2022-02-20T13:13:49Z</time>
      </trkpt>
      <trkpt lat="42.74378" lon="1.60986">
        <ele>1653.015</ele>
        <time>2022-02-20T13:13:51Z</time>
      </trkpt>
      <trkpt lat="42.74378" lon="1.60985">
        <ele>1652.069</ele>
        <time>2022-02-20T13:13:53Z</time>
      </trkpt>
      <trkpt lat="42.74377" lon="1.60985">
        <ele>1651.424</ele>
        <time>2022-02-20T13:13:55Z</time>
      </trkpt>
      <trkpt lat="42.74378" lon="1.60985">
        <ele>1651.414</ele>
        <time>2022-02-20T13:13:57Z</time>
      </trkpt>
      <trkpt lat="42.74378" lon="1.60985">
        <ele>1651.408</ele>
        <time>2022-02-20T13:13:59Z</time>
      </trkpt>
      <trkpt lat="42.74378" lon="1.60984">
        <ele>1651.012</ele>
        <time>2022-02-20T13:14:01Z</time>
      </trkpt>
      <trkpt lat="42.74379" lon="1.60983">
        <ele>1650.609</ele>
        <time>2022-02-20T13:14:03Z</time>
      </trkpt>
      <trkpt lat="42.74379" lon="1.60981">
        <ele>1650.78</ele>
        <time>2022-02-20T13:14:05Z</time>
      </trkpt>
      <trkpt lat="42.7438" lon="1.60981">
        <ele>1650.335</ele>
        <time>2022-02-20T13:14:07Z</time>
      </trkpt>
      <trkpt lat="42.7438" lon="1.60981">
        <ele>1649.869</ele>
        <time>2022-02-20T13:14:09Z</time>
      </trkpt>
      <trkpt lat="42.7438" lon="1.6098">
        <ele>1650.047</ele>
        <time>2022-02-20T13:14:11Z</time>
      </trkpt>
      <trkpt lat="42.74381" lon="1.60979">
        <ele>1649.454</ele>
        <time>2022-02-20T13:14:13Z</time>
      </trkpt>
      <trkpt lat="42.74381" lon="1.60978">
        <ele>1648.606</ele>
        <time>2022-02-20T13:14:15Z</time>
      </trkpt>
      <trkpt lat="42.74382" lon="1.60976">
        <ele>1648.195</ele>
        <time>2022-02-20T13:14:17Z</time>
      </trkpt>
      <trkpt lat="42.74382" lon="1.60975">
        <ele>1648.41</ele>
        <time>2022-02-20T13:14:19Z</time>
      </trkpt>
      <trkpt lat="42.74382" lon="1.60975">
        <ele>1648.387</ele>
        <time>2022-02-20T13:14:21Z</time>
      </trkpt>
      <trkpt lat="42.74381" lon="1.60974">
        <ele>1648.36</ele>
        <time>2022-02-20T13:14:23Z</time>
      </trkpt>
      <trkpt lat="42.74382" lon="1.60973">
        <ele>1647.397</ele>
        <time>2022-02-20T13:14:25Z</time>
      </trkpt>
      <trkpt lat="42.74382" lon="1.60972">
        <ele>1645.964</ele>
        <time>2022-02-20T13:14:27Z</time>
      </trkpt>
      <trkpt lat="42.74382" lon="1.60972">
        <ele>1645.709</ele>
        <time>2022-02-20T13:14:29Z</time>
      </trkpt>
      <trkpt lat="42.74382" lon="1.60971">
        <ele>1644.756</ele>
        <time>2022-02-20T13:14:31Z</time>
      </trkpt>
      <trkpt lat="42.74381" lon="1.60971">
        <ele>1644.247</ele>
        <time>2022-02-20T13:14:33Z</time>
      </trkpt>
      <trkpt lat="42.74381" lon="1.60971">
        <ele>1644.687</ele>
        <time>2022-02-20T13:14:35Z</time>
      </trkpt>
      <trkpt lat="42.74381" lon="1.6097">
        <ele>1644.331</ele>
        <time>2022-02-20T13:14:37Z</time>
      </trkpt>
      <trkpt lat="42.74381" lon="1.60969">
        <ele>1644.953</ele>
        <time>2022-02-20T13:14:39Z</time>
      </trkpt>
      <trkpt lat="42.74382" lon="1.60968">
        <ele>1644.427</ele>
        <time>2022-02-20T13:14:41Z</time>
      </trkpt>
      <trkpt lat="42.74382" lon="1.60968">
        <ele>1643.694</ele>
        <time>2022-02-20T13:14:43Z</time>
      </trkpt>
      <trkpt lat="42.74383" lon="1.60967">
        <ele>1642.696</ele>
        <time>2022-02-20T13:14:45Z</time>
      </trkpt>
      <trkpt lat="42.74382" lon="1.60967">
        <ele>1642.973</ele>
        <time>2022-02-20T13:14:47Z</time>
      </trkpt>
      <trkpt lat="42.74382" lon="1.60967">
        <ele>1642.956</ele>
        <time>2022-02-20T13:14:49Z</time>
      </trkpt>
      <trkpt lat="42.74382" lon="1.60967">
        <ele>1642.953</ele>
        <time>2022-02-20T13:14:51Z</time>
      </trkpt>
      <trkpt lat="42.74382" lon="1.60967">
        <ele>1642.944</ele>
        <time>2022-02-20T13:14:53Z</time>
      </trkpt>
      <trkpt lat="42.74382" lon="1.60967">
        <ele>1642.939</ele>
        <time>2022-02-20T13:14:55Z</time>
      </trkpt>
      <trkpt lat="42.74383" lon="1.60966">
        <ele>1642.301</ele>
        <time>2022-02-20T13:14:57Z</time>
      </trkpt>
      <trkpt lat="42.74383" lon="1.60966">
        <ele>1643.037</ele>
        <time>2022-02-20T13:14:59Z</time>
      </trkpt>
      <trkpt lat="42.74383" lon="1.60964">
        <ele>1642.84</ele>
        <time>2022-02-20T13:15:01Z</time>
      </trkpt>
      <trkpt lat="42.74384" lon="1.60964">
        <ele>1642.456</ele>
        <time>2022-02-20T13:15:03Z</time>
      </trkpt>
      <trkpt lat="42.74384" lon="1.60964">
        <ele>1642.473</ele>
        <time>2022-02-20T13:15:05Z</time>
      </trkpt>
      <trkpt lat="42.74384" lon="1.60964">
        <ele>1642.426</ele>
        <time>2022-02-20T13:15:07Z</time>
      </trkpt>
      <trkpt lat="42.74384" lon="1.60964">
        <ele>1641.606</ele>
        <time>2022-02-20T13:15:09Z</time>
      </trkpt>
      <trkpt lat="42.74384" lon="1.60963">
        <ele>1640.297</ele>
        <time>2022-02-20T13:15:11Z</time>
      </trkpt>
      <trkpt lat="42.74385" lon="1.60962">
        <ele>1640.315</ele>
        <time>2022-02-20T13:15:13Z</time>
      </trkpt>
      <trkpt lat="42.74385" lon="1.60962">
        <ele>1639.831</ele>
        <time>2022-02-20T13:15:15Z</time>
      </trkpt>
      <trkpt lat="42.74384" lon="1.60962">
        <ele>1640.085</ele>
        <time>2022-02-20T13:15:17Z</time>
      </trkpt>
      <trkpt lat="42.74384" lon="1.60961">
        <ele>1639.111</ele>
        <time>2022-02-20T13:15:19Z</time>
      </trkpt>
      <trkpt lat="42.74384" lon="1.60961">
        <ele>1639.084</ele>
        <time>2022-02-20T13:15:21Z</time>
      </trkpt>
      <trkpt lat="42.74384" lon="1.60961">
        <ele>1639.074</ele>
        <time>2022-02-20T13:15:23Z</time>
      </trkpt>
      <trkpt lat="42.74384" lon="1.60961">
        <ele>1639.062</ele>
        <time>2022-02-20T13:15:25Z</time>
      </trkpt>
      <trkpt lat="42.74384" lon="1.60961">
        <ele>1638.871</ele>
        <time>2022-02-20T13:15:27Z</time>
      </trkpt>
      <trkpt lat="42.74384" lon="1.60961">
        <ele>1638.068</ele>
        <time>2022-02-20T13:15:29Z</time>
      </trkpt>
      <trkpt lat="42.74385" lon="1.60961">
        <ele>1637.936</ele>
        <time>2022-02-20T13:15:31Z</time>
      </trkpt>
      <trkpt lat="42.74385" lon="1.6096">
        <ele>1637.184</ele>
        <time>2022-02-20T13:15:33Z</time>
      </trkpt>
      <trkpt lat="42.74386" lon="1.60959">
        <ele>1636.861</ele>
        <time>2022-02-20T13:15:35Z</time>
      </trkpt>
      <trkpt lat="42.74386" lon="1.60958">
        <ele>1636.753</ele>
        <time>2022-02-20T13:15:37Z</time>
      </trkpt>
      <trkpt lat="42.74387" lon="1.60957">
        <ele>1636.645</ele>
        <time>2022-02-20T13:15:39Z</time>
      </trkpt>
      <trkpt lat="42.74388" lon="1.60955">
        <ele>1636.56</ele>
        <time>2022-02-20T13:15:41Z</time>
      </trkpt>
      <trkpt lat="42.74389" lon="1.60953">
        <ele>1636.16</ele>
        <time>2022-02-20T13:15:43Z</time>
      </trkpt>
      <trkpt lat="42.74389" lon="1.60952">
        <ele>1635.562</ele>
        <time>2022-02-20T13:15:45Z</time>
      </trkpt>
      <trkpt lat="42.74391" lon="1.60951">
        <ele>1635.189</ele>
        <time>2022-02-20T13:15:47Z</time>
      </trkpt>
      <trkpt lat="42.74392" lon="1.6095">
        <ele>1634.644</ele>
        <time>2022-02-20T13:15:49Z</time>
      </trkpt>
      <trkpt lat="42.74394" lon="1.60949">
        <ele>1633.693</ele>
        <time>2022-02-20T13:15:51Z</time>
      </trkpt>
      <trkpt lat="42.74395" lon="1.60948">
        <ele>1633.356</ele>
        <time>2022-02-20T13:15:53Z</time>
      </trkpt>
      <trkpt lat="42.74397" lon="1.60947">
        <ele>1632.823</ele>
        <time>2022-02-20T13:15:55Z</time>
      </trkpt>
      <trkpt lat="42.74397" lon="1.60946">
        <ele>1632.777</ele>
        <time>2022-02-20T13:15:57Z</time>
      </trkpt>
      <trkpt lat="42.74398" lon="1.60945">
        <ele>1632.371</ele>
        <time>2022-02-20T13:15:59Z</time>
      </trkpt>
      <trkpt lat="42.74399" lon="1.60944">
        <ele>1632.166</ele>
        <time>2022-02-20T13:16:01Z</time>
      </trkpt>
      <trkpt lat="42.744" lon="1.60943">
        <ele>1631.559</ele>
        <time>2022-02-20T13:16:03Z</time>
      </trkpt>
      <trkpt lat="42.744" lon="1.60942">
        <ele>1631.672</ele>
        <time>2022-02-20T13:16:05Z</time>
      </trkpt>
      <trkpt lat="42.74401" lon="1.60941">
        <ele>1632.128</ele>
        <time>2022-02-20T13:16:07Z</time>
      </trkpt>
      <trkpt lat="42.74403" lon="1.6094">
        <ele>1631.717</ele>
        <time>2022-02-20T13:16:09Z</time>
      </trkpt>
      <trkpt lat="42.74404" lon="1.60939">
        <ele>1632.082</ele>
        <time>2022-02-20T13:16:11Z</time>
      </trkpt>
      <trkpt lat="42.74405" lon="1.60938">
        <ele>1631.673</ele>
        <time>2022-02-20T13:16:13Z</time>
      </trkpt>
      <trkpt lat="42.74405" lon="1.60936">
        <ele>1631.327</ele>
        <time>2022-02-20T13:16:15Z</time>
      </trkpt>
      <trkpt lat="42.74406" lon="1.60935">
        <ele>1631.447</ele>
        <time>2022-02-20T13:16:17Z</time>
      </trkpt>
      <trkpt lat="42.74407" lon="1.60935">
        <ele>1631.749</ele>
        <time>2022-02-20T13:16:19Z</time>
      </trkpt>
      <trkpt lat="42.74408" lon="1.60934">
        <ele>1631.663</ele>
        <time>2022-02-20T13:16:21Z</time>
      </trkpt>
      <trkpt lat="42.74408" lon="1.60933">
        <ele>1630.77</ele>
        <time>2022-02-20T13:16:23Z</time>
      </trkpt>
      <trkpt lat="42.74409" lon="1.60932">
        <ele>1630.592</ele>
        <time>2022-02-20T13:16:25Z</time>
      </trkpt>
      <trkpt lat="42.7441" lon="1.6093">
        <ele>1630.806</ele>
        <time>2022-02-20T13:16:27Z</time>
      </trkpt>
      <trkpt lat="42.7441" lon="1.60929">
        <ele>1630.389</ele>
        <time>2022-02-20T13:16:29Z</time>
      </trkpt>
      <trkpt lat="42.7441" lon="1.60929">
        <ele>1630.761</ele>
        <time>2022-02-20T13:16:31Z</time>
      </trkpt>
      <trkpt lat="42.74409" lon="1.60928">
        <ele>1630.695</ele>
        <time>2022-02-20T13:16:33Z</time>
      </trkpt>
      <trkpt lat="42.74409" lon="1.60926">
        <ele>1630.931</ele>
        <time>2022-02-20T13:16:35Z</time>
      </trkpt>
      <trkpt lat="42.74409" lon="1.60925">
        <ele>1631.229</ele>
        <time>2022-02-20T13:16:37Z</time>
      </trkpt>
      <trkpt lat="42.74409" lon="1.60925">
        <ele>1630.929</ele>
        <time>2022-02-20T13:16:39Z</time>
      </trkpt>
      <trkpt lat="42.7441" lon="1.60924">
        <ele>1630.869</ele>
        <time>2022-02-20T13:16:41Z</time>
      </trkpt>
      <trkpt lat="42.7441" lon="1.60924">
        <ele>1630.861</ele>
        <time>2022-02-20T13:16:43Z</time>
      </trkpt>
      <trkpt lat="42.7441" lon="1.60924">
        <ele>1630.854</ele>
        <time>2022-02-20T13:16:45Z</time>
      </trkpt>
      <trkpt lat="42.7441" lon="1.60924">
        <ele>1630.854</ele>
        <time>2022-02-20T13:16:47Z</time>
      </trkpt>
      <trkpt lat="42.7441" lon="1.60924">
        <ele>1630.85</ele>
        <time>2022-02-20T13:16:49Z</time>
      </trkpt>
      <trkpt lat="42.74411" lon="1.60923">
        <ele>1630.649</ele>
        <time>2022-02-20T13:16:51Z</time>
      </trkpt>
      <trkpt lat="42.74411" lon="1.60921">
        <ele>1630.701</ele>
        <time>2022-02-20T13:16:53Z</time>
      </trkpt>
      <trkpt lat="42.74411" lon="1.60919">
        <ele>1631.158</ele>
        <time>2022-02-20T13:16:55Z</time>
      </trkpt>
      <trkpt lat="42.74412" lon="1.60917">
        <ele>1630.701</ele>
        <time>2022-02-20T13:16:57Z</time>
      </trkpt>
      <trkpt lat="42.74411" lon="1.60917">
        <ele>1630.551</ele>
        <time>2022-02-20T13:16:59Z</time>
      </trkpt>
      <trkpt lat="42.74411" lon="1.60917">
        <ele>1630.547</ele>
        <time>2022-02-20T13:17:01Z</time>
      </trkpt>
      <trkpt lat="42.74411" lon="1.60917">
        <ele>1630.55</ele>
        <time>2022-02-20T13:17:03Z</time>
      </trkpt>
      <trkpt lat="42.74411" lon="1.60917">
        <ele>1630.547</ele>
        <time>2022-02-20T13:17:05Z</time>
      </trkpt>
      <trkpt lat="42.74411" lon="1.60917">
        <ele>1630.55</ele>
        <time>2022-02-20T13:17:07Z</time>
      </trkpt>
      <trkpt lat="42.74411" lon="1.60917">
        <ele>1630.16</ele>
        <time>2022-02-20T13:17:09Z</time>
      </trkpt>
      <trkpt lat="42.74411" lon="1.60916">
        <ele>1629.821</ele>
        <time>2022-02-20T13:17:11Z</time>
      </trkpt>
      <trkpt lat="42.74412" lon="1.60915">
        <ele>1630.004</ele>
        <time>2022-02-20T13:17:13Z</time>
      </trkpt>
      <trkpt lat="42.74412" lon="1.60913">
        <ele>1629.633</ele>
        <time>2022-02-20T13:17:15Z</time>
      </trkpt>
      <trkpt lat="42.74413" lon="1.60911">
        <ele>1629.169</ele>
        <time>2022-02-20T13:17:17Z</time>
      </trkpt>
      <trkpt lat="42.74413" lon="1.6091">
        <ele>1629.135</ele>
        <time>2022-02-20T13:17:19Z</time>
      </trkpt>
      <trkpt lat="42.74412" lon="1.6091">
        <ele>1629.108</ele>
        <time>2022-02-20T13:17:21Z</time>
      </trkpt>
      <trkpt lat="42.74412" lon="1.6091">
        <ele>1628.847</ele>
        <time>2022-02-20T13:17:23Z</time>
      </trkpt>
      <trkpt lat="42.74412" lon="1.60909">
        <ele>1628.552</ele>
        <time>2022-02-20T13:17:25Z</time>
      </trkpt>
      <trkpt lat="42.74412" lon="1.60909">
        <ele>1627.926</ele>
        <time>2022-02-20T13:17:27Z</time>
      </trkpt>
      <trkpt lat="42.74412" lon="1.60908">
        <ele>1627.788</ele>
        <time>2022-02-20T13:17:29Z</time>
      </trkpt>
      <trkpt lat="42.74412" lon="1.60908">
        <ele>1627.792</ele>
        <time>2022-02-20T13:17:31Z</time>
      </trkpt>
      <trkpt lat="42.74411" lon="1.60907">
        <ele>1628.284</ele>
        <time>2022-02-20T13:17:33Z</time>
      </trkpt>
      <trkpt lat="42.7441" lon="1.60907">
        <ele>1627.705</ele>
        <time>2022-02-20T13:17:35Z</time>
      </trkpt>
      <trkpt lat="42.74408" lon="1.60907">
        <ele>1627.476</ele>
        <time>2022-02-20T13:17:37Z</time>
      </trkpt>
      <trkpt lat="42.74407" lon="1.60906">
        <ele>1626.396</ele>
        <time>2022-02-20T13:17:39Z</time>
      </trkpt>
      <trkpt lat="42.74406" lon="1.60905">
        <ele>1625.703</ele>
        <time>2022-02-20T13:17:41Z</time>
      </trkpt>
      <trkpt lat="42.74406" lon="1.60904">
        <ele>1626.238</ele>
        <time>2022-02-20T13:17:43Z</time>
      </trkpt>
      <trkpt lat="42.74408" lon="1.60903">
        <ele>1625.813</ele>
        <time>2022-02-20T13:17:45Z</time>
      </trkpt>
      <trkpt lat="42.74407" lon="1.60902">
        <ele>1625.668</ele>
        <time>2022-02-20T13:17:47Z</time>
      </trkpt>
      <trkpt lat="42.74407" lon="1.60901">
        <ele>1624.771</ele>
        <time>2022-02-20T13:17:49Z</time>
      </trkpt>
      <trkpt lat="42.74407" lon="1.60901">
        <ele>1624.783</ele>
        <time>2022-02-20T13:17:51Z</time>
      </trkpt>
      <trkpt lat="42.74407" lon="1.609">
        <ele>1623.866</ele>
        <time>2022-02-20T13:17:53Z</time>
      </trkpt>
      <trkpt lat="42.74408" lon="1.60901">
        <ele>1623.006</ele>
        <time>2022-02-20T13:17:55Z</time>
      </trkpt>
      <trkpt lat="42.74408" lon="1.60899">
        <ele>1623.382</ele>
        <time>2022-02-20T13:17:57Z</time>
      </trkpt>
      <trkpt lat="42.74408" lon="1.60897">
        <ele>1623.056</ele>
        <time>2022-02-20T13:17:59Z</time>
      </trkpt>
      <trkpt lat="42.74409" lon="1.60894">
        <ele>1623.756</ele>
        <time>2022-02-20T13:18:01Z</time>
      </trkpt>
      <trkpt lat="42.74409" lon="1.60892">
        <ele>1623.637</ele>
        <time>2022-02-20T13:18:03Z</time>
      </trkpt>
      <trkpt lat="42.74409" lon="1.60891">
        <ele>1624.246</ele>
        <time>2022-02-20T13:18:05Z</time>
      </trkpt>
      <trkpt lat="42.74408" lon="1.6089">
        <ele>1624.382</ele>
        <time>2022-02-20T13:18:07Z</time>
      </trkpt>
      <trkpt lat="42.74407" lon="1.60889">
        <ele>1624.199</ele>
        <time>2022-02-20T13:18:09Z</time>
      </trkpt>
      <trkpt lat="42.74407" lon="1.60888">
        <ele>1623.246</ele>
        <time>2022-02-20T13:18:11Z</time>
      </trkpt>
      <trkpt lat="42.74407" lon="1.60887">
        <ele>1622.876</ele>
        <time>2022-02-20T13:18:13Z</time>
      </trkpt>
      <trkpt lat="42.74407" lon="1.60886">
        <ele>1622.938</ele>
        <time>2022-02-20T13:18:15Z</time>
      </trkpt>
      <trkpt lat="42.74406" lon="1.60886">
        <ele>1621.738</ele>
        <time>2022-02-20T13:18:17Z</time>
      </trkpt>
      <trkpt lat="42.74405" lon="1.60887">
        <ele>1621.198</ele>
        <time>2022-02-20T13:18:19Z</time>
      </trkpt>
      <trkpt lat="42.74404" lon="1.60886">
        <ele>1620.86</ele>
        <time>2022-02-20T13:18:21Z</time>
      </trkpt>
      <trkpt lat="42.74404" lon="1.60886">
        <ele>1619.963</ele>
        <time>2022-02-20T13:18:23Z</time>
      </trkpt>
      <trkpt lat="42.74403" lon="1.60885">
        <ele>1619.714</ele>
        <time>2022-02-20T13:18:25Z</time>
      </trkpt>
      <trkpt lat="42.74403" lon="1.60885">
        <ele>1619.449</ele>
        <time>2022-02-20T13:18:27Z</time>
      </trkpt>
      <trkpt lat="42.74402" lon="1.60884">
        <ele>1618.72</ele>
        <time>2022-02-20T13:18:29Z</time>
      </trkpt>
      <trkpt lat="42.74401" lon="1.60883">
        <ele>1619.215</ele>
        <time>2022-02-20T13:18:31Z</time>
      </trkpt>
      <trkpt lat="42.744" lon="1.60882">
        <ele>1618.769</ele>
        <time>2022-02-20T13:18:33Z</time>
      </trkpt>
      <trkpt lat="42.74398" lon="1.60881">
        <ele>1618.905</ele>
        <time>2022-02-20T13:18:35Z</time>
      </trkpt>
      <trkpt lat="42.74396" lon="1.6088">
        <ele>1619.197</ele>
        <time>2022-02-20T13:18:37Z</time>
      </trkpt>
      <trkpt lat="42.74395" lon="1.6088">
        <ele>1618.677</ele>
        <time>2022-02-20T13:18:39Z</time>
      </trkpt>
      <trkpt lat="42.74394" lon="1.6088">
        <ele>1617.987</ele>
        <time>2022-02-20T13:18:41Z</time>
      </trkpt>
      <trkpt lat="42.74393" lon="1.60881">
        <ele>1617.454</ele>
        <time>2022-02-20T13:18:43Z</time>
      </trkpt>
      <trkpt lat="42.74392" lon="1.6088">
        <ele>1617.411</ele>
        <time>2022-02-20T13:18:45Z</time>
      </trkpt>
      <trkpt lat="42.74392" lon="1.6088">
        <ele>1617.588</ele>
        <time>2022-02-20T13:18:47Z</time>
      </trkpt>
      <trkpt lat="42.74392" lon="1.60879">
        <ele>1617.403</ele>
        <time>2022-02-20T13:18:49Z</time>
      </trkpt>
      <trkpt lat="42.74392" lon="1.60877">
        <ele>1617.759</ele>
        <time>2022-02-20T13:18:51Z</time>
      </trkpt>
      <trkpt lat="42.74391" lon="1.60876">
        <ele>1617.181</ele>
        <time>2022-02-20T13:18:53Z</time>
      </trkpt>
      <trkpt lat="42.74391" lon="1.60875">
        <ele>1616.013</ele>
        <time>2022-02-20T13:18:55Z</time>
      </trkpt>
      <trkpt lat="42.7439" lon="1.60876">
        <ele>1615.648</ele>
        <time>2022-02-20T13:18:57Z</time>
      </trkpt>
      <trkpt lat="42.74388" lon="1.60876">
        <ele>1615.121</ele>
        <time>2022-02-20T13:18:59Z</time>
      </trkpt>
      <trkpt lat="42.74387" lon="1.60876">
        <ele>1614.099</ele>
        <time>2022-02-20T13:19:01Z</time>
      </trkpt>
      <trkpt lat="42.74387" lon="1.60876">
        <ele>1612.533</ele>
        <time>2022-02-20T13:19:03Z</time>
      </trkpt>
      <trkpt lat="42.74387" lon="1.60876">
        <ele>1612.712</ele>
        <time>2022-02-20T13:19:05Z</time>
      </trkpt>
      <trkpt lat="42.74386" lon="1.60874">
        <ele>1613.61</ele>
        <time>2022-02-20T13:19:07Z</time>
      </trkpt>
      <trkpt lat="42.74386" lon="1.60874">
        <ele>1612.079</ele>
        <time>2022-02-20T13:19:09Z</time>
      </trkpt>
      <trkpt lat="42.74385" lon="1.60874">
        <ele>1612.02</ele>
        <time>2022-02-20T13:19:11Z</time>
      </trkpt>
      <trkpt lat="42.74385" lon="1.60873">
        <ele>1613.715</ele>
        <time>2022-02-20T13:19:13Z</time>
      </trkpt>
      <trkpt lat="42.74385" lon="1.60874">
        <ele>1613.699</ele>
        <time>2022-02-20T13:19:15Z</time>
      </trkpt>
      <trkpt lat="42.74385" lon="1.60874">
        <ele>1613.707</ele>
        <time>2022-02-20T13:19:17Z</time>
      </trkpt>
      <trkpt lat="42.74385" lon="1.60874">
        <ele>1613.716</ele>
        <time>2022-02-20T13:19:19Z</time>
      </trkpt>
      <trkpt lat="42.74385" lon="1.60874">
        <ele>1613.714</ele>
        <time>2022-02-20T13:19:21Z</time>
      </trkpt>
      <trkpt lat="42.74385" lon="1.60874">
        <ele>1613.715</ele>
        <time>2022-02-20T13:19:23Z</time>
      </trkpt>
      <trkpt lat="42.74385" lon="1.60874">
        <ele>1613.682</ele>
        <time>2022-02-20T13:19:25Z</time>
      </trkpt>
      <trkpt lat="42.74385" lon="1.60874">
        <ele>1613.683</ele>
        <time>2022-02-20T13:19:27Z</time>
      </trkpt>
      <trkpt lat="42.74385" lon="1.60874">
        <ele>1613.686</ele>
        <time>2022-02-20T13:19:29Z</time>
      </trkpt>
      <trkpt lat="42.74385" lon="1.60874">
        <ele>1613.676</ele>
        <time>2022-02-20T13:19:31Z</time>
      </trkpt>
      <trkpt lat="42.74385" lon="1.60873">
        <ele>1612.714</ele>
        <time>2022-02-20T13:19:33Z</time>
      </trkpt>
      <trkpt lat="42.74384" lon="1.60872">
        <ele>1612.696</ele>
        <time>2022-02-20T13:19:35Z</time>
      </trkpt>
      <trkpt lat="42.74384" lon="1.60872">
        <ele>1612.617</ele>
        <time>2022-02-20T13:19:37Z</time>
      </trkpt>
      <trkpt lat="42.74384" lon="1.60871">
        <ele>1612.27</ele>
        <time>2022-02-20T13:19:39Z</time>
      </trkpt>
      <trkpt lat="42.74383" lon="1.6087">
        <ele>1611.639</ele>
        <time>2022-02-20T13:19:41Z</time>
      </trkpt>
      <trkpt lat="42.74383" lon="1.60869">
        <ele>1610.458</ele>
        <time>2022-02-20T13:19:43Z</time>
      </trkpt>
      <trkpt lat="42.74383" lon="1.60869">
        <ele>1609.048</ele>
        <time>2022-02-20T13:19:45Z</time>
      </trkpt>
      <trkpt lat="42.74383" lon="1.60868">
        <ele>1608.805</ele>
        <time>2022-02-20T13:19:47Z</time>
      </trkpt>
      <trkpt lat="42.74383" lon="1.60867">
        <ele>1608.836</ele>
        <time>2022-02-20T13:19:49Z</time>
      </trkpt>
      <trkpt lat="42.74382" lon="1.60866">
        <ele>1609.315</ele>
        <time>2022-02-20T13:19:51Z</time>
      </trkpt>
      <trkpt lat="42.74382" lon="1.60867">
        <ele>1608.775</ele>
        <time>2022-02-20T13:19:53Z</time>
      </trkpt>
      <trkpt lat="42.74383" lon="1.60867">
        <ele>1608.776</ele>
        <time>2022-02-20T13:19:55Z</time>
      </trkpt>
      <trkpt lat="42.74383" lon="1.60867">
        <ele>1608.741</ele>
        <time>2022-02-20T13:19:57Z</time>
      </trkpt>
      <trkpt lat="42.74383" lon="1.60867">
        <ele>1608.739</ele>
        <time>2022-02-20T13:19:59Z</time>
      </trkpt>
      <trkpt lat="42.74383" lon="1.60867">
        <ele>1608.736</ele>
        <time>2022-02-20T13:20:01Z</time>
      </trkpt>
      <trkpt lat="42.74383" lon="1.60867">
        <ele>1608.744</ele>
        <time>2022-02-20T13:20:03Z</time>
      </trkpt>
      <trkpt lat="42.74383" lon="1.60867">
        <ele>1608.731</ele>
        <time>2022-02-20T13:20:05Z</time>
      </trkpt>
      <trkpt lat="42.74383" lon="1.60867">
        <ele>1608.72</ele>
        <time>2022-02-20T13:20:07Z</time>
      </trkpt>
      <trkpt lat="42.74382" lon="1.60866">
        <ele>1609.138</ele>
        <time>2022-02-20T13:20:09Z</time>
      </trkpt>
      <trkpt lat="42.74382" lon="1.60866">
        <ele>1607.889</ele>
        <time>2022-02-20T13:20:11Z</time>
      </trkpt>
      <trkpt lat="42.74382" lon="1.60865">
        <ele>1607.675</ele>
        <time>2022-02-20T13:20:13Z</time>
      </trkpt>
      <trkpt lat="42.74382" lon="1.60865">
        <ele>1607.683</ele>
        <time>2022-02-20T13:20:15Z</time>
      </trkpt>
      <trkpt lat="42.74382" lon="1.60865">
        <ele>1607.684</ele>
        <time>2022-02-20T13:20:17Z</time>
      </trkpt>
      <trkpt lat="42.74382" lon="1.60865">
        <ele>1607.679</ele>
        <time>2022-02-20T13:20:19Z</time>
      </trkpt>
      <trkpt lat="42.74382" lon="1.60865">
        <ele>1607.69</ele>
        <time>2022-02-20T13:20:21Z</time>
      </trkpt>
      <trkpt lat="42.74382" lon="1.60865">
        <ele>1607.508</ele>
        <time>2022-02-20T13:20:23Z</time>
      </trkpt>
      <trkpt lat="42.74382" lon="1.60865">
        <ele>1607.06</ele>
        <time>2022-02-20T13:20:25Z</time>
      </trkpt>
      <trkpt lat="42.74382" lon="1.60865">
        <ele>1607.059</ele>
        <time>2022-02-20T13:20:27Z</time>
      </trkpt>
      <trkpt lat="42.74382" lon="1.60865">
        <ele>1607.061</ele>
        <time>2022-02-20T13:20:29Z</time>
      </trkpt>
      <trkpt lat="42.74382" lon="1.60865">
        <ele>1607.054</ele>
        <time>2022-02-20T13:20:31Z</time>
      </trkpt>
      <trkpt lat="42.74382" lon="1.60865">
        <ele>1607.058</ele>
        <time>2022-02-20T13:20:33Z</time>
      </trkpt>
      <trkpt lat="42.74382" lon="1.60865">
        <ele>1607.07</ele>
        <time>2022-02-20T13:20:35Z</time>
      </trkpt>
      <trkpt lat="42.74382" lon="1.60865">
        <ele>1607.732</ele>
        <time>2022-02-20T13:20:37Z</time>
      </trkpt>
      <trkpt lat="42.74381" lon="1.60865">
        <ele>1607.296</ele>
        <time>2022-02-20T13:20:39Z</time>
      </trkpt>
      <trkpt lat="42.74381" lon="1.60865">
        <ele>1607.292</ele>
        <time>2022-02-20T13:20:41Z</time>
      </trkpt>
      <trkpt lat="42.74381" lon="1.60865">
        <ele>1607.289</ele>
        <time>2022-02-20T13:20:43Z</time>
      </trkpt>
      <trkpt lat="42.74381" lon="1.60865">
        <ele>1607.277</ele>
        <time>2022-02-20T13:20:45Z</time>
      </trkpt>
      <trkpt lat="42.74381" lon="1.60865">
        <ele>1607.465</ele>
        <time>2022-02-20T13:20:47Z</time>
      </trkpt>
      <trkpt lat="42.74381" lon="1.60865">
        <ele>1607.651</ele>
        <time>2022-02-20T13:20:49Z</time>
      </trkpt>
      <trkpt lat="42.74381" lon="1.60865">
        <ele>1607.646</ele>
        <time>2022-02-20T13:20:50Z</time>
      </trkpt>
      <trkpt lat="42.74381" lon="1.60865">
        <ele>1607.649</ele>
        <time>2022-02-20T13:20:53Z</time>
      </trkpt>
      <trkpt lat="42.74381" lon="1.60865">
        <ele>1607.643</ele>
        <time>2022-02-20T13:20:55Z</time>
      </trkpt>
      <trkpt lat="42.74381" lon="1.60865">
        <ele>1607.642</ele>
        <time>2022-02-20T13:20:57Z</time>
      </trkpt>
      <trkpt lat="42.74381" lon="1.60865">
        <ele>1607.647</ele>
        <time>2022-02-20T13:20:59Z</time>
      </trkpt>
      <trkpt lat="42.74381" lon="1.60865">
        <ele>1607.641</ele>
        <time>2022-02-20T13:21:01Z</time>
      </trkpt>
      <trkpt lat="42.74381" lon="1.60866">
        <ele>1607.545</ele>
        <time>2022-02-20T13:21:03Z</time>
      </trkpt>
      <trkpt lat="42.7438" lon="1.60866">
        <ele>1607.192</ele>
        <time>2022-02-20T13:21:05Z</time>
      </trkpt>
      <trkpt lat="42.7438" lon="1.60865">
        <ele>1607.151</ele>
        <time>2022-02-20T13:21:07Z</time>
      </trkpt>
      <trkpt lat="42.7438" lon="1.60865">
        <ele>1607.148</ele>
        <time>2022-02-20T13:21:09Z</time>
      </trkpt>
      <trkpt lat="42.7438" lon="1.60865">
        <ele>1606.841</ele>
        <time>2022-02-20T13:21:11Z</time>
      </trkpt>
      <trkpt lat="42.7438" lon="1.60864">
        <ele>1606.656</ele>
        <time>2022-02-20T13:21:13Z</time>
      </trkpt>
      <trkpt lat="42.7438" lon="1.60863">
        <ele>1606.356</ele>
        <time>2022-02-20T13:21:15Z</time>
      </trkpt>
      <trkpt lat="42.7438" lon="1.60862">
        <ele>1606.264</ele>
        <time>2022-02-20T13:21:17Z</time>
      </trkpt>
      <trkpt lat="42.7438" lon="1.60861">
        <ele>1606.022</ele>
        <time>2022-02-20T13:21:19Z</time>
      </trkpt>
      <trkpt lat="42.7438" lon="1.60859">
        <ele>1605.746</ele>
        <time>2022-02-20T13:21:21Z</time>
      </trkpt>
      <trkpt lat="42.7438" lon="1.60857">
        <ele>1605.119</ele>
        <time>2022-02-20T13:21:23Z</time>
      </trkpt>
      <trkpt lat="42.74381" lon="1.60856">
        <ele>1604.925</ele>
        <time>2022-02-20T13:21:25Z</time>
      </trkpt>
      <trkpt lat="42.74381" lon="1.60856">
        <ele>1604.909</ele>
        <time>2022-02-20T13:21:27Z</time>
      </trkpt>
      <trkpt lat="42.74381" lon="1.60855">
        <ele>1604.348</ele>
        <time>2022-02-20T13:21:29Z</time>
      </trkpt>
      <trkpt lat="42.74382" lon="1.60855">
        <ele>1603.903</ele>
        <time>2022-02-20T13:21:31Z</time>
      </trkpt>
      <trkpt lat="42.74382" lon="1.60855">
        <ele>1603.567</ele>
        <time>2022-02-20T13:21:33Z</time>
      </trkpt>
      <trkpt lat="42.74382" lon="1.60853">
        <ele>1603.337</ele>
        <time>2022-02-20T13:21:35Z</time>
      </trkpt>
      <trkpt lat="42.74382" lon="1.60852">
        <ele>1602.753</ele>
        <time>2022-02-20T13:21:37Z</time>
      </trkpt>
      <trkpt lat="42.74382" lon="1.6085">
        <ele>1602.334</ele>
        <time>2022-02-20T13:21:39Z</time>
      </trkpt>
      <trkpt lat="42.74382" lon="1.60847">
        <ele>1601.892</ele>
        <time>2022-02-20T13:21:41Z</time>
      </trkpt>
      <trkpt lat="42.74382" lon="1.60846">
        <ele>1601.536</ele>
        <time>2022-02-20T13:21:43Z</time>
      </trkpt>
      <trkpt lat="42.74381" lon="1.60844">
        <ele>1601.125</ele>
        <time>2022-02-20T13:21:45Z</time>
      </trkpt>
      <trkpt lat="42.74381" lon="1.60842">
        <ele>1600.762</ele>
        <time>2022-02-20T13:21:47Z</time>
      </trkpt>
      <trkpt lat="42.74381" lon="1.60841">
        <ele>1600.481</ele>
        <time>2022-02-20T13:21:49Z</time>
      </trkpt>
      <trkpt lat="42.74381" lon="1.60839">
        <ele>1600.665</ele>
        <time>2022-02-20T13:21:51Z</time>
      </trkpt>
      <trkpt lat="42.7438" lon="1.60837">
        <ele>1600.021</ele>
        <time>2022-02-20T13:21:53Z</time>
      </trkpt>
      <trkpt lat="42.74379" lon="1.60836">
        <ele>1599.426</ele>
        <time>2022-02-20T13:21:55Z</time>
      </trkpt>
      <trkpt lat="42.74378" lon="1.60835">
        <ele>1598.322</ele>
        <time>2022-02-20T13:21:57Z</time>
      </trkpt>
      <trkpt lat="42.74377" lon="1.60834">
        <ele>1597.253</ele>
        <time>2022-02-20T13:21:59Z</time>
      </trkpt>
      <trkpt lat="42.74377" lon="1.60832">
        <ele>1596.374</ele>
        <time>2022-02-20T13:22:01Z</time>
      </trkpt>
      <trkpt lat="42.74377" lon="1.60831">
        <ele>1595.762</ele>
        <time>2022-02-20T13:22:03Z</time>
      </trkpt>
      <trkpt lat="42.74376" lon="1.6083">
        <ele>1594.688</ele>
        <time>2022-02-20T13:22:05Z</time>
      </trkpt>
      <trkpt lat="42.74374" lon="1.6083">
        <ele>1593.84</ele>
        <time>2022-02-20T13:22:07Z</time>
      </trkpt>
      <trkpt lat="42.74373" lon="1.60829">
        <ele>1592.982</ele>
        <time>2022-02-20T13:22:09Z</time>
      </trkpt>
      <trkpt lat="42.74372" lon="1.60828">
        <ele>1592.127</ele>
        <time>2022-02-20T13:22:11Z</time>
      </trkpt>
      <trkpt lat="42.74371" lon="1.60827">
        <ele>1591.433</ele>
        <time>2022-02-20T13:22:13Z</time>
      </trkpt>
      <trkpt lat="42.74369" lon="1.60826">
        <ele>1591.673</ele>
        <time>2022-02-20T13:22:15Z</time>
      </trkpt>
      <trkpt lat="42.74368" lon="1.60826">
        <ele>1591.037</ele>
        <time>2022-02-20T13:22:17Z</time>
      </trkpt>
      <trkpt lat="42.74368" lon="1.60824">
        <ele>1590.308</ele>
        <time>2022-02-20T13:22:19Z</time>
      </trkpt>
      <trkpt lat="42.74367" lon="1.60823">
        <ele>1589.95</ele>
        <time>2022-02-20T13:22:21Z</time>
      </trkpt>
      <trkpt lat="42.74366" lon="1.60823">
        <ele>1589.263</ele>
        <time>2022-02-20T13:22:23Z</time>
      </trkpt>
      <trkpt lat="42.74365" lon="1.60823">
        <ele>1588.775</ele>
        <time>2022-02-20T13:22:25Z</time>
      </trkpt>
      <trkpt lat="42.74364" lon="1.60822">
        <ele>1588.911</ele>
        <time>2022-02-20T13:22:27Z</time>
      </trkpt>
      <trkpt lat="42.74363" lon="1.60822">
        <ele>1587.957</ele>
        <time>2022-02-20T13:22:29Z</time>
      </trkpt>
      <trkpt lat="42.74362" lon="1.60822">
        <ele>1587.558</ele>
        <time>2022-02-20T13:22:31Z</time>
      </trkpt>
      <trkpt lat="42.74362" lon="1.6082">
        <ele>1586.459</ele>
        <time>2022-02-20T13:22:33Z</time>
      </trkpt>
      <trkpt lat="42.74362" lon="1.60819">
        <ele>1585.677</ele>
        <time>2022-02-20T13:22:35Z</time>
      </trkpt>
      <trkpt lat="42.74361" lon="1.60818">
        <ele>1585.334</ele>
        <time>2022-02-20T13:22:37Z</time>
      </trkpt>
      <trkpt lat="42.74359" lon="1.60819">
        <ele>1584.547</ele>
        <time>2022-02-20T13:22:39Z</time>
      </trkpt>
      <trkpt lat="42.74358" lon="1.60818">
        <ele>1583.703</ele>
        <time>2022-02-20T13:22:41Z</time>
      </trkpt>
      <trkpt lat="42.74356" lon="1.60818">
        <ele>1582.929</ele>
        <time>2022-02-20T13:22:43Z</time>
      </trkpt>
      <trkpt lat="42.74355" lon="1.60817">
        <ele>1582.367</ele>
        <time>2022-02-20T13:22:45Z</time>
      </trkpt>
      <trkpt lat="42.74355" lon="1.60817">
        <ele>1581.916</ele>
        <time>2022-02-20T13:22:47Z</time>
      </trkpt>
      <trkpt lat="42.74353" lon="1.60817">
        <ele>1581.396</ele>
        <time>2022-02-20T13:22:49Z</time>
      </trkpt>
      <trkpt lat="42.74351" lon="1.60816">
        <ele>1580.373</ele>
        <time>2022-02-20T13:22:51Z</time>
      </trkpt>
      <trkpt lat="42.7435" lon="1.60815">
        <ele>1581.192</ele>
        <time>2022-02-20T13:22:53Z</time>
      </trkpt>
      <trkpt lat="42.74349" lon="1.60813">
        <ele>1582.031</ele>
        <time>2022-02-20T13:22:55Z</time>
      </trkpt>
      <trkpt lat="42.7435" lon="1.60813">
        <ele>1582.193</ele>
        <time>2022-02-20T13:22:57Z</time>
      </trkpt>
      <trkpt lat="42.7435" lon="1.60813">
        <ele>1581.864</ele>
        <time>2022-02-20T13:22:59Z</time>
      </trkpt>
      <trkpt lat="42.7435" lon="1.60813">
        <ele>1581.844</ele>
        <time>2022-02-20T13:23:01Z</time>
      </trkpt>
      <trkpt lat="42.74349" lon="1.60812">
        <ele>1581.429</ele>
        <time>2022-02-20T13:23:03Z</time>
      </trkpt>
      <trkpt lat="42.74349" lon="1.6081">
        <ele>1580.963</ele>
        <time>2022-02-20T13:23:05Z</time>
      </trkpt>
      <trkpt lat="42.74348" lon="1.60808">
        <ele>1581.242</ele>
        <time>2022-02-20T13:23:07Z</time>
      </trkpt>
      <trkpt lat="42.74348" lon="1.60807">
        <ele>1581.211</ele>
        <time>2022-02-20T13:23:09Z</time>
      </trkpt>
      <trkpt lat="42.74347" lon="1.60806">
        <ele>1580.167</ele>
        <time>2022-02-20T13:23:11Z</time>
      </trkpt>
      <trkpt lat="42.74346" lon="1.60806">
        <ele>1579.725</ele>
        <time>2022-02-20T13:23:13Z</time>
      </trkpt>
      <trkpt lat="42.74345" lon="1.60805">
        <ele>1579.597</ele>
        <time>2022-02-20T13:23:15Z</time>
      </trkpt>
      <trkpt lat="42.74344" lon="1.60803">
        <ele>1578.387</ele>
        <time>2022-02-20T13:23:17Z</time>
      </trkpt>
      <trkpt lat="42.74343" lon="1.60802">
        <ele>1577.313</ele>
        <time>2022-02-20T13:23:19Z</time>
      </trkpt>
      <trkpt lat="42.74343" lon="1.60801">
        <ele>1576.323</ele>
        <time>2022-02-20T13:23:21Z</time>
      </trkpt>
      <trkpt lat="42.74342" lon="1.60802">
        <ele>1575.581</ele>
        <time>2022-02-20T13:23:23Z</time>
      </trkpt>
      <trkpt lat="42.7434" lon="1.60802">
        <ele>1575.039</ele>
        <time>2022-02-20T13:23:25Z</time>
      </trkpt>
      <trkpt lat="42.74339" lon="1.60802">
        <ele>1573.682</ele>
        <time>2022-02-20T13:23:27Z</time>
      </trkpt>
      <trkpt lat="42.74338" lon="1.60802">
        <ele>1573.226</ele>
        <time>2022-02-20T13:23:29Z</time>
      </trkpt>
      <trkpt lat="42.74337" lon="1.60802">
        <ele>1572.808</ele>
        <time>2022-02-20T13:23:31Z</time>
      </trkpt>
      <trkpt lat="42.74336" lon="1.60802">
        <ele>1570.799</ele>
        <time>2022-02-20T13:23:33Z</time>
      </trkpt>
      <trkpt lat="42.74335" lon="1.60801">
        <ele>1571.217</ele>
        <time>2022-02-20T13:23:35Z</time>
      </trkpt>
      <trkpt lat="42.74334" lon="1.608">
        <ele>1570.433</ele>
        <time>2022-02-20T13:23:37Z</time>
      </trkpt>
      <trkpt lat="42.74333" lon="1.608">
        <ele>1569.838</ele>
        <time>2022-02-20T13:23:39Z</time>
      </trkpt>
      <trkpt lat="42.74332" lon="1.60801">
        <ele>1568.993</ele>
        <time>2022-02-20T13:23:41Z</time>
      </trkpt>
      <trkpt lat="42.74331" lon="1.60802">
        <ele>1566.775</ele>
        <time>2022-02-20T13:23:43Z</time>
      </trkpt>
      <trkpt lat="42.7433" lon="1.60804">
        <ele>1565.034</ele>
        <time>2022-02-20T13:23:45Z</time>
      </trkpt>
      <trkpt lat="42.74329" lon="1.60805">
        <ele>1564.356</ele>
        <time>2022-02-20T13:23:47Z</time>
      </trkpt>
      <trkpt lat="42.74328" lon="1.60806">
        <ele>1565.017</ele>
        <time>2022-02-20T13:23:49Z</time>
      </trkpt>
      <trkpt lat="42.74327" lon="1.60808">
        <ele>1565.381</ele>
        <time>2022-02-20T13:23:51Z</time>
      </trkpt>
      <trkpt lat="42.74326" lon="1.60809">
        <ele>1565.707</ele>
        <time>2022-02-20T13:23:53Z</time>
      </trkpt>
      <trkpt lat="42.74324" lon="1.6081">
        <ele>1564.573</ele>
        <time>2022-02-20T13:23:55Z</time>
      </trkpt>
      <trkpt lat="42.74323" lon="1.60811">
        <ele>1564.345</ele>
        <time>2022-02-20T13:23:57Z</time>
      </trkpt>
      <trkpt lat="42.74322" lon="1.60813">
        <ele>1563.842</ele>
        <time>2022-02-20T13:23:59Z</time>
      </trkpt>
      <trkpt lat="42.74321" lon="1.60814">
        <ele>1563.894</ele>
        <time>2022-02-20T13:24:01Z</time>
      </trkpt>
      <trkpt lat="42.74319" lon="1.60815">
        <ele>1564.553</ele>
        <time>2022-02-20T13:24:03Z</time>
      </trkpt>
      <trkpt lat="42.74319" lon="1.60814">
        <ele>1564.321</ele>
        <time>2022-02-20T13:24:05Z</time>
      </trkpt>
      <trkpt lat="42.74318" lon="1.60815">
        <ele>1564.034</ele>
        <time>2022-02-20T13:24:07Z</time>
      </trkpt>
      <trkpt lat="42.74318" lon="1.60815">
        <ele>1563.988</ele>
        <time>2022-02-20T13:24:09Z</time>
      </trkpt>
      <trkpt lat="42.74318" lon="1.60815">
        <ele>1564.004</ele>
        <time>2022-02-20T13:24:11Z</time>
      </trkpt>
      <trkpt lat="42.74318" lon="1.60815">
        <ele>1564.003</ele>
        <time>2022-02-20T13:24:13Z</time>
      </trkpt>
      <trkpt lat="42.74318" lon="1.60815">
        <ele>1564.001</ele>
        <time>2022-02-20T13:24:15Z</time>
      </trkpt>
      <trkpt lat="42.74318" lon="1.60815">
        <ele>1563.994</ele>
        <time>2022-02-20T13:24:17Z</time>
      </trkpt>
      <trkpt lat="42.74318" lon="1.60814">
        <ele>1564.154</ele>
        <time>2022-02-20T13:24:19Z</time>
      </trkpt>
      <trkpt lat="42.74318" lon="1.60814">
        <ele>1564.146</ele>
        <time>2022-02-20T13:24:21Z</time>
      </trkpt>
      <trkpt lat="42.74318" lon="1.60814">
        <ele>1564.141</ele>
        <time>2022-02-20T13:24:23Z</time>
      </trkpt>
      <trkpt lat="42.74318" lon="1.60814">
        <ele>1564.136</ele>
        <time>2022-02-20T13:24:25Z</time>
      </trkpt>
      <trkpt lat="42.74318" lon="1.60814">
        <ele>1564.121</ele>
        <time>2022-02-20T13:24:27Z</time>
      </trkpt>
      <trkpt lat="42.74318" lon="1.60814">
        <ele>1564.688</ele>
        <time>2022-02-20T13:24:29Z</time>
      </trkpt>
      <trkpt lat="42.74317" lon="1.60815">
        <ele>1564.549</ele>
        <time>2022-02-20T13:24:31Z</time>
      </trkpt>
      <trkpt lat="42.74315" lon="1.60814">
        <ele>1564.281</ele>
        <time>2022-02-20T13:24:33Z</time>
      </trkpt>
      <trkpt lat="42.74314" lon="1.60814">
        <ele>1564.893</ele>
        <time>2022-02-20T13:24:35Z</time>
      </trkpt>
      <trkpt lat="42.74313" lon="1.60812">
        <ele>1564.447</ele>
        <time>2022-02-20T13:24:37Z</time>
      </trkpt>
      <trkpt lat="42.74312" lon="1.60812">
        <ele>1563.811</ele>
        <time>2022-02-20T13:24:39Z</time>
      </trkpt>
      <trkpt lat="42.74311" lon="1.6081">
        <ele>1563.823</ele>
        <time>2022-02-20T13:24:41Z</time>
      </trkpt>
      <trkpt lat="42.7431" lon="1.60811">
        <ele>1563.986</ele>
        <time>2022-02-20T13:24:43Z</time>
      </trkpt>
      <trkpt lat="42.74309" lon="1.60811">
        <ele>1563.793</ele>
        <time>2022-02-20T13:24:45Z</time>
      </trkpt>
      <trkpt lat="42.74308" lon="1.60811">
        <ele>1563.702</ele>
        <time>2022-02-20T13:24:47Z</time>
      </trkpt>
      <trkpt lat="42.74308" lon="1.60809">
        <ele>1564.72</ele>
        <time>2022-02-20T13:24:49Z</time>
      </trkpt>
      <trkpt lat="42.74308" lon="1.60808">
        <ele>1564.213</ele>
        <time>2022-02-20T13:24:51Z</time>
      </trkpt>
      <trkpt lat="42.74307" lon="1.60807">
        <ele>1564.017</ele>
        <time>2022-02-20T13:24:53Z</time>
      </trkpt>
      <trkpt lat="42.74308" lon="1.60806">
        <ele>1562.33</ele>
        <time>2022-02-20T13:24:55Z</time>
      </trkpt>
      <trkpt lat="42.74308" lon="1.60804">
        <ele>1562.625</ele>
        <time>2022-02-20T13:24:57Z</time>
      </trkpt>
      <trkpt lat="42.74308" lon="1.60803">
        <ele>1561.98</ele>
        <time>2022-02-20T13:24:59Z</time>
      </trkpt>
      <trkpt lat="42.74307" lon="1.60802">
        <ele>1561.748</ele>
        <time>2022-02-20T13:25:01Z</time>
      </trkpt>
      <trkpt lat="42.74305" lon="1.60801">
        <ele>1561.381</ele>
        <time>2022-02-20T13:25:03Z</time>
      </trkpt>
      <trkpt lat="42.74305" lon="1.60802">
        <ele>1561.405</ele>
        <time>2022-02-20T13:25:05Z</time>
      </trkpt>
      <trkpt lat="42.74303" lon="1.60802">
        <ele>1560.313</ele>
        <time>2022-02-20T13:25:07Z</time>
      </trkpt>
      <trkpt lat="42.74301" lon="1.60801">
        <ele>1559.644</ele>
        <time>2022-02-20T13:25:09Z</time>
      </trkpt>
      <trkpt lat="42.74301" lon="1.60803">
        <ele>1559.554</ele>
        <time>2022-02-20T13:25:11Z</time>
      </trkpt>
      <trkpt lat="42.74299" lon="1.60801">
        <ele>1558.694</ele>
        <time>2022-02-20T13:25:13Z</time>
      </trkpt>
      <trkpt lat="42.74298" lon="1.60817">
        <ele>1558.065</ele>
        <time>2022-02-20T13:25:15Z</time>
      </trkpt>
      <trkpt lat="42.74297" lon="1.60817">
        <ele>1557.84</ele>
        <time>2022-02-20T13:25:17Z</time>
      </trkpt>
      <trkpt lat="42.74295" lon="1.60818">
        <ele>1557.63</ele>
        <time>2022-02-20T13:25:19Z</time>
      </trkpt>
      <trkpt lat="42.74294" lon="1.60818">
        <ele>1557.915</ele>
        <time>2022-02-20T13:25:21Z</time>
      </trkpt>
      <trkpt lat="42.74294" lon="1.60818">
        <ele>1557.604</ele>
        <time>2022-02-20T13:25:23Z</time>
      </trkpt>
      <trkpt lat="42.74293" lon="1.60817">
        <ele>1557.21</ele>
        <time>2022-02-20T13:25:25Z</time>
      </trkpt>
      <trkpt lat="42.74292" lon="1.60816">
        <ele>1556.597</ele>
        <time>2022-02-20T13:25:27Z</time>
      </trkpt>
      <trkpt lat="42.74291" lon="1.60817">
        <ele>1556.568</ele>
        <time>2022-02-20T13:25:29Z</time>
      </trkpt>
      <trkpt lat="42.74291" lon="1.60819">
        <ele>1556.62</ele>
        <time>2022-02-20T13:25:31Z</time>
      </trkpt>
      <trkpt lat="42.74291" lon="1.6082">
        <ele>1556.952</ele>
        <time>2022-02-20T13:25:33Z</time>
      </trkpt>
      <trkpt lat="42.74291" lon="1.6082">
        <ele>1556.959</ele>
        <time>2022-02-20T13:25:35Z</time>
      </trkpt>
      <trkpt lat="42.74291" lon="1.6082">
        <ele>1556.964</ele>
        <time>2022-02-20T13:25:37Z</time>
      </trkpt>
      <trkpt lat="42.74291" lon="1.60819">
        <ele>1556.697</ele>
        <time>2022-02-20T13:25:39Z</time>
      </trkpt>
      <trkpt lat="42.74291" lon="1.60819">
        <ele>1556.686</ele>
        <time>2022-02-20T13:25:41Z</time>
      </trkpt>
      <trkpt lat="42.74291" lon="1.60819">
        <ele>1556.671</ele>
        <time>2022-02-20T13:25:43Z</time>
      </trkpt>
      <trkpt lat="42.74291" lon="1.60819">
        <ele>1556.656</ele>
        <time>2022-02-20T13:25:45Z</time>
      </trkpt>
      <trkpt lat="42.74291" lon="1.6082">
        <ele>1556.624</ele>
        <time>2022-02-20T13:25:47Z</time>
      </trkpt>
      <trkpt lat="42.74291" lon="1.6082">
        <ele>1556.307</ele>
        <time>2022-02-20T13:25:49Z</time>
      </trkpt>
      <trkpt lat="42.74291" lon="1.6082">
        <ele>1556.305</ele>
        <time>2022-02-20T13:25:51Z</time>
      </trkpt>
      <trkpt lat="42.74291" lon="1.60819">
        <ele>1556.301</ele>
        <time>2022-02-20T13:25:53Z</time>
      </trkpt>
      <trkpt lat="42.74291" lon="1.60819">
        <ele>1556.295</ele>
        <time>2022-02-20T13:25:55Z</time>
      </trkpt>
      <trkpt lat="42.74291" lon="1.60819">
        <ele>1556.069</ele>
        <time>2022-02-20T13:25:57Z</time>
      </trkpt>
      <trkpt lat="42.7429" lon="1.60818">
        <ele>1555.32</ele>
        <time>2022-02-20T13:25:59Z</time>
      </trkpt>
      <trkpt lat="42.7429" lon="1.60817">
        <ele>1554.297</ele>
        <time>2022-02-20T13:26:01Z</time>
      </trkpt>
      <trkpt lat="42.74289" lon="1.60815">
        <ele>1553.601</ele>
        <time>2022-02-20T13:26:03Z</time>
      </trkpt>
      <trkpt lat="42.74289" lon="1.60814">
        <ele>1552.969</ele>
        <time>2022-02-20T13:26:05Z</time>
      </trkpt>
      <trkpt lat="42.74289" lon="1.60813">
        <ele>1552.181</ele>
        <time>2022-02-20T13:26:07Z</time>
      </trkpt>
      <trkpt lat="42.74288" lon="1.60812">
        <ele>1551.975</ele>
        <time>2022-02-20T13:26:09Z</time>
      </trkpt>
      <trkpt lat="42.74287" lon="1.6081">
        <ele>1551.337</ele>
        <time>2022-02-20T13:26:11Z</time>
      </trkpt>
      <trkpt lat="42.74286" lon="1.60809">
        <ele>1551.167</ele>
        <time>2022-02-20T13:26:13Z</time>
      </trkpt>
      <trkpt lat="42.74285" lon="1.60809">
        <ele>1550.684</ele>
        <time>2022-02-20T13:26:15Z</time>
      </trkpt>
      <trkpt lat="42.74284" lon="1.60809">
        <ele>1549.906</ele>
        <time>2022-02-20T13:26:17Z</time>
      </trkpt>
      <trkpt lat="42.74283" lon="1.6081">
        <ele>1549.074</ele>
        <time>2022-02-20T13:26:19Z</time>
      </trkpt>
      <trkpt lat="42.74282" lon="1.60809">
        <ele>1548.831</ele>
        <time>2022-02-20T13:26:21Z</time>
      </trkpt>
      <trkpt lat="42.74281" lon="1.60808">
        <ele>1548.172</ele>
        <time>2022-02-20T13:26:23Z</time>
      </trkpt>
      <trkpt lat="42.74281" lon="1.60807">
        <ele>1547.826</ele>
        <time>2022-02-20T13:26:25Z</time>
      </trkpt>
      <trkpt lat="42.7428" lon="1.60806">
        <ele>1548.345</ele>
        <time>2022-02-20T13:26:27Z</time>
      </trkpt>
      <trkpt lat="42.7428" lon="1.60804">
        <ele>1547.756</ele>
        <time>2022-02-20T13:26:29Z</time>
      </trkpt>
      <trkpt lat="42.74279" lon="1.60803">
        <ele>1548.276</ele>
        <time>2022-02-20T13:26:31Z</time>
      </trkpt>
      <trkpt lat="42.74279" lon="1.60801">
        <ele>1547.96</ele>
        <time>2022-02-20T13:26:33Z</time>
      </trkpt>
      <trkpt lat="42.74279" lon="1.608">
        <ele>1547.421</ele>
        <time>2022-02-20T13:26:35Z</time>
      </trkpt>
      <trkpt lat="42.74278" lon="1.60798">
        <ele>1546.832</ele>
        <time>2022-02-20T13:26:37Z</time>
      </trkpt>
      <trkpt lat="42.74277" lon="1.60796">
        <ele>1547.426</ele>
        <time>2022-02-20T13:26:39Z</time>
      </trkpt>
      <trkpt lat="42.74276" lon="1.60794">
        <ele>1547.754</ele>
        <time>2022-02-20T13:26:41Z</time>
      </trkpt>
      <trkpt lat="42.74276" lon="1.60793">
        <ele>1547.816</ele>
        <time>2022-02-20T13:26:43Z</time>
      </trkpt>
      <trkpt lat="42.74275" lon="1.60791">
        <ele>1547.88</ele>
        <time>2022-02-20T13:26:45Z</time>
      </trkpt>
      <trkpt lat="42.74274" lon="1.60789">
        <ele>1547.899</ele>
        <time>2022-02-20T13:26:47Z</time>
      </trkpt>
      <trkpt lat="42.74273" lon="1.60788">
        <ele>1547.951</ele>
        <time>2022-02-20T13:26:49Z</time>
      </trkpt>
      <trkpt lat="42.74272" lon="1.60785">
        <ele>1547.761</ele>
        <time>2022-02-20T13:26:51Z</time>
      </trkpt>
      <trkpt lat="42.74271" lon="1.60783">
        <ele>1547.776</ele>
        <time>2022-02-20T13:26:53Z</time>
      </trkpt>
      <trkpt lat="42.7427" lon="1.60782">
        <ele>1547.037</ele>
        <time>2022-02-20T13:26:55Z</time>
      </trkpt>
      <trkpt lat="42.74271" lon="1.6078">
        <ele>1546.157</ele>
        <time>2022-02-20T13:26:57Z</time>
      </trkpt>
      <trkpt lat="42.74271" lon="1.60779">
        <ele>1545.622</ele>
        <time>2022-02-20T13:26:59Z</time>
      </trkpt>
      <trkpt lat="42.7427" lon="1.60777">
        <ele>1545.399</ele>
        <time>2022-02-20T13:27:01Z</time>
      </trkpt>
      <trkpt lat="42.7427" lon="1.60775">
        <ele>1544.527</ele>
        <time>2022-02-20T13:27:03Z</time>
      </trkpt>
      <trkpt lat="42.7427" lon="1.60775">
        <ele>1542.62</ele>
        <time>2022-02-20T13:27:05Z</time>
      </trkpt>
      <trkpt lat="42.74269" lon="1.60773">
        <ele>1542.806</ele>
        <time>2022-02-20T13:27:07Z</time>
      </trkpt>
      <trkpt lat="42.74269" lon="1.60771">
        <ele>1542.859</ele>
        <time>2022-02-20T13:27:09Z</time>
      </trkpt>
      <trkpt lat="42.74268" lon="1.60769">
        <ele>1542.021</ele>
        <time>2022-02-20T13:27:11Z</time>
      </trkpt>
      <trkpt lat="42.74268" lon="1.60767">
        <ele>1542.056</ele>
        <time>2022-02-20T13:27:13Z</time>
      </trkpt>
      <trkpt lat="42.74267" lon="1.60765">
        <ele>1542.14</ele>
        <time>2022-02-20T13:27:15Z</time>
      </trkpt>
      <trkpt lat="42.74266" lon="1.60763">
        <ele>1541.943</ele>
        <time>2022-02-20T13:27:17Z</time>
      </trkpt>
      <trkpt lat="42.74266" lon="1.60761">
        <ele>1541.12</ele>
        <time>2022-02-20T13:27:19Z</time>
      </trkpt>
      <trkpt lat="42.74267" lon="1.60759">
        <ele>1540.546</ele>
        <time>2022-02-20T13:27:21Z</time>
      </trkpt>
      <trkpt lat="42.74267" lon="1.60757">
        <ele>1540.495</ele>
        <time>2022-02-20T13:27:23Z</time>
      </trkpt>
      <trkpt lat="42.74267" lon="1.60756">
        <ele>1539.56</ele>
        <time>2022-02-20T13:27:25Z</time>
      </trkpt>
      <trkpt lat="42.74267" lon="1.60756">
        <ele>1538.72</ele>
        <time>2022-02-20T13:27:27Z</time>
      </trkpt>
      <trkpt lat="42.74267" lon="1.60754">
        <ele>1538.042</ele>
        <time>2022-02-20T13:27:29Z</time>
      </trkpt>
      <trkpt lat="42.74266" lon="1.60751">
        <ele>1538.579</ele>
        <time>2022-02-20T13:27:31Z</time>
      </trkpt>
      <trkpt lat="42.74266" lon="1.6075">
        <ele>1538.243</ele>
        <time>2022-02-20T13:27:33Z</time>
      </trkpt>
      <trkpt lat="42.74265" lon="1.60749">
        <ele>1536.934</ele>
        <time>2022-02-20T13:27:35Z</time>
      </trkpt>
      <trkpt lat="42.74264" lon="1.60748">
        <ele>1537.003</ele>
        <time>2022-02-20T13:27:37Z</time>
      </trkpt>
      <trkpt lat="42.74264" lon="1.60746">
        <ele>1536.525</ele>
        <time>2022-02-20T13:27:39Z</time>
      </trkpt>
      <trkpt lat="42.74264" lon="1.60748">
        <ele>1535.569</ele>
        <time>2022-02-20T13:27:41Z</time>
      </trkpt>
      <trkpt lat="42.74264" lon="1.60748">
        <ele>1535.575</ele>
        <time>2022-02-20T13:27:43Z</time>
      </trkpt>
      <trkpt lat="42.74264" lon="1.60747">
        <ele>1535.179</ele>
        <time>2022-02-20T13:27:45Z</time>
      </trkpt>
      <trkpt lat="42.74265" lon="1.60747">
        <ele>1534.772</ele>
        <time>2022-02-20T13:27:47Z</time>
      </trkpt>
      <trkpt lat="42.74265" lon="1.60745">
        <ele>1535.073</ele>
        <time>2022-02-20T13:27:49Z</time>
      </trkpt>
      <trkpt lat="42.74265" lon="1.60744">
        <ele>1534.599</ele>
        <time>2022-02-20T13:27:51Z</time>
      </trkpt>
      <trkpt lat="42.74265" lon="1.60744">
        <ele>1534.495</ele>
        <time>2022-02-20T13:27:53Z</time>
      </trkpt>
      <trkpt lat="42.74265" lon="1.60741">
        <ele>1535.839</ele>
        <time>2022-02-20T13:27:55Z</time>
      </trkpt>
      <trkpt lat="42.74264" lon="1.60739">
        <ele>1535.244</ele>
        <time>2022-02-20T13:27:57Z</time>
      </trkpt>
      <trkpt lat="42.74264" lon="1.60739">
        <ele>1535.355</ele>
        <time>2022-02-20T13:27:59Z</time>
      </trkpt>
      <trkpt lat="42.74264" lon="1.60737">
        <ele>1535.565</ele>
        <time>2022-02-20T13:28:01Z</time>
      </trkpt>
      <trkpt lat="42.74264" lon="1.60734">
        <ele>1534.864</ele>
        <time>2022-02-20T13:28:03Z</time>
      </trkpt>
      <trkpt lat="42.74265" lon="1.60734">
        <ele>1533.924</ele>
        <time>2022-02-20T13:28:05Z</time>
      </trkpt>
      <trkpt lat="42.74266" lon="1.60733">
        <ele>1534.775</ele>
        <time>2022-02-20T13:28:07Z</time>
      </trkpt>
      <trkpt lat="42.74267" lon="1.60731">
        <ele>1534.615</ele>
        <time>2022-02-20T13:28:09Z</time>
      </trkpt>
      <trkpt lat="42.74268" lon="1.6073">
        <ele>1533.722</ele>
        <time>2022-02-20T13:28:11Z</time>
      </trkpt>
      <trkpt lat="42.74268" lon="1.60728">
        <ele>1533.885</ele>
        <time>2022-02-20T13:28:13Z</time>
      </trkpt>
      <trkpt lat="42.74268" lon="1.60726">
        <ele>1533.955</ele>
        <time>2022-02-20T13:28:15Z</time>
      </trkpt>
      <trkpt lat="42.74268" lon="1.60724">
        <ele>1533.684</ele>
        <time>2022-02-20T13:28:17Z</time>
      </trkpt>
      <trkpt lat="42.74267" lon="1.6072">
        <ele>1534.688</ele>
        <time>2022-02-20T13:28:19Z</time>
      </trkpt>
      <trkpt lat="42.74268" lon="1.60718">
        <ele>1534.975</ele>
        <time>2022-02-20T13:28:21Z</time>
      </trkpt>
      <trkpt lat="42.74268" lon="1.60717">
        <ele>1533.664</ele>
        <time>2022-02-20T13:28:23Z</time>
      </trkpt>
      <trkpt lat="42.74267" lon="1.60715">
        <ele>1532.897</ele>
        <time>2022-02-20T13:28:25Z</time>
      </trkpt>
      <trkpt lat="42.74267" lon="1.60712">
        <ele>1532.453</ele>
        <time>2022-02-20T13:28:27Z</time>
      </trkpt>
      <trkpt lat="42.74266" lon="1.6071">
        <ele>1532.506</ele>
        <time>2022-02-20T13:28:29Z</time>
      </trkpt>
      <trkpt lat="42.74265" lon="1.60708">
        <ele>1531.762</ele>
        <time>2022-02-20T13:28:31Z</time>
      </trkpt>
      <trkpt lat="42.74264" lon="1.60707">
        <ele>1530.879</ele>
        <time>2022-02-20T13:28:33Z</time>
      </trkpt>
      <trkpt lat="42.74262" lon="1.60706">
        <ele>1530.337</ele>
        <time>2022-02-20T13:28:35Z</time>
      </trkpt>
      <trkpt lat="42.74262" lon="1.60705">
        <ele>1528.883</ele>
        <time>2022-02-20T13:28:37Z</time>
      </trkpt>
      <trkpt lat="42.74261" lon="1.60704">
        <ele>1528.013</ele>
        <time>2022-02-20T13:28:39Z</time>
      </trkpt>
      <trkpt lat="42.74261" lon="1.60704">
        <ele>1527.947</ele>
        <time>2022-02-20T13:28:41Z</time>
      </trkpt>
      <trkpt lat="42.74261" lon="1.60704">
        <ele>1527.945</ele>
        <time>2022-02-20T13:28:43Z</time>
      </trkpt>
      <trkpt lat="42.74261" lon="1.60704">
        <ele>1527.945</ele>
        <time>2022-02-20T13:28:45Z</time>
      </trkpt>
      <trkpt lat="42.74261" lon="1.60704">
        <ele>1527.944</ele>
        <time>2022-02-20T13:28:47Z</time>
      </trkpt>
      <trkpt lat="42.74261" lon="1.60704">
        <ele>1527.932</ele>
        <time>2022-02-20T13:28:49Z</time>
      </trkpt>
      <trkpt lat="42.74261" lon="1.60704">
        <ele>1528.166</ele>
        <time>2022-02-20T13:28:51Z</time>
      </trkpt>
      <trkpt lat="42.74261" lon="1.60704">
        <ele>1527.635</ele>
        <time>2022-02-20T13:28:53Z</time>
      </trkpt>
      <trkpt lat="42.74261" lon="1.60704">
        <ele>1527.618</ele>
        <time>2022-02-20T13:28:55Z</time>
      </trkpt>
      <trkpt lat="42.74261" lon="1.60704">
        <ele>1527.857</ele>
        <time>2022-02-20T13:28:57Z</time>
      </trkpt>
      <trkpt lat="42.74261" lon="1.60703">
        <ele>1526.212</ele>
        <time>2022-02-20T13:28:59Z</time>
      </trkpt>
      <trkpt lat="42.74261" lon="1.60703">
        <ele>1524.712</ele>
        <time>2022-02-20T13:29:01Z</time>
      </trkpt>
      <trkpt lat="42.74261" lon="1.60703">
        <ele>1524.247</ele>
        <time>2022-02-20T13:29:03Z</time>
      </trkpt>
      <trkpt lat="42.7426" lon="1.60703">
        <ele>1523.675</ele>
        <time>2022-02-20T13:29:05Z</time>
      </trkpt>
      <trkpt lat="42.7426" lon="1.60703">
        <ele>1522.96</ele>
        <time>2022-02-20T13:29:07Z</time>
      </trkpt>
      <trkpt lat="42.74259" lon="1.60704">
        <ele>1522.474</ele>
        <time>2022-02-20T13:29:09Z</time>
      </trkpt>
      <trkpt lat="42.74258" lon="1.60704">
        <ele>1521.518</ele>
        <time>2022-02-20T13:29:11Z</time>
      </trkpt>
      <trkpt lat="42.74258" lon="1.60704">
        <ele>1521.528</ele>
        <time>2022-02-20T13:29:13Z</time>
      </trkpt>
      <trkpt lat="42.74258" lon="1.60704">
        <ele>1521.533</ele>
        <time>2022-02-20T13:29:15Z</time>
      </trkpt>
      <trkpt lat="42.74258" lon="1.60704">
        <ele>1521.525</ele>
        <time>2022-02-20T13:29:17Z</time>
      </trkpt>
      <trkpt lat="42.74258" lon="1.60705">
        <ele>1521.213</ele>
        <time>2022-02-20T13:29:19Z</time>
      </trkpt>
      <trkpt lat="42.74258" lon="1.60705">
        <ele>1521.196</ele>
        <time>2022-02-20T13:29:21Z</time>
      </trkpt>
      <trkpt lat="42.74258" lon="1.60705">
        <ele>1521.195</ele>
        <time>2022-02-20T13:29:23Z</time>
      </trkpt>
      <trkpt lat="42.74258" lon="1.60705">
        <ele>1521.205</ele>
        <time>2022-02-20T13:29:25Z</time>
      </trkpt>
      <trkpt lat="42.74258" lon="1.60705">
        <ele>1521.208</ele>
        <time>2022-02-20T13:29:27Z</time>
      </trkpt>
      <trkpt lat="42.74258" lon="1.60705">
        <ele>1521.219</ele>
        <time>2022-02-20T13:29:29Z</time>
      </trkpt>
      <trkpt lat="42.74258" lon="1.60705">
        <ele>1521.222</ele>
        <time>2022-02-20T13:29:31Z</time>
      </trkpt>
      <trkpt lat="42.74258" lon="1.60705">
        <ele>1521.232</ele>
        <time>2022-02-20T13:29:33Z</time>
      </trkpt>
      <trkpt lat="42.74258" lon="1.60705">
        <ele>1521.236</ele>
        <time>2022-02-20T13:29:35Z</time>
      </trkpt>
      <trkpt lat="42.74258" lon="1.60705">
        <ele>1521.241</ele>
        <time>2022-02-20T13:29:37Z</time>
      </trkpt>
      <trkpt lat="42.74258" lon="1.60705">
        <ele>1521.24</ele>
        <time>2022-02-20T13:29:39Z</time>
      </trkpt>
      <trkpt lat="42.74258" lon="1.60705">
        <ele>1521.241</ele>
        <time>2022-02-20T13:29:41Z</time>
      </trkpt>
      <trkpt lat="42.74258" lon="1.60705">
        <ele>1521.24</ele>
        <time>2022-02-20T13:29:43Z</time>
      </trkpt>
      <trkpt lat="42.74258" lon="1.60705">
        <ele>1521.24</ele>
        <time>2022-02-20T13:29:45Z</time>
      </trkpt>
      <trkpt lat="42.74258" lon="1.60705">
        <ele>1521.239</ele>
        <time>2022-02-20T13:29:47Z</time>
      </trkpt>
      <trkpt lat="42.74258" lon="1.60705">
        <ele>1521.24</ele>
        <time>2022-02-20T13:29:49Z</time>
      </trkpt>
      <trkpt lat="42.74258" lon="1.60705">
        <ele>1521.236</ele>
        <time>2022-02-20T13:29:51Z</time>
      </trkpt>
      <trkpt lat="42.74258" lon="1.60705">
        <ele>1521.232</ele>
        <time>2022-02-20T13:29:53Z</time>
      </trkpt>
      <trkpt lat="42.74258" lon="1.60705">
        <ele>1521.331</ele>
        <time>2022-02-20T13:29:55Z</time>
      </trkpt>
      <trkpt lat="42.74258" lon="1.60705">
        <ele>1521.327</ele>
        <time>2022-02-20T13:29:57Z</time>
      </trkpt>
      <trkpt lat="42.74258" lon="1.60705">
        <ele>1521.327</ele>
        <time>2022-02-20T13:29:59Z</time>
      </trkpt>
      <trkpt lat="42.74258" lon="1.60705">
        <ele>1521.329</ele>
        <time>2022-02-20T13:30:01Z</time>
      </trkpt>
      <trkpt lat="42.74258" lon="1.60705">
        <ele>1520.995</ele>
        <time>2022-02-20T13:30:03Z</time>
      </trkpt>
      <trkpt lat="42.74257" lon="1.60705">
        <ele>1520.41</ele>
        <time>2022-02-20T13:30:05Z</time>
      </trkpt>
      <trkpt lat="42.74257" lon="1.60705">
        <ele>1520.574</ele>
        <time>2022-02-20T13:30:07Z</time>
      </trkpt>
      <trkpt lat="42.74257" lon="1.60704">
        <ele>1520.568</ele>
        <time>2022-02-20T13:30:09Z</time>
      </trkpt>
      <trkpt lat="42.74257" lon="1.60704">
        <ele>1520.563</ele>
        <time>2022-02-20T13:30:11Z</time>
      </trkpt>
      <trkpt lat="42.74257" lon="1.60704">
        <ele>1520.563</ele>
        <time>2022-02-20T13:30:13Z</time>
      </trkpt>
      <trkpt lat="42.74257" lon="1.60704">
        <ele>1520.56</ele>
        <time>2022-02-20T13:30:15Z</time>
      </trkpt>
      <trkpt lat="42.74257" lon="1.60704">
        <ele>1520.558</ele>
        <time>2022-02-20T13:30:17Z</time>
      </trkpt>
      <trkpt lat="42.74257" lon="1.60704">
        <ele>1520.245</ele>
        <time>2022-02-20T13:30:19Z</time>
      </trkpt>
      <trkpt lat="42.74257" lon="1.60704">
        <ele>1520.244</ele>
        <time>2022-02-20T13:30:21Z</time>
      </trkpt>
      <trkpt lat="42.74258" lon="1.60703">
        <ele>1519.913</ele>
        <time>2022-02-20T13:30:23Z</time>
      </trkpt>
      <trkpt lat="42.74258" lon="1.60703">
        <ele>1519.989</ele>
        <time>2022-02-20T13:30:25Z</time>
      </trkpt>
      <trkpt lat="42.74258" lon="1.60702">
        <ele>1520.096</ele>
        <time>2022-02-20T13:30:27Z</time>
      </trkpt>
      <trkpt lat="42.74258" lon="1.60702">
        <ele>1520.088</ele>
        <time>2022-02-20T13:30:29Z</time>
      </trkpt>
      <trkpt lat="42.74258" lon="1.60702">
        <ele>1520.092</ele>
        <time>2022-02-20T13:30:31Z</time>
      </trkpt>
      <trkpt lat="42.74258" lon="1.60702">
        <ele>1520.095</ele>
        <time>2022-02-20T13:30:33Z</time>
      </trkpt>
      <trkpt lat="42.74258" lon="1.60702">
        <ele>1520.091</ele>
        <time>2022-02-20T13:30:35Z</time>
      </trkpt>
      <trkpt lat="42.74258" lon="1.60702">
        <ele>1520.09</ele>
        <time>2022-02-20T13:30:37Z</time>
      </trkpt>
      <trkpt lat="42.74258" lon="1.60702">
        <ele>1520.09</ele>
        <time>2022-02-20T13:30:39Z</time>
      </trkpt>
      <trkpt lat="42.74258" lon="1.60702">
        <ele>1520.09</ele>
        <time>2022-02-20T13:30:41Z</time>
      </trkpt>
      <trkpt lat="42.74258" lon="1.60702">
        <ele>1520.091</ele>
        <time>2022-02-20T13:30:43Z</time>
      </trkpt>
      <trkpt lat="42.74258" lon="1.60702">
        <ele>1520.084</ele>
        <time>2022-02-20T13:30:45Z</time>
      </trkpt>
      <trkpt lat="42.74258" lon="1.60702">
        <ele>1520.079</ele>
        <time>2022-02-20T13:30:47Z</time>
      </trkpt>
      <trkpt lat="42.74258" lon="1.60702">
        <ele>1520.076</ele>
        <time>2022-02-20T13:30:49Z</time>
      </trkpt>
      <trkpt lat="42.74258" lon="1.60702">
        <ele>1520.079</ele>
        <time>2022-02-20T13:30:51Z</time>
      </trkpt>
      <trkpt lat="42.74258" lon="1.60702">
        <ele>1520.077</ele>
        <time>2022-02-20T13:30:53Z</time>
      </trkpt>
      <trkpt lat="42.74258" lon="1.60702">
        <ele>1520.076</ele>
        <time>2022-02-20T13:30:55Z</time>
      </trkpt>
      <trkpt lat="42.74258" lon="1.60702">
        <ele>1520.072</ele>
        <time>2022-02-20T13:30:57Z</time>
      </trkpt>
      <trkpt lat="42.74258" lon="1.60702">
        <ele>1520.069</ele>
        <time>2022-02-20T13:30:59Z</time>
      </trkpt>
      <trkpt lat="42.74258" lon="1.60702">
        <ele>1520.068</ele>
        <time>2022-02-20T13:31:01Z</time>
      </trkpt>
      <trkpt lat="42.74258" lon="1.60702">
        <ele>1520.068</ele>
        <time>2022-02-20T13:31:03Z</time>
      </trkpt>
      <trkpt lat="42.74258" lon="1.60702">
        <ele>1520.068</ele>
        <time>2022-02-20T13:31:05Z</time>
      </trkpt>
      <trkpt lat="42.74258" lon="1.60702">
        <ele>1520.07</ele>
        <time>2022-02-20T13:31:07Z</time>
      </trkpt>
      <trkpt lat="42.74258" lon="1.60702">
        <ele>1520.068</ele>
        <time>2022-02-20T13:31:09Z</time>
      </trkpt>
      <trkpt lat="42.74258" lon="1.60702">
        <ele>1520.067</ele>
        <time>2022-02-20T13:31:11Z</time>
      </trkpt>
      <trkpt lat="42.74258" lon="1.60702">
        <ele>1520.065</ele>
        <time>2022-02-20T13:31:13Z</time>
      </trkpt>
      <trkpt lat="42.74258" lon="1.60702">
        <ele>1520.067</ele>
        <time>2022-02-20T13:31:15Z</time>
      </trkpt>
      <trkpt lat="42.74258" lon="1.60702">
        <ele>1520.064</ele>
        <time>2022-02-20T13:31:17Z</time>
      </trkpt>
      <trkpt lat="42.74258" lon="1.60702">
        <ele>1520.067</ele>
        <time>2022-02-20T13:31:19Z</time>
      </trkpt>
      <trkpt lat="42.74258" lon="1.60702">
        <ele>1520.072</ele>
        <time>2022-02-20T13:31:21Z</time>
      </trkpt>
      <trkpt lat="42.74258" lon="1.60702">
        <ele>1520.079</ele>
        <time>2022-02-20T13:31:23Z</time>
      </trkpt>
      <trkpt lat="42.74258" lon="1.60702">
        <ele>1520.084</ele>
        <time>2022-02-20T13:31:25Z</time>
      </trkpt>
      <trkpt lat="42.74258" lon="1.60702">
        <ele>1520.075</ele>
        <time>2022-02-20T13:31:27Z</time>
      </trkpt>
      <trkpt lat="42.74258" lon="1.60702">
        <ele>1520.069</ele>
        <time>2022-02-20T13:31:29Z</time>
      </trkpt>
      <trkpt lat="42.74258" lon="1.60702">
        <ele>1520.071</ele>
        <time>2022-02-20T13:31:31Z</time>
      </trkpt>
      <trkpt lat="42.74258" lon="1.60702">
        <ele>1520.074</ele>
        <time>2022-02-20T13:31:33Z</time>
      </trkpt>
      <trkpt lat="42.74258" lon="1.60702">
        <ele>1520.074</ele>
        <time>2022-02-20T13:31:35Z</time>
      </trkpt>
      <trkpt lat="42.74258" lon="1.60702">
        <ele>1520.07</ele>
        <time>2022-02-20T13:31:37Z</time>
      </trkpt>
      <trkpt lat="42.74258" lon="1.60702">
        <ele>1520.069</ele>
        <time>2022-02-20T13:31:39Z</time>
      </trkpt>
      <trkpt lat="42.74258" lon="1.60702">
        <ele>1520.073</ele>
        <time>2022-02-20T13:31:41Z</time>
      </trkpt>
      <trkpt lat="42.74258" lon="1.60702">
        <ele>1520.072</ele>
        <time>2022-02-20T13:31:43Z</time>
      </trkpt>
      <trkpt lat="42.74258" lon="1.60702">
        <ele>1520.066</ele>
        <time>2022-02-20T13:31:45Z</time>
      </trkpt>
      <trkpt lat="42.74258" lon="1.60702">
        <ele>1520.062</ele>
        <time>2022-02-20T13:31:47Z</time>
      </trkpt>
      <trkpt lat="42.74258" lon="1.60702">
        <ele>1520.071</ele>
        <time>2022-02-20T13:31:49Z</time>
      </trkpt>
      <trkpt lat="42.74258" lon="1.60702">
        <ele>1520.08</ele>
        <time>2022-02-20T13:31:51Z</time>
      </trkpt>
      <trkpt lat="42.74258" lon="1.60702">
        <ele>1520.089</ele>
        <time>2022-02-20T13:31:53Z</time>
      </trkpt>
      <trkpt lat="42.74258" lon="1.60702">
        <ele>1520.097</ele>
        <time>2022-02-20T13:31:55Z</time>
      </trkpt>
      <trkpt lat="42.74258" lon="1.60702">
        <ele>1520.105</ele>
        <time>2022-02-20T13:31:57Z</time>
      </trkpt>
      <trkpt lat="42.74258" lon="1.60702">
        <ele>1520.108</ele>
        <time>2022-02-20T13:31:59Z</time>
      </trkpt>
      <trkpt lat="42.74258" lon="1.60702">
        <ele>1520.108</ele>
        <time>2022-02-20T13:32:01Z</time>
      </trkpt>
      <trkpt lat="42.74258" lon="1.60702">
        <ele>1520.109</ele>
        <time>2022-02-20T13:32:03Z</time>
      </trkpt>
      <trkpt lat="42.74258" lon="1.60702">
        <ele>1520.111</ele>
        <time>2022-02-20T13:32:05Z</time>
      </trkpt>
      <trkpt lat="42.74258" lon="1.60702">
        <ele>1520.118</ele>
        <time>2022-02-20T13:32:07Z</time>
      </trkpt>
      <trkpt lat="42.74258" lon="1.60702">
        <ele>1520.116</ele>
        <time>2022-02-20T13:32:09Z</time>
      </trkpt>
      <trkpt lat="42.74258" lon="1.60702">
        <ele>1520.11</ele>
        <time>2022-02-20T13:32:11Z</time>
      </trkpt>
      <trkpt lat="42.74259" lon="1.60701">
        <ele>1519.81</ele>
        <time>2022-02-20T13:32:13Z</time>
      </trkpt>
      <trkpt lat="42.74259" lon="1.60701">
        <ele>1519.823</ele>
        <time>2022-02-20T13:32:15Z</time>
      </trkpt>
      <trkpt lat="42.7426" lon="1.607">
        <ele>1519.933</ele>
        <time>2022-02-20T13:32:17Z</time>
      </trkpt>
      <trkpt lat="42.7426" lon="1.60699">
        <ele>1519.929</ele>
        <time>2022-02-20T13:32:19Z</time>
      </trkpt>
      <trkpt lat="42.74261" lon="1.60698">
        <ele>1520.196</ele>
        <time>2022-02-20T13:32:21Z</time>
      </trkpt>
      <trkpt lat="42.74261" lon="1.60696">
        <ele>1519.981</ele>
        <time>2022-02-20T13:32:23Z</time>
      </trkpt>
      <trkpt lat="42.7426" lon="1.60693">
        <ele>1520.251</ele>
        <time>2022-02-20T13:32:25Z</time>
      </trkpt>
      <trkpt lat="42.74261" lon="1.60692">
        <ele>1520.319</ele>
        <time>2022-02-20T13:32:27Z</time>
      </trkpt>
      <trkpt lat="42.74261" lon="1.6069">
        <ele>1520.104</ele>
        <time>2022-02-20T13:32:29Z</time>
      </trkpt>
      <trkpt lat="42.74261" lon="1.60688">
        <ele>1520.213</ele>
        <time>2022-02-20T13:32:31Z</time>
      </trkpt>
      <trkpt lat="42.74262" lon="1.60687">
        <ele>1519.543</ele>
        <time>2022-02-20T13:32:33Z</time>
      </trkpt>
      <trkpt lat="42.74262" lon="1.60686">
        <ele>1519.233</ele>
        <time>2022-02-20T13:32:35Z</time>
      </trkpt>
      <trkpt lat="42.74262" lon="1.60685">
        <ele>1518.789</ele>
        <time>2022-02-20T13:32:37Z</time>
      </trkpt>
      <trkpt lat="42.74262" lon="1.60684">
        <ele>1518.243</ele>
        <time>2022-02-20T13:32:39Z</time>
      </trkpt>
      <trkpt lat="42.74262" lon="1.60682">
        <ele>1518.147</ele>
        <time>2022-02-20T13:32:41Z</time>
      </trkpt>
      <trkpt lat="42.74263" lon="1.60681">
        <ele>1518.01</ele>
        <time>2022-02-20T13:32:43Z</time>
      </trkpt>
      <trkpt lat="42.74264" lon="1.6068">
        <ele>1517.305</ele>
        <time>2022-02-20T13:32:45Z</time>
      </trkpt>
      <trkpt lat="42.74265" lon="1.6068">
        <ele>1516.418</ele>
        <time>2022-02-20T13:32:47Z</time>
      </trkpt>
      <trkpt lat="42.74266" lon="1.60679">
        <ele>1516.709</ele>
        <time>2022-02-20T13:32:49Z</time>
      </trkpt>
      <trkpt lat="42.74267" lon="1.60679">
        <ele>1516.945</ele>
        <time>2022-02-20T13:32:51Z</time>
      </trkpt>
      <trkpt lat="42.74267" lon="1.60678">
        <ele>1516.738</ele>
        <time>2022-02-20T13:32:53Z</time>
      </trkpt>
      <trkpt lat="42.74267" lon="1.60678">
        <ele>1516.956</ele>
        <time>2022-02-20T13:32:55Z</time>
      </trkpt>
      <trkpt lat="42.74267" lon="1.60678">
        <ele>1517.211</ele>
        <time>2022-02-20T13:32:57Z</time>
      </trkpt>
      <trkpt lat="42.74267" lon="1.60678">
        <ele>1517.196</ele>
        <time>2022-02-20T13:32:59Z</time>
      </trkpt>
      <trkpt lat="42.74267" lon="1.60678">
        <ele>1517.188</ele>
        <time>2022-02-20T13:33:01Z</time>
      </trkpt>
      <trkpt lat="42.74267" lon="1.60678">
        <ele>1517.178</ele>
        <time>2022-02-20T13:33:03Z</time>
      </trkpt>
      <trkpt lat="42.74267" lon="1.60678">
        <ele>1517.014</ele>
        <time>2022-02-20T13:33:05Z</time>
      </trkpt>
      <trkpt lat="42.74268" lon="1.60677">
        <ele>1515.851</ele>
        <time>2022-02-20T13:33:07Z</time>
      </trkpt>
      <trkpt lat="42.74269" lon="1.60677">
        <ele>1515.513</ele>
        <time>2022-02-20T13:33:09Z</time>
      </trkpt>
      <trkpt lat="42.7427" lon="1.60676">
        <ele>1515.792</ele>
        <time>2022-02-20T13:33:11Z</time>
      </trkpt>
      <trkpt lat="42.74271" lon="1.60676">
        <ele>1515.921</ele>
        <time>2022-02-20T13:33:13Z</time>
      </trkpt>
      <trkpt lat="42.74272" lon="1.60676">
        <ele>1516.15</ele>
        <time>2022-02-20T13:33:15Z</time>
      </trkpt>
      <trkpt lat="42.74272" lon="1.60675">
        <ele>1516.485</ele>
        <time>2022-02-20T13:33:17Z</time>
      </trkpt>
      <trkpt lat="42.74272" lon="1.60675">
        <ele>1515.974</ele>
        <time>2022-02-20T13:33:19Z</time>
      </trkpt>
      <trkpt lat="42.74273" lon="1.60675">
        <ele>1515.674</ele>
        <time>2022-02-20T13:33:21Z</time>
      </trkpt>
      <trkpt lat="42.74273" lon="1.60674">
        <ele>1516.051</ele>
        <time>2022-02-20T13:33:23Z</time>
      </trkpt>
      <trkpt lat="42.74274" lon="1.60673">
        <ele>1515.889</ele>
        <time>2022-02-20T13:33:25Z</time>
      </trkpt>
      <trkpt lat="42.74274" lon="1.60673">
        <ele>1515.564</ele>
        <time>2022-02-20T13:33:27Z</time>
      </trkpt>
      <trkpt lat="42.74275" lon="1.60671">
        <ele>1515.367</ele>
        <time>2022-02-20T13:33:29Z</time>
      </trkpt>
      <trkpt lat="42.74275" lon="1.60671">
        <ele>1515.27</ele>
        <time>2022-02-20T13:33:31Z</time>
      </trkpt>
      <trkpt lat="42.74275" lon="1.6067">
        <ele>1515.25</ele>
        <time>2022-02-20T13:33:33Z</time>
      </trkpt>
      <trkpt lat="42.74274" lon="1.6067">
        <ele>1515.234</ele>
        <time>2022-02-20T13:33:35Z</time>
      </trkpt>
      <trkpt lat="42.74274" lon="1.60669">
        <ele>1515.416</ele>
        <time>2022-02-20T13:33:37Z</time>
      </trkpt>
      <trkpt lat="42.74273" lon="1.6067">
        <ele>1515.198</ele>
        <time>2022-02-20T13:33:39Z</time>
      </trkpt>
      <trkpt lat="42.74273" lon="1.60671">
        <ele>1513.434</ele>
        <time>2022-02-20T13:33:41Z</time>
      </trkpt>
      <trkpt lat="42.74273" lon="1.60673">
        <ele>1510.553</ele>
        <time>2022-02-20T13:33:43Z</time>
      </trkpt>
      <trkpt lat="42.74272" lon="1.60674">
        <ele>1509.197</ele>
        <time>2022-02-20T13:33:45Z</time>
      </trkpt>
      <trkpt lat="42.74272" lon="1.60674">
        <ele>1508.675</ele>
        <time>2022-02-20T13:33:47Z</time>
      </trkpt>
      <trkpt lat="42.74271" lon="1.60673">
        <ele>1509.204</ele>
        <time>2022-02-20T13:33:49Z</time>
      </trkpt>
      <trkpt lat="42.74271" lon="1.60671">
        <ele>1509.108</ele>
        <time>2022-02-20T13:33:51Z</time>
      </trkpt>
      <trkpt lat="42.74271" lon="1.6067">
        <ele>1509.388</ele>
        <time>2022-02-20T13:33:53Z</time>
      </trkpt>
      <trkpt lat="42.7427" lon="1.60669">
        <ele>1509.192</ele>
        <time>2022-02-20T13:33:55Z</time>
      </trkpt>
      <trkpt lat="42.7427" lon="1.60667">
        <ele>1508.503</ele>
        <time>2022-02-20T13:33:57Z</time>
      </trkpt>
      <trkpt lat="42.74269" lon="1.60666">
        <ele>1509.166</ele>
        <time>2022-02-20T13:33:59Z</time>
      </trkpt>
      <trkpt lat="42.74267" lon="1.60664">
        <ele>1509.81</ele>
        <time>2022-02-20T13:34:01Z</time>
      </trkpt>
      <trkpt lat="42.74266" lon="1.60662">
        <ele>1509.668</ele>
        <time>2022-02-20T13:34:03Z</time>
      </trkpt>
      <trkpt lat="42.74266" lon="1.60659">
        <ele>1510.24</ele>
        <time>2022-02-20T13:34:05Z</time>
      </trkpt>
      <trkpt lat="42.74268" lon="1.60658">
        <ele>1509.276</ele>
        <time>2022-02-20T13:34:07Z</time>
      </trkpt>
      <trkpt lat="42.74268" lon="1.60659">
        <ele>1508.631</ele>
        <time>2022-02-20T13:34:09Z</time>
      </trkpt>
      <trkpt lat="42.74268" lon="1.60657">
        <ele>1508.237</ele>
        <time>2022-02-20T13:34:11Z</time>
      </trkpt>
      <trkpt lat="42.74268" lon="1.60655">
        <ele>1507.349</ele>
        <time>2022-02-20T13:34:13Z</time>
      </trkpt>
      <trkpt lat="42.74269" lon="1.60653">
        <ele>1507.12</ele>
        <time>2022-02-20T13:34:15Z</time>
      </trkpt>
      <trkpt lat="42.74269" lon="1.60651">
        <ele>1506.195</ele>
        <time>2022-02-20T13:34:17Z</time>
      </trkpt>
      <trkpt lat="42.7427" lon="1.60649">
        <ele>1506.624</ele>
        <time>2022-02-20T13:34:19Z</time>
      </trkpt>
      <trkpt lat="42.74271" lon="1.60648">
        <ele>1506.123</ele>
        <time>2022-02-20T13:34:21Z</time>
      </trkpt>
      <trkpt lat="42.74272" lon="1.60646">
        <ele>1506.682</ele>
        <time>2022-02-20T13:34:23Z</time>
      </trkpt>
      <trkpt lat="42.74273" lon="1.60644">
        <ele>1505.655</ele>
        <time>2022-02-20T13:34:25Z</time>
      </trkpt>
      <trkpt lat="42.74274" lon="1.60642">
        <ele>1506.135</ele>
        <time>2022-02-20T13:34:27Z</time>
      </trkpt>
      <trkpt lat="42.74275" lon="1.6064">
        <ele>1506.599</ele>
        <time>2022-02-20T13:34:29Z</time>
      </trkpt>
      <trkpt lat="42.74276" lon="1.60638">
        <ele>1506.553</ele>
        <time>2022-02-20T13:34:31Z</time>
      </trkpt>
      <trkpt lat="42.74277" lon="1.60636">
        <ele>1505.825</ele>
        <time>2022-02-20T13:34:33Z</time>
      </trkpt>
      <trkpt lat="42.74278" lon="1.60634">
        <ele>1506.059</ele>
        <time>2022-02-20T13:34:35Z</time>
      </trkpt>
      <trkpt lat="42.74278" lon="1.60632">
        <ele>1505.747</ele>
        <time>2022-02-20T13:34:37Z</time>
      </trkpt>
      <trkpt lat="42.74278" lon="1.60631">
        <ele>1505.287</ele>
        <time>2022-02-20T13:34:39Z</time>
      </trkpt>
      <trkpt lat="42.74278" lon="1.60631">
        <ele>1505.143</ele>
        <time>2022-02-20T13:34:41Z</time>
      </trkpt>
      <trkpt lat="42.74279" lon="1.6063">
        <ele>1505.789</ele>
        <time>2022-02-20T13:34:43Z</time>
      </trkpt>
      <trkpt lat="42.74279" lon="1.60629">
        <ele>1506.712</ele>
        <time>2022-02-20T13:34:45Z</time>
      </trkpt>
      <trkpt lat="42.7428" lon="1.60628">
        <ele>1506.794</ele>
        <time>2022-02-20T13:34:47Z</time>
      </trkpt>
      <trkpt lat="42.74281" lon="1.60628">
        <ele>1506.608</ele>
        <time>2022-02-20T13:34:49Z</time>
      </trkpt>
      <trkpt lat="42.74282" lon="1.60627">
        <ele>1506.81</ele>
        <time>2022-02-20T13:34:51Z</time>
      </trkpt>
      <trkpt lat="42.74283" lon="1.60628">
        <ele>1506.857</ele>
        <time>2022-02-20T13:34:53Z</time>
      </trkpt>
      <trkpt lat="42.74284" lon="1.60628">
        <ele>1506.605</ele>
        <time>2022-02-20T13:34:55Z</time>
      </trkpt>
      <trkpt lat="42.74285" lon="1.60628">
        <ele>1506.87</ele>
        <time>2022-02-20T13:34:57Z</time>
      </trkpt>
      <trkpt lat="42.74286" lon="1.6063">
        <ele>1506.756</ele>
        <time>2022-02-20T13:34:59Z</time>
      </trkpt>
      <trkpt lat="42.74286" lon="1.6063">
        <ele>1506.015</ele>
        <time>2022-02-20T13:35:01Z</time>
      </trkpt>
      <trkpt lat="42.74287" lon="1.6063">
        <ele>1506.314</ele>
        <time>2022-02-20T13:35:03Z</time>
      </trkpt>
      <trkpt lat="42.74288" lon="1.60629">
        <ele>1505.938</ele>
        <time>2022-02-20T13:35:05Z</time>
      </trkpt>
      <trkpt lat="42.74288" lon="1.60628">
        <ele>1506.321</ele>
        <time>2022-02-20T13:35:07Z</time>
      </trkpt>
      <trkpt lat="42.74288" lon="1.60628">
        <ele>1506.304</ele>
        <time>2022-02-20T13:35:09Z</time>
      </trkpt>
      <trkpt lat="42.74288" lon="1.60628">
        <ele>1506.318</ele>
        <time>2022-02-20T13:35:11Z</time>
      </trkpt>
      <trkpt lat="42.74288" lon="1.60628">
        <ele>1506.321</ele>
        <time>2022-02-20T13:35:13Z</time>
      </trkpt>
      <trkpt lat="42.74288" lon="1.60628">
        <ele>1506.319</ele>
        <time>2022-02-20T13:35:15Z</time>
      </trkpt>
      <trkpt lat="42.74288" lon="1.60628">
        <ele>1506.324</ele>
        <time>2022-02-20T13:35:17Z</time>
      </trkpt>
      <trkpt lat="42.74288" lon="1.60628">
        <ele>1506.338</ele>
        <time>2022-02-20T13:35:19Z</time>
      </trkpt>
      <trkpt lat="42.74288" lon="1.60628">
        <ele>1506.343</ele>
        <time>2022-02-20T13:35:21Z</time>
      </trkpt>
      <trkpt lat="42.74289" lon="1.60628">
        <ele>1506.863</ele>
        <time>2022-02-20T13:35:23Z</time>
      </trkpt>
      <trkpt lat="42.7429" lon="1.60628">
        <ele>1507.186</ele>
        <time>2022-02-20T13:35:25Z</time>
      </trkpt>
      <trkpt lat="42.74291" lon="1.60627">
        <ele>1506.609</ele>
        <time>2022-02-20T13:35:27Z</time>
      </trkpt>
      <trkpt lat="42.74293" lon="1.60627">
        <ele>1506.485</ele>
        <time>2022-02-20T13:35:29Z</time>
      </trkpt>
      <trkpt lat="42.74293" lon="1.60627">
        <ele>1507.113</ele>
        <time>2022-02-20T13:35:31Z</time>
      </trkpt>
      <trkpt lat="42.74293" lon="1.60627">
        <ele>1507.119</ele>
        <time>2022-02-20T13:35:33Z</time>
      </trkpt>
      <trkpt lat="42.74293" lon="1.60627">
        <ele>1507.349</ele>
        <time>2022-02-20T13:35:35Z</time>
      </trkpt>
      <trkpt lat="42.74293" lon="1.60628">
        <ele>1506.593</ele>
        <time>2022-02-20T13:35:37Z</time>
      </trkpt>
      <trkpt lat="42.74293" lon="1.60628">
        <ele>1506.638</ele>
        <time>2022-02-20T13:35:39Z</time>
      </trkpt>
      <trkpt lat="42.74294" lon="1.60628">
        <ele>1506.745</ele>
        <time>2022-02-20T13:35:41Z</time>
      </trkpt>
      <trkpt lat="42.74295" lon="1.60628">
        <ele>1507.462</ele>
        <time>2022-02-20T13:35:43Z</time>
      </trkpt>
      <trkpt lat="42.74296" lon="1.60628">
        <ele>1507.518</ele>
        <time>2022-02-20T13:35:45Z</time>
      </trkpt>
      <trkpt lat="42.74297" lon="1.60629">
        <ele>1507.531</ele>
        <time>2022-02-20T13:35:47Z</time>
      </trkpt>
      <trkpt lat="42.74297" lon="1.60629">
        <ele>1507.309</ele>
        <time>2022-02-20T13:35:49Z</time>
      </trkpt>
      <trkpt lat="42.74298" lon="1.60628">
        <ele>1507.767</ele>
        <time>2022-02-20T13:35:51Z</time>
      </trkpt>
      <trkpt lat="42.74299" lon="1.60627">
        <ele>1507.59</ele>
        <time>2022-02-20T13:35:53Z</time>
      </trkpt>
      <trkpt lat="42.743" lon="1.60626">
        <ele>1507.473</ele>
        <time>2022-02-20T13:35:55Z</time>
      </trkpt>
      <trkpt lat="42.74301" lon="1.60625">
        <ele>1507.58</ele>
        <time>2022-02-20T13:35:57Z</time>
      </trkpt>
      <trkpt lat="42.74301" lon="1.60624">
        <ele>1507.547</ele>
        <time>2022-02-20T13:35:59Z</time>
      </trkpt>
      <trkpt lat="42.74302" lon="1.60623">
        <ele>1507.144</ele>
        <time>2022-02-20T13:36:01Z</time>
      </trkpt>
      <trkpt lat="42.74303" lon="1.60623">
        <ele>1507.099</ele>
        <time>2022-02-20T13:36:03Z</time>
      </trkpt>
      <trkpt lat="42.74303" lon="1.60622">
        <ele>1507.377</ele>
        <time>2022-02-20T13:36:05Z</time>
      </trkpt>
      <trkpt lat="42.74304" lon="1.60621">
        <ele>1507.478</ele>
        <time>2022-02-20T13:36:07Z</time>
      </trkpt>
      <trkpt lat="42.74304" lon="1.60621">
        <ele>1507.708</ele>
        <time>2022-02-20T13:36:09Z</time>
      </trkpt>
      <trkpt lat="42.74305" lon="1.6062">
        <ele>1507.308</ele>
        <time>2022-02-20T13:36:11Z</time>
      </trkpt>
      <trkpt lat="42.74305" lon="1.60621">
        <ele>1507.321</ele>
        <time>2022-02-20T13:36:13Z</time>
      </trkpt>
      <trkpt lat="42.74305" lon="1.60621">
        <ele>1507.325</ele>
        <time>2022-02-20T13:36:15Z</time>
      </trkpt>
      <trkpt lat="42.74306" lon="1.6062">
        <ele>1506.929</ele>
        <time>2022-02-20T13:36:17Z</time>
      </trkpt>
      <trkpt lat="42.74307" lon="1.6062">
        <ele>1507.498</ele>
        <time>2022-02-20T13:36:19Z</time>
      </trkpt>
      <trkpt lat="42.74308" lon="1.60619">
        <ele>1507.486</ele>
        <time>2022-02-20T13:36:21Z</time>
      </trkpt>
      <trkpt lat="42.74309" lon="1.60618">
        <ele>1507.66</ele>
        <time>2022-02-20T13:36:23Z</time>
      </trkpt>
      <trkpt lat="42.74311" lon="1.60617">
        <ele>1507.823</ele>
        <time>2022-02-20T13:36:25Z</time>
      </trkpt>
      <trkpt lat="42.74312" lon="1.60617">
        <ele>1508.02</ele>
        <time>2022-02-20T13:36:27Z</time>
      </trkpt>
      <trkpt lat="42.74312" lon="1.60617">
        <ele>1507.879</ele>
        <time>2022-02-20T13:36:29Z</time>
      </trkpt>
      <trkpt lat="42.74313" lon="1.60617">
        <ele>1508.033</ele>
        <time>2022-02-20T13:36:31Z</time>
      </trkpt>
      <trkpt lat="42.74314" lon="1.60618">
        <ele>1507.411</ele>
        <time>2022-02-20T13:36:33Z</time>
      </trkpt>
      <trkpt lat="42.74314" lon="1.60618">
        <ele>1507.368</ele>
        <time>2022-02-20T13:36:35Z</time>
      </trkpt>
      <trkpt lat="42.74314" lon="1.60618">
        <ele>1507.377</ele>
        <time>2022-02-20T13:36:37Z</time>
      </trkpt>
      <trkpt lat="42.74314" lon="1.60618">
        <ele>1507.38</ele>
        <time>2022-02-20T13:36:39Z</time>
      </trkpt>
      <trkpt lat="42.74314" lon="1.60617">
        <ele>1507.545</ele>
        <time>2022-02-20T13:36:41Z</time>
      </trkpt>
      <trkpt lat="42.74315" lon="1.60616">
        <ele>1508.004</ele>
        <time>2022-02-20T13:36:43Z</time>
      </trkpt>
      <trkpt lat="42.74315" lon="1.60615">
        <ele>1507.906</ele>
        <time>2022-02-20T13:36:45Z</time>
      </trkpt>
      <trkpt lat="42.74315" lon="1.60615">
        <ele>1507.921</ele>
        <time>2022-02-20T13:36:47Z</time>
      </trkpt>
      <trkpt lat="42.74315" lon="1.60615">
        <ele>1507.926</ele>
        <time>2022-02-20T13:36:49Z</time>
      </trkpt>
      <trkpt lat="42.74315" lon="1.60614">
        <ele>1508.022</ele>
        <time>2022-02-20T13:36:51Z</time>
      </trkpt>
      <trkpt lat="42.74316" lon="1.60614">
        <ele>1508.014</ele>
        <time>2022-02-20T13:36:53Z</time>
      </trkpt>
      <trkpt lat="42.74316" lon="1.60614">
        <ele>1508.022</ele>
        <time>2022-02-20T13:36:55Z</time>
      </trkpt>
      <trkpt lat="42.74316" lon="1.60614">
        <ele>1507.697</ele>
        <time>2022-02-20T13:36:57Z</time>
      </trkpt>
      <trkpt lat="42.74316" lon="1.60614">
        <ele>1507.203</ele>
        <time>2022-02-20T13:36:59Z</time>
      </trkpt>
      <trkpt lat="42.74317" lon="1.60612">
        <ele>1506.918</ele>
        <time>2022-02-20T13:37:01Z</time>
      </trkpt>
      <trkpt lat="42.74317" lon="1.60611">
        <ele>1506.911</ele>
        <time>2022-02-20T13:37:03Z</time>
      </trkpt>
      <trkpt lat="42.74318" lon="1.6061">
        <ele>1507.325</ele>
        <time>2022-02-20T13:37:05Z</time>
      </trkpt>
      <trkpt lat="42.74318" lon="1.60609">
        <ele>1507.028</ele>
        <time>2022-02-20T13:37:07Z</time>
      </trkpt>
      <trkpt lat="42.74318" lon="1.60609">
        <ele>1506.218</ele>
        <time>2022-02-20T13:37:09Z</time>
      </trkpt>
      <trkpt lat="42.74318" lon="1.60607">
        <ele>1506.438</ele>
        <time>2022-02-20T13:37:11Z</time>
      </trkpt>
      <trkpt lat="42.74319" lon="1.60605">
        <ele>1506.423</ele>
        <time>2022-02-20T13:37:13Z</time>
      </trkpt>
      <trkpt lat="42.74319" lon="1.60603">
        <ele>1505.824</ele>
        <time>2022-02-20T13:37:15Z</time>
      </trkpt>
      <trkpt lat="42.74319" lon="1.60602">
        <ele>1504.702</ele>
        <time>2022-02-20T13:37:17Z</time>
      </trkpt>
      <trkpt lat="42.74319" lon="1.60599">
        <ele>1504.486</ele>
        <time>2022-02-20T13:37:19Z</time>
      </trkpt>
      <trkpt lat="42.74319" lon="1.606">
        <ele>1504.671</ele>
        <time>2022-02-20T13:37:21Z</time>
      </trkpt>
      <trkpt lat="42.7432" lon="1.60598">
        <ele>1503.875</ele>
        <time>2022-02-20T13:37:23Z</time>
      </trkpt>
      <trkpt lat="42.7432" lon="1.60596">
        <ele>1503.347</ele>
        <time>2022-02-20T13:37:25Z</time>
      </trkpt>
      <trkpt lat="42.74321" lon="1.60594">
        <ele>1502.766</ele>
        <time>2022-02-20T13:37:27Z</time>
      </trkpt>
      <trkpt lat="42.74321" lon="1.60593">
        <ele>1502.608</ele>
        <time>2022-02-20T13:37:29Z</time>
      </trkpt>
      <trkpt lat="42.74321" lon="1.60592">
        <ele>1502.344</ele>
        <time>2022-02-20T13:37:31Z</time>
      </trkpt>
      <trkpt lat="42.74321" lon="1.60589">
        <ele>1502.01</ele>
        <time>2022-02-20T13:37:33Z</time>
      </trkpt>
      <trkpt lat="42.74321" lon="1.60587">
        <ele>1501.825</ele>
        <time>2022-02-20T13:37:35Z</time>
      </trkpt>
      <trkpt lat="42.74322" lon="1.60585">
        <ele>1501.045</ele>
        <time>2022-02-20T13:37:37Z</time>
      </trkpt>
      <trkpt lat="42.74323" lon="1.60583">
        <ele>1500.651</ele>
        <time>2022-02-20T13:37:39Z</time>
      </trkpt>
      <trkpt lat="42.74323" lon="1.60581">
        <ele>1499.922</ele>
        <time>2022-02-20T13:37:41Z</time>
      </trkpt>
      <trkpt lat="42.74323" lon="1.6058">
        <ele>1499.884</ele>
        <time>2022-02-20T13:37:43Z</time>
      </trkpt>
      <trkpt lat="42.74323" lon="1.60577">
        <ele>1499.805</ele>
        <time>2022-02-20T13:37:45Z</time>
      </trkpt>
      <trkpt lat="42.74323" lon="1.60575">
        <ele>1499.391</ele>
        <time>2022-02-20T13:37:47Z</time>
      </trkpt>
      <trkpt lat="42.74324" lon="1.60573">
        <ele>1498.524</ele>
        <time>2022-02-20T13:37:49Z</time>
      </trkpt>
      <trkpt lat="42.74324" lon="1.60571">
        <ele>1499.064</ele>
        <time>2022-02-20T13:37:51Z</time>
      </trkpt>
      <trkpt lat="42.74324" lon="1.6057">
        <ele>1497.846</ele>
        <time>2022-02-20T13:37:53Z</time>
      </trkpt>
      <trkpt lat="42.74324" lon="1.60569">
        <ele>1498.097</ele>
        <time>2022-02-20T13:37:55Z</time>
      </trkpt>
      <trkpt lat="42.74325" lon="1.60568">
        <ele>1497.693</ele>
        <time>2022-02-20T13:37:57Z</time>
      </trkpt>
      <trkpt lat="42.74325" lon="1.60566">
        <ele>1498.335</ele>
        <time>2022-02-20T13:37:59Z</time>
      </trkpt>
      <trkpt lat="42.74326" lon="1.60564">
        <ele>1498.711</ele>
        <time>2022-02-20T13:38:01Z</time>
      </trkpt>
      <trkpt lat="42.74326" lon="1.60563">
        <ele>1498.131</ele>
        <time>2022-02-20T13:38:03Z</time>
      </trkpt>
      <trkpt lat="42.74327" lon="1.60561">
        <ele>1498.105</ele>
        <time>2022-02-20T13:38:05Z</time>
      </trkpt>
      <trkpt lat="42.74327" lon="1.60559">
        <ele>1497.469</ele>
        <time>2022-02-20T13:38:07Z</time>
      </trkpt>
      <trkpt lat="42.74327" lon="1.60557">
        <ele>1497.337</ele>
        <time>2022-02-20T13:38:09Z</time>
      </trkpt>
      <trkpt lat="42.74327" lon="1.60556">
        <ele>1496.933</ele>
        <time>2022-02-20T13:38:11Z</time>
      </trkpt>
      <trkpt lat="42.74327" lon="1.60554">
        <ele>1496.766</ele>
        <time>2022-02-20T13:38:13Z</time>
      </trkpt>
      <trkpt lat="42.74328" lon="1.60553">
        <ele>1497.295</ele>
        <time>2022-02-20T13:38:15Z</time>
      </trkpt>
      <trkpt lat="42.74329" lon="1.60551">
        <ele>1497.583</ele>
        <time>2022-02-20T13:38:17Z</time>
      </trkpt>
      <trkpt lat="42.7433" lon="1.6055">
        <ele>1497.909</ele>
        <time>2022-02-20T13:38:19Z</time>
      </trkpt>
      <trkpt lat="42.74331" lon="1.60549">
        <ele>1497.208</ele>
        <time>2022-02-20T13:38:21Z</time>
      </trkpt>
      <trkpt lat="42.7433" lon="1.60548">
        <ele>1497.224</ele>
        <time>2022-02-20T13:38:23Z</time>
      </trkpt>
      <trkpt lat="42.7433" lon="1.60546">
        <ele>1497.3</ele>
        <time>2022-02-20T13:38:25Z</time>
      </trkpt>
      <trkpt lat="42.7433" lon="1.60545">
        <ele>1496.965</ele>
        <time>2022-02-20T13:38:27Z</time>
      </trkpt>
      <trkpt lat="42.74331" lon="1.60544">
        <ele>1496.211</ele>
        <time>2022-02-20T13:38:29Z</time>
      </trkpt>
      <trkpt lat="42.74332" lon="1.60544">
        <ele>1496.366</ele>
        <time>2022-02-20T13:38:31Z</time>
      </trkpt>
      <trkpt lat="42.74333" lon="1.60545">
        <ele>1496.356</ele>
        <time>2022-02-20T13:38:33Z</time>
      </trkpt>
      <trkpt lat="42.74334" lon="1.60544">
        <ele>1497.474</ele>
        <time>2022-02-20T13:38:35Z</time>
      </trkpt>
      <trkpt lat="42.74335" lon="1.60543">
        <ele>1497.194</ele>
        <time>2022-02-20T13:38:37Z</time>
      </trkpt>
      <trkpt lat="42.74335" lon="1.60542">
        <ele>1497.641</ele>
        <time>2022-02-20T13:38:39Z</time>
      </trkpt>
      <trkpt lat="42.74336" lon="1.60541">
        <ele>1497.889</ele>
        <time>2022-02-20T13:38:41Z</time>
      </trkpt>
      <trkpt lat="42.74337" lon="1.60541">
        <ele>1498.216</ele>
        <time>2022-02-20T13:38:43Z</time>
      </trkpt>
      <trkpt lat="42.74337" lon="1.60541">
        <ele>1498.484</ele>
        <time>2022-02-20T13:38:45Z</time>
      </trkpt>
      <trkpt lat="42.74337" lon="1.60541">
        <ele>1498.486</ele>
        <time>2022-02-20T13:38:47Z</time>
      </trkpt>
      <trkpt lat="42.74337" lon="1.60541">
        <ele>1498.489</ele>
        <time>2022-02-20T13:38:49Z</time>
      </trkpt>
      <trkpt lat="42.74337" lon="1.6054">
        <ele>1498.233</ele>
        <time>2022-02-20T13:38:51Z</time>
      </trkpt>
      <trkpt lat="42.74337" lon="1.60539">
        <ele>1497.552</ele>
        <time>2022-02-20T13:38:53Z</time>
      </trkpt>
      <trkpt lat="42.74336" lon="1.60538">
        <ele>1496.754</ele>
        <time>2022-02-20T13:38:55Z</time>
      </trkpt>
      <trkpt lat="42.74336" lon="1.60538">
        <ele>1496.344</ele>
        <time>2022-02-20T13:38:57Z</time>
      </trkpt>
      <trkpt lat="42.74336" lon="1.60538">
        <ele>1496.345</ele>
        <time>2022-02-20T13:38:59Z</time>
      </trkpt>
      <trkpt lat="42.74336" lon="1.60537">
        <ele>1496.041</ele>
        <time>2022-02-20T13:39:01Z</time>
      </trkpt>
      <trkpt lat="42.74335" lon="1.60537">
        <ele>1495.219</ele>
        <time>2022-02-20T13:39:03Z</time>
      </trkpt>
      <trkpt lat="42.74334" lon="1.60534">
        <ele>1495.253</ele>
        <time>2022-02-20T13:39:05Z</time>
      </trkpt>
      <trkpt lat="42.74334" lon="1.60534">
        <ele>1495.291</ele>
        <time>2022-02-20T13:39:07Z</time>
      </trkpt>
      <trkpt lat="42.74335" lon="1.60529">
        <ele>1494.418</ele>
        <time>2022-02-20T13:39:09Z</time>
      </trkpt>
      <trkpt lat="42.74337" lon="1.60526">
        <ele>1494.022</ele>
        <time>2022-02-20T13:39:11Z</time>
      </trkpt>
      <trkpt lat="42.74337" lon="1.60524">
        <ele>1493.997</ele>
        <time>2022-02-20T13:39:13Z</time>
      </trkpt>
      <trkpt lat="42.74338" lon="1.60522">
        <ele>1493.761</ele>
        <time>2022-02-20T13:39:15Z</time>
      </trkpt>
      <trkpt lat="42.74339" lon="1.60521">
        <ele>1493.992</ele>
        <time>2022-02-20T13:39:17Z</time>
      </trkpt>
      <trkpt lat="42.7434" lon="1.60519">
        <ele>1493.545</ele>
        <time>2022-02-20T13:39:19Z</time>
      </trkpt>
      <trkpt lat="42.7434" lon="1.60518">
        <ele>1492.717</ele>
        <time>2022-02-20T13:39:21Z</time>
      </trkpt>
      <trkpt lat="42.7434" lon="1.60516">
        <ele>1492.584</ele>
        <time>2022-02-20T13:39:23Z</time>
      </trkpt>
      <trkpt lat="42.7434" lon="1.60515">
        <ele>1492.471</ele>
        <time>2022-02-20T13:39:25Z</time>
      </trkpt>
      <trkpt lat="42.74341" lon="1.60513">
        <ele>1492.316</ele>
        <time>2022-02-20T13:39:27Z</time>
      </trkpt>
      <trkpt lat="42.74342" lon="1.60511">
        <ele>1492.399</ele>
        <time>2022-02-20T13:39:29Z</time>
      </trkpt>
      <trkpt lat="42.74343" lon="1.60509">
        <ele>1492.042</ele>
        <time>2022-02-20T13:39:31Z</time>
      </trkpt>
      <trkpt lat="42.74344" lon="1.60507">
        <ele>1491.42</ele>
        <time>2022-02-20T13:39:33Z</time>
      </trkpt>
      <trkpt lat="42.74345" lon="1.60505">
        <ele>1491.217</ele>
        <time>2022-02-20T13:39:35Z</time>
      </trkpt>
      <trkpt lat="42.74347" lon="1.60503">
        <ele>1490.793</ele>
        <time>2022-02-20T13:39:37Z</time>
      </trkpt>
      <trkpt lat="42.74348" lon="1.60502">
        <ele>1490.632</ele>
        <time>2022-02-20T13:39:39Z</time>
      </trkpt>
      <trkpt lat="42.74349" lon="1.60501">
        <ele>1490.958</ele>
        <time>2022-02-20T13:39:41Z</time>
      </trkpt>
      <trkpt lat="42.74348" lon="1.605">
        <ele>1490.949</ele>
        <time>2022-02-20T13:39:43Z</time>
      </trkpt>
      <trkpt lat="42.74348" lon="1.60499">
        <ele>1490.951</ele>
        <time>2022-02-20T13:39:45Z</time>
      </trkpt>
      <trkpt lat="42.74348" lon="1.605">
        <ele>1491.336</ele>
        <time>2022-02-20T13:39:47Z</time>
      </trkpt>
      <trkpt lat="42.74348" lon="1.605">
        <ele>1491.677</ele>
        <time>2022-02-20T13:39:49Z</time>
      </trkpt>
      <trkpt lat="42.74348" lon="1.605">
        <ele>1491.676</ele>
        <time>2022-02-20T13:39:51Z</time>
      </trkpt>
      <trkpt lat="42.74348" lon="1.60501">
        <ele>1491.32</ele>
        <time>2022-02-20T13:39:53Z</time>
      </trkpt>
      <trkpt lat="42.74347" lon="1.60501">
        <ele>1491.317</ele>
        <time>2022-02-20T13:39:55Z</time>
      </trkpt>
      <trkpt lat="42.74347" lon="1.60501">
        <ele>1491.302</ele>
        <time>2022-02-20T13:39:57Z</time>
      </trkpt>
      <trkpt lat="42.74347" lon="1.60501">
        <ele>1491.294</ele>
        <time>2022-02-20T13:39:59Z</time>
      </trkpt>
      <trkpt lat="42.74347" lon="1.60501">
        <ele>1492.243</ele>
        <time>2022-02-20T13:40:01Z</time>
      </trkpt>
      <trkpt lat="42.74346" lon="1.60501">
        <ele>1492.672</ele>
        <time>2022-02-20T13:40:03Z</time>
      </trkpt>
      <trkpt lat="42.74346" lon="1.60502">
        <ele>1493.123</ele>
        <time>2022-02-20T13:40:05Z</time>
      </trkpt>
      <trkpt lat="42.74345" lon="1.60502">
        <ele>1493.205</ele>
        <time>2022-02-20T13:40:07Z</time>
      </trkpt>
      <trkpt lat="42.74345" lon="1.60502">
        <ele>1493.217</ele>
        <time>2022-02-20T13:40:09Z</time>
      </trkpt>
      <trkpt lat="42.74345" lon="1.60502">
        <ele>1493.214</ele>
        <time>2022-02-20T13:40:11Z</time>
      </trkpt>
      <trkpt lat="42.74345" lon="1.60502">
        <ele>1493.207</ele>
        <time>2022-02-20T13:40:13Z</time>
      </trkpt>
      <trkpt lat="42.74345" lon="1.60502">
        <ele>1493.232</ele>
        <time>2022-02-20T13:40:15Z</time>
      </trkpt>
      <trkpt lat="42.74345" lon="1.60502">
        <ele>1493.235</ele>
        <time>2022-02-20T13:40:17Z</time>
      </trkpt>
      <trkpt lat="42.74345" lon="1.60502">
        <ele>1493.238</ele>
        <time>2022-02-20T13:40:19Z</time>
      </trkpt>
      <trkpt lat="42.74344" lon="1.60503">
        <ele>1493.086</ele>
        <time>2022-02-20T13:40:21Z</time>
      </trkpt>
      <trkpt lat="42.74344" lon="1.60503">
        <ele>1493.213</ele>
        <time>2022-02-20T13:40:23Z</time>
      </trkpt>
      <trkpt lat="42.74344" lon="1.60504">
        <ele>1493.228</ele>
        <time>2022-02-20T13:40:25Z</time>
      </trkpt>
      <trkpt lat="42.74344" lon="1.60504">
        <ele>1493.235</ele>
        <time>2022-02-20T13:40:27Z</time>
      </trkpt>
      <trkpt lat="42.74344" lon="1.60504">
        <ele>1493.238</ele>
        <time>2022-02-20T13:40:29Z</time>
      </trkpt>
      <trkpt lat="42.74344" lon="1.60504">
        <ele>1493.24</ele>
        <time>2022-02-20T13:40:31Z</time>
      </trkpt>
      <trkpt lat="42.74344" lon="1.60504">
        <ele>1493.239</ele>
        <time>2022-02-20T13:40:33Z</time>
      </trkpt>
      <trkpt lat="42.74343" lon="1.60504">
        <ele>1492.532</ele>
        <time>2022-02-20T13:40:35Z</time>
      </trkpt>
      <trkpt lat="42.74341" lon="1.60503">
        <ele>1492.356</ele>
        <time>2022-02-20T13:40:37Z</time>
      </trkpt>
      <trkpt lat="42.7434" lon="1.60501">
        <ele>1492.089</ele>
        <time>2022-02-20T13:40:39Z</time>
      </trkpt>
      <trkpt lat="42.74339" lon="1.60499">
        <ele>1491.094</ele>
        <time>2022-02-20T13:40:41Z</time>
      </trkpt>
      <trkpt lat="42.74339" lon="1.60497">
        <ele>1490.302</ele>
        <time>2022-02-20T13:40:43Z</time>
      </trkpt>
      <trkpt lat="42.74339" lon="1.60495">
        <ele>1490.98</ele>
        <time>2022-02-20T13:40:45Z</time>
      </trkpt>
      <trkpt lat="42.7434" lon="1.60493">
        <ele>1490.91</ele>
        <time>2022-02-20T13:40:47Z</time>
      </trkpt>
      <trkpt lat="42.74341" lon="1.60494">
        <ele>1490.486</ele>
        <time>2022-02-20T13:40:49Z</time>
      </trkpt>
      <trkpt lat="42.74341" lon="1.60494">
        <ele>1489.91</ele>
        <time>2022-02-20T13:40:51Z</time>
      </trkpt>
      <trkpt lat="42.7434" lon="1.60494">
        <ele>1489.643</ele>
        <time>2022-02-20T13:40:53Z</time>
      </trkpt>
      <trkpt lat="42.74339" lon="1.60495">
        <ele>1489.029</ele>
        <time>2022-02-20T13:40:55Z</time>
      </trkpt>
      <trkpt lat="42.74339" lon="1.60495">
        <ele>1489.103</ele>
        <time>2022-02-20T13:40:57Z</time>
      </trkpt>
      <trkpt lat="42.74337" lon="1.60496">
        <ele>1487.625</ele>
        <time>2022-02-20T13:40:59Z</time>
      </trkpt>
      <trkpt lat="42.74336" lon="1.60495">
        <ele>1488.367</ele>
        <time>2022-02-20T13:41:01Z</time>
      </trkpt>
      <trkpt lat="42.74334" lon="1.60494">
        <ele>1486.585</ele>
        <time>2022-02-20T13:41:03Z</time>
      </trkpt>
      <trkpt lat="42.74333" lon="1.60493">
        <ele>1485.664</ele>
        <time>2022-02-20T13:41:05Z</time>
      </trkpt>
      <trkpt lat="42.74333" lon="1.60492">
        <ele>1485.693</ele>
        <time>2022-02-20T13:41:07Z</time>
      </trkpt>
      <trkpt lat="42.74331" lon="1.60492">
        <ele>1483.113</ele>
        <time>2022-02-20T13:41:09Z</time>
      </trkpt>
      <trkpt lat="42.74331" lon="1.60492">
        <ele>1482.917</ele>
        <time>2022-02-20T13:41:11Z</time>
      </trkpt>
      <trkpt lat="42.7433" lon="1.60493">
        <ele>1482.334</ele>
        <time>2022-02-20T13:41:13Z</time>
      </trkpt>
      <trkpt lat="42.74329" lon="1.60492">
        <ele>1480.054</ele>
        <time>2022-02-20T13:41:15Z</time>
      </trkpt>
      <trkpt lat="42.74329" lon="1.60491">
        <ele>1481.585</ele>
        <time>2022-02-20T13:41:17Z</time>
      </trkpt>
      <trkpt lat="42.74329" lon="1.6049">
        <ele>1482.029</ele>
        <time>2022-02-20T13:41:19Z</time>
      </trkpt>
      <trkpt lat="42.74329" lon="1.6049">
        <ele>1481.424</ele>
        <time>2022-02-20T13:41:21Z</time>
      </trkpt>
      <trkpt lat="42.74329" lon="1.6049">
        <ele>1481.38</ele>
        <time>2022-02-20T13:41:23Z</time>
      </trkpt>
      <trkpt lat="42.74329" lon="1.6049">
        <ele>1480.49</ele>
        <time>2022-02-20T13:41:25Z</time>
      </trkpt>
      <trkpt lat="42.7433" lon="1.60488">
        <ele>1481.457</ele>
        <time>2022-02-20T13:41:27Z</time>
      </trkpt>
      <trkpt lat="42.7433" lon="1.60488">
        <ele>1479.92</ele>
        <time>2022-02-20T13:41:29Z</time>
      </trkpt>
      <trkpt lat="42.7433" lon="1.60488">
        <ele>1479.905</ele>
        <time>2022-02-20T13:41:31Z</time>
      </trkpt>
      <trkpt lat="42.7433" lon="1.60488">
        <ele>1478.813</ele>
        <time>2022-02-20T13:41:33Z</time>
      </trkpt>
      <trkpt lat="42.74329" lon="1.60487">
        <ele>1479.56</ele>
        <time>2022-02-20T13:41:35Z</time>
      </trkpt>
      <trkpt lat="42.74329" lon="1.60486">
        <ele>1478.029</ele>
        <time>2022-02-20T13:41:37Z</time>
      </trkpt>
      <trkpt lat="42.74329" lon="1.60486">
        <ele>1478.042</ele>
        <time>2022-02-20T13:41:39Z</time>
      </trkpt>
      <trkpt lat="42.7433" lon="1.60485">
        <ele>1477.451</ele>
        <time>2022-02-20T13:41:41Z</time>
      </trkpt>
      <trkpt lat="42.74331" lon="1.60484">
        <ele>1477.036</ele>
        <time>2022-02-20T13:41:43Z</time>
      </trkpt>
      <trkpt lat="42.74331" lon="1.60483">
        <ele>1477.173</ele>
        <time>2022-02-20T13:41:45Z</time>
      </trkpt>
      <trkpt lat="42.74331" lon="1.60481">
        <ele>1477.264</ele>
        <time>2022-02-20T13:41:47Z</time>
      </trkpt>
      <trkpt lat="42.74331" lon="1.6048">
        <ele>1478.283</ele>
        <time>2022-02-20T13:41:49Z</time>
      </trkpt>
      <trkpt lat="42.74331" lon="1.60478">
        <ele>1478.39</ele>
        <time>2022-02-20T13:41:51Z</time>
      </trkpt>
      <trkpt lat="42.74332" lon="1.60477">
        <ele>1480.04</ele>
        <time>2022-02-20T13:41:53Z</time>
      </trkpt>
      <trkpt lat="42.74333" lon="1.60476">
        <ele>1481.605</ele>
        <time>2022-02-20T13:41:55Z</time>
      </trkpt>
      <trkpt lat="42.74334" lon="1.60474">
        <ele>1482.171</ele>
        <time>2022-02-20T13:41:57Z</time>
      </trkpt>
      <trkpt lat="42.74335" lon="1.60473">
        <ele>1482.124</ele>
        <time>2022-02-20T13:41:59Z</time>
      </trkpt>
      <trkpt lat="42.74335" lon="1.60472">
        <ele>1481.115</ele>
        <time>2022-02-20T13:42:01Z</time>
      </trkpt>
      <trkpt lat="42.74335" lon="1.60471">
        <ele>1481.432</ele>
        <time>2022-02-20T13:42:03Z</time>
      </trkpt>
      <trkpt lat="42.74335" lon="1.60469">
        <ele>1481.316</ele>
        <time>2022-02-20T13:42:05Z</time>
      </trkpt>
      <trkpt lat="42.74336" lon="1.60467">
        <ele>1481.902</ele>
        <time>2022-02-20T13:42:07Z</time>
      </trkpt>
      <trkpt lat="42.74337" lon="1.60466">
        <ele>1481.433</ele>
        <time>2022-02-20T13:42:09Z</time>
      </trkpt>
      <trkpt lat="42.74337" lon="1.60464">
        <ele>1480.929</ele>
        <time>2022-02-20T13:42:11Z</time>
      </trkpt>
      <trkpt lat="42.74337" lon="1.60462">
        <ele>1482.216</ele>
        <time>2022-02-20T13:42:13Z</time>
      </trkpt>
      <trkpt lat="42.74337" lon="1.6046">
        <ele>1481.38</ele>
        <time>2022-02-20T13:42:15Z</time>
      </trkpt>
      <trkpt lat="42.74338" lon="1.60459">
        <ele>1482.001</ele>
        <time>2022-02-20T13:42:17Z</time>
      </trkpt>
      <trkpt lat="42.74339" lon="1.60458">
        <ele>1480.238</ele>
        <time>2022-02-20T13:42:19Z</time>
      </trkpt>
      <trkpt lat="42.74341" lon="1.60456">
        <ele>1481.081</ele>
        <time>2022-02-20T13:42:21Z</time>
      </trkpt>
      <trkpt lat="42.74342" lon="1.60454">
        <ele>1481.308</ele>
        <time>2022-02-20T13:42:23Z</time>
      </trkpt>
      <trkpt lat="42.74342" lon="1.60451">
        <ele>1481.613</ele>
        <time>2022-02-20T13:42:25Z</time>
      </trkpt>
      <trkpt lat="42.74343" lon="1.6045">
        <ele>1480.532</ele>
        <time>2022-02-20T13:42:27Z</time>
      </trkpt>
      <trkpt lat="42.74344" lon="1.60448">
        <ele>1480.07</ele>
        <time>2022-02-20T13:42:29Z</time>
      </trkpt>
      <trkpt lat="42.74343" lon="1.60447">
        <ele>1479.409</ele>
        <time>2022-02-20T13:42:31Z</time>
      </trkpt>
      <trkpt lat="42.74343" lon="1.60445">
        <ele>1478.153</ele>
        <time>2022-02-20T13:42:33Z</time>
      </trkpt>
      <trkpt lat="42.74343" lon="1.60443">
        <ele>1478.012</ele>
        <time>2022-02-20T13:42:35Z</time>
      </trkpt>
      <trkpt lat="42.74342" lon="1.60441">
        <ele>1479.094</ele>
        <time>2022-02-20T13:42:37Z</time>
      </trkpt>
      <trkpt lat="42.74342" lon="1.60438">
        <ele>1478.908</ele>
        <time>2022-02-20T13:42:39Z</time>
      </trkpt>
      <trkpt lat="42.74341" lon="1.60434">
        <ele>1478.059</ele>
        <time>2022-02-20T13:42:41Z</time>
      </trkpt>
      <trkpt lat="42.7434" lon="1.60432">
        <ele>1478.682</ele>
        <time>2022-02-20T13:42:43Z</time>
      </trkpt>
      <trkpt lat="42.74339" lon="1.6043">
        <ele>1477.395</ele>
        <time>2022-02-20T13:42:45Z</time>
      </trkpt>
      <trkpt lat="42.74339" lon="1.60429">
        <ele>1477.471</ele>
        <time>2022-02-20T13:42:47Z</time>
      </trkpt>
      <trkpt lat="42.74338" lon="1.60427">
        <ele>1477.602</ele>
        <time>2022-02-20T13:42:49Z</time>
      </trkpt>
      <trkpt lat="42.74337" lon="1.60425">
        <ele>1476.468</ele>
        <time>2022-02-20T13:42:51Z</time>
      </trkpt>
      <trkpt lat="42.74337" lon="1.60423">
        <ele>1475.552</ele>
        <time>2022-02-20T13:42:53Z</time>
      </trkpt>
      <trkpt lat="42.74337" lon="1.60422">
        <ele>1475.014</ele>
        <time>2022-02-20T13:42:55Z</time>
      </trkpt>
      <trkpt lat="42.74338" lon="1.6042">
        <ele>1475.117</ele>
        <time>2022-02-20T13:42:57Z</time>
      </trkpt>
      <trkpt lat="42.74338" lon="1.60418">
        <ele>1475.066</ele>
        <time>2022-02-20T13:42:59Z</time>
      </trkpt>
      <trkpt lat="42.74338" lon="1.60417">
        <ele>1474.876</ele>
        <time>2022-02-20T13:43:01Z</time>
      </trkpt>
      <trkpt lat="42.74338" lon="1.60415">
        <ele>1474.776</ele>
        <time>2022-02-20T13:43:03Z</time>
      </trkpt>
      <trkpt lat="42.74338" lon="1.60414">
        <ele>1474.984</ele>
        <time>2022-02-20T13:43:05Z</time>
      </trkpt>
      <trkpt lat="42.74337" lon="1.60412">
        <ele>1474.522</ele>
        <time>2022-02-20T13:43:07Z</time>
      </trkpt>
      <trkpt lat="42.74338" lon="1.6041">
        <ele>1474.645</ele>
        <time>2022-02-20T13:43:09Z</time>
      </trkpt>
      <trkpt lat="42.74337" lon="1.60409">
        <ele>1474.965</ele>
        <time>2022-02-20T13:43:11Z</time>
      </trkpt>
      <trkpt lat="42.74336" lon="1.60408">
        <ele>1473.952</ele>
        <time>2022-02-20T13:43:13Z</time>
      </trkpt>
      <trkpt lat="42.74336" lon="1.60406">
        <ele>1474.015</ele>
        <time>2022-02-20T13:43:15Z</time>
      </trkpt>
      <trkpt lat="42.74336" lon="1.60405">
        <ele>1473.017</ele>
        <time>2022-02-20T13:43:17Z</time>
      </trkpt>
      <trkpt lat="42.74337" lon="1.60405">
        <ele>1472.162</ele>
        <time>2022-02-20T13:43:19Z</time>
      </trkpt>
      <trkpt lat="42.74337" lon="1.60404">
        <ele>1471.619</ele>
        <time>2022-02-20T13:43:21Z</time>
      </trkpt>
      <trkpt lat="42.74339" lon="1.60404">
        <ele>1471.686</ele>
        <time>2022-02-20T13:43:23Z</time>
      </trkpt>
      <trkpt lat="42.7434" lon="1.60404">
        <ele>1472.498</ele>
        <time>2022-02-20T13:43:25Z</time>
      </trkpt>
      <trkpt lat="42.74341" lon="1.60403">
        <ele>1471.756</ele>
        <time>2022-02-20T13:43:27Z</time>
      </trkpt>
      <trkpt lat="42.74341" lon="1.60401">
        <ele>1472.357</ele>
        <time>2022-02-20T13:43:29Z</time>
      </trkpt>
      <trkpt lat="42.74342" lon="1.60399">
        <ele>1472.812</ele>
        <time>2022-02-20T13:43:31Z</time>
      </trkpt>
      <trkpt lat="42.74342" lon="1.60398">
        <ele>1472.002</ele>
        <time>2022-02-20T13:43:33Z</time>
      </trkpt>
      <trkpt lat="42.74343" lon="1.60397">
        <ele>1469.688</ele>
        <time>2022-02-20T13:43:35Z</time>
      </trkpt>
      <trkpt lat="42.74343" lon="1.60395">
        <ele>1467.729</ele>
        <time>2022-02-20T13:43:37Z</time>
      </trkpt>
      <trkpt lat="42.74344" lon="1.60393">
        <ele>1465.906</ele>
        <time>2022-02-20T13:43:39Z</time>
      </trkpt>
      <trkpt lat="42.74344" lon="1.60391">
        <ele>1464.571</ele>
        <time>2022-02-20T13:43:41Z</time>
      </trkpt>
      <trkpt lat="42.74345" lon="1.6039">
        <ele>1464.041</ele>
        <time>2022-02-20T13:43:43Z</time>
      </trkpt>
      <trkpt lat="42.74346" lon="1.60388">
        <ele>1464.24</ele>
        <time>2022-02-20T13:43:45Z</time>
      </trkpt>
      <trkpt lat="42.74347" lon="1.60386">
        <ele>1464.807</ele>
        <time>2022-02-20T13:43:47Z</time>
      </trkpt>
      <trkpt lat="42.74347" lon="1.60385">
        <ele>1464.82</ele>
        <time>2022-02-20T13:43:49Z</time>
      </trkpt>
      <trkpt lat="42.74347" lon="1.60384">
        <ele>1462.527</ele>
        <time>2022-02-20T13:43:51Z</time>
      </trkpt>
      <trkpt lat="42.74347" lon="1.60382">
        <ele>1463.168</ele>
        <time>2022-02-20T13:43:53Z</time>
      </trkpt>
      <trkpt lat="42.74347" lon="1.6038">
        <ele>1462.919</ele>
        <time>2022-02-20T13:43:55Z</time>
      </trkpt>
      <trkpt lat="42.74347" lon="1.60379">
        <ele>1462.772</ele>
        <time>2022-02-20T13:43:57Z</time>
      </trkpt>
      <trkpt lat="42.74347" lon="1.60377">
        <ele>1463.502</ele>
        <time>2022-02-20T13:43:59Z</time>
      </trkpt>
      <trkpt lat="42.74348" lon="1.60376">
        <ele>1463.304</ele>
        <time>2022-02-20T13:44:01Z</time>
      </trkpt>
      <trkpt lat="42.74348" lon="1.60375">
        <ele>1461.669</ele>
        <time>2022-02-20T13:44:03Z</time>
      </trkpt>
      <trkpt lat="42.74348" lon="1.60375">
        <ele>1461.285</ele>
        <time>2022-02-20T13:44:05Z</time>
      </trkpt>
      <trkpt lat="42.74347" lon="1.60373">
        <ele>1461.252</ele>
        <time>2022-02-20T13:44:07Z</time>
      </trkpt>
      <trkpt lat="42.74347" lon="1.60371">
        <ele>1461.466</ele>
        <time>2022-02-20T13:44:09Z</time>
      </trkpt>
      <trkpt lat="42.74347" lon="1.60371">
        <ele>1461.489</ele>
        <time>2022-02-20T13:44:11Z</time>
      </trkpt>
      <trkpt lat="42.74347" lon="1.60371">
        <ele>1461.258</ele>
        <time>2022-02-20T13:44:13Z</time>
      </trkpt>
      <trkpt lat="42.74347" lon="1.6037">
        <ele>1460.725</ele>
        <time>2022-02-20T13:44:15Z</time>
      </trkpt>
      <trkpt lat="42.74346" lon="1.60366">
        <ele>1460.761</ele>
        <time>2022-02-20T13:44:17Z</time>
      </trkpt>
      <trkpt lat="42.74347" lon="1.60364">
        <ele>1461.129</ele>
        <time>2022-02-20T13:44:19Z</time>
      </trkpt>
      <trkpt lat="42.74346" lon="1.60363">
        <ele>1460.601</ele>
        <time>2022-02-20T13:44:21Z</time>
      </trkpt>
      <trkpt lat="42.74345" lon="1.60362">
        <ele>1460.757</ele>
        <time>2022-02-20T13:44:23Z</time>
      </trkpt>
      <trkpt lat="42.74344" lon="1.60361">
        <ele>1459.668</ele>
        <time>2022-02-20T13:44:25Z</time>
      </trkpt>
      <trkpt lat="42.74344" lon="1.60361">
        <ele>1459.628</ele>
        <time>2022-02-20T13:44:27Z</time>
      </trkpt>
      <trkpt lat="42.74343" lon="1.6036">
        <ele>1459.142</ele>
        <time>2022-02-20T13:44:29Z</time>
      </trkpt>
      <trkpt lat="42.74344" lon="1.60357">
        <ele>1458.816</ele>
        <time>2022-02-20T13:44:31Z</time>
      </trkpt>
      <trkpt lat="42.74343" lon="1.60356">
        <ele>1458.821</ele>
        <time>2022-02-20T13:44:33Z</time>
      </trkpt>
      <trkpt lat="42.74344" lon="1.60354">
        <ele>1459.894</ele>
        <time>2022-02-20T13:44:35Z</time>
      </trkpt>
      <trkpt lat="42.74343" lon="1.60352">
        <ele>1460.398</ele>
        <time>2022-02-20T13:44:37Z</time>
      </trkpt>
      <trkpt lat="42.74343" lon="1.60351">
        <ele>1460.51</ele>
        <time>2022-02-20T13:44:39Z</time>
      </trkpt>
      <trkpt lat="42.74343" lon="1.60349">
        <ele>1459.267</ele>
        <time>2022-02-20T13:44:41Z</time>
      </trkpt>
      <trkpt lat="42.74342" lon="1.60348">
        <ele>1459.148</ele>
        <time>2022-02-20T13:44:43Z</time>
      </trkpt>
      <trkpt lat="42.74341" lon="1.60347">
        <ele>1458.309</ele>
        <time>2022-02-20T13:44:45Z</time>
      </trkpt>
      <trkpt lat="42.74341" lon="1.60346">
        <ele>1459.517</ele>
        <time>2022-02-20T13:44:47Z</time>
      </trkpt>
      <trkpt lat="42.74341" lon="1.60344">
        <ele>1459.382</ele>
        <time>2022-02-20T13:44:49Z</time>
      </trkpt>
      <trkpt lat="42.7434" lon="1.60342">
        <ele>1459.764</ele>
        <time>2022-02-20T13:44:51Z</time>
      </trkpt>
      <trkpt lat="42.74341" lon="1.60341">
        <ele>1461.116</ele>
        <time>2022-02-20T13:44:53Z</time>
      </trkpt>
      <trkpt lat="42.74341" lon="1.60341">
        <ele>1461.012</ele>
        <time>2022-02-20T13:44:55Z</time>
      </trkpt>
      <trkpt lat="42.74341" lon="1.6034">
        <ele>1462.416</ele>
        <time>2022-02-20T13:44:57Z</time>
      </trkpt>
      <trkpt lat="42.74341" lon="1.60337">
        <ele>1462.745</ele>
        <time>2022-02-20T13:44:59Z</time>
      </trkpt>
      <trkpt lat="42.74341" lon="1.60336">
        <ele>1463.156</ele>
        <time>2022-02-20T13:45:01Z</time>
      </trkpt>
      <trkpt lat="42.7434" lon="1.60335">
        <ele>1463.255</ele>
        <time>2022-02-20T13:45:03Z</time>
      </trkpt>
      <trkpt lat="42.74338" lon="1.60334">
        <ele>1463.692</ele>
        <time>2022-02-20T13:45:05Z</time>
      </trkpt>
      <trkpt lat="42.74337" lon="1.60334">
        <ele>1462.753</ele>
        <time>2022-02-20T13:45:07Z</time>
      </trkpt>
      <trkpt lat="42.74337" lon="1.60333">
        <ele>1462.861</ele>
        <time>2022-02-20T13:45:09Z</time>
      </trkpt>
      <trkpt lat="42.74335" lon="1.60331">
        <ele>1461.646</ele>
        <time>2022-02-20T13:45:11Z</time>
      </trkpt>
      <trkpt lat="42.74333" lon="1.6033">
        <ele>1459.917</ele>
        <time>2022-02-20T13:45:13Z</time>
      </trkpt>
      <trkpt lat="42.74331" lon="1.60329">
        <ele>1459.481</ele>
        <time>2022-02-20T13:45:15Z</time>
      </trkpt>
      <trkpt lat="42.7433" lon="1.60327">
        <ele>1459.839</ele>
        <time>2022-02-20T13:45:17Z</time>
      </trkpt>
      <trkpt lat="42.7433" lon="1.60325">
        <ele>1460.08</ele>
        <time>2022-02-20T13:45:19Z</time>
      </trkpt>
      <trkpt lat="42.74328" lon="1.60324">
        <ele>1460.505</ele>
        <time>2022-02-20T13:45:21Z</time>
      </trkpt>
      <trkpt lat="42.74327" lon="1.60322">
        <ele>1459.371</ele>
        <time>2022-02-20T13:45:23Z</time>
      </trkpt>
      <trkpt lat="42.74327" lon="1.6032">
        <ele>1460.493</ele>
        <time>2022-02-20T13:45:25Z</time>
      </trkpt>
      <trkpt lat="42.74326" lon="1.60319">
        <ele>1458.738</ele>
        <time>2022-02-20T13:45:27Z</time>
      </trkpt>
      <trkpt lat="42.74326" lon="1.60317">
        <ele>1459.211</ele>
        <time>2022-02-20T13:45:29Z</time>
      </trkpt>
      <trkpt lat="42.74325" lon="1.60316">
        <ele>1458.596</ele>
        <time>2022-02-20T13:45:31Z</time>
      </trkpt>
      <trkpt lat="42.74325" lon="1.60313">
        <ele>1459.396</ele>
        <time>2022-02-20T13:45:33Z</time>
      </trkpt>
      <trkpt lat="42.74325" lon="1.60311">
        <ele>1460.401</ele>
        <time>2022-02-20T13:45:35Z</time>
      </trkpt>
      <trkpt lat="42.74325" lon="1.60309">
        <ele>1460.509</ele>
        <time>2022-02-20T13:45:37Z</time>
      </trkpt>
      <trkpt lat="42.74326" lon="1.60308">
        <ele>1460.441</ele>
        <time>2022-02-20T13:45:39Z</time>
      </trkpt>
      <trkpt lat="42.74327" lon="1.60307">
        <ele>1458.823</ele>
        <time>2022-02-20T13:45:41Z</time>
      </trkpt>
      <trkpt lat="42.74329" lon="1.60305">
        <ele>1460.525</ele>
        <time>2022-02-20T13:45:43Z</time>
      </trkpt>
      <trkpt lat="42.74329" lon="1.60303">
        <ele>1460.884</ele>
        <time>2022-02-20T13:45:45Z</time>
      </trkpt>
      <trkpt lat="42.74329" lon="1.60303">
        <ele>1459.132</ele>
        <time>2022-02-20T13:45:47Z</time>
      </trkpt>
      <trkpt lat="42.74329" lon="1.60302">
        <ele>1461.197</ele>
        <time>2022-02-20T13:45:49Z</time>
      </trkpt>
      <trkpt lat="42.74329" lon="1.60299">
        <ele>1460.352</ele>
        <time>2022-02-20T13:45:51Z</time>
      </trkpt>
      <trkpt lat="42.74329" lon="1.60298">
        <ele>1458.914</ele>
        <time>2022-02-20T13:45:53Z</time>
      </trkpt>
      <trkpt lat="42.7433" lon="1.60298">
        <ele>1457.546</ele>
        <time>2022-02-20T13:45:55Z</time>
      </trkpt>
      <trkpt lat="42.74331" lon="1.60296">
        <ele>1458.578</ele>
        <time>2022-02-20T13:45:57Z</time>
      </trkpt>
      <trkpt lat="42.7433" lon="1.60294">
        <ele>1458.849</ele>
        <time>2022-02-20T13:45:59Z</time>
      </trkpt>
      <trkpt lat="42.7433" lon="1.60293">
        <ele>1459.212</ele>
        <time>2022-02-20T13:46:01Z</time>
      </trkpt>
      <trkpt lat="42.7433" lon="1.60291">
        <ele>1458.906</ele>
        <time>2022-02-20T13:46:03Z</time>
      </trkpt>
      <trkpt lat="42.7433" lon="1.60291">
        <ele>1457.556</ele>
        <time>2022-02-20T13:46:05Z</time>
      </trkpt>
      <trkpt lat="42.7433" lon="1.60289">
        <ele>1457.87</ele>
        <time>2022-02-20T13:46:07Z</time>
      </trkpt>
      <trkpt lat="42.74329" lon="1.60288">
        <ele>1457.049</ele>
        <time>2022-02-20T13:46:09Z</time>
      </trkpt>
      <trkpt lat="42.74329" lon="1.60286">
        <ele>1457.215</ele>
        <time>2022-02-20T13:46:11Z</time>
      </trkpt>
      <trkpt lat="42.74329" lon="1.60284">
        <ele>1457.626</ele>
        <time>2022-02-20T13:46:13Z</time>
      </trkpt>
      <trkpt lat="42.7433" lon="1.60284">
        <ele>1457.21</ele>
        <time>2022-02-20T13:46:15Z</time>
      </trkpt>
      <trkpt lat="42.74331" lon="1.60283">
        <ele>1457.327</ele>
        <time>2022-02-20T13:46:17Z</time>
      </trkpt>
      <trkpt lat="42.74331" lon="1.60282">
        <ele>1456.443</ele>
        <time>2022-02-20T13:46:19Z</time>
      </trkpt>
      <trkpt lat="42.7433" lon="1.60281">
        <ele>1456.357</ele>
        <time>2022-02-20T13:46:21Z</time>
      </trkpt>
      <trkpt lat="42.7433" lon="1.60279">
        <ele>1456.796</ele>
        <time>2022-02-20T13:46:23Z</time>
      </trkpt>
      <trkpt lat="42.7433" lon="1.60278">
        <ele>1457.001</ele>
        <time>2022-02-20T13:46:25Z</time>
      </trkpt>
      <trkpt lat="42.7433" lon="1.60278">
        <ele>1456.951</ele>
        <time>2022-02-20T13:46:27Z</time>
      </trkpt>
      <trkpt lat="42.7433" lon="1.60277">
        <ele>1456.79</ele>
        <time>2022-02-20T13:46:29Z</time>
      </trkpt>
      <trkpt lat="42.74331" lon="1.60277">
        <ele>1456.481</ele>
        <time>2022-02-20T13:46:31Z</time>
      </trkpt>
      <trkpt lat="42.7433" lon="1.60277">
        <ele>1454.732</ele>
        <time>2022-02-20T13:46:33Z</time>
      </trkpt>
      <trkpt lat="42.7433" lon="1.60277">
        <ele>1452.525</ele>
        <time>2022-02-20T13:46:35Z</time>
      </trkpt>
      <trkpt lat="42.7433" lon="1.60277">
        <ele>1452.623</ele>
        <time>2022-02-20T13:46:37Z</time>
      </trkpt>
      <trkpt lat="42.7433" lon="1.60277">
        <ele>1452.607</ele>
        <time>2022-02-20T13:46:39Z</time>
      </trkpt>
      <trkpt lat="42.7433" lon="1.60276">
        <ele>1450.769</ele>
        <time>2022-02-20T13:46:41Z</time>
      </trkpt>
      <trkpt lat="42.7433" lon="1.60275">
        <ele>1450.353</ele>
        <time>2022-02-20T13:46:43Z</time>
      </trkpt>
      <trkpt lat="42.7433" lon="1.60274">
        <ele>1449.911</ele>
        <time>2022-02-20T13:46:45Z</time>
      </trkpt>
      <trkpt lat="42.7433" lon="1.60268">
        <ele>1451.373</ele>
        <time>2022-02-20T13:46:47Z</time>
      </trkpt>
      <trkpt lat="42.74328" lon="1.60267">
        <ele>1451.132</ele>
        <time>2022-02-20T13:46:49Z</time>
      </trkpt>
      <trkpt lat="42.74329" lon="1.60264">
        <ele>1452.897</ele>
        <time>2022-02-20T13:46:51Z</time>
      </trkpt>
      <trkpt lat="42.74329" lon="1.60262">
        <ele>1453.595</ele>
        <time>2022-02-20T13:46:53Z</time>
      </trkpt>
      <trkpt lat="42.74329" lon="1.6026">
        <ele>1453.106</ele>
        <time>2022-02-20T13:46:55Z</time>
      </trkpt>
      <trkpt lat="42.74332" lon="1.60262">
        <ele>1448.883</ele>
        <time>2022-02-20T13:46:57Z</time>
      </trkpt>
      <trkpt lat="42.74333" lon="1.60261">
        <ele>1449.437</ele>
        <time>2022-02-20T13:46:59Z</time>
      </trkpt>
      <trkpt lat="42.74332" lon="1.60259">
        <ele>1448.897</ele>
        <time>2022-02-20T13:47:01Z</time>
      </trkpt>
      <trkpt lat="42.74332" lon="1.60256">
        <ele>1450.155</ele>
        <time>2022-02-20T13:47:03Z</time>
      </trkpt>
      <trkpt lat="42.74331" lon="1.60254">
        <ele>1450.882</ele>
        <time>2022-02-20T13:47:05Z</time>
      </trkpt>
      <trkpt lat="42.74331" lon="1.60252">
        <ele>1451.253</ele>
        <time>2022-02-20T13:47:07Z</time>
      </trkpt>
      <trkpt lat="42.74331" lon="1.6025">
        <ele>1451.291</ele>
        <time>2022-02-20T13:47:09Z</time>
      </trkpt>
      <trkpt lat="42.74331" lon="1.60248">
        <ele>1452.313</ele>
        <time>2022-02-20T13:47:11Z</time>
      </trkpt>
      <trkpt lat="42.74331" lon="1.60247">
        <ele>1452.789</ele>
        <time>2022-02-20T13:47:13Z</time>
      </trkpt>
      <trkpt lat="42.74331" lon="1.60247">
        <ele>1451.856</ele>
        <time>2022-02-20T13:47:15Z</time>
      </trkpt>
      <trkpt lat="42.7433" lon="1.60246">
        <ele>1452.621</ele>
        <time>2022-02-20T13:47:17Z</time>
      </trkpt>
      <trkpt lat="42.7433" lon="1.60244">
        <ele>1452.904</ele>
        <time>2022-02-20T13:47:19Z</time>
      </trkpt>
      <trkpt lat="42.7433" lon="1.60242">
        <ele>1451.581</ele>
        <time>2022-02-20T13:47:21Z</time>
      </trkpt>
      <trkpt lat="42.7433" lon="1.60241">
        <ele>1450.718</ele>
        <time>2022-02-20T13:47:23Z</time>
      </trkpt>
      <trkpt lat="42.74331" lon="1.6024">
        <ele>1448.846</ele>
        <time>2022-02-20T13:47:25Z</time>
      </trkpt>
      <trkpt lat="42.74332" lon="1.6024">
        <ele>1448.481</ele>
        <time>2022-02-20T13:47:27Z</time>
      </trkpt>
      <trkpt lat="42.74332" lon="1.60239">
        <ele>1447.018</ele>
        <time>2022-02-20T13:47:29Z</time>
      </trkpt>
      <trkpt lat="42.74332" lon="1.60238">
        <ele>1447.499</ele>
        <time>2022-02-20T13:47:31Z</time>
      </trkpt>
      <trkpt lat="42.74334" lon="1.60236">
        <ele>1446.387</ele>
        <time>2022-02-20T13:47:33Z</time>
      </trkpt>
      <trkpt lat="42.74334" lon="1.60236">
        <ele>1445.934</ele>
        <time>2022-02-20T13:47:35Z</time>
      </trkpt>
      <trkpt lat="42.74334" lon="1.60235">
        <ele>1445.948</ele>
        <time>2022-02-20T13:47:37Z</time>
      </trkpt>
      <trkpt lat="42.74335" lon="1.60234">
        <ele>1445.654</ele>
        <time>2022-02-20T13:47:39Z</time>
      </trkpt>
      <trkpt lat="42.74335" lon="1.60234">
        <ele>1445.619</ele>
        <time>2022-02-20T13:47:41Z</time>
      </trkpt>
      <trkpt lat="42.74335" lon="1.60232">
        <ele>1445.217</ele>
        <time>2022-02-20T13:47:43Z</time>
      </trkpt>
      <trkpt lat="42.74335" lon="1.6023">
        <ele>1443.819</ele>
        <time>2022-02-20T13:47:45Z</time>
      </trkpt>
      <trkpt lat="42.74335" lon="1.60229">
        <ele>1443.678</ele>
        <time>2022-02-20T13:47:47Z</time>
      </trkpt>
      <trkpt lat="42.74335" lon="1.60228">
        <ele>1443.527</ele>
        <time>2022-02-20T13:47:49Z</time>
      </trkpt>
      <trkpt lat="42.74335" lon="1.60227">
        <ele>1443.087</ele>
        <time>2022-02-20T13:47:51Z</time>
      </trkpt>
      <trkpt lat="42.74336" lon="1.60227">
        <ele>1441.108</ele>
        <time>2022-02-20T13:47:53Z</time>
      </trkpt>
      <trkpt lat="42.74337" lon="1.60226">
        <ele>1440.436</ele>
        <time>2022-02-20T13:47:55Z</time>
      </trkpt>
      <trkpt lat="42.74337" lon="1.60223">
        <ele>1441.545</ele>
        <time>2022-02-20T13:47:57Z</time>
      </trkpt>
      <trkpt lat="42.74337" lon="1.60221">
        <ele>1440.819</ele>
        <time>2022-02-20T13:47:59Z</time>
      </trkpt>
      <trkpt lat="42.74337" lon="1.6022">
        <ele>1440.064</ele>
        <time>2022-02-20T13:48:01Z</time>
      </trkpt>
      <trkpt lat="42.74338" lon="1.60219">
        <ele>1439.628</ele>
        <time>2022-02-20T13:48:03Z</time>
      </trkpt>
      <trkpt lat="42.74338" lon="1.60219">
        <ele>1437.401</ele>
        <time>2022-02-20T13:48:05Z</time>
      </trkpt>
      <trkpt lat="42.74339" lon="1.60218">
        <ele>1437.225</ele>
        <time>2022-02-20T13:48:07Z</time>
      </trkpt>
      <trkpt lat="42.74339" lon="1.60217">
        <ele>1437.474</ele>
        <time>2022-02-20T13:48:09Z</time>
      </trkpt>
      <trkpt lat="42.74339" lon="1.60217">
        <ele>1437.502</ele>
        <time>2022-02-20T13:48:11Z</time>
      </trkpt>
      <trkpt lat="42.7434" lon="1.60215">
        <ele>1437.242</ele>
        <time>2022-02-20T13:48:13Z</time>
      </trkpt>
      <trkpt lat="42.7434" lon="1.60214">
        <ele>1435.319</ele>
        <time>2022-02-20T13:48:15Z</time>
      </trkpt>
      <trkpt lat="42.74341" lon="1.60213">
        <ele>1434.86</ele>
        <time>2022-02-20T13:48:17Z</time>
      </trkpt>
      <trkpt lat="42.74341" lon="1.60213">
        <ele>1434.885</ele>
        <time>2022-02-20T13:48:19Z</time>
      </trkpt>
      <trkpt lat="42.74342" lon="1.60212">
        <ele>1434.508</ele>
        <time>2022-02-20T13:48:21Z</time>
      </trkpt>
      <trkpt lat="42.74343" lon="1.60211">
        <ele>1434.875</ele>
        <time>2022-02-20T13:48:23Z</time>
      </trkpt>
      <trkpt lat="42.74344" lon="1.60209">
        <ele>1434.764</ele>
        <time>2022-02-20T13:48:25Z</time>
      </trkpt>
      <trkpt lat="42.74344" lon="1.60208">
        <ele>1434.22</ele>
        <time>2022-02-20T13:48:27Z</time>
      </trkpt>
      <trkpt lat="42.74344" lon="1.60208">
        <ele>1433.566</ele>
        <time>2022-02-20T13:48:29Z</time>
      </trkpt>
      <trkpt lat="42.74344" lon="1.60208">
        <ele>1432.283</ele>
        <time>2022-02-20T13:48:31Z</time>
      </trkpt>
      <trkpt lat="42.74344" lon="1.60208">
        <ele>1432.264</ele>
        <time>2022-02-20T13:48:33Z</time>
      </trkpt>
      <trkpt lat="42.74343" lon="1.60208">
        <ele>1432.087</ele>
        <time>2022-02-20T13:48:35Z</time>
      </trkpt>
      <trkpt lat="42.74343" lon="1.60207">
        <ele>1432.077</ele>
        <time>2022-02-20T13:48:37Z</time>
      </trkpt>
      <trkpt lat="42.74343" lon="1.60207">
        <ele>1432.127</ele>
        <time>2022-02-20T13:48:39Z</time>
      </trkpt>
      <trkpt lat="42.74343" lon="1.60207">
        <ele>1432.106</ele>
        <time>2022-02-20T13:48:41Z</time>
      </trkpt>
      <trkpt lat="42.74343" lon="1.60207">
        <ele>1432.108</ele>
        <time>2022-02-20T13:48:43Z</time>
      </trkpt>
      <trkpt lat="42.74343" lon="1.60207">
        <ele>1432.11</ele>
        <time>2022-02-20T13:48:45Z</time>
      </trkpt>
      <trkpt lat="42.74343" lon="1.60207">
        <ele>1432.12</ele>
        <time>2022-02-20T13:48:47Z</time>
      </trkpt>
      <trkpt lat="42.74343" lon="1.60207">
        <ele>1432.125</ele>
        <time>2022-02-20T13:48:49Z</time>
      </trkpt>
      <trkpt lat="42.74343" lon="1.60207">
        <ele>1431.296</ele>
        <time>2022-02-20T13:48:51Z</time>
      </trkpt>
      <trkpt lat="42.74343" lon="1.60206">
        <ele>1431.71</ele>
        <time>2022-02-20T13:48:53Z</time>
      </trkpt>
      <trkpt lat="42.74343" lon="1.60206">
        <ele>1432.009</ele>
        <time>2022-02-20T13:48:55Z</time>
      </trkpt>
      <trkpt lat="42.74343" lon="1.60206">
        <ele>1431.356</ele>
        <time>2022-02-20T13:48:57Z</time>
      </trkpt>
      <trkpt lat="42.74343" lon="1.60206">
        <ele>1430.604</ele>
        <time>2022-02-20T13:48:59Z</time>
      </trkpt>
      <trkpt lat="42.74343" lon="1.60206">
        <ele>1429.088</ele>
        <time>2022-02-20T13:49:01Z</time>
      </trkpt>
      <trkpt lat="42.74344" lon="1.60205">
        <ele>1428.686</ele>
        <time>2022-02-20T13:49:03Z</time>
      </trkpt>
      <trkpt lat="42.74344" lon="1.60204">
        <ele>1428.896</ele>
        <time>2022-02-20T13:49:05Z</time>
      </trkpt>
      <trkpt lat="42.74344" lon="1.60204">
        <ele>1428.655</ele>
        <time>2022-02-20T13:49:07Z</time>
      </trkpt>
      <trkpt lat="42.74344" lon="1.60203">
        <ele>1428.479</ele>
        <time>2022-02-20T13:49:09Z</time>
      </trkpt>
      <trkpt lat="42.74344" lon="1.60202">
        <ele>1428.05</ele>
        <time>2022-02-20T13:49:11Z</time>
      </trkpt>
      <trkpt lat="42.74344" lon="1.60202">
        <ele>1428.045</ele>
        <time>2022-02-20T13:49:13Z</time>
      </trkpt>
      <trkpt lat="42.74344" lon="1.60202">
        <ele>1428.045</ele>
        <time>2022-02-20T13:49:15Z</time>
      </trkpt>
      <trkpt lat="42.74344" lon="1.60202">
        <ele>1428.051</ele>
        <time>2022-02-20T13:49:17Z</time>
      </trkpt>
      <trkpt lat="42.74344" lon="1.60202">
        <ele>1428.077</ele>
        <time>2022-02-20T13:49:19Z</time>
      </trkpt>
      <trkpt lat="42.74344" lon="1.60202">
        <ele>1428.16</ele>
        <time>2022-02-20T13:49:21Z</time>
      </trkpt>
      <trkpt lat="42.74345" lon="1.60201">
        <ele>1428.459</ele>
        <time>2022-02-20T13:49:23Z</time>
      </trkpt>
      <trkpt lat="42.74344" lon="1.60201">
        <ele>1427.833</ele>
        <time>2022-02-20T13:49:25Z</time>
      </trkpt>
      <trkpt lat="42.74345" lon="1.602">
        <ele>1427.293</ele>
        <time>2022-02-20T13:49:27Z</time>
      </trkpt>
      <trkpt lat="42.74345" lon="1.602">
        <ele>1426.758</ele>
        <time>2022-02-20T13:49:29Z</time>
      </trkpt>
      <trkpt lat="42.74345" lon="1.60199">
        <ele>1426.715</ele>
        <time>2022-02-20T13:49:31Z</time>
      </trkpt>
      <trkpt lat="42.74345" lon="1.60199">
        <ele>1426.708</ele>
        <time>2022-02-20T13:49:33Z</time>
      </trkpt>
      <trkpt lat="42.74345" lon="1.60199">
        <ele>1426.72</ele>
        <time>2022-02-20T13:49:35Z</time>
      </trkpt>
      <trkpt lat="42.74345" lon="1.60199">
        <ele>1426.807</ele>
        <time>2022-02-20T13:49:37Z</time>
      </trkpt>
      <trkpt lat="42.74345" lon="1.60199">
        <ele>1426.483</ele>
        <time>2022-02-20T13:49:39Z</time>
      </trkpt>
      <trkpt lat="42.74344" lon="1.60198">
        <ele>1426.174</ele>
        <time>2022-02-20T13:49:41Z</time>
      </trkpt>
      <trkpt lat="42.74344" lon="1.60198">
        <ele>1426.18</ele>
        <time>2022-02-20T13:49:43Z</time>
      </trkpt>
      <trkpt lat="42.74344" lon="1.60199">
        <ele>1426.651</ele>
        <time>2022-02-20T13:49:45Z</time>
      </trkpt>
      <trkpt lat="42.74345" lon="1.60198">
        <ele>1426.1</ele>
        <time>2022-02-20T13:49:47Z</time>
      </trkpt>
      <trkpt lat="42.74346" lon="1.60197">
        <ele>1425.352</ele>
        <time>2022-02-20T13:49:49Z</time>
      </trkpt>
      <trkpt lat="42.74346" lon="1.60197">
        <ele>1424.624</ele>
        <time>2022-02-20T13:49:51Z</time>
      </trkpt>
      <trkpt lat="42.74346" lon="1.60196">
        <ele>1424.624</ele>
        <time>2022-02-20T13:49:53Z</time>
      </trkpt>
      <trkpt lat="42.74346" lon="1.60196">
        <ele>1424.619</ele>
        <time>2022-02-20T13:49:55Z</time>
      </trkpt>
      <trkpt lat="42.74346" lon="1.60196">
        <ele>1424.606</ele>
        <time>2022-02-20T13:49:57Z</time>
      </trkpt>
      <trkpt lat="42.74346" lon="1.60196">
        <ele>1424.62</ele>
        <time>2022-02-20T13:49:59Z</time>
      </trkpt>
      <trkpt lat="42.74346" lon="1.60196">
        <ele>1424.631</ele>
        <time>2022-02-20T13:50:01Z</time>
      </trkpt>
      <trkpt lat="42.74346" lon="1.60196">
        <ele>1424.654</ele>
        <time>2022-02-20T13:50:03Z</time>
      </trkpt>
      <trkpt lat="42.74346" lon="1.60196">
        <ele>1424.657</ele>
        <time>2022-02-20T13:50:05Z</time>
      </trkpt>
      <trkpt lat="42.74346" lon="1.60196">
        <ele>1424.656</ele>
        <time>2022-02-20T13:50:07Z</time>
      </trkpt>
      <trkpt lat="42.74346" lon="1.60196">
        <ele>1424.66</ele>
        <time>2022-02-20T13:50:09Z</time>
      </trkpt>
      <trkpt lat="42.74346" lon="1.60196">
        <ele>1424.675</ele>
        <time>2022-02-20T13:50:11Z</time>
      </trkpt>
      <trkpt lat="42.74346" lon="1.60196">
        <ele>1424.685</ele>
        <time>2022-02-20T13:50:13Z</time>
      </trkpt>
      <trkpt lat="42.74346" lon="1.60196">
        <ele>1424.684</ele>
        <time>2022-02-20T13:50:15Z</time>
      </trkpt>
      <trkpt lat="42.74346" lon="1.60196">
        <ele>1424.684</ele>
        <time>2022-02-20T13:50:17Z</time>
      </trkpt>
      <trkpt lat="42.74346" lon="1.60196">
        <ele>1424.706</ele>
        <time>2022-02-20T13:50:19Z</time>
      </trkpt>
      <trkpt lat="42.74346" lon="1.60196">
        <ele>1424.715</ele>
        <time>2022-02-20T13:50:21Z</time>
      </trkpt>
      <trkpt lat="42.74346" lon="1.60196">
        <ele>1424.725</ele>
        <time>2022-02-20T13:50:23Z</time>
      </trkpt>
      <trkpt lat="42.74346" lon="1.60196">
        <ele>1424.72</ele>
        <time>2022-02-20T13:50:25Z</time>
      </trkpt>
      <trkpt lat="42.74346" lon="1.60196">
        <ele>1424.724</ele>
        <time>2022-02-20T13:50:27Z</time>
      </trkpt>
      <trkpt lat="42.74346" lon="1.60196">
        <ele>1424.718</ele>
        <time>2022-02-20T13:50:29Z</time>
      </trkpt>
      <trkpt lat="42.74346" lon="1.60195">
        <ele>1425.177</ele>
        <time>2022-02-20T13:50:31Z</time>
      </trkpt>
      <trkpt lat="42.74346" lon="1.60195">
        <ele>1424.86</ele>
        <time>2022-02-20T13:50:33Z</time>
      </trkpt>
      <trkpt lat="42.74345" lon="1.60194">
        <ele>1424.387</ele>
        <time>2022-02-20T13:50:35Z</time>
      </trkpt>
      <trkpt lat="42.74345" lon="1.60194">
        <ele>1424.428</ele>
        <time>2022-02-20T13:50:37Z</time>
      </trkpt>
      <trkpt lat="42.74345" lon="1.60194">
        <ele>1424.522</ele>
        <time>2022-02-20T13:50:39Z</time>
      </trkpt>
      <trkpt lat="42.74345" lon="1.60194">
        <ele>1424.525</ele>
        <time>2022-02-20T13:50:41Z</time>
      </trkpt>
      <trkpt lat="42.74344" lon="1.60192">
        <ele>1425.29</ele>
        <time>2022-02-20T13:50:43Z</time>
      </trkpt>
      <trkpt lat="42.74344" lon="1.6019">
        <ele>1426.272</ele>
        <time>2022-02-20T13:50:45Z</time>
      </trkpt>
      <trkpt lat="42.74344" lon="1.6019">
        <ele>1426.349</ele>
        <time>2022-02-20T13:50:47Z</time>
      </trkpt>
      <trkpt lat="42.74344" lon="1.6019">
        <ele>1426.344</ele>
        <time>2022-02-20T13:50:49Z</time>
      </trkpt>
      <trkpt lat="42.74344" lon="1.60188">
        <ele>1426.046</ele>
        <time>2022-02-20T13:50:51Z</time>
      </trkpt>
      <trkpt lat="42.74344" lon="1.60187">
        <ele>1426.038</ele>
        <time>2022-02-20T13:50:53Z</time>
      </trkpt>
      <trkpt lat="42.74344" lon="1.60187">
        <ele>1426.026</ele>
        <time>2022-02-20T13:50:55Z</time>
      </trkpt>
      <trkpt lat="42.74344" lon="1.60187">
        <ele>1426.606</ele>
        <time>2022-02-20T13:50:57Z</time>
      </trkpt>
      <trkpt lat="42.74344" lon="1.60187">
        <ele>1426.609</ele>
        <time>2022-02-20T13:50:59Z</time>
      </trkpt>
      <trkpt lat="42.74344" lon="1.60187">
        <ele>1426.605</ele>
        <time>2022-02-20T13:51:01Z</time>
      </trkpt>
      <trkpt lat="42.74344" lon="1.60187">
        <ele>1426.601</ele>
        <time>2022-02-20T13:51:03Z</time>
      </trkpt>
      <trkpt lat="42.74344" lon="1.60187">
        <ele>1426.585</ele>
        <time>2022-02-20T13:51:05Z</time>
      </trkpt>
      <trkpt lat="42.74344" lon="1.60187">
        <ele>1426.586</ele>
        <time>2022-02-20T13:51:07Z</time>
      </trkpt>
      <trkpt lat="42.74344" lon="1.60187">
        <ele>1426.572</ele>
        <time>2022-02-20T13:51:09Z</time>
      </trkpt>
      <trkpt lat="42.74344" lon="1.60187">
        <ele>1425.692</ele>
        <time>2022-02-20T13:51:11Z</time>
      </trkpt>
      <trkpt lat="42.74344" lon="1.60187">
        <ele>1425.686</ele>
        <time>2022-02-20T13:51:13Z</time>
      </trkpt>
      <trkpt lat="42.74344" lon="1.60187">
        <ele>1425.681</ele>
        <time>2022-02-20T13:51:15Z</time>
      </trkpt>
      <trkpt lat="42.74344" lon="1.60187">
        <ele>1425.677</ele>
        <time>2022-02-20T13:51:17Z</time>
      </trkpt>
      <trkpt lat="42.74344" lon="1.60187">
        <ele>1425.408</ele>
        <time>2022-02-20T13:51:19Z</time>
      </trkpt>
      <trkpt lat="42.74344" lon="1.60187">
        <ele>1425.429</ele>
        <time>2022-02-20T13:51:21Z</time>
      </trkpt>
      <trkpt lat="42.74344" lon="1.60187">
        <ele>1425.42</ele>
        <time>2022-02-20T13:51:23Z</time>
      </trkpt>
      <trkpt lat="42.74344" lon="1.60187">
        <ele>1425.406</ele>
        <time>2022-02-20T13:51:25Z</time>
      </trkpt>
      <trkpt lat="42.74344" lon="1.60187">
        <ele>1425.404</ele>
        <time>2022-02-20T13:51:27Z</time>
      </trkpt>
      <trkpt lat="42.74344" lon="1.60187">
        <ele>1425.577</ele>
        <time>2022-02-20T13:51:29Z</time>
      </trkpt>
      <trkpt lat="42.74344" lon="1.60187">
        <ele>1425.273</ele>
        <time>2022-02-20T13:51:31Z</time>
      </trkpt>
      <trkpt lat="42.74344" lon="1.60186">
        <ele>1425.279</ele>
        <time>2022-02-20T13:51:33Z</time>
      </trkpt>
      <trkpt lat="42.74344" lon="1.60186">
        <ele>1425.269</ele>
        <time>2022-02-20T13:51:35Z</time>
      </trkpt>
      <trkpt lat="42.74344" lon="1.60186">
        <ele>1426.208</ele>
        <time>2022-02-20T13:51:37Z</time>
      </trkpt>
      <trkpt lat="42.74344" lon="1.60186">
        <ele>1426.199</ele>
        <time>2022-02-20T13:51:39Z</time>
      </trkpt>
      <trkpt lat="42.74344" lon="1.60186">
        <ele>1426.187</ele>
        <time>2022-02-20T13:51:41Z</time>
      </trkpt>
      <trkpt lat="42.74344" lon="1.60186">
        <ele>1426.176</ele>
        <time>2022-02-20T13:51:43Z</time>
      </trkpt>
      <trkpt lat="42.74344" lon="1.60186">
        <ele>1426.165</ele>
        <time>2022-02-20T13:51:45Z</time>
      </trkpt>
      <trkpt lat="42.74345" lon="1.60185">
        <ele>1426.068</ele>
        <time>2022-02-20T13:51:47Z</time>
      </trkpt>
      <trkpt lat="42.74345" lon="1.60184">
        <ele>1424.932</ele>
        <time>2022-02-20T13:51:49Z</time>
      </trkpt>
      <trkpt lat="42.74345" lon="1.60184">
        <ele>1424.82</ele>
        <time>2022-02-20T13:51:51Z</time>
      </trkpt>
      <trkpt lat="42.74345" lon="1.60183">
        <ele>1424.906</ele>
        <time>2022-02-20T13:51:53Z</time>
      </trkpt>
      <trkpt lat="42.74345" lon="1.60183">
        <ele>1425.046</ele>
        <time>2022-02-20T13:51:55Z</time>
      </trkpt>
      <trkpt lat="42.74345" lon="1.60181">
        <ele>1425.016</ele>
        <time>2022-02-20T13:51:57Z</time>
      </trkpt>
      <trkpt lat="42.74346" lon="1.6018">
        <ele>1423.744</ele>
        <time>2022-02-20T13:51:59Z</time>
      </trkpt>
      <trkpt lat="42.74346" lon="1.60179">
        <ele>1424.018</ele>
        <time>2022-02-20T13:52:01Z</time>
      </trkpt>
      <trkpt lat="42.74347" lon="1.60179">
        <ele>1423.531</ele>
        <time>2022-02-20T13:52:03Z</time>
      </trkpt>
      <trkpt lat="42.74347" lon="1.60178">
        <ele>1423.056</ele>
        <time>2022-02-20T13:52:05Z</time>
      </trkpt>
      <trkpt lat="42.74348" lon="1.60178">
        <ele>1422.686</ele>
        <time>2022-02-20T13:52:07Z</time>
      </trkpt>
      <trkpt lat="42.74348" lon="1.60177">
        <ele>1423.511</ele>
        <time>2022-02-20T13:52:09Z</time>
      </trkpt>
      <trkpt lat="42.74348" lon="1.60177">
        <ele>1423.544</ele>
        <time>2022-02-20T13:52:11Z</time>
      </trkpt>
      <trkpt lat="42.74348" lon="1.60177">
        <ele>1423.542</ele>
        <time>2022-02-20T13:52:13Z</time>
      </trkpt>
      <trkpt lat="42.74348" lon="1.60177">
        <ele>1423.54</ele>
        <time>2022-02-20T13:52:15Z</time>
      </trkpt>
      <trkpt lat="42.74348" lon="1.60177">
        <ele>1423.537</ele>
        <time>2022-02-20T13:52:17Z</time>
      </trkpt>
      <trkpt lat="42.74348" lon="1.60176">
        <ele>1423.533</ele>
        <time>2022-02-20T13:52:19Z</time>
      </trkpt>
      <trkpt lat="42.74348" lon="1.60176">
        <ele>1423.76</ele>
        <time>2022-02-20T13:52:21Z</time>
      </trkpt>
      <trkpt lat="42.74348" lon="1.60176">
        <ele>1423.74</ele>
        <time>2022-02-20T13:52:23Z</time>
      </trkpt>
      <trkpt lat="42.74348" lon="1.60176">
        <ele>1423.712</ele>
        <time>2022-02-20T13:52:25Z</time>
      </trkpt>
      <trkpt lat="42.74348" lon="1.60176">
        <ele>1423.717</ele>
        <time>2022-02-20T13:52:27Z</time>
      </trkpt>
      <trkpt lat="42.74348" lon="1.60176">
        <ele>1423.715</ele>
        <time>2022-02-20T13:52:29Z</time>
      </trkpt>
      <trkpt lat="42.74348" lon="1.60176">
        <ele>1423.716</ele>
        <time>2022-02-20T13:52:31Z</time>
      </trkpt>
      <trkpt lat="42.74348" lon="1.60176">
        <ele>1423.727</ele>
        <time>2022-02-20T13:52:33Z</time>
      </trkpt>
      <trkpt lat="42.74348" lon="1.60176">
        <ele>1423.741</ele>
        <time>2022-02-20T13:52:35Z</time>
      </trkpt>
      <trkpt lat="42.74348" lon="1.60176">
        <ele>1423.733</ele>
        <time>2022-02-20T13:52:37Z</time>
      </trkpt>
      <trkpt lat="42.74348" lon="1.60176">
        <ele>1423.707</ele>
        <time>2022-02-20T13:52:39Z</time>
      </trkpt>
      <trkpt lat="42.74348" lon="1.60176">
        <ele>1423.693</ele>
        <time>2022-02-20T13:52:41Z</time>
      </trkpt>
      <trkpt lat="42.74348" lon="1.60176">
        <ele>1423.675</ele>
        <time>2022-02-20T13:52:43Z</time>
      </trkpt>
      <trkpt lat="42.74348" lon="1.60176">
        <ele>1423.677</ele>
        <time>2022-02-20T13:52:45Z</time>
      </trkpt>
      <trkpt lat="42.74348" lon="1.60176">
        <ele>1423.68</ele>
        <time>2022-02-20T13:52:47Z</time>
      </trkpt>
      <trkpt lat="42.74348" lon="1.60176">
        <ele>1423.672</ele>
        <time>2022-02-20T13:52:49Z</time>
      </trkpt>
      <trkpt lat="42.74348" lon="1.60176">
        <ele>1423.654</ele>
        <time>2022-02-20T13:52:51Z</time>
      </trkpt>
      <trkpt lat="42.74348" lon="1.60176">
        <ele>1423.664</ele>
        <time>2022-02-20T13:52:53Z</time>
      </trkpt>
      <trkpt lat="42.74348" lon="1.60176">
        <ele>1423.669</ele>
        <time>2022-02-20T13:52:55Z</time>
      </trkpt>
      <trkpt lat="42.74348" lon="1.60176">
        <ele>1423.658</ele>
        <time>2022-02-20T13:52:57Z</time>
      </trkpt>
      <trkpt lat="42.74348" lon="1.60176">
        <ele>1423.653</ele>
        <time>2022-02-20T13:52:59Z</time>
      </trkpt>
      <trkpt lat="42.74348" lon="1.60176">
        <ele>1423.66</ele>
        <time>2022-02-20T13:53:01Z</time>
      </trkpt>
      <trkpt lat="42.74348" lon="1.60176">
        <ele>1423.659</ele>
        <time>2022-02-20T13:53:03Z</time>
      </trkpt>
      <trkpt lat="42.74348" lon="1.60176">
        <ele>1423.655</ele>
        <time>2022-02-20T13:53:05Z</time>
      </trkpt>
      <trkpt lat="42.74348" lon="1.60176">
        <ele>1423.651</ele>
        <time>2022-02-20T13:53:07Z</time>
      </trkpt>
      <trkpt lat="42.74349" lon="1.60176">
        <ele>1423.666</ele>
        <time>2022-02-20T13:53:09Z</time>
      </trkpt>
      <trkpt lat="42.74349" lon="1.60176">
        <ele>1423.662</ele>
        <time>2022-02-20T13:53:11Z</time>
      </trkpt>
      <trkpt lat="42.74349" lon="1.60176">
        <ele>1423.662</ele>
        <time>2022-02-20T13:53:13Z</time>
      </trkpt>
      <trkpt lat="42.74349" lon="1.60176">
        <ele>1423.662</ele>
        <time>2022-02-20T13:53:15Z</time>
      </trkpt>
      <trkpt lat="42.74349" lon="1.60176">
        <ele>1423.671</ele>
        <time>2022-02-20T13:53:17Z</time>
      </trkpt>
      <trkpt lat="42.74349" lon="1.60176">
        <ele>1423.673</ele>
        <time>2022-02-20T13:53:19Z</time>
      </trkpt>
      <trkpt lat="42.74349" lon="1.60176">
        <ele>1423.671</ele>
        <time>2022-02-20T13:53:21Z</time>
      </trkpt>
      <trkpt lat="42.74349" lon="1.60176">
        <ele>1423.663</ele>
        <time>2022-02-20T13:53:23Z</time>
      </trkpt>
      <trkpt lat="42.74349" lon="1.60176">
        <ele>1423.665</ele>
        <time>2022-02-20T13:53:25Z</time>
      </trkpt>
      <trkpt lat="42.74349" lon="1.60176">
        <ele>1423.679</ele>
        <time>2022-02-20T13:53:27Z</time>
      </trkpt>
      <trkpt lat="42.74349" lon="1.60176">
        <ele>1423.675</ele>
        <time>2022-02-20T13:53:29Z</time>
      </trkpt>
      <trkpt lat="42.74349" lon="1.60176">
        <ele>1423.669</ele>
        <time>2022-02-20T13:53:31Z</time>
      </trkpt>
      <trkpt lat="42.74349" lon="1.60176">
        <ele>1423.665</ele>
        <time>2022-02-20T13:53:33Z</time>
      </trkpt>
      <trkpt lat="42.74349" lon="1.60176">
        <ele>1423.669</ele>
        <time>2022-02-20T13:53:35Z</time>
      </trkpt>
      <trkpt lat="42.74349" lon="1.60176">
        <ele>1423.683</ele>
        <time>2022-02-20T13:53:37Z</time>
      </trkpt>
      <trkpt lat="42.74348" lon="1.60176">
        <ele>1423.359</ele>
        <time>2022-02-20T13:53:39Z</time>
      </trkpt>
      <trkpt lat="42.74348" lon="1.60176">
        <ele>1423.354</ele>
        <time>2022-02-20T13:53:41Z</time>
      </trkpt>
      <trkpt lat="42.74348" lon="1.60176">
        <ele>1423.346</ele>
        <time>2022-02-20T13:53:43Z</time>
      </trkpt>
      <trkpt lat="42.74348" lon="1.60176">
        <ele>1423.345</ele>
        <time>2022-02-20T13:53:45Z</time>
      </trkpt>
      <trkpt lat="42.74348" lon="1.60176">
        <ele>1423.354</ele>
        <time>2022-02-20T13:53:47Z</time>
      </trkpt>
      <trkpt lat="42.74348" lon="1.60176">
        <ele>1423.34</ele>
        <time>2022-02-20T13:53:49Z</time>
      </trkpt>
      <trkpt lat="42.74348" lon="1.60176">
        <ele>1423.324</ele>
        <time>2022-02-20T13:53:51Z</time>
      </trkpt>
      <trkpt lat="42.74348" lon="1.60175">
        <ele>1423.994</ele>
        <time>2022-02-20T13:53:53Z</time>
      </trkpt>
      <trkpt lat="42.74348" lon="1.60175">
        <ele>1423.999</ele>
        <time>2022-02-20T13:53:55Z</time>
      </trkpt>
      <trkpt lat="42.74348" lon="1.60175">
        <ele>1423.996</ele>
        <time>2022-02-20T13:53:57Z</time>
      </trkpt>
      <trkpt lat="42.74348" lon="1.60175">
        <ele>1423.999</ele>
        <time>2022-02-20T13:53:59Z</time>
      </trkpt>
      <trkpt lat="42.74348" lon="1.60175">
        <ele>1423.991</ele>
        <time>2022-02-20T13:54:01Z</time>
      </trkpt>
      <trkpt lat="42.74348" lon="1.60175">
        <ele>1423.9</ele>
        <time>2022-02-20T13:54:03Z</time>
      </trkpt>
      <trkpt lat="42.74347" lon="1.60175">
        <ele>1423.875</ele>
        <time>2022-02-20T13:54:05Z</time>
      </trkpt>
      <trkpt lat="42.74347" lon="1.60175">
        <ele>1423.891</ele>
        <time>2022-02-20T13:54:07Z</time>
      </trkpt>
      <trkpt lat="42.74347" lon="1.60175">
        <ele>1423.902</ele>
        <time>2022-02-20T13:54:09Z</time>
      </trkpt>
      <trkpt lat="42.74348" lon="1.60175">
        <ele>1424.952</ele>
        <time>2022-02-20T13:54:11Z</time>
      </trkpt>
      <trkpt lat="42.74348" lon="1.60175">
        <ele>1425.12</ele>
        <time>2022-02-20T13:54:13Z</time>
      </trkpt>
      <trkpt lat="42.74348" lon="1.60175">
        <ele>1425.17</ele>
        <time>2022-02-20T13:54:15Z</time>
      </trkpt>
      <trkpt lat="42.74348" lon="1.60175">
        <ele>1425.195</ele>
        <time>2022-02-20T13:54:17Z</time>
      </trkpt>
      <trkpt lat="42.74348" lon="1.60175">
        <ele>1425.241</ele>
        <time>2022-02-20T13:54:19Z</time>
      </trkpt>
      <trkpt lat="42.74348" lon="1.60175">
        <ele>1425.249</ele>
        <time>2022-02-20T13:54:21Z</time>
      </trkpt>
      <trkpt lat="42.74348" lon="1.60175">
        <ele>1425.235</ele>
        <time>2022-02-20T13:54:23Z</time>
      </trkpt>
      <trkpt lat="42.74348" lon="1.60175">
        <ele>1425.246</ele>
        <time>2022-02-20T13:54:25Z</time>
      </trkpt>
      <trkpt lat="42.74348" lon="1.60175">
        <ele>1425.27</ele>
        <time>2022-02-20T13:54:27Z</time>
      </trkpt>
      <trkpt lat="42.74348" lon="1.60175">
        <ele>1425.275</ele>
        <time>2022-02-20T13:54:29Z</time>
      </trkpt>
      <trkpt lat="42.74348" lon="1.60175">
        <ele>1425.295</ele>
        <time>2022-02-20T13:54:31Z</time>
      </trkpt>
      <trkpt lat="42.74348" lon="1.60175">
        <ele>1425.297</ele>
        <time>2022-02-20T13:54:33Z</time>
      </trkpt>
      <trkpt lat="42.74348" lon="1.60175">
        <ele>1425.31</ele>
        <time>2022-02-20T13:54:35Z</time>
      </trkpt>
      <trkpt lat="42.74348" lon="1.60175">
        <ele>1425.324</ele>
        <time>2022-02-20T13:54:37Z</time>
      </trkpt>
      <trkpt lat="42.74348" lon="1.60174">
        <ele>1425.883</ele>
        <time>2022-02-20T13:54:39Z</time>
      </trkpt>
      <trkpt lat="42.74347" lon="1.60174">
        <ele>1425.418</ele>
        <time>2022-02-20T13:54:41Z</time>
      </trkpt>
      <trkpt lat="42.74347" lon="1.60173">
        <ele>1424.222</ele>
        <time>2022-02-20T13:54:43Z</time>
      </trkpt>
      <trkpt lat="42.74348" lon="1.6017">
        <ele>1424.71</ele>
        <time>2022-02-20T13:54:45Z</time>
      </trkpt>
      <trkpt lat="42.74347" lon="1.60169">
        <ele>1425.169</ele>
        <time>2022-02-20T13:54:47Z</time>
      </trkpt>
      <trkpt lat="42.74346" lon="1.60167">
        <ele>1425.394</ele>
        <time>2022-02-20T13:54:49Z</time>
      </trkpt>
      <trkpt lat="42.74346" lon="1.60165">
        <ele>1425.019</ele>
        <time>2022-02-20T13:54:51Z</time>
      </trkpt>
      <trkpt lat="42.74345" lon="1.60163">
        <ele>1424.869</ele>
        <time>2022-02-20T13:54:53Z</time>
      </trkpt>
      <trkpt lat="42.74345" lon="1.60161">
        <ele>1425.281</ele>
        <time>2022-02-20T13:54:55Z</time>
      </trkpt>
      <trkpt lat="42.74345" lon="1.6016">
        <ele>1425.927</ele>
        <time>2022-02-20T13:54:57Z</time>
      </trkpt>
      <trkpt lat="42.74345" lon="1.60158">
        <ele>1425.747</ele>
        <time>2022-02-20T13:54:59Z</time>
      </trkpt>
      <trkpt lat="42.74344" lon="1.60157">
        <ele>1424.979</ele>
        <time>2022-02-20T13:55:01Z</time>
      </trkpt>
      <trkpt lat="42.74344" lon="1.60157">
        <ele>1424.117</ele>
        <time>2022-02-20T13:55:03Z</time>
      </trkpt>
      <trkpt lat="42.74345" lon="1.60156">
        <ele>1424.361</ele>
        <time>2022-02-20T13:55:05Z</time>
      </trkpt>
      <trkpt lat="42.74345" lon="1.60154">
        <ele>1423.966</ele>
        <time>2022-02-20T13:55:07Z</time>
      </trkpt>
      <trkpt lat="42.74345" lon="1.60152">
        <ele>1424.714</ele>
        <time>2022-02-20T13:55:09Z</time>
      </trkpt>
      <trkpt lat="42.74344" lon="1.6015">
        <ele>1425.823</ele>
        <time>2022-02-20T13:55:11Z</time>
      </trkpt>
      <trkpt lat="42.74345" lon="1.60149">
        <ele>1425.188</ele>
        <time>2022-02-20T13:55:13Z</time>
      </trkpt>
      <trkpt lat="42.74345" lon="1.60149">
        <ele>1424.85</ele>
        <time>2022-02-20T13:55:15Z</time>
      </trkpt>
      <trkpt lat="42.74344" lon="1.60147">
        <ele>1425.617</ele>
        <time>2022-02-20T13:55:17Z</time>
      </trkpt>
      <trkpt lat="42.74343" lon="1.60147">
        <ele>1422.919</ele>
        <time>2022-02-20T13:55:19Z</time>
      </trkpt>
      <trkpt lat="42.74341" lon="1.60145">
        <ele>1423.733</ele>
        <time>2022-02-20T13:55:21Z</time>
      </trkpt>
      <trkpt lat="42.74341" lon="1.60143">
        <ele>1425.264</ele>
        <time>2022-02-20T13:55:23Z</time>
      </trkpt>
      <trkpt lat="42.74341" lon="1.60142">
        <ele>1424.548</ele>
        <time>2022-02-20T13:55:25Z</time>
      </trkpt>
      <trkpt lat="42.7434" lon="1.60139">
        <ele>1423.477</ele>
        <time>2022-02-20T13:55:28Z</time>
      </trkpt>
      <trkpt lat="42.74339" lon="1.60138">
        <ele>1423.685</ele>
        <time>2022-02-20T13:55:30Z</time>
      </trkpt>
      <trkpt lat="42.74338" lon="1.60136">
        <ele>1422.908</ele>
        <time>2022-02-20T13:55:32Z</time>
      </trkpt>
      <trkpt lat="42.74337" lon="1.60135">
        <ele>1422.817</ele>
        <time>2022-02-20T13:55:34Z</time>
      </trkpt>
      <trkpt lat="42.74337" lon="1.60133">
        <ele>1425.015</ele>
        <time>2022-02-20T13:55:36Z</time>
      </trkpt>
      <trkpt lat="42.74336" lon="1.60131">
        <ele>1425.879</ele>
        <time>2022-02-20T13:55:38Z</time>
      </trkpt>
      <trkpt lat="42.74335" lon="1.6013">
        <ele>1425.005</ele>
        <time>2022-02-20T13:55:40Z</time>
      </trkpt>
      <trkpt lat="42.74334" lon="1.60129">
        <ele>1423.524</ele>
        <time>2022-02-20T13:55:42Z</time>
      </trkpt>
      <trkpt lat="42.74332" lon="1.60127">
        <ele>1424.123</ele>
        <time>2022-02-20T13:55:44Z</time>
      </trkpt>
      <trkpt lat="42.74332" lon="1.60127">
        <ele>1423.714</ele>
        <time>2022-02-20T13:55:46Z</time>
      </trkpt>
      <trkpt lat="42.74331" lon="1.60125">
        <ele>1423.653</ele>
        <time>2022-02-20T13:55:48Z</time>
      </trkpt>
      <trkpt lat="42.7433" lon="1.60124">
        <ele>1424.718</ele>
        <time>2022-02-20T13:55:50Z</time>
      </trkpt>
      <trkpt lat="42.74329" lon="1.60123">
        <ele>1425.088</ele>
        <time>2022-02-20T13:55:52Z</time>
      </trkpt>
      <trkpt lat="42.74328" lon="1.60121">
        <ele>1422.88</ele>
        <time>2022-02-20T13:55:54Z</time>
      </trkpt>
      <trkpt lat="42.74328" lon="1.60118">
        <ele>1422.985</ele>
        <time>2022-02-20T13:55:56Z</time>
      </trkpt>
      <trkpt lat="42.74328" lon="1.60117">
        <ele>1424.746</ele>
        <time>2022-02-20T13:55:58Z</time>
      </trkpt>
      <trkpt lat="42.74327" lon="1.60115">
        <ele>1423.11</ele>
        <time>2022-02-20T13:56:00Z</time>
      </trkpt>
      <trkpt lat="42.74327" lon="1.60113">
        <ele>1421.496</ele>
        <time>2022-02-20T13:56:02Z</time>
      </trkpt>
      <trkpt lat="42.74326" lon="1.60113">
        <ele>1421.194</ele>
        <time>2022-02-20T13:56:04Z</time>
      </trkpt>
      <trkpt lat="42.74325" lon="1.60113">
        <ele>1419.289</ele>
        <time>2022-02-20T13:56:06Z</time>
      </trkpt>
      <trkpt lat="42.74323" lon="1.60112">
        <ele>1418.865</ele>
        <time>2022-02-20T13:56:08Z</time>
      </trkpt>
      <trkpt lat="42.74322" lon="1.60111">
        <ele>1418.829</ele>
        <time>2022-02-20T13:56:10Z</time>
      </trkpt>
      <trkpt lat="42.74321" lon="1.60109">
        <ele>1418.011</ele>
        <time>2022-02-20T13:56:12Z</time>
      </trkpt>
      <trkpt lat="42.7432" lon="1.6011">
        <ele>1416.768</ele>
        <time>2022-02-20T13:56:14Z</time>
      </trkpt>
      <trkpt lat="42.7432" lon="1.60111">
        <ele>1416.73</ele>
        <time>2022-02-20T13:56:16Z</time>
      </trkpt>
      <trkpt lat="42.7432" lon="1.60111">
        <ele>1416.948</ele>
        <time>2022-02-20T13:56:18Z</time>
      </trkpt>
      <trkpt lat="42.74319" lon="1.60111">
        <ele>1415.934</ele>
        <time>2022-02-20T13:56:20Z</time>
      </trkpt>
      <trkpt lat="42.74318" lon="1.60111">
        <ele>1415.682</ele>
        <time>2022-02-20T13:56:22Z</time>
      </trkpt>
      <trkpt lat="42.74316" lon="1.60113">
        <ele>1413.739</ele>
        <time>2022-02-20T13:56:24Z</time>
      </trkpt>
      <trkpt lat="42.74314" lon="1.60114">
        <ele>1411.271</ele>
        <time>2022-02-20T13:56:26Z</time>
      </trkpt>
      <trkpt lat="42.74313" lon="1.60115">
        <ele>1408.701</ele>
        <time>2022-02-20T13:56:28Z</time>
      </trkpt>
      <trkpt lat="42.74312" lon="1.60116">
        <ele>1407.722</ele>
        <time>2022-02-20T13:56:30Z</time>
      </trkpt>
      <trkpt lat="42.74311" lon="1.60117">
        <ele>1406.418</ele>
        <time>2022-02-20T13:56:32Z</time>
      </trkpt>
      <trkpt lat="42.7431" lon="1.60118">
        <ele>1405.706</ele>
        <time>2022-02-20T13:56:34Z</time>
      </trkpt>
      <trkpt lat="42.74309" lon="1.60119">
        <ele>1405.173</ele>
        <time>2022-02-20T13:56:36Z</time>
      </trkpt>
      <trkpt lat="42.74308" lon="1.60119">
        <ele>1405.077</ele>
        <time>2022-02-20T13:56:38Z</time>
      </trkpt>
      <trkpt lat="42.74308" lon="1.6012">
        <ele>1405.105</ele>
        <time>2022-02-20T13:56:40Z</time>
      </trkpt>
      <trkpt lat="42.74308" lon="1.6012">
        <ele>1405.092</ele>
        <time>2022-02-20T13:56:42Z</time>
      </trkpt>
      <trkpt lat="42.74309" lon="1.6012">
        <ele>1403.608</ele>
        <time>2022-02-20T13:56:44Z</time>
      </trkpt>
      <trkpt lat="42.74311" lon="1.60119">
        <ele>1403.508</ele>
        <time>2022-02-20T13:56:46Z</time>
      </trkpt>
      <trkpt lat="42.74311" lon="1.60119">
        <ele>1403.531</ele>
        <time>2022-02-20T13:56:48Z</time>
      </trkpt>
      <trkpt lat="42.74311" lon="1.60119">
        <ele>1403.533</ele>
        <time>2022-02-20T13:56:50Z</time>
      </trkpt>
      <trkpt lat="42.74311" lon="1.60119">
        <ele>1403.533</ele>
        <time>2022-02-20T13:56:52Z</time>
      </trkpt>
      <trkpt lat="42.74311" lon="1.60119">
        <ele>1403.535</ele>
        <time>2022-02-20T13:56:54Z</time>
      </trkpt>
      <trkpt lat="42.74311" lon="1.60119">
        <ele>1403.534</ele>
        <time>2022-02-20T13:56:56Z</time>
      </trkpt>
      <trkpt lat="42.74311" lon="1.60119">
        <ele>1403.991</ele>
        <time>2022-02-20T13:56:58Z</time>
      </trkpt>
      <trkpt lat="42.74311" lon="1.60119">
        <ele>1402.564</ele>
        <time>2022-02-20T13:57:00Z</time>
      </trkpt>
      <trkpt lat="42.74311" lon="1.60119">
        <ele>1402.845</ele>
        <time>2022-02-20T13:57:02Z</time>
      </trkpt>
      <trkpt lat="42.74311" lon="1.60119">
        <ele>1402.848</ele>
        <time>2022-02-20T13:57:04Z</time>
      </trkpt>
      <trkpt lat="42.74311" lon="1.60119">
        <ele>1402.569</ele>
        <time>2022-02-20T13:57:06Z</time>
      </trkpt>
      <trkpt lat="42.74311" lon="1.60119">
        <ele>1401.99</ele>
        <time>2022-02-20T13:57:08Z</time>
      </trkpt>
      <trkpt lat="42.74311" lon="1.60119">
        <ele>1401.961</ele>
        <time>2022-02-20T13:57:10Z</time>
      </trkpt>
      <trkpt lat="42.74311" lon="1.60119">
        <ele>1401.942</ele>
        <time>2022-02-20T13:57:12Z</time>
      </trkpt>
      <trkpt lat="42.74311" lon="1.60119">
        <ele>1401.943</ele>
        <time>2022-02-20T13:57:14Z</time>
      </trkpt>
      <trkpt lat="42.74311" lon="1.60119">
        <ele>1401.95</ele>
        <time>2022-02-20T13:57:16Z</time>
      </trkpt>
      <trkpt lat="42.74311" lon="1.60119">
        <ele>1401.958</ele>
        <time>2022-02-20T13:57:18Z</time>
      </trkpt>
      <trkpt lat="42.74311" lon="1.60119">
        <ele>1401.953</ele>
        <time>2022-02-20T13:57:20Z</time>
      </trkpt>
      <trkpt lat="42.74311" lon="1.60119">
        <ele>1401.961</ele>
        <time>2022-02-20T13:57:22Z</time>
      </trkpt>
      <trkpt lat="42.74311" lon="1.60119">
        <ele>1401.953</ele>
        <time>2022-02-20T13:57:24Z</time>
      </trkpt>
      <trkpt lat="42.74311" lon="1.60119">
        <ele>1401.946</ele>
        <time>2022-02-20T13:57:26Z</time>
      </trkpt>
      <trkpt lat="42.74311" lon="1.60119">
        <ele>1401.937</ele>
        <time>2022-02-20T13:57:28Z</time>
      </trkpt>
      <trkpt lat="42.74311" lon="1.60119">
        <ele>1401.937</ele>
        <time>2022-02-20T13:57:30Z</time>
      </trkpt>
      <trkpt lat="42.74311" lon="1.60119">
        <ele>1401.938</ele>
        <time>2022-02-20T13:57:32Z</time>
      </trkpt>
      <trkpt lat="42.74311" lon="1.60119">
        <ele>1401.929</ele>
        <time>2022-02-20T13:57:34Z</time>
      </trkpt>
      <trkpt lat="42.74311" lon="1.60119">
        <ele>1401.937</ele>
        <time>2022-02-20T13:57:36Z</time>
      </trkpt>
      <trkpt lat="42.74311" lon="1.60119">
        <ele>1401.937</ele>
        <time>2022-02-20T13:57:38Z</time>
      </trkpt>
      <trkpt lat="42.74311" lon="1.60119">
        <ele>1401.938</ele>
        <time>2022-02-20T13:57:40Z</time>
      </trkpt>
      <trkpt lat="42.74311" lon="1.60119">
        <ele>1401.934</ele>
        <time>2022-02-20T13:57:42Z</time>
      </trkpt>
      <trkpt lat="42.7431" lon="1.6012">
        <ele>1401.842</ele>
        <time>2022-02-20T13:57:44Z</time>
      </trkpt>
      <trkpt lat="42.74311" lon="1.6012">
        <ele>1401.628</ele>
        <time>2022-02-20T13:57:46Z</time>
      </trkpt>
      <trkpt lat="42.74311" lon="1.6012">
        <ele>1401.599</ele>
        <time>2022-02-20T13:57:48Z</time>
      </trkpt>
      <trkpt lat="42.74311" lon="1.6012">
        <ele>1401.653</ele>
        <time>2022-02-20T13:57:50Z</time>
      </trkpt>
      <trkpt lat="42.74311" lon="1.6012">
        <ele>1401.821</ele>
        <time>2022-02-20T13:57:52Z</time>
      </trkpt>
      <trkpt lat="42.74311" lon="1.6012">
        <ele>1401.817</ele>
        <time>2022-02-20T13:57:54Z</time>
      </trkpt>
      <trkpt lat="42.74311" lon="1.6012">
        <ele>1401.806</ele>
        <time>2022-02-20T13:57:56Z</time>
      </trkpt>
      <trkpt lat="42.74311" lon="1.6012">
        <ele>1401.804</ele>
        <time>2022-02-20T13:57:58Z</time>
      </trkpt>
      <trkpt lat="42.74311" lon="1.6012">
        <ele>1401.75</ele>
        <time>2022-02-20T13:58:00Z</time>
      </trkpt>
      <trkpt lat="42.74311" lon="1.6012">
        <ele>1400.285</ele>
        <time>2022-02-20T13:58:02Z</time>
      </trkpt>
      <trkpt lat="42.74311" lon="1.6012">
        <ele>1400.039</ele>
        <time>2022-02-20T13:58:04Z</time>
      </trkpt>
      <trkpt lat="42.74312" lon="1.60119">
        <ele>1399.957</ele>
        <time>2022-02-20T13:58:06Z</time>
      </trkpt>
      <trkpt lat="42.74312" lon="1.60119">
        <ele>1399.946</ele>
        <time>2022-02-20T13:58:08Z</time>
      </trkpt>
      <trkpt lat="42.74312" lon="1.60119">
        <ele>1399.938</ele>
        <time>2022-02-20T13:58:10Z</time>
      </trkpt>
      <trkpt lat="42.74312" lon="1.60119">
        <ele>1399.941</ele>
        <time>2022-02-20T13:58:12Z</time>
      </trkpt>
      <trkpt lat="42.74312" lon="1.60119">
        <ele>1399.941</ele>
        <time>2022-02-20T13:58:14Z</time>
      </trkpt>
      <trkpt lat="42.74312" lon="1.60119">
        <ele>1399.932</ele>
        <time>2022-02-20T13:58:16Z</time>
      </trkpt>
      <trkpt lat="42.74312" lon="1.60119">
        <ele>1399.933</ele>
        <time>2022-02-20T13:58:18Z</time>
      </trkpt>
      <trkpt lat="42.74312" lon="1.60119">
        <ele>1399.934</ele>
        <time>2022-02-20T13:58:20Z</time>
      </trkpt>
      <trkpt lat="42.74312" lon="1.60119">
        <ele>1399.944</ele>
        <time>2022-02-20T13:58:22Z</time>
      </trkpt>
      <trkpt lat="42.74312" lon="1.60119">
        <ele>1399.956</ele>
        <time>2022-02-20T13:58:24Z</time>
      </trkpt>
      <trkpt lat="42.74312" lon="1.60119">
        <ele>1399.964</ele>
        <time>2022-02-20T13:58:26Z</time>
      </trkpt>
      <trkpt lat="42.74312" lon="1.60119">
        <ele>1399.964</ele>
        <time>2022-02-20T13:58:28Z</time>
      </trkpt>
      <trkpt lat="42.74312" lon="1.60119">
        <ele>1399.96</ele>
        <time>2022-02-20T13:58:30Z</time>
      </trkpt>
      <trkpt lat="42.74312" lon="1.60119">
        <ele>1399.975</ele>
        <time>2022-02-20T13:58:32Z</time>
      </trkpt>
      <trkpt lat="42.74312" lon="1.60119">
        <ele>1399.984</ele>
        <time>2022-02-20T13:58:34Z</time>
      </trkpt>
      <trkpt lat="42.74312" lon="1.60119">
        <ele>1399.982</ele>
        <time>2022-02-20T13:58:36Z</time>
      </trkpt>
      <trkpt lat="42.74312" lon="1.60119">
        <ele>1399.986</ele>
        <time>2022-02-20T13:58:38Z</time>
      </trkpt>
      <trkpt lat="42.74312" lon="1.60119">
        <ele>1399.983</ele>
        <time>2022-02-20T13:58:40Z</time>
      </trkpt>
      <trkpt lat="42.74312" lon="1.60119">
        <ele>1399.982</ele>
        <time>2022-02-20T13:58:42Z</time>
      </trkpt>
      <trkpt lat="42.74312" lon="1.60119">
        <ele>1399.984</ele>
        <time>2022-02-20T13:58:44Z</time>
      </trkpt>
      <trkpt lat="42.74312" lon="1.60119">
        <ele>1399.987</ele>
        <time>2022-02-20T13:58:46Z</time>
      </trkpt>
      <trkpt lat="42.74312" lon="1.60119">
        <ele>1399.986</ele>
        <time>2022-02-20T13:58:48Z</time>
      </trkpt>
      <trkpt lat="42.74312" lon="1.60119">
        <ele>1399.985</ele>
        <time>2022-02-20T13:58:50Z</time>
      </trkpt>
      <trkpt lat="42.74312" lon="1.60119">
        <ele>1399.979</ele>
        <time>2022-02-20T13:58:52Z</time>
      </trkpt>
      <trkpt lat="42.74312" lon="1.60119">
        <ele>1399.977</ele>
        <time>2022-02-20T13:58:54Z</time>
      </trkpt>
      <trkpt lat="42.74312" lon="1.60119">
        <ele>1399.976</ele>
        <time>2022-02-20T13:58:56Z</time>
      </trkpt>
      <trkpt lat="42.74312" lon="1.60119">
        <ele>1399.973</ele>
        <time>2022-02-20T13:58:58Z</time>
      </trkpt>
      <trkpt lat="42.74312" lon="1.60119">
        <ele>1399.969</ele>
        <time>2022-02-20T13:59:00Z</time>
      </trkpt>
      <trkpt lat="42.74312" lon="1.60119">
        <ele>1399.967</ele>
        <time>2022-02-20T13:59:02Z</time>
      </trkpt>
      <trkpt lat="42.74312" lon="1.60119">
        <ele>1399.963</ele>
        <time>2022-02-20T13:59:04Z</time>
      </trkpt>
      <trkpt lat="42.74312" lon="1.60119">
        <ele>1399.963</ele>
        <time>2022-02-20T13:59:06Z</time>
      </trkpt>
      <trkpt lat="42.74312" lon="1.60119">
        <ele>1399.968</ele>
        <time>2022-02-20T13:59:08Z</time>
      </trkpt>
      <trkpt lat="42.74312" lon="1.60119">
        <ele>1399.966</ele>
        <time>2022-02-20T13:59:10Z</time>
      </trkpt>
      <trkpt lat="42.74312" lon="1.6012">
        <ele>1399.964</ele>
        <time>2022-02-20T13:59:12Z</time>
      </trkpt>
      <trkpt lat="42.74312" lon="1.6012">
        <ele>1399.962</ele>
        <time>2022-02-20T13:59:14Z</time>
      </trkpt>
      <trkpt lat="42.74312" lon="1.6012">
        <ele>1399.956</ele>
        <time>2022-02-20T13:59:16Z</time>
      </trkpt>
      <trkpt lat="42.74312" lon="1.6012">
        <ele>1399.953</ele>
        <time>2022-02-20T13:59:18Z</time>
      </trkpt>
      <trkpt lat="42.74312" lon="1.6012">
        <ele>1399.949</ele>
        <time>2022-02-20T13:59:20Z</time>
      </trkpt>
      <trkpt lat="42.74312" lon="1.6012">
        <ele>1399.939</ele>
        <time>2022-02-20T13:59:22Z</time>
      </trkpt>
      <trkpt lat="42.74312" lon="1.6012">
        <ele>1399.941</ele>
        <time>2022-02-20T13:59:24Z</time>
      </trkpt>
      <trkpt lat="42.74312" lon="1.6012">
        <ele>1399.941</ele>
        <time>2022-02-20T13:59:26Z</time>
      </trkpt>
      <trkpt lat="42.74312" lon="1.6012">
        <ele>1399.945</ele>
        <time>2022-02-20T13:59:28Z</time>
      </trkpt>
      <trkpt lat="42.74312" lon="1.6012">
        <ele>1399.947</ele>
        <time>2022-02-20T13:59:30Z</time>
      </trkpt>
      <trkpt lat="42.74312" lon="1.6012">
        <ele>1399.959</ele>
        <time>2022-02-20T13:59:32Z</time>
      </trkpt>
      <trkpt lat="42.74312" lon="1.6012">
        <ele>1399.961</ele>
        <time>2022-02-20T13:59:34Z</time>
      </trkpt>
      <trkpt lat="42.74312" lon="1.6012">
        <ele>1399.968</ele>
        <time>2022-02-20T13:59:36Z</time>
      </trkpt>
      <trkpt lat="42.74312" lon="1.6012">
        <ele>1399.976</ele>
        <time>2022-02-20T13:59:38Z</time>
      </trkpt>
      <trkpt lat="42.74312" lon="1.6012">
        <ele>1399.969</ele>
        <time>2022-02-20T13:59:40Z</time>
      </trkpt>
      <trkpt lat="42.74312" lon="1.6012">
        <ele>1399.963</ele>
        <time>2022-02-20T13:59:42Z</time>
      </trkpt>
      <trkpt lat="42.74312" lon="1.6012">
        <ele>1400.114</ele>
        <time>2022-02-20T13:59:44Z</time>
      </trkpt>
      <trkpt lat="42.74312" lon="1.6012">
        <ele>1399.387</ele>
        <time>2022-02-20T13:59:46Z</time>
      </trkpt>
      <trkpt lat="42.74312" lon="1.60119">
        <ele>1399.391</ele>
        <time>2022-02-20T13:59:48Z</time>
      </trkpt>
      <trkpt lat="42.74312" lon="1.60119">
        <ele>1399.399</ele>
        <time>2022-02-20T13:59:50Z</time>
      </trkpt>
      <trkpt lat="42.74312" lon="1.60119">
        <ele>1399.407</ele>
        <time>2022-02-20T13:59:52Z</time>
      </trkpt>
      <trkpt lat="42.74312" lon="1.60119">
        <ele>1399.407</ele>
        <time>2022-02-20T13:59:54Z</time>
      </trkpt>
      <trkpt lat="42.74312" lon="1.60119">
        <ele>1399.395</ele>
        <time>2022-02-20T13:59:56Z</time>
      </trkpt>
      <trkpt lat="42.74312" lon="1.60119">
        <ele>1399.404</ele>
        <time>2022-02-20T13:59:58Z</time>
      </trkpt>
      <trkpt lat="42.74312" lon="1.60119">
        <ele>1399.401</ele>
        <time>2022-02-20T14:00:00Z</time>
      </trkpt>
      <trkpt lat="42.74312" lon="1.60119">
        <ele>1399.404</ele>
        <time>2022-02-20T14:00:02Z</time>
      </trkpt>
      <trkpt lat="42.74312" lon="1.60119">
        <ele>1399.404</ele>
        <time>2022-02-20T14:00:04Z</time>
      </trkpt>
      <trkpt lat="42.74312" lon="1.60119">
        <ele>1399.402</ele>
        <time>2022-02-20T14:00:06Z</time>
      </trkpt>
      <trkpt lat="42.74312" lon="1.60119">
        <ele>1399.383</ele>
        <time>2022-02-20T14:00:08Z</time>
      </trkpt>
      <trkpt lat="42.74312" lon="1.60119">
        <ele>1399.393</ele>
        <time>2022-02-20T14:00:10Z</time>
      </trkpt>
      <trkpt lat="42.74312" lon="1.60119">
        <ele>1399.414</ele>
        <time>2022-02-20T14:00:12Z</time>
      </trkpt>
      <trkpt lat="42.74312" lon="1.60119">
        <ele>1399.414</ele>
        <time>2022-02-20T14:00:14Z</time>
      </trkpt>
      <trkpt lat="42.74312" lon="1.60119">
        <ele>1399.42</ele>
        <time>2022-02-20T14:00:16Z</time>
      </trkpt>
      <trkpt lat="42.74312" lon="1.60119">
        <ele>1399.415</ele>
        <time>2022-02-20T14:00:18Z</time>
      </trkpt>
      <trkpt lat="42.74312" lon="1.60119">
        <ele>1399.419</ele>
        <time>2022-02-20T14:00:20Z</time>
      </trkpt>
      <trkpt lat="42.74312" lon="1.60119">
        <ele>1399.609</ele>
        <time>2022-02-20T14:00:22Z</time>
      </trkpt>
      <trkpt lat="42.74312" lon="1.60119">
        <ele>1399.701</ele>
        <time>2022-02-20T14:00:24Z</time>
      </trkpt>
      <trkpt lat="42.74313" lon="1.60119">
        <ele>1400.06</ele>
        <time>2022-02-20T14:00:26Z</time>
      </trkpt>
      <trkpt lat="42.74313" lon="1.60119">
        <ele>1400.059</ele>
        <time>2022-02-20T14:00:28Z</time>
      </trkpt>
      <trkpt lat="42.74312" lon="1.60117">
        <ele>1400.014</ele>
        <time>2022-02-20T14:00:30Z</time>
      </trkpt>
      <trkpt lat="42.74312" lon="1.60117">
        <ele>1400.403</ele>
        <time>2022-02-20T14:00:32Z</time>
      </trkpt>
      <trkpt lat="42.74312" lon="1.60116">
        <ele>1400.155</ele>
        <time>2022-02-20T14:00:34Z</time>
      </trkpt>
      <trkpt lat="42.74313" lon="1.60114">
        <ele>1400.188</ele>
        <time>2022-02-20T14:00:36Z</time>
      </trkpt>
      <trkpt lat="42.74313" lon="1.60112">
        <ele>1401.931</ele>
        <time>2022-02-20T14:00:38Z</time>
      </trkpt>
      <trkpt lat="42.74313" lon="1.60112">
        <ele>1401.32</ele>
        <time>2022-02-20T14:00:40Z</time>
      </trkpt>
      <trkpt lat="42.74313" lon="1.60113">
        <ele>1401.72</ele>
        <time>2022-02-20T14:00:42Z</time>
      </trkpt>
      <trkpt lat="42.74312" lon="1.60113">
        <ele>1401.786</ele>
        <time>2022-02-20T14:00:44Z</time>
      </trkpt>
      <trkpt lat="42.74312" lon="1.60112">
        <ele>1401.64</ele>
        <time>2022-02-20T14:00:46Z</time>
      </trkpt>
      <trkpt lat="42.74312" lon="1.60112">
        <ele>1401.639</ele>
        <time>2022-02-20T14:00:48Z</time>
      </trkpt>
      <trkpt lat="42.74312" lon="1.60112">
        <ele>1402.44</ele>
        <time>2022-02-20T14:00:50Z</time>
      </trkpt>
      <trkpt lat="42.74312" lon="1.60112">
        <ele>1402.425</ele>
        <time>2022-02-20T14:00:52Z</time>
      </trkpt>
      <trkpt lat="42.74312" lon="1.60112">
        <ele>1402.427</ele>
        <time>2022-02-20T14:00:54Z</time>
      </trkpt>
      <trkpt lat="42.74312" lon="1.60112">
        <ele>1402.58</ele>
        <time>2022-02-20T14:00:56Z</time>
      </trkpt>
      <trkpt lat="42.74312" lon="1.60112">
        <ele>1402.571</ele>
        <time>2022-02-20T14:00:58Z</time>
      </trkpt>
      <trkpt lat="42.74312" lon="1.60112">
        <ele>1402.919</ele>
        <time>2022-02-20T14:01:00Z</time>
      </trkpt>
      <trkpt lat="42.74311" lon="1.60114">
        <ele>1401.276</ele>
        <time>2022-02-20T14:01:02Z</time>
      </trkpt>
      <trkpt lat="42.74311" lon="1.60114">
        <ele>1401.273</ele>
        <time>2022-02-20T14:01:04Z</time>
      </trkpt>
      <trkpt lat="42.74311" lon="1.60113">
        <ele>1401.533</ele>
        <time>2022-02-20T14:01:06Z</time>
      </trkpt>
      <trkpt lat="42.74311" lon="1.60113">
        <ele>1401.527</ele>
        <time>2022-02-20T14:01:08Z</time>
      </trkpt>
      <trkpt lat="42.74311" lon="1.60113">
        <ele>1401.733</ele>
        <time>2022-02-20T14:01:10Z</time>
      </trkpt>
      <trkpt lat="42.7431" lon="1.60111">
        <ele>1401.411</ele>
        <time>2022-02-20T14:01:12Z</time>
      </trkpt>
      <trkpt lat="42.74309" lon="1.6011">
        <ele>1401.532</ele>
        <time>2022-02-20T14:01:14Z</time>
      </trkpt>
      <trkpt lat="42.74307" lon="1.6011">
        <ele>1400.515</ele>
        <time>2022-02-20T14:01:16Z</time>
      </trkpt>
      <trkpt lat="42.74306" lon="1.60109">
        <ele>1400.16</ele>
        <time>2022-02-20T14:01:18Z</time>
      </trkpt>
      <trkpt lat="42.74305" lon="1.60109">
        <ele>1398.241</ele>
        <time>2022-02-20T14:01:20Z</time>
      </trkpt>
      <trkpt lat="42.74304" lon="1.60108">
        <ele>1398.88</ele>
        <time>2022-02-20T14:01:22Z</time>
      </trkpt>
      <trkpt lat="42.74303" lon="1.60107">
        <ele>1397.518</ele>
        <time>2022-02-20T14:01:24Z</time>
      </trkpt>
      <trkpt lat="42.74303" lon="1.60106">
        <ele>1397.711</ele>
        <time>2022-02-20T14:01:26Z</time>
      </trkpt>
      <trkpt lat="42.74302" lon="1.60104">
        <ele>1397.527</ele>
        <time>2022-02-20T14:01:28Z</time>
      </trkpt>
      <trkpt lat="42.74301" lon="1.60103">
        <ele>1397.296</ele>
        <time>2022-02-20T14:01:30Z</time>
      </trkpt>
      <trkpt lat="42.743" lon="1.60101">
        <ele>1397.827</ele>
        <time>2022-02-20T14:01:32Z</time>
      </trkpt>
      <trkpt lat="42.74299" lon="1.60099">
        <ele>1398.651</ele>
        <time>2022-02-20T14:01:34Z</time>
      </trkpt>
      <trkpt lat="42.743" lon="1.60097">
        <ele>1398.315</ele>
        <time>2022-02-20T14:01:36Z</time>
      </trkpt>
      <trkpt lat="42.743" lon="1.60095">
        <ele>1397.456</ele>
        <time>2022-02-20T14:01:38Z</time>
      </trkpt>
      <trkpt lat="42.74299" lon="1.60092">
        <ele>1396.208</ele>
        <time>2022-02-20T14:01:40Z</time>
      </trkpt>
      <trkpt lat="42.74299" lon="1.6009">
        <ele>1397.819</ele>
        <time>2022-02-20T14:01:42Z</time>
      </trkpt>
      <trkpt lat="42.74299" lon="1.60089">
        <ele>1396.983</ele>
        <time>2022-02-20T14:01:44Z</time>
      </trkpt>
      <trkpt lat="42.74298" lon="1.60087">
        <ele>1396.915</ele>
        <time>2022-02-20T14:01:46Z</time>
      </trkpt>
      <trkpt lat="42.74298" lon="1.60085">
        <ele>1396.544</ele>
        <time>2022-02-20T14:01:48Z</time>
      </trkpt>
      <trkpt lat="42.74297" lon="1.60084">
        <ele>1396.229</ele>
        <time>2022-02-20T14:01:50Z</time>
      </trkpt>
      <trkpt lat="42.74295" lon="1.60082">
        <ele>1394.629</ele>
        <time>2022-02-20T14:01:52Z</time>
      </trkpt>
      <trkpt lat="42.74293" lon="1.60081">
        <ele>1394.268</ele>
        <time>2022-02-20T14:01:54Z</time>
      </trkpt>
      <trkpt lat="42.74292" lon="1.60079">
        <ele>1393.841</ele>
        <time>2022-02-20T14:01:56Z</time>
      </trkpt>
      <trkpt lat="42.74291" lon="1.60078">
        <ele>1393.592</ele>
        <time>2022-02-20T14:01:58Z</time>
      </trkpt>
      <trkpt lat="42.74291" lon="1.60076">
        <ele>1392.305</ele>
        <time>2022-02-20T14:02:00Z</time>
      </trkpt>
      <trkpt lat="42.7429" lon="1.60075">
        <ele>1391.618</ele>
        <time>2022-02-20T14:02:02Z</time>
      </trkpt>
      <trkpt lat="42.74289" lon="1.60073">
        <ele>1390.646</ele>
        <time>2022-02-20T14:02:04Z</time>
      </trkpt>
      <trkpt lat="42.74289" lon="1.60072">
        <ele>1389.989</ele>
        <time>2022-02-20T14:02:06Z</time>
      </trkpt>
      <trkpt lat="42.74288" lon="1.6007">
        <ele>1389.206</ele>
        <time>2022-02-20T14:02:08Z</time>
      </trkpt>
      <trkpt lat="42.74287" lon="1.60069">
        <ele>1388.229</ele>
        <time>2022-02-20T14:02:10Z</time>
      </trkpt>
      <trkpt lat="42.74286" lon="1.60069">
        <ele>1387.002</ele>
        <time>2022-02-20T14:02:12Z</time>
      </trkpt>
      <trkpt lat="42.74284" lon="1.60068">
        <ele>1386.136</ele>
        <time>2022-02-20T14:02:14Z</time>
      </trkpt>
      <trkpt lat="42.74282" lon="1.60066">
        <ele>1385.289</ele>
        <time>2022-02-20T14:02:16Z</time>
      </trkpt>
      <trkpt lat="42.74281" lon="1.60065">
        <ele>1383.737</ele>
        <time>2022-02-20T14:02:18Z</time>
      </trkpt>
      <trkpt lat="42.7428" lon="1.60064">
        <ele>1382.882</ele>
        <time>2022-02-20T14:02:20Z</time>
      </trkpt>
      <trkpt lat="42.74279" lon="1.60062">
        <ele>1382.817</ele>
        <time>2022-02-20T14:02:22Z</time>
      </trkpt>
      <trkpt lat="42.74278" lon="1.60061">
        <ele>1382.135</ele>
        <time>2022-02-20T14:02:24Z</time>
      </trkpt>
      <trkpt lat="42.74277" lon="1.60059">
        <ele>1381.058</ele>
        <time>2022-02-20T14:02:26Z</time>
      </trkpt>
      <trkpt lat="42.74276" lon="1.60058">
        <ele>1380.384</ele>
        <time>2022-02-20T14:02:28Z</time>
      </trkpt>
      <trkpt lat="42.74276" lon="1.60057">
        <ele>1380.2</ele>
        <time>2022-02-20T14:02:30Z</time>
      </trkpt>
      <trkpt lat="42.74275" lon="1.60055">
        <ele>1378.563</ele>
        <time>2022-02-20T14:02:32Z</time>
      </trkpt>
      <trkpt lat="42.74274" lon="1.60054">
        <ele>1377.902</ele>
        <time>2022-02-20T14:02:34Z</time>
      </trkpt>
      <trkpt lat="42.74273" lon="1.60053">
        <ele>1377.21</ele>
        <time>2022-02-20T14:02:36Z</time>
      </trkpt>
      <trkpt lat="42.74272" lon="1.60051">
        <ele>1376.688</ele>
        <time>2022-02-20T14:02:38Z</time>
      </trkpt>
      <trkpt lat="42.74271" lon="1.6005">
        <ele>1375.379</ele>
        <time>2022-02-20T14:02:40Z</time>
      </trkpt>
      <trkpt lat="42.7427" lon="1.60048">
        <ele>1374.605</ele>
        <time>2022-02-20T14:02:42Z</time>
      </trkpt>
      <trkpt lat="42.7427" lon="1.60047">
        <ele>1374.162</ele>
        <time>2022-02-20T14:02:44Z</time>
      </trkpt>
      <trkpt lat="42.7427" lon="1.60046">
        <ele>1373.509</ele>
        <time>2022-02-20T14:02:46Z</time>
      </trkpt>
      <trkpt lat="42.74269" lon="1.60044">
        <ele>1373.495</ele>
        <time>2022-02-20T14:02:48Z</time>
      </trkpt>
      <trkpt lat="42.74268" lon="1.60042">
        <ele>1373.783</ele>
        <time>2022-02-20T14:02:50Z</time>
      </trkpt>
      <trkpt lat="42.74267" lon="1.60039">
        <ele>1374.169</ele>
        <time>2022-02-20T14:02:52Z</time>
      </trkpt>
      <trkpt lat="42.74268" lon="1.60037">
        <ele>1373.697</ele>
        <time>2022-02-20T14:02:54Z</time>
      </trkpt>
      <trkpt lat="42.74269" lon="1.60035">
        <ele>1373.694</ele>
        <time>2022-02-20T14:02:56Z</time>
      </trkpt>
      <trkpt lat="42.7427" lon="1.60033">
        <ele>1374.38</ele>
        <time>2022-02-20T14:02:58Z</time>
      </trkpt>
      <trkpt lat="42.74271" lon="1.60031">
        <ele>1374.961</ele>
        <time>2022-02-20T14:03:00Z</time>
      </trkpt>
      <trkpt lat="42.74272" lon="1.60027">
        <ele>1375.079</ele>
        <time>2022-02-20T14:03:03Z</time>
      </trkpt>
      <trkpt lat="42.74272" lon="1.60026">
        <ele>1374.4</ele>
        <time>2022-02-20T14:03:05Z</time>
      </trkpt>
      <trkpt lat="42.74272" lon="1.60024">
        <ele>1374.066</ele>
        <time>2022-02-20T14:03:07Z</time>
      </trkpt>
      <trkpt lat="42.74271" lon="1.60022">
        <ele>1373.66</ele>
        <time>2022-02-20T14:03:09Z</time>
      </trkpt>
      <trkpt lat="42.7427" lon="1.6002">
        <ele>1375.06</ele>
        <time>2022-02-20T14:03:11Z</time>
      </trkpt>
      <trkpt lat="42.74269" lon="1.60019">
        <ele>1375.123</ele>
        <time>2022-02-20T14:03:13Z</time>
      </trkpt>
      <trkpt lat="42.74267" lon="1.60018">
        <ele>1374.805</ele>
        <time>2022-02-20T14:03:15Z</time>
      </trkpt>
      <trkpt lat="42.74266" lon="1.60016">
        <ele>1374.545</ele>
        <time>2022-02-20T14:03:17Z</time>
      </trkpt>
      <trkpt lat="42.74266" lon="1.60015">
        <ele>1374.447</ele>
        <time>2022-02-20T14:03:19Z</time>
      </trkpt>
      <trkpt lat="42.74264" lon="1.60013">
        <ele>1374.52</ele>
        <time>2022-02-20T14:03:21Z</time>
      </trkpt>
      <trkpt lat="42.74263" lon="1.60012">
        <ele>1374.317</ele>
        <time>2022-02-20T14:03:23Z</time>
      </trkpt>
      <trkpt lat="42.74263" lon="1.6001">
        <ele>1373.019</ele>
        <time>2022-02-20T14:03:25Z</time>
      </trkpt>
      <trkpt lat="42.74262" lon="1.60008">
        <ele>1372.593</ele>
        <time>2022-02-20T14:03:27Z</time>
      </trkpt>
      <trkpt lat="42.74262" lon="1.60005">
        <ele>1374.176</ele>
        <time>2022-02-20T14:03:29Z</time>
      </trkpt>
      <trkpt lat="42.74262" lon="1.60003">
        <ele>1374.058</ele>
        <time>2022-02-20T14:03:31Z</time>
      </trkpt>
      <trkpt lat="42.74261" lon="1.6">
        <ele>1372.777</ele>
        <time>2022-02-20T14:03:33Z</time>
      </trkpt>
      <trkpt lat="42.74261" lon="1.59997">
        <ele>1373.734</ele>
        <time>2022-02-20T14:03:35Z</time>
      </trkpt>
      <trkpt lat="42.74262" lon="1.59996">
        <ele>1374.366</ele>
        <time>2022-02-20T14:03:37Z</time>
      </trkpt>
      <trkpt lat="42.74263" lon="1.59994">
        <ele>1374.158</ele>
        <time>2022-02-20T14:03:39Z</time>
      </trkpt>
      <trkpt lat="42.74263" lon="1.59992">
        <ele>1372.916</ele>
        <time>2022-02-20T14:03:41Z</time>
      </trkpt>
      <trkpt lat="42.74263" lon="1.5999">
        <ele>1371.859</ele>
        <time>2022-02-20T14:03:43Z</time>
      </trkpt>
      <trkpt lat="42.74263" lon="1.59988">
        <ele>1371.897</ele>
        <time>2022-02-20T14:03:45Z</time>
      </trkpt>
      <trkpt lat="42.74263" lon="1.59986">
        <ele>1370.241</ele>
        <time>2022-02-20T14:03:47Z</time>
      </trkpt>
      <trkpt lat="42.74264" lon="1.59984">
        <ele>1369.913</ele>
        <time>2022-02-20T14:03:49Z</time>
      </trkpt>
      <trkpt lat="42.74264" lon="1.59982">
        <ele>1368.193</ele>
        <time>2022-02-20T14:03:51Z</time>
      </trkpt>
      <trkpt lat="42.74264" lon="1.5998">
        <ele>1367.178</ele>
        <time>2022-02-20T14:03:53Z</time>
      </trkpt>
      <trkpt lat="42.74264" lon="1.59978">
        <ele>1367.696</ele>
        <time>2022-02-20T14:03:55Z</time>
      </trkpt>
      <trkpt lat="42.74264" lon="1.59977">
        <ele>1367.644</ele>
        <time>2022-02-20T14:03:57Z</time>
      </trkpt>
      <trkpt lat="42.74264" lon="1.59976">
        <ele>1366.316</ele>
        <time>2022-02-20T14:03:59Z</time>
      </trkpt>
      <trkpt lat="42.74264" lon="1.59975">
        <ele>1365.595</ele>
        <time>2022-02-20T14:04:01Z</time>
      </trkpt>
      <trkpt lat="42.74263" lon="1.59973">
        <ele>1365.224</ele>
        <time>2022-02-20T14:04:03Z</time>
      </trkpt>
      <trkpt lat="42.74263" lon="1.59973">
        <ele>1365.3</ele>
        <time>2022-02-20T14:04:05Z</time>
      </trkpt>
      <trkpt lat="42.74263" lon="1.59973">
        <ele>1365.296</ele>
        <time>2022-02-20T14:04:07Z</time>
      </trkpt>
      <trkpt lat="42.74263" lon="1.59973">
        <ele>1365.295</ele>
        <time>2022-02-20T14:04:09Z</time>
      </trkpt>
      <trkpt lat="42.74263" lon="1.59973">
        <ele>1365.071</ele>
        <time>2022-02-20T14:04:11Z</time>
      </trkpt>
      <trkpt lat="42.74263" lon="1.59973">
        <ele>1364.841</ele>
        <time>2022-02-20T14:04:13Z</time>
      </trkpt>
      <trkpt lat="42.74263" lon="1.59973">
        <ele>1364.834</ele>
        <time>2022-02-20T14:04:15Z</time>
      </trkpt>
      <trkpt lat="42.74263" lon="1.59973">
        <ele>1365.364</ele>
        <time>2022-02-20T14:04:17Z</time>
      </trkpt>
      <trkpt lat="42.74263" lon="1.59973">
        <ele>1365.615</ele>
        <time>2022-02-20T14:04:19Z</time>
      </trkpt>
      <trkpt lat="42.74263" lon="1.59973">
        <ele>1365.27</ele>
        <time>2022-02-20T14:04:21Z</time>
      </trkpt>
      <trkpt lat="42.74263" lon="1.59973">
        <ele>1365.277</ele>
        <time>2022-02-20T14:04:23Z</time>
      </trkpt>
      <trkpt lat="42.74263" lon="1.59973">
        <ele>1365.532</ele>
        <time>2022-02-20T14:04:25Z</time>
      </trkpt>
      <trkpt lat="42.74263" lon="1.59973">
        <ele>1365.705</ele>
        <time>2022-02-20T14:04:27Z</time>
      </trkpt>
      <trkpt lat="42.74261" lon="1.59975">
        <ele>1363.921</ele>
        <time>2022-02-20T14:04:29Z</time>
      </trkpt>
      <trkpt lat="42.74262" lon="1.59973">
        <ele>1364.42</ele>
        <time>2022-02-20T14:04:31Z</time>
      </trkpt>
      <trkpt lat="42.74261" lon="1.59971">
        <ele>1364.027</ele>
        <time>2022-02-20T14:04:33Z</time>
      </trkpt>
      <trkpt lat="42.7426" lon="1.59968">
        <ele>1364.662</ele>
        <time>2022-02-20T14:04:35Z</time>
      </trkpt>
      <trkpt lat="42.7426" lon="1.59968">
        <ele>1364.652</ele>
        <time>2022-02-20T14:04:37Z</time>
      </trkpt>
      <trkpt lat="42.74259" lon="1.59967">
        <ele>1365.192</ele>
        <time>2022-02-20T14:04:39Z</time>
      </trkpt>
      <trkpt lat="42.74259" lon="1.59964">
        <ele>1364.495</ele>
        <time>2022-02-20T14:04:41Z</time>
      </trkpt>
      <trkpt lat="42.74262" lon="1.59962">
        <ele>1364.556</ele>
        <time>2022-02-20T14:04:43Z</time>
      </trkpt>
      <trkpt lat="42.74263" lon="1.59961">
        <ele>1364.664</ele>
        <time>2022-02-20T14:04:45Z</time>
      </trkpt>
      <trkpt lat="42.74263" lon="1.59959">
        <ele>1365.742</ele>
        <time>2022-02-20T14:04:47Z</time>
      </trkpt>
      <trkpt lat="42.74263" lon="1.59957">
        <ele>1365.489</ele>
        <time>2022-02-20T14:04:49Z</time>
      </trkpt>
      <trkpt lat="42.74263" lon="1.59955">
        <ele>1366.14</ele>
        <time>2022-02-20T14:04:51Z</time>
      </trkpt>
      <trkpt lat="42.74262" lon="1.59954">
        <ele>1366.486</ele>
        <time>2022-02-20T14:04:53Z</time>
      </trkpt>
      <trkpt lat="42.74261" lon="1.59952">
        <ele>1366.887</ele>
        <time>2022-02-20T14:04:55Z</time>
      </trkpt>
      <trkpt lat="42.74261" lon="1.59951">
        <ele>1366.411</ele>
        <time>2022-02-20T14:04:57Z</time>
      </trkpt>
      <trkpt lat="42.74261" lon="1.59949">
        <ele>1366.765</ele>
        <time>2022-02-20T14:04:59Z</time>
      </trkpt>
      <trkpt lat="42.7426" lon="1.59947">
        <ele>1366</ele>
        <time>2022-02-20T14:05:01Z</time>
      </trkpt>
      <trkpt lat="42.74261" lon="1.59945">
        <ele>1364.907</ele>
        <time>2022-02-20T14:05:03Z</time>
      </trkpt>
      <trkpt lat="42.74262" lon="1.59943">
        <ele>1364.333</ele>
        <time>2022-02-20T14:05:05Z</time>
      </trkpt>
      <trkpt lat="42.74262" lon="1.59941">
        <ele>1364.554</ele>
        <time>2022-02-20T14:05:07Z</time>
      </trkpt>
      <trkpt lat="42.74261" lon="1.59939">
        <ele>1364.26</ele>
        <time>2022-02-20T14:05:09Z</time>
      </trkpt>
      <trkpt lat="42.7426" lon="1.59938">
        <ele>1364.131</ele>
        <time>2022-02-20T14:05:11Z</time>
      </trkpt>
      <trkpt lat="42.74261" lon="1.59935">
        <ele>1363.225</ele>
        <time>2022-02-20T14:05:13Z</time>
      </trkpt>
      <trkpt lat="42.74262" lon="1.59933">
        <ele>1362.292</ele>
        <time>2022-02-20T14:05:15Z</time>
      </trkpt>
      <trkpt lat="42.74262" lon="1.59932">
        <ele>1361.546</ele>
        <time>2022-02-20T14:05:17Z</time>
      </trkpt>
      <trkpt lat="42.74263" lon="1.59931">
        <ele>1360.823</ele>
        <time>2022-02-20T14:05:19Z</time>
      </trkpt>
      <trkpt lat="42.74263" lon="1.59929">
        <ele>1360.342</ele>
        <time>2022-02-20T14:05:21Z</time>
      </trkpt>
      <trkpt lat="42.74263" lon="1.59927">
        <ele>1361.108</ele>
        <time>2022-02-20T14:05:23Z</time>
      </trkpt>
      <trkpt lat="42.74264" lon="1.59925">
        <ele>1360.97</ele>
        <time>2022-02-20T14:05:25Z</time>
      </trkpt>
      <trkpt lat="42.74264" lon="1.59924">
        <ele>1359.868</ele>
        <time>2022-02-20T14:05:27Z</time>
      </trkpt>
      <trkpt lat="42.74265" lon="1.59922">
        <ele>1361.15</ele>
        <time>2022-02-20T14:05:29Z</time>
      </trkpt>
      <trkpt lat="42.74265" lon="1.5992">
        <ele>1361.961</ele>
        <time>2022-02-20T14:05:31Z</time>
      </trkpt>
      <trkpt lat="42.74265" lon="1.59919">
        <ele>1361.37</ele>
        <time>2022-02-20T14:05:33Z</time>
      </trkpt>
      <trkpt lat="42.74265" lon="1.59919">
        <ele>1361.365</ele>
        <time>2022-02-20T14:05:35Z</time>
      </trkpt>
      <trkpt lat="42.74266" lon="1.59919">
        <ele>1361.172</ele>
        <time>2022-02-20T14:05:37Z</time>
      </trkpt>
      <trkpt lat="42.74266" lon="1.59919">
        <ele>1360.956</ele>
        <time>2022-02-20T14:05:39Z</time>
      </trkpt>
      <trkpt lat="42.74266" lon="1.59918">
        <ele>1360.324</ele>
        <time>2022-02-20T14:05:41Z</time>
      </trkpt>
      <trkpt lat="42.74266" lon="1.59917">
        <ele>1359.023</ele>
        <time>2022-02-20T14:05:43Z</time>
      </trkpt>
      <trkpt lat="42.74265" lon="1.59916">
        <ele>1358.813</ele>
        <time>2022-02-20T14:05:45Z</time>
      </trkpt>
      <trkpt lat="42.74266" lon="1.59915">
        <ele>1357.546</ele>
        <time>2022-02-20T14:05:47Z</time>
      </trkpt>
      <trkpt lat="42.74268" lon="1.59914">
        <ele>1357.179</ele>
        <time>2022-02-20T14:05:49Z</time>
      </trkpt>
      <trkpt lat="42.74269" lon="1.59914">
        <ele>1356.331</ele>
        <time>2022-02-20T14:05:51Z</time>
      </trkpt>
      <trkpt lat="42.74269" lon="1.59914">
        <ele>1356.093</ele>
        <time>2022-02-20T14:05:53Z</time>
      </trkpt>
      <trkpt lat="42.74271" lon="1.59913">
        <ele>1356.059</ele>
        <time>2022-02-20T14:05:55Z</time>
      </trkpt>
      <trkpt lat="42.74272" lon="1.59912">
        <ele>1356.714</ele>
        <time>2022-02-20T14:05:57Z</time>
      </trkpt>
      <trkpt lat="42.74274" lon="1.5991">
        <ele>1356.492</ele>
        <time>2022-02-20T14:05:59Z</time>
      </trkpt>
      <trkpt lat="42.74274" lon="1.59909">
        <ele>1356.485</ele>
        <time>2022-02-20T14:06:01Z</time>
      </trkpt>
      <trkpt lat="42.74274" lon="1.59909">
        <ele>1356.489</ele>
        <time>2022-02-20T14:06:03Z</time>
      </trkpt>
      <trkpt lat="42.74275" lon="1.59909">
        <ele>1356.291</ele>
        <time>2022-02-20T14:06:05Z</time>
      </trkpt>
      <trkpt lat="42.74275" lon="1.59908">
        <ele>1356.079</ele>
        <time>2022-02-20T14:06:07Z</time>
      </trkpt>
      <trkpt lat="42.74275" lon="1.59908">
        <ele>1355.592</ele>
        <time>2022-02-20T14:06:09Z</time>
      </trkpt>
      <trkpt lat="42.74276" lon="1.59907">
        <ele>1356.07</ele>
        <time>2022-02-20T14:06:11Z</time>
      </trkpt>
      <trkpt lat="42.74276" lon="1.59907">
        <ele>1356.178</ele>
        <time>2022-02-20T14:06:13Z</time>
      </trkpt>
      <trkpt lat="42.74276" lon="1.59907">
        <ele>1356.178</ele>
        <time>2022-02-20T14:06:15Z</time>
      </trkpt>
      <trkpt lat="42.74276" lon="1.59906">
        <ele>1356.296</ele>
        <time>2022-02-20T14:06:17Z</time>
      </trkpt>
      <trkpt lat="42.74276" lon="1.59906">
        <ele>1356.304</ele>
        <time>2022-02-20T14:06:19Z</time>
      </trkpt>
      <trkpt lat="42.74276" lon="1.59906">
        <ele>1356.302</ele>
        <time>2022-02-20T14:06:21Z</time>
      </trkpt>
      <trkpt lat="42.74276" lon="1.59906">
        <ele>1356.304</ele>
        <time>2022-02-20T14:06:23Z</time>
      </trkpt>
      <trkpt lat="42.74276" lon="1.59907">
        <ele>1356.11</ele>
        <time>2022-02-20T14:06:25Z</time>
      </trkpt>
      <trkpt lat="42.74276" lon="1.59906">
        <ele>1356.532</ele>
        <time>2022-02-20T14:06:27Z</time>
      </trkpt>
      <trkpt lat="42.74277" lon="1.59905">
        <ele>1357.621</ele>
        <time>2022-02-20T14:06:29Z</time>
      </trkpt>
      <trkpt lat="42.74278" lon="1.59904">
        <ele>1358.678</ele>
        <time>2022-02-20T14:06:31Z</time>
      </trkpt>
      <trkpt lat="42.74278" lon="1.59903">
        <ele>1357.997</ele>
        <time>2022-02-20T14:06:33Z</time>
      </trkpt>
      <trkpt lat="42.74279" lon="1.59901">
        <ele>1358.399</ele>
        <time>2022-02-20T14:06:35Z</time>
      </trkpt>
      <trkpt lat="42.7428" lon="1.599">
        <ele>1357.982</ele>
        <time>2022-02-20T14:06:37Z</time>
      </trkpt>
      <trkpt lat="42.7428" lon="1.599">
        <ele>1358.046</ele>
        <time>2022-02-20T14:06:39Z</time>
      </trkpt>
      <trkpt lat="42.7428" lon="1.59899">
        <ele>1357.845</ele>
        <time>2022-02-20T14:06:41Z</time>
      </trkpt>
      <trkpt lat="42.7428" lon="1.59899">
        <ele>1357.837</ele>
        <time>2022-02-20T14:06:43Z</time>
      </trkpt>
      <trkpt lat="42.7428" lon="1.59899">
        <ele>1357.806</ele>
        <time>2022-02-20T14:06:45Z</time>
      </trkpt>
      <trkpt lat="42.74281" lon="1.59899">
        <ele>1357.64</ele>
        <time>2022-02-20T14:06:47Z</time>
      </trkpt>
      <trkpt lat="42.74282" lon="1.59899">
        <ele>1358.296</ele>
        <time>2022-02-20T14:06:49Z</time>
      </trkpt>
      <trkpt lat="42.74282" lon="1.59899">
        <ele>1357.742</ele>
        <time>2022-02-20T14:06:51Z</time>
      </trkpt>
      <trkpt lat="42.74282" lon="1.599">
        <ele>1357.375</ele>
        <time>2022-02-20T14:06:53Z</time>
      </trkpt>
      <trkpt lat="42.74282" lon="1.59901">
        <ele>1357.588</ele>
        <time>2022-02-20T14:06:55Z</time>
      </trkpt>
      <trkpt lat="42.74282" lon="1.59901">
        <ele>1357.57</ele>
        <time>2022-02-20T14:06:57Z</time>
      </trkpt>
      <trkpt lat="42.74282" lon="1.59901">
        <ele>1357.581</ele>
        <time>2022-02-20T14:06:59Z</time>
      </trkpt>
      <trkpt lat="42.74282" lon="1.59901">
        <ele>1357.581</ele>
        <time>2022-02-20T14:07:01Z</time>
      </trkpt>
      <trkpt lat="42.74283" lon="1.59901">
        <ele>1358.044</ele>
        <time>2022-02-20T14:07:03Z</time>
      </trkpt>
      <trkpt lat="42.74283" lon="1.599">
        <ele>1357.415</ele>
        <time>2022-02-20T14:07:05Z</time>
      </trkpt>
      <trkpt lat="42.74283" lon="1.599">
        <ele>1357.761</ele>
        <time>2022-02-20T14:07:07Z</time>
      </trkpt>
      <trkpt lat="42.74284" lon="1.599">
        <ele>1357.672</ele>
        <time>2022-02-20T14:07:09Z</time>
      </trkpt>
      <trkpt lat="42.74284" lon="1.599">
        <ele>1357.502</ele>
        <time>2022-02-20T14:07:11Z</time>
      </trkpt>
      <trkpt lat="42.74285" lon="1.59899">
        <ele>1358.52</ele>
        <time>2022-02-20T14:07:13Z</time>
      </trkpt>
      <trkpt lat="42.74286" lon="1.59898">
        <ele>1358.77</ele>
        <time>2022-02-20T14:07:15Z</time>
      </trkpt>
      <trkpt lat="42.74286" lon="1.59898">
        <ele>1359.4</ele>
        <time>2022-02-20T14:07:17Z</time>
      </trkpt>
      <trkpt lat="42.74286" lon="1.59898">
        <ele>1359.409</ele>
        <time>2022-02-20T14:07:19Z</time>
      </trkpt>
      <trkpt lat="42.74286" lon="1.59898">
        <ele>1359.272</ele>
        <time>2022-02-20T14:07:21Z</time>
      </trkpt>
      <trkpt lat="42.74287" lon="1.59897">
        <ele>1358.399</ele>
        <time>2022-02-20T14:07:23Z</time>
      </trkpt>
      <trkpt lat="42.74287" lon="1.59896">
        <ele>1359.381</ele>
        <time>2022-02-20T14:07:25Z</time>
      </trkpt>
      <trkpt lat="42.74287" lon="1.59895">
        <ele>1359.454</ele>
        <time>2022-02-20T14:07:27Z</time>
      </trkpt>
      <trkpt lat="42.74288" lon="1.59894">
        <ele>1361.215</ele>
        <time>2022-02-20T14:07:29Z</time>
      </trkpt>
      <trkpt lat="42.74288" lon="1.59893">
        <ele>1360.731</ele>
        <time>2022-02-20T14:07:31Z</time>
      </trkpt>
      <trkpt lat="42.7429" lon="1.59892">
        <ele>1362.285</ele>
        <time>2022-02-20T14:07:33Z</time>
      </trkpt>
      <trkpt lat="42.7429" lon="1.59892">
        <ele>1361.746</ele>
        <time>2022-02-20T14:07:35Z</time>
      </trkpt>
      <trkpt lat="42.74291" lon="1.59892">
        <ele>1362.729</ele>
        <time>2022-02-20T14:07:37Z</time>
      </trkpt>
      <trkpt lat="42.74292" lon="1.59891">
        <ele>1362.711</ele>
        <time>2022-02-20T14:07:39Z</time>
      </trkpt>
      <trkpt lat="42.74293" lon="1.5989">
        <ele>1363.149</ele>
        <time>2022-02-20T14:07:41Z</time>
      </trkpt>
      <trkpt lat="42.74293" lon="1.5989">
        <ele>1363.225</ele>
        <time>2022-02-20T14:07:43Z</time>
      </trkpt>
      <trkpt lat="42.74294" lon="1.59889">
        <ele>1363.219</ele>
        <time>2022-02-20T14:07:45Z</time>
      </trkpt>
      <trkpt lat="42.74295" lon="1.59889">
        <ele>1363.276</ele>
        <time>2022-02-20T14:07:47Z</time>
      </trkpt>
      <trkpt lat="42.74296" lon="1.59887">
        <ele>1364.964</ele>
        <time>2022-02-20T14:07:49Z</time>
      </trkpt>
      <trkpt lat="42.74298" lon="1.59885">
        <ele>1364.819</ele>
        <time>2022-02-20T14:07:51Z</time>
      </trkpt>
      <trkpt lat="42.74298" lon="1.59884">
        <ele>1364.485</ele>
        <time>2022-02-20T14:07:53Z</time>
      </trkpt>
      <trkpt lat="42.74299" lon="1.59882">
        <ele>1364.27</ele>
        <time>2022-02-20T14:07:55Z</time>
      </trkpt>
      <trkpt lat="42.74301" lon="1.59881">
        <ele>1363.806</ele>
        <time>2022-02-20T14:07:57Z</time>
      </trkpt>
      <trkpt lat="42.74302" lon="1.59879">
        <ele>1363.709</ele>
        <time>2022-02-20T14:07:59Z</time>
      </trkpt>
      <trkpt lat="42.74303" lon="1.59878">
        <ele>1364.552</ele>
        <time>2022-02-20T14:08:01Z</time>
      </trkpt>
      <trkpt lat="42.74303" lon="1.59877">
        <ele>1364.976</ele>
        <time>2022-02-20T14:08:03Z</time>
      </trkpt>
      <trkpt lat="42.74304" lon="1.59877">
        <ele>1365.285</ele>
        <time>2022-02-20T14:08:05Z</time>
      </trkpt>
      <trkpt lat="42.74306" lon="1.59875">
        <ele>1365.494</ele>
        <time>2022-02-20T14:08:07Z</time>
      </trkpt>
      <trkpt lat="42.74306" lon="1.59874">
        <ele>1365.698</ele>
        <time>2022-02-20T14:08:09Z</time>
      </trkpt>
      <trkpt lat="42.74307" lon="1.59873">
        <ele>1365.457</ele>
        <time>2022-02-20T14:08:11Z</time>
      </trkpt>
      <trkpt lat="42.74307" lon="1.59873">
        <ele>1365.669</ele>
        <time>2022-02-20T14:08:13Z</time>
      </trkpt>
      <trkpt lat="42.74308" lon="1.59872">
        <ele>1366.142</ele>
        <time>2022-02-20T14:08:15Z</time>
      </trkpt>
      <trkpt lat="42.74309" lon="1.59871">
        <ele>1366.631</ele>
        <time>2022-02-20T14:08:17Z</time>
      </trkpt>
      <trkpt lat="42.74309" lon="1.5987">
        <ele>1366.298</ele>
        <time>2022-02-20T14:08:19Z</time>
      </trkpt>
      <trkpt lat="42.74308" lon="1.5987">
        <ele>1366.3</ele>
        <time>2022-02-20T14:08:21Z</time>
      </trkpt>
      <trkpt lat="42.74309" lon="1.59869">
        <ele>1366.817</ele>
        <time>2022-02-20T14:08:23Z</time>
      </trkpt>
      <trkpt lat="42.74309" lon="1.59869">
        <ele>1366.873</ele>
        <time>2022-02-20T14:08:25Z</time>
      </trkpt>
      <trkpt lat="42.74311" lon="1.59868">
        <ele>1367.309</ele>
        <time>2022-02-20T14:08:27Z</time>
      </trkpt>
      <trkpt lat="42.74312" lon="1.59868">
        <ele>1365.96</ele>
        <time>2022-02-20T14:08:29Z</time>
      </trkpt>
      <trkpt lat="42.74313" lon="1.59868">
        <ele>1366.744</ele>
        <time>2022-02-20T14:08:31Z</time>
      </trkpt>
      <trkpt lat="42.74314" lon="1.59868">
        <ele>1366.495</ele>
        <time>2022-02-20T14:08:33Z</time>
      </trkpt>
      <trkpt lat="42.74315" lon="1.59868">
        <ele>1366.361</ele>
        <time>2022-02-20T14:08:35Z</time>
      </trkpt>
      <trkpt lat="42.74316" lon="1.59868">
        <ele>1366.824</ele>
        <time>2022-02-20T14:08:37Z</time>
      </trkpt>
      <trkpt lat="42.74316" lon="1.59867">
        <ele>1367.184</ele>
        <time>2022-02-20T14:08:39Z</time>
      </trkpt>
      <trkpt lat="42.74318" lon="1.59867">
        <ele>1367.571</ele>
        <time>2022-02-20T14:08:41Z</time>
      </trkpt>
      <trkpt lat="42.74319" lon="1.59866">
        <ele>1367.773</ele>
        <time>2022-02-20T14:08:43Z</time>
      </trkpt>
      <trkpt lat="42.7432" lon="1.59865">
        <ele>1368.322</ele>
        <time>2022-02-20T14:08:45Z</time>
      </trkpt>
      <trkpt lat="42.74321" lon="1.59866">
        <ele>1368.687</ele>
        <time>2022-02-20T14:08:47Z</time>
      </trkpt>
      <trkpt lat="42.74321" lon="1.59865">
        <ele>1369.237</ele>
        <time>2022-02-20T14:08:49Z</time>
      </trkpt>
      <trkpt lat="42.74321" lon="1.59865">
        <ele>1369.528</ele>
        <time>2022-02-20T14:08:51Z</time>
      </trkpt>
      <trkpt lat="42.74321" lon="1.59864">
        <ele>1369.633</ele>
        <time>2022-02-20T14:08:53Z</time>
      </trkpt>
      <trkpt lat="42.74321" lon="1.59864">
        <ele>1369.634</ele>
        <time>2022-02-20T14:08:55Z</time>
      </trkpt>
      <trkpt lat="42.74321" lon="1.59864">
        <ele>1369.636</ele>
        <time>2022-02-20T14:08:57Z</time>
      </trkpt>
      <trkpt lat="42.74322" lon="1.59863">
        <ele>1370.987</ele>
        <time>2022-02-20T14:08:59Z</time>
      </trkpt>
      <trkpt lat="42.74323" lon="1.59862">
        <ele>1371.336</ele>
        <time>2022-02-20T14:09:01Z</time>
      </trkpt>
      <trkpt lat="42.74323" lon="1.59861">
        <ele>1371.972</ele>
        <time>2022-02-20T14:09:03Z</time>
      </trkpt>
      <trkpt lat="42.74323" lon="1.59861">
        <ele>1371.355</ele>
        <time>2022-02-20T14:09:05Z</time>
      </trkpt>
      <trkpt lat="42.74325" lon="1.59859">
        <ele>1372.597</ele>
        <time>2022-02-20T14:09:07Z</time>
      </trkpt>
      <trkpt lat="42.74326" lon="1.59858">
        <ele>1373.161</ele>
        <time>2022-02-20T14:09:09Z</time>
      </trkpt>
      <trkpt lat="42.74327" lon="1.59858">
        <ele>1373.38</ele>
        <time>2022-02-20T14:09:11Z</time>
      </trkpt>
      <trkpt lat="42.74328" lon="1.59858">
        <ele>1373.331</ele>
        <time>2022-02-20T14:09:13Z</time>
      </trkpt>
      <trkpt lat="42.74329" lon="1.59858">
        <ele>1372.856</ele>
        <time>2022-02-20T14:09:15Z</time>
      </trkpt>
      <trkpt lat="42.7433" lon="1.59858">
        <ele>1371.909</ele>
        <time>2022-02-20T14:09:17Z</time>
      </trkpt>
      <trkpt lat="42.74331" lon="1.59858">
        <ele>1371.012</ele>
        <time>2022-02-20T14:09:19Z</time>
      </trkpt>
      <trkpt lat="42.74331" lon="1.59856">
        <ele>1371.495</ele>
        <time>2022-02-20T14:09:21Z</time>
      </trkpt>
      <trkpt lat="42.74332" lon="1.59856">
        <ele>1370.602</ele>
        <time>2022-02-20T14:09:23Z</time>
      </trkpt>
      <trkpt lat="42.74333" lon="1.59856">
        <ele>1370.775</ele>
        <time>2022-02-20T14:09:25Z</time>
      </trkpt>
      <trkpt lat="42.74335" lon="1.59856">
        <ele>1372.022</ele>
        <time>2022-02-20T14:09:27Z</time>
      </trkpt>
      <trkpt lat="42.74337" lon="1.59857">
        <ele>1371.2</ele>
        <time>2022-02-20T14:09:29Z</time>
      </trkpt>
      <trkpt lat="42.74337" lon="1.59857">
        <ele>1371.883</ele>
        <time>2022-02-20T14:09:31Z</time>
      </trkpt>
      <trkpt lat="42.74337" lon="1.59856">
        <ele>1372.215</ele>
        <time>2022-02-20T14:09:33Z</time>
      </trkpt>
      <trkpt lat="42.74338" lon="1.59855">
        <ele>1371.63</ele>
        <time>2022-02-20T14:09:35Z</time>
      </trkpt>
      <trkpt lat="42.74338" lon="1.59855">
        <ele>1371.654</ele>
        <time>2022-02-20T14:09:37Z</time>
      </trkpt>
      <trkpt lat="42.74338" lon="1.59855">
        <ele>1371.494</ele>
        <time>2022-02-20T14:09:39Z</time>
      </trkpt>
      <trkpt lat="42.74338" lon="1.59855">
        <ele>1371.126</ele>
        <time>2022-02-20T14:09:41Z</time>
      </trkpt>
      <trkpt lat="42.74338" lon="1.59853">
        <ele>1372.304</ele>
        <time>2022-02-20T14:09:43Z</time>
      </trkpt>
      <trkpt lat="42.74339" lon="1.59852">
        <ele>1373.318</ele>
        <time>2022-02-20T14:09:45Z</time>
      </trkpt>
      <trkpt lat="42.7434" lon="1.59851">
        <ele>1375.121</ele>
        <time>2022-02-20T14:09:47Z</time>
      </trkpt>
      <trkpt lat="42.74341" lon="1.5985">
        <ele>1375.809</ele>
        <time>2022-02-20T14:09:49Z</time>
      </trkpt>
      <trkpt lat="42.74341" lon="1.59851">
        <ele>1375.753</ele>
        <time>2022-02-20T14:09:51Z</time>
      </trkpt>
      <trkpt lat="42.74342" lon="1.59849">
        <ele>1375.887</ele>
        <time>2022-02-20T14:09:53Z</time>
      </trkpt>
      <trkpt lat="42.74343" lon="1.59849">
        <ele>1375.043</ele>
        <time>2022-02-20T14:09:55Z</time>
      </trkpt>
      <trkpt lat="42.74343" lon="1.59849">
        <ele>1374.464</ele>
        <time>2022-02-20T14:09:57Z</time>
      </trkpt>
      <trkpt lat="42.74343" lon="1.59849">
        <ele>1374.424</ele>
        <time>2022-02-20T14:09:59Z</time>
      </trkpt>
      <trkpt lat="42.74344" lon="1.59848">
        <ele>1374.75</ele>
        <time>2022-02-20T14:10:01Z</time>
      </trkpt>
      <trkpt lat="42.74343" lon="1.59847">
        <ele>1374.436</ele>
        <time>2022-02-20T14:10:03Z</time>
      </trkpt>
      <trkpt lat="42.74344" lon="1.59847">
        <ele>1374.075</ele>
        <time>2022-02-20T14:10:05Z</time>
      </trkpt>
      <trkpt lat="42.74343" lon="1.59848">
        <ele>1372.528</ele>
        <time>2022-02-20T14:10:07Z</time>
      </trkpt>
      <trkpt lat="42.74343" lon="1.59848">
        <ele>1370.376</ele>
        <time>2022-02-20T14:10:09Z</time>
      </trkpt>
      <trkpt lat="42.74344" lon="1.59849">
        <ele>1368.962</ele>
        <time>2022-02-20T14:10:11Z</time>
      </trkpt>
      <trkpt lat="42.74344" lon="1.59849">
        <ele>1368.407</ele>
        <time>2022-02-20T14:10:13Z</time>
      </trkpt>
      <trkpt lat="42.74345" lon="1.59848">
        <ele>1366.976</ele>
        <time>2022-02-20T14:10:15Z</time>
      </trkpt>
      <trkpt lat="42.74346" lon="1.59847">
        <ele>1366.291</ele>
        <time>2022-02-20T14:10:17Z</time>
      </trkpt>
      <trkpt lat="42.74346" lon="1.59847">
        <ele>1366.294</ele>
        <time>2022-02-20T14:10:19Z</time>
      </trkpt>
      <trkpt lat="42.74347" lon="1.59845">
        <ele>1367.097</ele>
        <time>2022-02-20T14:10:21Z</time>
      </trkpt>
      <trkpt lat="42.74348" lon="1.59844">
        <ele>1367.432</ele>
        <time>2022-02-20T14:10:23Z</time>
      </trkpt>
      <trkpt lat="42.74349" lon="1.59843">
        <ele>1368.746</ele>
        <time>2022-02-20T14:10:25Z</time>
      </trkpt>
      <trkpt lat="42.7435" lon="1.5984">
        <ele>1370.17</ele>
        <time>2022-02-20T14:10:27Z</time>
      </trkpt>
      <trkpt lat="42.7435" lon="1.59839">
        <ele>1370.602</ele>
        <time>2022-02-20T14:10:29Z</time>
      </trkpt>
      <trkpt lat="42.7435" lon="1.59839">
        <ele>1370.586</ele>
        <time>2022-02-20T14:10:31Z</time>
      </trkpt>
      <trkpt lat="42.7435" lon="1.59839">
        <ele>1369.837</ele>
        <time>2022-02-20T14:10:33Z</time>
      </trkpt>
      <trkpt lat="42.74351" lon="1.59837">
        <ele>1370.985</ele>
        <time>2022-02-20T14:10:35Z</time>
      </trkpt>
      <trkpt lat="42.74351" lon="1.59837">
        <ele>1370.469</ele>
        <time>2022-02-20T14:10:37Z</time>
      </trkpt>
      <trkpt lat="42.74351" lon="1.59836">
        <ele>1370.463</ele>
        <time>2022-02-20T14:10:39Z</time>
      </trkpt>
      <trkpt lat="42.74351" lon="1.59836">
        <ele>1370.462</ele>
        <time>2022-02-20T14:10:41Z</time>
      </trkpt>
      <trkpt lat="42.74351" lon="1.59836">
        <ele>1370.466</ele>
        <time>2022-02-20T14:10:43Z</time>
      </trkpt>
      <trkpt lat="42.74351" lon="1.59836">
        <ele>1370.635</ele>
        <time>2022-02-20T14:10:45Z</time>
      </trkpt>
      <trkpt lat="42.74351" lon="1.59836">
        <ele>1370.62</ele>
        <time>2022-02-20T14:10:47Z</time>
      </trkpt>
      <trkpt lat="42.74351" lon="1.59836">
        <ele>1370.068</ele>
        <time>2022-02-20T14:10:49Z</time>
      </trkpt>
      <trkpt lat="42.74351" lon="1.59836">
        <ele>1370.061</ele>
        <time>2022-02-20T14:10:51Z</time>
      </trkpt>
      <trkpt lat="42.74352" lon="1.59836">
        <ele>1369.531</ele>
        <time>2022-02-20T14:10:53Z</time>
      </trkpt>
      <trkpt lat="42.74352" lon="1.59836">
        <ele>1370.051</ele>
        <time>2022-02-20T14:10:55Z</time>
      </trkpt>
      <trkpt lat="42.74352" lon="1.59836">
        <ele>1369.764</ele>
        <time>2022-02-20T14:10:57Z</time>
      </trkpt>
      <trkpt lat="42.74353" lon="1.59836">
        <ele>1369.608</ele>
        <time>2022-02-20T14:10:59Z</time>
      </trkpt>
      <trkpt lat="42.74353" lon="1.59836">
        <ele>1369.601</ele>
        <time>2022-02-20T14:11:01Z</time>
      </trkpt>
      <trkpt lat="42.74353" lon="1.59836">
        <ele>1368.693</ele>
        <time>2022-02-20T14:11:03Z</time>
      </trkpt>
      <trkpt lat="42.74354" lon="1.59837">
        <ele>1365.522</ele>
        <time>2022-02-20T14:11:05Z</time>
      </trkpt>
      <trkpt lat="42.74355" lon="1.59836">
        <ele>1365.708</ele>
        <time>2022-02-20T14:11:07Z</time>
      </trkpt>
      <trkpt lat="42.74355" lon="1.59836">
        <ele>1365.696</ele>
        <time>2022-02-20T14:11:09Z</time>
      </trkpt>
      <trkpt lat="42.74355" lon="1.59836">
        <ele>1365.41</ele>
        <time>2022-02-20T14:11:11Z</time>
      </trkpt>
      <trkpt lat="42.74356" lon="1.59835">
        <ele>1365.132</ele>
        <time>2022-02-20T14:11:13Z</time>
      </trkpt>
      <trkpt lat="42.74356" lon="1.59834">
        <ele>1365.547</ele>
        <time>2022-02-20T14:11:15Z</time>
      </trkpt>
      <trkpt lat="42.74356" lon="1.59834">
        <ele>1365.543</ele>
        <time>2022-02-20T14:11:17Z</time>
      </trkpt>
      <trkpt lat="42.74356" lon="1.59834">
        <ele>1363.227</ele>
        <time>2022-02-20T14:11:19Z</time>
      </trkpt>
      <trkpt lat="42.74357" lon="1.59835">
        <ele>1363.411</ele>
        <time>2022-02-20T14:11:21Z</time>
      </trkpt>
      <trkpt lat="42.74357" lon="1.59834">
        <ele>1363.171</ele>
        <time>2022-02-20T14:11:23Z</time>
      </trkpt>
      <trkpt lat="42.74357" lon="1.59834">
        <ele>1363.164</ele>
        <time>2022-02-20T14:11:25Z</time>
      </trkpt>
      <trkpt lat="42.74357" lon="1.59834">
        <ele>1362.788</ele>
        <time>2022-02-20T14:11:27Z</time>
      </trkpt>
      <trkpt lat="42.74357" lon="1.59834">
        <ele>1362.782</ele>
        <time>2022-02-20T14:11:29Z</time>
      </trkpt>
      <trkpt lat="42.74357" lon="1.59834">
        <ele>1362.73</ele>
        <time>2022-02-20T14:11:31Z</time>
      </trkpt>
      <trkpt lat="42.74357" lon="1.59834">
        <ele>1362.735</ele>
        <time>2022-02-20T14:11:33Z</time>
      </trkpt>
      <trkpt lat="42.74357" lon="1.59834">
        <ele>1362.731</ele>
        <time>2022-02-20T14:11:35Z</time>
      </trkpt>
      <trkpt lat="42.74357" lon="1.59833">
        <ele>1362.677</ele>
        <time>2022-02-20T14:11:37Z</time>
      </trkpt>
      <trkpt lat="42.74356" lon="1.59832">
        <ele>1362.674</ele>
        <time>2022-02-20T14:11:39Z</time>
      </trkpt>
      <trkpt lat="42.74357" lon="1.59831">
        <ele>1362.105</ele>
        <time>2022-02-20T14:11:41Z</time>
      </trkpt>
      <trkpt lat="42.74357" lon="1.59831">
        <ele>1362.041</ele>
        <time>2022-02-20T14:11:43Z</time>
      </trkpt>
      <trkpt lat="42.74358" lon="1.59829">
        <ele>1361.746</ele>
        <time>2022-02-20T14:11:45Z</time>
      </trkpt>
      <trkpt lat="42.74358" lon="1.59826">
        <ele>1363.92</ele>
        <time>2022-02-20T14:11:47Z</time>
      </trkpt>
      <trkpt lat="42.74359" lon="1.59824">
        <ele>1364.606</ele>
        <time>2022-02-20T14:11:49Z</time>
      </trkpt>
      <trkpt lat="42.7436" lon="1.59822">
        <ele>1366.322</ele>
        <time>2022-02-20T14:11:51Z</time>
      </trkpt>
      <trkpt lat="42.74361" lon="1.5982">
        <ele>1366.442</ele>
        <time>2022-02-20T14:11:53Z</time>
      </trkpt>
      <trkpt lat="42.74362" lon="1.5982">
        <ele>1365.938</ele>
        <time>2022-02-20T14:11:55Z</time>
      </trkpt>
      <trkpt lat="42.74363" lon="1.59819">
        <ele>1365.604</ele>
        <time>2022-02-20T14:11:57Z</time>
      </trkpt>
      <trkpt lat="42.74363" lon="1.59817">
        <ele>1366.049</ele>
        <time>2022-02-20T14:11:59Z</time>
      </trkpt>
      <trkpt lat="42.74364" lon="1.59817">
        <ele>1363.833</ele>
        <time>2022-02-20T14:12:01Z</time>
      </trkpt>
      <trkpt lat="42.74364" lon="1.59817">
        <ele>1363.922</ele>
        <time>2022-02-20T14:12:03Z</time>
      </trkpt>
      <trkpt lat="42.74364" lon="1.59817">
        <ele>1363.901</ele>
        <time>2022-02-20T14:12:05Z</time>
      </trkpt>
      <trkpt lat="42.74364" lon="1.59817">
        <ele>1363.908</ele>
        <time>2022-02-20T14:12:07Z</time>
      </trkpt>
      <trkpt lat="42.74364" lon="1.59817">
        <ele>1363.921</ele>
        <time>2022-02-20T14:12:09Z</time>
      </trkpt>
      <trkpt lat="42.74364" lon="1.59817">
        <ele>1363.909</ele>
        <time>2022-02-20T14:12:11Z</time>
      </trkpt>
      <trkpt lat="42.74364" lon="1.59817">
        <ele>1363.889</ele>
        <time>2022-02-20T14:12:13Z</time>
      </trkpt>
      <trkpt lat="42.74364" lon="1.59817">
        <ele>1363.895</ele>
        <time>2022-02-20T14:12:15Z</time>
      </trkpt>
      <trkpt lat="42.74364" lon="1.59817">
        <ele>1363.903</ele>
        <time>2022-02-20T14:12:17Z</time>
      </trkpt>
      <trkpt lat="42.74364" lon="1.59816">
        <ele>1363.563</ele>
        <time>2022-02-20T14:12:19Z</time>
      </trkpt>
      <trkpt lat="42.74364" lon="1.59816">
        <ele>1363.521</ele>
        <time>2022-02-20T14:12:21Z</time>
      </trkpt>
      <trkpt lat="42.74364" lon="1.59816">
        <ele>1361.499</ele>
        <time>2022-02-20T14:12:23Z</time>
      </trkpt>
      <trkpt lat="42.74366" lon="1.59816">
        <ele>1361.446</ele>
        <time>2022-02-20T14:12:25Z</time>
      </trkpt>
      <trkpt lat="42.74366" lon="1.59817">
        <ele>1361.43</ele>
        <time>2022-02-20T14:12:27Z</time>
      </trkpt>
      <trkpt lat="42.74366" lon="1.59817">
        <ele>1361.112</ele>
        <time>2022-02-20T14:12:29Z</time>
      </trkpt>
      <trkpt lat="42.74366" lon="1.59815">
        <ele>1361.199</ele>
        <time>2022-02-20T14:12:31Z</time>
      </trkpt>
      <trkpt lat="42.74367" lon="1.59815">
        <ele>1361.192</ele>
        <time>2022-02-20T14:12:33Z</time>
      </trkpt>
      <trkpt lat="42.74367" lon="1.59815">
        <ele>1361.181</ele>
        <time>2022-02-20T14:12:35Z</time>
      </trkpt>
      <trkpt lat="42.74367" lon="1.59815">
        <ele>1361.172</ele>
        <time>2022-02-20T14:12:37Z</time>
      </trkpt>
      <trkpt lat="42.74367" lon="1.59815">
        <ele>1361.167</ele>
        <time>2022-02-20T14:12:39Z</time>
      </trkpt>
      <trkpt lat="42.74367" lon="1.59816">
        <ele>1359.979</ele>
        <time>2022-02-20T14:12:41Z</time>
      </trkpt>
      <trkpt lat="42.74367" lon="1.59816">
        <ele>1359.416</ele>
        <time>2022-02-20T14:12:43Z</time>
      </trkpt>
      <trkpt lat="42.74368" lon="1.59815">
        <ele>1359.43</ele>
        <time>2022-02-20T14:12:45Z</time>
      </trkpt>
      <trkpt lat="42.74369" lon="1.59815">
        <ele>1359.145</ele>
        <time>2022-02-20T14:12:47Z</time>
      </trkpt>
      <trkpt lat="42.74369" lon="1.59815">
        <ele>1358.822</ele>
        <time>2022-02-20T14:12:49Z</time>
      </trkpt>
      <trkpt lat="42.7437" lon="1.59815">
        <ele>1358.086</ele>
        <time>2022-02-20T14:12:51Z</time>
      </trkpt>
      <trkpt lat="42.74371" lon="1.59814">
        <ele>1357.774</ele>
        <time>2022-02-20T14:12:53Z</time>
      </trkpt>
      <trkpt lat="42.74373" lon="1.59813">
        <ele>1358.191</ele>
        <time>2022-02-20T14:12:55Z</time>
      </trkpt>
      <trkpt lat="42.74375" lon="1.59813">
        <ele>1356.885</ele>
        <time>2022-02-20T14:12:57Z</time>
      </trkpt>
      <trkpt lat="42.74376" lon="1.59813">
        <ele>1356.714</ele>
        <time>2022-02-20T14:12:59Z</time>
      </trkpt>
      <trkpt lat="42.74377" lon="1.59811">
        <ele>1356.497</ele>
        <time>2022-02-20T14:13:01Z</time>
      </trkpt>
      <trkpt lat="42.74378" lon="1.59809">
        <ele>1356.475</ele>
        <time>2022-02-20T14:13:03Z</time>
      </trkpt>
      <trkpt lat="42.74378" lon="1.59808">
        <ele>1356.982</ele>
        <time>2022-02-20T14:13:05Z</time>
      </trkpt>
      <trkpt lat="42.74379" lon="1.59806">
        <ele>1356.315</ele>
        <time>2022-02-20T14:13:07Z</time>
      </trkpt>
      <trkpt lat="42.74379" lon="1.59805">
        <ele>1356.288</ele>
        <time>2022-02-20T14:13:09Z</time>
      </trkpt>
      <trkpt lat="42.7438" lon="1.59804">
        <ele>1357.459</ele>
        <time>2022-02-20T14:13:11Z</time>
      </trkpt>
      <trkpt lat="42.7438" lon="1.59803">
        <ele>1358.561</ele>
        <time>2022-02-20T14:13:13Z</time>
      </trkpt>
      <trkpt lat="42.7438" lon="1.59802">
        <ele>1358.613</ele>
        <time>2022-02-20T14:13:15Z</time>
      </trkpt>
      <trkpt lat="42.7438" lon="1.59802">
        <ele>1358.613</ele>
        <time>2022-02-20T14:13:17Z</time>
      </trkpt>
      <trkpt lat="42.7438" lon="1.59802">
        <ele>1358.611</ele>
        <time>2022-02-20T14:13:19Z</time>
      </trkpt>
      <trkpt lat="42.7438" lon="1.59802">
        <ele>1358.634</ele>
        <time>2022-02-20T14:13:21Z</time>
      </trkpt>
      <trkpt lat="42.7438" lon="1.59802">
        <ele>1358.644</ele>
        <time>2022-02-20T14:13:23Z</time>
      </trkpt>
      <trkpt lat="42.7438" lon="1.59802">
        <ele>1358.656</ele>
        <time>2022-02-20T14:13:25Z</time>
      </trkpt>
      <trkpt lat="42.7438" lon="1.59802">
        <ele>1358.644</ele>
        <time>2022-02-20T14:13:27Z</time>
      </trkpt>
      <trkpt lat="42.7438" lon="1.59802">
        <ele>1358.675</ele>
        <time>2022-02-20T14:13:29Z</time>
      </trkpt>
      <trkpt lat="42.74381" lon="1.59801">
        <ele>1359.744</ele>
        <time>2022-02-20T14:13:31Z</time>
      </trkpt>
      <trkpt lat="42.74382" lon="1.59801">
        <ele>1359.24</ele>
        <time>2022-02-20T14:13:33Z</time>
      </trkpt>
      <trkpt lat="42.74382" lon="1.59801">
        <ele>1359.176</ele>
        <time>2022-02-20T14:13:35Z</time>
      </trkpt>
      <trkpt lat="42.74382" lon="1.59799">
        <ele>1359.57</ele>
        <time>2022-02-20T14:13:37Z</time>
      </trkpt>
      <trkpt lat="42.74383" lon="1.59798">
        <ele>1358.753</ele>
        <time>2022-02-20T14:13:39Z</time>
      </trkpt>
      <trkpt lat="42.74384" lon="1.59796">
        <ele>1359.649</ele>
        <time>2022-02-20T14:13:41Z</time>
      </trkpt>
      <trkpt lat="42.74385" lon="1.59794">
        <ele>1361.388</ele>
        <time>2022-02-20T14:13:43Z</time>
      </trkpt>
      <trkpt lat="42.74386" lon="1.59792">
        <ele>1361.929</ele>
        <time>2022-02-20T14:13:45Z</time>
      </trkpt>
      <trkpt lat="42.74386" lon="1.5979">
        <ele>1362.566</ele>
        <time>2022-02-20T14:13:47Z</time>
      </trkpt>
      <trkpt lat="42.74386" lon="1.59787">
        <ele>1362.084</ele>
        <time>2022-02-20T14:13:49Z</time>
      </trkpt>
      <trkpt lat="42.74386" lon="1.59787">
        <ele>1361.923</ele>
        <time>2022-02-20T14:13:51Z</time>
      </trkpt>
      <trkpt lat="42.74386" lon="1.59787">
        <ele>1360.332</ele>
        <time>2022-02-20T14:13:53Z</time>
      </trkpt>
      <trkpt lat="42.74387" lon="1.59787">
        <ele>1358.693</ele>
        <time>2022-02-20T14:13:55Z</time>
      </trkpt>
      <trkpt lat="42.74388" lon="1.59786">
        <ele>1358.625</ele>
        <time>2022-02-20T14:13:57Z</time>
      </trkpt>
      <trkpt lat="42.74388" lon="1.59786">
        <ele>1357.651</ele>
        <time>2022-02-20T14:13:59Z</time>
      </trkpt>
      <trkpt lat="42.7439" lon="1.59786">
        <ele>1357.005</ele>
        <time>2022-02-20T14:14:01Z</time>
      </trkpt>
      <trkpt lat="42.7439" lon="1.59784">
        <ele>1355.934</ele>
        <time>2022-02-20T14:14:03Z</time>
      </trkpt>
      <trkpt lat="42.74391" lon="1.59783">
        <ele>1356.707</ele>
        <time>2022-02-20T14:14:05Z</time>
      </trkpt>
      <trkpt lat="42.74392" lon="1.59782">
        <ele>1355.693</ele>
        <time>2022-02-20T14:14:07Z</time>
      </trkpt>
      <trkpt lat="42.74393" lon="1.59781">
        <ele>1354.407</ele>
        <time>2022-02-20T14:14:09Z</time>
      </trkpt>
      <trkpt lat="42.74394" lon="1.5978">
        <ele>1353.819</ele>
        <time>2022-02-20T14:14:11Z</time>
      </trkpt>
      <trkpt lat="42.74395" lon="1.59779">
        <ele>1352.939</ele>
        <time>2022-02-20T14:14:13Z</time>
      </trkpt>
      <trkpt lat="42.74395" lon="1.59778">
        <ele>1354.358</ele>
        <time>2022-02-20T14:14:15Z</time>
      </trkpt>
      <trkpt lat="42.74396" lon="1.59778">
        <ele>1354.425</ele>
        <time>2022-02-20T14:14:17Z</time>
      </trkpt>
      <trkpt lat="42.74396" lon="1.59777">
        <ele>1354.996</ele>
        <time>2022-02-20T14:14:19Z</time>
      </trkpt>
      <trkpt lat="42.74397" lon="1.59776">
        <ele>1354.428</ele>
        <time>2022-02-20T14:14:21Z</time>
      </trkpt>
      <trkpt lat="42.74397" lon="1.59776">
        <ele>1354.14</ele>
        <time>2022-02-20T14:14:23Z</time>
      </trkpt>
      <trkpt lat="42.74397" lon="1.59775">
        <ele>1354.012</ele>
        <time>2022-02-20T14:14:25Z</time>
      </trkpt>
      <trkpt lat="42.74397" lon="1.59775">
        <ele>1354.036</ele>
        <time>2022-02-20T14:14:27Z</time>
      </trkpt>
      <trkpt lat="42.74398" lon="1.59775">
        <ele>1353.609</ele>
        <time>2022-02-20T14:14:29Z</time>
      </trkpt>
      <trkpt lat="42.74398" lon="1.59775">
        <ele>1353.183</ele>
        <time>2022-02-20T14:14:31Z</time>
      </trkpt>
      <trkpt lat="42.74399" lon="1.59774">
        <ele>1352.52</ele>
        <time>2022-02-20T14:14:33Z</time>
      </trkpt>
      <trkpt lat="42.74399" lon="1.59775">
        <ele>1351.65</ele>
        <time>2022-02-20T14:14:35Z</time>
      </trkpt>
      <trkpt lat="42.74398" lon="1.59776">
        <ele>1350.202</ele>
        <time>2022-02-20T14:14:37Z</time>
      </trkpt>
      <trkpt lat="42.74398" lon="1.59777">
        <ele>1348.568</ele>
        <time>2022-02-20T14:14:39Z</time>
      </trkpt>
      <trkpt lat="42.74399" lon="1.59778">
        <ele>1346.399</ele>
        <time>2022-02-20T14:14:41Z</time>
      </trkpt>
      <trkpt lat="42.74399" lon="1.59777">
        <ele>1346.627</ele>
        <time>2022-02-20T14:14:43Z</time>
      </trkpt>
      <trkpt lat="42.74399" lon="1.59776">
        <ele>1346.71</ele>
        <time>2022-02-20T14:14:45Z</time>
      </trkpt>
      <trkpt lat="42.744" lon="1.59774">
        <ele>1346.629</ele>
        <time>2022-02-20T14:14:47Z</time>
      </trkpt>
      <trkpt lat="42.744" lon="1.59774">
        <ele>1346.42</ele>
        <time>2022-02-20T14:14:49Z</time>
      </trkpt>
      <trkpt lat="42.744" lon="1.59772">
        <ele>1345.499</ele>
        <time>2022-02-20T14:14:51Z</time>
      </trkpt>
      <trkpt lat="42.744" lon="1.59771">
        <ele>1345.791</ele>
        <time>2022-02-20T14:14:53Z</time>
      </trkpt>
      <trkpt lat="42.74401" lon="1.59771">
        <ele>1345.773</ele>
        <time>2022-02-20T14:14:55Z</time>
      </trkpt>
      <trkpt lat="42.74401" lon="1.59771">
        <ele>1345.132</ele>
        <time>2022-02-20T14:14:57Z</time>
      </trkpt>
      <trkpt lat="42.74402" lon="1.5977">
        <ele>1345.322</ele>
        <time>2022-02-20T14:14:59Z</time>
      </trkpt>
      <trkpt lat="42.74402" lon="1.5977">
        <ele>1344.587</ele>
        <time>2022-02-20T14:15:01Z</time>
      </trkpt>
      <trkpt lat="42.74403" lon="1.59769">
        <ele>1344.416</ele>
        <time>2022-02-20T14:15:03Z</time>
      </trkpt>
      <trkpt lat="42.74404" lon="1.59769">
        <ele>1343.795</ele>
        <time>2022-02-20T14:15:05Z</time>
      </trkpt>
      <trkpt lat="42.74405" lon="1.59768">
        <ele>1343.694</ele>
        <time>2022-02-20T14:15:07Z</time>
      </trkpt>
      <trkpt lat="42.74405" lon="1.59766">
        <ele>1343.334</ele>
        <time>2022-02-20T14:15:09Z</time>
      </trkpt>
      <trkpt lat="42.74405" lon="1.59764">
        <ele>1344.377</ele>
        <time>2022-02-20T14:15:11Z</time>
      </trkpt>
      <trkpt lat="42.74405" lon="1.59765">
        <ele>1343.176</ele>
        <time>2022-02-20T14:15:13Z</time>
      </trkpt>
      <trkpt lat="42.74406" lon="1.59765">
        <ele>1343.022</ele>
        <time>2022-02-20T14:15:15Z</time>
      </trkpt>
      <trkpt lat="42.74405" lon="1.59765">
        <ele>1342.882</ele>
        <time>2022-02-20T14:15:17Z</time>
      </trkpt>
      <trkpt lat="42.74405" lon="1.59765">
        <ele>1342.85</ele>
        <time>2022-02-20T14:15:19Z</time>
      </trkpt>
      <trkpt lat="42.74405" lon="1.59763">
        <ele>1342.727</ele>
        <time>2022-02-20T14:15:21Z</time>
      </trkpt>
      <trkpt lat="42.74406" lon="1.59763">
        <ele>1342.483</ele>
        <time>2022-02-20T14:15:23Z</time>
      </trkpt>
      <trkpt lat="42.74406" lon="1.59762">
        <ele>1339.829</ele>
        <time>2022-02-20T14:15:26Z</time>
      </trkpt>
      <trkpt lat="42.74408" lon="1.59762">
        <ele>1339.698</ele>
        <time>2022-02-20T14:15:28Z</time>
      </trkpt>
      <trkpt lat="42.74408" lon="1.59762">
        <ele>1338.962</ele>
        <time>2022-02-20T14:15:30Z</time>
      </trkpt>
      <trkpt lat="42.74409" lon="1.59761">
        <ele>1338.355</ele>
        <time>2022-02-20T14:15:32Z</time>
      </trkpt>
      <trkpt lat="42.7441" lon="1.5976">
        <ele>1338.231</ele>
        <time>2022-02-20T14:15:34Z</time>
      </trkpt>
      <trkpt lat="42.7441" lon="1.5976">
        <ele>1338.23</ele>
        <time>2022-02-20T14:15:36Z</time>
      </trkpt>
      <trkpt lat="42.7441" lon="1.59759">
        <ele>1336.648</ele>
        <time>2022-02-20T14:15:38Z</time>
      </trkpt>
      <trkpt lat="42.7441" lon="1.59758">
        <ele>1336.093</ele>
        <time>2022-02-20T14:15:40Z</time>
      </trkpt>
      <trkpt lat="42.7441" lon="1.59756">
        <ele>1336.512</ele>
        <time>2022-02-20T14:15:42Z</time>
      </trkpt>
      <trkpt lat="42.74411" lon="1.59756">
        <ele>1336.96</ele>
        <time>2022-02-20T14:15:44Z</time>
      </trkpt>
      <trkpt lat="42.74411" lon="1.59755">
        <ele>1336.97</ele>
        <time>2022-02-20T14:15:46Z</time>
      </trkpt>
      <trkpt lat="42.74411" lon="1.59753">
        <ele>1336.713</ele>
        <time>2022-02-20T14:15:48Z</time>
      </trkpt>
      <trkpt lat="42.74412" lon="1.5975">
        <ele>1337.659</ele>
        <time>2022-02-20T14:15:50Z</time>
      </trkpt>
      <trkpt lat="42.74412" lon="1.59749">
        <ele>1337.723</ele>
        <time>2022-02-20T14:15:52Z</time>
      </trkpt>
      <trkpt lat="42.74413" lon="1.59748">
        <ele>1337.728</ele>
        <time>2022-02-20T14:15:54Z</time>
      </trkpt>
      <trkpt lat="42.74414" lon="1.59747">
        <ele>1338.103</ele>
        <time>2022-02-20T14:15:56Z</time>
      </trkpt>
      <trkpt lat="42.74414" lon="1.59745">
        <ele>1337.772</ele>
        <time>2022-02-20T14:15:58Z</time>
      </trkpt>
      <trkpt lat="42.74414" lon="1.59744">
        <ele>1337.831</ele>
        <time>2022-02-20T14:16:00Z</time>
      </trkpt>
      <trkpt lat="42.74414" lon="1.59742">
        <ele>1337.709</ele>
        <time>2022-02-20T14:16:02Z</time>
      </trkpt>
      <trkpt lat="42.74415" lon="1.59741">
        <ele>1337.8</ele>
        <time>2022-02-20T14:16:04Z</time>
      </trkpt>
      <trkpt lat="42.74415" lon="1.59739">
        <ele>1337.898</ele>
        <time>2022-02-20T14:16:06Z</time>
      </trkpt>
      <trkpt lat="42.74415" lon="1.59737">
        <ele>1338.808</ele>
        <time>2022-02-20T14:16:08Z</time>
      </trkpt>
      <trkpt lat="42.74416" lon="1.59736">
        <ele>1338.094</ele>
        <time>2022-02-20T14:16:10Z</time>
      </trkpt>
      <trkpt lat="42.74416" lon="1.59736">
        <ele>1338.026</ele>
        <time>2022-02-20T14:16:12Z</time>
      </trkpt>
      <trkpt lat="42.74416" lon="1.59735">
        <ele>1337.458</ele>
        <time>2022-02-20T14:16:14Z</time>
      </trkpt>
      <trkpt lat="42.74416" lon="1.59735">
        <ele>1337.269</ele>
        <time>2022-02-20T14:16:16Z</time>
      </trkpt>
      <trkpt lat="42.74415" lon="1.59735">
        <ele>1337.04</ele>
        <time>2022-02-20T14:16:18Z</time>
      </trkpt>
      <trkpt lat="42.74416" lon="1.59734">
        <ele>1336.368</ele>
        <time>2022-02-20T14:16:20Z</time>
      </trkpt>
      <trkpt lat="42.74416" lon="1.59733">
        <ele>1335.839</ele>
        <time>2022-02-20T14:16:22Z</time>
      </trkpt>
      <trkpt lat="42.74417" lon="1.59732">
        <ele>1334.565</ele>
        <time>2022-02-20T14:16:24Z</time>
      </trkpt>
      <trkpt lat="42.74419" lon="1.5973">
        <ele>1335.022</ele>
        <time>2022-02-20T14:16:26Z</time>
      </trkpt>
      <trkpt lat="42.7442" lon="1.59729">
        <ele>1333.787</ele>
        <time>2022-02-20T14:16:28Z</time>
      </trkpt>
      <trkpt lat="42.74421" lon="1.59729">
        <ele>1332.991</ele>
        <time>2022-02-20T14:16:30Z</time>
      </trkpt>
      <trkpt lat="42.74423" lon="1.59729">
        <ele>1332.653</ele>
        <time>2022-02-20T14:16:32Z</time>
      </trkpt>
      <trkpt lat="42.74425" lon="1.59728">
        <ele>1332.983</ele>
        <time>2022-02-20T14:16:34Z</time>
      </trkpt>
      <trkpt lat="42.74426" lon="1.59727">
        <ele>1333</ele>
        <time>2022-02-20T14:16:36Z</time>
      </trkpt>
      <trkpt lat="42.74428" lon="1.59726">
        <ele>1332.609</ele>
        <time>2022-02-20T14:16:38Z</time>
      </trkpt>
      <trkpt lat="42.7443" lon="1.59725">
        <ele>1331.862</ele>
        <time>2022-02-20T14:16:40Z</time>
      </trkpt>
      <trkpt lat="42.7443" lon="1.59722">
        <ele>1330.063</ele>
        <time>2022-02-20T14:16:42Z</time>
      </trkpt>
      <trkpt lat="42.7443" lon="1.5972">
        <ele>1329.43</ele>
        <time>2022-02-20T14:16:44Z</time>
      </trkpt>
      <trkpt lat="42.7443" lon="1.59717">
        <ele>1328.531</ele>
        <time>2022-02-20T14:16:46Z</time>
      </trkpt>
      <trkpt lat="42.7443" lon="1.59716">
        <ele>1328.621</ele>
        <time>2022-02-20T14:16:48Z</time>
      </trkpt>
      <trkpt lat="42.7443" lon="1.59714">
        <ele>1328.042</ele>
        <time>2022-02-20T14:16:50Z</time>
      </trkpt>
      <trkpt lat="42.74431" lon="1.59713">
        <ele>1328.437</ele>
        <time>2022-02-20T14:16:52Z</time>
      </trkpt>
      <trkpt lat="42.74431" lon="1.5971">
        <ele>1329.03</ele>
        <time>2022-02-20T14:16:54Z</time>
      </trkpt>
      <trkpt lat="42.74431" lon="1.59708">
        <ele>1328.316</ele>
        <time>2022-02-20T14:16:56Z</time>
      </trkpt>
      <trkpt lat="42.74432" lon="1.59707">
        <ele>1330.626</ele>
        <time>2022-02-20T14:16:58Z</time>
      </trkpt>
      <trkpt lat="42.74434" lon="1.59707">
        <ele>1329.956</ele>
        <time>2022-02-20T14:17:00Z</time>
      </trkpt>
      <trkpt lat="42.74434" lon="1.59706">
        <ele>1330.137</ele>
        <time>2022-02-20T14:17:02Z</time>
      </trkpt>
      <trkpt lat="42.74435" lon="1.59705">
        <ele>1330.966</ele>
        <time>2022-02-20T14:17:04Z</time>
      </trkpt>
      <trkpt lat="42.74437" lon="1.59704">
        <ele>1330.774</ele>
        <time>2022-02-20T14:17:06Z</time>
      </trkpt>
      <trkpt lat="42.74438" lon="1.59703">
        <ele>1331.683</ele>
        <time>2022-02-20T14:17:08Z</time>
      </trkpt>
      <trkpt lat="42.7444" lon="1.59702">
        <ele>1331.767</ele>
        <time>2022-02-20T14:17:10Z</time>
      </trkpt>
      <trkpt lat="42.74441" lon="1.59701">
        <ele>1332.264</ele>
        <time>2022-02-20T14:17:12Z</time>
      </trkpt>
      <trkpt lat="42.74442" lon="1.59699">
        <ele>1333.368</ele>
        <time>2022-02-20T14:17:14Z</time>
      </trkpt>
      <trkpt lat="42.74443" lon="1.59697">
        <ele>1334.216</ele>
        <time>2022-02-20T14:17:16Z</time>
      </trkpt>
      <trkpt lat="42.74443" lon="1.59696">
        <ele>1332.86</ele>
        <time>2022-02-20T14:17:18Z</time>
      </trkpt>
      <trkpt lat="42.74445" lon="1.59695">
        <ele>1331.202</ele>
        <time>2022-02-20T14:17:20Z</time>
      </trkpt>
      <trkpt lat="42.74446" lon="1.59695">
        <ele>1329.306</ele>
        <time>2022-02-20T14:17:22Z</time>
      </trkpt>
      <trkpt lat="42.74447" lon="1.59695">
        <ele>1328.441</ele>
        <time>2022-02-20T14:17:24Z</time>
      </trkpt>
      <trkpt lat="42.74448" lon="1.59695">
        <ele>1326.582</ele>
        <time>2022-02-20T14:17:26Z</time>
      </trkpt>
      <trkpt lat="42.74446" lon="1.59693">
        <ele>1324.74</ele>
        <time>2022-02-20T14:17:28Z</time>
      </trkpt>
      <trkpt lat="42.74445" lon="1.59692">
        <ele>1324.66</ele>
        <time>2022-02-20T14:17:30Z</time>
      </trkpt>
      <trkpt lat="42.74444" lon="1.5969">
        <ele>1325.014</ele>
        <time>2022-02-20T14:17:32Z</time>
      </trkpt>
      <trkpt lat="42.74443" lon="1.5969">
        <ele>1324.192</ele>
        <time>2022-02-20T14:17:34Z</time>
      </trkpt>
      <trkpt lat="42.74443" lon="1.59688">
        <ele>1324.124</ele>
        <time>2022-02-20T14:17:36Z</time>
      </trkpt>
      <trkpt lat="42.74442" lon="1.59687">
        <ele>1325.166</ele>
        <time>2022-02-20T14:17:38Z</time>
      </trkpt>
      <trkpt lat="42.74442" lon="1.59687">
        <ele>1324.505</ele>
        <time>2022-02-20T14:17:40Z</time>
      </trkpt>
      <trkpt lat="42.74441" lon="1.59686">
        <ele>1324.366</ele>
        <time>2022-02-20T14:17:42Z</time>
      </trkpt>
      <trkpt lat="42.74439" lon="1.59685">
        <ele>1323.036</ele>
        <time>2022-02-20T14:17:44Z</time>
      </trkpt>
      <trkpt lat="42.74438" lon="1.59687">
        <ele>1320.23</ele>
        <time>2022-02-20T14:17:46Z</time>
      </trkpt>
      <trkpt lat="42.74439" lon="1.59688">
        <ele>1318.565</ele>
        <time>2022-02-20T14:17:48Z</time>
      </trkpt>
      <trkpt lat="42.7444" lon="1.59689">
        <ele>1316.488</ele>
        <time>2022-02-20T14:17:50Z</time>
      </trkpt>
      <trkpt lat="42.74442" lon="1.59687">
        <ele>1317.519</ele>
        <time>2022-02-20T14:17:52Z</time>
      </trkpt>
      <trkpt lat="42.74443" lon="1.59685">
        <ele>1316.941</ele>
        <time>2022-02-20T14:17:54Z</time>
      </trkpt>
      <trkpt lat="42.74444" lon="1.59683">
        <ele>1316.217</ele>
        <time>2022-02-20T14:17:56Z</time>
      </trkpt>
      <trkpt lat="42.74444" lon="1.59684">
        <ele>1314.674</ele>
        <time>2022-02-20T14:17:58Z</time>
      </trkpt>
      <trkpt lat="42.74444" lon="1.59684">
        <ele>1314.882</ele>
        <time>2022-02-20T14:17:59Z</time>
      </trkpt>
      <trkpt lat="42.74443" lon="1.59684">
        <ele>1314.766</ele>
        <time>2022-02-20T14:18:02Z</time>
      </trkpt>
      <trkpt lat="42.74443" lon="1.59682">
        <ele>1314.594</ele>
        <time>2022-02-20T14:18:04Z</time>
      </trkpt>
      <trkpt lat="42.74443" lon="1.5968">
        <ele>1314.753</ele>
        <time>2022-02-20T14:18:06Z</time>
      </trkpt>
      <trkpt lat="42.74444" lon="1.59678">
        <ele>1314.426</ele>
        <time>2022-02-20T14:18:08Z</time>
      </trkpt>
      <trkpt lat="42.74443" lon="1.59676">
        <ele>1313.868</ele>
        <time>2022-02-20T14:18:10Z</time>
      </trkpt>
      <trkpt lat="42.74443" lon="1.59675">
        <ele>1313.635</ele>
        <time>2022-02-20T14:18:12Z</time>
      </trkpt>
      <trkpt lat="42.74443" lon="1.59674">
        <ele>1312.8</ele>
        <time>2022-02-20T14:18:14Z</time>
      </trkpt>
      <trkpt lat="42.74444" lon="1.59674">
        <ele>1313.211</ele>
        <time>2022-02-20T14:18:16Z</time>
      </trkpt>
      <trkpt lat="42.74444" lon="1.59672">
        <ele>1313.948</ele>
        <time>2022-02-20T14:18:18Z</time>
      </trkpt>
      <trkpt lat="42.74444" lon="1.5967">
        <ele>1314.449</ele>
        <time>2022-02-20T14:18:20Z</time>
      </trkpt>
      <trkpt lat="42.74445" lon="1.59669">
        <ele>1314.259</ele>
        <time>2022-02-20T14:18:22Z</time>
      </trkpt>
      <trkpt lat="42.74445" lon="1.59667">
        <ele>1313.618</ele>
        <time>2022-02-20T14:18:24Z</time>
      </trkpt>
      <trkpt lat="42.74444" lon="1.59666">
        <ele>1311.807</ele>
        <time>2022-02-20T14:18:26Z</time>
      </trkpt>
      <trkpt lat="42.74443" lon="1.59665">
        <ele>1311.763</ele>
        <time>2022-02-20T14:18:28Z</time>
      </trkpt>
      <trkpt lat="42.74443" lon="1.59664">
        <ele>1311.94</ele>
        <time>2022-02-20T14:18:30Z</time>
      </trkpt>
      <trkpt lat="42.74444" lon="1.59661">
        <ele>1312.443</ele>
        <time>2022-02-20T14:18:32Z</time>
      </trkpt>
      <trkpt lat="42.74445" lon="1.59659">
        <ele>1312.84</ele>
        <time>2022-02-20T14:18:34Z</time>
      </trkpt>
      <trkpt lat="42.74446" lon="1.59658">
        <ele>1311.19</ele>
        <time>2022-02-20T14:18:36Z</time>
      </trkpt>
      <trkpt lat="42.74445" lon="1.59657">
        <ele>1310.662</ele>
        <time>2022-02-20T14:18:38Z</time>
      </trkpt>
      <trkpt lat="42.74445" lon="1.59655">
        <ele>1309.929</ele>
        <time>2022-02-20T14:18:40Z</time>
      </trkpt>
      <trkpt lat="42.74445" lon="1.59653">
        <ele>1309.463</ele>
        <time>2022-02-20T14:18:42Z</time>
      </trkpt>
      <trkpt lat="42.74445" lon="1.5965">
        <ele>1309.428</ele>
        <time>2022-02-20T14:18:44Z</time>
      </trkpt>
      <trkpt lat="42.74447" lon="1.59649">
        <ele>1310.614</ele>
        <time>2022-02-20T14:18:46Z</time>
      </trkpt>
      <trkpt lat="42.74448" lon="1.5965">
        <ele>1309.92</ele>
        <time>2022-02-20T14:18:48Z</time>
      </trkpt>
      <trkpt lat="42.74448" lon="1.5965">
        <ele>1309.12</ele>
        <time>2022-02-20T14:18:50Z</time>
      </trkpt>
      <trkpt lat="42.74447" lon="1.59646">
        <ele>1309.45</ele>
        <time>2022-02-20T14:18:52Z</time>
      </trkpt>
      <trkpt lat="42.74447" lon="1.59646">
        <ele>1308.334</ele>
        <time>2022-02-20T14:18:54Z</time>
      </trkpt>
      <trkpt lat="42.74448" lon="1.59649">
        <ele>1307.728</ele>
        <time>2022-02-20T14:18:56Z</time>
      </trkpt>
      <trkpt lat="42.74448" lon="1.59649">
        <ele>1304.937</ele>
        <time>2022-02-20T14:18:58Z</time>
      </trkpt>
      <trkpt lat="42.74448" lon="1.5965">
        <ele>1301.578</ele>
        <time>2022-02-20T14:19:00Z</time>
      </trkpt>
      <trkpt lat="42.74448" lon="1.59651">
        <ele>1299.001</ele>
        <time>2022-02-20T14:19:02Z</time>
      </trkpt>
      <trkpt lat="42.74449" lon="1.59652">
        <ele>1296.88</ele>
        <time>2022-02-20T14:19:04Z</time>
      </trkpt>
      <trkpt lat="42.74448" lon="1.59653">
        <ele>1293.244</ele>
        <time>2022-02-20T14:19:06Z</time>
      </trkpt>
      <trkpt lat="42.74448" lon="1.59653">
        <ele>1292.857</ele>
        <time>2022-02-20T14:19:08Z</time>
      </trkpt>
      <trkpt lat="42.74447" lon="1.59652">
        <ele>1291.803</ele>
        <time>2022-02-20T14:19:10Z</time>
      </trkpt>
      <trkpt lat="42.74448" lon="1.59651">
        <ele>1292.274</ele>
        <time>2022-02-20T14:19:12Z</time>
      </trkpt>
      <trkpt lat="42.74448" lon="1.59651">
        <ele>1292.263</ele>
        <time>2022-02-20T14:19:14Z</time>
      </trkpt>
      <trkpt lat="42.74447" lon="1.59652">
        <ele>1292.258</ele>
        <time>2022-02-20T14:19:16Z</time>
      </trkpt>
      <trkpt lat="42.74447" lon="1.59654">
        <ele>1289.783</ele>
        <time>2022-02-20T14:19:18Z</time>
      </trkpt>
      <trkpt lat="42.74446" lon="1.59651">
        <ele>1289.576</ele>
        <time>2022-02-20T14:19:20Z</time>
      </trkpt>
      <trkpt lat="42.74446" lon="1.59648">
        <ele>1288.152</ele>
        <time>2022-02-20T14:19:22Z</time>
      </trkpt>
      <trkpt lat="42.74446" lon="1.59646">
        <ele>1287.594</ele>
        <time>2022-02-20T14:19:24Z</time>
      </trkpt>
      <trkpt lat="42.74446" lon="1.59644">
        <ele>1286.67</ele>
        <time>2022-02-20T14:19:26Z</time>
      </trkpt>
      <trkpt lat="42.74445" lon="1.59643">
        <ele>1286.226</ele>
        <time>2022-02-20T14:19:28Z</time>
      </trkpt>
      <trkpt lat="42.74445" lon="1.5964">
        <ele>1286.841</ele>
        <time>2022-02-20T14:19:30Z</time>
      </trkpt>
      <trkpt lat="42.74446" lon="1.59638">
        <ele>1287.313</ele>
        <time>2022-02-20T14:19:32Z</time>
      </trkpt>
      <trkpt lat="42.74446" lon="1.59636">
        <ele>1287.174</ele>
        <time>2022-02-20T14:19:34Z</time>
      </trkpt>
      <trkpt lat="42.74446" lon="1.59634">
        <ele>1285.75</ele>
        <time>2022-02-20T14:19:36Z</time>
      </trkpt>
      <trkpt lat="42.74445" lon="1.59632">
        <ele>1283.6</ele>
        <time>2022-02-20T14:19:38Z</time>
      </trkpt>
      <trkpt lat="42.74445" lon="1.59631">
        <ele>1283.153</ele>
        <time>2022-02-20T14:19:40Z</time>
      </trkpt>
      <trkpt lat="42.74444" lon="1.5963">
        <ele>1282.219</ele>
        <time>2022-02-20T14:19:42Z</time>
      </trkpt>
      <trkpt lat="42.74443" lon="1.59627">
        <ele>1281.066</ele>
        <time>2022-02-20T14:19:44Z</time>
      </trkpt>
      <trkpt lat="42.74443" lon="1.59625">
        <ele>1278.584</ele>
        <time>2022-02-20T14:19:46Z</time>
      </trkpt>
      <trkpt lat="42.74442" lon="1.59624">
        <ele>1277.75</ele>
        <time>2022-02-20T14:19:48Z</time>
      </trkpt>
      <trkpt lat="42.74442" lon="1.59622">
        <ele>1277.607</ele>
        <time>2022-02-20T14:19:50Z</time>
      </trkpt>
      <trkpt lat="42.74442" lon="1.59621">
        <ele>1277.005</ele>
        <time>2022-02-20T14:19:52Z</time>
      </trkpt>
      <trkpt lat="42.74442" lon="1.59618">
        <ele>1276.431</ele>
        <time>2022-02-20T14:19:54Z</time>
      </trkpt>
      <trkpt lat="42.74442" lon="1.59617">
        <ele>1274.905</ele>
        <time>2022-02-20T14:19:56Z</time>
      </trkpt>
      <trkpt lat="42.74442" lon="1.59616">
        <ele>1274.295</ele>
        <time>2022-02-20T14:19:58Z</time>
      </trkpt>
      <trkpt lat="42.74441" lon="1.59615">
        <ele>1273.402</ele>
        <time>2022-02-20T14:20:00Z</time>
      </trkpt>
      <trkpt lat="42.74441" lon="1.59614">
        <ele>1273.521</ele>
        <time>2022-02-20T14:20:02Z</time>
      </trkpt>
      <trkpt lat="42.74441" lon="1.59612">
        <ele>1273.197</ele>
        <time>2022-02-20T14:20:04Z</time>
      </trkpt>
      <trkpt lat="42.74442" lon="1.5961">
        <ele>1272.595</ele>
        <time>2022-02-20T14:20:06Z</time>
      </trkpt>
      <trkpt lat="42.74442" lon="1.59607">
        <ele>1272.358</ele>
        <time>2022-02-20T14:20:08Z</time>
      </trkpt>
      <trkpt lat="42.74442" lon="1.59606">
        <ele>1271.508</ele>
        <time>2022-02-20T14:20:10Z</time>
      </trkpt>
      <trkpt lat="42.74442" lon="1.59605">
        <ele>1271.289</ele>
        <time>2022-02-20T14:20:12Z</time>
      </trkpt>
      <trkpt lat="42.74443" lon="1.59602">
        <ele>1270.294</ele>
        <time>2022-02-20T14:20:14Z</time>
      </trkpt>
      <trkpt lat="42.74444" lon="1.596">
        <ele>1270.071</ele>
        <time>2022-02-20T14:20:16Z</time>
      </trkpt>
      <trkpt lat="42.74446" lon="1.596">
        <ele>1269.498</ele>
        <time>2022-02-20T14:20:18Z</time>
      </trkpt>
      <trkpt lat="42.74447" lon="1.59598">
        <ele>1269.175</ele>
        <time>2022-02-20T14:20:20Z</time>
      </trkpt>
      <trkpt lat="42.74448" lon="1.59596">
        <ele>1268.964</ele>
        <time>2022-02-20T14:20:22Z</time>
      </trkpt>
      <trkpt lat="42.74449" lon="1.59594">
        <ele>1268.394</ele>
        <time>2022-02-20T14:20:24Z</time>
      </trkpt>
      <trkpt lat="42.7445" lon="1.59592">
        <ele>1270.206</ele>
        <time>2022-02-20T14:20:26Z</time>
      </trkpt>
      <trkpt lat="42.7445" lon="1.59589">
        <ele>1270.676</ele>
        <time>2022-02-20T14:20:28Z</time>
      </trkpt>
      <trkpt lat="42.7445" lon="1.59587">
        <ele>1270.508</ele>
        <time>2022-02-20T14:20:30Z</time>
      </trkpt>
      <trkpt lat="42.7445" lon="1.59585">
        <ele>1270.809</ele>
        <time>2022-02-20T14:20:32Z</time>
      </trkpt>
      <trkpt lat="42.7445" lon="1.59584">
        <ele>1269.54</ele>
        <time>2022-02-20T14:20:34Z</time>
      </trkpt>
      <trkpt lat="42.7445" lon="1.59582">
        <ele>1269.842</ele>
        <time>2022-02-20T14:20:36Z</time>
      </trkpt>
      <trkpt lat="42.7445" lon="1.59581">
        <ele>1267.971</ele>
        <time>2022-02-20T14:20:38Z</time>
      </trkpt>
      <trkpt lat="42.7445" lon="1.59579">
        <ele>1267.724</ele>
        <time>2022-02-20T14:20:40Z</time>
      </trkpt>
      <trkpt lat="42.7445" lon="1.59578">
        <ele>1267.11</ele>
        <time>2022-02-20T14:20:42Z</time>
      </trkpt>
      <trkpt lat="42.7445" lon="1.59576">
        <ele>1265.729</ele>
        <time>2022-02-20T14:20:44Z</time>
      </trkpt>
      <trkpt lat="42.7445" lon="1.59575">
        <ele>1265.878</ele>
        <time>2022-02-20T14:20:46Z</time>
      </trkpt>
      <trkpt lat="42.74449" lon="1.59573">
        <ele>1264.109</ele>
        <time>2022-02-20T14:20:48Z</time>
      </trkpt>
      <trkpt lat="42.74448" lon="1.59572">
        <ele>1262.343</ele>
        <time>2022-02-20T14:20:50Z</time>
      </trkpt>
      <trkpt lat="42.74448" lon="1.59571">
        <ele>1262.224</ele>
        <time>2022-02-20T14:20:52Z</time>
      </trkpt>
      <trkpt lat="42.74448" lon="1.59569">
        <ele>1262.182</ele>
        <time>2022-02-20T14:20:54Z</time>
      </trkpt>
      <trkpt lat="42.74448" lon="1.59568">
        <ele>1261.839</ele>
        <time>2022-02-20T14:20:56Z</time>
      </trkpt>
      <trkpt lat="42.74448" lon="1.59566">
        <ele>1261.562</ele>
        <time>2022-02-20T14:20:58Z</time>
      </trkpt>
      <trkpt lat="42.74447" lon="1.59565">
        <ele>1262.101</ele>
        <time>2022-02-20T14:21:00Z</time>
      </trkpt>
      <trkpt lat="42.74447" lon="1.59563">
        <ele>1262.533</ele>
        <time>2022-02-20T14:21:02Z</time>
      </trkpt>
      <trkpt lat="42.74447" lon="1.5956">
        <ele>1262.562</ele>
        <time>2022-02-20T14:21:04Z</time>
      </trkpt>
      <trkpt lat="42.74447" lon="1.59559">
        <ele>1263.044</ele>
        <time>2022-02-20T14:21:06Z</time>
      </trkpt>
      <trkpt lat="42.74446" lon="1.59558">
        <ele>1262.658</ele>
        <time>2022-02-20T14:21:08Z</time>
      </trkpt>
      <trkpt lat="42.74446" lon="1.59556">
        <ele>1261.966</ele>
        <time>2022-02-20T14:21:10Z</time>
      </trkpt>
      <trkpt lat="42.74446" lon="1.59555">
        <ele>1261.222</ele>
        <time>2022-02-20T14:21:12Z</time>
      </trkpt>
      <trkpt lat="42.74446" lon="1.59553">
        <ele>1260.275</ele>
        <time>2022-02-20T14:21:14Z</time>
      </trkpt>
      <trkpt lat="42.74446" lon="1.59552">
        <ele>1259.446</ele>
        <time>2022-02-20T14:21:16Z</time>
      </trkpt>
      <trkpt lat="42.74446" lon="1.5955">
        <ele>1259.504</ele>
        <time>2022-02-20T14:21:18Z</time>
      </trkpt>
      <trkpt lat="42.74446" lon="1.59549">
        <ele>1258.612</ele>
        <time>2022-02-20T14:21:20Z</time>
      </trkpt>
      <trkpt lat="42.74445" lon="1.59548">
        <ele>1258.222</ele>
        <time>2022-02-20T14:21:22Z</time>
      </trkpt>
      <trkpt lat="42.74445" lon="1.59546">
        <ele>1258.664</ele>
        <time>2022-02-20T14:21:24Z</time>
      </trkpt>
      <trkpt lat="42.74445" lon="1.59544">
        <ele>1258.428</ele>
        <time>2022-02-20T14:21:26Z</time>
      </trkpt>
      <trkpt lat="42.74445" lon="1.59543">
        <ele>1258.178</ele>
        <time>2022-02-20T14:21:28Z</time>
      </trkpt>
      <trkpt lat="42.74445" lon="1.59541">
        <ele>1257.771</ele>
        <time>2022-02-20T14:21:30Z</time>
      </trkpt>
      <trkpt lat="42.74445" lon="1.59539">
        <ele>1256.818</ele>
        <time>2022-02-20T14:21:32Z</time>
      </trkpt>
      <trkpt lat="42.74445" lon="1.59538">
        <ele>1255.919</ele>
        <time>2022-02-20T14:21:34Z</time>
      </trkpt>
      <trkpt lat="42.74444" lon="1.59537">
        <ele>1255.528</ele>
        <time>2022-02-20T14:21:36Z</time>
      </trkpt>
      <trkpt lat="42.74444" lon="1.59535">
        <ele>1255.484</ele>
        <time>2022-02-20T14:21:38Z</time>
      </trkpt>
      <trkpt lat="42.74443" lon="1.59534">
        <ele>1254.486</ele>
        <time>2022-02-20T14:21:40Z</time>
      </trkpt>
      <trkpt lat="42.74443" lon="1.59532">
        <ele>1254.459</ele>
        <time>2022-02-20T14:21:42Z</time>
      </trkpt>
      <trkpt lat="42.74443" lon="1.59532">
        <ele>1255.804</ele>
        <time>2022-02-20T14:21:44Z</time>
      </trkpt>
      <trkpt lat="42.74443" lon="1.59532">
        <ele>1255.822</ele>
        <time>2022-02-20T14:21:46Z</time>
      </trkpt>
      <trkpt lat="42.74443" lon="1.59532">
        <ele>1255.786</ele>
        <time>2022-02-20T14:21:48Z</time>
      </trkpt>
      <trkpt lat="42.74442" lon="1.5953">
        <ele>1255.918</ele>
        <time>2022-02-20T14:21:50Z</time>
      </trkpt>
      <trkpt lat="42.74442" lon="1.59527">
        <ele>1257.046</ele>
        <time>2022-02-20T14:21:52Z</time>
      </trkpt>
      <trkpt lat="42.74442" lon="1.59525">
        <ele>1257.076</ele>
        <time>2022-02-20T14:21:54Z</time>
      </trkpt>
      <trkpt lat="42.74441" lon="1.59524">
        <ele>1256.885</ele>
        <time>2022-02-20T14:21:56Z</time>
      </trkpt>
      <trkpt lat="42.7444" lon="1.59523">
        <ele>1256.841</ele>
        <time>2022-02-20T14:21:58Z</time>
      </trkpt>
      <trkpt lat="42.74441" lon="1.59521">
        <ele>1256.514</ele>
        <time>2022-02-20T14:22:00Z</time>
      </trkpt>
      <trkpt lat="42.74442" lon="1.59519">
        <ele>1256.801</ele>
        <time>2022-02-20T14:22:02Z</time>
      </trkpt>
      <trkpt lat="42.74443" lon="1.59519">
        <ele>1256.204</ele>
        <time>2022-02-20T14:22:04Z</time>
      </trkpt>
      <trkpt lat="42.74444" lon="1.59518">
        <ele>1255.764</ele>
        <time>2022-02-20T14:22:06Z</time>
      </trkpt>
      <trkpt lat="42.74444" lon="1.59514">
        <ele>1255.588</ele>
        <time>2022-02-20T14:22:08Z</time>
      </trkpt>
      <trkpt lat="42.74444" lon="1.59513">
        <ele>1253.808</ele>
        <time>2022-02-20T14:22:10Z</time>
      </trkpt>
      <trkpt lat="42.74444" lon="1.59511">
        <ele>1253.718</ele>
        <time>2022-02-20T14:22:12Z</time>
      </trkpt>
      <trkpt lat="42.74444" lon="1.59509">
        <ele>1252.089</ele>
        <time>2022-02-20T14:22:14Z</time>
      </trkpt>
      <trkpt lat="42.74443" lon="1.59508">
        <ele>1250.827</ele>
        <time>2022-02-20T14:22:16Z</time>
      </trkpt>
      <trkpt lat="42.74443" lon="1.59506">
        <ele>1251.083</ele>
        <time>2022-02-20T14:22:18Z</time>
      </trkpt>
      <trkpt lat="42.74442" lon="1.59504">
        <ele>1251.43</ele>
        <time>2022-02-20T14:22:20Z</time>
      </trkpt>
      <trkpt lat="42.74442" lon="1.59502">
        <ele>1251.445</ele>
        <time>2022-02-20T14:22:22Z</time>
      </trkpt>
      <trkpt lat="42.74443" lon="1.59501">
        <ele>1251.983</ele>
        <time>2022-02-20T14:22:24Z</time>
      </trkpt>
      <trkpt lat="42.74444" lon="1.59499">
        <ele>1251.318</ele>
        <time>2022-02-20T14:22:26Z</time>
      </trkpt>
      <trkpt lat="42.74444" lon="1.59499">
        <ele>1250.557</ele>
        <time>2022-02-20T14:22:28Z</time>
      </trkpt>
      <trkpt lat="42.74444" lon="1.59497">
        <ele>1251.251</ele>
        <time>2022-02-20T14:22:30Z</time>
      </trkpt>
      <trkpt lat="42.74443" lon="1.59496">
        <ele>1251.236</ele>
        <time>2022-02-20T14:22:32Z</time>
      </trkpt>
      <trkpt lat="42.74444" lon="1.59495">
        <ele>1251.402</ele>
        <time>2022-02-20T14:22:34Z</time>
      </trkpt>
      <trkpt lat="42.74443" lon="1.59494">
        <ele>1251.39</ele>
        <time>2022-02-20T14:22:36Z</time>
      </trkpt>
      <trkpt lat="42.74443" lon="1.59492">
        <ele>1252.242</ele>
        <time>2022-02-20T14:22:38Z</time>
      </trkpt>
      <trkpt lat="42.74441" lon="1.59493">
        <ele>1252.074</ele>
        <time>2022-02-20T14:22:40Z</time>
      </trkpt>
      <trkpt lat="42.7444" lon="1.59491">
        <ele>1253.358</ele>
        <time>2022-02-20T14:22:42Z</time>
      </trkpt>
      <trkpt lat="42.74439" lon="1.5949">
        <ele>1252.353</ele>
        <time>2022-02-20T14:22:44Z</time>
      </trkpt>
      <trkpt lat="42.74439" lon="1.59489">
        <ele>1251.173</ele>
        <time>2022-02-20T14:22:46Z</time>
      </trkpt>
      <trkpt lat="42.7444" lon="1.5949">
        <ele>1250.012</ele>
        <time>2022-02-20T14:22:48Z</time>
      </trkpt>
      <trkpt lat="42.74439" lon="1.59489">
        <ele>1250.347</ele>
        <time>2022-02-20T14:22:50Z</time>
      </trkpt>
      <trkpt lat="42.74439" lon="1.59489">
        <ele>1250.031</ele>
        <time>2022-02-20T14:22:52Z</time>
      </trkpt>
      <trkpt lat="42.74439" lon="1.59488">
        <ele>1250.294</ele>
        <time>2022-02-20T14:22:54Z</time>
      </trkpt>
      <trkpt lat="42.74439" lon="1.59486">
        <ele>1249.12</ele>
        <time>2022-02-20T14:22:56Z</time>
      </trkpt>
      <trkpt lat="42.74439" lon="1.59484">
        <ele>1248.644</ele>
        <time>2022-02-20T14:22:58Z</time>
      </trkpt>
      <trkpt lat="42.74439" lon="1.59484">
        <ele>1247.748</ele>
        <time>2022-02-20T14:23:00Z</time>
      </trkpt>
      <trkpt lat="42.74439" lon="1.59485">
        <ele>1247.205</ele>
        <time>2022-02-20T14:23:02Z</time>
      </trkpt>
      <trkpt lat="42.74439" lon="1.59485">
        <ele>1247.178</ele>
        <time>2022-02-20T14:23:04Z</time>
      </trkpt>
      <trkpt lat="42.74439" lon="1.59485">
        <ele>1247.147</ele>
        <time>2022-02-20T14:23:06Z</time>
      </trkpt>
      <trkpt lat="42.74439" lon="1.59485">
        <ele>1247.15</ele>
        <time>2022-02-20T14:23:08Z</time>
      </trkpt>
      <trkpt lat="42.74439" lon="1.59485">
        <ele>1245.789</ele>
        <time>2022-02-20T14:23:10Z</time>
      </trkpt>
      <trkpt lat="42.7444" lon="1.59484">
        <ele>1245.882</ele>
        <time>2022-02-20T14:23:12Z</time>
      </trkpt>
      <trkpt lat="42.7444" lon="1.59484">
        <ele>1245.862</ele>
        <time>2022-02-20T14:23:14Z</time>
      </trkpt>
      <trkpt lat="42.7444" lon="1.59484">
        <ele>1245.863</ele>
        <time>2022-02-20T14:23:16Z</time>
      </trkpt>
      <trkpt lat="42.7444" lon="1.59484">
        <ele>1245.854</ele>
        <time>2022-02-20T14:23:18Z</time>
      </trkpt>
      <trkpt lat="42.7444" lon="1.59484">
        <ele>1245.871</ele>
        <time>2022-02-20T14:23:20Z</time>
      </trkpt>
      <trkpt lat="42.7444" lon="1.59484">
        <ele>1245.88</ele>
        <time>2022-02-20T14:23:22Z</time>
      </trkpt>
      <trkpt lat="42.7444" lon="1.59484">
        <ele>1245.88</ele>
        <time>2022-02-20T14:23:24Z</time>
      </trkpt>
      <trkpt lat="42.7444" lon="1.59484">
        <ele>1245.949</ele>
        <time>2022-02-20T14:23:26Z</time>
      </trkpt>
      <trkpt lat="42.7444" lon="1.59484">
        <ele>1245.96</ele>
        <time>2022-02-20T14:23:28Z</time>
      </trkpt>
      <trkpt lat="42.7444" lon="1.59484">
        <ele>1246.103</ele>
        <time>2022-02-20T14:23:30Z</time>
      </trkpt>
      <trkpt lat="42.7444" lon="1.59484">
        <ele>1246.211</ele>
        <time>2022-02-20T14:23:32Z</time>
      </trkpt>
      <trkpt lat="42.74441" lon="1.59485">
        <ele>1245.324</ele>
        <time>2022-02-20T14:23:34Z</time>
      </trkpt>
      <trkpt lat="42.74441" lon="1.59485">
        <ele>1245.325</ele>
        <time>2022-02-20T14:23:36Z</time>
      </trkpt>
      <trkpt lat="42.74441" lon="1.59485">
        <ele>1245.311</ele>
        <time>2022-02-20T14:23:38Z</time>
      </trkpt>
      <trkpt lat="42.74441" lon="1.59485">
        <ele>1245.326</ele>
        <time>2022-02-20T14:23:40Z</time>
      </trkpt>
      <trkpt lat="42.74441" lon="1.59485">
        <ele>1245.33</ele>
        <time>2022-02-20T14:23:42Z</time>
      </trkpt>
      <trkpt lat="42.74441" lon="1.59485">
        <ele>1245.601</ele>
        <time>2022-02-20T14:23:44Z</time>
      </trkpt>
      <trkpt lat="42.74441" lon="1.59485">
        <ele>1245.617</ele>
        <time>2022-02-20T14:23:46Z</time>
      </trkpt>
      <trkpt lat="42.74441" lon="1.59485">
        <ele>1245.616</ele>
        <time>2022-02-20T14:23:48Z</time>
      </trkpt>
      <trkpt lat="42.74441" lon="1.59485">
        <ele>1245.617</ele>
        <time>2022-02-20T14:23:50Z</time>
      </trkpt>
      <trkpt lat="42.74441" lon="1.59485">
        <ele>1245.767</ele>
        <time>2022-02-20T14:23:52Z</time>
      </trkpt>
      <trkpt lat="42.7444" lon="1.59486">
        <ele>1245.777</ele>
        <time>2022-02-20T14:23:54Z</time>
      </trkpt>
      <trkpt lat="42.7444" lon="1.59486">
        <ele>1245.78</ele>
        <time>2022-02-20T14:23:56Z</time>
      </trkpt>
      <trkpt lat="42.7444" lon="1.59486">
        <ele>1245.78</ele>
        <time>2022-02-20T14:23:58Z</time>
      </trkpt>
      <trkpt lat="42.7444" lon="1.59486">
        <ele>1245.783</ele>
        <time>2022-02-20T14:24:00Z</time>
      </trkpt>
      <trkpt lat="42.7444" lon="1.59486">
        <ele>1245.815</ele>
        <time>2022-02-20T14:24:02Z</time>
      </trkpt>
      <trkpt lat="42.7444" lon="1.59486">
        <ele>1245.822</ele>
        <time>2022-02-20T14:24:04Z</time>
      </trkpt>
      <trkpt lat="42.7444" lon="1.59486">
        <ele>1245.82</ele>
        <time>2022-02-20T14:24:06Z</time>
      </trkpt>
      <trkpt lat="42.7444" lon="1.59486">
        <ele>1245.819</ele>
        <time>2022-02-20T14:24:08Z</time>
      </trkpt>
      <trkpt lat="42.7444" lon="1.59486">
        <ele>1245.818</ele>
        <time>2022-02-20T14:24:10Z</time>
      </trkpt>
      <trkpt lat="42.7444" lon="1.59486">
        <ele>1245.86</ele>
        <time>2022-02-20T14:24:12Z</time>
      </trkpt>
      <trkpt lat="42.7444" lon="1.59486">
        <ele>1245.871</ele>
        <time>2022-02-20T14:24:14Z</time>
      </trkpt>
      <trkpt lat="42.7444" lon="1.59486">
        <ele>1245.877</ele>
        <time>2022-02-20T14:24:16Z</time>
      </trkpt>
      <trkpt lat="42.7444" lon="1.59486">
        <ele>1245.885</ele>
        <time>2022-02-20T14:24:18Z</time>
      </trkpt>
      <trkpt lat="42.7444" lon="1.59486">
        <ele>1245.894</ele>
        <time>2022-02-20T14:24:20Z</time>
      </trkpt>
      <trkpt lat="42.7444" lon="1.59486">
        <ele>1245.891</ele>
        <time>2022-02-20T14:24:22Z</time>
      </trkpt>
      <trkpt lat="42.7444" lon="1.59486">
        <ele>1245.892</ele>
        <time>2022-02-20T14:24:24Z</time>
      </trkpt>
      <trkpt lat="42.7444" lon="1.59486">
        <ele>1246.018</ele>
        <time>2022-02-20T14:24:26Z</time>
      </trkpt>
      <trkpt lat="42.7444" lon="1.59486">
        <ele>1245.923</ele>
        <time>2022-02-20T14:24:28Z</time>
      </trkpt>
      <trkpt lat="42.7444" lon="1.59486">
        <ele>1245.929</ele>
        <time>2022-02-20T14:24:30Z</time>
      </trkpt>
      <trkpt lat="42.7444" lon="1.59486">
        <ele>1245.927</ele>
        <time>2022-02-20T14:24:32Z</time>
      </trkpt>
      <trkpt lat="42.7444" lon="1.59486">
        <ele>1245.919</ele>
        <time>2022-02-20T14:24:34Z</time>
      </trkpt>
      <trkpt lat="42.7444" lon="1.59486">
        <ele>1245.922</ele>
        <time>2022-02-20T14:24:36Z</time>
      </trkpt>
      <trkpt lat="42.7444" lon="1.59485">
        <ele>1246.207</ele>
        <time>2022-02-20T14:24:38Z</time>
      </trkpt>
      <trkpt lat="42.7444" lon="1.59484">
        <ele>1247.06</ele>
        <time>2022-02-20T14:24:40Z</time>
      </trkpt>
      <trkpt lat="42.7444" lon="1.59484">
        <ele>1247.09</ele>
        <time>2022-02-20T14:24:42Z</time>
      </trkpt>
      <trkpt lat="42.7444" lon="1.59484">
        <ele>1247.084</ele>
        <time>2022-02-20T14:24:44Z</time>
      </trkpt>
      <trkpt lat="42.7444" lon="1.59484">
        <ele>1247.091</ele>
        <time>2022-02-20T14:24:46Z</time>
      </trkpt>
      <trkpt lat="42.7444" lon="1.59484">
        <ele>1247.099</ele>
        <time>2022-02-20T14:24:48Z</time>
      </trkpt>
      <trkpt lat="42.7444" lon="1.59484">
        <ele>1247.107</ele>
        <time>2022-02-20T14:24:50Z</time>
      </trkpt>
      <trkpt lat="42.74439" lon="1.59484">
        <ele>1247.077</ele>
        <time>2022-02-20T14:24:52Z</time>
      </trkpt>
      <trkpt lat="42.74439" lon="1.59484">
        <ele>1247.085</ele>
        <time>2022-02-20T14:24:54Z</time>
      </trkpt>
      <trkpt lat="42.74439" lon="1.59484">
        <ele>1247.102</ele>
        <time>2022-02-20T14:24:56Z</time>
      </trkpt>
      <trkpt lat="42.74439" lon="1.59484">
        <ele>1247.112</ele>
        <time>2022-02-20T14:24:58Z</time>
      </trkpt>
      <trkpt lat="42.74439" lon="1.59484">
        <ele>1247.113</ele>
        <time>2022-02-20T14:25:00Z</time>
      </trkpt>
      <trkpt lat="42.7444" lon="1.59484">
        <ele>1247.509</ele>
        <time>2022-02-20T14:25:02Z</time>
      </trkpt>
      <trkpt lat="42.7444" lon="1.59484">
        <ele>1247.507</ele>
        <time>2022-02-20T14:25:04Z</time>
      </trkpt>
      <trkpt lat="42.7444" lon="1.59484">
        <ele>1247.515</ele>
        <time>2022-02-20T14:25:06Z</time>
      </trkpt>
      <trkpt lat="42.7444" lon="1.59484">
        <ele>1247.531</ele>
        <time>2022-02-20T14:25:08Z</time>
      </trkpt>
      <trkpt lat="42.7444" lon="1.59484">
        <ele>1247.547</ele>
        <time>2022-02-20T14:25:10Z</time>
      </trkpt>
      <trkpt lat="42.7444" lon="1.59484">
        <ele>1247.553</ele>
        <time>2022-02-20T14:25:12Z</time>
      </trkpt>
      <trkpt lat="42.7444" lon="1.59484">
        <ele>1247.552</ele>
        <time>2022-02-20T14:25:14Z</time>
      </trkpt>
      <trkpt lat="42.7444" lon="1.59484">
        <ele>1247.06</ele>
        <time>2022-02-20T14:25:16Z</time>
      </trkpt>
      <trkpt lat="42.7444" lon="1.59484">
        <ele>1247.043</ele>
        <time>2022-02-20T14:25:18Z</time>
      </trkpt>
      <trkpt lat="42.7444" lon="1.59484">
        <ele>1247.034</ele>
        <time>2022-02-20T14:25:20Z</time>
      </trkpt>
      <trkpt lat="42.7444" lon="1.59484">
        <ele>1247.038</ele>
        <time>2022-02-20T14:25:22Z</time>
      </trkpt>
      <trkpt lat="42.7444" lon="1.59484">
        <ele>1247.032</ele>
        <time>2022-02-20T14:25:24Z</time>
      </trkpt>
      <trkpt lat="42.7444" lon="1.59484">
        <ele>1247.025</ele>
        <time>2022-02-20T14:25:26Z</time>
      </trkpt>
      <trkpt lat="42.7444" lon="1.59484">
        <ele>1246.688</ele>
        <time>2022-02-20T14:25:28Z</time>
      </trkpt>
      <trkpt lat="42.74441" lon="1.59482">
        <ele>1246.605</ele>
        <time>2022-02-20T14:25:30Z</time>
      </trkpt>
      <trkpt lat="42.74442" lon="1.59481">
        <ele>1245.482</ele>
        <time>2022-02-20T14:25:32Z</time>
      </trkpt>
      <trkpt lat="42.74444" lon="1.59479">
        <ele>1245.753</ele>
        <time>2022-02-20T14:25:34Z</time>
      </trkpt>
      <trkpt lat="42.74445" lon="1.59477">
        <ele>1245.133</ele>
        <time>2022-02-20T14:25:36Z</time>
      </trkpt>
      <trkpt lat="42.74446" lon="1.59476">
        <ele>1244.996</ele>
        <time>2022-02-20T14:25:38Z</time>
      </trkpt>
      <trkpt lat="42.74446" lon="1.59474">
        <ele>1243.055</ele>
        <time>2022-02-20T14:25:40Z</time>
      </trkpt>
      <trkpt lat="42.74447" lon="1.59472">
        <ele>1242.101</ele>
        <time>2022-02-20T14:25:42Z</time>
      </trkpt>
      <trkpt lat="42.74447" lon="1.59469">
        <ele>1241.512</ele>
        <time>2022-02-20T14:25:44Z</time>
      </trkpt>
      <trkpt lat="42.74448" lon="1.59466">
        <ele>1241.267</ele>
        <time>2022-02-20T14:25:46Z</time>
      </trkpt>
      <trkpt lat="42.74448" lon="1.59464">
        <ele>1239.2</ele>
        <time>2022-02-20T14:25:48Z</time>
      </trkpt>
      <trkpt lat="42.74449" lon="1.59461">
        <ele>1238.978</ele>
        <time>2022-02-20T14:25:50Z</time>
      </trkpt>
      <trkpt lat="42.74449" lon="1.59458">
        <ele>1238.248</ele>
        <time>2022-02-20T14:25:52Z</time>
      </trkpt>
      <trkpt lat="42.7445" lon="1.59455">
        <ele>1238.241</ele>
        <time>2022-02-20T14:25:54Z</time>
      </trkpt>
      <trkpt lat="42.7445" lon="1.59452">
        <ele>1237.433</ele>
        <time>2022-02-20T14:25:56Z</time>
      </trkpt>
      <trkpt lat="42.74449" lon="1.59449">
        <ele>1237.068</ele>
        <time>2022-02-20T14:25:58Z</time>
      </trkpt>
      <trkpt lat="42.74449" lon="1.59446">
        <ele>1236.044</ele>
        <time>2022-02-20T14:26:00Z</time>
      </trkpt>
      <trkpt lat="42.74448" lon="1.59444">
        <ele>1235.286</ele>
        <time>2022-02-20T14:26:02Z</time>
      </trkpt>
      <trkpt lat="42.74447" lon="1.59441">
        <ele>1235.444</ele>
        <time>2022-02-20T14:26:04Z</time>
      </trkpt>
      <trkpt lat="42.74445" lon="1.59438">
        <ele>1234.889</ele>
        <time>2022-02-20T14:26:06Z</time>
      </trkpt>
      <trkpt lat="42.74443" lon="1.59437">
        <ele>1233.567</ele>
        <time>2022-02-20T14:26:08Z</time>
      </trkpt>
      <trkpt lat="42.74442" lon="1.59435">
        <ele>1234.001</ele>
        <time>2022-02-20T14:26:10Z</time>
      </trkpt>
      <trkpt lat="42.7444" lon="1.59433">
        <ele>1234.467</ele>
        <time>2022-02-20T14:26:12Z</time>
      </trkpt>
      <trkpt lat="42.74438" lon="1.59431">
        <ele>1235.025</ele>
        <time>2022-02-20T14:26:14Z</time>
      </trkpt>
      <trkpt lat="42.74436" lon="1.5943">
        <ele>1235.159</ele>
        <time>2022-02-20T14:26:16Z</time>
      </trkpt>
      <trkpt lat="42.74433" lon="1.59429">
        <ele>1234.614</ele>
        <time>2022-02-20T14:26:18Z</time>
      </trkpt>
      <trkpt lat="42.74431" lon="1.59428">
        <ele>1234.178</ele>
        <time>2022-02-20T14:26:20Z</time>
      </trkpt>
      <trkpt lat="42.74429" lon="1.59427">
        <ele>1234.218</ele>
        <time>2022-02-20T14:26:22Z</time>
      </trkpt>
      <trkpt lat="42.74427" lon="1.59425">
        <ele>1234.373</ele>
        <time>2022-02-20T14:26:24Z</time>
      </trkpt>
      <trkpt lat="42.74425" lon="1.59424">
        <ele>1234.026</ele>
        <time>2022-02-20T14:26:26Z</time>
      </trkpt>
      <trkpt lat="42.74423" lon="1.59423">
        <ele>1233.842</ele>
        <time>2022-02-20T14:26:28Z</time>
      </trkpt>
      <trkpt lat="42.7442" lon="1.59422">
        <ele>1235.346</ele>
        <time>2022-02-20T14:26:30Z</time>
      </trkpt>
      <trkpt lat="42.74418" lon="1.59421">
        <ele>1235.133</ele>
        <time>2022-02-20T14:26:32Z</time>
      </trkpt>
      <trkpt lat="42.74415" lon="1.59421">
        <ele>1235.381</ele>
        <time>2022-02-20T14:26:34Z</time>
      </trkpt>
      <trkpt lat="42.74413" lon="1.5942">
        <ele>1236.012</ele>
        <time>2022-02-20T14:26:36Z</time>
      </trkpt>
      <trkpt lat="42.74411" lon="1.59421">
        <ele>1236.77</ele>
        <time>2022-02-20T14:26:38Z</time>
      </trkpt>
      <trkpt lat="42.74409" lon="1.59422">
        <ele>1236.913</ele>
        <time>2022-02-20T14:26:40Z</time>
      </trkpt>
      <trkpt lat="42.74407" lon="1.59423">
        <ele>1237.941</ele>
        <time>2022-02-20T14:26:42Z</time>
      </trkpt>
      <trkpt lat="42.74405" lon="1.59425">
        <ele>1238.376</ele>
        <time>2022-02-20T14:26:44Z</time>
      </trkpt>
      <trkpt lat="42.74404" lon="1.59428">
        <ele>1238.081</ele>
        <time>2022-02-20T14:26:46Z</time>
      </trkpt>
      <trkpt lat="42.74402" lon="1.59429">
        <ele>1237.751</ele>
        <time>2022-02-20T14:26:48Z</time>
      </trkpt>
      <trkpt lat="42.744" lon="1.59431">
        <ele>1237.257</ele>
        <time>2022-02-20T14:26:50Z</time>
      </trkpt>
      <trkpt lat="42.74398" lon="1.59433">
        <ele>1236.052</ele>
        <time>2022-02-20T14:26:52Z</time>
      </trkpt>
      <trkpt lat="42.74396" lon="1.59435">
        <ele>1235.732</ele>
        <time>2022-02-20T14:26:54Z</time>
      </trkpt>
      <trkpt lat="42.74394" lon="1.59437">
        <ele>1235.053</ele>
        <time>2022-02-20T14:26:56Z</time>
      </trkpt>
      <trkpt lat="42.74392" lon="1.59438">
        <ele>1235.419</ele>
        <time>2022-02-20T14:26:58Z</time>
      </trkpt>
      <trkpt lat="42.74389" lon="1.59437">
        <ele>1235.819</ele>
        <time>2022-02-20T14:27:00Z</time>
      </trkpt>
      <trkpt lat="42.74387" lon="1.59436">
        <ele>1236.426</ele>
        <time>2022-02-20T14:27:02Z</time>
      </trkpt>
      <trkpt lat="42.74386" lon="1.59434">
        <ele>1236.363</ele>
        <time>2022-02-20T14:27:04Z</time>
      </trkpt>
      <trkpt lat="42.74384" lon="1.59432">
        <ele>1236.369</ele>
        <time>2022-02-20T14:27:06Z</time>
      </trkpt>
      <trkpt lat="42.74384" lon="1.5943">
        <ele>1236.502</ele>
        <time>2022-02-20T14:27:08Z</time>
      </trkpt>
      <trkpt lat="42.74383" lon="1.59428">
        <ele>1236.25</ele>
        <time>2022-02-20T14:27:10Z</time>
      </trkpt>
      <trkpt lat="42.74382" lon="1.59426">
        <ele>1236</ele>
        <time>2022-02-20T14:27:12Z</time>
      </trkpt>
      <trkpt lat="42.74382" lon="1.59424">
        <ele>1236.132</ele>
        <time>2022-02-20T14:27:14Z</time>
      </trkpt>
      <trkpt lat="42.74382" lon="1.59421">
        <ele>1235.508</ele>
        <time>2022-02-20T14:27:16Z</time>
      </trkpt>
      <trkpt lat="42.74382" lon="1.59419">
        <ele>1234.455</ele>
        <time>2022-02-20T14:27:18Z</time>
      </trkpt>
      <trkpt lat="42.74383" lon="1.59417">
        <ele>1233.041</ele>
        <time>2022-02-20T14:27:20Z</time>
      </trkpt>
      <trkpt lat="42.74384" lon="1.59415">
        <ele>1232.119</ele>
        <time>2022-02-20T14:27:22Z</time>
      </trkpt>
      <trkpt lat="42.74384" lon="1.59413">
        <ele>1231.138</ele>
        <time>2022-02-20T14:27:24Z</time>
      </trkpt>
      <trkpt lat="42.74385" lon="1.59411">
        <ele>1230.875</ele>
        <time>2022-02-20T14:27:26Z</time>
      </trkpt>
      <trkpt lat="42.74385" lon="1.59409">
        <ele>1230.541</ele>
        <time>2022-02-20T14:27:28Z</time>
      </trkpt>
      <trkpt lat="42.74386" lon="1.59406">
        <ele>1230.059</ele>
        <time>2022-02-20T14:27:30Z</time>
      </trkpt>
      <trkpt lat="42.74385" lon="1.59404">
        <ele>1229.176</ele>
        <time>2022-02-20T14:27:32Z</time>
      </trkpt>
      <trkpt lat="42.74385" lon="1.59401">
        <ele>1228.819</ele>
        <time>2022-02-20T14:27:34Z</time>
      </trkpt>
      <trkpt lat="42.74386" lon="1.59398">
        <ele>1228.995</ele>
        <time>2022-02-20T14:27:36Z</time>
      </trkpt>
      <trkpt lat="42.74385" lon="1.59396">
        <ele>1229.326</ele>
        <time>2022-02-20T14:27:38Z</time>
      </trkpt>
      <trkpt lat="42.74385" lon="1.59393">
        <ele>1228.554</ele>
        <time>2022-02-20T14:27:40Z</time>
      </trkpt>
      <trkpt lat="42.74385" lon="1.59391">
        <ele>1228.947</ele>
        <time>2022-02-20T14:27:42Z</time>
      </trkpt>
      <trkpt lat="42.74385" lon="1.59388">
        <ele>1227.837</ele>
        <time>2022-02-20T14:27:44Z</time>
      </trkpt>
      <trkpt lat="42.74384" lon="1.59386">
        <ele>1227.335</ele>
        <time>2022-02-20T14:27:46Z</time>
      </trkpt>
      <trkpt lat="42.74384" lon="1.59383">
        <ele>1228.487</ele>
        <time>2022-02-20T14:27:48Z</time>
      </trkpt>
      <trkpt lat="42.74383" lon="1.5938">
        <ele>1226.785</ele>
        <time>2022-02-20T14:27:50Z</time>
      </trkpt>
      <trkpt lat="42.74382" lon="1.59377">
        <ele>1226.642</ele>
        <time>2022-02-20T14:27:52Z</time>
      </trkpt>
      <trkpt lat="42.74382" lon="1.59375">
        <ele>1226.172</ele>
        <time>2022-02-20T14:27:54Z</time>
      </trkpt>
      <trkpt lat="42.74381" lon="1.59372">
        <ele>1225.039</ele>
        <time>2022-02-20T14:27:56Z</time>
      </trkpt>
      <trkpt lat="42.74381" lon="1.59369">
        <ele>1223.884</ele>
        <time>2022-02-20T14:27:58Z</time>
      </trkpt>
      <trkpt lat="42.74381" lon="1.59366">
        <ele>1223.337</ele>
        <time>2022-02-20T14:28:00Z</time>
      </trkpt>
      <trkpt lat="42.74381" lon="1.59363">
        <ele>1222.611</ele>
        <time>2022-02-20T14:28:02Z</time>
      </trkpt>
      <trkpt lat="42.74381" lon="1.5936">
        <ele>1221.948</ele>
        <time>2022-02-20T14:28:04Z</time>
      </trkpt>
      <trkpt lat="42.74381" lon="1.59357">
        <ele>1220.878</ele>
        <time>2022-02-20T14:28:06Z</time>
      </trkpt>
      <trkpt lat="42.74382" lon="1.59353">
        <ele>1220.129</ele>
        <time>2022-02-20T14:28:08Z</time>
      </trkpt>
      <trkpt lat="42.74382" lon="1.5935">
        <ele>1219.548</ele>
        <time>2022-02-20T14:28:10Z</time>
      </trkpt>
      <trkpt lat="42.74383" lon="1.59347">
        <ele>1218.763</ele>
        <time>2022-02-20T14:28:12Z</time>
      </trkpt>
      <trkpt lat="42.74384" lon="1.59344">
        <ele>1218.271</ele>
        <time>2022-02-20T14:28:14Z</time>
      </trkpt>
      <trkpt lat="42.74385" lon="1.59342">
        <ele>1217.054</ele>
        <time>2022-02-20T14:28:16Z</time>
      </trkpt>
      <trkpt lat="42.74387" lon="1.59339">
        <ele>1216.595</ele>
        <time>2022-02-20T14:28:18Z</time>
      </trkpt>
      <trkpt lat="42.74388" lon="1.59336">
        <ele>1215.688</ele>
        <time>2022-02-20T14:28:20Z</time>
      </trkpt>
      <trkpt lat="42.74389" lon="1.59334">
        <ele>1214.74</ele>
        <time>2022-02-20T14:28:22Z</time>
      </trkpt>
      <trkpt lat="42.74391" lon="1.59332">
        <ele>1214.062</ele>
        <time>2022-02-20T14:28:24Z</time>
      </trkpt>
      <trkpt lat="42.74392" lon="1.59329">
        <ele>1213.47</ele>
        <time>2022-02-20T14:28:26Z</time>
      </trkpt>
      <trkpt lat="42.74394" lon="1.59327">
        <ele>1214.263</ele>
        <time>2022-02-20T14:28:28Z</time>
      </trkpt>
      <trkpt lat="42.74396" lon="1.59325">
        <ele>1214.846</ele>
        <time>2022-02-20T14:28:30Z</time>
      </trkpt>
      <trkpt lat="42.74398" lon="1.59323">
        <ele>1214.661</ele>
        <time>2022-02-20T14:28:32Z</time>
      </trkpt>
      <trkpt lat="42.744" lon="1.5932">
        <ele>1214.888</ele>
        <time>2022-02-20T14:28:34Z</time>
      </trkpt>
      <trkpt lat="42.74401" lon="1.59317">
        <ele>1215.443</ele>
        <time>2022-02-20T14:28:36Z</time>
      </trkpt>
      <trkpt lat="42.74403" lon="1.59315">
        <ele>1215.725</ele>
        <time>2022-02-20T14:28:38Z</time>
      </trkpt>
      <trkpt lat="42.74404" lon="1.59313">
        <ele>1215.633</ele>
        <time>2022-02-20T14:28:40Z</time>
      </trkpt>
      <trkpt lat="42.74406" lon="1.59311">
        <ele>1215.526</ele>
        <time>2022-02-20T14:28:42Z</time>
      </trkpt>
      <trkpt lat="42.74407" lon="1.59308">
        <ele>1215.022</ele>
        <time>2022-02-20T14:28:44Z</time>
      </trkpt>
      <trkpt lat="42.74408" lon="1.59305">
        <ele>1214.547</ele>
        <time>2022-02-20T14:28:46Z</time>
      </trkpt>
      <trkpt lat="42.74409" lon="1.59303">
        <ele>1214.215</ele>
        <time>2022-02-20T14:28:48Z</time>
      </trkpt>
      <trkpt lat="42.74409" lon="1.593">
        <ele>1213.925</ele>
        <time>2022-02-20T14:28:50Z</time>
      </trkpt>
      <trkpt lat="42.7441" lon="1.59297">
        <ele>1213.671</ele>
        <time>2022-02-20T14:28:52Z</time>
      </trkpt>
      <trkpt lat="42.74411" lon="1.59294">
        <ele>1213.102</ele>
        <time>2022-02-20T14:28:54Z</time>
      </trkpt>
      <trkpt lat="42.74412" lon="1.59292">
        <ele>1212.721</ele>
        <time>2022-02-20T14:28:56Z</time>
      </trkpt>
      <trkpt lat="42.74413" lon="1.59289">
        <ele>1211.316</ele>
        <time>2022-02-20T14:28:58Z</time>
      </trkpt>
      <trkpt lat="42.74414" lon="1.59287">
        <ele>1211.012</ele>
        <time>2022-02-20T14:29:00Z</time>
      </trkpt>
      <trkpt lat="42.74416" lon="1.59285">
        <ele>1210.163</ele>
        <time>2022-02-20T14:29:02Z</time>
      </trkpt>
      <trkpt lat="42.74418" lon="1.59282">
        <ele>1209.474</ele>
        <time>2022-02-20T14:29:04Z</time>
      </trkpt>
      <trkpt lat="42.74419" lon="1.59279">
        <ele>1209.457</ele>
        <time>2022-02-20T14:29:06Z</time>
      </trkpt>
      <trkpt lat="42.7442" lon="1.59276">
        <ele>1209.893</ele>
        <time>2022-02-20T14:29:08Z</time>
      </trkpt>
      <trkpt lat="42.74422" lon="1.59273">
        <ele>1209.74</ele>
        <time>2022-02-20T14:29:10Z</time>
      </trkpt>
      <trkpt lat="42.74423" lon="1.59271">
        <ele>1210.401</ele>
        <time>2022-02-20T14:29:12Z</time>
      </trkpt>
      <trkpt lat="42.74425" lon="1.59268">
        <ele>1210.707</ele>
        <time>2022-02-20T14:29:14Z</time>
      </trkpt>
      <trkpt lat="42.74427" lon="1.59266">
        <ele>1210.745</ele>
        <time>2022-02-20T14:29:16Z</time>
      </trkpt>
      <trkpt lat="42.74429" lon="1.59263">
        <ele>1210.885</ele>
        <time>2022-02-20T14:29:18Z</time>
      </trkpt>
      <trkpt lat="42.7443" lon="1.59261">
        <ele>1211.609</ele>
        <time>2022-02-20T14:29:20Z</time>
      </trkpt>
      <trkpt lat="42.74432" lon="1.59257">
        <ele>1211.253</ele>
        <time>2022-02-20T14:29:22Z</time>
      </trkpt>
      <trkpt lat="42.74434" lon="1.59254">
        <ele>1211.414</ele>
        <time>2022-02-20T14:29:24Z</time>
      </trkpt>
      <trkpt lat="42.74435" lon="1.59251">
        <ele>1211.468</ele>
        <time>2022-02-20T14:29:26Z</time>
      </trkpt>
      <trkpt lat="42.74437" lon="1.59249">
        <ele>1211.31</ele>
        <time>2022-02-20T14:29:28Z</time>
      </trkpt>
      <trkpt lat="42.74439" lon="1.59247">
        <ele>1211.46</ele>
        <time>2022-02-20T14:29:30Z</time>
      </trkpt>
      <trkpt lat="42.7444" lon="1.59244">
        <ele>1211.85</ele>
        <time>2022-02-20T14:29:32Z</time>
      </trkpt>
      <trkpt lat="42.74442" lon="1.59242">
        <ele>1211.03</ele>
        <time>2022-02-20T14:29:34Z</time>
      </trkpt>
      <trkpt lat="42.74443" lon="1.59239">
        <ele>1210.587</ele>
        <time>2022-02-20T14:29:36Z</time>
      </trkpt>
      <trkpt lat="42.74444" lon="1.59236">
        <ele>1210.074</ele>
        <time>2022-02-20T14:29:38Z</time>
      </trkpt>
      <trkpt lat="42.74446" lon="1.59234">
        <ele>1209.966</ele>
        <time>2022-02-20T14:29:40Z</time>
      </trkpt>
      <trkpt lat="42.74447" lon="1.59231">
        <ele>1208.999</ele>
        <time>2022-02-20T14:29:42Z</time>
      </trkpt>
      <trkpt lat="42.74448" lon="1.59228">
        <ele>1207.846</ele>
        <time>2022-02-20T14:29:44Z</time>
      </trkpt>
      <trkpt lat="42.74449" lon="1.59225">
        <ele>1207.081</ele>
        <time>2022-02-20T14:29:46Z</time>
      </trkpt>
      <trkpt lat="42.7445" lon="1.59221">
        <ele>1206.57</ele>
        <time>2022-02-20T14:29:48Z</time>
      </trkpt>
      <trkpt lat="42.74451" lon="1.59218">
        <ele>1206.308</ele>
        <time>2022-02-20T14:29:50Z</time>
      </trkpt>
      <trkpt lat="42.74452" lon="1.59215">
        <ele>1205.977</ele>
        <time>2022-02-20T14:29:52Z</time>
      </trkpt>
      <trkpt lat="42.74453" lon="1.59212">
        <ele>1205.085</ele>
        <time>2022-02-20T14:29:54Z</time>
      </trkpt>
      <trkpt lat="42.74453" lon="1.59209">
        <ele>1204.492</ele>
        <time>2022-02-20T14:29:56Z</time>
      </trkpt>
      <trkpt lat="42.74454" lon="1.59206">
        <ele>1203.533</ele>
        <time>2022-02-20T14:29:58Z</time>
      </trkpt>
      <trkpt lat="42.74455" lon="1.59203">
        <ele>1203.183</ele>
        <time>2022-02-20T14:30:00Z</time>
      </trkpt>
      <trkpt lat="42.74456" lon="1.592">
        <ele>1202.757</ele>
        <time>2022-02-20T14:30:02Z</time>
      </trkpt>
      <trkpt lat="42.74456" lon="1.59197">
        <ele>1202.686</ele>
        <time>2022-02-20T14:30:04Z</time>
      </trkpt>
      <trkpt lat="42.74457" lon="1.59194">
        <ele>1201.53</ele>
        <time>2022-02-20T14:30:06Z</time>
      </trkpt>
      <trkpt lat="42.74457" lon="1.59191">
        <ele>1201.436</ele>
        <time>2022-02-20T14:30:08Z</time>
      </trkpt>
      <trkpt lat="42.74458" lon="1.59188">
        <ele>1202.024</ele>
        <time>2022-02-20T14:30:10Z</time>
      </trkpt>
      <trkpt lat="42.74459" lon="1.59185">
        <ele>1201.288</ele>
        <time>2022-02-20T14:30:12Z</time>
      </trkpt>
      <trkpt lat="42.7446" lon="1.59182">
        <ele>1200.671</ele>
        <time>2022-02-20T14:30:14Z</time>
      </trkpt>
      <trkpt lat="42.74461" lon="1.5918">
        <ele>1199.71</ele>
        <time>2022-02-20T14:30:16Z</time>
      </trkpt>
      <trkpt lat="42.74462" lon="1.59176">
        <ele>1198.966</ele>
        <time>2022-02-20T14:30:18Z</time>
      </trkpt>
      <trkpt lat="42.74463" lon="1.59173">
        <ele>1198.315</ele>
        <time>2022-02-20T14:30:20Z</time>
      </trkpt>
      <trkpt lat="42.74464" lon="1.5917">
        <ele>1198.297</ele>
        <time>2022-02-20T14:30:22Z</time>
      </trkpt>
      <trkpt lat="42.74465" lon="1.59167">
        <ele>1197.852</ele>
        <time>2022-02-20T14:30:24Z</time>
      </trkpt>
      <trkpt lat="42.74466" lon="1.59164">
        <ele>1197.485</ele>
        <time>2022-02-20T14:30:26Z</time>
      </trkpt>
      <trkpt lat="42.74466" lon="1.59161">
        <ele>1198.523</ele>
        <time>2022-02-20T14:30:28Z</time>
      </trkpt>
      <trkpt lat="42.74467" lon="1.59158">
        <ele>1197.947</ele>
        <time>2022-02-20T14:30:30Z</time>
      </trkpt>
      <trkpt lat="42.74468" lon="1.59155">
        <ele>1197.765</ele>
        <time>2022-02-20T14:30:32Z</time>
      </trkpt>
      <trkpt lat="42.74468" lon="1.59153">
        <ele>1198.658</ele>
        <time>2022-02-20T14:30:34Z</time>
      </trkpt>
      <trkpt lat="42.74469" lon="1.5915">
        <ele>1197.987</ele>
        <time>2022-02-20T14:30:36Z</time>
      </trkpt>
      <trkpt lat="42.7447" lon="1.59148">
        <ele>1197.891</ele>
        <time>2022-02-20T14:30:38Z</time>
      </trkpt>
      <trkpt lat="42.74471" lon="1.59145">
        <ele>1197.15</ele>
        <time>2022-02-20T14:30:40Z</time>
      </trkpt>
      <trkpt lat="42.74472" lon="1.59143">
        <ele>1196.103</ele>
        <time>2022-02-20T14:30:42Z</time>
      </trkpt>
      <trkpt lat="42.74473" lon="1.59141">
        <ele>1195.189</ele>
        <time>2022-02-20T14:30:44Z</time>
      </trkpt>
      <trkpt lat="42.74475" lon="1.59139">
        <ele>1193.72</ele>
        <time>2022-02-20T14:30:46Z</time>
      </trkpt>
      <trkpt lat="42.74476" lon="1.59136">
        <ele>1193.496</ele>
        <time>2022-02-20T14:30:48Z</time>
      </trkpt>
      <trkpt lat="42.74478" lon="1.59133">
        <ele>1193.306</ele>
        <time>2022-02-20T14:30:50Z</time>
      </trkpt>
      <trkpt lat="42.74479" lon="1.59131">
        <ele>1192.592</ele>
        <time>2022-02-20T14:30:52Z</time>
      </trkpt>
      <trkpt lat="42.7448" lon="1.59128">
        <ele>1191.621</ele>
        <time>2022-02-20T14:30:54Z</time>
      </trkpt>
      <trkpt lat="42.74481" lon="1.59126">
        <ele>1191.227</ele>
        <time>2022-02-20T14:30:56Z</time>
      </trkpt>
      <trkpt lat="42.74482" lon="1.59123">
        <ele>1191.138</ele>
        <time>2022-02-20T14:30:58Z</time>
      </trkpt>
      <trkpt lat="42.74483" lon="1.5912">
        <ele>1190.626</ele>
        <time>2022-02-20T14:31:00Z</time>
      </trkpt>
      <trkpt lat="42.74485" lon="1.59118">
        <ele>1190.127</ele>
        <time>2022-02-20T14:31:02Z</time>
      </trkpt>
      <trkpt lat="42.74485" lon="1.59114">
        <ele>1190.577</ele>
        <time>2022-02-20T14:31:04Z</time>
      </trkpt>
      <trkpt lat="42.74486" lon="1.59112">
        <ele>1191.043</ele>
        <time>2022-02-20T14:31:06Z</time>
      </trkpt>
      <trkpt lat="42.74487" lon="1.59108">
        <ele>1191.059</ele>
        <time>2022-02-20T14:31:08Z</time>
      </trkpt>
      <trkpt lat="42.74488" lon="1.59106">
        <ele>1190.574</ele>
        <time>2022-02-20T14:31:10Z</time>
      </trkpt>
      <trkpt lat="42.74489" lon="1.59103">
        <ele>1190.062</ele>
        <time>2022-02-20T14:31:12Z</time>
      </trkpt>
      <trkpt lat="42.7449" lon="1.591">
        <ele>1189.905</ele>
        <time>2022-02-20T14:31:14Z</time>
      </trkpt>
      <trkpt lat="42.74491" lon="1.59097">
        <ele>1189.496</ele>
        <time>2022-02-20T14:31:16Z</time>
      </trkpt>
      <trkpt lat="42.74492" lon="1.59094">
        <ele>1189.842</ele>
        <time>2022-02-20T14:31:18Z</time>
      </trkpt>
      <trkpt lat="42.74494" lon="1.59091">
        <ele>1189.642</ele>
        <time>2022-02-20T14:31:20Z</time>
      </trkpt>
      <trkpt lat="42.74495" lon="1.59088">
        <ele>1189.319</ele>
        <time>2022-02-20T14:31:22Z</time>
      </trkpt>
      <trkpt lat="42.74496" lon="1.59085">
        <ele>1189.366</ele>
        <time>2022-02-20T14:31:24Z</time>
      </trkpt>
      <trkpt lat="42.74497" lon="1.59083">
        <ele>1188.523</ele>
        <time>2022-02-20T14:31:26Z</time>
      </trkpt>
      <trkpt lat="42.74498" lon="1.5908">
        <ele>1188.627</ele>
        <time>2022-02-20T14:31:28Z</time>
      </trkpt>
      <trkpt lat="42.74499" lon="1.59077">
        <ele>1188.433</ele>
        <time>2022-02-20T14:31:30Z</time>
      </trkpt>
      <trkpt lat="42.74501" lon="1.59075">
        <ele>1188.784</ele>
        <time>2022-02-20T14:31:32Z</time>
      </trkpt>
      <trkpt lat="42.74502" lon="1.59073">
        <ele>1188.539</ele>
        <time>2022-02-20T14:31:34Z</time>
      </trkpt>
      <trkpt lat="42.74503" lon="1.59069">
        <ele>1188.351</ele>
        <time>2022-02-20T14:31:36Z</time>
      </trkpt>
      <trkpt lat="42.74504" lon="1.59066">
        <ele>1187.749</ele>
        <time>2022-02-20T14:31:38Z</time>
      </trkpt>
      <trkpt lat="42.74505" lon="1.59063">
        <ele>1187.012</ele>
        <time>2022-02-20T14:31:40Z</time>
      </trkpt>
      <trkpt lat="42.74507" lon="1.59061">
        <ele>1187.163</ele>
        <time>2022-02-20T14:31:42Z</time>
      </trkpt>
      <trkpt lat="42.74508" lon="1.59058">
        <ele>1186.913</ele>
        <time>2022-02-20T14:31:44Z</time>
      </trkpt>
      <trkpt lat="42.74509" lon="1.59055">
        <ele>1187.384</ele>
        <time>2022-02-20T14:31:46Z</time>
      </trkpt>
      <trkpt lat="42.7451" lon="1.59052">
        <ele>1187.883</ele>
        <time>2022-02-20T14:31:48Z</time>
      </trkpt>
      <trkpt lat="42.7451" lon="1.59048">
        <ele>1189.261</ele>
        <time>2022-02-20T14:31:50Z</time>
      </trkpt>
      <trkpt lat="42.74512" lon="1.59046">
        <ele>1188.216</ele>
        <time>2022-02-20T14:31:52Z</time>
      </trkpt>
      <trkpt lat="42.74512" lon="1.59042">
        <ele>1187.516</ele>
        <time>2022-02-20T14:31:54Z</time>
      </trkpt>
      <trkpt lat="42.74513" lon="1.5904">
        <ele>1186.539</ele>
        <time>2022-02-20T14:31:56Z</time>
      </trkpt>
      <trkpt lat="42.74515" lon="1.59037">
        <ele>1185.763</ele>
        <time>2022-02-20T14:31:58Z</time>
      </trkpt>
      <trkpt lat="42.74516" lon="1.59034">
        <ele>1185.397</ele>
        <time>2022-02-20T14:32:00Z</time>
      </trkpt>
      <trkpt lat="42.74517" lon="1.59031">
        <ele>1184.779</ele>
        <time>2022-02-20T14:32:02Z</time>
      </trkpt>
      <trkpt lat="42.74518" lon="1.59028">
        <ele>1183.952</ele>
        <time>2022-02-20T14:32:04Z</time>
      </trkpt>
      <trkpt lat="42.74519" lon="1.59025">
        <ele>1183.573</ele>
        <time>2022-02-20T14:32:06Z</time>
      </trkpt>
      <trkpt lat="42.7452" lon="1.59022">
        <ele>1183.686</ele>
        <time>2022-02-20T14:32:08Z</time>
      </trkpt>
      <trkpt lat="42.7452" lon="1.59019">
        <ele>1182.964</ele>
        <time>2022-02-20T14:32:10Z</time>
      </trkpt>
      <trkpt lat="42.74521" lon="1.59016">
        <ele>1183.083</ele>
        <time>2022-02-20T14:32:12Z</time>
      </trkpt>
      <trkpt lat="42.74522" lon="1.59013">
        <ele>1182.138</ele>
        <time>2022-02-20T14:32:14Z</time>
      </trkpt>
      <trkpt lat="42.74523" lon="1.5901">
        <ele>1181.075</ele>
        <time>2022-02-20T14:32:16Z</time>
      </trkpt>
      <trkpt lat="42.74524" lon="1.59007">
        <ele>1180.497</ele>
        <time>2022-02-20T14:32:18Z</time>
      </trkpt>
      <trkpt lat="42.74525" lon="1.59005">
        <ele>1180.322</ele>
        <time>2022-02-20T14:32:20Z</time>
      </trkpt>
      <trkpt lat="42.74527" lon="1.59002">
        <ele>1180.279</ele>
        <time>2022-02-20T14:32:22Z</time>
      </trkpt>
      <trkpt lat="42.74527" lon="1.58999">
        <ele>1179.92</ele>
        <time>2022-02-20T14:32:24Z</time>
      </trkpt>
      <trkpt lat="42.74529" lon="1.58996">
        <ele>1179.759</ele>
        <time>2022-02-20T14:32:26Z</time>
      </trkpt>
      <trkpt lat="42.74529" lon="1.58993">
        <ele>1180.239</ele>
        <time>2022-02-20T14:32:28Z</time>
      </trkpt>
      <trkpt lat="42.74531" lon="1.5899">
        <ele>1178.524</ele>
        <time>2022-02-20T14:32:30Z</time>
      </trkpt>
      <trkpt lat="42.74532" lon="1.58987">
        <ele>1177.831</ele>
        <time>2022-02-20T14:32:32Z</time>
      </trkpt>
      <trkpt lat="42.74533" lon="1.58985">
        <ele>1177.578</ele>
        <time>2022-02-20T14:32:34Z</time>
      </trkpt>
      <trkpt lat="42.74534" lon="1.58981">
        <ele>1177.028</ele>
        <time>2022-02-20T14:32:36Z</time>
      </trkpt>
      <trkpt lat="42.74535" lon="1.58978">
        <ele>1176.527</ele>
        <time>2022-02-20T14:32:38Z</time>
      </trkpt>
      <trkpt lat="42.74536" lon="1.58975">
        <ele>1176.683</ele>
        <time>2022-02-20T14:32:40Z</time>
      </trkpt>
      <trkpt lat="42.74537" lon="1.58972">
        <ele>1176.775</ele>
        <time>2022-02-20T14:32:42Z</time>
      </trkpt>
      <trkpt lat="42.74538" lon="1.58969">
        <ele>1176.502</ele>
        <time>2022-02-20T14:32:44Z</time>
      </trkpt>
      <trkpt lat="42.74539" lon="1.58966">
        <ele>1176.659</ele>
        <time>2022-02-20T14:32:46Z</time>
      </trkpt>
      <trkpt lat="42.7454" lon="1.58963">
        <ele>1176.641</ele>
        <time>2022-02-20T14:32:48Z</time>
      </trkpt>
      <trkpt lat="42.74541" lon="1.5896">
        <ele>1176.045</ele>
        <time>2022-02-20T14:32:50Z</time>
      </trkpt>
      <trkpt lat="42.74542" lon="1.58958">
        <ele>1175.519</ele>
        <time>2022-02-20T14:32:52Z</time>
      </trkpt>
      <trkpt lat="42.74543" lon="1.58955">
        <ele>1175.501</ele>
        <time>2022-02-20T14:32:54Z</time>
      </trkpt>
      <trkpt lat="42.74544" lon="1.58952">
        <ele>1175.067</ele>
        <time>2022-02-20T14:32:56Z</time>
      </trkpt>
      <trkpt lat="42.74545" lon="1.58948">
        <ele>1175.227</ele>
        <time>2022-02-20T14:32:58Z</time>
      </trkpt>
      <trkpt lat="42.74546" lon="1.58945">
        <ele>1175.024</ele>
        <time>2022-02-20T14:33:00Z</time>
      </trkpt>
      <trkpt lat="42.74548" lon="1.58942">
        <ele>1173.946</ele>
        <time>2022-02-20T14:33:02Z</time>
      </trkpt>
      <trkpt lat="42.74549" lon="1.5894">
        <ele>1173.964</ele>
        <time>2022-02-20T14:33:04Z</time>
      </trkpt>
      <trkpt lat="42.7455" lon="1.58936">
        <ele>1173.378</ele>
        <time>2022-02-20T14:33:06Z</time>
      </trkpt>
      <trkpt lat="42.7455" lon="1.58933">
        <ele>1175.302</ele>
        <time>2022-02-20T14:33:08Z</time>
      </trkpt>
      <trkpt lat="42.74551" lon="1.5893">
        <ele>1173.85</ele>
        <time>2022-02-20T14:33:10Z</time>
      </trkpt>
      <trkpt lat="42.74553" lon="1.58927">
        <ele>1173.826</ele>
        <time>2022-02-20T14:33:12Z</time>
      </trkpt>
      <trkpt lat="42.74554" lon="1.58924">
        <ele>1173.928</ele>
        <time>2022-02-20T14:33:14Z</time>
      </trkpt>
      <trkpt lat="42.74555" lon="1.58921">
        <ele>1172.781</ele>
        <time>2022-02-20T14:33:16Z</time>
      </trkpt>
      <trkpt lat="42.74556" lon="1.58917">
        <ele>1172.679</ele>
        <time>2022-02-20T14:33:18Z</time>
      </trkpt>
      <trkpt lat="42.74557" lon="1.58914">
        <ele>1171.537</ele>
        <time>2022-02-20T14:33:20Z</time>
      </trkpt>
      <trkpt lat="42.74558" lon="1.58911">
        <ele>1171.964</ele>
        <time>2022-02-20T14:33:22Z</time>
      </trkpt>
      <trkpt lat="42.74559" lon="1.58908">
        <ele>1172.179</ele>
        <time>2022-02-20T14:33:24Z</time>
      </trkpt>
      <trkpt lat="42.74559" lon="1.58904">
        <ele>1171.685</ele>
        <time>2022-02-20T14:33:26Z</time>
      </trkpt>
      <trkpt lat="42.7456" lon="1.589">
        <ele>1172.677</ele>
        <time>2022-02-20T14:33:28Z</time>
      </trkpt>
      <trkpt lat="42.74561" lon="1.58897">
        <ele>1171.86</ele>
        <time>2022-02-20T14:33:30Z</time>
      </trkpt>
      <trkpt lat="42.74562" lon="1.58893">
        <ele>1171.858</ele>
        <time>2022-02-20T14:33:32Z</time>
      </trkpt>
      <trkpt lat="42.74562" lon="1.5889">
        <ele>1172.439</ele>
        <time>2022-02-20T14:33:34Z</time>
      </trkpt>
      <trkpt lat="42.74563" lon="1.58886">
        <ele>1171.877</ele>
        <time>2022-02-20T14:33:36Z</time>
      </trkpt>
      <trkpt lat="42.74564" lon="1.58883">
        <ele>1171.868</ele>
        <time>2022-02-20T14:33:38Z</time>
      </trkpt>
      <trkpt lat="42.74565" lon="1.58879">
        <ele>1172.001</ele>
        <time>2022-02-20T14:33:40Z</time>
      </trkpt>
      <trkpt lat="42.74565" lon="1.58876">
        <ele>1172.384</ele>
        <time>2022-02-20T14:33:42Z</time>
      </trkpt>
      <trkpt lat="42.74565" lon="1.58872">
        <ele>1172.808</ele>
        <time>2022-02-20T14:33:44Z</time>
      </trkpt>
      <trkpt lat="42.74566" lon="1.58869">
        <ele>1172.856</ele>
        <time>2022-02-20T14:33:46Z</time>
      </trkpt>
      <trkpt lat="42.74567" lon="1.58866">
        <ele>1172.988</ele>
        <time>2022-02-20T14:33:48Z</time>
      </trkpt>
      <trkpt lat="42.74568" lon="1.58862">
        <ele>1172.379</ele>
        <time>2022-02-20T14:33:50Z</time>
      </trkpt>
      <trkpt lat="42.74567" lon="1.58859">
        <ele>1174.096</ele>
        <time>2022-02-20T14:33:52Z</time>
      </trkpt>
      <trkpt lat="42.74568" lon="1.58855">
        <ele>1173.392</ele>
        <time>2022-02-20T14:33:54Z</time>
      </trkpt>
      <trkpt lat="42.74568" lon="1.58851">
        <ele>1174.056</ele>
        <time>2022-02-20T14:33:56Z</time>
      </trkpt>
      <trkpt lat="42.74569" lon="1.58846">
        <ele>1174.991</ele>
        <time>2022-02-20T14:33:59Z</time>
      </trkpt>
      <trkpt lat="42.74569" lon="1.58842">
        <ele>1174.199</ele>
        <time>2022-02-20T14:34:01Z</time>
      </trkpt>
      <trkpt lat="42.74569" lon="1.58838">
        <ele>1173.729</ele>
        <time>2022-02-20T14:34:03Z</time>
      </trkpt>
      <trkpt lat="42.74569" lon="1.58834">
        <ele>1174.346</ele>
        <time>2022-02-20T14:34:05Z</time>
      </trkpt>
      <trkpt lat="42.7457" lon="1.5883">
        <ele>1172.714</ele>
        <time>2022-02-20T14:34:07Z</time>
      </trkpt>
      <trkpt lat="42.7457" lon="1.58827">
        <ele>1171.534</ele>
        <time>2022-02-20T14:34:09Z</time>
      </trkpt>
      <trkpt lat="42.74571" lon="1.58823">
        <ele>1170.976</ele>
        <time>2022-02-20T14:34:11Z</time>
      </trkpt>
      <trkpt lat="42.74571" lon="1.58819">
        <ele>1170.744</ele>
        <time>2022-02-20T14:34:13Z</time>
      </trkpt>
      <trkpt lat="42.74572" lon="1.58816">
        <ele>1171.266</ele>
        <time>2022-02-20T14:34:15Z</time>
      </trkpt>
      <trkpt lat="42.74573" lon="1.58812">
        <ele>1172.09</ele>
        <time>2022-02-20T14:34:17Z</time>
      </trkpt>
      <trkpt lat="42.74573" lon="1.58808">
        <ele>1171.916</ele>
        <time>2022-02-20T14:34:19Z</time>
      </trkpt>
      <trkpt lat="42.74574" lon="1.58804">
        <ele>1171.5</ele>
        <time>2022-02-20T14:34:21Z</time>
      </trkpt>
      <trkpt lat="42.74575" lon="1.58801">
        <ele>1170.702</ele>
        <time>2022-02-20T14:34:23Z</time>
      </trkpt>
      <trkpt lat="42.74575" lon="1.58797">
        <ele>1170.185</ele>
        <time>2022-02-20T14:34:25Z</time>
      </trkpt>
      <trkpt lat="42.74576" lon="1.58793">
        <ele>1170.013</ele>
        <time>2022-02-20T14:34:27Z</time>
      </trkpt>
      <trkpt lat="42.74576" lon="1.58789">
        <ele>1169.713</ele>
        <time>2022-02-20T14:34:29Z</time>
      </trkpt>
      <trkpt lat="42.74577" lon="1.58784">
        <ele>1170.013</ele>
        <time>2022-02-20T14:34:31Z</time>
      </trkpt>
      <trkpt lat="42.74578" lon="1.5878">
        <ele>1170.301</ele>
        <time>2022-02-20T14:34:33Z</time>
      </trkpt>
      <trkpt lat="42.74578" lon="1.58777">
        <ele>1168.836</ele>
        <time>2022-02-20T14:34:35Z</time>
      </trkpt>
      <trkpt lat="42.74579" lon="1.58774">
        <ele>1169.334</ele>
        <time>2022-02-20T14:34:37Z</time>
      </trkpt>
      <trkpt lat="42.7458" lon="1.58771">
        <ele>1168.998</ele>
        <time>2022-02-20T14:34:39Z</time>
      </trkpt>
      <trkpt lat="42.74581" lon="1.58768">
        <ele>1168.467</ele>
        <time>2022-02-20T14:34:41Z</time>
      </trkpt>
      <trkpt lat="42.74582" lon="1.58765">
        <ele>1168.706</ele>
        <time>2022-02-20T14:34:43Z</time>
      </trkpt>
      <trkpt lat="42.74583" lon="1.58762">
        <ele>1169.02</ele>
        <time>2022-02-20T14:34:45Z</time>
      </trkpt>
      <trkpt lat="42.74584" lon="1.5876">
        <ele>1168.906</ele>
        <time>2022-02-20T14:34:47Z</time>
      </trkpt>
      <trkpt lat="42.74586" lon="1.58757">
        <ele>1168.274</ele>
        <time>2022-02-20T14:34:49Z</time>
      </trkpt>
      <trkpt lat="42.74587" lon="1.58754">
        <ele>1167.47</ele>
        <time>2022-02-20T14:34:51Z</time>
      </trkpt>
      <trkpt lat="42.74588" lon="1.58752">
        <ele>1168.105</ele>
        <time>2022-02-20T14:34:53Z</time>
      </trkpt>
      <trkpt lat="42.7459" lon="1.58749">
        <ele>1167.427</ele>
        <time>2022-02-20T14:34:55Z</time>
      </trkpt>
      <trkpt lat="42.74592" lon="1.58747">
        <ele>1166.968</ele>
        <time>2022-02-20T14:34:57Z</time>
      </trkpt>
      <trkpt lat="42.74593" lon="1.58744">
        <ele>1167.364</ele>
        <time>2022-02-20T14:34:59Z</time>
      </trkpt>
      <trkpt lat="42.74596" lon="1.58742">
        <ele>1166.981</ele>
        <time>2022-02-20T14:35:01Z</time>
      </trkpt>
      <trkpt lat="42.74597" lon="1.5874">
        <ele>1168.525</ele>
        <time>2022-02-20T14:35:03Z</time>
      </trkpt>
      <trkpt lat="42.74599" lon="1.58738">
        <ele>1168.458</ele>
        <time>2022-02-20T14:35:05Z</time>
      </trkpt>
      <trkpt lat="42.74601" lon="1.58736">
        <ele>1169.011</ele>
        <time>2022-02-20T14:35:07Z</time>
      </trkpt>
      <trkpt lat="42.74603" lon="1.58733">
        <ele>1168.692</ele>
        <time>2022-02-20T14:35:09Z</time>
      </trkpt>
      <trkpt lat="42.74605" lon="1.58732">
        <ele>1167.879</ele>
        <time>2022-02-20T14:35:11Z</time>
      </trkpt>
      <trkpt lat="42.74607" lon="1.5873">
        <ele>1167.725</ele>
        <time>2022-02-20T14:35:13Z</time>
      </trkpt>
      <trkpt lat="42.74609" lon="1.58728">
        <ele>1168.122</ele>
        <time>2022-02-20T14:35:15Z</time>
      </trkpt>
      <trkpt lat="42.74611" lon="1.58725">
        <ele>1168.307</ele>
        <time>2022-02-20T14:35:17Z</time>
      </trkpt>
      <trkpt lat="42.74612" lon="1.58723">
        <ele>1168.48</ele>
        <time>2022-02-20T14:35:19Z</time>
      </trkpt>
      <trkpt lat="42.74614" lon="1.58721">
        <ele>1169.256</ele>
        <time>2022-02-20T14:35:21Z</time>
      </trkpt>
      <trkpt lat="42.74616" lon="1.5872">
        <ele>1169.084</ele>
        <time>2022-02-20T14:35:23Z</time>
      </trkpt>
      <trkpt lat="42.74619" lon="1.58718">
        <ele>1168.756</ele>
        <time>2022-02-20T14:35:25Z</time>
      </trkpt>
      <trkpt lat="42.74621" lon="1.58717">
        <ele>1167.866</ele>
        <time>2022-02-20T14:35:27Z</time>
      </trkpt>
      <trkpt lat="42.74623" lon="1.58715">
        <ele>1167.539</ele>
        <time>2022-02-20T14:35:29Z</time>
      </trkpt>
      <trkpt lat="42.74625" lon="1.58713">
        <ele>1167.628</ele>
        <time>2022-02-20T14:35:31Z</time>
      </trkpt>
      <trkpt lat="42.74627" lon="1.58711">
        <ele>1167.419</ele>
        <time>2022-02-20T14:35:33Z</time>
      </trkpt>
      <trkpt lat="42.74629" lon="1.58709">
        <ele>1167.543</ele>
        <time>2022-02-20T14:35:35Z</time>
      </trkpt>
      <trkpt lat="42.74631" lon="1.58706">
        <ele>1166.877</ele>
        <time>2022-02-20T14:35:37Z</time>
      </trkpt>
      <trkpt lat="42.74633" lon="1.58704">
        <ele>1166.381</ele>
        <time>2022-02-20T14:35:39Z</time>
      </trkpt>
      <trkpt lat="42.74635" lon="1.58701">
        <ele>1166.85</ele>
        <time>2022-02-20T14:35:41Z</time>
      </trkpt>
      <trkpt lat="42.74637" lon="1.58698">
        <ele>1166.759</ele>
        <time>2022-02-20T14:35:43Z</time>
      </trkpt>
      <trkpt lat="42.74638" lon="1.58695">
        <ele>1166.327</ele>
        <time>2022-02-20T14:35:45Z</time>
      </trkpt>
      <trkpt lat="42.7464" lon="1.58693">
        <ele>1167.032</ele>
        <time>2022-02-20T14:35:47Z</time>
      </trkpt>
      <trkpt lat="42.74642" lon="1.5869">
        <ele>1165.774</ele>
        <time>2022-02-20T14:35:49Z</time>
      </trkpt>
      <trkpt lat="42.74643" lon="1.58687">
        <ele>1164.991</ele>
        <time>2022-02-20T14:35:51Z</time>
      </trkpt>
      <trkpt lat="42.74645" lon="1.58685">
        <ele>1165.444</ele>
        <time>2022-02-20T14:35:53Z</time>
      </trkpt>
      <trkpt lat="42.74647" lon="1.58682">
        <ele>1165.616</ele>
        <time>2022-02-20T14:35:55Z</time>
      </trkpt>
      <trkpt lat="42.74648" lon="1.58679">
        <ele>1165.996</ele>
        <time>2022-02-20T14:35:57Z</time>
      </trkpt>
      <trkpt lat="42.74651" lon="1.58677">
        <ele>1165.251</ele>
        <time>2022-02-20T14:35:59Z</time>
      </trkpt>
      <trkpt lat="42.74652" lon="1.58674">
        <ele>1166.265</ele>
        <time>2022-02-20T14:36:01Z</time>
      </trkpt>
      <trkpt lat="42.74654" lon="1.58672">
        <ele>1165.415</ele>
        <time>2022-02-20T14:36:03Z</time>
      </trkpt>
      <trkpt lat="42.74656" lon="1.5867">
        <ele>1165.966</ele>
        <time>2022-02-20T14:36:05Z</time>
      </trkpt>
      <trkpt lat="42.74658" lon="1.58668">
        <ele>1165.996</ele>
        <time>2022-02-20T14:36:07Z</time>
      </trkpt>
      <trkpt lat="42.7466" lon="1.58665">
        <ele>1166.226</ele>
        <time>2022-02-20T14:36:09Z</time>
      </trkpt>
      <trkpt lat="42.74662" lon="1.58663">
        <ele>1166.787</ele>
        <time>2022-02-20T14:36:11Z</time>
      </trkpt>
      <trkpt lat="42.74664" lon="1.58661">
        <ele>1166.441</ele>
        <time>2022-02-20T14:36:13Z</time>
      </trkpt>
      <trkpt lat="42.74667" lon="1.5866">
        <ele>1166.187</ele>
        <time>2022-02-20T14:36:15Z</time>
      </trkpt>
      <trkpt lat="42.74668" lon="1.58658">
        <ele>1167.087</ele>
        <time>2022-02-20T14:36:17Z</time>
      </trkpt>
      <trkpt lat="42.74671" lon="1.58657">
        <ele>1164.854</ele>
        <time>2022-02-20T14:36:19Z</time>
      </trkpt>
      <trkpt lat="42.74673" lon="1.58655">
        <ele>1165.286</ele>
        <time>2022-02-20T14:36:21Z</time>
      </trkpt>
      <trkpt lat="42.74676" lon="1.58655">
        <ele>1164.291</ele>
        <time>2022-02-20T14:36:23Z</time>
      </trkpt>
      <trkpt lat="42.74678" lon="1.58653">
        <ele>1163.623</ele>
        <time>2022-02-20T14:36:25Z</time>
      </trkpt>
      <trkpt lat="42.7468" lon="1.58652">
        <ele>1163.529</ele>
        <time>2022-02-20T14:36:27Z</time>
      </trkpt>
      <trkpt lat="42.74683" lon="1.5865">
        <ele>1163.525</ele>
        <time>2022-02-20T14:36:29Z</time>
      </trkpt>
      <trkpt lat="42.74684" lon="1.58647">
        <ele>1165.433</ele>
        <time>2022-02-20T14:36:31Z</time>
      </trkpt>
      <trkpt lat="42.74686" lon="1.58645">
        <ele>1167.756</ele>
        <time>2022-02-20T14:36:33Z</time>
      </trkpt>
      <trkpt lat="42.74688" lon="1.58643">
        <ele>1167.925</ele>
        <time>2022-02-20T14:36:35Z</time>
      </trkpt>
      <trkpt lat="42.74691" lon="1.58641">
        <ele>1168.115</ele>
        <time>2022-02-20T14:36:37Z</time>
      </trkpt>
      <trkpt lat="42.74693" lon="1.5864">
        <ele>1167.59</ele>
        <time>2022-02-20T14:36:39Z</time>
      </trkpt>
      <trkpt lat="42.74695" lon="1.58638">
        <ele>1168.314</ele>
        <time>2022-02-20T14:36:41Z</time>
      </trkpt>
      <trkpt lat="42.74698" lon="1.58636">
        <ele>1168.407</ele>
        <time>2022-02-20T14:36:43Z</time>
      </trkpt>
      <trkpt lat="42.747" lon="1.58635">
        <ele>1166.669</ele>
        <time>2022-02-20T14:36:45Z</time>
      </trkpt>
      <trkpt lat="42.74702" lon="1.58633">
        <ele>1167.028</ele>
        <time>2022-02-20T14:36:47Z</time>
      </trkpt>
      <trkpt lat="42.74705" lon="1.58631">
        <ele>1166.926</ele>
        <time>2022-02-20T14:36:49Z</time>
      </trkpt>
      <trkpt lat="42.74707" lon="1.5863">
        <ele>1166.742</ele>
        <time>2022-02-20T14:36:51Z</time>
      </trkpt>
      <trkpt lat="42.7471" lon="1.58629">
        <ele>1165.838</ele>
        <time>2022-02-20T14:36:53Z</time>
      </trkpt>
      <trkpt lat="42.74712" lon="1.58627">
        <ele>1166.214</ele>
        <time>2022-02-20T14:36:55Z</time>
      </trkpt>
      <trkpt lat="42.74715" lon="1.58627">
        <ele>1165.603</ele>
        <time>2022-02-20T14:36:57Z</time>
      </trkpt>
      <trkpt lat="42.74717" lon="1.58626">
        <ele>1165.775</ele>
        <time>2022-02-20T14:36:59Z</time>
      </trkpt>
      <trkpt lat="42.74719" lon="1.58625">
        <ele>1165.778</ele>
        <time>2022-02-20T14:37:01Z</time>
      </trkpt>
      <trkpt lat="42.74722" lon="1.58624">
        <ele>1165.208</ele>
        <time>2022-02-20T14:37:03Z</time>
      </trkpt>
      <trkpt lat="42.74724" lon="1.58623">
        <ele>1165.207</ele>
        <time>2022-02-20T14:37:05Z</time>
      </trkpt>
      <trkpt lat="42.74727" lon="1.58623">
        <ele>1164.253</ele>
        <time>2022-02-20T14:37:07Z</time>
      </trkpt>
      <trkpt lat="42.7473" lon="1.58622">
        <ele>1163.804</ele>
        <time>2022-02-20T14:37:09Z</time>
      </trkpt>
      <trkpt lat="42.74733" lon="1.58622">
        <ele>1164.108</ele>
        <time>2022-02-20T14:37:11Z</time>
      </trkpt>
      <trkpt lat="42.74735" lon="1.58622">
        <ele>1164.321</ele>
        <time>2022-02-20T14:37:13Z</time>
      </trkpt>
      <trkpt lat="42.74738" lon="1.58621">
        <ele>1165.035</ele>
        <time>2022-02-20T14:37:15Z</time>
      </trkpt>
      <trkpt lat="42.74741" lon="1.58621">
        <ele>1164.933</ele>
        <time>2022-02-20T14:37:17Z</time>
      </trkpt>
      <trkpt lat="42.74743" lon="1.5862">
        <ele>1165.652</ele>
        <time>2022-02-20T14:37:19Z</time>
      </trkpt>
      <trkpt lat="42.74746" lon="1.58619">
        <ele>1166.447</ele>
        <time>2022-02-20T14:37:21Z</time>
      </trkpt>
      <trkpt lat="42.74748" lon="1.58619">
        <ele>1167.012</ele>
        <time>2022-02-20T14:37:23Z</time>
      </trkpt>
      <trkpt lat="42.74751" lon="1.58618">
        <ele>1167.264</ele>
        <time>2022-02-20T14:37:25Z</time>
      </trkpt>
      <trkpt lat="42.74754" lon="1.58618">
        <ele>1167.396</ele>
        <time>2022-02-20T14:37:27Z</time>
      </trkpt>
      <trkpt lat="42.74756" lon="1.58617">
        <ele>1168.041</ele>
        <time>2022-02-20T14:37:29Z</time>
      </trkpt>
      <trkpt lat="42.74758" lon="1.58617">
        <ele>1167.917</ele>
        <time>2022-02-20T14:37:31Z</time>
      </trkpt>
      <trkpt lat="42.7476" lon="1.58615">
        <ele>1167.92</ele>
        <time>2022-02-20T14:37:33Z</time>
      </trkpt>
      <trkpt lat="42.74762" lon="1.58613">
        <ele>1167.856</ele>
        <time>2022-02-20T14:37:35Z</time>
      </trkpt>
      <trkpt lat="42.74764" lon="1.58611">
        <ele>1168.071</ele>
        <time>2022-02-20T14:37:37Z</time>
      </trkpt>
      <trkpt lat="42.74765" lon="1.58608">
        <ele>1168.074</ele>
        <time>2022-02-20T14:37:39Z</time>
      </trkpt>
      <trkpt lat="42.74766" lon="1.58605">
        <ele>1167.913</ele>
        <time>2022-02-20T14:37:41Z</time>
      </trkpt>
      <trkpt lat="42.74766" lon="1.58602">
        <ele>1168.599</ele>
        <time>2022-02-20T14:37:43Z</time>
      </trkpt>
      <trkpt lat="42.74767" lon="1.58599">
        <ele>1168.058</ele>
        <time>2022-02-20T14:37:45Z</time>
      </trkpt>
      <trkpt lat="42.74766" lon="1.58595">
        <ele>1167.674</ele>
        <time>2022-02-20T14:37:47Z</time>
      </trkpt>
      <trkpt lat="42.74766" lon="1.58592">
        <ele>1166.658</ele>
        <time>2022-02-20T14:37:49Z</time>
      </trkpt>
      <trkpt lat="42.74766" lon="1.58589">
        <ele>1165.048</ele>
        <time>2022-02-20T14:37:51Z</time>
      </trkpt>
      <trkpt lat="42.74766" lon="1.58586">
        <ele>1164.654</ele>
        <time>2022-02-20T14:37:53Z</time>
      </trkpt>
      <trkpt lat="42.74764" lon="1.58583">
        <ele>1164.445</ele>
        <time>2022-02-20T14:37:55Z</time>
      </trkpt>
      <trkpt lat="42.74763" lon="1.58581">
        <ele>1163.964</ele>
        <time>2022-02-20T14:37:57Z</time>
      </trkpt>
      <trkpt lat="42.74763" lon="1.58579">
        <ele>1162.299</ele>
        <time>2022-02-20T14:37:59Z</time>
      </trkpt>
      <trkpt lat="42.74762" lon="1.58576">
        <ele>1161.374</ele>
        <time>2022-02-20T14:38:01Z</time>
      </trkpt>
      <trkpt lat="42.74761" lon="1.58573">
        <ele>1160.193</ele>
        <time>2022-02-20T14:38:03Z</time>
      </trkpt>
      <trkpt lat="42.74761" lon="1.58571">
        <ele>1159.713</ele>
        <time>2022-02-20T14:38:05Z</time>
      </trkpt>
      <trkpt lat="42.7476" lon="1.58568">
        <ele>1159.713</ele>
        <time>2022-02-20T14:38:07Z</time>
      </trkpt>
      <trkpt lat="42.7476" lon="1.58565">
        <ele>1158.294</ele>
        <time>2022-02-20T14:38:09Z</time>
      </trkpt>
      <trkpt lat="42.7476" lon="1.58562">
        <ele>1156.808</ele>
        <time>2022-02-20T14:38:11Z</time>
      </trkpt>
      <trkpt lat="42.74759" lon="1.58558">
        <ele>1157.404</ele>
        <time>2022-02-20T14:38:13Z</time>
      </trkpt>
      <trkpt lat="42.74759" lon="1.58555">
        <ele>1156.311</ele>
        <time>2022-02-20T14:38:15Z</time>
      </trkpt>
      <trkpt lat="42.7476" lon="1.58552">
        <ele>1155.802</ele>
        <time>2022-02-20T14:38:17Z</time>
      </trkpt>
      <trkpt lat="42.7476" lon="1.58549">
        <ele>1155.712</ele>
        <time>2022-02-20T14:38:19Z</time>
      </trkpt>
      <trkpt lat="42.74761" lon="1.58546">
        <ele>1155.579</ele>
        <time>2022-02-20T14:38:21Z</time>
      </trkpt>
      <trkpt lat="42.74762" lon="1.58542">
        <ele>1155.922</ele>
        <time>2022-02-20T14:38:23Z</time>
      </trkpt>
      <trkpt lat="42.74763" lon="1.58539">
        <ele>1155.86</ele>
        <time>2022-02-20T14:38:25Z</time>
      </trkpt>
      <trkpt lat="42.74763" lon="1.58537">
        <ele>1155.966</ele>
        <time>2022-02-20T14:38:26Z</time>
      </trkpt>
      <trkpt lat="42.74765" lon="1.58533">
        <ele>1154.811</ele>
        <time>2022-02-20T14:38:29Z</time>
      </trkpt>
      <trkpt lat="42.74767" lon="1.5853">
        <ele>1154.009</ele>
        <time>2022-02-20T14:38:31Z</time>
      </trkpt>
      <trkpt lat="42.74769" lon="1.58528">
        <ele>1152.287</ele>
        <time>2022-02-20T14:38:33Z</time>
      </trkpt>
      <trkpt lat="42.74771" lon="1.58525">
        <ele>1152.109</ele>
        <time>2022-02-20T14:38:35Z</time>
      </trkpt>
      <trkpt lat="42.74772" lon="1.58522">
        <ele>1151.843</ele>
        <time>2022-02-20T14:38:37Z</time>
      </trkpt>
      <trkpt lat="42.74774" lon="1.58519">
        <ele>1152.443</ele>
        <time>2022-02-20T14:38:39Z</time>
      </trkpt>
      <trkpt lat="42.74775" lon="1.58516">
        <ele>1151.839</ele>
        <time>2022-02-20T14:38:41Z</time>
      </trkpt>
      <trkpt lat="42.74777" lon="1.58513">
        <ele>1151.694</ele>
        <time>2022-02-20T14:38:43Z</time>
      </trkpt>
      <trkpt lat="42.74778" lon="1.5851">
        <ele>1152.584</ele>
        <time>2022-02-20T14:38:45Z</time>
      </trkpt>
      <trkpt lat="42.74779" lon="1.58507">
        <ele>1152.022</ele>
        <time>2022-02-20T14:38:47Z</time>
      </trkpt>
      <trkpt lat="42.7478" lon="1.58505">
        <ele>1150.624</ele>
        <time>2022-02-20T14:38:49Z</time>
      </trkpt>
      <trkpt lat="42.74782" lon="1.58502">
        <ele>1151.153</ele>
        <time>2022-02-20T14:38:51Z</time>
      </trkpt>
      <trkpt lat="42.74783" lon="1.58499">
        <ele>1150.557</ele>
        <time>2022-02-20T14:38:53Z</time>
      </trkpt>
      <trkpt lat="42.74784" lon="1.58496">
        <ele>1150.31</ele>
        <time>2022-02-20T14:38:55Z</time>
      </trkpt>
      <trkpt lat="42.74785" lon="1.58493">
        <ele>1149.703</ele>
        <time>2022-02-20T14:38:57Z</time>
      </trkpt>
      <trkpt lat="42.74787" lon="1.58491">
        <ele>1148.618</ele>
        <time>2022-02-20T14:38:59Z</time>
      </trkpt>
      <trkpt lat="42.74788" lon="1.58488">
        <ele>1148.47</ele>
        <time>2022-02-20T14:39:01Z</time>
      </trkpt>
      <trkpt lat="42.74788" lon="1.58485">
        <ele>1148.415</ele>
        <time>2022-02-20T14:39:03Z</time>
      </trkpt>
      <trkpt lat="42.74789" lon="1.58482">
        <ele>1148.049</ele>
        <time>2022-02-20T14:39:05Z</time>
      </trkpt>
      <trkpt lat="42.7479" lon="1.58479">
        <ele>1147.005</ele>
        <time>2022-02-20T14:39:07Z</time>
      </trkpt>
      <trkpt lat="42.74791" lon="1.58476">
        <ele>1147.19</ele>
        <time>2022-02-20T14:39:09Z</time>
      </trkpt>
      <trkpt lat="42.74792" lon="1.58473">
        <ele>1146.939</ele>
        <time>2022-02-20T14:39:11Z</time>
      </trkpt>
      <trkpt lat="42.74792" lon="1.5847">
        <ele>1147.975</ele>
        <time>2022-02-20T14:39:13Z</time>
      </trkpt>
      <trkpt lat="42.74793" lon="1.58467">
        <ele>1147.483</ele>
        <time>2022-02-20T14:39:15Z</time>
      </trkpt>
      <trkpt lat="42.74794" lon="1.58464">
        <ele>1147.313</ele>
        <time>2022-02-20T14:39:17Z</time>
      </trkpt>
      <trkpt lat="42.74795" lon="1.58461">
        <ele>1146.697</ele>
        <time>2022-02-20T14:39:19Z</time>
      </trkpt>
      <trkpt lat="42.74795" lon="1.58457">
        <ele>1146.755</ele>
        <time>2022-02-20T14:39:21Z</time>
      </trkpt>
      <trkpt lat="42.74796" lon="1.58453">
        <ele>1146.921</ele>
        <time>2022-02-20T14:39:23Z</time>
      </trkpt>
      <trkpt lat="42.74797" lon="1.5845">
        <ele>1146.369</ele>
        <time>2022-02-20T14:39:25Z</time>
      </trkpt>
      <trkpt lat="42.74798" lon="1.58447">
        <ele>1146.488</ele>
        <time>2022-02-20T14:39:27Z</time>
      </trkpt>
      <trkpt lat="42.74799" lon="1.58444">
        <ele>1146.388</ele>
        <time>2022-02-20T14:39:29Z</time>
      </trkpt>
      <trkpt lat="42.748" lon="1.58441">
        <ele>1145.552</ele>
        <time>2022-02-20T14:39:31Z</time>
      </trkpt>
      <trkpt lat="42.74801" lon="1.58438">
        <ele>1144.633</ele>
        <time>2022-02-20T14:39:33Z</time>
      </trkpt>
      <trkpt lat="42.74801" lon="1.58434">
        <ele>1144.648</ele>
        <time>2022-02-20T14:39:35Z</time>
      </trkpt>
      <trkpt lat="42.74802" lon="1.58431">
        <ele>1145.143</ele>
        <time>2022-02-20T14:39:37Z</time>
      </trkpt>
      <trkpt lat="42.74803" lon="1.58427">
        <ele>1145.88</ele>
        <time>2022-02-20T14:39:39Z</time>
      </trkpt>
      <trkpt lat="42.74804" lon="1.58424">
        <ele>1145.702</ele>
        <time>2022-02-20T14:39:41Z</time>
      </trkpt>
      <trkpt lat="42.74805" lon="1.5842">
        <ele>1147.557</ele>
        <time>2022-02-20T14:39:43Z</time>
      </trkpt>
      <trkpt lat="42.74805" lon="1.58417">
        <ele>1146.761</ele>
        <time>2022-02-20T14:39:45Z</time>
      </trkpt>
      <trkpt lat="42.74806" lon="1.58413">
        <ele>1146.266</ele>
        <time>2022-02-20T14:39:47Z</time>
      </trkpt>
      <trkpt lat="42.74807" lon="1.58411">
        <ele>1144.678</ele>
        <time>2022-02-20T14:39:49Z</time>
      </trkpt>
      <trkpt lat="42.74808" lon="1.58407">
        <ele>1144.076</ele>
        <time>2022-02-20T14:39:51Z</time>
      </trkpt>
      <trkpt lat="42.74809" lon="1.58404">
        <ele>1144.236</ele>
        <time>2022-02-20T14:39:53Z</time>
      </trkpt>
      <trkpt lat="42.7481" lon="1.584">
        <ele>1143.973</ele>
        <time>2022-02-20T14:39:55Z</time>
      </trkpt>
      <trkpt lat="42.7481" lon="1.58397">
        <ele>1144.14</ele>
        <time>2022-02-20T14:39:57Z</time>
      </trkpt>
      <trkpt lat="42.7481" lon="1.58394">
        <ele>1145.293</ele>
        <time>2022-02-20T14:39:59Z</time>
      </trkpt>
      <trkpt lat="42.74811" lon="1.5839">
        <ele>1146.134</ele>
        <time>2022-02-20T14:40:01Z</time>
      </trkpt>
      <trkpt lat="42.74811" lon="1.58386">
        <ele>1146.123</ele>
        <time>2022-02-20T14:40:03Z</time>
      </trkpt>
      <trkpt lat="42.74811" lon="1.58383">
        <ele>1145.064</ele>
        <time>2022-02-20T14:40:05Z</time>
      </trkpt>
      <trkpt lat="42.74811" lon="1.58379">
        <ele>1145.325</ele>
        <time>2022-02-20T14:40:07Z</time>
      </trkpt>
      <trkpt lat="42.74811" lon="1.58376">
        <ele>1145.54</ele>
        <time>2022-02-20T14:40:09Z</time>
      </trkpt>
      <trkpt lat="42.74811" lon="1.58372">
        <ele>1145.595</ele>
        <time>2022-02-20T14:40:11Z</time>
      </trkpt>
      <trkpt lat="42.74812" lon="1.58368">
        <ele>1145.332</ele>
        <time>2022-02-20T14:40:13Z</time>
      </trkpt>
      <trkpt lat="42.74811" lon="1.58365">
        <ele>1144.491</ele>
        <time>2022-02-20T14:40:15Z</time>
      </trkpt>
      <trkpt lat="42.74811" lon="1.58362">
        <ele>1143.336</ele>
        <time>2022-02-20T14:40:17Z</time>
      </trkpt>
      <trkpt lat="42.74812" lon="1.58358">
        <ele>1143.987</ele>
        <time>2022-02-20T14:40:19Z</time>
      </trkpt>
      <trkpt lat="42.74812" lon="1.58354">
        <ele>1144.51</ele>
        <time>2022-02-20T14:40:21Z</time>
      </trkpt>
      <trkpt lat="42.74812" lon="1.58351">
        <ele>1143.862</ele>
        <time>2022-02-20T14:40:23Z</time>
      </trkpt>
      <trkpt lat="42.74813" lon="1.58348">
        <ele>1142.75</ele>
        <time>2022-02-20T14:40:25Z</time>
      </trkpt>
      <trkpt lat="42.74813" lon="1.58345">
        <ele>1142.51</ele>
        <time>2022-02-20T14:40:27Z</time>
      </trkpt>
      <trkpt lat="42.74813" lon="1.58342">
        <ele>1141.391</ele>
        <time>2022-02-20T14:40:29Z</time>
      </trkpt>
      <trkpt lat="42.74813" lon="1.58338">
        <ele>1140.962</ele>
        <time>2022-02-20T14:40:31Z</time>
      </trkpt>
      <trkpt lat="42.74813" lon="1.58334">
        <ele>1140.386</ele>
        <time>2022-02-20T14:40:33Z</time>
      </trkpt>
      <trkpt lat="42.74814" lon="1.58331">
        <ele>1140.515</ele>
        <time>2022-02-20T14:40:35Z</time>
      </trkpt>
      <trkpt lat="42.74813" lon="1.58327">
        <ele>1140.963</ele>
        <time>2022-02-20T14:40:37Z</time>
      </trkpt>
      <trkpt lat="42.74813" lon="1.58323">
        <ele>1141.361</ele>
        <time>2022-02-20T14:40:39Z</time>
      </trkpt>
      <trkpt lat="42.74813" lon="1.5832">
        <ele>1140.201</ele>
        <time>2022-02-20T14:40:41Z</time>
      </trkpt>
      <trkpt lat="42.74813" lon="1.58317">
        <ele>1140.073</ele>
        <time>2022-02-20T14:40:43Z</time>
      </trkpt>
      <trkpt lat="42.74813" lon="1.58313">
        <ele>1139.833</ele>
        <time>2022-02-20T14:40:45Z</time>
      </trkpt>
      <trkpt lat="42.74812" lon="1.5831">
        <ele>1139.084</ele>
        <time>2022-02-20T14:40:47Z</time>
      </trkpt>
      <trkpt lat="42.74812" lon="1.58306">
        <ele>1138.391</ele>
        <time>2022-02-20T14:40:49Z</time>
      </trkpt>
      <trkpt lat="42.74813" lon="1.58303">
        <ele>1137.491</ele>
        <time>2022-02-20T14:40:51Z</time>
      </trkpt>
      <trkpt lat="42.74813" lon="1.583">
        <ele>1136.269</ele>
        <time>2022-02-20T14:40:53Z</time>
      </trkpt>
      <trkpt lat="42.74813" lon="1.58296">
        <ele>1134.993</ele>
        <time>2022-02-20T14:40:55Z</time>
      </trkpt>
      <trkpt lat="42.74813" lon="1.58293">
        <ele>1134.578</ele>
        <time>2022-02-20T14:40:57Z</time>
      </trkpt>
      <trkpt lat="42.74813" lon="1.58289">
        <ele>1134.519</ele>
        <time>2022-02-20T14:40:59Z</time>
      </trkpt>
      <trkpt lat="42.74814" lon="1.58286">
        <ele>1134.555</ele>
        <time>2022-02-20T14:41:01Z</time>
      </trkpt>
      <trkpt lat="42.74814" lon="1.58283">
        <ele>1134.56</ele>
        <time>2022-02-20T14:41:03Z</time>
      </trkpt>
      <trkpt lat="42.74815" lon="1.58279">
        <ele>1134.205</ele>
        <time>2022-02-20T14:41:05Z</time>
      </trkpt>
      <trkpt lat="42.74816" lon="1.58275">
        <ele>1133.509</ele>
        <time>2022-02-20T14:41:07Z</time>
      </trkpt>
      <trkpt lat="42.74816" lon="1.58272">
        <ele>1133.268</ele>
        <time>2022-02-20T14:41:09Z</time>
      </trkpt>
      <trkpt lat="42.74817" lon="1.58269">
        <ele>1133.367</ele>
        <time>2022-02-20T14:41:11Z</time>
      </trkpt>
      <trkpt lat="42.74818" lon="1.58266">
        <ele>1132.037</ele>
        <time>2022-02-20T14:41:13Z</time>
      </trkpt>
      <trkpt lat="42.74819" lon="1.58263">
        <ele>1131.662</ele>
        <time>2022-02-20T14:41:15Z</time>
      </trkpt>
      <trkpt lat="42.74821" lon="1.5826">
        <ele>1131.588</ele>
        <time>2022-02-20T14:41:17Z</time>
      </trkpt>
      <trkpt lat="42.74821" lon="1.58256">
        <ele>1131.789</ele>
        <time>2022-02-20T14:41:19Z</time>
      </trkpt>
      <trkpt lat="42.74822" lon="1.58253">
        <ele>1131.643</ele>
        <time>2022-02-20T14:41:21Z</time>
      </trkpt>
      <trkpt lat="42.74823" lon="1.58249">
        <ele>1131.849</ele>
        <time>2022-02-20T14:41:23Z</time>
      </trkpt>
      <trkpt lat="42.74824" lon="1.58246">
        <ele>1130.998</ele>
        <time>2022-02-20T14:41:25Z</time>
      </trkpt>
      <trkpt lat="42.74825" lon="1.58242">
        <ele>1131.83</ele>
        <time>2022-02-20T14:41:27Z</time>
      </trkpt>
      <trkpt lat="42.74826" lon="1.58238">
        <ele>1133.305</ele>
        <time>2022-02-20T14:41:29Z</time>
      </trkpt>
      <trkpt lat="42.74827" lon="1.58235">
        <ele>1133.36</ele>
        <time>2022-02-20T14:41:31Z</time>
      </trkpt>
      <trkpt lat="42.74828" lon="1.58231">
        <ele>1132.435</ele>
        <time>2022-02-20T14:41:33Z</time>
      </trkpt>
      <trkpt lat="42.74829" lon="1.58227">
        <ele>1132.295</ele>
        <time>2022-02-20T14:41:35Z</time>
      </trkpt>
      <trkpt lat="42.74829" lon="1.58224">
        <ele>1131.821</ele>
        <time>2022-02-20T14:41:37Z</time>
      </trkpt>
      <trkpt lat="42.7483" lon="1.58221">
        <ele>1131.681</ele>
        <time>2022-02-20T14:41:39Z</time>
      </trkpt>
      <trkpt lat="42.74831" lon="1.58217">
        <ele>1130.7</ele>
        <time>2022-02-20T14:41:41Z</time>
      </trkpt>
      <trkpt lat="42.74833" lon="1.58214">
        <ele>1129.936</ele>
        <time>2022-02-20T14:41:43Z</time>
      </trkpt>
      <trkpt lat="42.74834" lon="1.58211">
        <ele>1128.864</ele>
        <time>2022-02-20T14:41:45Z</time>
      </trkpt>
      <trkpt lat="42.74835" lon="1.58207">
        <ele>1128.723</ele>
        <time>2022-02-20T14:41:47Z</time>
      </trkpt>
      <trkpt lat="42.74836" lon="1.58203">
        <ele>1128.918</ele>
        <time>2022-02-20T14:41:49Z</time>
      </trkpt>
      <trkpt lat="42.74836" lon="1.58199">
        <ele>1128.743</ele>
        <time>2022-02-20T14:41:51Z</time>
      </trkpt>
      <trkpt lat="42.74837" lon="1.58196">
        <ele>1128.84</ele>
        <time>2022-02-20T14:41:53Z</time>
      </trkpt>
      <trkpt lat="42.74838" lon="1.58192">
        <ele>1129.152</ele>
        <time>2022-02-20T14:41:55Z</time>
      </trkpt>
      <trkpt lat="42.74839" lon="1.58189">
        <ele>1129.028</ele>
        <time>2022-02-20T14:41:57Z</time>
      </trkpt>
      <trkpt lat="42.74839" lon="1.58185">
        <ele>1128.129</ele>
        <time>2022-02-20T14:41:59Z</time>
      </trkpt>
      <trkpt lat="42.7484" lon="1.58182">
        <ele>1127.708</ele>
        <time>2022-02-20T14:42:01Z</time>
      </trkpt>
      <trkpt lat="42.74842" lon="1.58179">
        <ele>1127.33</ele>
        <time>2022-02-20T14:42:03Z</time>
      </trkpt>
      <trkpt lat="42.74844" lon="1.58177">
        <ele>1127.764</ele>
        <time>2022-02-20T14:42:05Z</time>
      </trkpt>
      <trkpt lat="42.74846" lon="1.58176">
        <ele>1127.027</ele>
        <time>2022-02-20T14:42:07Z</time>
      </trkpt>
      <trkpt lat="42.74848" lon="1.58173">
        <ele>1127.203</ele>
        <time>2022-02-20T14:42:09Z</time>
      </trkpt>
      <trkpt lat="42.74851" lon="1.58173">
        <ele>1125.066</ele>
        <time>2022-02-20T14:42:11Z</time>
      </trkpt>
      <trkpt lat="42.74853" lon="1.58173">
        <ele>1124.392</ele>
        <time>2022-02-20T14:42:13Z</time>
      </trkpt>
      <trkpt lat="42.74855" lon="1.58171">
        <ele>1125.494</ele>
        <time>2022-02-20T14:42:15Z</time>
      </trkpt>
      <trkpt lat="42.74858" lon="1.5817">
        <ele>1126.074</ele>
        <time>2022-02-20T14:42:17Z</time>
      </trkpt>
      <trkpt lat="42.7486" lon="1.5817">
        <ele>1125.986</ele>
        <time>2022-02-20T14:42:19Z</time>
      </trkpt>
      <trkpt lat="42.74863" lon="1.58169">
        <ele>1124.576</ele>
        <time>2022-02-20T14:42:21Z</time>
      </trkpt>
      <trkpt lat="42.74865" lon="1.58168">
        <ele>1124.841</ele>
        <time>2022-02-20T14:42:23Z</time>
      </trkpt>
      <trkpt lat="42.74867" lon="1.58167">
        <ele>1124.301</ele>
        <time>2022-02-20T14:42:25Z</time>
      </trkpt>
      <trkpt lat="42.7487" lon="1.58167">
        <ele>1123.971</ele>
        <time>2022-02-20T14:42:27Z</time>
      </trkpt>
      <trkpt lat="42.74872" lon="1.58167">
        <ele>1122.968</ele>
        <time>2022-02-20T14:42:29Z</time>
      </trkpt>
      <trkpt lat="42.74875" lon="1.58166">
        <ele>1125.869</ele>
        <time>2022-02-20T14:42:31Z</time>
      </trkpt>
      <trkpt lat="42.74878" lon="1.58166">
        <ele>1126.351</ele>
        <time>2022-02-20T14:42:33Z</time>
      </trkpt>
      <trkpt lat="42.7488" lon="1.58165">
        <ele>1126.5</ele>
        <time>2022-02-20T14:42:35Z</time>
      </trkpt>
      <trkpt lat="42.74883" lon="1.58165">
        <ele>1126.787</ele>
        <time>2022-02-20T14:42:37Z</time>
      </trkpt>
      <trkpt lat="42.74885" lon="1.58165">
        <ele>1128.105</ele>
        <time>2022-02-20T14:42:39Z</time>
      </trkpt>
      <trkpt lat="42.74888" lon="1.58165">
        <ele>1127.414</ele>
        <time>2022-02-20T14:42:41Z</time>
      </trkpt>
      <trkpt lat="42.74891" lon="1.58165">
        <ele>1129.349</ele>
        <time>2022-02-20T14:42:43Z</time>
      </trkpt>
      <trkpt lat="42.74894" lon="1.58164">
        <ele>1129.655</ele>
        <time>2022-02-20T14:42:45Z</time>
      </trkpt>
      <trkpt lat="42.74896" lon="1.58164">
        <ele>1129.366</ele>
        <time>2022-02-20T14:42:47Z</time>
      </trkpt>
      <trkpt lat="42.74899" lon="1.58163">
        <ele>1131.325</ele>
        <time>2022-02-20T14:42:49Z</time>
      </trkpt>
      <trkpt lat="42.74902" lon="1.58163">
        <ele>1132.595</ele>
        <time>2022-02-20T14:42:51Z</time>
      </trkpt>
      <trkpt lat="42.74904" lon="1.58162">
        <ele>1132.688</ele>
        <time>2022-02-20T14:42:53Z</time>
      </trkpt>
      <trkpt lat="42.74907" lon="1.58162">
        <ele>1132.953</ele>
        <time>2022-02-20T14:42:55Z</time>
      </trkpt>
      <trkpt lat="42.74909" lon="1.58161">
        <ele>1133.298</ele>
        <time>2022-02-20T14:42:57Z</time>
      </trkpt>
      <trkpt lat="42.74911" lon="1.58161">
        <ele>1130.942</ele>
        <time>2022-02-20T14:42:59Z</time>
      </trkpt>
      <trkpt lat="42.74913" lon="1.5816">
        <ele>1130.943</ele>
        <time>2022-02-20T14:43:01Z</time>
      </trkpt>
      <trkpt lat="42.74916" lon="1.58159">
        <ele>1130.787</ele>
        <time>2022-02-20T14:43:03Z</time>
      </trkpt>
      <trkpt lat="42.74918" lon="1.58158">
        <ele>1130.003</ele>
        <time>2022-02-20T14:43:05Z</time>
      </trkpt>
      <trkpt lat="42.7492" lon="1.58157">
        <ele>1129.487</ele>
        <time>2022-02-20T14:43:07Z</time>
      </trkpt>
      <trkpt lat="42.74923" lon="1.58155">
        <ele>1129.436</ele>
        <time>2022-02-20T14:43:09Z</time>
      </trkpt>
      <trkpt lat="42.74925" lon="1.58154">
        <ele>1130.958</ele>
        <time>2022-02-20T14:43:11Z</time>
      </trkpt>
      <trkpt lat="42.74928" lon="1.58153">
        <ele>1130.493</ele>
        <time>2022-02-20T14:43:13Z</time>
      </trkpt>
      <trkpt lat="42.7493" lon="1.58151">
        <ele>1130.16</ele>
        <time>2022-02-20T14:43:15Z</time>
      </trkpt>
      <trkpt lat="42.74933" lon="1.5815">
        <ele>1129.616</ele>
        <time>2022-02-20T14:43:17Z</time>
      </trkpt>
      <trkpt lat="42.74936" lon="1.58149">
        <ele>1128.333</ele>
        <time>2022-02-20T14:43:19Z</time>
      </trkpt>
      <trkpt lat="42.74938" lon="1.58147">
        <ele>1128.256</ele>
        <time>2022-02-20T14:43:21Z</time>
      </trkpt>
      <trkpt lat="42.74941" lon="1.58146">
        <ele>1127.875</ele>
        <time>2022-02-20T14:43:23Z</time>
      </trkpt>
      <trkpt lat="42.74943" lon="1.58145">
        <ele>1128.174</ele>
        <time>2022-02-20T14:43:25Z</time>
      </trkpt>
      <trkpt lat="42.74946" lon="1.58144">
        <ele>1124.481</ele>
        <time>2022-02-20T14:43:27Z</time>
      </trkpt>
      <trkpt lat="42.74948" lon="1.58142">
        <ele>1124.49</ele>
        <time>2022-02-20T14:43:29Z</time>
      </trkpt>
      <trkpt lat="42.74951" lon="1.5814">
        <ele>1125.928</ele>
        <time>2022-02-20T14:43:31Z</time>
      </trkpt>
      <trkpt lat="42.74953" lon="1.58138">
        <ele>1124.964</ele>
        <time>2022-02-20T14:43:33Z</time>
      </trkpt>
      <trkpt lat="42.74956" lon="1.58136">
        <ele>1123.962</ele>
        <time>2022-02-20T14:43:35Z</time>
      </trkpt>
      <trkpt lat="42.74958" lon="1.58134">
        <ele>1122.646</ele>
        <time>2022-02-20T14:43:37Z</time>
      </trkpt>
      <trkpt lat="42.74961" lon="1.58133">
        <ele>1122.584</ele>
        <time>2022-02-20T14:43:39Z</time>
      </trkpt>
      <trkpt lat="42.74963" lon="1.58131">
        <ele>1122.778</ele>
        <time>2022-02-20T14:43:41Z</time>
      </trkpt>
      <trkpt lat="42.74966" lon="1.58129">
        <ele>1123.162</ele>
        <time>2022-02-20T14:43:43Z</time>
      </trkpt>
      <trkpt lat="42.74968" lon="1.58128">
        <ele>1121.7</ele>
        <time>2022-02-20T14:43:45Z</time>
      </trkpt>
      <trkpt lat="42.7497" lon="1.58127">
        <ele>1121.214</ele>
        <time>2022-02-20T14:43:47Z</time>
      </trkpt>
      <trkpt lat="42.74972" lon="1.58125">
        <ele>1121.079</ele>
        <time>2022-02-20T14:43:49Z</time>
      </trkpt>
      <trkpt lat="42.74974" lon="1.58122">
        <ele>1121.359</ele>
        <time>2022-02-20T14:43:51Z</time>
      </trkpt>
      <trkpt lat="42.74976" lon="1.5812">
        <ele>1120.19</ele>
        <time>2022-02-20T14:43:53Z</time>
      </trkpt>
      <trkpt lat="42.74978" lon="1.58117">
        <ele>1121.549</ele>
        <time>2022-02-20T14:43:55Z</time>
      </trkpt>
      <trkpt lat="42.7498" lon="1.58114">
        <ele>1121.203</ele>
        <time>2022-02-20T14:43:57Z</time>
      </trkpt>
      <trkpt lat="42.74982" lon="1.58112">
        <ele>1121.766</ele>
        <time>2022-02-20T14:43:59Z</time>
      </trkpt>
      <trkpt lat="42.74984" lon="1.5811">
        <ele>1121.532</ele>
        <time>2022-02-20T14:44:01Z</time>
      </trkpt>
      <trkpt lat="42.74986" lon="1.58107">
        <ele>1121.528</ele>
        <time>2022-02-20T14:44:03Z</time>
      </trkpt>
      <trkpt lat="42.74987" lon="1.58105">
        <ele>1120.877</ele>
        <time>2022-02-20T14:44:05Z</time>
      </trkpt>
      <trkpt lat="42.74989" lon="1.58103">
        <ele>1119.999</ele>
        <time>2022-02-20T14:44:07Z</time>
      </trkpt>
      <trkpt lat="42.74991" lon="1.581">
        <ele>1119.759</ele>
        <time>2022-02-20T14:44:09Z</time>
      </trkpt>
      <trkpt lat="42.74993" lon="1.58097">
        <ele>1118.743</ele>
        <time>2022-02-20T14:44:11Z</time>
      </trkpt>
      <trkpt lat="42.74994" lon="1.58094">
        <ele>1117.637</ele>
        <time>2022-02-20T14:44:13Z</time>
      </trkpt>
      <trkpt lat="42.74996" lon="1.58091">
        <ele>1116.455</ele>
        <time>2022-02-20T14:44:15Z</time>
      </trkpt>
      <trkpt lat="42.74997" lon="1.58089">
        <ele>1116.575</ele>
        <time>2022-02-20T14:44:17Z</time>
      </trkpt>
      <trkpt lat="42.74998" lon="1.58086">
        <ele>1116.496</ele>
        <time>2022-02-20T14:44:19Z</time>
      </trkpt>
      <trkpt lat="42.74999" lon="1.58083">
        <ele>1115.091</ele>
        <time>2022-02-20T14:44:21Z</time>
      </trkpt>
      <trkpt lat="42.75" lon="1.5808">
        <ele>1115.957</ele>
        <time>2022-02-20T14:44:23Z</time>
      </trkpt>
      <trkpt lat="42.75001" lon="1.58077">
        <ele>1114.159</ele>
        <time>2022-02-20T14:44:25Z</time>
      </trkpt>
      <trkpt lat="42.75002" lon="1.58074">
        <ele>1113.646</ele>
        <time>2022-02-20T14:44:27Z</time>
      </trkpt>
      <trkpt lat="42.75004" lon="1.58071">
        <ele>1113.437</ele>
        <time>2022-02-20T14:44:29Z</time>
      </trkpt>
      <trkpt lat="42.75005" lon="1.58068">
        <ele>1112.086</ele>
        <time>2022-02-20T14:44:31Z</time>
      </trkpt>
      <trkpt lat="42.75006" lon="1.58066">
        <ele>1111.599</ele>
        <time>2022-02-20T14:44:33Z</time>
      </trkpt>
      <trkpt lat="42.75007" lon="1.58063">
        <ele>1111.157</ele>
        <time>2022-02-20T14:44:35Z</time>
      </trkpt>
      <trkpt lat="42.75009" lon="1.5806">
        <ele>1109.306</ele>
        <time>2022-02-20T14:44:37Z</time>
      </trkpt>
      <trkpt lat="42.7501" lon="1.58057">
        <ele>1108.569</ele>
        <time>2022-02-20T14:44:39Z</time>
      </trkpt>
      <trkpt lat="42.75011" lon="1.58054">
        <ele>1108.354</ele>
        <time>2022-02-20T14:44:41Z</time>
      </trkpt>
      <trkpt lat="42.75012" lon="1.5805">
        <ele>1107.415</ele>
        <time>2022-02-20T14:44:43Z</time>
      </trkpt>
      <trkpt lat="42.75013" lon="1.58046">
        <ele>1107.776</ele>
        <time>2022-02-20T14:44:45Z</time>
      </trkpt>
      <trkpt lat="42.75014" lon="1.58043">
        <ele>1107.591</ele>
        <time>2022-02-20T14:44:47Z</time>
      </trkpt>
      <trkpt lat="42.75016" lon="1.58039">
        <ele>1105.988</ele>
        <time>2022-02-20T14:44:49Z</time>
      </trkpt>
      <trkpt lat="42.75017" lon="1.58036">
        <ele>1106.201</ele>
        <time>2022-02-20T14:44:51Z</time>
      </trkpt>
      <trkpt lat="42.75018" lon="1.58032">
        <ele>1105.773</ele>
        <time>2022-02-20T14:44:53Z</time>
      </trkpt>
      <trkpt lat="42.75019" lon="1.58029">
        <ele>1105.175</ele>
        <time>2022-02-20T14:44:55Z</time>
      </trkpt>
      <trkpt lat="42.75021" lon="1.58026">
        <ele>1104.694</ele>
        <time>2022-02-20T14:44:57Z</time>
      </trkpt>
      <trkpt lat="42.75022" lon="1.58022">
        <ele>1104.339</ele>
        <time>2022-02-20T14:44:59Z</time>
      </trkpt>
      <trkpt lat="42.75024" lon="1.58019">
        <ele>1103.3</ele>
        <time>2022-02-20T14:45:01Z</time>
      </trkpt>
      <trkpt lat="42.75025" lon="1.58016">
        <ele>1103.188</ele>
        <time>2022-02-20T14:45:03Z</time>
      </trkpt>
      <trkpt lat="42.75026" lon="1.58013">
        <ele>1102.911</ele>
        <time>2022-02-20T14:45:05Z</time>
      </trkpt>
      <trkpt lat="42.75026" lon="1.58009">
        <ele>1102.714</ele>
        <time>2022-02-20T14:45:07Z</time>
      </trkpt>
      <trkpt lat="42.75027" lon="1.58006">
        <ele>1101.516</ele>
        <time>2022-02-20T14:45:09Z</time>
      </trkpt>
      <trkpt lat="42.75029" lon="1.58002">
        <ele>1101.43</ele>
        <time>2022-02-20T14:45:11Z</time>
      </trkpt>
      <trkpt lat="42.75031" lon="1.57999">
        <ele>1100.02</ele>
        <time>2022-02-20T14:45:13Z</time>
      </trkpt>
      <trkpt lat="42.75032" lon="1.57996">
        <ele>1100.086</ele>
        <time>2022-02-20T14:45:15Z</time>
      </trkpt>
      <trkpt lat="42.75033" lon="1.57993">
        <ele>1099.993</ele>
        <time>2022-02-20T14:45:17Z</time>
      </trkpt>
      <trkpt lat="42.75034" lon="1.57989">
        <ele>1098.91</ele>
        <time>2022-02-20T14:45:19Z</time>
      </trkpt>
      <trkpt lat="42.75035" lon="1.57985">
        <ele>1099.926</ele>
        <time>2022-02-20T14:45:21Z</time>
      </trkpt>
      <trkpt lat="42.75036" lon="1.57981">
        <ele>1099.949</ele>
        <time>2022-02-20T14:45:23Z</time>
      </trkpt>
      <trkpt lat="42.75038" lon="1.57978">
        <ele>1099.692</ele>
        <time>2022-02-20T14:45:25Z</time>
      </trkpt>
      <trkpt lat="42.75039" lon="1.57975">
        <ele>1099.634</ele>
        <time>2022-02-20T14:45:27Z</time>
      </trkpt>
      <trkpt lat="42.75039" lon="1.57972">
        <ele>1099.729</ele>
        <time>2022-02-20T14:45:29Z</time>
      </trkpt>
      <trkpt lat="42.7504" lon="1.57968">
        <ele>1099.392</ele>
        <time>2022-02-20T14:45:31Z</time>
      </trkpt>
      <trkpt lat="42.75041" lon="1.57965">
        <ele>1098.453</ele>
        <time>2022-02-20T14:45:33Z</time>
      </trkpt>
      <trkpt lat="42.75042" lon="1.57962">
        <ele>1098.098</ele>
        <time>2022-02-20T14:45:35Z</time>
      </trkpt>
      <trkpt lat="42.75043" lon="1.57958">
        <ele>1097.787</ele>
        <time>2022-02-20T14:45:37Z</time>
      </trkpt>
      <trkpt lat="42.75043" lon="1.57955">
        <ele>1097.909</ele>
        <time>2022-02-20T14:45:39Z</time>
      </trkpt>
      <trkpt lat="42.75044" lon="1.57951">
        <ele>1097.679</ele>
        <time>2022-02-20T14:45:41Z</time>
      </trkpt>
      <trkpt lat="42.75045" lon="1.57948">
        <ele>1096.959</ele>
        <time>2022-02-20T14:45:43Z</time>
      </trkpt>
      <trkpt lat="42.75046" lon="1.57944">
        <ele>1097.889</ele>
        <time>2022-02-20T14:45:45Z</time>
      </trkpt>
      <trkpt lat="42.75046" lon="1.5794">
        <ele>1097.485</ele>
        <time>2022-02-20T14:45:47Z</time>
      </trkpt>
      <trkpt lat="42.75046" lon="1.57937">
        <ele>1097.828</ele>
        <time>2022-02-20T14:45:49Z</time>
      </trkpt>
      <trkpt lat="42.75047" lon="1.57933">
        <ele>1097.619</ele>
        <time>2022-02-20T14:45:51Z</time>
      </trkpt>
      <trkpt lat="42.75047" lon="1.5793">
        <ele>1096.836</ele>
        <time>2022-02-20T14:45:53Z</time>
      </trkpt>
      <trkpt lat="42.75047" lon="1.57926">
        <ele>1096.213</ele>
        <time>2022-02-20T14:45:55Z</time>
      </trkpt>
      <trkpt lat="42.75048" lon="1.57922">
        <ele>1095.534</ele>
        <time>2022-02-20T14:45:57Z</time>
      </trkpt>
      <trkpt lat="42.75048" lon="1.57919">
        <ele>1094.705</ele>
        <time>2022-02-20T14:45:59Z</time>
      </trkpt>
      <trkpt lat="42.75048" lon="1.57915">
        <ele>1093.868</ele>
        <time>2022-02-20T14:46:01Z</time>
      </trkpt>
      <trkpt lat="42.75048" lon="1.57911">
        <ele>1093.15</ele>
        <time>2022-02-20T14:46:03Z</time>
      </trkpt>
      <trkpt lat="42.75049" lon="1.57908">
        <ele>1092.151</ele>
        <time>2022-02-20T14:46:05Z</time>
      </trkpt>
      <trkpt lat="42.75048" lon="1.57904">
        <ele>1091.575</ele>
        <time>2022-02-20T14:46:07Z</time>
      </trkpt>
      <trkpt lat="42.75048" lon="1.579">
        <ele>1091.706</ele>
        <time>2022-02-20T14:46:09Z</time>
      </trkpt>
      <trkpt lat="42.75048" lon="1.57897">
        <ele>1091.257</ele>
        <time>2022-02-20T14:46:11Z</time>
      </trkpt>
      <trkpt lat="42.75048" lon="1.57893">
        <ele>1090.529</ele>
        <time>2022-02-20T14:46:13Z</time>
      </trkpt>
      <trkpt lat="42.75047" lon="1.5789">
        <ele>1089.83</ele>
        <time>2022-02-20T14:46:15Z</time>
      </trkpt>
      <trkpt lat="42.75047" lon="1.57886">
        <ele>1089.645</ele>
        <time>2022-02-20T14:46:17Z</time>
      </trkpt>
      <trkpt lat="42.75047" lon="1.57883">
        <ele>1089.383</ele>
        <time>2022-02-20T14:46:19Z</time>
      </trkpt>
      <trkpt lat="42.75047" lon="1.5788">
        <ele>1088.776</ele>
        <time>2022-02-20T14:46:21Z</time>
      </trkpt>
      <trkpt lat="42.75046" lon="1.57876">
        <ele>1088.871</ele>
        <time>2022-02-20T14:46:23Z</time>
      </trkpt>
      <trkpt lat="42.75046" lon="1.57873">
        <ele>1088.672</ele>
        <time>2022-02-20T14:46:25Z</time>
      </trkpt>
      <trkpt lat="42.75046" lon="1.57869">
        <ele>1088.156</ele>
        <time>2022-02-20T14:46:27Z</time>
      </trkpt>
      <trkpt lat="42.75046" lon="1.57865">
        <ele>1087.655</ele>
        <time>2022-02-20T14:46:29Z</time>
      </trkpt>
      <trkpt lat="42.75046" lon="1.57861">
        <ele>1088.401</ele>
        <time>2022-02-20T14:46:31Z</time>
      </trkpt>
      <trkpt lat="42.75046" lon="1.57857">
        <ele>1088.214</ele>
        <time>2022-02-20T14:46:33Z</time>
      </trkpt>
      <trkpt lat="42.75045" lon="1.57853">
        <ele>1088.708</ele>
        <time>2022-02-20T14:46:35Z</time>
      </trkpt>
      <trkpt lat="42.75045" lon="1.57849">
        <ele>1088.743</ele>
        <time>2022-02-20T14:46:37Z</time>
      </trkpt>
      <trkpt lat="42.75045" lon="1.57845">
        <ele>1088.947</ele>
        <time>2022-02-20T14:46:39Z</time>
      </trkpt>
      <trkpt lat="42.75045" lon="1.57841">
        <ele>1089.414</ele>
        <time>2022-02-20T14:46:41Z</time>
      </trkpt>
      <trkpt lat="42.75045" lon="1.57838">
        <ele>1089.2</ele>
        <time>2022-02-20T14:46:43Z</time>
      </trkpt>
      <trkpt lat="42.75044" lon="1.57834">
        <ele>1087.788</ele>
        <time>2022-02-20T14:46:45Z</time>
      </trkpt>
      <trkpt lat="42.75044" lon="1.5783">
        <ele>1087.239</ele>
        <time>2022-02-20T14:46:47Z</time>
      </trkpt>
      <trkpt lat="42.75044" lon="1.57826">
        <ele>1087.187</ele>
        <time>2022-02-20T14:46:49Z</time>
      </trkpt>
      <trkpt lat="42.75043" lon="1.57823">
        <ele>1087.521</ele>
        <time>2022-02-20T14:46:51Z</time>
      </trkpt>
      <trkpt lat="42.75043" lon="1.57819">
        <ele>1087.185</ele>
        <time>2022-02-20T14:46:53Z</time>
      </trkpt>
      <trkpt lat="42.75043" lon="1.57815">
        <ele>1087.151</ele>
        <time>2022-02-20T14:46:55Z</time>
      </trkpt>
      <trkpt lat="42.75043" lon="1.57811">
        <ele>1087.482</ele>
        <time>2022-02-20T14:46:57Z</time>
      </trkpt>
      <trkpt lat="42.75043" lon="1.57807">
        <ele>1087.297</ele>
        <time>2022-02-20T14:46:59Z</time>
      </trkpt>
      <trkpt lat="42.75043" lon="1.57803">
        <ele>1086.848</ele>
        <time>2022-02-20T14:47:01Z</time>
      </trkpt>
      <trkpt lat="42.75043" lon="1.57799">
        <ele>1086.909</ele>
        <time>2022-02-20T14:47:03Z</time>
      </trkpt>
      <trkpt lat="42.75043" lon="1.57796">
        <ele>1087.183</ele>
        <time>2022-02-20T14:47:05Z</time>
      </trkpt>
      <trkpt lat="42.75043" lon="1.57792">
        <ele>1086.19</ele>
        <time>2022-02-20T14:47:07Z</time>
      </trkpt>
      <trkpt lat="42.75043" lon="1.57788">
        <ele>1085.482</ele>
        <time>2022-02-20T14:47:09Z</time>
      </trkpt>
      <trkpt lat="42.75043" lon="1.57784">
        <ele>1086.04</ele>
        <time>2022-02-20T14:47:11Z</time>
      </trkpt>
      <trkpt lat="42.75043" lon="1.5778">
        <ele>1085.605</ele>
        <time>2022-02-20T14:47:13Z</time>
      </trkpt>
      <trkpt lat="42.75043" lon="1.57775">
        <ele>1085.577</ele>
        <time>2022-02-20T14:47:15Z</time>
      </trkpt>
      <trkpt lat="42.75044" lon="1.57772">
        <ele>1085.096</ele>
        <time>2022-02-20T14:47:17Z</time>
      </trkpt>
      <trkpt lat="42.75043" lon="1.57768">
        <ele>1085.025</ele>
        <time>2022-02-20T14:47:19Z</time>
      </trkpt>
      <trkpt lat="42.75043" lon="1.57764">
        <ele>1086.267</ele>
        <time>2022-02-20T14:47:21Z</time>
      </trkpt>
      <trkpt lat="42.75044" lon="1.5776">
        <ele>1086.149</ele>
        <time>2022-02-20T14:47:23Z</time>
      </trkpt>
      <trkpt lat="42.75043" lon="1.57756">
        <ele>1086.446</ele>
        <time>2022-02-20T14:47:25Z</time>
      </trkpt>
      <trkpt lat="42.75042" lon="1.57752">
        <ele>1086.701</ele>
        <time>2022-02-20T14:47:27Z</time>
      </trkpt>
      <trkpt lat="42.75042" lon="1.57748">
        <ele>1086.177</ele>
        <time>2022-02-20T14:47:29Z</time>
      </trkpt>
      <trkpt lat="42.75041" lon="1.57745">
        <ele>1087.231</ele>
        <time>2022-02-20T14:47:31Z</time>
      </trkpt>
      <trkpt lat="42.7504" lon="1.57741">
        <ele>1086.675</ele>
        <time>2022-02-20T14:47:33Z</time>
      </trkpt>
      <trkpt lat="42.7504" lon="1.57737">
        <ele>1086.27</ele>
        <time>2022-02-20T14:47:35Z</time>
      </trkpt>
      <trkpt lat="42.75039" lon="1.57733">
        <ele>1085.637</ele>
        <time>2022-02-20T14:47:37Z</time>
      </trkpt>
      <trkpt lat="42.75038" lon="1.57729">
        <ele>1084.939</ele>
        <time>2022-02-20T14:47:39Z</time>
      </trkpt>
      <trkpt lat="42.75038" lon="1.57725">
        <ele>1085.891</ele>
        <time>2022-02-20T14:47:41Z</time>
      </trkpt>
      <trkpt lat="42.75037" lon="1.57721">
        <ele>1086.145</ele>
        <time>2022-02-20T14:47:43Z</time>
      </trkpt>
      <trkpt lat="42.75036" lon="1.57717">
        <ele>1086.999</ele>
        <time>2022-02-20T14:47:45Z</time>
      </trkpt>
      <trkpt lat="42.75036" lon="1.57713">
        <ele>1087.418</ele>
        <time>2022-02-20T14:47:47Z</time>
      </trkpt>
      <trkpt lat="42.75035" lon="1.5771">
        <ele>1087.623</ele>
        <time>2022-02-20T14:47:49Z</time>
      </trkpt>
      <trkpt lat="42.75035" lon="1.57706">
        <ele>1087.674</ele>
        <time>2022-02-20T14:47:51Z</time>
      </trkpt>
      <trkpt lat="42.75035" lon="1.57702">
        <ele>1087.698</ele>
        <time>2022-02-20T14:47:53Z</time>
      </trkpt>
      <trkpt lat="42.75036" lon="1.57698">
        <ele>1086.689</ele>
        <time>2022-02-20T14:47:55Z</time>
      </trkpt>
      <trkpt lat="42.75036" lon="1.57695">
        <ele>1084.874</ele>
        <time>2022-02-20T14:47:57Z</time>
      </trkpt>
      <trkpt lat="42.75037" lon="1.57692">
        <ele>1084.76</ele>
        <time>2022-02-20T14:47:59Z</time>
      </trkpt>
      <trkpt lat="42.75038" lon="1.57689">
        <ele>1083.942</ele>
        <time>2022-02-20T14:48:01Z</time>
      </trkpt>
      <trkpt lat="42.7504" lon="1.57686">
        <ele>1083.35</ele>
        <time>2022-02-20T14:48:03Z</time>
      </trkpt>
      <trkpt lat="42.75041" lon="1.57683">
        <ele>1082.124</ele>
        <time>2022-02-20T14:48:05Z</time>
      </trkpt>
      <trkpt lat="42.75043" lon="1.57681">
        <ele>1081.263</ele>
        <time>2022-02-20T14:48:07Z</time>
      </trkpt>
      <trkpt lat="42.75045" lon="1.57679">
        <ele>1080.41</ele>
        <time>2022-02-20T14:48:09Z</time>
      </trkpt>
      <trkpt lat="42.75046" lon="1.57676">
        <ele>1080.048</ele>
        <time>2022-02-20T14:48:11Z</time>
      </trkpt>
      <trkpt lat="42.75048" lon="1.57674">
        <ele>1079.585</ele>
        <time>2022-02-20T14:48:13Z</time>
      </trkpt>
      <trkpt lat="42.7505" lon="1.57671">
        <ele>1079.532</ele>
        <time>2022-02-20T14:48:15Z</time>
      </trkpt>
      <trkpt lat="42.75052" lon="1.57669">
        <ele>1079.245</ele>
        <time>2022-02-20T14:48:17Z</time>
      </trkpt>
      <trkpt lat="42.75053" lon="1.57666">
        <ele>1079.271</ele>
        <time>2022-02-20T14:48:19Z</time>
      </trkpt>
      <trkpt lat="42.75055" lon="1.57664">
        <ele>1078.615</ele>
        <time>2022-02-20T14:48:21Z</time>
      </trkpt>
      <trkpt lat="42.75056" lon="1.57661">
        <ele>1078.817</ele>
        <time>2022-02-20T14:48:23Z</time>
      </trkpt>
      <trkpt lat="42.75058" lon="1.57659">
        <ele>1079.132</ele>
        <time>2022-02-20T14:48:25Z</time>
      </trkpt>
      <trkpt lat="42.75059" lon="1.57656">
        <ele>1078.121</ele>
        <time>2022-02-20T14:48:27Z</time>
      </trkpt>
      <trkpt lat="42.75061" lon="1.57653">
        <ele>1078.186</ele>
        <time>2022-02-20T14:48:29Z</time>
      </trkpt>
      <trkpt lat="42.75063" lon="1.57651">
        <ele>1078.252</ele>
        <time>2022-02-20T14:48:31Z</time>
      </trkpt>
      <trkpt lat="42.75065" lon="1.5765">
        <ele>1077.334</ele>
        <time>2022-02-20T14:48:33Z</time>
      </trkpt>
      <trkpt lat="42.75068" lon="1.57648">
        <ele>1074.976</ele>
        <time>2022-02-20T14:48:35Z</time>
      </trkpt>
      <trkpt lat="42.7507" lon="1.57647">
        <ele>1074.901</ele>
        <time>2022-02-20T14:48:37Z</time>
      </trkpt>
      <trkpt lat="42.75073" lon="1.57647">
        <ele>1074.681</ele>
        <time>2022-02-20T14:48:39Z</time>
      </trkpt>
      <trkpt lat="42.75075" lon="1.57645">
        <ele>1075.457</ele>
        <time>2022-02-20T14:48:41Z</time>
      </trkpt>
      <trkpt lat="42.75078" lon="1.57643">
        <ele>1075.492</ele>
        <time>2022-02-20T14:48:43Z</time>
      </trkpt>
      <trkpt lat="42.75081" lon="1.57641">
        <ele>1074.895</ele>
        <time>2022-02-20T14:48:45Z</time>
      </trkpt>
      <trkpt lat="42.75084" lon="1.57641">
        <ele>1074.57</ele>
        <time>2022-02-20T14:48:47Z</time>
      </trkpt>
      <trkpt lat="42.75086" lon="1.57641">
        <ele>1075.236</ele>
        <time>2022-02-20T14:48:49Z</time>
      </trkpt>
      <trkpt lat="42.75089" lon="1.57642">
        <ele>1074.698</ele>
        <time>2022-02-20T14:48:51Z</time>
      </trkpt>
      <trkpt lat="42.75091" lon="1.57643">
        <ele>1074.761</ele>
        <time>2022-02-20T14:48:53Z</time>
      </trkpt>
      <trkpt lat="42.75093" lon="1.57643">
        <ele>1074.829</ele>
        <time>2022-02-20T14:48:55Z</time>
      </trkpt>
      <trkpt lat="42.75095" lon="1.57644">
        <ele>1074.827</ele>
        <time>2022-02-20T14:48:57Z</time>
      </trkpt>
      <trkpt lat="42.75098" lon="1.57645">
        <ele>1073.802</ele>
        <time>2022-02-20T14:48:59Z</time>
      </trkpt>
      <trkpt lat="42.751" lon="1.57645">
        <ele>1072.439</ele>
        <time>2022-02-20T14:49:01Z</time>
      </trkpt>
      <trkpt lat="42.75103" lon="1.57646">
        <ele>1072.994</ele>
        <time>2022-02-20T14:49:03Z</time>
      </trkpt>
      <trkpt lat="42.75105" lon="1.57647">
        <ele>1073.768</ele>
        <time>2022-02-20T14:49:05Z</time>
      </trkpt>
      <trkpt lat="42.75108" lon="1.57647">
        <ele>1074.196</ele>
        <time>2022-02-20T14:49:07Z</time>
      </trkpt>
      <trkpt lat="42.75111" lon="1.57647">
        <ele>1075.098</ele>
        <time>2022-02-20T14:49:09Z</time>
      </trkpt>
      <trkpt lat="42.75113" lon="1.57646">
        <ele>1076.541</ele>
        <time>2022-02-20T14:49:11Z</time>
      </trkpt>
      <trkpt lat="42.75116" lon="1.57646">
        <ele>1077.853</ele>
        <time>2022-02-20T14:49:13Z</time>
      </trkpt>
      <trkpt lat="42.75118" lon="1.57645">
        <ele>1080.446</ele>
        <time>2022-02-20T14:49:15Z</time>
      </trkpt>
      <trkpt lat="42.7512" lon="1.57645">
        <ele>1079.452</ele>
        <time>2022-02-20T14:49:17Z</time>
      </trkpt>
      <trkpt lat="42.75122" lon="1.57644">
        <ele>1077.584</ele>
        <time>2022-02-20T14:49:19Z</time>
      </trkpt>
      <trkpt lat="42.75125" lon="1.57644">
        <ele>1076.602</ele>
        <time>2022-02-20T14:49:21Z</time>
      </trkpt>
      <trkpt lat="42.75126" lon="1.57643">
        <ele>1075.94</ele>
        <time>2022-02-20T14:49:23Z</time>
      </trkpt>
      <trkpt lat="42.75129" lon="1.57642">
        <ele>1074.927</ele>
        <time>2022-02-20T14:49:25Z</time>
      </trkpt>
      <trkpt lat="42.75132" lon="1.5764">
        <ele>1074.32</ele>
        <time>2022-02-20T14:49:27Z</time>
      </trkpt>
      <trkpt lat="42.75135" lon="1.57639">
        <ele>1072.907</ele>
        <time>2022-02-20T14:49:29Z</time>
      </trkpt>
      <trkpt lat="42.75137" lon="1.57637">
        <ele>1072.7</ele>
        <time>2022-02-20T14:49:31Z</time>
      </trkpt>
      <trkpt lat="42.75139" lon="1.57636">
        <ele>1073.68</ele>
        <time>2022-02-20T14:49:33Z</time>
      </trkpt>
      <trkpt lat="42.75141" lon="1.57634">
        <ele>1074.506</ele>
        <time>2022-02-20T14:49:35Z</time>
      </trkpt>
      <trkpt lat="42.75144" lon="1.57633">
        <ele>1073.094</ele>
        <time>2022-02-20T14:49:37Z</time>
      </trkpt>
      <trkpt lat="42.75146" lon="1.57632">
        <ele>1071.055</ele>
        <time>2022-02-20T14:49:39Z</time>
      </trkpt>
      <trkpt lat="42.75148" lon="1.57631">
        <ele>1070.333</ele>
        <time>2022-02-20T14:49:41Z</time>
      </trkpt>
      <trkpt lat="42.75151" lon="1.57629">
        <ele>1070.776</ele>
        <time>2022-02-20T14:49:43Z</time>
      </trkpt>
      <trkpt lat="42.75153" lon="1.57628">
        <ele>1069.791</ele>
        <time>2022-02-20T14:49:45Z</time>
      </trkpt>
      <trkpt lat="42.75156" lon="1.57627">
        <ele>1070.059</ele>
        <time>2022-02-20T14:49:47Z</time>
      </trkpt>
      <trkpt lat="42.75158" lon="1.57626">
        <ele>1069.969</ele>
        <time>2022-02-20T14:49:49Z</time>
      </trkpt>
      <trkpt lat="42.7516" lon="1.57625">
        <ele>1069.415</ele>
        <time>2022-02-20T14:49:51Z</time>
      </trkpt>
      <trkpt lat="42.75162" lon="1.57624">
        <ele>1068.251</ele>
        <time>2022-02-20T14:49:53Z</time>
      </trkpt>
      <trkpt lat="42.75165" lon="1.57624">
        <ele>1068.277</ele>
        <time>2022-02-20T14:49:55Z</time>
      </trkpt>
      <trkpt lat="42.75167" lon="1.57623">
        <ele>1067.501</ele>
        <time>2022-02-20T14:49:57Z</time>
      </trkpt>
      <trkpt lat="42.7517" lon="1.57622">
        <ele>1067.581</ele>
        <time>2022-02-20T14:49:59Z</time>
      </trkpt>
      <trkpt lat="42.75172" lon="1.57621">
        <ele>1066.583</ele>
        <time>2022-02-20T14:50:01Z</time>
      </trkpt>
      <trkpt lat="42.75174" lon="1.5762">
        <ele>1066.13</ele>
        <time>2022-02-20T14:50:03Z</time>
      </trkpt>
      <trkpt lat="42.75177" lon="1.57619">
        <ele>1064.99</ele>
        <time>2022-02-20T14:50:05Z</time>
      </trkpt>
      <trkpt lat="42.7518" lon="1.57619">
        <ele>1064.107</ele>
        <time>2022-02-20T14:50:07Z</time>
      </trkpt>
      <trkpt lat="42.75183" lon="1.57617">
        <ele>1063.84</ele>
        <time>2022-02-20T14:50:09Z</time>
      </trkpt>
      <trkpt lat="42.75185" lon="1.57617">
        <ele>1062.064</ele>
        <time>2022-02-20T14:50:11Z</time>
      </trkpt>
      <trkpt lat="42.75187" lon="1.57616">
        <ele>1062.64</ele>
        <time>2022-02-20T14:50:13Z</time>
      </trkpt>
      <trkpt lat="42.7519" lon="1.57615">
        <ele>1063.895</ele>
        <time>2022-02-20T14:50:15Z</time>
      </trkpt>
      <trkpt lat="42.75192" lon="1.57615">
        <ele>1063.809</ele>
        <time>2022-02-20T14:50:17Z</time>
      </trkpt>
      <trkpt lat="42.75195" lon="1.57614">
        <ele>1064.336</ele>
        <time>2022-02-20T14:50:19Z</time>
      </trkpt>
      <trkpt lat="42.75198" lon="1.57613">
        <ele>1065.258</ele>
        <time>2022-02-20T14:50:21Z</time>
      </trkpt>
      <trkpt lat="42.752" lon="1.57612">
        <ele>1064.726</ele>
        <time>2022-02-20T14:50:23Z</time>
      </trkpt>
      <trkpt lat="42.75203" lon="1.57612">
        <ele>1064.752</ele>
        <time>2022-02-20T14:50:25Z</time>
      </trkpt>
      <trkpt lat="42.75206" lon="1.57612">
        <ele>1063.206</ele>
        <time>2022-02-20T14:50:27Z</time>
      </trkpt>
      <trkpt lat="42.75209" lon="1.57611">
        <ele>1065.793</ele>
        <time>2022-02-20T14:50:29Z</time>
      </trkpt>
      <trkpt lat="42.75212" lon="1.5761">
        <ele>1066.078</ele>
        <time>2022-02-20T14:50:31Z</time>
      </trkpt>
      <trkpt lat="42.75215" lon="1.57609">
        <ele>1067.156</ele>
        <time>2022-02-20T14:50:33Z</time>
      </trkpt>
      <trkpt lat="42.75218" lon="1.57609">
        <ele>1067.468</ele>
        <time>2022-02-20T14:50:35Z</time>
      </trkpt>
      <trkpt lat="42.7522" lon="1.57608">
        <ele>1068.635</ele>
        <time>2022-02-20T14:50:37Z</time>
      </trkpt>
      <trkpt lat="42.75223" lon="1.57608">
        <ele>1067.899</ele>
        <time>2022-02-20T14:50:39Z</time>
      </trkpt>
      <trkpt lat="42.75226" lon="1.57608">
        <ele>1066.757</ele>
        <time>2022-02-20T14:50:41Z</time>
      </trkpt>
      <trkpt lat="42.75228" lon="1.57608">
        <ele>1067.297</ele>
        <time>2022-02-20T14:50:43Z</time>
      </trkpt>
      <trkpt lat="42.75231" lon="1.57607">
        <ele>1068.621</ele>
        <time>2022-02-20T14:50:45Z</time>
      </trkpt>
      <trkpt lat="42.75235" lon="1.57605">
        <ele>1069.737</ele>
        <time>2022-02-20T14:50:48Z</time>
      </trkpt>
      <trkpt lat="42.75237" lon="1.57605">
        <ele>1069.353</ele>
        <time>2022-02-20T14:50:50Z</time>
      </trkpt>
      <trkpt lat="42.7524" lon="1.57604">
        <ele>1068.787</ele>
        <time>2022-02-20T14:50:52Z</time>
      </trkpt>
      <trkpt lat="42.75243" lon="1.57603">
        <ele>1068.947</ele>
        <time>2022-02-20T14:50:54Z</time>
      </trkpt>
      <trkpt lat="42.75246" lon="1.57602">
        <ele>1068.287</ele>
        <time>2022-02-20T14:50:56Z</time>
      </trkpt>
      <trkpt lat="42.75249" lon="1.57601">
        <ele>1068.559</ele>
        <time>2022-02-20T14:50:58Z</time>
      </trkpt>
      <trkpt lat="42.75252" lon="1.57601">
        <ele>1068.701</ele>
        <time>2022-02-20T14:51:00Z</time>
      </trkpt>
      <trkpt lat="42.75255" lon="1.57601">
        <ele>1067.629</ele>
        <time>2022-02-20T14:51:02Z</time>
      </trkpt>
      <trkpt lat="42.75258" lon="1.576">
        <ele>1067.027</ele>
        <time>2022-02-20T14:51:04Z</time>
      </trkpt>
      <trkpt lat="42.75261" lon="1.57599">
        <ele>1067.667</ele>
        <time>2022-02-20T14:51:06Z</time>
      </trkpt>
      <trkpt lat="42.75263" lon="1.57598">
        <ele>1068.09</ele>
        <time>2022-02-20T14:51:08Z</time>
      </trkpt>
      <trkpt lat="42.75266" lon="1.57598">
        <ele>1066.208</ele>
        <time>2022-02-20T14:51:10Z</time>
      </trkpt>
      <trkpt lat="42.75268" lon="1.57597">
        <ele>1066.791</ele>
        <time>2022-02-20T14:51:12Z</time>
      </trkpt>
      <trkpt lat="42.7527" lon="1.57596">
        <ele>1067.511</ele>
        <time>2022-02-20T14:51:14Z</time>
      </trkpt>
      <trkpt lat="42.75273" lon="1.57595">
        <ele>1066.069</ele>
        <time>2022-02-20T14:51:16Z</time>
      </trkpt>
      <trkpt lat="42.75275" lon="1.57593">
        <ele>1066.252</ele>
        <time>2022-02-20T14:51:18Z</time>
      </trkpt>
      <trkpt lat="42.75278" lon="1.57591">
        <ele>1065.615</ele>
        <time>2022-02-20T14:51:20Z</time>
      </trkpt>
      <trkpt lat="42.7528" lon="1.57589">
        <ele>1066.147</ele>
        <time>2022-02-20T14:51:22Z</time>
      </trkpt>
      <trkpt lat="42.75282" lon="1.57588">
        <ele>1065.403</ele>
        <time>2022-02-20T14:51:24Z</time>
      </trkpt>
      <trkpt lat="42.75285" lon="1.57586">
        <ele>1064.265</ele>
        <time>2022-02-20T14:51:26Z</time>
      </trkpt>
      <trkpt lat="42.75287" lon="1.57586">
        <ele>1064.303</ele>
        <time>2022-02-20T14:51:28Z</time>
      </trkpt>
      <trkpt lat="42.75289" lon="1.57585">
        <ele>1063.648</ele>
        <time>2022-02-20T14:51:30Z</time>
      </trkpt>
      <trkpt lat="42.75291" lon="1.57585">
        <ele>1061.699</ele>
        <time>2022-02-20T14:51:32Z</time>
      </trkpt>
      <trkpt lat="42.75294" lon="1.57585">
        <ele>1063.035</ele>
        <time>2022-02-20T14:51:34Z</time>
      </trkpt>
      <trkpt lat="42.75297" lon="1.57584">
        <ele>1063.693</ele>
        <time>2022-02-20T14:51:36Z</time>
      </trkpt>
      <trkpt lat="42.753" lon="1.57584">
        <ele>1062.826</ele>
        <time>2022-02-20T14:51:38Z</time>
      </trkpt>
      <trkpt lat="42.75303" lon="1.57584">
        <ele>1061.93</ele>
        <time>2022-02-20T14:51:40Z</time>
      </trkpt>
      <trkpt lat="42.75305" lon="1.57585">
        <ele>1061.864</ele>
        <time>2022-02-20T14:51:42Z</time>
      </trkpt>
      <trkpt lat="42.75308" lon="1.57586">
        <ele>1061.355</ele>
        <time>2022-02-20T14:51:44Z</time>
      </trkpt>
      <trkpt lat="42.7531" lon="1.57587">
        <ele>1060.024</ele>
        <time>2022-02-20T14:51:46Z</time>
      </trkpt>
      <trkpt lat="42.75313" lon="1.57587">
        <ele>1060.273</ele>
        <time>2022-02-20T14:51:48Z</time>
      </trkpt>
      <trkpt lat="42.75315" lon="1.57587">
        <ele>1059.325</ele>
        <time>2022-02-20T14:51:50Z</time>
      </trkpt>
      <trkpt lat="42.75318" lon="1.57586">
        <ele>1057.653</ele>
        <time>2022-02-20T14:51:52Z</time>
      </trkpt>
      <trkpt lat="42.75321" lon="1.57585">
        <ele>1058.142</ele>
        <time>2022-02-20T14:51:54Z</time>
      </trkpt>
      <trkpt lat="42.75323" lon="1.57585">
        <ele>1057.743</ele>
        <time>2022-02-20T14:51:56Z</time>
      </trkpt>
      <trkpt lat="42.75325" lon="1.57584">
        <ele>1058.641</ele>
        <time>2022-02-20T14:51:58Z</time>
      </trkpt>
      <trkpt lat="42.75328" lon="1.57583">
        <ele>1058.657</ele>
        <time>2022-02-20T14:52:00Z</time>
      </trkpt>
      <trkpt lat="42.75332" lon="1.57583">
        <ele>1056.684</ele>
        <time>2022-02-20T14:52:02Z</time>
      </trkpt>
      <trkpt lat="42.75334" lon="1.57583">
        <ele>1056.45</ele>
        <time>2022-02-20T14:52:04Z</time>
      </trkpt>
      <trkpt lat="42.75337" lon="1.57583">
        <ele>1056.053</ele>
        <time>2022-02-20T14:52:06Z</time>
      </trkpt>
      <trkpt lat="42.7534" lon="1.57583">
        <ele>1056.465</ele>
        <time>2022-02-20T14:52:08Z</time>
      </trkpt>
      <trkpt lat="42.75342" lon="1.57584">
        <ele>1057.81</ele>
        <time>2022-02-20T14:52:10Z</time>
      </trkpt>
      <trkpt lat="42.75345" lon="1.57585">
        <ele>1057.757</ele>
        <time>2022-02-20T14:52:12Z</time>
      </trkpt>
      <trkpt lat="42.75348" lon="1.57587">
        <ele>1056.273</ele>
        <time>2022-02-20T14:52:14Z</time>
      </trkpt>
      <trkpt lat="42.7535" lon="1.57589">
        <ele>1055.671</ele>
        <time>2022-02-20T14:52:16Z</time>
      </trkpt>
      <trkpt lat="42.75353" lon="1.57591">
        <ele>1053.314</ele>
        <time>2022-02-20T14:52:18Z</time>
      </trkpt>
      <trkpt lat="42.75355" lon="1.57593">
        <ele>1052.371</ele>
        <time>2022-02-20T14:52:20Z</time>
      </trkpt>
      <trkpt lat="42.75357" lon="1.57595">
        <ele>1053.171</ele>
        <time>2022-02-20T14:52:22Z</time>
      </trkpt>
      <trkpt lat="42.75359" lon="1.57596">
        <ele>1052.701</ele>
        <time>2022-02-20T14:52:24Z</time>
      </trkpt>
      <trkpt lat="42.75361" lon="1.57598">
        <ele>1052.951</ele>
        <time>2022-02-20T14:52:26Z</time>
      </trkpt>
      <trkpt lat="42.75364" lon="1.57599">
        <ele>1055.013</ele>
        <time>2022-02-20T14:52:28Z</time>
      </trkpt>
      <trkpt lat="42.75366" lon="1.57601">
        <ele>1055.96</ele>
        <time>2022-02-20T14:52:30Z</time>
      </trkpt>
      <trkpt lat="42.75369" lon="1.57602">
        <ele>1054.74</ele>
        <time>2022-02-20T14:52:32Z</time>
      </trkpt>
      <trkpt lat="42.75371" lon="1.57603">
        <ele>1054.743</ele>
        <time>2022-02-20T14:52:34Z</time>
      </trkpt>
      <trkpt lat="42.75374" lon="1.57605">
        <ele>1054.328</ele>
        <time>2022-02-20T14:52:36Z</time>
      </trkpt>
      <trkpt lat="42.75377" lon="1.57606">
        <ele>1052.961</ele>
        <time>2022-02-20T14:52:38Z</time>
      </trkpt>
      <trkpt lat="42.7538" lon="1.57607">
        <ele>1052.782</ele>
        <time>2022-02-20T14:52:40Z</time>
      </trkpt>
      <trkpt lat="42.75382" lon="1.57607">
        <ele>1052.702</ele>
        <time>2022-02-20T14:52:42Z</time>
      </trkpt>
      <trkpt lat="42.75385" lon="1.57608">
        <ele>1052.397</ele>
        <time>2022-02-20T14:52:44Z</time>
      </trkpt>
      <trkpt lat="42.75387" lon="1.57608">
        <ele>1053.507</ele>
        <time>2022-02-20T14:52:46Z</time>
      </trkpt>
      <trkpt lat="42.7539" lon="1.57609">
        <ele>1055.407</ele>
        <time>2022-02-20T14:52:48Z</time>
      </trkpt>
      <trkpt lat="42.75393" lon="1.5761">
        <ele>1052.838</ele>
        <time>2022-02-20T14:52:50Z</time>
      </trkpt>
      <trkpt lat="42.75395" lon="1.5761">
        <ele>1053.413</ele>
        <time>2022-02-20T14:52:52Z</time>
      </trkpt>
      <trkpt lat="42.75398" lon="1.5761">
        <ele>1052.914</ele>
        <time>2022-02-20T14:52:54Z</time>
      </trkpt>
      <trkpt lat="42.75401" lon="1.5761">
        <ele>1053.114</ele>
        <time>2022-02-20T14:52:56Z</time>
      </trkpt>
      <trkpt lat="42.75403" lon="1.57609">
        <ele>1053.228</ele>
        <time>2022-02-20T14:52:58Z</time>
      </trkpt>
      <trkpt lat="42.75407" lon="1.57609">
        <ele>1052.648</ele>
        <time>2022-02-20T14:53:00Z</time>
      </trkpt>
      <trkpt lat="42.7541" lon="1.57609">
        <ele>1051.555</ele>
        <time>2022-02-20T14:53:02Z</time>
      </trkpt>
      <trkpt lat="42.75413" lon="1.57609">
        <ele>1047.905</ele>
        <time>2022-02-20T14:53:04Z</time>
      </trkpt>
      <trkpt lat="42.75416" lon="1.57609">
        <ele>1047.488</ele>
        <time>2022-02-20T14:53:06Z</time>
      </trkpt>
      <trkpt lat="42.75419" lon="1.5761">
        <ele>1046.633</ele>
        <time>2022-02-20T14:53:08Z</time>
      </trkpt>
      <trkpt lat="42.75421" lon="1.57609">
        <ele>1046.565</ele>
        <time>2022-02-20T14:53:10Z</time>
      </trkpt>
      <trkpt lat="42.75423" lon="1.57608">
        <ele>1047.175</ele>
        <time>2022-02-20T14:53:12Z</time>
      </trkpt>
      <trkpt lat="42.75426" lon="1.57608">
        <ele>1047.379</ele>
        <time>2022-02-20T14:53:14Z</time>
      </trkpt>
      <trkpt lat="42.75428" lon="1.57608">
        <ele>1047.819</ele>
        <time>2022-02-20T14:53:16Z</time>
      </trkpt>
      <trkpt lat="42.75431" lon="1.57608">
        <ele>1047.736</ele>
        <time>2022-02-20T14:53:18Z</time>
      </trkpt>
      <trkpt lat="42.75433" lon="1.57607">
        <ele>1047.673</ele>
        <time>2022-02-20T14:53:20Z</time>
      </trkpt>
      <trkpt lat="42.75436" lon="1.57607">
        <ele>1046.766</ele>
        <time>2022-02-20T14:53:22Z</time>
      </trkpt>
      <trkpt lat="42.75439" lon="1.57605">
        <ele>1046.423</ele>
        <time>2022-02-20T14:53:24Z</time>
      </trkpt>
      <trkpt lat="42.75442" lon="1.57605">
        <ele>1045.889</ele>
        <time>2022-02-20T14:53:26Z</time>
      </trkpt>
      <trkpt lat="42.75444" lon="1.57605">
        <ele>1045.549</ele>
        <time>2022-02-20T14:53:28Z</time>
      </trkpt>
      <trkpt lat="42.75447" lon="1.57604">
        <ele>1045.335</ele>
        <time>2022-02-20T14:53:30Z</time>
      </trkpt>
      <trkpt lat="42.75449" lon="1.57603">
        <ele>1044.892</ele>
        <time>2022-02-20T14:53:32Z</time>
      </trkpt>
      <trkpt lat="42.75452" lon="1.57603">
        <ele>1045.164</ele>
        <time>2022-02-20T14:53:34Z</time>
      </trkpt>
      <trkpt lat="42.75455" lon="1.57601">
        <ele>1045.159</ele>
        <time>2022-02-20T14:53:36Z</time>
      </trkpt>
      <trkpt lat="42.75458" lon="1.57601">
        <ele>1045.37</ele>
        <time>2022-02-20T14:53:38Z</time>
      </trkpt>
      <trkpt lat="42.75461" lon="1.57601">
        <ele>1045.192</ele>
        <time>2022-02-20T14:53:40Z</time>
      </trkpt>
      <trkpt lat="42.75464" lon="1.57601">
        <ele>1044.329</ele>
        <time>2022-02-20T14:53:42Z</time>
      </trkpt>
      <trkpt lat="42.75466" lon="1.57602">
        <ele>1043.861</ele>
        <time>2022-02-20T14:53:44Z</time>
      </trkpt>
      <trkpt lat="42.75469" lon="1.57602">
        <ele>1043.935</ele>
        <time>2022-02-20T14:53:46Z</time>
      </trkpt>
      <trkpt lat="42.75472" lon="1.57601">
        <ele>1044.397</ele>
        <time>2022-02-20T14:53:48Z</time>
      </trkpt>
      <trkpt lat="42.75474" lon="1.57601">
        <ele>1043.943</ele>
        <time>2022-02-20T14:53:50Z</time>
      </trkpt>
      <trkpt lat="42.75476" lon="1.57601">
        <ele>1045.208</ele>
        <time>2022-02-20T14:53:52Z</time>
      </trkpt>
      <trkpt lat="42.75479" lon="1.576">
        <ele>1045.903</ele>
        <time>2022-02-20T14:53:54Z</time>
      </trkpt>
      <trkpt lat="42.75482" lon="1.576">
        <ele>1045.748</ele>
        <time>2022-02-20T14:53:56Z</time>
      </trkpt>
      <trkpt lat="42.75484" lon="1.57599">
        <ele>1044.127</ele>
        <time>2022-02-20T14:53:58Z</time>
      </trkpt>
      <trkpt lat="42.75487" lon="1.57598">
        <ele>1043.502</ele>
        <time>2022-02-20T14:54:00Z</time>
      </trkpt>
      <trkpt lat="42.75489" lon="1.57596">
        <ele>1044.644</ele>
        <time>2022-02-20T14:54:02Z</time>
      </trkpt>
      <trkpt lat="42.75491" lon="1.57594">
        <ele>1044.336</ele>
        <time>2022-02-20T14:54:04Z</time>
      </trkpt>
      <trkpt lat="42.75494" lon="1.57593">
        <ele>1043.918</ele>
        <time>2022-02-20T14:54:06Z</time>
      </trkpt>
      <trkpt lat="42.75496" lon="1.57592">
        <ele>1043.953</ele>
        <time>2022-02-20T14:54:08Z</time>
      </trkpt>
      <trkpt lat="42.75499" lon="1.57591">
        <ele>1043.72</ele>
        <time>2022-02-20T14:54:10Z</time>
      </trkpt>
      <trkpt lat="42.75501" lon="1.5759">
        <ele>1043.465</ele>
        <time>2022-02-20T14:54:12Z</time>
      </trkpt>
      <trkpt lat="42.75504" lon="1.5759">
        <ele>1041.936</ele>
        <time>2022-02-20T14:54:14Z</time>
      </trkpt>
      <trkpt lat="42.75506" lon="1.57589">
        <ele>1041.953</ele>
        <time>2022-02-20T14:54:16Z</time>
      </trkpt>
      <trkpt lat="42.75509" lon="1.57588">
        <ele>1042.91</ele>
        <time>2022-02-20T14:54:18Z</time>
      </trkpt>
      <trkpt lat="42.75512" lon="1.57588">
        <ele>1042.733</ele>
        <time>2022-02-20T14:54:20Z</time>
      </trkpt>
      <trkpt lat="42.75514" lon="1.57588">
        <ele>1039.945</ele>
        <time>2022-02-20T14:54:22Z</time>
      </trkpt>
      <trkpt lat="42.75517" lon="1.57588">
        <ele>1038.494</ele>
        <time>2022-02-20T14:54:24Z</time>
      </trkpt>
      <trkpt lat="42.7552" lon="1.57587">
        <ele>1038.279</ele>
        <time>2022-02-20T14:54:26Z</time>
      </trkpt>
      <trkpt lat="42.75522" lon="1.57587">
        <ele>1037.998</ele>
        <time>2022-02-20T14:54:28Z</time>
      </trkpt>
      <trkpt lat="42.75525" lon="1.57586">
        <ele>1037.197</ele>
        <time>2022-02-20T14:54:30Z</time>
      </trkpt>
      <trkpt lat="42.75528" lon="1.57585">
        <ele>1036.571</ele>
        <time>2022-02-20T14:54:32Z</time>
      </trkpt>
      <trkpt lat="42.7553" lon="1.57584">
        <ele>1038.981</ele>
        <time>2022-02-20T14:54:34Z</time>
      </trkpt>
      <trkpt lat="42.75533" lon="1.57584">
        <ele>1037.554</ele>
        <time>2022-02-20T14:54:36Z</time>
      </trkpt>
      <trkpt lat="42.75536" lon="1.57585">
        <ele>1037.557</ele>
        <time>2022-02-20T14:54:38Z</time>
      </trkpt>
      <trkpt lat="42.75539" lon="1.57584">
        <ele>1037.066</ele>
        <time>2022-02-20T14:54:40Z</time>
      </trkpt>
      <trkpt lat="42.75541" lon="1.57584">
        <ele>1036.388</ele>
        <time>2022-02-20T14:54:42Z</time>
      </trkpt>
      <trkpt lat="42.75544" lon="1.57583">
        <ele>1036.195</ele>
        <time>2022-02-20T14:54:44Z</time>
      </trkpt>
      <trkpt lat="42.75546" lon="1.57582">
        <ele>1036.326</ele>
        <time>2022-02-20T14:54:46Z</time>
      </trkpt>
      <trkpt lat="42.75549" lon="1.57581">
        <ele>1036.566</ele>
        <time>2022-02-20T14:54:48Z</time>
      </trkpt>
      <trkpt lat="42.75551" lon="1.57581">
        <ele>1036.843</ele>
        <time>2022-02-20T14:54:50Z</time>
      </trkpt>
      <trkpt lat="42.75555" lon="1.57582">
        <ele>1036.459</ele>
        <time>2022-02-20T14:54:52Z</time>
      </trkpt>
      <trkpt lat="42.75557" lon="1.57582">
        <ele>1037.002</ele>
        <time>2022-02-20T14:54:54Z</time>
      </trkpt>
      <trkpt lat="42.7556" lon="1.57581">
        <ele>1039.288</ele>
        <time>2022-02-20T14:54:56Z</time>
      </trkpt>
      <trkpt lat="42.75563" lon="1.57581">
        <ele>1040.173</ele>
        <time>2022-02-20T14:54:58Z</time>
      </trkpt>
      <trkpt lat="42.75566" lon="1.57579">
        <ele>1041.973</ele>
        <time>2022-02-20T14:55:00Z</time>
      </trkpt>
      <trkpt lat="42.75569" lon="1.57579">
        <ele>1041.384</ele>
        <time>2022-02-20T14:55:02Z</time>
      </trkpt>
      <trkpt lat="42.75571" lon="1.57578">
        <ele>1040.84</ele>
        <time>2022-02-20T14:55:04Z</time>
      </trkpt>
      <trkpt lat="42.75574" lon="1.57579">
        <ele>1040.368</ele>
        <time>2022-02-20T14:55:06Z</time>
      </trkpt>
      <trkpt lat="42.75577" lon="1.57579">
        <ele>1038.63</ele>
        <time>2022-02-20T14:55:08Z</time>
      </trkpt>
      <trkpt lat="42.7558" lon="1.57579">
        <ele>1038.783</ele>
        <time>2022-02-20T14:55:10Z</time>
      </trkpt>
      <trkpt lat="42.75583" lon="1.57579">
        <ele>1037.977</ele>
        <time>2022-02-20T14:55:12Z</time>
      </trkpt>
      <trkpt lat="42.75585" lon="1.5758">
        <ele>1038.746</ele>
        <time>2022-02-20T14:55:14Z</time>
      </trkpt>
      <trkpt lat="42.75588" lon="1.5758">
        <ele>1039.383</ele>
        <time>2022-02-20T14:55:16Z</time>
      </trkpt>
      <trkpt lat="42.7559" lon="1.5758">
        <ele>1039.223</ele>
        <time>2022-02-20T14:55:18Z</time>
      </trkpt>
      <trkpt lat="42.75593" lon="1.5758">
        <ele>1039.309</ele>
        <time>2022-02-20T14:55:20Z</time>
      </trkpt>
      <trkpt lat="42.75596" lon="1.57581">
        <ele>1038.632</ele>
        <time>2022-02-20T14:55:22Z</time>
      </trkpt>
      <trkpt lat="42.75598" lon="1.57581">
        <ele>1039.876</ele>
        <time>2022-02-20T14:55:24Z</time>
      </trkpt>
      <trkpt lat="42.75601" lon="1.57581">
        <ele>1038.922</ele>
        <time>2022-02-20T14:55:26Z</time>
      </trkpt>
      <trkpt lat="42.75604" lon="1.57581">
        <ele>1039.774</ele>
        <time>2022-02-20T14:55:28Z</time>
      </trkpt>
      <trkpt lat="42.75607" lon="1.57581">
        <ele>1038.77</ele>
        <time>2022-02-20T14:55:30Z</time>
      </trkpt>
      <trkpt lat="42.75609" lon="1.5758">
        <ele>1038.331</ele>
        <time>2022-02-20T14:55:32Z</time>
      </trkpt>
      <trkpt lat="42.75612" lon="1.57581">
        <ele>1037.198</ele>
        <time>2022-02-20T14:55:34Z</time>
      </trkpt>
      <trkpt lat="42.75615" lon="1.57581">
        <ele>1037.962</ele>
        <time>2022-02-20T14:55:36Z</time>
      </trkpt>
      <trkpt lat="42.75617" lon="1.5758">
        <ele>1037.594</ele>
        <time>2022-02-20T14:55:38Z</time>
      </trkpt>
      <trkpt lat="42.7562" lon="1.57579">
        <ele>1039.224</ele>
        <time>2022-02-20T14:55:40Z</time>
      </trkpt>
      <trkpt lat="42.75622" lon="1.57578">
        <ele>1039.181</ele>
        <time>2022-02-20T14:55:42Z</time>
      </trkpt>
      <trkpt lat="42.75625" lon="1.57577">
        <ele>1037.652</ele>
        <time>2022-02-20T14:55:44Z</time>
      </trkpt>
      <trkpt lat="42.75627" lon="1.57577">
        <ele>1037.29</ele>
        <time>2022-02-20T14:55:46Z</time>
      </trkpt>
      <trkpt lat="42.7563" lon="1.57576">
        <ele>1037.476</ele>
        <time>2022-02-20T14:55:48Z</time>
      </trkpt>
      <trkpt lat="42.75632" lon="1.57575">
        <ele>1037.289</ele>
        <time>2022-02-20T14:55:50Z</time>
      </trkpt>
      <trkpt lat="42.75635" lon="1.57575">
        <ele>1036.687</ele>
        <time>2022-02-20T14:55:52Z</time>
      </trkpt>
      <trkpt lat="42.75638" lon="1.57574">
        <ele>1037.535</ele>
        <time>2022-02-20T14:55:54Z</time>
      </trkpt>
      <trkpt lat="42.7564" lon="1.57574">
        <ele>1038.575</ele>
        <time>2022-02-20T14:55:56Z</time>
      </trkpt>
      <trkpt lat="42.75643" lon="1.57573">
        <ele>1039.026</ele>
        <time>2022-02-20T14:55:58Z</time>
      </trkpt>
      <trkpt lat="42.75645" lon="1.57574">
        <ele>1037.404</ele>
        <time>2022-02-20T14:56:00Z</time>
      </trkpt>
      <trkpt lat="42.75648" lon="1.57574">
        <ele>1037.366</ele>
        <time>2022-02-20T14:56:02Z</time>
      </trkpt>
      <trkpt lat="42.7565" lon="1.57573">
        <ele>1037.737</ele>
        <time>2022-02-20T14:56:04Z</time>
      </trkpt>
      <trkpt lat="42.75652" lon="1.57572">
        <ele>1036.989</ele>
        <time>2022-02-20T14:56:06Z</time>
      </trkpt>
      <trkpt lat="42.75655" lon="1.57571">
        <ele>1036.817</ele>
        <time>2022-02-20T14:56:08Z</time>
      </trkpt>
      <trkpt lat="42.75658" lon="1.57571">
        <ele>1035.766</ele>
        <time>2022-02-20T14:56:10Z</time>
      </trkpt>
      <trkpt lat="42.75661" lon="1.5757">
        <ele>1035.427</ele>
        <time>2022-02-20T14:56:12Z</time>
      </trkpt>
      <trkpt lat="42.75663" lon="1.57571">
        <ele>1034.135</ele>
        <time>2022-02-20T14:56:14Z</time>
      </trkpt>
      <trkpt lat="42.75666" lon="1.57572">
        <ele>1032.253</ele>
        <time>2022-02-20T14:56:16Z</time>
      </trkpt>
      <trkpt lat="42.75669" lon="1.57575">
        <ele>1029.545</ele>
        <time>2022-02-20T14:56:18Z</time>
      </trkpt>
      <trkpt lat="42.75671" lon="1.57578">
        <ele>1027.956</ele>
        <time>2022-02-20T14:56:20Z</time>
      </trkpt>
      <trkpt lat="42.75674" lon="1.57581">
        <ele>1027.295</ele>
        <time>2022-02-20T14:56:22Z</time>
      </trkpt>
      <trkpt lat="42.75676" lon="1.57582">
        <ele>1025.093</ele>
        <time>2022-02-20T14:56:24Z</time>
      </trkpt>
      <trkpt lat="42.75678" lon="1.57584">
        <ele>1023.73</ele>
        <time>2022-02-20T14:56:26Z</time>
      </trkpt>
      <trkpt lat="42.75681" lon="1.57586">
        <ele>1023.86</ele>
        <time>2022-02-20T14:56:28Z</time>
      </trkpt>
      <trkpt lat="42.75683" lon="1.57588">
        <ele>1023.086</ele>
        <time>2022-02-20T14:56:30Z</time>
      </trkpt>
      <trkpt lat="42.75685" lon="1.5759">
        <ele>1024.389</ele>
        <time>2022-02-20T14:56:32Z</time>
      </trkpt>
      <trkpt lat="42.75687" lon="1.57592">
        <ele>1023.296</ele>
        <time>2022-02-20T14:56:34Z</time>
      </trkpt>
      <trkpt lat="42.7569" lon="1.57592">
        <ele>1023.248</ele>
        <time>2022-02-20T14:56:36Z</time>
      </trkpt>
      <trkpt lat="42.75692" lon="1.57593">
        <ele>1021.952</ele>
        <time>2022-02-20T14:56:38Z</time>
      </trkpt>
      <trkpt lat="42.75695" lon="1.57594">
        <ele>1021.219</ele>
        <time>2022-02-20T14:56:40Z</time>
      </trkpt>
      <trkpt lat="42.75698" lon="1.57596">
        <ele>1020.702</ele>
        <time>2022-02-20T14:56:42Z</time>
      </trkpt>
      <trkpt lat="42.757" lon="1.57598">
        <ele>1019.467</ele>
        <time>2022-02-20T14:56:44Z</time>
      </trkpt>
      <trkpt lat="42.75703" lon="1.57601">
        <ele>1019.744</ele>
        <time>2022-02-20T14:56:46Z</time>
      </trkpt>
      <trkpt lat="42.75705" lon="1.57603">
        <ele>1019.646</ele>
        <time>2022-02-20T14:56:48Z</time>
      </trkpt>
      <trkpt lat="42.75707" lon="1.57606">
        <ele>1019.137</ele>
        <time>2022-02-20T14:56:50Z</time>
      </trkpt>
      <trkpt lat="42.7571" lon="1.57607">
        <ele>1018.8</ele>
        <time>2022-02-20T14:56:52Z</time>
      </trkpt>
      <trkpt lat="42.75712" lon="1.5761">
        <ele>1018.028</ele>
        <time>2022-02-20T14:56:54Z</time>
      </trkpt>
      <trkpt lat="42.75714" lon="1.57613">
        <ele>1017.095</ele>
        <time>2022-02-20T14:56:56Z</time>
      </trkpt>
      <trkpt lat="42.75716" lon="1.57615">
        <ele>1016.286</ele>
        <time>2022-02-20T14:56:58Z</time>
      </trkpt>
      <trkpt lat="42.75718" lon="1.57618">
        <ele>1016.066</ele>
        <time>2022-02-20T14:57:00Z</time>
      </trkpt>
      <trkpt lat="42.75719" lon="1.57621">
        <ele>1015.543</ele>
        <time>2022-02-20T14:57:02Z</time>
      </trkpt>
      <trkpt lat="42.75721" lon="1.57624">
        <ele>1014.121</ele>
        <time>2022-02-20T14:57:04Z</time>
      </trkpt>
      <trkpt lat="42.75722" lon="1.57627">
        <ele>1015.576</ele>
        <time>2022-02-20T14:57:06Z</time>
      </trkpt>
      <trkpt lat="42.75723" lon="1.5763">
        <ele>1016.184</ele>
        <time>2022-02-20T14:57:08Z</time>
      </trkpt>
      <trkpt lat="42.75725" lon="1.57633">
        <ele>1016.472</ele>
        <time>2022-02-20T14:57:10Z</time>
      </trkpt>
      <trkpt lat="42.75726" lon="1.57636">
        <ele>1015.906</ele>
        <time>2022-02-20T14:57:12Z</time>
      </trkpt>
      <trkpt lat="42.75728" lon="1.57639">
        <ele>1014.731</ele>
        <time>2022-02-20T14:57:14Z</time>
      </trkpt>
      <trkpt lat="42.7573" lon="1.57641">
        <ele>1015.589</ele>
        <time>2022-02-20T14:57:16Z</time>
      </trkpt>
      <trkpt lat="42.75732" lon="1.57642">
        <ele>1015.457</ele>
        <time>2022-02-20T14:57:18Z</time>
      </trkpt>
      <trkpt lat="42.75734" lon="1.57644">
        <ele>1015.354</ele>
        <time>2022-02-20T14:57:20Z</time>
      </trkpt>
      <trkpt lat="42.75737" lon="1.57645">
        <ele>1015.501</ele>
        <time>2022-02-20T14:57:22Z</time>
      </trkpt>
      <trkpt lat="42.75739" lon="1.57646">
        <ele>1016.534</ele>
        <time>2022-02-20T14:57:24Z</time>
      </trkpt>
      <trkpt lat="42.75742" lon="1.57647">
        <ele>1015.914</ele>
        <time>2022-02-20T14:57:26Z</time>
      </trkpt>
      <trkpt lat="42.75744" lon="1.57647">
        <ele>1015.974</ele>
        <time>2022-02-20T14:57:28Z</time>
      </trkpt>
      <trkpt lat="42.75747" lon="1.57647">
        <ele>1015.826</ele>
        <time>2022-02-20T14:57:30Z</time>
      </trkpt>
      <trkpt lat="42.7575" lon="1.57647">
        <ele>1017.199</ele>
        <time>2022-02-20T14:57:32Z</time>
      </trkpt>
      <trkpt lat="42.75753" lon="1.57647">
        <ele>1016.592</ele>
        <time>2022-02-20T14:57:34Z</time>
      </trkpt>
      <trkpt lat="42.75756" lon="1.57648">
        <ele>1015.336</ele>
        <time>2022-02-20T14:57:36Z</time>
      </trkpt>
      <trkpt lat="42.75759" lon="1.57648">
        <ele>1014.872</ele>
        <time>2022-02-20T14:57:38Z</time>
      </trkpt>
      <trkpt lat="42.75761" lon="1.57649">
        <ele>1014.456</ele>
        <time>2022-02-20T14:57:40Z</time>
      </trkpt>
      <trkpt lat="42.75764" lon="1.57651">
        <ele>1013.71</ele>
        <time>2022-02-20T14:57:42Z</time>
      </trkpt>
      <trkpt lat="42.75766" lon="1.57652">
        <ele>1014.488</ele>
        <time>2022-02-20T14:57:44Z</time>
      </trkpt>
      <trkpt lat="42.75769" lon="1.57654">
        <ele>1013.483</ele>
        <time>2022-02-20T14:57:46Z</time>
      </trkpt>
      <trkpt lat="42.75772" lon="1.57655">
        <ele>1013.036</ele>
        <time>2022-02-20T14:57:48Z</time>
      </trkpt>
      <trkpt lat="42.75774" lon="1.57657">
        <ele>1013.419</ele>
        <time>2022-02-20T14:57:50Z</time>
      </trkpt>
      <trkpt lat="42.75776" lon="1.57659">
        <ele>1012.533</ele>
        <time>2022-02-20T14:57:52Z</time>
      </trkpt>
      <trkpt lat="42.75779" lon="1.5766">
        <ele>1011.919</ele>
        <time>2022-02-20T14:57:54Z</time>
      </trkpt>
      <trkpt lat="42.75781" lon="1.57661">
        <ele>1012.132</ele>
        <time>2022-02-20T14:57:56Z</time>
      </trkpt>
      <trkpt lat="42.75784" lon="1.57662">
        <ele>1011.007</ele>
        <time>2022-02-20T14:57:58Z</time>
      </trkpt>
      <trkpt lat="42.75786" lon="1.57662">
        <ele>1011.176</ele>
        <time>2022-02-20T14:58:00Z</time>
      </trkpt>
      <trkpt lat="42.75789" lon="1.57662">
        <ele>1010.028</ele>
        <time>2022-02-20T14:58:02Z</time>
      </trkpt>
      <trkpt lat="42.75792" lon="1.57661">
        <ele>1009.447</ele>
        <time>2022-02-20T14:58:04Z</time>
      </trkpt>
      <trkpt lat="42.75794" lon="1.5766">
        <ele>1010.29</ele>
        <time>2022-02-20T14:58:06Z</time>
      </trkpt>
      <trkpt lat="42.75796" lon="1.57659">
        <ele>1009.463</ele>
        <time>2022-02-20T14:58:08Z</time>
      </trkpt>
      <trkpt lat="42.75799" lon="1.57657">
        <ele>1008.658</ele>
        <time>2022-02-20T14:58:10Z</time>
      </trkpt>
      <trkpt lat="42.75801" lon="1.57655">
        <ele>1009.274</ele>
        <time>2022-02-20T14:58:12Z</time>
      </trkpt>
      <trkpt lat="42.75803" lon="1.57653">
        <ele>1008.358</ele>
        <time>2022-02-20T14:58:14Z</time>
      </trkpt>
      <trkpt lat="42.75805" lon="1.5765">
        <ele>1008.914</ele>
        <time>2022-02-20T14:58:16Z</time>
      </trkpt>
      <trkpt lat="42.75807" lon="1.57647">
        <ele>1008.919</ele>
        <time>2022-02-20T14:58:18Z</time>
      </trkpt>
      <trkpt lat="42.75809" lon="1.57645">
        <ele>1008.306</ele>
        <time>2022-02-20T14:58:20Z</time>
      </trkpt>
      <trkpt lat="42.7581" lon="1.57642">
        <ele>1009.181</ele>
        <time>2022-02-20T14:58:22Z</time>
      </trkpt>
      <trkpt lat="42.75812" lon="1.57639">
        <ele>1009.211</ele>
        <time>2022-02-20T14:58:24Z</time>
      </trkpt>
      <trkpt lat="42.75814" lon="1.57637">
        <ele>1009.173</ele>
        <time>2022-02-20T14:58:26Z</time>
      </trkpt>
      <trkpt lat="42.75816" lon="1.57635">
        <ele>1009.028</ele>
        <time>2022-02-20T14:58:28Z</time>
      </trkpt>
      <trkpt lat="42.75817" lon="1.57632">
        <ele>1009.175</ele>
        <time>2022-02-20T14:58:30Z</time>
      </trkpt>
      <trkpt lat="42.75819" lon="1.5763">
        <ele>1009.581</ele>
        <time>2022-02-20T14:58:32Z</time>
      </trkpt>
      <trkpt lat="42.75821" lon="1.57628">
        <ele>1008.704</ele>
        <time>2022-02-20T14:58:34Z</time>
      </trkpt>
      <trkpt lat="42.75823" lon="1.57625">
        <ele>1007.694</ele>
        <time>2022-02-20T14:58:36Z</time>
      </trkpt>
      <trkpt lat="42.75825" lon="1.57623">
        <ele>1008.032</ele>
        <time>2022-02-20T14:58:38Z</time>
      </trkpt>
      <trkpt lat="42.75827" lon="1.57621">
        <ele>1008.368</ele>
        <time>2022-02-20T14:58:40Z</time>
      </trkpt>
      <trkpt lat="42.75828" lon="1.57619">
        <ele>1008.265</ele>
        <time>2022-02-20T14:58:42Z</time>
      </trkpt>
      <trkpt lat="42.7583" lon="1.57617">
        <ele>1007.595</ele>
        <time>2022-02-20T14:58:44Z</time>
      </trkpt>
      <trkpt lat="42.75832" lon="1.57614">
        <ele>1008.354</ele>
        <time>2022-02-20T14:58:46Z</time>
      </trkpt>
      <trkpt lat="42.75833" lon="1.57611">
        <ele>1008.045</ele>
        <time>2022-02-20T14:58:48Z</time>
      </trkpt>
      <trkpt lat="42.75835" lon="1.57609">
        <ele>1007.605</ele>
        <time>2022-02-20T14:58:50Z</time>
      </trkpt>
      <trkpt lat="42.75837" lon="1.57607">
        <ele>1007.504</ele>
        <time>2022-02-20T14:58:52Z</time>
      </trkpt>
      <trkpt lat="42.75839" lon="1.57604">
        <ele>1007.554</ele>
        <time>2022-02-20T14:58:54Z</time>
      </trkpt>
      <trkpt lat="42.7584" lon="1.57601">
        <ele>1007.046</ele>
        <time>2022-02-20T14:58:56Z</time>
      </trkpt>
      <trkpt lat="42.75841" lon="1.57596">
        <ele>1008.516</ele>
        <time>2022-02-20T14:58:58Z</time>
      </trkpt>
      <trkpt lat="42.75843" lon="1.57594">
        <ele>1008.226</ele>
        <time>2022-02-20T14:59:00Z</time>
      </trkpt>
      <trkpt lat="42.75844" lon="1.57591">
        <ele>1007.847</ele>
        <time>2022-02-20T14:59:02Z</time>
      </trkpt>
      <trkpt lat="42.75846" lon="1.57588">
        <ele>1006.962</ele>
        <time>2022-02-20T14:59:04Z</time>
      </trkpt>
      <trkpt lat="42.75847" lon="1.57585">
        <ele>1006.875</ele>
        <time>2022-02-20T14:59:06Z</time>
      </trkpt>
      <trkpt lat="42.75849" lon="1.57582">
        <ele>1006.188</ele>
        <time>2022-02-20T14:59:08Z</time>
      </trkpt>
      <trkpt lat="42.7585" lon="1.57579">
        <ele>1006.15</ele>
        <time>2022-02-20T14:59:10Z</time>
      </trkpt>
      <trkpt lat="42.75852" lon="1.57577">
        <ele>1005.5</ele>
        <time>2022-02-20T14:59:12Z</time>
      </trkpt>
      <trkpt lat="42.75854" lon="1.57574">
        <ele>1004.976</ele>
        <time>2022-02-20T14:59:14Z</time>
      </trkpt>
      <trkpt lat="42.75855" lon="1.57571">
        <ele>1005.55</ele>
        <time>2022-02-20T14:59:16Z</time>
      </trkpt>
      <trkpt lat="42.75855" lon="1.5757">
        <ele>1005.596</ele>
        <time>2022-02-20T14:59:17Z</time>
      </trkpt>
      <trkpt lat="42.75857" lon="1.57567">
        <ele>1005.62</ele>
        <time>2022-02-20T14:59:20Z</time>
      </trkpt>
      <trkpt lat="42.75859" lon="1.57564">
        <ele>1005.191</ele>
        <time>2022-02-20T14:59:22Z</time>
      </trkpt>
      <trkpt lat="42.75861" lon="1.57561">
        <ele>1004.31</ele>
        <time>2022-02-20T14:59:24Z</time>
      </trkpt>
      <trkpt lat="42.75863" lon="1.57558">
        <ele>1003.034</ele>
        <time>2022-02-20T14:59:26Z</time>
      </trkpt>
      <trkpt lat="42.75865" lon="1.57556">
        <ele>1003.238</ele>
        <time>2022-02-20T14:59:28Z</time>
      </trkpt>
      <trkpt lat="42.75866" lon="1.57553">
        <ele>1002.992</ele>
        <time>2022-02-20T14:59:30Z</time>
      </trkpt>
      <trkpt lat="42.75868" lon="1.5755">
        <ele>1001.81</ele>
        <time>2022-02-20T14:59:32Z</time>
      </trkpt>
      <trkpt lat="42.7587" lon="1.57548">
        <ele>1000.51</ele>
        <time>2022-02-20T14:59:34Z</time>
      </trkpt>
      <trkpt lat="42.75871" lon="1.57545">
        <ele>1000.67</ele>
        <time>2022-02-20T14:59:36Z</time>
      </trkpt>
      <trkpt lat="42.75873" lon="1.57542">
        <ele>1000.423</ele>
        <time>2022-02-20T14:59:38Z</time>
      </trkpt>
      <trkpt lat="42.75874" lon="1.57539">
        <ele>1000.23</ele>
        <time>2022-02-20T14:59:40Z</time>
      </trkpt>
      <trkpt lat="42.75876" lon="1.57536">
        <ele>999.911</ele>
        <time>2022-02-20T14:59:42Z</time>
      </trkpt>
      <trkpt lat="42.75878" lon="1.57534">
        <ele>998.85</ele>
        <time>2022-02-20T14:59:44Z</time>
      </trkpt>
      <trkpt lat="42.7588" lon="1.57531">
        <ele>998.469</ele>
        <time>2022-02-20T14:59:46Z</time>
      </trkpt>
      <trkpt lat="42.75881" lon="1.57528">
        <ele>998.675</ele>
        <time>2022-02-20T14:59:48Z</time>
      </trkpt>
      <trkpt lat="42.75882" lon="1.57525">
        <ele>999.021</ele>
        <time>2022-02-20T14:59:50Z</time>
      </trkpt>
      <trkpt lat="42.75884" lon="1.57522">
        <ele>999.27</ele>
        <time>2022-02-20T14:59:52Z</time>
      </trkpt>
      <trkpt lat="42.75885" lon="1.5752">
        <ele>999.124</ele>
        <time>2022-02-20T14:59:54Z</time>
      </trkpt>
      <trkpt lat="42.75888" lon="1.57518">
        <ele>998.947</ele>
        <time>2022-02-20T14:59:56Z</time>
      </trkpt>
      <trkpt lat="42.75889" lon="1.57516">
        <ele>999.493</ele>
        <time>2022-02-20T14:59:58Z</time>
      </trkpt>
      <trkpt lat="42.75891" lon="1.57514">
        <ele>999.699</ele>
        <time>2022-02-20T15:00:00Z</time>
      </trkpt>
      <trkpt lat="42.75893" lon="1.5751">
        <ele>999.548</ele>
        <time>2022-02-20T15:00:02Z</time>
      </trkpt>
      <trkpt lat="42.75895" lon="1.57508">
        <ele>999.474</ele>
        <time>2022-02-20T15:00:04Z</time>
      </trkpt>
      <trkpt lat="42.75896" lon="1.57506">
        <ele>999.024</ele>
        <time>2022-02-20T15:00:06Z</time>
      </trkpt>
      <trkpt lat="42.75898" lon="1.57504">
        <ele>999.358</ele>
        <time>2022-02-20T15:00:08Z</time>
      </trkpt>
      <trkpt lat="42.75899" lon="1.57501">
        <ele>1000.046</ele>
        <time>2022-02-20T15:00:10Z</time>
      </trkpt>
      <trkpt lat="42.75901" lon="1.57499">
        <ele>1000.583</ele>
        <time>2022-02-20T15:00:12Z</time>
      </trkpt>
      <trkpt lat="42.75903" lon="1.57497">
        <ele>1000.078</ele>
        <time>2022-02-20T15:00:14Z</time>
      </trkpt>
      <trkpt lat="42.75905" lon="1.57496">
        <ele>998.623</ele>
        <time>2022-02-20T15:00:16Z</time>
      </trkpt>
      <trkpt lat="42.75907" lon="1.57494">
        <ele>998.94</ele>
        <time>2022-02-20T15:00:18Z</time>
      </trkpt>
      <trkpt lat="42.75909" lon="1.57491">
        <ele>998.669</ele>
        <time>2022-02-20T15:00:20Z</time>
      </trkpt>
      <trkpt lat="42.7591" lon="1.57489">
        <ele>998.396</ele>
        <time>2022-02-20T15:00:22Z</time>
      </trkpt>
      <trkpt lat="42.75912" lon="1.57486">
        <ele>998.674</ele>
        <time>2022-02-20T15:00:24Z</time>
      </trkpt>
      <trkpt lat="42.75914" lon="1.57484">
        <ele>997.922</ele>
        <time>2022-02-20T15:00:26Z</time>
      </trkpt>
      <trkpt lat="42.75917" lon="1.57483">
        <ele>996.218</ele>
        <time>2022-02-20T15:00:28Z</time>
      </trkpt>
      <trkpt lat="42.75918" lon="1.5748">
        <ele>995.544</ele>
        <time>2022-02-20T15:00:30Z</time>
      </trkpt>
      <trkpt lat="42.7592" lon="1.57478">
        <ele>995.676</ele>
        <time>2022-02-20T15:00:32Z</time>
      </trkpt>
      <trkpt lat="42.75923" lon="1.57476">
        <ele>994.994</ele>
        <time>2022-02-20T15:00:34Z</time>
      </trkpt>
      <trkpt lat="42.75925" lon="1.57474">
        <ele>994.639</ele>
        <time>2022-02-20T15:00:36Z</time>
      </trkpt>
      <trkpt lat="42.75927" lon="1.5747">
        <ele>994.472</ele>
        <time>2022-02-20T15:00:38Z</time>
      </trkpt>
      <trkpt lat="42.75929" lon="1.57468">
        <ele>994.288</ele>
        <time>2022-02-20T15:00:40Z</time>
      </trkpt>
      <trkpt lat="42.75931" lon="1.57465">
        <ele>994.101</ele>
        <time>2022-02-20T15:00:42Z</time>
      </trkpt>
      <trkpt lat="42.75933" lon="1.57462">
        <ele>994.091</ele>
        <time>2022-02-20T15:00:44Z</time>
      </trkpt>
      <trkpt lat="42.75936" lon="1.5746">
        <ele>993.938</ele>
        <time>2022-02-20T15:00:46Z</time>
      </trkpt>
      <trkpt lat="42.75938" lon="1.57458">
        <ele>993.169</ele>
        <time>2022-02-20T15:00:48Z</time>
      </trkpt>
      <trkpt lat="42.7594" lon="1.57456">
        <ele>992.74</ele>
        <time>2022-02-20T15:00:50Z</time>
      </trkpt>
      <trkpt lat="42.75943" lon="1.57455">
        <ele>992.094</ele>
        <time>2022-02-20T15:00:52Z</time>
      </trkpt>
      <trkpt lat="42.75945" lon="1.57454">
        <ele>992.824</ele>
        <time>2022-02-20T15:00:54Z</time>
      </trkpt>
      <trkpt lat="42.75947" lon="1.57451">
        <ele>993.798</ele>
        <time>2022-02-20T15:00:56Z</time>
      </trkpt>
      <trkpt lat="42.7595" lon="1.57447">
        <ele>995.363</ele>
        <time>2022-02-20T15:00:58Z</time>
      </trkpt>
      <trkpt lat="42.75952" lon="1.57445">
        <ele>994.467</ele>
        <time>2022-02-20T15:01:00Z</time>
      </trkpt>
      <trkpt lat="42.75955" lon="1.57445">
        <ele>994.051</ele>
        <time>2022-02-20T15:01:02Z</time>
      </trkpt>
      <trkpt lat="42.75958" lon="1.57443">
        <ele>992.631</ele>
        <time>2022-02-20T15:01:04Z</time>
      </trkpt>
      <trkpt lat="42.75961" lon="1.57441">
        <ele>992.888</ele>
        <time>2022-02-20T15:01:06Z</time>
      </trkpt>
      <trkpt lat="42.75963" lon="1.5744">
        <ele>993.818</ele>
        <time>2022-02-20T15:01:08Z</time>
      </trkpt>
      <trkpt lat="42.75966" lon="1.57439">
        <ele>993.482</ele>
        <time>2022-02-20T15:01:10Z</time>
      </trkpt>
      <trkpt lat="42.75969" lon="1.57439">
        <ele>994.495</ele>
        <time>2022-02-20T15:01:12Z</time>
      </trkpt>
      <trkpt lat="42.75972" lon="1.57438">
        <ele>994.585</ele>
        <time>2022-02-20T15:01:14Z</time>
      </trkpt>
      <trkpt lat="42.75974" lon="1.57437">
        <ele>993.956</ele>
        <time>2022-02-20T15:01:16Z</time>
      </trkpt>
      <trkpt lat="42.75977" lon="1.57436">
        <ele>992.848</ele>
        <time>2022-02-20T15:01:18Z</time>
      </trkpt>
      <trkpt lat="42.7598" lon="1.57436">
        <ele>993.652</ele>
        <time>2022-02-20T15:01:20Z</time>
      </trkpt>
      <trkpt lat="42.75982" lon="1.57435">
        <ele>992.304</ele>
        <time>2022-02-20T15:01:22Z</time>
      </trkpt>
      <trkpt lat="42.75985" lon="1.57434">
        <ele>994.568</ele>
        <time>2022-02-20T15:01:24Z</time>
      </trkpt>
      <trkpt lat="42.75988" lon="1.57433">
        <ele>995.275</ele>
        <time>2022-02-20T15:01:26Z</time>
      </trkpt>
      <trkpt lat="42.75991" lon="1.57434">
        <ele>994.227</ele>
        <time>2022-02-20T15:01:28Z</time>
      </trkpt>
      <trkpt lat="42.75994" lon="1.57433">
        <ele>993.37</ele>
        <time>2022-02-20T15:01:30Z</time>
      </trkpt>
      <trkpt lat="42.75997" lon="1.57433">
        <ele>993.331</ele>
        <time>2022-02-20T15:01:32Z</time>
      </trkpt>
      <trkpt lat="42.76" lon="1.57431">
        <ele>993.653</ele>
        <time>2022-02-20T15:01:34Z</time>
      </trkpt>
      <trkpt lat="42.76002" lon="1.57431">
        <ele>992.357</ele>
        <time>2022-02-20T15:01:36Z</time>
      </trkpt>
      <trkpt lat="42.76005" lon="1.57431">
        <ele>991.873</ele>
        <time>2022-02-20T15:01:38Z</time>
      </trkpt>
      <trkpt lat="42.76008" lon="1.57431">
        <ele>991.049</ele>
        <time>2022-02-20T15:01:40Z</time>
      </trkpt>
      <trkpt lat="42.7601" lon="1.57431">
        <ele>991.361</ele>
        <time>2022-02-20T15:01:42Z</time>
      </trkpt>
      <trkpt lat="42.76013" lon="1.5743">
        <ele>990.408</ele>
        <time>2022-02-20T15:01:44Z</time>
      </trkpt>
      <trkpt lat="42.76016" lon="1.57429">
        <ele>991.369</ele>
        <time>2022-02-20T15:01:46Z</time>
      </trkpt>
      <trkpt lat="42.76017" lon="1.57429">
        <ele>991.867</ele>
        <time>2022-02-20T15:01:48Z</time>
      </trkpt>
      <trkpt lat="42.7602" lon="1.57428">
        <ele>991.658</ele>
        <time>2022-02-20T15:01:50Z</time>
      </trkpt>
      <trkpt lat="42.76022" lon="1.57426">
        <ele>992.592</ele>
        <time>2022-02-20T15:01:52Z</time>
      </trkpt>
      <trkpt lat="42.76024" lon="1.57425">
        <ele>993.653</ele>
        <time>2022-02-20T15:01:54Z</time>
      </trkpt>
      <trkpt lat="42.76026" lon="1.57424">
        <ele>993.315</ele>
        <time>2022-02-20T15:01:56Z</time>
      </trkpt>
      <trkpt lat="42.76028" lon="1.57423">
        <ele>994.378</ele>
        <time>2022-02-20T15:01:58Z</time>
      </trkpt>
      <trkpt lat="42.76031" lon="1.57421">
        <ele>994.397</ele>
        <time>2022-02-20T15:02:00Z</time>
      </trkpt>
      <trkpt lat="42.76033" lon="1.57419">
        <ele>994.334</ele>
        <time>2022-02-20T15:02:02Z</time>
      </trkpt>
      <trkpt lat="42.76035" lon="1.57418">
        <ele>994.766</ele>
        <time>2022-02-20T15:02:04Z</time>
      </trkpt>
      <trkpt lat="42.76037" lon="1.57418">
        <ele>995.579</ele>
        <time>2022-02-20T15:02:06Z</time>
      </trkpt>
      <trkpt lat="42.76039" lon="1.57417">
        <ele>995.99</ele>
        <time>2022-02-20T15:02:08Z</time>
      </trkpt>
      <trkpt lat="42.76042" lon="1.57416">
        <ele>995.848</ele>
        <time>2022-02-20T15:02:10Z</time>
      </trkpt>
      <trkpt lat="42.76043" lon="1.57415">
        <ele>996.046</ele>
        <time>2022-02-20T15:02:12Z</time>
      </trkpt>
      <trkpt lat="42.76045" lon="1.57414">
        <ele>996.762</ele>
        <time>2022-02-20T15:02:14Z</time>
      </trkpt>
      <trkpt lat="42.76048" lon="1.57413">
        <ele>996.504</ele>
        <time>2022-02-20T15:02:16Z</time>
      </trkpt>
      <trkpt lat="42.7605" lon="1.57412">
        <ele>997.481</ele>
        <time>2022-02-20T15:02:18Z</time>
      </trkpt>
      <trkpt lat="42.76053" lon="1.57412">
        <ele>997.945</ele>
        <time>2022-02-20T15:02:20Z</time>
      </trkpt>
      <trkpt lat="42.76055" lon="1.57412">
        <ele>997.954</ele>
        <time>2022-02-20T15:02:22Z</time>
      </trkpt>
      <trkpt lat="42.76057" lon="1.57413">
        <ele>997.531</ele>
        <time>2022-02-20T15:02:24Z</time>
      </trkpt>
      <trkpt lat="42.76059" lon="1.57414">
        <ele>997.83</ele>
        <time>2022-02-20T15:02:26Z</time>
      </trkpt>
      <trkpt lat="42.76061" lon="1.57415">
        <ele>997.36</ele>
        <time>2022-02-20T15:02:28Z</time>
      </trkpt>
      <trkpt lat="42.76063" lon="1.57415">
        <ele>997.548</ele>
        <time>2022-02-20T15:02:30Z</time>
      </trkpt>
      <trkpt lat="42.76065" lon="1.57416">
        <ele>996.932</ele>
        <time>2022-02-20T15:02:32Z</time>
      </trkpt>
      <trkpt lat="42.76067" lon="1.57417">
        <ele>997.126</ele>
        <time>2022-02-20T15:02:34Z</time>
      </trkpt>
      <trkpt lat="42.76069" lon="1.5742">
        <ele>997.238</ele>
        <time>2022-02-20T15:02:36Z</time>
      </trkpt>
      <trkpt lat="42.7607" lon="1.57422">
        <ele>997.589</ele>
        <time>2022-02-20T15:02:38Z</time>
      </trkpt>
      <trkpt lat="42.76072" lon="1.57424">
        <ele>997.481</ele>
        <time>2022-02-20T15:02:40Z</time>
      </trkpt>
      <trkpt lat="42.76074" lon="1.57425">
        <ele>997.963</ele>
        <time>2022-02-20T15:02:42Z</time>
      </trkpt>
      <trkpt lat="42.76076" lon="1.57427">
        <ele>998.776</ele>
        <time>2022-02-20T15:02:44Z</time>
      </trkpt>
      <trkpt lat="42.76077" lon="1.57427">
        <ele>998.334</ele>
        <time>2022-02-20T15:02:46Z</time>
      </trkpt>
      <trkpt lat="42.76077" lon="1.57427">
        <ele>998.335</ele>
        <time>2022-02-20T15:02:48Z</time>
      </trkpt>
      <trkpt lat="42.76077" lon="1.57428">
        <ele>998.331</ele>
        <time>2022-02-20T15:02:50Z</time>
      </trkpt>
      <trkpt lat="42.76077" lon="1.57428">
        <ele>998.329</ele>
        <time>2022-02-20T15:02:52Z</time>
      </trkpt>
      <trkpt lat="42.76077" lon="1.57428">
        <ele>998.328</ele>
        <time>2022-02-20T15:02:54Z</time>
      </trkpt>
      <trkpt lat="42.76077" lon="1.57428">
        <ele>998.322</ele>
        <time>2022-02-20T15:02:56Z</time>
      </trkpt>
      <trkpt lat="42.76077" lon="1.57428">
        <ele>998.312</ele>
        <time>2022-02-20T15:02:58Z</time>
      </trkpt>
      <trkpt lat="42.76077" lon="1.57428">
        <ele>998.304</ele>
        <time>2022-02-20T15:03:00Z</time>
      </trkpt>
      <trkpt lat="42.76077" lon="1.57428">
        <ele>998.677</ele>
        <time>2022-02-20T15:03:02Z</time>
      </trkpt>
      <trkpt lat="42.76077" lon="1.57429">
        <ele>998.487</ele>
        <time>2022-02-20T15:03:04Z</time>
      </trkpt>
      <trkpt lat="42.76077" lon="1.57429">
        <ele>998.515</ele>
        <time>2022-02-20T15:03:06Z</time>
      </trkpt>
      <trkpt lat="42.76077" lon="1.57428">
        <ele>999.47</ele>
        <time>2022-02-20T15:03:08Z</time>
      </trkpt>
      <trkpt lat="42.76078" lon="1.57428">
        <ele>999.499</ele>
        <time>2022-02-20T15:03:10Z</time>
      </trkpt>
      <trkpt lat="42.76078" lon="1.57428">
        <ele>999.526</ele>
        <time>2022-02-20T15:03:12Z</time>
      </trkpt>
      <trkpt lat="42.76078" lon="1.57428">
        <ele>999.545</ele>
        <time>2022-02-20T15:03:14Z</time>
      </trkpt>
      <trkpt lat="42.76078" lon="1.57428">
        <ele>999.556</ele>
        <time>2022-02-20T15:03:16Z</time>
      </trkpt>
      <trkpt lat="42.76078" lon="1.57429">
        <ele>999.155</ele>
        <time>2022-02-20T15:03:18Z</time>
      </trkpt>
      <trkpt lat="42.76079" lon="1.57429">
        <ele>999.207</ele>
        <time>2022-02-20T15:03:20Z</time>
      </trkpt>
      <trkpt lat="42.76079" lon="1.57429">
        <ele>999.212</ele>
        <time>2022-02-20T15:03:22Z</time>
      </trkpt>
      <trkpt lat="42.76079" lon="1.57429">
        <ele>999.791</ele>
        <time>2022-02-20T15:03:24Z</time>
      </trkpt>
      <trkpt lat="42.76079" lon="1.5743">
        <ele>999.824</ele>
        <time>2022-02-20T15:03:26Z</time>
      </trkpt>
      <trkpt lat="42.76078" lon="1.5743">
        <ele>1000.455</ele>
        <time>2022-02-20T15:03:28Z</time>
      </trkpt>
      <trkpt lat="42.76078" lon="1.5743">
        <ele>1000.449</ele>
        <time>2022-02-20T15:03:30Z</time>
      </trkpt>
      <trkpt lat="42.76078" lon="1.5743">
        <ele>1000.459</ele>
        <time>2022-02-20T15:03:32Z</time>
      </trkpt>
      <trkpt lat="42.76078" lon="1.5743">
        <ele>1000.455</ele>
        <time>2022-02-20T15:03:34Z</time>
      </trkpt>
      <trkpt lat="42.76078" lon="1.5743">
        <ele>1000.482</ele>
        <time>2022-02-20T15:03:36Z</time>
      </trkpt>
      <trkpt lat="42.76078" lon="1.5743">
        <ele>1000.498</ele>
        <time>2022-02-20T15:03:38Z</time>
      </trkpt>
      <trkpt lat="42.76078" lon="1.57431">
        <ele>1000.504</ele>
        <time>2022-02-20T15:03:40Z</time>
      </trkpt>
      <trkpt lat="42.76078" lon="1.57431">
        <ele>1000.381</ele>
        <time>2022-02-20T15:03:42Z</time>
      </trkpt>
      <trkpt lat="42.76078" lon="1.57431">
        <ele>1000.376</ele>
        <time>2022-02-20T15:03:44Z</time>
      </trkpt>
      <trkpt lat="42.76078" lon="1.57431">
        <ele>1000.381</ele>
        <time>2022-02-20T15:03:46Z</time>
      </trkpt>
      <trkpt lat="42.76078" lon="1.57431">
        <ele>1000.383</ele>
        <time>2022-02-20T15:03:48Z</time>
      </trkpt>
      <trkpt lat="42.76078" lon="1.57431">
        <ele>1000.384</ele>
        <time>2022-02-20T15:03:50Z</time>
      </trkpt>
      <trkpt lat="42.76078" lon="1.57431">
        <ele>1000.384</ele>
        <time>2022-02-20T15:03:52Z</time>
      </trkpt>
      <trkpt lat="42.76078" lon="1.57431">
        <ele>1000.39</ele>
        <time>2022-02-20T15:03:54Z</time>
      </trkpt>
      <trkpt lat="42.76078" lon="1.57431">
        <ele>1000.402</ele>
        <time>2022-02-20T15:03:56Z</time>
      </trkpt>
      <trkpt lat="42.76078" lon="1.57431">
        <ele>1000.423</ele>
        <time>2022-02-20T15:03:58Z</time>
      </trkpt>
      <trkpt lat="42.76078" lon="1.57431">
        <ele>1000.449</ele>
        <time>2022-02-20T15:04:00Z</time>
      </trkpt>
      <trkpt lat="42.76078" lon="1.57431">
        <ele>1000.468</ele>
        <time>2022-02-20T15:04:02Z</time>
      </trkpt>
      <trkpt lat="42.76078" lon="1.57431">
        <ele>1000.341</ele>
        <time>2022-02-20T15:04:04Z</time>
      </trkpt>
      <trkpt lat="42.76078" lon="1.57431">
        <ele>1000.343</ele>
        <time>2022-02-20T15:04:06Z</time>
      </trkpt>
      <trkpt lat="42.76078" lon="1.57431">
        <ele>1000.331</ele>
        <time>2022-02-20T15:04:08Z</time>
      </trkpt>
      <trkpt lat="42.76078" lon="1.57431">
        <ele>1000.295</ele>
        <time>2022-02-20T15:04:10Z</time>
      </trkpt>
      <trkpt lat="42.76079" lon="1.57432">
        <ele>999.694</ele>
        <time>2022-02-20T15:04:12Z</time>
      </trkpt>
      <trkpt lat="42.7608" lon="1.57434">
        <ele>998.598</ele>
        <time>2022-02-20T15:04:14Z</time>
      </trkpt>
      <trkpt lat="42.76082" lon="1.57436">
        <ele>998.034</ele>
        <time>2022-02-20T15:04:16Z</time>
      </trkpt>
      <trkpt lat="42.76084" lon="1.57438">
        <ele>997.072</ele>
        <time>2022-02-20T15:04:18Z</time>
      </trkpt>
      <trkpt lat="42.76086" lon="1.57439">
        <ele>997.033</ele>
        <time>2022-02-20T15:04:20Z</time>
      </trkpt>
      <trkpt lat="42.76088" lon="1.5744">
        <ele>996.354</ele>
        <time>2022-02-20T15:04:22Z</time>
      </trkpt>
      <trkpt lat="42.7609" lon="1.57442">
        <ele>996.928</ele>
        <time>2022-02-20T15:04:24Z</time>
      </trkpt>
      <trkpt lat="42.76092" lon="1.57442">
        <ele>997.057</ele>
        <time>2022-02-20T15:04:26Z</time>
      </trkpt>
      <trkpt lat="42.76094" lon="1.57443">
        <ele>997.481</ele>
        <time>2022-02-20T15:04:28Z</time>
      </trkpt>
      <trkpt lat="42.76096" lon="1.57445">
        <ele>997.834</ele>
        <time>2022-02-20T15:04:30Z</time>
      </trkpt>
      <trkpt lat="42.76098" lon="1.57446">
        <ele>997.662</ele>
        <time>2022-02-20T15:04:32Z</time>
      </trkpt>
      <trkpt lat="42.76099" lon="1.57447">
        <ele>995.887</ele>
        <time>2022-02-20T15:04:34Z</time>
      </trkpt>
      <trkpt lat="42.76101" lon="1.57447">
        <ele>995.302</ele>
        <time>2022-02-20T15:04:36Z</time>
      </trkpt>
      <trkpt lat="42.76102" lon="1.57449">
        <ele>994.325</ele>
        <time>2022-02-20T15:04:38Z</time>
      </trkpt>
      <trkpt lat="42.76104" lon="1.5745">
        <ele>993.637</ele>
        <time>2022-02-20T15:04:40Z</time>
      </trkpt>
      <trkpt lat="42.76107" lon="1.57452">
        <ele>994.329</ele>
        <time>2022-02-20T15:04:42Z</time>
      </trkpt>
      <trkpt lat="42.76109" lon="1.57453">
        <ele>992.721</ele>
        <time>2022-02-20T15:04:44Z</time>
      </trkpt>
      <trkpt lat="42.76111" lon="1.57455">
        <ele>991.707</ele>
        <time>2022-02-20T15:04:46Z</time>
      </trkpt>
      <trkpt lat="42.76112" lon="1.57457">
        <ele>990.944</ele>
        <time>2022-02-20T15:04:48Z</time>
      </trkpt>
      <trkpt lat="42.76115" lon="1.57459">
        <ele>991.051</ele>
        <time>2022-02-20T15:04:50Z</time>
      </trkpt>
      <trkpt lat="42.76117" lon="1.57461">
        <ele>991.604</ele>
        <time>2022-02-20T15:04:52Z</time>
      </trkpt>
      <trkpt lat="42.76118" lon="1.57463">
        <ele>991.622</ele>
        <time>2022-02-20T15:04:54Z</time>
      </trkpt>
      <trkpt lat="42.7612" lon="1.57466">
        <ele>992.421</ele>
        <time>2022-02-20T15:04:56Z</time>
      </trkpt>
      <trkpt lat="42.76121" lon="1.57467">
        <ele>992.311</ele>
        <time>2022-02-20T15:04:58Z</time>
      </trkpt>
      <trkpt lat="42.76123" lon="1.57469">
        <ele>993.817</ele>
        <time>2022-02-20T15:05:00Z</time>
      </trkpt>
      <trkpt lat="42.76124" lon="1.57472">
        <ele>994.978</ele>
        <time>2022-02-20T15:05:02Z</time>
      </trkpt>
      <trkpt lat="42.76126" lon="1.57474">
        <ele>994.924</ele>
        <time>2022-02-20T15:05:04Z</time>
      </trkpt>
      <trkpt lat="42.76128" lon="1.57475">
        <ele>994.121</ele>
        <time>2022-02-20T15:05:06Z</time>
      </trkpt>
      <trkpt lat="42.7613" lon="1.57477">
        <ele>993.584</ele>
        <time>2022-02-20T15:05:08Z</time>
      </trkpt>
      <trkpt lat="42.76131" lon="1.57478">
        <ele>992.468</ele>
        <time>2022-02-20T15:05:10Z</time>
      </trkpt>
      <trkpt lat="42.76132" lon="1.5748">
        <ele>989.866</ele>
        <time>2022-02-20T15:05:12Z</time>
      </trkpt>
      <trkpt lat="42.76134" lon="1.57482">
        <ele>990.012</ele>
        <time>2022-02-20T15:05:14Z</time>
      </trkpt>
      <trkpt lat="42.76136" lon="1.57483">
        <ele>990.494</ele>
        <time>2022-02-20T15:05:16Z</time>
      </trkpt>
      <trkpt lat="42.76138" lon="1.57485">
        <ele>991.418</ele>
        <time>2022-02-20T15:05:18Z</time>
      </trkpt>
      <trkpt lat="42.7614" lon="1.57487">
        <ele>992.934</ele>
        <time>2022-02-20T15:05:20Z</time>
      </trkpt>
      <trkpt lat="42.76143" lon="1.57488">
        <ele>993.721</ele>
        <time>2022-02-20T15:05:22Z</time>
      </trkpt>
      <trkpt lat="42.76145" lon="1.5749">
        <ele>995.132</ele>
        <time>2022-02-20T15:05:24Z</time>
      </trkpt>
      <trkpt lat="42.76148" lon="1.57491">
        <ele>995.064</ele>
        <time>2022-02-20T15:05:26Z</time>
      </trkpt>
      <trkpt lat="42.7615" lon="1.57493">
        <ele>994.751</ele>
        <time>2022-02-20T15:05:28Z</time>
      </trkpt>
      <trkpt lat="42.76151" lon="1.57494">
        <ele>994</ele>
        <time>2022-02-20T15:05:30Z</time>
      </trkpt>
      <trkpt lat="42.76153" lon="1.57492">
        <ele>992.232</ele>
        <time>2022-02-20T15:05:32Z</time>
      </trkpt>
      <trkpt lat="42.76153" lon="1.57493">
        <ele>993.078</ele>
        <time>2022-02-20T15:05:34Z</time>
      </trkpt>
      <trkpt lat="42.76154" lon="1.57495">
        <ele>993.476</ele>
        <time>2022-02-20T15:05:36Z</time>
      </trkpt>
      <trkpt lat="42.76155" lon="1.57496">
        <ele>993.227</ele>
        <time>2022-02-20T15:05:38Z</time>
      </trkpt>
      <trkpt lat="42.76157" lon="1.57497">
        <ele>992.537</ele>
        <time>2022-02-20T15:05:40Z</time>
      </trkpt>
      <trkpt lat="42.76159" lon="1.57499">
        <ele>992.83</ele>
        <time>2022-02-20T15:05:42Z</time>
      </trkpt>
      <trkpt lat="42.76161" lon="1.575">
        <ele>992.667</ele>
        <time>2022-02-20T15:05:44Z</time>
      </trkpt>
      <trkpt lat="42.76163" lon="1.57501">
        <ele>992.519</ele>
        <time>2022-02-20T15:05:46Z</time>
      </trkpt>
      <trkpt lat="42.76166" lon="1.57503">
        <ele>993.02</ele>
        <time>2022-02-20T15:05:48Z</time>
      </trkpt>
      <trkpt lat="42.76167" lon="1.57504">
        <ele>990.89</ele>
        <time>2022-02-20T15:05:50Z</time>
      </trkpt>
      <trkpt lat="42.76169" lon="1.57507">
        <ele>990.679</ele>
        <time>2022-02-20T15:05:52Z</time>
      </trkpt>
      <trkpt lat="42.76172" lon="1.57508">
        <ele>990.334</ele>
        <time>2022-02-20T15:05:54Z</time>
      </trkpt>
      <trkpt lat="42.76174" lon="1.5751">
        <ele>990.313</ele>
        <time>2022-02-20T15:05:56Z</time>
      </trkpt>
      <trkpt lat="42.76176" lon="1.57511">
        <ele>989.923</ele>
        <time>2022-02-20T15:05:58Z</time>
      </trkpt>
      <trkpt lat="42.76178" lon="1.57512">
        <ele>988.889</ele>
        <time>2022-02-20T15:06:00Z</time>
      </trkpt>
      <trkpt lat="42.7618" lon="1.57513">
        <ele>989.014</ele>
        <time>2022-02-20T15:06:02Z</time>
      </trkpt>
      <trkpt lat="42.76182" lon="1.57514">
        <ele>988.043</ele>
        <time>2022-02-20T15:06:04Z</time>
      </trkpt>
      <trkpt lat="42.76185" lon="1.57515">
        <ele>986.874</ele>
        <time>2022-02-20T15:06:06Z</time>
      </trkpt>
      <trkpt lat="42.76187" lon="1.57516">
        <ele>986.168</ele>
        <time>2022-02-20T15:06:08Z</time>
      </trkpt>
      <trkpt lat="42.7619" lon="1.57516">
        <ele>985.033</ele>
        <time>2022-02-20T15:06:10Z</time>
      </trkpt>
      <trkpt lat="42.76191" lon="1.57519">
        <ele>981.862</ele>
        <time>2022-02-20T15:06:12Z</time>
      </trkpt>
      <trkpt lat="42.76193" lon="1.5752">
        <ele>981.815</ele>
        <time>2022-02-20T15:06:14Z</time>
      </trkpt>
      <trkpt lat="42.76195" lon="1.57521">
        <ele>981.869</ele>
        <time>2022-02-20T15:06:16Z</time>
      </trkpt>
      <trkpt lat="42.76197" lon="1.57523">
        <ele>979.925</ele>
        <time>2022-02-20T15:06:18Z</time>
      </trkpt>
      <trkpt lat="42.762" lon="1.57526">
        <ele>978.892</ele>
        <time>2022-02-20T15:06:20Z</time>
      </trkpt>
      <trkpt lat="42.76202" lon="1.57528">
        <ele>977.067</ele>
        <time>2022-02-20T15:06:22Z</time>
      </trkpt>
      <trkpt lat="42.76205" lon="1.5753">
        <ele>977.093</ele>
        <time>2022-02-20T15:06:24Z</time>
      </trkpt>
      <trkpt lat="42.76208" lon="1.57532">
        <ele>976.733</ele>
        <time>2022-02-20T15:06:26Z</time>
      </trkpt>
      <trkpt lat="42.76211" lon="1.57534">
        <ele>976.86</ele>
        <time>2022-02-20T15:06:28Z</time>
      </trkpt>
      <trkpt lat="42.76213" lon="1.57536">
        <ele>976.998</ele>
        <time>2022-02-20T15:06:30Z</time>
      </trkpt>
      <trkpt lat="42.76214" lon="1.57538">
        <ele>975.821</ele>
        <time>2022-02-20T15:06:32Z</time>
      </trkpt>
      <trkpt lat="42.76216" lon="1.5754">
        <ele>975.126</ele>
        <time>2022-02-20T15:06:34Z</time>
      </trkpt>
      <trkpt lat="42.76217" lon="1.57541">
        <ele>974.264</ele>
        <time>2022-02-20T15:06:36Z</time>
      </trkpt>
      <trkpt lat="42.76219" lon="1.57544">
        <ele>974.977</ele>
        <time>2022-02-20T15:06:38Z</time>
      </trkpt>
      <trkpt lat="42.76222" lon="1.57546">
        <ele>975.768</ele>
        <time>2022-02-20T15:06:40Z</time>
      </trkpt>
      <trkpt lat="42.76224" lon="1.57548">
        <ele>976.977</ele>
        <time>2022-02-20T15:06:42Z</time>
      </trkpt>
      <trkpt lat="42.76226" lon="1.57551">
        <ele>976.398</ele>
        <time>2022-02-20T15:06:44Z</time>
      </trkpt>
      <trkpt lat="42.76228" lon="1.57554">
        <ele>975.782</ele>
        <time>2022-02-20T15:06:46Z</time>
      </trkpt>
      <trkpt lat="42.76229" lon="1.57556">
        <ele>977.499</ele>
        <time>2022-02-20T15:06:48Z</time>
      </trkpt>
      <trkpt lat="42.76231" lon="1.57559">
        <ele>978.508</ele>
        <time>2022-02-20T15:06:50Z</time>
      </trkpt>
      <trkpt lat="42.76233" lon="1.57561">
        <ele>980.089</ele>
        <time>2022-02-20T15:06:52Z</time>
      </trkpt>
      <trkpt lat="42.76235" lon="1.57563">
        <ele>979.221</ele>
        <time>2022-02-20T15:06:54Z</time>
      </trkpt>
      <trkpt lat="42.76237" lon="1.57565">
        <ele>978.899</ele>
        <time>2022-02-20T15:06:56Z</time>
      </trkpt>
      <trkpt lat="42.7624" lon="1.57567">
        <ele>979.332</ele>
        <time>2022-02-20T15:06:58Z</time>
      </trkpt>
      <trkpt lat="42.76243" lon="1.57569">
        <ele>978.058</ele>
        <time>2022-02-20T15:07:00Z</time>
      </trkpt>
      <trkpt lat="42.76245" lon="1.5757">
        <ele>978.636</ele>
        <time>2022-02-20T15:07:02Z</time>
      </trkpt>
      <trkpt lat="42.76248" lon="1.57571">
        <ele>978.542</ele>
        <time>2022-02-20T15:07:04Z</time>
      </trkpt>
      <trkpt lat="42.76252" lon="1.5757">
        <ele>979.967</ele>
        <time>2022-02-20T15:07:07Z</time>
      </trkpt>
      <trkpt lat="42.76255" lon="1.57569">
        <ele>979.185</ele>
        <time>2022-02-20T15:07:09Z</time>
      </trkpt>
      <trkpt lat="42.76257" lon="1.57569">
        <ele>979.887</ele>
        <time>2022-02-20T15:07:11Z</time>
      </trkpt>
      <trkpt lat="42.7626" lon="1.57567">
        <ele>980.999</ele>
        <time>2022-02-20T15:07:13Z</time>
      </trkpt>
      <trkpt lat="42.76262" lon="1.57567">
        <ele>980.292</ele>
        <time>2022-02-20T15:07:15Z</time>
      </trkpt>
      <trkpt lat="42.76265" lon="1.57565">
        <ele>979.986</ele>
        <time>2022-02-20T15:07:17Z</time>
      </trkpt>
      <trkpt lat="42.76267" lon="1.57564">
        <ele>978.406</ele>
        <time>2022-02-20T15:07:19Z</time>
      </trkpt>
      <trkpt lat="42.76269" lon="1.57562">
        <ele>977.94</ele>
        <time>2022-02-20T15:07:21Z</time>
      </trkpt>
      <trkpt lat="42.76271" lon="1.57561">
        <ele>978.331</ele>
        <time>2022-02-20T15:07:23Z</time>
      </trkpt>
      <trkpt lat="42.76273" lon="1.5756">
        <ele>977.49</ele>
        <time>2022-02-20T15:07:25Z</time>
      </trkpt>
      <trkpt lat="42.76275" lon="1.57559">
        <ele>976.633</ele>
        <time>2022-02-20T15:07:27Z</time>
      </trkpt>
      <trkpt lat="42.76277" lon="1.57556">
        <ele>975.789</ele>
        <time>2022-02-20T15:07:29Z</time>
      </trkpt>
      <trkpt lat="42.76279" lon="1.57555">
        <ele>974.437</ele>
        <time>2022-02-20T15:07:31Z</time>
      </trkpt>
      <trkpt lat="42.76281" lon="1.57555">
        <ele>973.484</ele>
        <time>2022-02-20T15:07:33Z</time>
      </trkpt>
      <trkpt lat="42.76283" lon="1.57554">
        <ele>972.975</ele>
        <time>2022-02-20T15:07:35Z</time>
      </trkpt>
      <trkpt lat="42.76286" lon="1.57553">
        <ele>973.06</ele>
        <time>2022-02-20T15:07:37Z</time>
      </trkpt>
      <trkpt lat="42.76288" lon="1.57551">
        <ele>971.875</ele>
        <time>2022-02-20T15:07:39Z</time>
      </trkpt>
      <trkpt lat="42.7629" lon="1.5755">
        <ele>971.321</ele>
        <time>2022-02-20T15:07:41Z</time>
      </trkpt>
      <trkpt lat="42.76292" lon="1.5755">
        <ele>970.693</ele>
        <time>2022-02-20T15:07:43Z</time>
      </trkpt>
      <trkpt lat="42.76295" lon="1.57548">
        <ele>970.058</ele>
        <time>2022-02-20T15:07:45Z</time>
      </trkpt>
      <trkpt lat="42.76296" lon="1.57546">
        <ele>969.493</ele>
        <time>2022-02-20T15:07:47Z</time>
      </trkpt>
      <trkpt lat="42.76298" lon="1.57544">
        <ele>968.324</ele>
        <time>2022-02-20T15:07:49Z</time>
      </trkpt>
      <trkpt lat="42.763" lon="1.57543">
        <ele>966.06</ele>
        <time>2022-02-20T15:07:51Z</time>
      </trkpt>
      <trkpt lat="42.76302" lon="1.57542">
        <ele>964.063</ele>
        <time>2022-02-20T15:07:53Z</time>
      </trkpt>
      <trkpt lat="42.76304" lon="1.5754">
        <ele>962.597</ele>
        <time>2022-02-20T15:07:55Z</time>
      </trkpt>
      <trkpt lat="42.76306" lon="1.57537">
        <ele>961.4</ele>
        <time>2022-02-20T15:07:57Z</time>
      </trkpt>
      <trkpt lat="42.76308" lon="1.57535">
        <ele>961.313</ele>
        <time>2022-02-20T15:07:59Z</time>
      </trkpt>
      <trkpt lat="42.7631" lon="1.57532">
        <ele>961.796</ele>
        <time>2022-02-20T15:08:01Z</time>
      </trkpt>
      <trkpt lat="42.76312" lon="1.5753">
        <ele>961.307</ele>
        <time>2022-02-20T15:08:03Z</time>
      </trkpt>
      <trkpt lat="42.76315" lon="1.57528">
        <ele>959.972</ele>
        <time>2022-02-20T15:08:05Z</time>
      </trkpt>
      <trkpt lat="42.76316" lon="1.57527">
        <ele>959.251</ele>
        <time>2022-02-20T15:08:07Z</time>
      </trkpt>
      <trkpt lat="42.76318" lon="1.57525">
        <ele>958.432</ele>
        <time>2022-02-20T15:08:09Z</time>
      </trkpt>
      <trkpt lat="42.7632" lon="1.57523">
        <ele>957.586</ele>
        <time>2022-02-20T15:08:11Z</time>
      </trkpt>
      <trkpt lat="42.76322" lon="1.57521">
        <ele>957.087</ele>
        <time>2022-02-20T15:08:13Z</time>
      </trkpt>
      <trkpt lat="42.76324" lon="1.57518">
        <ele>957.368</ele>
        <time>2022-02-20T15:08:15Z</time>
      </trkpt>
      <trkpt lat="42.76326" lon="1.57516">
        <ele>956.328</ele>
        <time>2022-02-20T15:08:17Z</time>
      </trkpt>
      <trkpt lat="42.76328" lon="1.57514">
        <ele>956.267</ele>
        <time>2022-02-20T15:08:19Z</time>
      </trkpt>
      <trkpt lat="42.7633" lon="1.57511">
        <ele>955.274</ele>
        <time>2022-02-20T15:08:21Z</time>
      </trkpt>
      <trkpt lat="42.76331" lon="1.57509">
        <ele>954.513</ele>
        <time>2022-02-20T15:08:23Z</time>
      </trkpt>
      <trkpt lat="42.76333" lon="1.57505">
        <ele>953.243</ele>
        <time>2022-02-20T15:08:25Z</time>
      </trkpt>
      <trkpt lat="42.76334" lon="1.57502">
        <ele>952.99</ele>
        <time>2022-02-20T15:08:27Z</time>
      </trkpt>
      <trkpt lat="42.76336" lon="1.57499">
        <ele>952.81</ele>
        <time>2022-02-20T15:08:29Z</time>
      </trkpt>
      <trkpt lat="42.76338" lon="1.57497">
        <ele>951.918</ele>
        <time>2022-02-20T15:08:31Z</time>
      </trkpt>
      <trkpt lat="42.7634" lon="1.57494">
        <ele>950.655</ele>
        <time>2022-02-20T15:08:33Z</time>
      </trkpt>
      <trkpt lat="42.76341" lon="1.57491">
        <ele>949.848</ele>
        <time>2022-02-20T15:08:35Z</time>
      </trkpt>
      <trkpt lat="42.76343" lon="1.57488">
        <ele>949.536</ele>
        <time>2022-02-20T15:08:37Z</time>
      </trkpt>
      <trkpt lat="42.76344" lon="1.57486">
        <ele>949.482</ele>
        <time>2022-02-20T15:08:39Z</time>
      </trkpt>
      <trkpt lat="42.76345" lon="1.57483">
        <ele>948.407</ele>
        <time>2022-02-20T15:08:41Z</time>
      </trkpt>
      <trkpt lat="42.76346" lon="1.5748">
        <ele>947.995</ele>
        <time>2022-02-20T15:08:43Z</time>
      </trkpt>
      <trkpt lat="42.76347" lon="1.57476">
        <ele>948.84</ele>
        <time>2022-02-20T15:08:45Z</time>
      </trkpt>
      <trkpt lat="42.76348" lon="1.57473">
        <ele>949.423</ele>
        <time>2022-02-20T15:08:47Z</time>
      </trkpt>
      <trkpt lat="42.76348" lon="1.5747">
        <ele>949.388</ele>
        <time>2022-02-20T15:08:49Z</time>
      </trkpt>
      <trkpt lat="42.76349" lon="1.57466">
        <ele>949.023</ele>
        <time>2022-02-20T15:08:51Z</time>
      </trkpt>
      <trkpt lat="42.76351" lon="1.57463">
        <ele>948.653</ele>
        <time>2022-02-20T15:08:53Z</time>
      </trkpt>
      <trkpt lat="42.76352" lon="1.5746">
        <ele>948.718</ele>
        <time>2022-02-20T15:08:55Z</time>
      </trkpt>
      <trkpt lat="42.76353" lon="1.57456">
        <ele>948.863</ele>
        <time>2022-02-20T15:08:57Z</time>
      </trkpt>
      <trkpt lat="42.76354" lon="1.57453">
        <ele>948.915</ele>
        <time>2022-02-20T15:08:59Z</time>
      </trkpt>
      <trkpt lat="42.76355" lon="1.5745">
        <ele>949.214</ele>
        <time>2022-02-20T15:09:01Z</time>
      </trkpt>
      <trkpt lat="42.76356" lon="1.57447">
        <ele>949.34</ele>
        <time>2022-02-20T15:09:03Z</time>
      </trkpt>
      <trkpt lat="42.76357" lon="1.57444">
        <ele>948.701</ele>
        <time>2022-02-20T15:09:05Z</time>
      </trkpt>
      <trkpt lat="42.76358" lon="1.57441">
        <ele>948.472</ele>
        <time>2022-02-20T15:09:07Z</time>
      </trkpt>
      <trkpt lat="42.76359" lon="1.57438">
        <ele>948.651</ele>
        <time>2022-02-20T15:09:09Z</time>
      </trkpt>
      <trkpt lat="42.7636" lon="1.57435">
        <ele>948.7</ele>
        <time>2022-02-20T15:09:11Z</time>
      </trkpt>
      <trkpt lat="42.76361" lon="1.57432">
        <ele>948.737</ele>
        <time>2022-02-20T15:09:13Z</time>
      </trkpt>
      <trkpt lat="42.76362" lon="1.57428">
        <ele>948.977</ele>
        <time>2022-02-20T15:09:15Z</time>
      </trkpt>
      <trkpt lat="42.76362" lon="1.57424">
        <ele>949.238</ele>
        <time>2022-02-20T15:09:17Z</time>
      </trkpt>
      <trkpt lat="42.76362" lon="1.57421">
        <ele>949.689</ele>
        <time>2022-02-20T15:09:19Z</time>
      </trkpt>
      <trkpt lat="42.76363" lon="1.57417">
        <ele>949.998</ele>
        <time>2022-02-20T15:09:21Z</time>
      </trkpt>
      <trkpt lat="42.76363" lon="1.57417">
        <ele>949.682</ele>
        <time>2022-02-20T15:09:23Z</time>
      </trkpt>
      <trkpt lat="42.76363" lon="1.57417">
        <ele>949.69</ele>
        <time>2022-02-20T15:09:25Z</time>
      </trkpt>
      <trkpt lat="42.76363" lon="1.57417">
        <ele>949.69</ele>
        <time>2022-02-20T15:09:27Z</time>
      </trkpt>
      <trkpt lat="42.76363" lon="1.57417">
        <ele>949.689</ele>
        <time>2022-02-20T15:09:29Z</time>
      </trkpt>
      <trkpt lat="42.76363" lon="1.57417">
        <ele>949.521</ele>
        <time>2022-02-20T15:09:31Z</time>
      </trkpt>
      <trkpt lat="42.76364" lon="1.57416">
        <ele>949.501</ele>
        <time>2022-02-20T15:09:33Z</time>
      </trkpt>
      <trkpt lat="42.76364" lon="1.57415">
        <ele>949.933</ele>
        <time>2022-02-20T15:09:35Z</time>
      </trkpt>
      <trkpt lat="42.76367" lon="1.57415">
        <ele>949.857</ele>
        <time>2022-02-20T15:09:37Z</time>
      </trkpt>
      <trkpt lat="42.76369" lon="1.57413">
        <ele>950.235</ele>
        <time>2022-02-20T15:09:39Z</time>
      </trkpt>
      <trkpt lat="42.7637" lon="1.57411">
        <ele>950.208</ele>
        <time>2022-02-20T15:09:41Z</time>
      </trkpt>
      <trkpt lat="42.76372" lon="1.57409">
        <ele>950.55</ele>
        <time>2022-02-20T15:09:43Z</time>
      </trkpt>
      <trkpt lat="42.76373" lon="1.57408">
        <ele>950.744</ele>
        <time>2022-02-20T15:09:45Z</time>
      </trkpt>
      <trkpt lat="42.76374" lon="1.57406">
        <ele>951.276</ele>
        <time>2022-02-20T15:09:47Z</time>
      </trkpt>
      <trkpt lat="42.76375" lon="1.57404">
        <ele>952.48</ele>
        <time>2022-02-20T15:09:49Z</time>
      </trkpt>
      <trkpt lat="42.76376" lon="1.57403">
        <ele>952.465</ele>
        <time>2022-02-20T15:09:51Z</time>
      </trkpt>
      <trkpt lat="42.76377" lon="1.57401">
        <ele>953.195</ele>
        <time>2022-02-20T15:09:53Z</time>
      </trkpt>
      <trkpt lat="42.76378" lon="1.57399">
        <ele>953.433</ele>
        <time>2022-02-20T15:09:55Z</time>
      </trkpt>
      <trkpt lat="42.7638" lon="1.57398">
        <ele>953.376</ele>
        <time>2022-02-20T15:09:57Z</time>
      </trkpt>
      <trkpt lat="42.76381" lon="1.57397">
        <ele>953.699</ele>
        <time>2022-02-20T15:09:59Z</time>
      </trkpt>
      <trkpt lat="42.76383" lon="1.57395">
        <ele>953.704</ele>
        <time>2022-02-20T15:10:01Z</time>
      </trkpt>
      <trkpt lat="42.76385" lon="1.57394">
        <ele>953.934</ele>
        <time>2022-02-20T15:10:03Z</time>
      </trkpt>
      <trkpt lat="42.76387" lon="1.57393">
        <ele>953.531</ele>
        <time>2022-02-20T15:10:05Z</time>
      </trkpt>
      <trkpt lat="42.76388" lon="1.57391">
        <ele>953.959</ele>
        <time>2022-02-20T15:10:07Z</time>
      </trkpt>
      <trkpt lat="42.7639" lon="1.57389">
        <ele>953.644</ele>
        <time>2022-02-20T15:10:09Z</time>
      </trkpt>
      <trkpt lat="42.76392" lon="1.57388">
        <ele>953.685</ele>
        <time>2022-02-20T15:10:11Z</time>
      </trkpt>
      <trkpt lat="42.76393" lon="1.57386">
        <ele>953.838</ele>
        <time>2022-02-20T15:10:13Z</time>
      </trkpt>
      <trkpt lat="42.76395" lon="1.57384">
        <ele>953.57</ele>
        <time>2022-02-20T15:10:15Z</time>
      </trkpt>
      <trkpt lat="42.76397" lon="1.57382">
        <ele>953.714</ele>
        <time>2022-02-20T15:10:17Z</time>
      </trkpt>
      <trkpt lat="42.76399" lon="1.57381">
        <ele>953.727</ele>
        <time>2022-02-20T15:10:19Z</time>
      </trkpt>
      <trkpt lat="42.76401" lon="1.5738">
        <ele>953.419</ele>
        <time>2022-02-20T15:10:21Z</time>
      </trkpt>
      <trkpt lat="42.76404" lon="1.57378">
        <ele>953.53</ele>
        <time>2022-02-20T15:10:23Z</time>
      </trkpt>
      <trkpt lat="42.76406" lon="1.57377">
        <ele>953.347</ele>
        <time>2022-02-20T15:10:25Z</time>
      </trkpt>
      <trkpt lat="42.76408" lon="1.57376">
        <ele>954.477</ele>
        <time>2022-02-20T15:10:27Z</time>
      </trkpt>
      <trkpt lat="42.7641" lon="1.57375">
        <ele>954.564</ele>
        <time>2022-02-20T15:10:29Z</time>
      </trkpt>
      <trkpt lat="42.76412" lon="1.57373">
        <ele>954.554</ele>
        <time>2022-02-20T15:10:31Z</time>
      </trkpt>
      <trkpt lat="42.76414" lon="1.57372">
        <ele>953.999</ele>
        <time>2022-02-20T15:10:33Z</time>
      </trkpt>
      <trkpt lat="42.76416" lon="1.57371">
        <ele>954.308</ele>
        <time>2022-02-20T15:10:35Z</time>
      </trkpt>
      <trkpt lat="42.76418" lon="1.57369">
        <ele>954.702</ele>
        <time>2022-02-20T15:10:37Z</time>
      </trkpt>
      <trkpt lat="42.76419" lon="1.57369">
        <ele>954.554</ele>
        <time>2022-02-20T15:10:39Z</time>
      </trkpt>
      <trkpt lat="42.76423" lon="1.57367">
        <ele>953.89</ele>
        <time>2022-02-20T15:10:42Z</time>
      </trkpt>
      <trkpt lat="42.76424" lon="1.57365">
        <ele>953.392</ele>
        <time>2022-02-20T15:10:44Z</time>
      </trkpt>
      <trkpt lat="42.76427" lon="1.57363">
        <ele>953.476</ele>
        <time>2022-02-20T15:10:46Z</time>
      </trkpt>
      <trkpt lat="42.76429" lon="1.57362">
        <ele>953.18</ele>
        <time>2022-02-20T15:10:48Z</time>
      </trkpt>
      <trkpt lat="42.76431" lon="1.57361">
        <ele>953.421</ele>
        <time>2022-02-20T15:10:50Z</time>
      </trkpt>
      <trkpt lat="42.76434" lon="1.57359">
        <ele>954.09</ele>
        <time>2022-02-20T15:10:52Z</time>
      </trkpt>
      <trkpt lat="42.76436" lon="1.57358">
        <ele>954.316</ele>
        <time>2022-02-20T15:10:54Z</time>
      </trkpt>
      <trkpt lat="42.76439" lon="1.57357">
        <ele>955.02</ele>
        <time>2022-02-20T15:10:56Z</time>
      </trkpt>
      <trkpt lat="42.76441" lon="1.57357">
        <ele>954.665</ele>
        <time>2022-02-20T15:10:58Z</time>
      </trkpt>
      <trkpt lat="42.76443" lon="1.57356">
        <ele>954.449</ele>
        <time>2022-02-20T15:11:00Z</time>
      </trkpt>
      <trkpt lat="42.76445" lon="1.57356">
        <ele>953.88</ele>
        <time>2022-02-20T15:11:02Z</time>
      </trkpt>
      <trkpt lat="42.76448" lon="1.57355">
        <ele>953.954</ele>
        <time>2022-02-20T15:11:04Z</time>
      </trkpt>
      <trkpt lat="42.7645" lon="1.57354">
        <ele>954.204</ele>
        <time>2022-02-20T15:11:06Z</time>
      </trkpt>
      <trkpt lat="42.76452" lon="1.57354">
        <ele>954.596</ele>
        <time>2022-02-20T15:11:08Z</time>
      </trkpt>
      <trkpt lat="42.76454" lon="1.57354">
        <ele>954.094</ele>
        <time>2022-02-20T15:11:10Z</time>
      </trkpt>
      <trkpt lat="42.76457" lon="1.57353">
        <ele>954.202</ele>
        <time>2022-02-20T15:11:12Z</time>
      </trkpt>
      <trkpt lat="42.76459" lon="1.57353">
        <ele>954.17</ele>
        <time>2022-02-20T15:11:14Z</time>
      </trkpt>
      <trkpt lat="42.76462" lon="1.57352">
        <ele>954.897</ele>
        <time>2022-02-20T15:11:16Z</time>
      </trkpt>
      <trkpt lat="42.76464" lon="1.57351">
        <ele>955.184</ele>
        <time>2022-02-20T15:11:18Z</time>
      </trkpt>
      <trkpt lat="42.76467" lon="1.5735">
        <ele>955.532</ele>
        <time>2022-02-20T15:11:20Z</time>
      </trkpt>
      <trkpt lat="42.76469" lon="1.5735">
        <ele>955.242</ele>
        <time>2022-02-20T15:11:22Z</time>
      </trkpt>
      <trkpt lat="42.7647" lon="1.57349">
        <ele>955.498</ele>
        <time>2022-02-20T15:11:24Z</time>
      </trkpt>
      <trkpt lat="42.76473" lon="1.57348">
        <ele>955.459</ele>
        <time>2022-02-20T15:11:26Z</time>
      </trkpt>
      <trkpt lat="42.76475" lon="1.57347">
        <ele>956.095</ele>
        <time>2022-02-20T15:11:28Z</time>
      </trkpt>
      <trkpt lat="42.76477" lon="1.57346">
        <ele>955.566</ele>
        <time>2022-02-20T15:11:30Z</time>
      </trkpt>
      <trkpt lat="42.76479" lon="1.57346">
        <ele>956.316</ele>
        <time>2022-02-20T15:11:32Z</time>
      </trkpt>
      <trkpt lat="42.76481" lon="1.57346">
        <ele>956.686</ele>
        <time>2022-02-20T15:11:34Z</time>
      </trkpt>
      <trkpt lat="42.76483" lon="1.57346">
        <ele>956.606</ele>
        <time>2022-02-20T15:11:36Z</time>
      </trkpt>
      <trkpt lat="42.76485" lon="1.57345">
        <ele>955.986</ele>
        <time>2022-02-20T15:11:38Z</time>
      </trkpt>
      <trkpt lat="42.76487" lon="1.57345">
        <ele>955.469</ele>
        <time>2022-02-20T15:11:40Z</time>
      </trkpt>
      <trkpt lat="42.7649" lon="1.57344">
        <ele>955.771</ele>
        <time>2022-02-20T15:11:42Z</time>
      </trkpt>
      <trkpt lat="42.76492" lon="1.57343">
        <ele>957.112</ele>
        <time>2022-02-20T15:11:44Z</time>
      </trkpt>
      <trkpt lat="42.76495" lon="1.57342">
        <ele>957.16</ele>
        <time>2022-02-20T15:11:46Z</time>
      </trkpt>
      <trkpt lat="42.76497" lon="1.57341">
        <ele>958.412</ele>
        <time>2022-02-20T15:11:48Z</time>
      </trkpt>
      <trkpt lat="42.765" lon="1.5734">
        <ele>959.453</ele>
        <time>2022-02-20T15:11:50Z</time>
      </trkpt>
      <trkpt lat="42.76502" lon="1.57339">
        <ele>961.093</ele>
        <time>2022-02-20T15:11:52Z</time>
      </trkpt>
      <trkpt lat="42.76504" lon="1.57337">
        <ele>961.952</ele>
        <time>2022-02-20T15:11:54Z</time>
      </trkpt>
      <trkpt lat="42.76506" lon="1.57336">
        <ele>963.42</ele>
        <time>2022-02-20T15:11:56Z</time>
      </trkpt>
      <trkpt lat="42.76509" lon="1.57335">
        <ele>963.515</ele>
        <time>2022-02-20T15:11:58Z</time>
      </trkpt>
      <trkpt lat="42.76512" lon="1.57335">
        <ele>962.062</ele>
        <time>2022-02-20T15:12:00Z</time>
      </trkpt>
      <trkpt lat="42.76515" lon="1.57333">
        <ele>961.869</ele>
        <time>2022-02-20T15:12:02Z</time>
      </trkpt>
      <trkpt lat="42.76517" lon="1.57332">
        <ele>961.132</ele>
        <time>2022-02-20T15:12:04Z</time>
      </trkpt>
      <trkpt lat="42.7652" lon="1.57332">
        <ele>961.444</ele>
        <time>2022-02-20T15:12:06Z</time>
      </trkpt>
      <trkpt lat="42.76523" lon="1.57332">
        <ele>962.661</ele>
        <time>2022-02-20T15:12:08Z</time>
      </trkpt>
      <trkpt lat="42.76525" lon="1.57332">
        <ele>963.917</ele>
        <time>2022-02-20T15:12:10Z</time>
      </trkpt>
      <trkpt lat="42.76527" lon="1.57331">
        <ele>964.097</ele>
        <time>2022-02-20T15:12:12Z</time>
      </trkpt>
      <trkpt lat="42.7653" lon="1.57331">
        <ele>964.499</ele>
        <time>2022-02-20T15:12:14Z</time>
      </trkpt>
      <trkpt lat="42.76532" lon="1.57329">
        <ele>964.835</ele>
        <time>2022-02-20T15:12:16Z</time>
      </trkpt>
      <trkpt lat="42.76534" lon="1.57328">
        <ele>963.81</ele>
        <time>2022-02-20T15:12:18Z</time>
      </trkpt>
      <trkpt lat="42.76536" lon="1.57327">
        <ele>963.612</ele>
        <time>2022-02-20T15:12:20Z</time>
      </trkpt>
      <trkpt lat="42.76539" lon="1.57326">
        <ele>963.355</ele>
        <time>2022-02-20T15:12:22Z</time>
      </trkpt>
      <trkpt lat="42.7654" lon="1.57325">
        <ele>961.853</ele>
        <time>2022-02-20T15:12:24Z</time>
      </trkpt>
      <trkpt lat="42.76542" lon="1.57324">
        <ele>960.403</ele>
        <time>2022-02-20T15:12:26Z</time>
      </trkpt>
      <trkpt lat="42.76544" lon="1.57323">
        <ele>959.887</ele>
        <time>2022-02-20T15:12:28Z</time>
      </trkpt>
      <trkpt lat="42.76547" lon="1.57322">
        <ele>959.563</ele>
        <time>2022-02-20T15:12:30Z</time>
      </trkpt>
      <trkpt lat="42.76549" lon="1.5732">
        <ele>959.03</ele>
        <time>2022-02-20T15:12:32Z</time>
      </trkpt>
      <trkpt lat="42.76551" lon="1.57319">
        <ele>959.712</ele>
        <time>2022-02-20T15:12:34Z</time>
      </trkpt>
      <trkpt lat="42.76553" lon="1.57318">
        <ele>958.766</ele>
        <time>2022-02-20T15:12:36Z</time>
      </trkpt>
      <trkpt lat="42.76556" lon="1.57318">
        <ele>958.561</ele>
        <time>2022-02-20T15:12:38Z</time>
      </trkpt>
      <trkpt lat="42.76558" lon="1.57319">
        <ele>958.735</ele>
        <time>2022-02-20T15:12:40Z</time>
      </trkpt>
      <trkpt lat="42.76561" lon="1.57319">
        <ele>958.619</ele>
        <time>2022-02-20T15:12:42Z</time>
      </trkpt>
      <trkpt lat="42.76563" lon="1.57319">
        <ele>958.964</ele>
        <time>2022-02-20T15:12:44Z</time>
      </trkpt>
      <trkpt lat="42.76565" lon="1.57319">
        <ele>958.82</ele>
        <time>2022-02-20T15:12:46Z</time>
      </trkpt>
      <trkpt lat="42.76568" lon="1.57319">
        <ele>959.329</ele>
        <time>2022-02-20T15:12:48Z</time>
      </trkpt>
      <trkpt lat="42.7657" lon="1.57319">
        <ele>960.238</ele>
        <time>2022-02-20T15:12:50Z</time>
      </trkpt>
      <trkpt lat="42.76572" lon="1.5732">
        <ele>961.344</ele>
        <time>2022-02-20T15:12:52Z</time>
      </trkpt>
      <trkpt lat="42.76575" lon="1.57321">
        <ele>961.571</ele>
        <time>2022-02-20T15:12:54Z</time>
      </trkpt>
      <trkpt lat="42.76577" lon="1.57321">
        <ele>960.583</ele>
        <time>2022-02-20T15:12:56Z</time>
      </trkpt>
      <trkpt lat="42.76579" lon="1.57322">
        <ele>960.2</ele>
        <time>2022-02-20T15:12:58Z</time>
      </trkpt>
      <trkpt lat="42.76581" lon="1.57322">
        <ele>959.973</ele>
        <time>2022-02-20T15:13:00Z</time>
      </trkpt>
      <trkpt lat="42.76584" lon="1.57322">
        <ele>960.187</ele>
        <time>2022-02-20T15:13:02Z</time>
      </trkpt>
      <trkpt lat="42.76586" lon="1.57323">
        <ele>959.95</ele>
        <time>2022-02-20T15:13:04Z</time>
      </trkpt>
      <trkpt lat="42.76589" lon="1.57323">
        <ele>959.869</ele>
        <time>2022-02-20T15:13:06Z</time>
      </trkpt>
      <trkpt lat="42.76591" lon="1.57323">
        <ele>960.007</ele>
        <time>2022-02-20T15:13:08Z</time>
      </trkpt>
      <trkpt lat="42.76593" lon="1.57323">
        <ele>959.431</ele>
        <time>2022-02-20T15:13:10Z</time>
      </trkpt>
      <trkpt lat="42.76595" lon="1.57323">
        <ele>960.196</ele>
        <time>2022-02-20T15:13:12Z</time>
      </trkpt>
      <trkpt lat="42.76597" lon="1.57324">
        <ele>959.831</ele>
        <time>2022-02-20T15:13:14Z</time>
      </trkpt>
      <trkpt lat="42.76599" lon="1.57323">
        <ele>959.367</ele>
        <time>2022-02-20T15:13:16Z</time>
      </trkpt>
      <trkpt lat="42.76601" lon="1.57322">
        <ele>958.799</ele>
        <time>2022-02-20T15:13:18Z</time>
      </trkpt>
      <trkpt lat="42.76604" lon="1.5732">
        <ele>959.155</ele>
        <time>2022-02-20T15:13:20Z</time>
      </trkpt>
      <trkpt lat="42.76606" lon="1.57319">
        <ele>958.609</ele>
        <time>2022-02-20T15:13:22Z</time>
      </trkpt>
      <trkpt lat="42.76608" lon="1.57318">
        <ele>957.763</ele>
        <time>2022-02-20T15:13:24Z</time>
      </trkpt>
      <trkpt lat="42.7661" lon="1.57317">
        <ele>957.745</ele>
        <time>2022-02-20T15:13:26Z</time>
      </trkpt>
      <trkpt lat="42.76613" lon="1.57316">
        <ele>957.228</ele>
        <time>2022-02-20T15:13:28Z</time>
      </trkpt>
      <trkpt lat="42.76616" lon="1.57315">
        <ele>957.867</ele>
        <time>2022-02-20T15:13:30Z</time>
      </trkpt>
      <trkpt lat="42.76619" lon="1.57314">
        <ele>957.874</ele>
        <time>2022-02-20T15:13:32Z</time>
      </trkpt>
      <trkpt lat="42.76622" lon="1.57313">
        <ele>957.183</ele>
        <time>2022-02-20T15:13:34Z</time>
      </trkpt>
      <trkpt lat="42.76624" lon="1.57313">
        <ele>956.509</ele>
        <time>2022-02-20T15:13:36Z</time>
      </trkpt>
      <trkpt lat="42.76626" lon="1.57312">
        <ele>955.672</ele>
        <time>2022-02-20T15:13:38Z</time>
      </trkpt>
      <trkpt lat="42.76628" lon="1.57312">
        <ele>954.706</ele>
        <time>2022-02-20T15:13:40Z</time>
      </trkpt>
      <trkpt lat="42.76631" lon="1.57312">
        <ele>955.888</ele>
        <time>2022-02-20T15:13:42Z</time>
      </trkpt>
      <trkpt lat="42.76633" lon="1.57312">
        <ele>956.256</ele>
        <time>2022-02-20T15:13:44Z</time>
      </trkpt>
      <trkpt lat="42.76635" lon="1.57312">
        <ele>956.758</ele>
        <time>2022-02-20T15:13:46Z</time>
      </trkpt>
      <trkpt lat="42.76637" lon="1.57312">
        <ele>958.918</ele>
        <time>2022-02-20T15:13:48Z</time>
      </trkpt>
      <trkpt lat="42.7664" lon="1.57313">
        <ele>959.068</ele>
        <time>2022-02-20T15:13:50Z</time>
      </trkpt>
      <trkpt lat="42.76642" lon="1.57313">
        <ele>959.496</ele>
        <time>2022-02-20T15:13:52Z</time>
      </trkpt>
      <trkpt lat="42.76644" lon="1.57313">
        <ele>960.003</ele>
        <time>2022-02-20T15:13:54Z</time>
      </trkpt>
      <trkpt lat="42.76646" lon="1.57313">
        <ele>959.924</ele>
        <time>2022-02-20T15:13:56Z</time>
      </trkpt>
      <trkpt lat="42.76648" lon="1.57313">
        <ele>959.859</ele>
        <time>2022-02-20T15:13:58Z</time>
      </trkpt>
      <trkpt lat="42.7665" lon="1.57314">
        <ele>960.419</ele>
        <time>2022-02-20T15:14:00Z</time>
      </trkpt>
      <trkpt lat="42.76652" lon="1.57314">
        <ele>960.752</ele>
        <time>2022-02-20T15:14:02Z</time>
      </trkpt>
      <trkpt lat="42.76653" lon="1.57313">
        <ele>959.755</ele>
        <time>2022-02-20T15:14:04Z</time>
      </trkpt>
      <trkpt lat="42.76655" lon="1.57312">
        <ele>959.46</ele>
        <time>2022-02-20T15:14:06Z</time>
      </trkpt>
      <trkpt lat="42.76657" lon="1.57311">
        <ele>959.258</ele>
        <time>2022-02-20T15:14:08Z</time>
      </trkpt>
      <trkpt lat="42.76659" lon="1.57311">
        <ele>959.532</ele>
        <time>2022-02-20T15:14:10Z</time>
      </trkpt>
      <trkpt lat="42.76661" lon="1.57309">
        <ele>959.641</ele>
        <time>2022-02-20T15:14:12Z</time>
      </trkpt>
      <trkpt lat="42.76663" lon="1.57307">
        <ele>959.474</ele>
        <time>2022-02-20T15:14:14Z</time>
      </trkpt>
      <trkpt lat="42.76665" lon="1.57306">
        <ele>958.717</ele>
        <time>2022-02-20T15:14:16Z</time>
      </trkpt>
      <trkpt lat="42.76667" lon="1.57304">
        <ele>958.316</ele>
        <time>2022-02-20T15:14:18Z</time>
      </trkpt>
      <trkpt lat="42.76669" lon="1.57302">
        <ele>958.944</ele>
        <time>2022-02-20T15:14:20Z</time>
      </trkpt>
      <trkpt lat="42.76672" lon="1.57301">
        <ele>958.157</ele>
        <time>2022-02-20T15:14:22Z</time>
      </trkpt>
      <trkpt lat="42.76674" lon="1.57299">
        <ele>958.218</ele>
        <time>2022-02-20T15:14:24Z</time>
      </trkpt>
      <trkpt lat="42.76676" lon="1.57298">
        <ele>957.661</ele>
        <time>2022-02-20T15:14:26Z</time>
      </trkpt>
      <trkpt lat="42.76678" lon="1.57297">
        <ele>957.278</ele>
        <time>2022-02-20T15:14:28Z</time>
      </trkpt>
      <trkpt lat="42.7668" lon="1.57296">
        <ele>957.547</ele>
        <time>2022-02-20T15:14:30Z</time>
      </trkpt>
      <trkpt lat="42.76683" lon="1.57296">
        <ele>957.781</ele>
        <time>2022-02-20T15:14:32Z</time>
      </trkpt>
      <trkpt lat="42.76685" lon="1.57295">
        <ele>957.269</ele>
        <time>2022-02-20T15:14:34Z</time>
      </trkpt>
      <trkpt lat="42.76688" lon="1.57295">
        <ele>957.408</ele>
        <time>2022-02-20T15:14:36Z</time>
      </trkpt>
      <trkpt lat="42.7669" lon="1.57294">
        <ele>956.569</ele>
        <time>2022-02-20T15:14:38Z</time>
      </trkpt>
      <trkpt lat="42.76693" lon="1.57294">
        <ele>955.965</ele>
        <time>2022-02-20T15:14:40Z</time>
      </trkpt>
      <trkpt lat="42.76695" lon="1.57294">
        <ele>955.348</ele>
        <time>2022-02-20T15:14:42Z</time>
      </trkpt>
      <trkpt lat="42.76698" lon="1.57294">
        <ele>955.135</ele>
        <time>2022-02-20T15:14:44Z</time>
      </trkpt>
      <trkpt lat="42.767" lon="1.57294">
        <ele>954.581</ele>
        <time>2022-02-20T15:14:46Z</time>
      </trkpt>
      <trkpt lat="42.76702" lon="1.57294">
        <ele>953.568</ele>
        <time>2022-02-20T15:14:48Z</time>
      </trkpt>
      <trkpt lat="42.76705" lon="1.57293">
        <ele>953.828</ele>
        <time>2022-02-20T15:14:50Z</time>
      </trkpt>
      <trkpt lat="42.76707" lon="1.57294">
        <ele>953.527</ele>
        <time>2022-02-20T15:14:52Z</time>
      </trkpt>
      <trkpt lat="42.7671" lon="1.57294">
        <ele>952.964</ele>
        <time>2022-02-20T15:14:54Z</time>
      </trkpt>
      <trkpt lat="42.76712" lon="1.57294">
        <ele>953.621</ele>
        <time>2022-02-20T15:14:56Z</time>
      </trkpt>
      <trkpt lat="42.76715" lon="1.57293">
        <ele>953.177</ele>
        <time>2022-02-20T15:14:58Z</time>
      </trkpt>
      <trkpt lat="42.76719" lon="1.57294">
        <ele>953.435</ele>
        <time>2022-02-20T15:15:01Z</time>
      </trkpt>
      <trkpt lat="42.76721" lon="1.57294">
        <ele>953.863</ele>
        <time>2022-02-20T15:15:03Z</time>
      </trkpt>
      <trkpt lat="42.76723" lon="1.57294">
        <ele>953.739</ele>
        <time>2022-02-20T15:15:05Z</time>
      </trkpt>
      <trkpt lat="42.76725" lon="1.57294">
        <ele>954.392</ele>
        <time>2022-02-20T15:15:07Z</time>
      </trkpt>
      <trkpt lat="42.76727" lon="1.57292">
        <ele>954.363</ele>
        <time>2022-02-20T15:15:09Z</time>
      </trkpt>
      <trkpt lat="42.76727" lon="1.57288">
        <ele>954.885</ele>
        <time>2022-02-20T15:15:11Z</time>
      </trkpt>
      <trkpt lat="42.76729" lon="1.57286">
        <ele>955.718</ele>
        <time>2022-02-20T15:15:13Z</time>
      </trkpt>
      <trkpt lat="42.7673" lon="1.57283">
        <ele>957.107</ele>
        <time>2022-02-20T15:15:15Z</time>
      </trkpt>
      <trkpt lat="42.7673" lon="1.5728">
        <ele>957.148</ele>
        <time>2022-02-20T15:15:17Z</time>
      </trkpt>
      <trkpt lat="42.76731" lon="1.57278">
        <ele>957.652</ele>
        <time>2022-02-20T15:15:19Z</time>
      </trkpt>
      <trkpt lat="42.76732" lon="1.57277">
        <ele>957.592</ele>
        <time>2022-02-20T15:15:21Z</time>
      </trkpt>
      <trkpt lat="42.76733" lon="1.57276">
        <ele>956.307</ele>
        <time>2022-02-20T15:15:23Z</time>
      </trkpt>
      <trkpt lat="42.76732" lon="1.57273">
        <ele>955.736</ele>
        <time>2022-02-20T15:15:25Z</time>
      </trkpt>
      <trkpt lat="42.76732" lon="1.5727">
        <ele>955.585</ele>
        <time>2022-02-20T15:15:27Z</time>
      </trkpt>
      <trkpt lat="42.76733" lon="1.57267">
        <ele>956.57</ele>
        <time>2022-02-20T15:15:29Z</time>
      </trkpt>
      <trkpt lat="42.76735" lon="1.57267">
        <ele>957.217</ele>
        <time>2022-02-20T15:15:31Z</time>
      </trkpt>
      <trkpt lat="42.76737" lon="1.57268">
        <ele>958.489</ele>
        <time>2022-02-20T15:15:33Z</time>
      </trkpt>
      <trkpt lat="42.76738" lon="1.57269">
        <ele>959.695</ele>
        <time>2022-02-20T15:15:35Z</time>
      </trkpt>
      <trkpt lat="42.76739" lon="1.57271">
        <ele>959.234</ele>
        <time>2022-02-20T15:15:37Z</time>
      </trkpt>
      <trkpt lat="42.76739" lon="1.57274">
        <ele>959.02</ele>
        <time>2022-02-20T15:15:39Z</time>
      </trkpt>
      <trkpt lat="42.76738" lon="1.57275">
        <ele>958.415</ele>
        <time>2022-02-20T15:15:41Z</time>
      </trkpt>
      <trkpt lat="42.76736" lon="1.57276">
        <ele>957.238</ele>
        <time>2022-02-20T15:15:43Z</time>
      </trkpt>
      <trkpt lat="42.76736" lon="1.57275">
        <ele>957.332</ele>
        <time>2022-02-20T15:15:45Z</time>
      </trkpt>
      <trkpt lat="42.76736" lon="1.57275">
        <ele>957.307</ele>
        <time>2022-02-20T15:15:47Z</time>
      </trkpt>
      <trkpt lat="42.76736" lon="1.57275">
        <ele>956.251</ele>
        <time>2022-02-20T15:15:49Z</time>
      </trkpt>
      <trkpt lat="42.76736" lon="1.57275">
        <ele>956.218</ele>
        <time>2022-02-20T15:15:51Z</time>
      </trkpt>
      <trkpt lat="42.76736" lon="1.57275">
        <ele>956.213</ele>
        <time>2022-02-20T15:15:53Z</time>
      </trkpt>
      <trkpt lat="42.76736" lon="1.57275">
        <ele>956.197</ele>
        <time>2022-02-20T15:15:55Z</time>
      </trkpt>
      <trkpt lat="42.76736" lon="1.57275">
        <ele>956.18</ele>
        <time>2022-02-20T15:15:57Z</time>
      </trkpt>
      <trkpt lat="42.76736" lon="1.57275">
        <ele>956.161</ele>
        <time>2022-02-20T15:15:59Z</time>
      </trkpt>
      <trkpt lat="42.76736" lon="1.57275">
        <ele>956.156</ele>
        <time>2022-02-20T15:16:01Z</time>
      </trkpt>
      <trkpt lat="42.76736" lon="1.57275">
        <ele>956.155</ele>
        <time>2022-02-20T15:16:03Z</time>
      </trkpt>
      <trkpt lat="42.76735" lon="1.57276">
        <ele>956.275</ele>
        <time>2022-02-20T15:16:05Z</time>
      </trkpt>
      <trkpt lat="42.76735" lon="1.57276">
        <ele>956.303</ele>
        <time>2022-02-20T15:16:07Z</time>
      </trkpt>
      <trkpt lat="42.76735" lon="1.57276">
        <ele>956.301</ele>
        <time>2022-02-20T15:16:09Z</time>
      </trkpt>
      <trkpt lat="42.76735" lon="1.57276">
        <ele>956.285</ele>
        <time>2022-02-20T15:16:11Z</time>
      </trkpt>
      <trkpt lat="42.76735" lon="1.57276">
        <ele>956.273</ele>
        <time>2022-02-20T15:16:13Z</time>
      </trkpt>
      <trkpt lat="42.76735" lon="1.57275">
        <ele>955.521</ele>
        <time>2022-02-20T15:16:15Z</time>
      </trkpt>
      <trkpt lat="42.76734" lon="1.57275">
        <ele>954.98</ele>
        <time>2022-02-20T15:16:17Z</time>
      </trkpt>
      <trkpt lat="42.76734" lon="1.57275">
        <ele>954.973</ele>
        <time>2022-02-20T15:16:19Z</time>
      </trkpt>
      <trkpt lat="42.76734" lon="1.57275">
        <ele>954.974</ele>
        <time>2022-02-20T15:16:21Z</time>
      </trkpt>
      <trkpt lat="42.76734" lon="1.57275">
        <ele>954.967</ele>
        <time>2022-02-20T15:16:23Z</time>
      </trkpt>
      <trkpt lat="42.76734" lon="1.57275">
        <ele>954.966</ele>
        <time>2022-02-20T15:16:25Z</time>
      </trkpt>
      <trkpt lat="42.76734" lon="1.57277">
        <ele>954.807</ele>
        <time>2022-02-20T15:16:27Z</time>
      </trkpt>
      <trkpt lat="42.76734" lon="1.57278">
        <ele>954.787</ele>
        <time>2022-02-20T15:16:29Z</time>
      </trkpt>
      <trkpt lat="42.76734" lon="1.57278">
        <ele>954.556</ele>
        <time>2022-02-20T15:16:31Z</time>
      </trkpt>
      <trkpt lat="42.76734" lon="1.57277">
        <ele>954.538</ele>
        <time>2022-02-20T15:16:33Z</time>
      </trkpt>
      <trkpt lat="42.76734" lon="1.57277">
        <ele>954.528</ele>
        <time>2022-02-20T15:16:35Z</time>
      </trkpt>
      <trkpt lat="42.76734" lon="1.57277">
        <ele>954.315</ele>
        <time>2022-02-20T15:16:37Z</time>
      </trkpt>
      <trkpt lat="42.76734" lon="1.57278">
        <ele>954.315</ele>
        <time>2022-02-20T15:16:39Z</time>
      </trkpt>
      <trkpt lat="42.76734" lon="1.57278">
        <ele>954.319</ele>
        <time>2022-02-20T15:16:41Z</time>
      </trkpt>
      <trkpt lat="42.76734" lon="1.57278">
        <ele>954.318</ele>
        <time>2022-02-20T15:16:43Z</time>
      </trkpt>
      <trkpt lat="42.76734" lon="1.57278">
        <ele>954.321</ele>
        <time>2022-02-20T15:16:45Z</time>
      </trkpt>
      <trkpt lat="42.76734" lon="1.57278">
        <ele>954.32</ele>
        <time>2022-02-20T15:16:47Z</time>
      </trkpt>
      <trkpt lat="42.76734" lon="1.57278">
        <ele>954.309</ele>
        <time>2022-02-20T15:16:49Z</time>
      </trkpt>
      <trkpt lat="42.76734" lon="1.57278">
        <ele>954.312</ele>
        <time>2022-02-20T15:16:51Z</time>
      </trkpt>
      <trkpt lat="42.76734" lon="1.57278">
        <ele>954.316</ele>
        <time>2022-02-20T15:16:53Z</time>
      </trkpt>
      <trkpt lat="42.76734" lon="1.57278">
        <ele>954.317</ele>
        <time>2022-02-20T15:16:55Z</time>
      </trkpt>
      <trkpt lat="42.76734" lon="1.57277">
        <ele>953.602</ele>
        <time>2022-02-20T15:16:57Z</time>
      </trkpt>
      <trkpt lat="42.76734" lon="1.57277">
        <ele>952.45</ele>
        <time>2022-02-20T15:16:59Z</time>
      </trkpt>
      <trkpt lat="42.76734" lon="1.57277">
        <ele>952.193</ele>
        <time>2022-02-20T15:17:01Z</time>
      </trkpt>
      <trkpt lat="42.76734" lon="1.57277">
        <ele>952.199</ele>
        <time>2022-02-20T15:17:03Z</time>
      </trkpt>
      <trkpt lat="42.76734" lon="1.57277">
        <ele>952.393</ele>
        <time>2022-02-20T15:17:05Z</time>
      </trkpt>
      <trkpt lat="42.76734" lon="1.57277">
        <ele>952.046</ele>
        <time>2022-02-20T15:17:07Z</time>
      </trkpt>
      <trkpt lat="42.76734" lon="1.57277">
        <ele>952.039</ele>
        <time>2022-02-20T15:17:09Z</time>
      </trkpt>
      <trkpt lat="42.76734" lon="1.57277">
        <ele>952.043</ele>
        <time>2022-02-20T15:17:11Z</time>
      </trkpt>
      <trkpt lat="42.76734" lon="1.57277">
        <ele>952.04</ele>
        <time>2022-02-20T15:17:13Z</time>
      </trkpt>
      <trkpt lat="42.76734" lon="1.57277">
        <ele>952.033</ele>
        <time>2022-02-20T15:17:15Z</time>
      </trkpt>
      <trkpt lat="42.76734" lon="1.57277">
        <ele>952.03</ele>
        <time>2022-02-20T15:17:17Z</time>
      </trkpt>
      <trkpt lat="42.76734" lon="1.57277">
        <ele>952.029</ele>
        <time>2022-02-20T15:17:19Z</time>
      </trkpt>
      <trkpt lat="42.76734" lon="1.57277">
        <ele>952.028</ele>
        <time>2022-02-20T15:17:21Z</time>
      </trkpt>
      <trkpt lat="42.76733" lon="1.57277">
        <ele>951.857</ele>
        <time>2022-02-20T15:17:23Z</time>
      </trkpt>
      <trkpt lat="42.76733" lon="1.57277">
        <ele>951.901</ele>
        <time>2022-02-20T15:17:25Z</time>
      </trkpt>
      <trkpt lat="42.76733" lon="1.57277">
        <ele>951.905</ele>
        <time>2022-02-20T15:17:27Z</time>
      </trkpt>
      <trkpt lat="42.76733" lon="1.57277">
        <ele>951.912</ele>
        <time>2022-02-20T15:17:29Z</time>
      </trkpt>
      <trkpt lat="42.76733" lon="1.57277">
        <ele>951.914</ele>
        <time>2022-02-20T15:17:31Z</time>
      </trkpt>
      <trkpt lat="42.76733" lon="1.57277">
        <ele>951.917</ele>
        <time>2022-02-20T15:17:33Z</time>
      </trkpt>
    </trkseg>
  </trk>
</gpx>